<?xml version="1.0" encoding="UTF-8" standalone="no" ?>
<gpx xmlns="http://www.topografix.com/GPX/1/1" xmlns:xsi="http://www.w3.org/2001/XMLSchema-instance" xsi:schemaLocation="http://www.topografix.com/GPX/1/1 http://www.topografix.com/GPX/1/1/gpx.xsd" version="1.1" creator="VisuGPX - https://www.visugpx.com">
  <metadata>
    <name>GR 223 : Touques - Honfleur</name>
    <desc><![CDATA[Touques, Trouville, Villerville, Cricquebeuf et Honfleur]]></desc>
  </metadata>
  <trk>
    <name><![CDATA[2015-10-18]]></name>
    <trkseg>
      <trkpt lat="49.34747" lon="0.09708">
        <ele>6.6</ele>
        <time>2015-10-18T07:15:51Z</time>
      </trkpt>
      <trkpt lat="49.34748" lon="0.09709">
        <ele>6.8</ele>
        <time>2015-10-18T07:15:52Z</time>
      </trkpt>
      <trkpt lat="49.3477" lon="0.0975">
        <ele>7.6</ele>
        <time>2015-10-18T07:16:23Z</time>
      </trkpt>
      <trkpt lat="49.34771" lon="0.09752">
        <ele>7.6</ele>
        <time>2015-10-18T07:16:24Z</time>
      </trkpt>
      <trkpt lat="49.34776" lon="0.09766">
        <ele>7.6</ele>
        <time>2015-10-18T07:16:33Z</time>
      </trkpt>
      <trkpt lat="49.34776" lon="0.09767">
        <ele>7.7</ele>
        <time>2015-10-18T07:16:34Z</time>
      </trkpt>
      <trkpt lat="49.34778" lon="0.09769">
        <ele>7.7</ele>
        <time>2015-10-18T07:16:36Z</time>
      </trkpt>
      <trkpt lat="49.3478" lon="0.0977">
        <ele>7.7</ele>
        <time>2015-10-18T07:16:38Z</time>
      </trkpt>
      <trkpt lat="49.34785" lon="0.0977">
        <ele>7.8</ele>
        <time>2015-10-18T07:16:42Z</time>
      </trkpt>
      <trkpt lat="49.34787" lon="0.09769">
        <ele>7.8</ele>
        <time>2015-10-18T07:16:43Z</time>
      </trkpt>
      <trkpt lat="49.34809" lon="0.09764">
        <ele>7.9</ele>
        <time>2015-10-18T07:16:59Z</time>
      </trkpt>
      <trkpt lat="49.3481" lon="0.09764">
        <ele>7.9</ele>
        <time>2015-10-18T07:17:00Z</time>
      </trkpt>
      <trkpt lat="49.34822" lon="0.09764">
        <ele>8</ele>
        <time>2015-10-18T07:17:11Z</time>
      </trkpt>
      <trkpt lat="49.34824" lon="0.09765">
        <ele>8.1</ele>
        <time>2015-10-18T07:17:12Z</time>
      </trkpt>
      <trkpt lat="49.34825" lon="0.09766">
        <ele>8.1</ele>
        <time>2015-10-18T07:17:13Z</time>
      </trkpt>
      <trkpt lat="49.34826" lon="0.09767">
        <ele>8.2</ele>
        <time>2015-10-18T07:17:14Z</time>
      </trkpt>
      <trkpt lat="49.34826" lon="0.09768">
        <ele>8.2</ele>
        <time>2015-10-18T07:17:15Z</time>
      </trkpt>
      <trkpt lat="49.34827" lon="0.09769">
        <ele>8.3</ele>
        <time>2015-10-18T07:17:16Z</time>
      </trkpt>
      <trkpt lat="49.34828" lon="0.0977">
        <ele>8.3</ele>
        <time>2015-10-18T07:17:17Z</time>
      </trkpt>
      <trkpt lat="49.34829" lon="0.09771">
        <ele>8.4</ele>
        <time>2015-10-18T07:17:18Z</time>
      </trkpt>
      <trkpt lat="49.3483" lon="0.09771">
        <ele>8.5</ele>
        <time>2015-10-18T07:17:19Z</time>
      </trkpt>
      <trkpt lat="49.34831" lon="0.09771">
        <ele>8.6</ele>
        <time>2015-10-18T07:17:20Z</time>
      </trkpt>
      <trkpt lat="49.34834" lon="0.09772">
        <ele>8.7</ele>
        <time>2015-10-18T07:17:22Z</time>
      </trkpt>
      <trkpt lat="49.34849" lon="0.09771">
        <ele>9.5</ele>
        <time>2015-10-18T07:17:38Z</time>
      </trkpt>
      <trkpt lat="49.3485" lon="0.09771">
        <ele>9.5</ele>
        <time>2015-10-18T07:17:39Z</time>
      </trkpt>
      <trkpt lat="49.34851" lon="0.09771">
        <ele>9.5</ele>
        <time>2015-10-18T07:17:40Z</time>
      </trkpt>
      <trkpt lat="49.34852" lon="0.09771">
        <ele>9.6</ele>
        <time>2015-10-18T07:17:41Z</time>
      </trkpt>
      <trkpt lat="49.34853" lon="0.09771">
        <ele>9.6</ele>
        <time>2015-10-18T07:17:42Z</time>
      </trkpt>
      <trkpt lat="49.34878" lon="0.09776">
        <ele>10</ele>
        <time>2015-10-18T07:18:05Z</time>
      </trkpt>
      <trkpt lat="49.3488" lon="0.09777">
        <ele>10</ele>
        <time>2015-10-18T07:18:06Z</time>
      </trkpt>
      <trkpt lat="49.34895" lon="0.09781">
        <ele>10.1</ele>
        <time>2015-10-18T07:18:19Z</time>
      </trkpt>
      <trkpt lat="49.34905" lon="0.09789">
        <ele>10.1</ele>
        <time>2015-10-18T07:18:29Z</time>
      </trkpt>
      <trkpt lat="49.34908" lon="0.09792">
        <ele>10</ele>
        <time>2015-10-18T07:18:32Z</time>
      </trkpt>
      <trkpt lat="49.34912" lon="0.09798">
        <ele>9.9</ele>
        <time>2015-10-18T07:18:36Z</time>
      </trkpt>
      <trkpt lat="49.34913" lon="0.09799">
        <ele>9.9</ele>
        <time>2015-10-18T07:18:37Z</time>
      </trkpt>
      <trkpt lat="49.34914" lon="0.09801">
        <ele>9.9</ele>
        <time>2015-10-18T07:18:38Z</time>
      </trkpt>
      <trkpt lat="49.34914" lon="0.09802">
        <ele>9.9</ele>
        <time>2015-10-18T07:18:39Z</time>
      </trkpt>
      <trkpt lat="49.34918" lon="0.0981">
        <ele>9.8</ele>
        <time>2015-10-18T07:18:44Z</time>
      </trkpt>
      <trkpt lat="49.3492" lon="0.09811">
        <ele>9.8</ele>
        <time>2015-10-18T07:18:45Z</time>
      </trkpt>
      <trkpt lat="49.34928" lon="0.09815">
        <ele>9.9</ele>
        <time>2015-10-18T07:18:52Z</time>
      </trkpt>
      <trkpt lat="49.34939" lon="0.0982">
        <ele>10</ele>
        <time>2015-10-18T07:19:01Z</time>
      </trkpt>
      <trkpt lat="49.3494" lon="0.0982">
        <ele>10</ele>
        <time>2015-10-18T07:19:02Z</time>
      </trkpt>
      <trkpt lat="49.34941" lon="0.09819">
        <ele>10</ele>
        <time>2015-10-18T07:19:03Z</time>
      </trkpt>
      <trkpt lat="49.34943" lon="0.09819">
        <ele>10</ele>
        <time>2015-10-18T07:19:04Z</time>
      </trkpt>
      <trkpt lat="49.34953" lon="0.09812">
        <ele>10</ele>
        <time>2015-10-18T07:19:12Z</time>
      </trkpt>
      <trkpt lat="49.34954" lon="0.09811">
        <ele>10</ele>
        <time>2015-10-18T07:19:13Z</time>
      </trkpt>
      <trkpt lat="49.34997" lon="0.09774">
        <ele>10</ele>
        <time>2015-10-18T07:19:52Z</time>
      </trkpt>
      <trkpt lat="49.34998" lon="0.09773">
        <ele>10</ele>
        <time>2015-10-18T07:19:53Z</time>
      </trkpt>
      <trkpt lat="49.35188" lon="0.096">
        <ele>11.9</ele>
        <time>2015-10-18T07:22:36Z</time>
      </trkpt>
      <trkpt lat="49.35189" lon="0.09599">
        <ele>11.9</ele>
        <time>2015-10-18T07:22:37Z</time>
      </trkpt>
      <trkpt lat="49.35213" lon="0.09572">
        <ele>12.2</ele>
        <time>2015-10-18T07:23:01Z</time>
      </trkpt>
      <trkpt lat="49.35213" lon="0.09571">
        <ele>12.2</ele>
        <time>2015-10-18T07:23:02Z</time>
      </trkpt>
      <trkpt lat="49.35212" lon="0.0957">
        <ele>12.2</ele>
        <time>2015-10-18T07:23:03Z</time>
      </trkpt>
      <trkpt lat="49.35212" lon="0.09569">
        <ele>12.2</ele>
        <time>2015-10-18T07:23:04Z</time>
      </trkpt>
      <trkpt lat="49.35212" lon="0.09569">
        <ele>12.3</ele>
        <time>2015-10-18T07:23:05Z</time>
      </trkpt>
      <trkpt lat="49.35211" lon="0.09569">
        <ele>10.8</ele>
        <time>2015-10-18T07:23:06Z</time>
      </trkpt>
      <trkpt lat="49.3521" lon="0.0957">
        <ele>9.6</ele>
        <time>2015-10-18T07:23:07Z</time>
      </trkpt>
      <trkpt lat="49.35209" lon="0.0957">
        <ele>8.8</ele>
        <time>2015-10-18T07:23:08Z</time>
      </trkpt>
      <trkpt lat="49.35209" lon="0.0957">
        <ele>8.3</ele>
        <time>2015-10-18T07:23:09Z</time>
      </trkpt>
      <trkpt lat="49.35209" lon="0.0957">
        <ele>8</ele>
        <time>2015-10-18T07:23:10Z</time>
      </trkpt>
      <trkpt lat="49.35209" lon="0.09571">
        <ele>7.8</ele>
        <time>2015-10-18T07:23:11Z</time>
      </trkpt>
      <trkpt lat="49.35209" lon="0.09571">
        <ele>7.6</ele>
        <time>2015-10-18T07:23:12Z</time>
      </trkpt>
      <trkpt lat="49.3521" lon="0.09573">
        <ele>7.5</ele>
        <time>2015-10-18T07:23:15Z</time>
      </trkpt>
      <trkpt lat="49.35211" lon="0.09573">
        <ele>7.6</ele>
        <time>2015-10-18T07:23:16Z</time>
      </trkpt>
      <trkpt lat="49.35212" lon="0.09573">
        <ele>7.6</ele>
        <time>2015-10-18T07:23:17Z</time>
      </trkpt>
      <trkpt lat="49.35213" lon="0.09572">
        <ele>7.9</ele>
        <time>2015-10-18T07:23:18Z</time>
      </trkpt>
      <trkpt lat="49.35214" lon="0.09572">
        <ele>8.1</ele>
        <time>2015-10-18T07:23:19Z</time>
      </trkpt>
      <trkpt lat="49.35215" lon="0.09571">
        <ele>8.3</ele>
        <time>2015-10-18T07:23:20Z</time>
      </trkpt>
      <trkpt lat="49.35217" lon="0.0957">
        <ele>6.9</ele>
        <time>2015-10-18T07:23:21Z</time>
      </trkpt>
      <trkpt lat="49.35218" lon="0.09569">
        <ele>5.9</ele>
        <time>2015-10-18T07:23:22Z</time>
      </trkpt>
      <trkpt lat="49.35219" lon="0.09568">
        <ele>5.2</ele>
        <time>2015-10-18T07:23:23Z</time>
      </trkpt>
      <trkpt lat="49.3522" lon="0.09567">
        <ele>6</ele>
        <time>2015-10-18T07:23:24Z</time>
      </trkpt>
      <trkpt lat="49.35221" lon="0.09566">
        <ele>6.7</ele>
        <time>2015-10-18T07:23:25Z</time>
      </trkpt>
      <trkpt lat="49.35222" lon="0.09565">
        <ele>7.2</ele>
        <time>2015-10-18T07:23:26Z</time>
      </trkpt>
      <trkpt lat="49.35223" lon="0.09564">
        <ele>7.6</ele>
        <time>2015-10-18T07:23:27Z</time>
      </trkpt>
      <trkpt lat="49.35224" lon="0.09564">
        <ele>7.9</ele>
        <time>2015-10-18T07:23:28Z</time>
      </trkpt>
      <trkpt lat="49.35225" lon="0.09563">
        <ele>8.1</ele>
        <time>2015-10-18T07:23:29Z</time>
      </trkpt>
      <trkpt lat="49.35227" lon="0.09561">
        <ele>9.9</ele>
        <time>2015-10-18T07:23:32Z</time>
      </trkpt>
      <trkpt lat="49.3526" lon="0.09528">
        <ele>3.3</ele>
        <time>2015-10-18T07:24:03Z</time>
      </trkpt>
      <trkpt lat="49.35261" lon="0.09527">
        <ele>3.8</ele>
        <time>2015-10-18T07:24:04Z</time>
      </trkpt>
      <trkpt lat="49.35434" lon="0.09379">
        <ele>4.6</ele>
        <time>2015-10-18T07:26:37Z</time>
      </trkpt>
      <trkpt lat="49.35441" lon="0.09371">
        <ele>4.6</ele>
        <time>2015-10-18T07:26:46Z</time>
      </trkpt>
      <trkpt lat="49.35441" lon="0.09368">
        <ele>4.6</ele>
        <time>2015-10-18T07:26:47Z</time>
      </trkpt>
      <trkpt lat="49.3544" lon="0.09366">
        <ele>5</ele>
        <time>2015-10-18T07:26:48Z</time>
      </trkpt>
      <trkpt lat="49.35439" lon="0.09363">
        <ele>5.3</ele>
        <time>2015-10-18T07:26:49Z</time>
      </trkpt>
      <trkpt lat="49.35438" lon="0.0936">
        <ele>5.5</ele>
        <time>2015-10-18T07:26:50Z</time>
      </trkpt>
      <trkpt lat="49.35437" lon="0.09358">
        <ele>5.5</ele>
        <time>2015-10-18T07:26:51Z</time>
      </trkpt>
      <trkpt lat="49.35437" lon="0.09356">
        <ele>5.5</ele>
        <time>2015-10-18T07:26:52Z</time>
      </trkpt>
      <trkpt lat="49.35436" lon="0.09353">
        <ele>6</ele>
        <time>2015-10-18T07:26:54Z</time>
      </trkpt>
      <trkpt lat="49.35436" lon="0.09352">
        <ele>6.5</ele>
        <time>2015-10-18T07:26:55Z</time>
      </trkpt>
      <trkpt lat="49.35437" lon="0.09351">
        <ele>6.8</ele>
        <time>2015-10-18T07:26:56Z</time>
      </trkpt>
      <trkpt lat="49.35438" lon="0.09349">
        <ele>4.4</ele>
        <time>2015-10-18T07:26:58Z</time>
      </trkpt>
      <trkpt lat="49.35439" lon="0.09349">
        <ele>3.6</ele>
        <time>2015-10-18T07:26:59Z</time>
      </trkpt>
      <trkpt lat="49.35439" lon="0.09349">
        <ele>2.4</ele>
        <time>2015-10-18T07:27:00Z</time>
      </trkpt>
      <trkpt lat="49.3544" lon="0.09348">
        <ele>1.5</ele>
        <time>2015-10-18T07:27:01Z</time>
      </trkpt>
      <trkpt lat="49.35441" lon="0.09348">
        <ele>0.8</ele>
        <time>2015-10-18T07:27:02Z</time>
      </trkpt>
      <trkpt lat="49.35442" lon="0.09348">
        <ele>1.3</ele>
        <time>2015-10-18T07:27:03Z</time>
      </trkpt>
      <trkpt lat="49.35443" lon="0.09348">
        <ele>1.7</ele>
        <time>2015-10-18T07:27:04Z</time>
      </trkpt>
      <trkpt lat="49.35444" lon="0.09347">
        <ele>2</ele>
        <time>2015-10-18T07:27:05Z</time>
      </trkpt>
      <trkpt lat="49.35445" lon="0.09347">
        <ele>3.3</ele>
        <time>2015-10-18T07:27:06Z</time>
      </trkpt>
      <trkpt lat="49.35446" lon="0.09346">
        <ele>4.2</ele>
        <time>2015-10-18T07:27:07Z</time>
      </trkpt>
      <trkpt lat="49.35447" lon="0.09345">
        <ele>4.9</ele>
        <time>2015-10-18T07:27:08Z</time>
      </trkpt>
      <trkpt lat="49.35448" lon="0.09345">
        <ele>4.2</ele>
        <time>2015-10-18T07:27:09Z</time>
      </trkpt>
      <trkpt lat="49.35449" lon="0.09344">
        <ele>3.7</ele>
        <time>2015-10-18T07:27:10Z</time>
      </trkpt>
      <trkpt lat="49.35518" lon="0.0929">
        <ele>0.4</ele>
        <time>2015-10-18T07:28:07Z</time>
      </trkpt>
      <trkpt lat="49.35519" lon="0.09289">
        <ele>-0.3</ele>
        <time>2015-10-18T07:28:08Z</time>
      </trkpt>
      <trkpt lat="49.3552" lon="0.09288">
        <ele>0.2</ele>
        <time>2015-10-18T07:28:09Z</time>
      </trkpt>
      <trkpt lat="49.35521" lon="0.09286">
        <ele>0.7</ele>
        <time>2015-10-18T07:28:10Z</time>
      </trkpt>
      <trkpt lat="49.35521" lon="0.09285">
        <ele>1</ele>
        <time>2015-10-18T07:28:11Z</time>
      </trkpt>
      <trkpt lat="49.35522" lon="0.09285">
        <ele>2.5</ele>
        <time>2015-10-18T07:28:12Z</time>
      </trkpt>
      <trkpt lat="49.35523" lon="0.09284">
        <ele>3.6</ele>
        <time>2015-10-18T07:28:13Z</time>
      </trkpt>
      <trkpt lat="49.35523" lon="0.09284">
        <ele>4.5</ele>
        <time>2015-10-18T07:28:14Z</time>
      </trkpt>
      <trkpt lat="49.35526" lon="0.09282">
        <ele>3.5</ele>
        <time>2015-10-18T07:28:23Z</time>
      </trkpt>
      <trkpt lat="49.35533" lon="0.09276">
        <ele>6.8</ele>
        <time>2015-10-18T07:28:30Z</time>
      </trkpt>
      <trkpt lat="49.35594" lon="0.09218">
        <ele>1.5</ele>
        <time>2015-10-18T07:29:17Z</time>
      </trkpt>
      <trkpt lat="49.35595" lon="0.09216">
        <ele>2</ele>
        <time>2015-10-18T07:29:18Z</time>
      </trkpt>
      <trkpt lat="49.35598" lon="0.0921">
        <ele>3.6</ele>
        <time>2015-10-18T07:29:21Z</time>
      </trkpt>
      <trkpt lat="49.35599" lon="0.09207">
        <ele>4.3</ele>
        <time>2015-10-18T07:29:22Z</time>
      </trkpt>
      <trkpt lat="49.356" lon="0.09205">
        <ele>4.8</ele>
        <time>2015-10-18T07:29:23Z</time>
      </trkpt>
      <trkpt lat="49.35601" lon="0.09202">
        <ele>4.5</ele>
        <time>2015-10-18T07:29:24Z</time>
      </trkpt>
      <trkpt lat="49.35602" lon="0.092">
        <ele>4.3</ele>
        <time>2015-10-18T07:29:25Z</time>
      </trkpt>
      <trkpt lat="49.35603" lon="0.09197">
        <ele>4.2</ele>
        <time>2015-10-18T07:29:26Z</time>
      </trkpt>
      <trkpt lat="49.35604" lon="0.09195">
        <ele>2.8</ele>
        <time>2015-10-18T07:29:27Z</time>
      </trkpt>
      <trkpt lat="49.35605" lon="0.09192">
        <ele>1.8</ele>
        <time>2015-10-18T07:29:28Z</time>
      </trkpt>
      <trkpt lat="49.35606" lon="0.0919">
        <ele>1</ele>
        <time>2015-10-18T07:29:29Z</time>
      </trkpt>
      <trkpt lat="49.35606" lon="0.09187">
        <ele>1.9</ele>
        <time>2015-10-18T07:29:30Z</time>
      </trkpt>
      <trkpt lat="49.35607" lon="0.09184">
        <ele>2.6</ele>
        <time>2015-10-18T07:29:31Z</time>
      </trkpt>
      <trkpt lat="49.35607" lon="0.09181">
        <ele>3.1</ele>
        <time>2015-10-18T07:29:32Z</time>
      </trkpt>
      <trkpt lat="49.35607" lon="0.09179">
        <ele>3.4</ele>
        <time>2015-10-18T07:29:33Z</time>
      </trkpt>
      <trkpt lat="49.35608" lon="0.09176">
        <ele>3.7</ele>
        <time>2015-10-18T07:29:34Z</time>
      </trkpt>
      <trkpt lat="49.35611" lon="0.09159">
        <ele>4.6</ele>
        <time>2015-10-18T07:29:42Z</time>
      </trkpt>
      <trkpt lat="49.35618" lon="0.09134">
        <ele>2.1</ele>
        <time>2015-10-18T07:29:56Z</time>
      </trkpt>
      <trkpt lat="49.35619" lon="0.09129">
        <ele>4.5</ele>
        <time>2015-10-18T07:29:59Z</time>
      </trkpt>
      <trkpt lat="49.35628" lon="0.09113">
        <ele>3.6</ele>
        <time>2015-10-18T07:30:09Z</time>
      </trkpt>
      <trkpt lat="49.35633" lon="0.09104">
        <ele>4.3</ele>
        <time>2015-10-18T07:30:16Z</time>
      </trkpt>
      <trkpt lat="49.35637" lon="0.09096">
        <ele>4.9</ele>
        <time>2015-10-18T07:30:23Z</time>
      </trkpt>
      <trkpt lat="49.35638" lon="0.09095">
        <ele>3.8</ele>
        <time>2015-10-18T07:30:24Z</time>
      </trkpt>
      <trkpt lat="49.35638" lon="0.09094">
        <ele>3</ele>
        <time>2015-10-18T07:30:25Z</time>
      </trkpt>
      <trkpt lat="49.35639" lon="0.09093">
        <ele>2.3</ele>
        <time>2015-10-18T07:30:26Z</time>
      </trkpt>
      <trkpt lat="49.3564" lon="0.09091">
        <ele>3.1</ele>
        <time>2015-10-18T07:30:27Z</time>
      </trkpt>
      <trkpt lat="49.3564" lon="0.0909">
        <ele>3.7</ele>
        <time>2015-10-18T07:30:28Z</time>
      </trkpt>
      <trkpt lat="49.35641" lon="0.09089">
        <ele>4.1</ele>
        <time>2015-10-18T07:30:29Z</time>
      </trkpt>
      <trkpt lat="49.35642" lon="0.09087">
        <ele>4.8</ele>
        <time>2015-10-18T07:30:30Z</time>
      </trkpt>
      <trkpt lat="49.35643" lon="0.09085">
        <ele>5.8</ele>
        <time>2015-10-18T07:30:32Z</time>
      </trkpt>
      <trkpt lat="49.35682" lon="0.0904">
        <ele>0.2</ele>
        <time>2015-10-18T07:31:12Z</time>
      </trkpt>
      <trkpt lat="49.35831" lon="0.08867">
        <ele>3.5</ele>
        <time>2015-10-18T07:33:37Z</time>
      </trkpt>
      <trkpt lat="49.35832" lon="0.08866">
        <ele>4.2</ele>
        <time>2015-10-18T07:33:38Z</time>
      </trkpt>
      <trkpt lat="49.35833" lon="0.08864">
        <ele>5.1</ele>
        <time>2015-10-18T07:33:39Z</time>
      </trkpt>
      <trkpt lat="49.35833" lon="0.08863">
        <ele>5.8</ele>
        <time>2015-10-18T07:33:40Z</time>
      </trkpt>
      <trkpt lat="49.35834" lon="0.08861">
        <ele>6.3</ele>
        <time>2015-10-18T07:33:41Z</time>
      </trkpt>
      <trkpt lat="49.35834" lon="0.0886">
        <ele>6.9</ele>
        <time>2015-10-18T07:33:42Z</time>
      </trkpt>
      <trkpt lat="49.35835" lon="0.08859">
        <ele>7.4</ele>
        <time>2015-10-18T07:33:43Z</time>
      </trkpt>
      <trkpt lat="49.35836" lon="0.08858">
        <ele>7.7</ele>
        <time>2015-10-18T07:33:44Z</time>
      </trkpt>
      <trkpt lat="49.35878" lon="0.08792">
        <ele>4.2</ele>
        <time>2015-10-18T07:34:29Z</time>
      </trkpt>
      <trkpt lat="49.3588" lon="0.08789">
        <ele>6.9</ele>
        <time>2015-10-18T07:34:31Z</time>
      </trkpt>
      <trkpt lat="49.35894" lon="0.08769">
        <ele>3.3</ele>
        <time>2015-10-18T07:34:46Z</time>
      </trkpt>
      <trkpt lat="49.35895" lon="0.08768">
        <ele>4.4</ele>
        <time>2015-10-18T07:34:47Z</time>
      </trkpt>
      <trkpt lat="49.35952" lon="0.08704">
        <ele>4.8</ele>
        <time>2015-10-18T07:35:43Z</time>
      </trkpt>
      <trkpt lat="49.3602" lon="0.08645">
        <ele>4.2</ele>
        <time>2015-10-18T07:36:39Z</time>
      </trkpt>
      <trkpt lat="49.36021" lon="0.08643">
        <ele>3.9</ele>
        <time>2015-10-18T07:36:40Z</time>
      </trkpt>
      <trkpt lat="49.3603" lon="0.08633">
        <ele>3.2</ele>
        <time>2015-10-18T07:36:51Z</time>
      </trkpt>
      <trkpt lat="49.36073" lon="0.08617">
        <ele>4</ele>
        <time>2015-10-18T07:37:31Z</time>
      </trkpt>
      <trkpt lat="49.36074" lon="0.08616">
        <ele>4.3</ele>
        <time>2015-10-18T07:37:32Z</time>
      </trkpt>
      <trkpt lat="49.36076" lon="0.08614">
        <ele>0.6</ele>
        <time>2015-10-18T07:37:35Z</time>
      </trkpt>
      <trkpt lat="49.36084" lon="0.0861">
        <ele>4.9</ele>
        <time>2015-10-18T07:37:45Z</time>
      </trkpt>
      <trkpt lat="49.36084" lon="0.0861">
        <ele>4</ele>
        <time>2015-10-18T07:37:46Z</time>
      </trkpt>
      <trkpt lat="49.36084" lon="0.08609">
        <ele>3.3</ele>
        <time>2015-10-18T07:37:47Z</time>
      </trkpt>
      <trkpt lat="49.36085" lon="0.08609">
        <ele>3.4</ele>
        <time>2015-10-18T07:37:48Z</time>
      </trkpt>
      <trkpt lat="49.36087" lon="0.08608">
        <ele>3.5</ele>
        <time>2015-10-18T07:37:49Z</time>
      </trkpt>
      <trkpt lat="49.36088" lon="0.08608">
        <ele>3.5</ele>
        <time>2015-10-18T07:37:50Z</time>
      </trkpt>
      <trkpt lat="49.3609" lon="0.08607">
        <ele>3.2</ele>
        <time>2015-10-18T07:37:51Z</time>
      </trkpt>
      <trkpt lat="49.36091" lon="0.08607">
        <ele>2.9</ele>
        <time>2015-10-18T07:37:52Z</time>
      </trkpt>
      <trkpt lat="49.36092" lon="0.08607">
        <ele>2.7</ele>
        <time>2015-10-18T07:37:53Z</time>
      </trkpt>
      <trkpt lat="49.36094" lon="0.08608">
        <ele>3.2</ele>
        <time>2015-10-18T07:37:54Z</time>
      </trkpt>
      <trkpt lat="49.36095" lon="0.08608">
        <ele>3.5</ele>
        <time>2015-10-18T07:37:55Z</time>
      </trkpt>
      <trkpt lat="49.36105" lon="0.08611">
        <ele>3.8</ele>
        <time>2015-10-18T07:38:02Z</time>
      </trkpt>
      <trkpt lat="49.36108" lon="0.0861">
        <ele>5.2</ele>
        <time>2015-10-18T07:38:05Z</time>
      </trkpt>
      <trkpt lat="49.36112" lon="0.0861">
        <ele>4.1</ele>
        <time>2015-10-18T07:38:09Z</time>
      </trkpt>
      <trkpt lat="49.36113" lon="0.08609">
        <ele>4.6</ele>
        <time>2015-10-18T07:38:10Z</time>
      </trkpt>
      <trkpt lat="49.36128" lon="0.086">
        <ele>5.3</ele>
        <time>2015-10-18T07:38:26Z</time>
      </trkpt>
      <trkpt lat="49.36129" lon="0.086">
        <ele>4.9</ele>
        <time>2015-10-18T07:38:27Z</time>
      </trkpt>
      <trkpt lat="49.36129" lon="0.08601">
        <ele>4.6</ele>
        <time>2015-10-18T07:38:28Z</time>
      </trkpt>
      <trkpt lat="49.3613" lon="0.08601">
        <ele>4.4</ele>
        <time>2015-10-18T07:38:29Z</time>
      </trkpt>
      <trkpt lat="49.3613" lon="0.08601">
        <ele>4.2</ele>
        <time>2015-10-18T07:38:30Z</time>
      </trkpt>
      <trkpt lat="49.3613" lon="0.08601">
        <ele>4.1</ele>
        <time>2015-10-18T07:38:31Z</time>
      </trkpt>
      <trkpt lat="49.3613" lon="0.08602">
        <ele>4</ele>
        <time>2015-10-18T07:38:32Z</time>
      </trkpt>
      <trkpt lat="49.3613" lon="0.08602">
        <ele>4.1</ele>
        <time>2015-10-18T07:38:33Z</time>
      </trkpt>
      <trkpt lat="49.3613" lon="0.08602">
        <ele>4.2</ele>
        <time>2015-10-18T07:38:34Z</time>
      </trkpt>
      <trkpt lat="49.3613" lon="0.08602">
        <ele>4.3</ele>
        <time>2015-10-18T07:38:35Z</time>
      </trkpt>
      <trkpt lat="49.3613" lon="0.08602">
        <ele>4.4</ele>
        <time>2015-10-18T07:38:36Z</time>
      </trkpt>
      <trkpt lat="49.3613" lon="0.08602">
        <ele>4.4</ele>
        <time>2015-10-18T07:38:37Z</time>
      </trkpt>
      <trkpt lat="49.3613" lon="0.08602">
        <ele>4.5</ele>
        <time>2015-10-18T07:38:38Z</time>
      </trkpt>
      <trkpt lat="49.36131" lon="0.08601">
        <ele>3.8</ele>
        <time>2015-10-18T07:38:40Z</time>
      </trkpt>
      <trkpt lat="49.36132" lon="0.086">
        <ele>3.6</ele>
        <time>2015-10-18T07:38:41Z</time>
      </trkpt>
      <trkpt lat="49.36132" lon="0.08598">
        <ele>4</ele>
        <time>2015-10-18T07:38:42Z</time>
      </trkpt>
      <trkpt lat="49.36133" lon="0.08597">
        <ele>4.4</ele>
        <time>2015-10-18T07:38:43Z</time>
      </trkpt>
      <trkpt lat="49.36135" lon="0.08594">
        <ele>5.6</ele>
        <time>2015-10-18T07:38:45Z</time>
      </trkpt>
      <trkpt lat="49.36138" lon="0.08594">
        <ele>7</ele>
        <time>2015-10-18T07:38:47Z</time>
      </trkpt>
      <trkpt lat="49.3614" lon="0.08594">
        <ele>4.5</ele>
        <time>2015-10-18T07:38:48Z</time>
      </trkpt>
      <trkpt lat="49.36149" lon="0.08597">
        <ele>4.3</ele>
        <time>2015-10-18T07:38:54Z</time>
      </trkpt>
      <trkpt lat="49.3615" lon="0.08597">
        <ele>4.8</ele>
        <time>2015-10-18T07:38:55Z</time>
      </trkpt>
      <trkpt lat="49.36151" lon="0.08597">
        <ele>5.1</ele>
        <time>2015-10-18T07:38:56Z</time>
      </trkpt>
      <trkpt lat="49.36155" lon="0.08597">
        <ele>5.3</ele>
        <time>2015-10-18T07:38:59Z</time>
      </trkpt>
      <trkpt lat="49.36155" lon="0.08597">
        <ele>5.5</ele>
        <time>2015-10-18T07:39:00Z</time>
      </trkpt>
      <trkpt lat="49.36156" lon="0.08598">
        <ele>5.7</ele>
        <time>2015-10-18T07:39:01Z</time>
      </trkpt>
      <trkpt lat="49.36158" lon="0.08598">
        <ele>4.3</ele>
        <time>2015-10-18T07:39:03Z</time>
      </trkpt>
      <trkpt lat="49.3616" lon="0.08599">
        <ele>2.8</ele>
        <time>2015-10-18T07:39:06Z</time>
      </trkpt>
      <trkpt lat="49.36165" lon="0.086">
        <ele>2.6</ele>
        <time>2015-10-18T07:39:12Z</time>
      </trkpt>
      <trkpt lat="49.36166" lon="0.086">
        <ele>1.9</ele>
        <time>2015-10-18T07:39:13Z</time>
      </trkpt>
      <trkpt lat="49.36169" lon="0.08603">
        <ele>2</ele>
        <time>2015-10-18T07:39:16Z</time>
      </trkpt>
      <trkpt lat="49.36171" lon="0.08605">
        <ele>1.8</ele>
        <time>2015-10-18T07:39:18Z</time>
      </trkpt>
      <trkpt lat="49.36178" lon="0.08621">
        <ele>3</ele>
        <time>2015-10-18T07:39:31Z</time>
      </trkpt>
      <trkpt lat="49.36179" lon="0.08621">
        <ele>3.2</ele>
        <time>2015-10-18T07:39:32Z</time>
      </trkpt>
      <trkpt lat="49.36179" lon="0.08621">
        <ele>3.1</ele>
        <time>2015-10-18T07:39:33Z</time>
      </trkpt>
      <trkpt lat="49.3618" lon="0.08621">
        <ele>3</ele>
        <time>2015-10-18T07:39:34Z</time>
      </trkpt>
      <trkpt lat="49.3618" lon="0.08621">
        <ele>3</ele>
        <time>2015-10-18T07:39:35Z</time>
      </trkpt>
      <trkpt lat="49.36181" lon="0.08621">
        <ele>3</ele>
        <time>2015-10-18T07:39:36Z</time>
      </trkpt>
      <trkpt lat="49.36181" lon="0.08621">
        <ele>3</ele>
        <time>2015-10-18T07:39:37Z</time>
      </trkpt>
      <trkpt lat="49.36182" lon="0.08621">
        <ele>2.9</ele>
        <time>2015-10-18T07:39:38Z</time>
      </trkpt>
      <trkpt lat="49.36182" lon="0.08621">
        <ele>3.1</ele>
        <time>2015-10-18T07:39:39Z</time>
      </trkpt>
      <trkpt lat="49.36183" lon="0.08621">
        <ele>3.3</ele>
        <time>2015-10-18T07:39:40Z</time>
      </trkpt>
      <trkpt lat="49.36183" lon="0.08622">
        <ele>3.4</ele>
        <time>2015-10-18T07:39:41Z</time>
      </trkpt>
      <trkpt lat="49.36184" lon="0.08622">
        <ele>3.5</ele>
        <time>2015-10-18T07:39:42Z</time>
      </trkpt>
      <trkpt lat="49.36184" lon="0.08622">
        <ele>3.5</ele>
        <time>2015-10-18T07:39:43Z</time>
      </trkpt>
      <trkpt lat="49.36184" lon="0.08622">
        <ele>3.6</ele>
        <time>2015-10-18T07:39:44Z</time>
      </trkpt>
      <trkpt lat="49.36185" lon="0.08623">
        <ele>3.6</ele>
        <time>2015-10-18T07:39:45Z</time>
      </trkpt>
      <trkpt lat="49.36185" lon="0.08623">
        <ele>3.6</ele>
        <time>2015-10-18T07:39:46Z</time>
      </trkpt>
      <trkpt lat="49.36185" lon="0.08623">
        <ele>3.7</ele>
        <time>2015-10-18T07:39:47Z</time>
      </trkpt>
      <trkpt lat="49.36185" lon="0.08623">
        <ele>3.3</ele>
        <time>2015-10-18T07:39:48Z</time>
      </trkpt>
      <trkpt lat="49.36185" lon="0.08623">
        <ele>3</ele>
        <time>2015-10-18T07:39:49Z</time>
      </trkpt>
      <trkpt lat="49.36185" lon="0.08623">
        <ele>2.7</ele>
        <time>2015-10-18T07:39:50Z</time>
      </trkpt>
      <trkpt lat="49.36185" lon="0.08622">
        <ele>1.5</ele>
        <time>2015-10-18T07:39:51Z</time>
      </trkpt>
      <trkpt lat="49.36185" lon="0.08622">
        <ele>0.6</ele>
        <time>2015-10-18T07:39:52Z</time>
      </trkpt>
      <trkpt lat="49.36185" lon="0.08622">
        <ele>5.3</ele>
        <time>2015-10-18T07:39:53Z</time>
      </trkpt>
      <trkpt lat="49.36186" lon="0.08622">
        <ele>-0.2</ele>
        <time>2015-10-18T07:39:54Z</time>
      </trkpt>
      <trkpt lat="49.36186" lon="0.08622">
        <ele>-0.5</ele>
        <time>2015-10-18T07:39:55Z</time>
      </trkpt>
      <trkpt lat="49.36186" lon="0.08622">
        <ele>-0.6</ele>
        <time>2015-10-18T07:39:56Z</time>
      </trkpt>
      <trkpt lat="49.36186" lon="0.08622">
        <ele>0.8</ele>
        <time>2015-10-18T07:39:57Z</time>
      </trkpt>
      <trkpt lat="49.36186" lon="0.08622">
        <ele>1.9</ele>
        <time>2015-10-18T07:39:58Z</time>
      </trkpt>
      <trkpt lat="49.36186" lon="0.08622">
        <ele>2.8</ele>
        <time>2015-10-18T07:39:59Z</time>
      </trkpt>
      <trkpt lat="49.36186" lon="0.08622">
        <ele>2.8</ele>
        <time>2015-10-18T07:40:00Z</time>
      </trkpt>
      <trkpt lat="49.36187" lon="0.08622">
        <ele>2.8</ele>
        <time>2015-10-18T07:40:01Z</time>
      </trkpt>
      <trkpt lat="49.36187" lon="0.08622">
        <ele>2.9</ele>
        <time>2015-10-18T07:40:02Z</time>
      </trkpt>
      <trkpt lat="49.36187" lon="0.08622">
        <ele>3.3</ele>
        <time>2015-10-18T07:40:03Z</time>
      </trkpt>
      <trkpt lat="49.36187" lon="0.08622">
        <ele>3.6</ele>
        <time>2015-10-18T07:40:04Z</time>
      </trkpt>
      <trkpt lat="49.36187" lon="0.08622">
        <ele>3.8</ele>
        <time>2015-10-18T07:40:05Z</time>
      </trkpt>
      <trkpt lat="49.36187" lon="0.08622">
        <ele>3.6</ele>
        <time>2015-10-18T07:40:06Z</time>
      </trkpt>
      <trkpt lat="49.36187" lon="0.08622">
        <ele>3.4</ele>
        <time>2015-10-18T07:40:07Z</time>
      </trkpt>
      <trkpt lat="49.36187" lon="0.08622">
        <ele>3.3</ele>
        <time>2015-10-18T07:40:08Z</time>
      </trkpt>
      <trkpt lat="49.36187" lon="0.08622">
        <ele>3.4</ele>
        <time>2015-10-18T07:40:09Z</time>
      </trkpt>
      <trkpt lat="49.36187" lon="0.08622">
        <ele>3.5</ele>
        <time>2015-10-18T07:40:10Z</time>
      </trkpt>
      <trkpt lat="49.36187" lon="0.08622">
        <ele>3.5</ele>
        <time>2015-10-18T07:40:11Z</time>
      </trkpt>
      <trkpt lat="49.36187" lon="0.08622">
        <ele>3.8</ele>
        <time>2015-10-18T07:40:12Z</time>
      </trkpt>
      <trkpt lat="49.36187" lon="0.08622">
        <ele>4</ele>
        <time>2015-10-18T07:40:13Z</time>
      </trkpt>
      <trkpt lat="49.36187" lon="0.08622">
        <ele>4.1</ele>
        <time>2015-10-18T07:40:14Z</time>
      </trkpt>
      <trkpt lat="49.36187" lon="0.08622">
        <ele>3.2</ele>
        <time>2015-10-18T07:40:15Z</time>
      </trkpt>
      <trkpt lat="49.36187" lon="0.08622">
        <ele>2.5</ele>
        <time>2015-10-18T07:40:16Z</time>
      </trkpt>
      <trkpt lat="49.36187" lon="0.08622">
        <ele>2</ele>
        <time>2015-10-18T07:40:17Z</time>
      </trkpt>
      <trkpt lat="49.36187" lon="0.08622">
        <ele>3</ele>
        <time>2015-10-18T07:40:18Z</time>
      </trkpt>
      <trkpt lat="49.36188" lon="0.08622">
        <ele>3.8</ele>
        <time>2015-10-18T07:40:19Z</time>
      </trkpt>
      <trkpt lat="49.36188" lon="0.08621">
        <ele>4.4</ele>
        <time>2015-10-18T07:40:20Z</time>
      </trkpt>
      <trkpt lat="49.36188" lon="0.08621">
        <ele>4.2</ele>
        <time>2015-10-18T07:40:21Z</time>
      </trkpt>
      <trkpt lat="49.36188" lon="0.08621">
        <ele>4.1</ele>
        <time>2015-10-18T07:40:22Z</time>
      </trkpt>
      <trkpt lat="49.36188" lon="0.08621">
        <ele>4</ele>
        <time>2015-10-18T07:40:23Z</time>
      </trkpt>
      <trkpt lat="49.36188" lon="0.08621">
        <ele>4.6</ele>
        <time>2015-10-18T07:40:24Z</time>
      </trkpt>
      <trkpt lat="49.36188" lon="0.08621">
        <ele>5</ele>
        <time>2015-10-18T07:40:25Z</time>
      </trkpt>
      <trkpt lat="49.36188" lon="0.0862">
        <ele>5.3</ele>
        <time>2015-10-18T07:40:26Z</time>
      </trkpt>
      <trkpt lat="49.36189" lon="0.0862">
        <ele>4.5</ele>
        <time>2015-10-18T07:40:27Z</time>
      </trkpt>
      <trkpt lat="49.36189" lon="0.0862">
        <ele>3.9</ele>
        <time>2015-10-18T07:40:28Z</time>
      </trkpt>
      <trkpt lat="49.36189" lon="0.0862">
        <ele>3.4</ele>
        <time>2015-10-18T07:40:29Z</time>
      </trkpt>
      <trkpt lat="49.36189" lon="0.0862">
        <ele>3.9</ele>
        <time>2015-10-18T07:40:30Z</time>
      </trkpt>
      <trkpt lat="49.36189" lon="0.0862">
        <ele>4.3</ele>
        <time>2015-10-18T07:40:31Z</time>
      </trkpt>
      <trkpt lat="49.36189" lon="0.0862">
        <ele>4.6</ele>
        <time>2015-10-18T07:40:32Z</time>
      </trkpt>
      <trkpt lat="49.36189" lon="0.0862">
        <ele>4.1</ele>
        <time>2015-10-18T07:40:33Z</time>
      </trkpt>
      <trkpt lat="49.36189" lon="0.0862">
        <ele>3.8</ele>
        <time>2015-10-18T07:40:34Z</time>
      </trkpt>
      <trkpt lat="49.36189" lon="0.0862">
        <ele>3.6</ele>
        <time>2015-10-18T07:40:35Z</time>
      </trkpt>
      <trkpt lat="49.36189" lon="0.0862">
        <ele>3.6</ele>
        <time>2015-10-18T07:40:36Z</time>
      </trkpt>
      <trkpt lat="49.36189" lon="0.0862">
        <ele>3.7</ele>
        <time>2015-10-18T07:40:37Z</time>
      </trkpt>
      <trkpt lat="49.36189" lon="0.0862">
        <ele>3.7</ele>
        <time>2015-10-18T07:40:38Z</time>
      </trkpt>
      <trkpt lat="49.36189" lon="0.0862">
        <ele>3.9</ele>
        <time>2015-10-18T07:40:39Z</time>
      </trkpt>
      <trkpt lat="49.36189" lon="0.0862">
        <ele>4.1</ele>
        <time>2015-10-18T07:40:40Z</time>
      </trkpt>
      <trkpt lat="49.36189" lon="0.0862">
        <ele>4.2</ele>
        <time>2015-10-18T07:40:41Z</time>
      </trkpt>
      <trkpt lat="49.36189" lon="0.0862">
        <ele>4.1</ele>
        <time>2015-10-18T07:40:42Z</time>
      </trkpt>
      <trkpt lat="49.36188" lon="0.0862">
        <ele>4</ele>
        <time>2015-10-18T07:40:43Z</time>
      </trkpt>
      <trkpt lat="49.36188" lon="0.08621">
        <ele>3.9</ele>
        <time>2015-10-18T07:40:44Z</time>
      </trkpt>
      <trkpt lat="49.36188" lon="0.08621">
        <ele>3.7</ele>
        <time>2015-10-18T07:40:45Z</time>
      </trkpt>
      <trkpt lat="49.36188" lon="0.08621">
        <ele>3.5</ele>
        <time>2015-10-18T07:40:46Z</time>
      </trkpt>
      <trkpt lat="49.36188" lon="0.08621">
        <ele>3.3</ele>
        <time>2015-10-18T07:40:47Z</time>
      </trkpt>
      <trkpt lat="49.36188" lon="0.08621">
        <ele>2.2</ele>
        <time>2015-10-18T07:40:48Z</time>
      </trkpt>
      <trkpt lat="49.36188" lon="0.08621">
        <ele>1.3</ele>
        <time>2015-10-18T07:40:49Z</time>
      </trkpt>
      <trkpt lat="49.36188" lon="0.08622">
        <ele>0.7</ele>
        <time>2015-10-18T07:40:50Z</time>
      </trkpt>
      <trkpt lat="49.36188" lon="0.08622">
        <ele>0.6</ele>
        <time>2015-10-18T07:40:51Z</time>
      </trkpt>
      <trkpt lat="49.3619" lon="0.08623">
        <ele>2.6</ele>
        <time>2015-10-18T07:41:18Z</time>
      </trkpt>
      <trkpt lat="49.3619" lon="0.08623">
        <ele>2.5</ele>
        <time>2015-10-18T07:41:19Z</time>
      </trkpt>
      <trkpt lat="49.3619" lon="0.08623">
        <ele>2.4</ele>
        <time>2015-10-18T07:41:20Z</time>
      </trkpt>
      <trkpt lat="49.3619" lon="0.08623">
        <ele>1.9</ele>
        <time>2015-10-18T07:41:21Z</time>
      </trkpt>
      <trkpt lat="49.3619" lon="0.08623">
        <ele>1.5</ele>
        <time>2015-10-18T07:41:22Z</time>
      </trkpt>
      <trkpt lat="49.3619" lon="0.08624">
        <ele>1.2</ele>
        <time>2015-10-18T07:41:23Z</time>
      </trkpt>
      <trkpt lat="49.3619" lon="0.08625">
        <ele>2.1</ele>
        <time>2015-10-18T07:41:31Z</time>
      </trkpt>
      <trkpt lat="49.3619" lon="0.08625">
        <ele>2.1</ele>
        <time>2015-10-18T07:41:32Z</time>
      </trkpt>
      <trkpt lat="49.3619" lon="0.08625">
        <ele>2.9</ele>
        <time>2015-10-18T07:41:33Z</time>
      </trkpt>
      <trkpt lat="49.3619" lon="0.08625">
        <ele>3.5</ele>
        <time>2015-10-18T07:41:34Z</time>
      </trkpt>
      <trkpt lat="49.3619" lon="0.08625">
        <ele>4</ele>
        <time>2015-10-18T07:41:35Z</time>
      </trkpt>
      <trkpt lat="49.3619" lon="0.08625">
        <ele>-0.1</ele>
        <time>2015-10-18T07:41:36Z</time>
      </trkpt>
      <trkpt lat="49.3619" lon="0.08625">
        <ele>-3.3</ele>
        <time>2015-10-18T07:41:37Z</time>
      </trkpt>
      <trkpt lat="49.3619" lon="0.08625">
        <ele>-5.6</ele>
        <time>2015-10-18T07:41:38Z</time>
      </trkpt>
      <trkpt lat="49.3619" lon="0.08625">
        <ele>-3.7</ele>
        <time>2015-10-18T07:41:39Z</time>
      </trkpt>
      <trkpt lat="49.3619" lon="0.08625">
        <ele>-2.2</ele>
        <time>2015-10-18T07:41:40Z</time>
      </trkpt>
      <trkpt lat="49.3619" lon="0.08624">
        <ele>-1.1</ele>
        <time>2015-10-18T07:41:41Z</time>
      </trkpt>
      <trkpt lat="49.3619" lon="0.08623">
        <ele>1</ele>
        <time>2015-10-18T07:41:42Z</time>
      </trkpt>
      <trkpt lat="49.36191" lon="0.08622">
        <ele>2.8</ele>
        <time>2015-10-18T07:41:43Z</time>
      </trkpt>
      <trkpt lat="49.36191" lon="0.08622">
        <ele>4</ele>
        <time>2015-10-18T07:41:44Z</time>
      </trkpt>
      <trkpt lat="49.36192" lon="0.0862">
        <ele>3.3</ele>
        <time>2015-10-18T07:41:45Z</time>
      </trkpt>
      <trkpt lat="49.36193" lon="0.08619">
        <ele>2.8</ele>
        <time>2015-10-18T07:41:46Z</time>
      </trkpt>
      <trkpt lat="49.36195" lon="0.08617">
        <ele>2.5</ele>
        <time>2015-10-18T07:41:48Z</time>
      </trkpt>
      <trkpt lat="49.36195" lon="0.08616">
        <ele>2.6</ele>
        <time>2015-10-18T07:41:49Z</time>
      </trkpt>
      <trkpt lat="49.36196" lon="0.08615">
        <ele>2.7</ele>
        <time>2015-10-18T07:41:50Z</time>
      </trkpt>
      <trkpt lat="49.36196" lon="0.08615">
        <ele>2.5</ele>
        <time>2015-10-18T07:41:51Z</time>
      </trkpt>
      <trkpt lat="49.36197" lon="0.08614">
        <ele>2.4</ele>
        <time>2015-10-18T07:41:52Z</time>
      </trkpt>
      <trkpt lat="49.36197" lon="0.08613">
        <ele>2.3</ele>
        <time>2015-10-18T07:41:53Z</time>
      </trkpt>
      <trkpt lat="49.36197" lon="0.08612">
        <ele>2.7</ele>
        <time>2015-10-18T07:41:54Z</time>
      </trkpt>
      <trkpt lat="49.36198" lon="0.08612">
        <ele>2.9</ele>
        <time>2015-10-18T07:41:55Z</time>
      </trkpt>
      <trkpt lat="49.36198" lon="0.08611">
        <ele>3.1</ele>
        <time>2015-10-18T07:41:56Z</time>
      </trkpt>
      <trkpt lat="49.36198" lon="0.08611">
        <ele>1.6</ele>
        <time>2015-10-18T07:41:57Z</time>
      </trkpt>
      <trkpt lat="49.36198" lon="0.08611">
        <ele>0.5</ele>
        <time>2015-10-18T07:41:58Z</time>
      </trkpt>
      <trkpt lat="49.36198" lon="0.08611">
        <ele>-0.3</ele>
        <time>2015-10-18T07:41:59Z</time>
      </trkpt>
      <trkpt lat="49.36198" lon="0.0861">
        <ele>-0.7</ele>
        <time>2015-10-18T07:42:00Z</time>
      </trkpt>
      <trkpt lat="49.36198" lon="0.0861">
        <ele>-1</ele>
        <time>2015-10-18T07:42:01Z</time>
      </trkpt>
      <trkpt lat="49.36199" lon="0.0861">
        <ele>-1.3</ele>
        <time>2015-10-18T07:42:02Z</time>
      </trkpt>
      <trkpt lat="49.36199" lon="0.0861">
        <ele>5</ele>
        <time>2015-10-18T07:42:03Z</time>
      </trkpt>
      <trkpt lat="49.36199" lon="0.08609">
        <ele>0.9</ele>
        <time>2015-10-18T07:42:04Z</time>
      </trkpt>
      <trkpt lat="49.36199" lon="0.08609">
        <ele>1.6</ele>
        <time>2015-10-18T07:42:05Z</time>
      </trkpt>
      <trkpt lat="49.362" lon="0.08609">
        <ele>1.7</ele>
        <time>2015-10-18T07:42:06Z</time>
      </trkpt>
      <trkpt lat="49.362" lon="0.08609">
        <ele>1.8</ele>
        <time>2015-10-18T07:42:07Z</time>
      </trkpt>
      <trkpt lat="49.362" lon="0.08609">
        <ele>1.9</ele>
        <time>2015-10-18T07:42:08Z</time>
      </trkpt>
      <trkpt lat="49.36201" lon="0.08609">
        <ele>2.3</ele>
        <time>2015-10-18T07:42:09Z</time>
      </trkpt>
      <trkpt lat="49.36202" lon="0.08608">
        <ele>2.7</ele>
        <time>2015-10-18T07:42:10Z</time>
      </trkpt>
      <trkpt lat="49.36203" lon="0.08608">
        <ele>2.9</ele>
        <time>2015-10-18T07:42:11Z</time>
      </trkpt>
      <trkpt lat="49.36204" lon="0.08607">
        <ele>3.1</ele>
        <time>2015-10-18T07:42:12Z</time>
      </trkpt>
      <trkpt lat="49.36205" lon="0.08606">
        <ele>3.4</ele>
        <time>2015-10-18T07:42:14Z</time>
      </trkpt>
      <trkpt lat="49.36206" lon="0.08605">
        <ele>3.3</ele>
        <time>2015-10-18T07:42:15Z</time>
      </trkpt>
      <trkpt lat="49.36261" lon="0.08559">
        <ele>1.6</ele>
        <time>2015-10-18T07:43:17Z</time>
      </trkpt>
      <trkpt lat="49.36262" lon="0.08558">
        <ele>2.3</ele>
        <time>2015-10-18T07:43:18Z</time>
      </trkpt>
      <trkpt lat="49.36274" lon="0.08542">
        <ele>2.5</ele>
        <time>2015-10-18T07:43:35Z</time>
      </trkpt>
      <trkpt lat="49.36323" lon="0.08477">
        <ele>1.8</ele>
        <time>2015-10-18T07:44:22Z</time>
      </trkpt>
      <trkpt lat="49.36323" lon="0.08476">
        <ele>2.3</ele>
        <time>2015-10-18T07:44:23Z</time>
      </trkpt>
      <trkpt lat="49.36324" lon="0.08475">
        <ele>2.6</ele>
        <time>2015-10-18T07:44:24Z</time>
      </trkpt>
      <trkpt lat="49.36324" lon="0.08474">
        <ele>2.9</ele>
        <time>2015-10-18T07:44:25Z</time>
      </trkpt>
      <trkpt lat="49.36325" lon="0.08472">
        <ele>2.9</ele>
        <time>2015-10-18T07:44:26Z</time>
      </trkpt>
      <trkpt lat="49.36326" lon="0.08469">
        <ele>1.9</ele>
        <time>2015-10-18T07:44:29Z</time>
      </trkpt>
      <trkpt lat="49.36327" lon="0.08468">
        <ele>1.1</ele>
        <time>2015-10-18T07:44:30Z</time>
      </trkpt>
      <trkpt lat="49.3633" lon="0.08463">
        <ele>2.8</ele>
        <time>2015-10-18T07:44:35Z</time>
      </trkpt>
      <trkpt lat="49.36345" lon="0.08439">
        <ele>4</ele>
        <time>2015-10-18T07:44:55Z</time>
      </trkpt>
      <trkpt lat="49.36346" lon="0.08437">
        <ele>2.5</ele>
        <time>2015-10-18T07:44:56Z</time>
      </trkpt>
      <trkpt lat="49.36348" lon="0.08432">
        <ele>0.8</ele>
        <time>2015-10-18T07:45:00Z</time>
      </trkpt>
      <trkpt lat="49.36361" lon="0.08414">
        <ele>0.8</ele>
        <time>2015-10-18T07:45:12Z</time>
      </trkpt>
      <trkpt lat="49.36403" lon="0.08349">
        <ele>0.9</ele>
        <time>2015-10-18T07:46:04Z</time>
      </trkpt>
      <trkpt lat="49.36403" lon="0.08348">
        <ele>1.8</ele>
        <time>2015-10-18T07:46:05Z</time>
      </trkpt>
      <trkpt lat="49.36475" lon="0.0826">
        <ele>3.4</ele>
        <time>2015-10-18T07:47:32Z</time>
      </trkpt>
      <trkpt lat="49.36475" lon="0.0826">
        <ele>3.1</ele>
        <time>2015-10-18T07:47:33Z</time>
      </trkpt>
      <trkpt lat="49.36475" lon="0.0826">
        <ele>2.8</ele>
        <time>2015-10-18T07:47:34Z</time>
      </trkpt>
      <trkpt lat="49.36476" lon="0.0826">
        <ele>3.3</ele>
        <time>2015-10-18T07:47:35Z</time>
      </trkpt>
      <trkpt lat="49.36477" lon="0.08259">
        <ele>3.6</ele>
        <time>2015-10-18T07:47:36Z</time>
      </trkpt>
      <trkpt lat="49.36482" lon="0.08247">
        <ele>1.7</ele>
        <time>2015-10-18T07:47:42Z</time>
      </trkpt>
      <trkpt lat="49.36483" lon="0.08245">
        <ele>1.1</ele>
        <time>2015-10-18T07:47:43Z</time>
      </trkpt>
      <trkpt lat="49.36484" lon="0.08243">
        <ele>1.8</ele>
        <time>2015-10-18T07:47:44Z</time>
      </trkpt>
      <trkpt lat="49.36487" lon="0.08237">
        <ele>2.1</ele>
        <time>2015-10-18T07:47:47Z</time>
      </trkpt>
      <trkpt lat="49.36488" lon="0.08234">
        <ele>1.3</ele>
        <time>2015-10-18T07:47:49Z</time>
      </trkpt>
      <trkpt lat="49.36489" lon="0.08228">
        <ele>2.9</ele>
        <time>2015-10-18T07:47:53Z</time>
      </trkpt>
      <trkpt lat="49.36489" lon="0.08225">
        <ele>1.3</ele>
        <time>2015-10-18T07:47:58Z</time>
      </trkpt>
      <trkpt lat="49.36489" lon="0.08225">
        <ele>1.3</ele>
        <time>2015-10-18T07:47:59Z</time>
      </trkpt>
      <trkpt lat="49.36489" lon="0.08226">
        <ele>1.3</ele>
        <time>2015-10-18T07:48:00Z</time>
      </trkpt>
      <trkpt lat="49.36489" lon="0.08226">
        <ele>1.3</ele>
        <time>2015-10-18T07:48:01Z</time>
      </trkpt>
      <trkpt lat="49.36488" lon="0.08226">
        <ele>1.3</ele>
        <time>2015-10-18T07:48:02Z</time>
      </trkpt>
      <trkpt lat="49.36488" lon="0.08226">
        <ele>1.3</ele>
        <time>2015-10-18T07:48:03Z</time>
      </trkpt>
      <trkpt lat="49.36488" lon="0.08226">
        <ele>1.3</ele>
        <time>2015-10-18T07:48:04Z</time>
      </trkpt>
      <trkpt lat="49.36488" lon="0.08226">
        <ele>-0.9</ele>
        <time>2015-10-18T07:48:05Z</time>
      </trkpt>
      <trkpt lat="49.36488" lon="0.08225">
        <ele>-2.6</ele>
        <time>2015-10-18T07:48:06Z</time>
      </trkpt>
      <trkpt lat="49.36488" lon="0.08225">
        <ele>-3.9</ele>
        <time>2015-10-18T07:48:07Z</time>
      </trkpt>
      <trkpt lat="49.36488" lon="0.08224">
        <ele>-1.8</ele>
        <time>2015-10-18T07:48:08Z</time>
      </trkpt>
      <trkpt lat="49.36488" lon="0.08223">
        <ele>-0.2</ele>
        <time>2015-10-18T07:48:09Z</time>
      </trkpt>
      <trkpt lat="49.36488" lon="0.08223">
        <ele>0.9</ele>
        <time>2015-10-18T07:48:10Z</time>
      </trkpt>
      <trkpt lat="49.36488" lon="0.08222">
        <ele>1.4</ele>
        <time>2015-10-18T07:48:11Z</time>
      </trkpt>
      <trkpt lat="49.36488" lon="0.08221">
        <ele>1.8</ele>
        <time>2015-10-18T07:48:12Z</time>
      </trkpt>
      <trkpt lat="49.36488" lon="0.0822">
        <ele>2.1</ele>
        <time>2015-10-18T07:48:13Z</time>
      </trkpt>
      <trkpt lat="49.3649" lon="0.08218">
        <ele>2.1</ele>
        <time>2015-10-18T07:48:16Z</time>
      </trkpt>
      <trkpt lat="49.36493" lon="0.08215">
        <ele>4.3</ele>
        <time>2015-10-18T07:48:22Z</time>
      </trkpt>
      <trkpt lat="49.36494" lon="0.08214">
        <ele>2.9</ele>
        <time>2015-10-18T07:48:23Z</time>
      </trkpt>
      <trkpt lat="49.36494" lon="0.08214">
        <ele>1.9</ele>
        <time>2015-10-18T07:48:24Z</time>
      </trkpt>
      <trkpt lat="49.36494" lon="0.08214">
        <ele>1.1</ele>
        <time>2015-10-18T07:48:25Z</time>
      </trkpt>
      <trkpt lat="49.36494" lon="0.08214">
        <ele>1.8</ele>
        <time>2015-10-18T07:48:26Z</time>
      </trkpt>
      <trkpt lat="49.36495" lon="0.08213">
        <ele>2.2</ele>
        <time>2015-10-18T07:48:27Z</time>
      </trkpt>
      <trkpt lat="49.36495" lon="0.08213">
        <ele>2.6</ele>
        <time>2015-10-18T07:48:28Z</time>
      </trkpt>
      <trkpt lat="49.36495" lon="0.08212">
        <ele>3.1</ele>
        <time>2015-10-18T07:48:29Z</time>
      </trkpt>
      <trkpt lat="49.36496" lon="0.08212">
        <ele>3.5</ele>
        <time>2015-10-18T07:48:30Z</time>
      </trkpt>
      <trkpt lat="49.36496" lon="0.08211">
        <ele>3.7</ele>
        <time>2015-10-18T07:48:31Z</time>
      </trkpt>
      <trkpt lat="49.36497" lon="0.0821">
        <ele>2.1</ele>
        <time>2015-10-18T07:48:32Z</time>
      </trkpt>
      <trkpt lat="49.36497" lon="0.08209">
        <ele>0.8</ele>
        <time>2015-10-18T07:48:33Z</time>
      </trkpt>
      <trkpt lat="49.36498" lon="0.08209">
        <ele>5</ele>
        <time>2015-10-18T07:48:34Z</time>
      </trkpt>
      <trkpt lat="49.36499" lon="0.08208">
        <ele>0.6</ele>
        <time>2015-10-18T07:48:35Z</time>
      </trkpt>
      <trkpt lat="49.36499" lon="0.08207">
        <ele>1.2</ele>
        <time>2015-10-18T07:48:36Z</time>
      </trkpt>
      <trkpt lat="49.365" lon="0.08206">
        <ele>1.6</ele>
        <time>2015-10-18T07:48:37Z</time>
      </trkpt>
      <trkpt lat="49.36501" lon="0.08206">
        <ele>2.4</ele>
        <time>2015-10-18T07:48:38Z</time>
      </trkpt>
      <trkpt lat="49.36501" lon="0.08205">
        <ele>2.9</ele>
        <time>2015-10-18T07:48:39Z</time>
      </trkpt>
      <trkpt lat="49.36502" lon="0.08204">
        <ele>3.3</ele>
        <time>2015-10-18T07:48:40Z</time>
      </trkpt>
      <trkpt lat="49.36506" lon="0.08198">
        <ele>2</ele>
        <time>2015-10-18T07:48:46Z</time>
      </trkpt>
      <trkpt lat="49.36506" lon="0.08198">
        <ele>2.4</ele>
        <time>2015-10-18T07:48:47Z</time>
      </trkpt>
      <trkpt lat="49.36507" lon="0.08198">
        <ele>2.7</ele>
        <time>2015-10-18T07:48:48Z</time>
      </trkpt>
      <trkpt lat="49.36507" lon="0.08197">
        <ele>3</ele>
        <time>2015-10-18T07:48:49Z</time>
      </trkpt>
      <trkpt lat="49.36508" lon="0.08197">
        <ele>2.1</ele>
        <time>2015-10-18T07:48:50Z</time>
      </trkpt>
      <trkpt lat="49.36509" lon="0.08196">
        <ele>1.5</ele>
        <time>2015-10-18T07:48:51Z</time>
      </trkpt>
      <trkpt lat="49.36509" lon="0.08195">
        <ele>1</ele>
        <time>2015-10-18T07:48:52Z</time>
      </trkpt>
      <trkpt lat="49.3651" lon="0.08195">
        <ele>1.3</ele>
        <time>2015-10-18T07:48:53Z</time>
      </trkpt>
      <trkpt lat="49.36511" lon="0.08194">
        <ele>1.5</ele>
        <time>2015-10-18T07:48:54Z</time>
      </trkpt>
      <trkpt lat="49.36511" lon="0.08193">
        <ele>1.6</ele>
        <time>2015-10-18T07:48:55Z</time>
      </trkpt>
      <trkpt lat="49.36512" lon="0.08192">
        <ele>2.4</ele>
        <time>2015-10-18T07:48:56Z</time>
      </trkpt>
      <trkpt lat="49.36513" lon="0.08191">
        <ele>2.9</ele>
        <time>2015-10-18T07:48:57Z</time>
      </trkpt>
      <trkpt lat="49.36513" lon="0.08191">
        <ele>3.3</ele>
        <time>2015-10-18T07:48:58Z</time>
      </trkpt>
      <trkpt lat="49.36514" lon="0.0819">
        <ele>3.6</ele>
        <time>2015-10-18T07:48:59Z</time>
      </trkpt>
      <trkpt lat="49.36514" lon="0.08189">
        <ele>3.9</ele>
        <time>2015-10-18T07:49:00Z</time>
      </trkpt>
      <trkpt lat="49.36515" lon="0.08188">
        <ele>4</ele>
        <time>2015-10-18T07:49:01Z</time>
      </trkpt>
      <trkpt lat="49.36516" lon="0.08187">
        <ele>3.5</ele>
        <time>2015-10-18T07:49:02Z</time>
      </trkpt>
      <trkpt lat="49.36516" lon="0.08186">
        <ele>3.2</ele>
        <time>2015-10-18T07:49:03Z</time>
      </trkpt>
      <trkpt lat="49.36517" lon="0.08185">
        <ele>2.9</ele>
        <time>2015-10-18T07:49:04Z</time>
      </trkpt>
      <trkpt lat="49.36517" lon="0.08185">
        <ele>3.1</ele>
        <time>2015-10-18T07:49:05Z</time>
      </trkpt>
      <trkpt lat="49.3652" lon="0.08182">
        <ele>3.7</ele>
        <time>2015-10-18T07:49:08Z</time>
      </trkpt>
      <trkpt lat="49.3652" lon="0.08181">
        <ele>3.9</ele>
        <time>2015-10-18T07:49:09Z</time>
      </trkpt>
      <trkpt lat="49.36521" lon="0.0818">
        <ele>4.1</ele>
        <time>2015-10-18T07:49:10Z</time>
      </trkpt>
      <trkpt lat="49.36522" lon="0.08179">
        <ele>3.4</ele>
        <time>2015-10-18T07:49:11Z</time>
      </trkpt>
      <trkpt lat="49.36523" lon="0.08178">
        <ele>2.8</ele>
        <time>2015-10-18T07:49:12Z</time>
      </trkpt>
      <trkpt lat="49.36524" lon="0.08177">
        <ele>2.4</ele>
        <time>2015-10-18T07:49:13Z</time>
      </trkpt>
      <trkpt lat="49.36525" lon="0.08176">
        <ele>2.8</ele>
        <time>2015-10-18T07:49:14Z</time>
      </trkpt>
      <trkpt lat="49.36526" lon="0.08174">
        <ele>3</ele>
        <time>2015-10-18T07:49:15Z</time>
      </trkpt>
      <trkpt lat="49.36527" lon="0.08173">
        <ele>3.2</ele>
        <time>2015-10-18T07:49:16Z</time>
      </trkpt>
      <trkpt lat="49.36528" lon="0.08171">
        <ele>2.9</ele>
        <time>2015-10-18T07:49:17Z</time>
      </trkpt>
      <trkpt lat="49.36533" lon="0.08157">
        <ele>0.1</ele>
        <time>2015-10-18T07:49:27Z</time>
      </trkpt>
      <trkpt lat="49.36534" lon="0.08156">
        <ele>0.1</ele>
        <time>2015-10-18T07:49:28Z</time>
      </trkpt>
      <trkpt lat="49.3654" lon="0.08141">
        <ele>1.5</ele>
        <time>2015-10-18T07:49:42Z</time>
      </trkpt>
      <trkpt lat="49.3654" lon="0.0814">
        <ele>1.4</ele>
        <time>2015-10-18T07:49:43Z</time>
      </trkpt>
      <trkpt lat="49.36541" lon="0.08139">
        <ele>1.6</ele>
        <time>2015-10-18T07:49:44Z</time>
      </trkpt>
      <trkpt lat="49.36541" lon="0.08139">
        <ele>1.7</ele>
        <time>2015-10-18T07:49:45Z</time>
      </trkpt>
      <trkpt lat="49.36542" lon="0.08139">
        <ele>1.8</ele>
        <time>2015-10-18T07:49:46Z</time>
      </trkpt>
      <trkpt lat="49.36542" lon="0.08138">
        <ele>1.9</ele>
        <time>2015-10-18T07:49:47Z</time>
      </trkpt>
      <trkpt lat="49.36543" lon="0.08137">
        <ele>1.9</ele>
        <time>2015-10-18T07:49:48Z</time>
      </trkpt>
      <trkpt lat="49.36544" lon="0.08136">
        <ele>1.9</ele>
        <time>2015-10-18T07:49:49Z</time>
      </trkpt>
      <trkpt lat="49.36544" lon="0.08135">
        <ele>2.6</ele>
        <time>2015-10-18T07:49:50Z</time>
      </trkpt>
      <trkpt lat="49.36545" lon="0.08134">
        <ele>3.1</ele>
        <time>2015-10-18T07:49:51Z</time>
      </trkpt>
      <trkpt lat="49.36551" lon="0.08119">
        <ele>0.1</ele>
        <time>2015-10-18T07:50:01Z</time>
      </trkpt>
      <trkpt lat="49.36553" lon="0.08109">
        <ele>-1.1</ele>
        <time>2015-10-18T07:50:05Z</time>
      </trkpt>
      <trkpt lat="49.36557" lon="0.08099">
        <ele>-1.1</ele>
        <time>2015-10-18T07:50:10Z</time>
      </trkpt>
      <trkpt lat="49.3657" lon="0.08079">
        <ele>3.4</ele>
        <time>2015-10-18T07:50:24Z</time>
      </trkpt>
      <trkpt lat="49.3657" lon="0.08078">
        <ele>3.3</ele>
        <time>2015-10-18T07:50:25Z</time>
      </trkpt>
      <trkpt lat="49.36571" lon="0.08077">
        <ele>3.2</ele>
        <time>2015-10-18T07:50:26Z</time>
      </trkpt>
      <trkpt lat="49.36571" lon="0.08076">
        <ele>3.1</ele>
        <time>2015-10-18T07:50:27Z</time>
      </trkpt>
      <trkpt lat="49.36571" lon="0.08075">
        <ele>3.3</ele>
        <time>2015-10-18T07:50:28Z</time>
      </trkpt>
      <trkpt lat="49.36571" lon="0.08075">
        <ele>3.4</ele>
        <time>2015-10-18T07:50:29Z</time>
      </trkpt>
      <trkpt lat="49.36572" lon="0.08074">
        <ele>3.5</ele>
        <time>2015-10-18T07:50:30Z</time>
      </trkpt>
      <trkpt lat="49.36572" lon="0.08073">
        <ele>3.3</ele>
        <time>2015-10-18T07:50:31Z</time>
      </trkpt>
      <trkpt lat="49.36572" lon="0.08072">
        <ele>3.2</ele>
        <time>2015-10-18T07:50:32Z</time>
      </trkpt>
      <trkpt lat="49.36572" lon="0.08072">
        <ele>3.1</ele>
        <time>2015-10-18T07:50:33Z</time>
      </trkpt>
      <trkpt lat="49.36572" lon="0.08071">
        <ele>3.1</ele>
        <time>2015-10-18T07:50:34Z</time>
      </trkpt>
      <trkpt lat="49.36572" lon="0.08071">
        <ele>3</ele>
        <time>2015-10-18T07:50:35Z</time>
      </trkpt>
      <trkpt lat="49.36572" lon="0.0807">
        <ele>3</ele>
        <time>2015-10-18T07:50:36Z</time>
      </trkpt>
      <trkpt lat="49.36572" lon="0.0807">
        <ele>2.6</ele>
        <time>2015-10-18T07:50:37Z</time>
      </trkpt>
      <trkpt lat="49.36572" lon="0.08069">
        <ele>2.2</ele>
        <time>2015-10-18T07:50:38Z</time>
      </trkpt>
      <trkpt lat="49.36572" lon="0.08069">
        <ele>2</ele>
        <time>2015-10-18T07:50:39Z</time>
      </trkpt>
      <trkpt lat="49.36572" lon="0.08069">
        <ele>2</ele>
        <time>2015-10-18T07:50:40Z</time>
      </trkpt>
      <trkpt lat="49.36572" lon="0.08068">
        <ele>2</ele>
        <time>2015-10-18T07:50:41Z</time>
      </trkpt>
      <trkpt lat="49.36572" lon="0.08068">
        <ele>2</ele>
        <time>2015-10-18T07:50:42Z</time>
      </trkpt>
      <trkpt lat="49.36572" lon="0.08068">
        <ele>1.8</ele>
        <time>2015-10-18T07:50:43Z</time>
      </trkpt>
      <trkpt lat="49.36572" lon="0.08068">
        <ele>1.7</ele>
        <time>2015-10-18T07:50:44Z</time>
      </trkpt>
      <trkpt lat="49.36572" lon="0.08068">
        <ele>1.6</ele>
        <time>2015-10-18T07:50:45Z</time>
      </trkpt>
      <trkpt lat="49.36572" lon="0.08069">
        <ele>1.7</ele>
        <time>2015-10-18T07:50:46Z</time>
      </trkpt>
      <trkpt lat="49.36572" lon="0.08069">
        <ele>1.8</ele>
        <time>2015-10-18T07:50:47Z</time>
      </trkpt>
      <trkpt lat="49.36572" lon="0.08069">
        <ele>1.9</ele>
        <time>2015-10-18T07:50:48Z</time>
      </trkpt>
      <trkpt lat="49.36572" lon="0.08069">
        <ele>2.1</ele>
        <time>2015-10-18T07:50:49Z</time>
      </trkpt>
      <trkpt lat="49.36572" lon="0.08069">
        <ele>2.3</ele>
        <time>2015-10-18T07:50:50Z</time>
      </trkpt>
      <trkpt lat="49.36572" lon="0.08069">
        <ele>2.5</ele>
        <time>2015-10-18T07:50:51Z</time>
      </trkpt>
      <trkpt lat="49.36573" lon="0.08067">
        <ele>1.8</ele>
        <time>2015-10-18T07:50:58Z</time>
      </trkpt>
      <trkpt lat="49.36573" lon="0.08067">
        <ele>1.8</ele>
        <time>2015-10-18T07:50:59Z</time>
      </trkpt>
      <trkpt lat="49.36574" lon="0.08066">
        <ele>1.9</ele>
        <time>2015-10-18T07:51:00Z</time>
      </trkpt>
      <trkpt lat="49.36574" lon="0.08065">
        <ele>2.8</ele>
        <time>2015-10-18T07:51:01Z</time>
      </trkpt>
      <trkpt lat="49.36575" lon="0.08064">
        <ele>3.4</ele>
        <time>2015-10-18T07:51:02Z</time>
      </trkpt>
      <trkpt lat="49.36575" lon="0.08063">
        <ele>3.9</ele>
        <time>2015-10-18T07:51:03Z</time>
      </trkpt>
      <trkpt lat="49.36576" lon="0.08062">
        <ele>4.1</ele>
        <time>2015-10-18T07:51:04Z</time>
      </trkpt>
      <trkpt lat="49.36577" lon="0.08061">
        <ele>4.2</ele>
        <time>2015-10-18T07:51:05Z</time>
      </trkpt>
      <trkpt lat="49.36578" lon="0.0806">
        <ele>4.3</ele>
        <time>2015-10-18T07:51:06Z</time>
      </trkpt>
      <trkpt lat="49.36579" lon="0.08059">
        <ele>3.9</ele>
        <time>2015-10-18T07:51:07Z</time>
      </trkpt>
      <trkpt lat="49.3658" lon="0.08059">
        <ele>3.7</ele>
        <time>2015-10-18T07:51:08Z</time>
      </trkpt>
      <trkpt lat="49.36581" lon="0.08059">
        <ele>3.5</ele>
        <time>2015-10-18T07:51:09Z</time>
      </trkpt>
      <trkpt lat="49.36582" lon="0.08059">
        <ele>3.7</ele>
        <time>2015-10-18T07:51:10Z</time>
      </trkpt>
      <trkpt lat="49.36583" lon="0.08059">
        <ele>3.9</ele>
        <time>2015-10-18T07:51:11Z</time>
      </trkpt>
      <trkpt lat="49.36584" lon="0.0806">
        <ele>4.1</ele>
        <time>2015-10-18T07:51:12Z</time>
      </trkpt>
      <trkpt lat="49.36585" lon="0.0806">
        <ele>4.4</ele>
        <time>2015-10-18T07:51:13Z</time>
      </trkpt>
      <trkpt lat="49.36586" lon="0.08061">
        <ele>4.7</ele>
        <time>2015-10-18T07:51:14Z</time>
      </trkpt>
      <trkpt lat="49.36586" lon="0.08061">
        <ele>4.8</ele>
        <time>2015-10-18T07:51:15Z</time>
      </trkpt>
      <trkpt lat="49.36587" lon="0.08061">
        <ele>5</ele>
        <time>2015-10-18T07:51:16Z</time>
      </trkpt>
      <trkpt lat="49.36587" lon="0.08061">
        <ele>5.1</ele>
        <time>2015-10-18T07:51:17Z</time>
      </trkpt>
      <trkpt lat="49.36587" lon="0.08061">
        <ele>5.2</ele>
        <time>2015-10-18T07:51:18Z</time>
      </trkpt>
      <trkpt lat="49.36587" lon="0.08061">
        <ele>5.2</ele>
        <time>2015-10-18T07:51:19Z</time>
      </trkpt>
      <trkpt lat="49.36587" lon="0.0806">
        <ele>5.3</ele>
        <time>2015-10-18T07:51:20Z</time>
      </trkpt>
      <trkpt lat="49.36587" lon="0.08059">
        <ele>5.3</ele>
        <time>2015-10-18T07:51:21Z</time>
      </trkpt>
      <trkpt lat="49.36586" lon="0.08057">
        <ele>5.1</ele>
        <time>2015-10-18T07:51:22Z</time>
      </trkpt>
      <trkpt lat="49.36586" lon="0.08055">
        <ele>5</ele>
        <time>2015-10-18T07:51:23Z</time>
      </trkpt>
      <trkpt lat="49.36586" lon="0.08053">
        <ele>4.9</ele>
        <time>2015-10-18T07:51:24Z</time>
      </trkpt>
      <trkpt lat="49.36584" lon="0.08047">
        <ele>3.7</ele>
        <time>2015-10-18T07:51:27Z</time>
      </trkpt>
      <trkpt lat="49.36583" lon="0.08042">
        <ele>1.5</ele>
        <time>2015-10-18T07:51:29Z</time>
      </trkpt>
      <trkpt lat="49.36582" lon="0.0804">
        <ele>0.8</ele>
        <time>2015-10-18T07:51:30Z</time>
      </trkpt>
      <trkpt lat="49.36581" lon="0.08038">
        <ele>2.4</ele>
        <time>2015-10-18T07:51:31Z</time>
      </trkpt>
      <trkpt lat="49.3658" lon="0.08036">
        <ele>3.6</ele>
        <time>2015-10-18T07:51:32Z</time>
      </trkpt>
      <trkpt lat="49.36579" lon="0.08035">
        <ele>4.4</ele>
        <time>2015-10-18T07:51:33Z</time>
      </trkpt>
      <trkpt lat="49.36578" lon="0.08033">
        <ele>3.2</ele>
        <time>2015-10-18T07:51:34Z</time>
      </trkpt>
      <trkpt lat="49.36577" lon="0.08032">
        <ele>2.3</ele>
        <time>2015-10-18T07:51:35Z</time>
      </trkpt>
      <trkpt lat="49.36577" lon="0.08031">
        <ele>1.6</ele>
        <time>2015-10-18T07:51:36Z</time>
      </trkpt>
      <trkpt lat="49.36576" lon="0.0803">
        <ele>0.9</ele>
        <time>2015-10-18T07:51:37Z</time>
      </trkpt>
      <trkpt lat="49.36576" lon="0.0803">
        <ele>0.4</ele>
        <time>2015-10-18T07:51:38Z</time>
      </trkpt>
      <trkpt lat="49.36575" lon="0.0803">
        <ele>5</ele>
        <time>2015-10-18T07:51:39Z</time>
      </trkpt>
      <trkpt lat="49.36574" lon="0.08029">
        <ele>-0.4</ele>
        <time>2015-10-18T07:51:40Z</time>
      </trkpt>
      <trkpt lat="49.36573" lon="0.08029">
        <ele>-0.8</ele>
        <time>2015-10-18T07:51:41Z</time>
      </trkpt>
      <trkpt lat="49.36573" lon="0.08028">
        <ele>-1.1</ele>
        <time>2015-10-18T07:51:42Z</time>
      </trkpt>
      <trkpt lat="49.36572" lon="0.08028">
        <ele>-0.7</ele>
        <time>2015-10-18T07:51:43Z</time>
      </trkpt>
      <trkpt lat="49.36571" lon="0.08028">
        <ele>-0.4</ele>
        <time>2015-10-18T07:51:44Z</time>
      </trkpt>
      <trkpt lat="49.3657" lon="0.08027">
        <ele>-0.2</ele>
        <time>2015-10-18T07:51:45Z</time>
      </trkpt>
      <trkpt lat="49.36569" lon="0.08027">
        <ele>0.3</ele>
        <time>2015-10-18T07:51:46Z</time>
      </trkpt>
      <trkpt lat="49.36569" lon="0.08027">
        <ele>0.7</ele>
        <time>2015-10-18T07:51:47Z</time>
      </trkpt>
      <trkpt lat="49.36568" lon="0.08026">
        <ele>1.1</ele>
        <time>2015-10-18T07:51:48Z</time>
      </trkpt>
      <trkpt lat="49.36568" lon="0.08026">
        <ele>1.1</ele>
        <time>2015-10-18T07:51:49Z</time>
      </trkpt>
      <trkpt lat="49.36568" lon="0.08026">
        <ele>1.1</ele>
        <time>2015-10-18T07:51:50Z</time>
      </trkpt>
      <trkpt lat="49.36567" lon="0.08026">
        <ele>1.2</ele>
        <time>2015-10-18T07:51:51Z</time>
      </trkpt>
      <trkpt lat="49.36567" lon="0.08025">
        <ele>1</ele>
        <time>2015-10-18T07:51:52Z</time>
      </trkpt>
      <trkpt lat="49.36567" lon="0.08025">
        <ele>0.8</ele>
        <time>2015-10-18T07:51:53Z</time>
      </trkpt>
      <trkpt lat="49.36567" lon="0.08025">
        <ele>0.7</ele>
        <time>2015-10-18T07:51:54Z</time>
      </trkpt>
      <trkpt lat="49.36567" lon="0.08024">
        <ele>1.3</ele>
        <time>2015-10-18T07:51:55Z</time>
      </trkpt>
      <trkpt lat="49.36564" lon="0.08019">
        <ele>2</ele>
        <time>2015-10-18T07:52:00Z</time>
      </trkpt>
      <trkpt lat="49.36563" lon="0.08017">
        <ele>-0.1</ele>
        <time>2015-10-18T07:52:06Z</time>
      </trkpt>
      <trkpt lat="49.36563" lon="0.08015">
        <ele>0.4</ele>
        <time>2015-10-18T07:52:07Z</time>
      </trkpt>
      <trkpt lat="49.36563" lon="0.08014">
        <ele>0.8</ele>
        <time>2015-10-18T07:52:08Z</time>
      </trkpt>
      <trkpt lat="49.36563" lon="0.08014">
        <ele>1.1</ele>
        <time>2015-10-18T07:52:09Z</time>
      </trkpt>
      <trkpt lat="49.36563" lon="0.08013">
        <ele>1.1</ele>
        <time>2015-10-18T07:52:10Z</time>
      </trkpt>
      <trkpt lat="49.36563" lon="0.08012">
        <ele>1.2</ele>
        <time>2015-10-18T07:52:11Z</time>
      </trkpt>
      <trkpt lat="49.36563" lon="0.08012">
        <ele>1.2</ele>
        <time>2015-10-18T07:52:12Z</time>
      </trkpt>
      <trkpt lat="49.36563" lon="0.08011">
        <ele>1.6</ele>
        <time>2015-10-18T07:52:13Z</time>
      </trkpt>
      <trkpt lat="49.36564" lon="0.0801">
        <ele>1.9</ele>
        <time>2015-10-18T07:52:14Z</time>
      </trkpt>
      <trkpt lat="49.36564" lon="0.0801">
        <ele>2.2</ele>
        <time>2015-10-18T07:52:15Z</time>
      </trkpt>
      <trkpt lat="49.36564" lon="0.0801">
        <ele>2.4</ele>
        <time>2015-10-18T07:52:16Z</time>
      </trkpt>
      <trkpt lat="49.36564" lon="0.0801">
        <ele>2.5</ele>
        <time>2015-10-18T07:52:17Z</time>
      </trkpt>
      <trkpt lat="49.36564" lon="0.0801">
        <ele>2.4</ele>
        <time>2015-10-18T07:52:18Z</time>
      </trkpt>
      <trkpt lat="49.36564" lon="0.0801">
        <ele>2.3</ele>
        <time>2015-10-18T07:52:19Z</time>
      </trkpt>
      <trkpt lat="49.36565" lon="0.08011">
        <ele>2.2</ele>
        <time>2015-10-18T07:52:20Z</time>
      </trkpt>
      <trkpt lat="49.36565" lon="0.08011">
        <ele>2.2</ele>
        <time>2015-10-18T07:52:21Z</time>
      </trkpt>
      <trkpt lat="49.36565" lon="0.08011">
        <ele>2.2</ele>
        <time>2015-10-18T07:52:22Z</time>
      </trkpt>
      <trkpt lat="49.36565" lon="0.08012">
        <ele>2.1</ele>
        <time>2015-10-18T07:52:23Z</time>
      </trkpt>
      <trkpt lat="49.36565" lon="0.08012">
        <ele>2.1</ele>
        <time>2015-10-18T07:52:24Z</time>
      </trkpt>
      <trkpt lat="49.36565" lon="0.08012">
        <ele>2.1</ele>
        <time>2015-10-18T07:52:25Z</time>
      </trkpt>
      <trkpt lat="49.36565" lon="0.08013">
        <ele>2.1</ele>
        <time>2015-10-18T07:52:26Z</time>
      </trkpt>
      <trkpt lat="49.36565" lon="0.08013">
        <ele>2.1</ele>
        <time>2015-10-18T07:52:27Z</time>
      </trkpt>
      <trkpt lat="49.36565" lon="0.08013">
        <ele>2.1</ele>
        <time>2015-10-18T07:52:28Z</time>
      </trkpt>
      <trkpt lat="49.36566" lon="0.08008">
        <ele>1.1</ele>
        <time>2015-10-18T07:52:32Z</time>
      </trkpt>
      <trkpt lat="49.36569" lon="0.0798">
        <ele>1</ele>
        <time>2015-10-18T07:52:48Z</time>
      </trkpt>
      <trkpt lat="49.36569" lon="0.07978">
        <ele>0.8</ele>
        <time>2015-10-18T07:52:49Z</time>
      </trkpt>
      <trkpt lat="49.36568" lon="0.07975">
        <ele>0.6</ele>
        <time>2015-10-18T07:52:51Z</time>
      </trkpt>
      <trkpt lat="49.36565" lon="0.07958">
        <ele>0.3</ele>
        <time>2015-10-18T07:53:01Z</time>
      </trkpt>
      <trkpt lat="49.36565" lon="0.07957">
        <ele>0.3</ele>
        <time>2015-10-18T07:53:02Z</time>
      </trkpt>
      <trkpt lat="49.36553" lon="0.07917">
        <ele>0.7</ele>
        <time>2015-10-18T07:53:27Z</time>
      </trkpt>
      <trkpt lat="49.36534" lon="0.07844">
        <ele>3.6</ele>
        <time>2015-10-18T07:54:13Z</time>
      </trkpt>
      <trkpt lat="49.36534" lon="0.07842">
        <ele>3.4</ele>
        <time>2015-10-18T07:54:14Z</time>
      </trkpt>
      <trkpt lat="49.36533" lon="0.07841">
        <ele>3.1</ele>
        <time>2015-10-18T07:54:15Z</time>
      </trkpt>
      <trkpt lat="49.36533" lon="0.07839">
        <ele>3</ele>
        <time>2015-10-18T07:54:16Z</time>
      </trkpt>
      <trkpt lat="49.36532" lon="0.07838">
        <ele>3.3</ele>
        <time>2015-10-18T07:54:17Z</time>
      </trkpt>
      <trkpt lat="49.36531" lon="0.07833">
        <ele>2.9</ele>
        <time>2015-10-18T07:54:20Z</time>
      </trkpt>
      <trkpt lat="49.36531" lon="0.07832">
        <ele>2.6</ele>
        <time>2015-10-18T07:54:21Z</time>
      </trkpt>
      <trkpt lat="49.36531" lon="0.07829">
        <ele>2.9</ele>
        <time>2015-10-18T07:54:23Z</time>
      </trkpt>
      <trkpt lat="49.36531" lon="0.07827">
        <ele>3.3</ele>
        <time>2015-10-18T07:54:24Z</time>
      </trkpt>
      <trkpt lat="49.36531" lon="0.07826">
        <ele>3.5</ele>
        <time>2015-10-18T07:54:25Z</time>
      </trkpt>
      <trkpt lat="49.36531" lon="0.07824">
        <ele>3.2</ele>
        <time>2015-10-18T07:54:26Z</time>
      </trkpt>
      <trkpt lat="49.36531" lon="0.07822">
        <ele>3.1</ele>
        <time>2015-10-18T07:54:27Z</time>
      </trkpt>
      <trkpt lat="49.36531" lon="0.0782">
        <ele>3</ele>
        <time>2015-10-18T07:54:28Z</time>
      </trkpt>
      <trkpt lat="49.36532" lon="0.07819">
        <ele>2.6</ele>
        <time>2015-10-18T07:54:29Z</time>
      </trkpt>
      <trkpt lat="49.36532" lon="0.07817">
        <ele>2.4</ele>
        <time>2015-10-18T07:54:30Z</time>
      </trkpt>
      <trkpt lat="49.36532" lon="0.07815">
        <ele>2.2</ele>
        <time>2015-10-18T07:54:31Z</time>
      </trkpt>
      <trkpt lat="49.36532" lon="0.07814">
        <ele>2.9</ele>
        <time>2015-10-18T07:54:32Z</time>
      </trkpt>
      <trkpt lat="49.36533" lon="0.07812">
        <ele>3.1</ele>
        <time>2015-10-18T07:54:33Z</time>
      </trkpt>
      <trkpt lat="49.36533" lon="0.07811">
        <ele>3.3</ele>
        <time>2015-10-18T07:54:34Z</time>
      </trkpt>
      <trkpt lat="49.36533" lon="0.07809">
        <ele>3.2</ele>
        <time>2015-10-18T07:54:35Z</time>
      </trkpt>
      <trkpt lat="49.36533" lon="0.07808">
        <ele>3.1</ele>
        <time>2015-10-18T07:54:36Z</time>
      </trkpt>
      <trkpt lat="49.36533" lon="0.07806">
        <ele>3</ele>
        <time>2015-10-18T07:54:37Z</time>
      </trkpt>
      <trkpt lat="49.36533" lon="0.07805">
        <ele>3.2</ele>
        <time>2015-10-18T07:54:38Z</time>
      </trkpt>
      <trkpt lat="49.36533" lon="0.07804">
        <ele>3.3</ele>
        <time>2015-10-18T07:54:39Z</time>
      </trkpt>
      <trkpt lat="49.36532" lon="0.07802">
        <ele>3.4</ele>
        <time>2015-10-18T07:54:40Z</time>
      </trkpt>
      <trkpt lat="49.36532" lon="0.07801">
        <ele>3.1</ele>
        <time>2015-10-18T07:54:41Z</time>
      </trkpt>
      <trkpt lat="49.36532" lon="0.07799">
        <ele>2.8</ele>
        <time>2015-10-18T07:54:42Z</time>
      </trkpt>
      <trkpt lat="49.36532" lon="0.07797">
        <ele>2.6</ele>
        <time>2015-10-18T07:54:43Z</time>
      </trkpt>
      <trkpt lat="49.36532" lon="0.07795">
        <ele>2.3</ele>
        <time>2015-10-18T07:54:44Z</time>
      </trkpt>
      <trkpt lat="49.36531" lon="0.07793">
        <ele>2</ele>
        <time>2015-10-18T07:54:45Z</time>
      </trkpt>
      <trkpt lat="49.36531" lon="0.07791">
        <ele>1.8</ele>
        <time>2015-10-18T07:54:46Z</time>
      </trkpt>
      <trkpt lat="49.36531" lon="0.07789">
        <ele>1.3</ele>
        <time>2015-10-18T07:54:47Z</time>
      </trkpt>
      <trkpt lat="49.3653" lon="0.07761">
        <ele>5.1</ele>
        <time>2015-10-18T07:55:05Z</time>
      </trkpt>
      <trkpt lat="49.3653" lon="0.07759">
        <ele>-0.1</ele>
        <time>2015-10-18T07:55:07Z</time>
      </trkpt>
      <trkpt lat="49.36531" lon="0.07743">
        <ele>0.7</ele>
        <time>2015-10-18T07:55:20Z</time>
      </trkpt>
      <trkpt lat="49.36531" lon="0.07742">
        <ele>0.2</ele>
        <time>2015-10-18T07:55:21Z</time>
      </trkpt>
      <trkpt lat="49.36538" lon="0.07707">
        <ele>0.9</ele>
        <time>2015-10-18T07:55:44Z</time>
      </trkpt>
      <trkpt lat="49.36541" lon="0.077">
        <ele>1.1</ele>
        <time>2015-10-18T07:55:47Z</time>
      </trkpt>
      <trkpt lat="49.36551" lon="0.07677">
        <ele>2.3</ele>
        <time>2015-10-18T07:56:02Z</time>
      </trkpt>
      <trkpt lat="49.36552" lon="0.07675">
        <ele>1.4</ele>
        <time>2015-10-18T07:56:03Z</time>
      </trkpt>
      <trkpt lat="49.36554" lon="0.07669">
        <ele>1.7</ele>
        <time>2015-10-18T07:56:06Z</time>
      </trkpt>
      <trkpt lat="49.36555" lon="0.07668">
        <ele>2</ele>
        <time>2015-10-18T07:56:07Z</time>
      </trkpt>
      <trkpt lat="49.3656" lon="0.07664">
        <ele>1.5</ele>
        <time>2015-10-18T07:56:11Z</time>
      </trkpt>
      <trkpt lat="49.36571" lon="0.07655">
        <ele>2.7</ele>
        <time>2015-10-18T07:56:23Z</time>
      </trkpt>
      <trkpt lat="49.36572" lon="0.07654">
        <ele>3.1</ele>
        <time>2015-10-18T07:56:24Z</time>
      </trkpt>
      <trkpt lat="49.36573" lon="0.07653">
        <ele>3.5</ele>
        <time>2015-10-18T07:56:26Z</time>
      </trkpt>
      <trkpt lat="49.36574" lon="0.07647">
        <ele>2.4</ele>
        <time>2015-10-18T07:56:32Z</time>
      </trkpt>
      <trkpt lat="49.36575" lon="0.07644">
        <ele>2.6</ele>
        <time>2015-10-18T07:56:34Z</time>
      </trkpt>
      <trkpt lat="49.36574" lon="0.07632">
        <ele>2.3</ele>
        <time>2015-10-18T07:56:44Z</time>
      </trkpt>
      <trkpt lat="49.36574" lon="0.07631">
        <ele>2.5</ele>
        <time>2015-10-18T07:56:45Z</time>
      </trkpt>
      <trkpt lat="49.36573" lon="0.07631">
        <ele>2.6</ele>
        <time>2015-10-18T07:56:46Z</time>
      </trkpt>
      <trkpt lat="49.36572" lon="0.07631">
        <ele>1.2</ele>
        <time>2015-10-18T07:56:47Z</time>
      </trkpt>
      <trkpt lat="49.36572" lon="0.07632">
        <ele>0.2</ele>
        <time>2015-10-18T07:56:48Z</time>
      </trkpt>
      <trkpt lat="49.36571" lon="0.07634">
        <ele>-0.5</ele>
        <time>2015-10-18T07:56:49Z</time>
      </trkpt>
      <trkpt lat="49.36571" lon="0.07636">
        <ele>0.3</ele>
        <time>2015-10-18T07:56:50Z</time>
      </trkpt>
      <trkpt lat="49.36571" lon="0.07637">
        <ele>0.9</ele>
        <time>2015-10-18T07:56:51Z</time>
      </trkpt>
      <trkpt lat="49.36571" lon="0.07639">
        <ele>1.4</ele>
        <time>2015-10-18T07:56:52Z</time>
      </trkpt>
      <trkpt lat="49.36571" lon="0.07641">
        <ele>1.8</ele>
        <time>2015-10-18T07:56:53Z</time>
      </trkpt>
      <trkpt lat="49.36571" lon="0.07642">
        <ele>2.1</ele>
        <time>2015-10-18T07:56:54Z</time>
      </trkpt>
      <trkpt lat="49.36571" lon="0.07643">
        <ele>2.3</ele>
        <time>2015-10-18T07:56:55Z</time>
      </trkpt>
      <trkpt lat="49.36571" lon="0.07645">
        <ele>2.2</ele>
        <time>2015-10-18T07:56:56Z</time>
      </trkpt>
      <trkpt lat="49.36571" lon="0.07646">
        <ele>2.2</ele>
        <time>2015-10-18T07:56:57Z</time>
      </trkpt>
      <trkpt lat="49.36572" lon="0.07648">
        <ele>2.2</ele>
        <time>2015-10-18T07:56:58Z</time>
      </trkpt>
      <trkpt lat="49.36573" lon="0.07649">
        <ele>2.3</ele>
        <time>2015-10-18T07:56:59Z</time>
      </trkpt>
      <trkpt lat="49.36573" lon="0.0765">
        <ele>2.5</ele>
        <time>2015-10-18T07:57:00Z</time>
      </trkpt>
      <trkpt lat="49.36574" lon="0.07651">
        <ele>2.6</ele>
        <time>2015-10-18T07:57:01Z</time>
      </trkpt>
      <trkpt lat="49.36575" lon="0.07653">
        <ele>2.7</ele>
        <time>2015-10-18T07:57:02Z</time>
      </trkpt>
      <trkpt lat="49.36575" lon="0.07654">
        <ele>2.7</ele>
        <time>2015-10-18T07:57:03Z</time>
      </trkpt>
      <trkpt lat="49.36576" lon="0.07655">
        <ele>2.8</ele>
        <time>2015-10-18T07:57:04Z</time>
      </trkpt>
      <trkpt lat="49.36577" lon="0.07656">
        <ele>2.6</ele>
        <time>2015-10-18T07:57:05Z</time>
      </trkpt>
      <trkpt lat="49.36578" lon="0.07657">
        <ele>2.5</ele>
        <time>2015-10-18T07:57:06Z</time>
      </trkpt>
      <trkpt lat="49.36579" lon="0.07658">
        <ele>2.4</ele>
        <time>2015-10-18T07:57:07Z</time>
      </trkpt>
      <trkpt lat="49.36592" lon="0.07672">
        <ele>2</ele>
        <time>2015-10-18T07:57:23Z</time>
      </trkpt>
      <trkpt lat="49.36593" lon="0.07674">
        <ele>1.8</ele>
        <time>2015-10-18T07:57:24Z</time>
      </trkpt>
      <trkpt lat="49.36594" lon="0.07675">
        <ele>1.7</ele>
        <time>2015-10-18T07:57:25Z</time>
      </trkpt>
      <trkpt lat="49.36597" lon="0.07679">
        <ele>2.7</ele>
        <time>2015-10-18T07:57:29Z</time>
      </trkpt>
      <trkpt lat="49.36598" lon="0.0768">
        <ele>2.5</ele>
        <time>2015-10-18T07:57:30Z</time>
      </trkpt>
      <trkpt lat="49.36608" lon="0.07689">
        <ele>2</ele>
        <time>2015-10-18T07:57:41Z</time>
      </trkpt>
      <trkpt lat="49.36609" lon="0.07691">
        <ele>1.3</ele>
        <time>2015-10-18T07:57:43Z</time>
      </trkpt>
      <trkpt lat="49.36614" lon="0.07702">
        <ele>1</ele>
        <time>2015-10-18T07:57:51Z</time>
      </trkpt>
      <trkpt lat="49.36617" lon="0.07722">
        <ele>0.7</ele>
        <time>2015-10-18T07:58:02Z</time>
      </trkpt>
      <trkpt lat="49.36617" lon="0.07723">
        <ele>1.5</ele>
        <time>2015-10-18T07:58:03Z</time>
      </trkpt>
      <trkpt lat="49.36618" lon="0.07724">
        <ele>2</ele>
        <time>2015-10-18T07:58:04Z</time>
      </trkpt>
      <trkpt lat="49.36619" lon="0.07724">
        <ele>1.6</ele>
        <time>2015-10-18T07:58:05Z</time>
      </trkpt>
      <trkpt lat="49.36621" lon="0.07724">
        <ele>1.3</ele>
        <time>2015-10-18T07:58:06Z</time>
      </trkpt>
      <trkpt lat="49.36622" lon="0.07724">
        <ele>1.1</ele>
        <time>2015-10-18T07:58:07Z</time>
      </trkpt>
      <trkpt lat="49.36624" lon="0.07724">
        <ele>1.5</ele>
        <time>2015-10-18T07:58:08Z</time>
      </trkpt>
      <trkpt lat="49.36625" lon="0.07723">
        <ele>1.9</ele>
        <time>2015-10-18T07:58:09Z</time>
      </trkpt>
      <trkpt lat="49.36627" lon="0.07723">
        <ele>2.1</ele>
        <time>2015-10-18T07:58:10Z</time>
      </trkpt>
      <trkpt lat="49.36628" lon="0.07723">
        <ele>1.7</ele>
        <time>2015-10-18T07:58:11Z</time>
      </trkpt>
      <trkpt lat="49.3663" lon="0.07723">
        <ele>1.4</ele>
        <time>2015-10-18T07:58:12Z</time>
      </trkpt>
      <trkpt lat="49.36631" lon="0.07723">
        <ele>1.1</ele>
        <time>2015-10-18T07:58:13Z</time>
      </trkpt>
      <trkpt lat="49.36632" lon="0.07723">
        <ele>1.4</ele>
        <time>2015-10-18T07:58:14Z</time>
      </trkpt>
      <trkpt lat="49.36634" lon="0.07724">
        <ele>1.5</ele>
        <time>2015-10-18T07:58:15Z</time>
      </trkpt>
      <trkpt lat="49.36635" lon="0.07724">
        <ele>1.7</ele>
        <time>2015-10-18T07:58:16Z</time>
      </trkpt>
      <trkpt lat="49.36636" lon="0.07724">
        <ele>2</ele>
        <time>2015-10-18T07:58:17Z</time>
      </trkpt>
      <trkpt lat="49.36637" lon="0.07725">
        <ele>2.2</ele>
        <time>2015-10-18T07:58:18Z</time>
      </trkpt>
      <trkpt lat="49.36638" lon="0.07725">
        <ele>2.4</ele>
        <time>2015-10-18T07:58:19Z</time>
      </trkpt>
      <trkpt lat="49.36639" lon="0.07726">
        <ele>2.9</ele>
        <time>2015-10-18T07:58:20Z</time>
      </trkpt>
      <trkpt lat="49.36641" lon="0.07726">
        <ele>3.3</ele>
        <time>2015-10-18T07:58:21Z</time>
      </trkpt>
      <trkpt lat="49.36642" lon="0.07727">
        <ele>3.6</ele>
        <time>2015-10-18T07:58:22Z</time>
      </trkpt>
      <trkpt lat="49.36643" lon="0.07727">
        <ele>2.8</ele>
        <time>2015-10-18T07:58:23Z</time>
      </trkpt>
      <trkpt lat="49.36644" lon="0.07728">
        <ele>2.2</ele>
        <time>2015-10-18T07:58:24Z</time>
      </trkpt>
      <trkpt lat="49.36645" lon="0.07728">
        <ele>1.8</ele>
        <time>2015-10-18T07:58:25Z</time>
      </trkpt>
      <trkpt lat="49.36646" lon="0.07729">
        <ele>1.4</ele>
        <time>2015-10-18T07:58:26Z</time>
      </trkpt>
      <trkpt lat="49.36647" lon="0.0773">
        <ele>1.2</ele>
        <time>2015-10-18T07:58:27Z</time>
      </trkpt>
      <trkpt lat="49.36648" lon="0.0773">
        <ele>1</ele>
        <time>2015-10-18T07:58:28Z</time>
      </trkpt>
      <trkpt lat="49.36649" lon="0.07731">
        <ele>0.8</ele>
        <time>2015-10-18T07:58:29Z</time>
      </trkpt>
      <trkpt lat="49.36651" lon="0.07733">
        <ele>0.7</ele>
        <time>2015-10-18T07:58:31Z</time>
      </trkpt>
      <trkpt lat="49.36679" lon="0.07758">
        <ele>2.8</ele>
        <time>2015-10-18T07:59:01Z</time>
      </trkpt>
      <trkpt lat="49.36683" lon="0.07762">
        <ele>2.1</ele>
        <time>2015-10-18T07:59:06Z</time>
      </trkpt>
      <trkpt lat="49.36683" lon="0.07761">
        <ele>1.7</ele>
        <time>2015-10-18T07:59:07Z</time>
      </trkpt>
      <trkpt lat="49.36683" lon="0.0776">
        <ele>2</ele>
        <time>2015-10-18T07:59:08Z</time>
      </trkpt>
      <trkpt lat="49.36683" lon="0.07759">
        <ele>2.2</ele>
        <time>2015-10-18T07:59:09Z</time>
      </trkpt>
      <trkpt lat="49.36683" lon="0.07758">
        <ele>2.4</ele>
        <time>2015-10-18T07:59:10Z</time>
      </trkpt>
      <trkpt lat="49.36683" lon="0.07756">
        <ele>1.3</ele>
        <time>2015-10-18T07:59:11Z</time>
      </trkpt>
      <trkpt lat="49.36683" lon="0.07754">
        <ele>0.4</ele>
        <time>2015-10-18T07:59:12Z</time>
      </trkpt>
      <trkpt lat="49.36682" lon="0.07753">
        <ele>-0.1</ele>
        <time>2015-10-18T07:59:13Z</time>
      </trkpt>
      <trkpt lat="49.36682" lon="0.07751">
        <ele>0.4</ele>
        <time>2015-10-18T07:59:14Z</time>
      </trkpt>
      <trkpt lat="49.36681" lon="0.0775">
        <ele>0.8</ele>
        <time>2015-10-18T07:59:15Z</time>
      </trkpt>
      <trkpt lat="49.3668" lon="0.07749">
        <ele>1.1</ele>
        <time>2015-10-18T07:59:16Z</time>
      </trkpt>
      <trkpt lat="49.36679" lon="0.07748">
        <ele>1.6</ele>
        <time>2015-10-18T07:59:17Z</time>
      </trkpt>
      <trkpt lat="49.36678" lon="0.07747">
        <ele>1.9</ele>
        <time>2015-10-18T07:59:18Z</time>
      </trkpt>
      <trkpt lat="49.36678" lon="0.07746">
        <ele>2.1</ele>
        <time>2015-10-18T07:59:19Z</time>
      </trkpt>
      <trkpt lat="49.36677" lon="0.07745">
        <ele>1.7</ele>
        <time>2015-10-18T07:59:20Z</time>
      </trkpt>
      <trkpt lat="49.36676" lon="0.07743">
        <ele>1.4</ele>
        <time>2015-10-18T07:59:21Z</time>
      </trkpt>
      <trkpt lat="49.36675" lon="0.07742">
        <ele>1.1</ele>
        <time>2015-10-18T07:59:22Z</time>
      </trkpt>
      <trkpt lat="49.36674" lon="0.07742">
        <ele>1.8</ele>
        <time>2015-10-18T07:59:26Z</time>
      </trkpt>
      <trkpt lat="49.36675" lon="0.07742">
        <ele>1.8</ele>
        <time>2015-10-18T07:59:27Z</time>
      </trkpt>
      <trkpt lat="49.36675" lon="0.07742">
        <ele>2</ele>
        <time>2015-10-18T07:59:31Z</time>
      </trkpt>
      <trkpt lat="49.36675" lon="0.07743">
        <ele>2.8</ele>
        <time>2015-10-18T07:59:33Z</time>
      </trkpt>
      <trkpt lat="49.36675" lon="0.07743">
        <ele>3</ele>
        <time>2015-10-18T07:59:34Z</time>
      </trkpt>
      <trkpt lat="49.36675" lon="0.07743">
        <ele>2.3</ele>
        <time>2015-10-18T07:59:35Z</time>
      </trkpt>
      <trkpt lat="49.36675" lon="0.07743">
        <ele>1.9</ele>
        <time>2015-10-18T07:59:36Z</time>
      </trkpt>
      <trkpt lat="49.36676" lon="0.07743">
        <ele>1.5</ele>
        <time>2015-10-18T07:59:37Z</time>
      </trkpt>
      <trkpt lat="49.36676" lon="0.07744">
        <ele>1.2</ele>
        <time>2015-10-18T07:59:38Z</time>
      </trkpt>
      <trkpt lat="49.36676" lon="0.07745">
        <ele>1</ele>
        <time>2015-10-18T07:59:39Z</time>
      </trkpt>
      <trkpt lat="49.36677" lon="0.07746">
        <ele>0.9</ele>
        <time>2015-10-18T07:59:40Z</time>
      </trkpt>
      <trkpt lat="49.36683" lon="0.07765">
        <ele>1.9</ele>
        <time>2015-10-18T07:59:55Z</time>
      </trkpt>
      <trkpt lat="49.36683" lon="0.07765">
        <ele>0.7</ele>
        <time>2015-10-18T07:59:56Z</time>
      </trkpt>
      <trkpt lat="49.36683" lon="0.07765">
        <ele>-0.1</ele>
        <time>2015-10-18T07:59:57Z</time>
      </trkpt>
      <trkpt lat="49.36683" lon="0.07766">
        <ele>-0.8</ele>
        <time>2015-10-18T07:59:58Z</time>
      </trkpt>
      <trkpt lat="49.36684" lon="0.07767">
        <ele>5.2</ele>
        <time>2015-10-18T08:00:00Z</time>
      </trkpt>
      <trkpt lat="49.36687" lon="0.07769">
        <ele>0.7</ele>
        <time>2015-10-18T08:00:03Z</time>
      </trkpt>
      <trkpt lat="49.36696" lon="0.07775">
        <ele>2.1</ele>
        <time>2015-10-18T08:00:13Z</time>
      </trkpt>
      <trkpt lat="49.36698" lon="0.07777">
        <ele>4</ele>
        <time>2015-10-18T08:00:16Z</time>
      </trkpt>
      <trkpt lat="49.36698" lon="0.07777">
        <ele>3.5</ele>
        <time>2015-10-18T08:00:17Z</time>
      </trkpt>
      <trkpt lat="49.36698" lon="0.07778">
        <ele>3.2</ele>
        <time>2015-10-18T08:00:18Z</time>
      </trkpt>
      <trkpt lat="49.36698" lon="0.07778">
        <ele>2.9</ele>
        <time>2015-10-18T08:00:19Z</time>
      </trkpt>
      <trkpt lat="49.36698" lon="0.07778">
        <ele>2.3</ele>
        <time>2015-10-18T08:00:20Z</time>
      </trkpt>
      <trkpt lat="49.36699" lon="0.07778">
        <ele>1.8</ele>
        <time>2015-10-18T08:00:21Z</time>
      </trkpt>
      <trkpt lat="49.3671" lon="0.0779">
        <ele>0.7</ele>
        <time>2015-10-18T08:00:33Z</time>
      </trkpt>
      <trkpt lat="49.36711" lon="0.07791">
        <ele>0.8</ele>
        <time>2015-10-18T08:00:34Z</time>
      </trkpt>
      <trkpt lat="49.36728" lon="0.0781">
        <ele>-0.7</ele>
        <time>2015-10-18T08:00:54Z</time>
      </trkpt>
      <trkpt lat="49.36763" lon="0.07848">
        <ele>0.3</ele>
        <time>2015-10-18T08:01:35Z</time>
      </trkpt>
      <trkpt lat="49.36763" lon="0.07848">
        <ele>0.7</ele>
        <time>2015-10-18T08:01:36Z</time>
      </trkpt>
      <trkpt lat="49.36773" lon="0.07858">
        <ele>1.7</ele>
        <time>2015-10-18T08:01:49Z</time>
      </trkpt>
      <trkpt lat="49.36784" lon="0.07881">
        <ele>2.7</ele>
        <time>2015-10-18T08:02:02Z</time>
      </trkpt>
      <trkpt lat="49.36784" lon="0.07882">
        <ele>2.1</ele>
        <time>2015-10-18T08:02:03Z</time>
      </trkpt>
      <trkpt lat="49.36785" lon="0.07883">
        <ele>1.7</ele>
        <time>2015-10-18T08:02:04Z</time>
      </trkpt>
      <trkpt lat="49.36792" lon="0.07889">
        <ele>0.6</ele>
        <time>2015-10-18T08:02:11Z</time>
      </trkpt>
      <trkpt lat="49.368" lon="0.07895">
        <ele>2.1</ele>
        <time>2015-10-18T08:02:19Z</time>
      </trkpt>
      <trkpt lat="49.36801" lon="0.07896">
        <ele>2.7</ele>
        <time>2015-10-18T08:02:20Z</time>
      </trkpt>
      <trkpt lat="49.36801" lon="0.07897">
        <ele>3.2</ele>
        <time>2015-10-18T08:02:21Z</time>
      </trkpt>
      <trkpt lat="49.36802" lon="0.07898">
        <ele>3.5</ele>
        <time>2015-10-18T08:02:22Z</time>
      </trkpt>
      <trkpt lat="49.36802" lon="0.07899">
        <ele>3.1</ele>
        <time>2015-10-18T08:02:23Z</time>
      </trkpt>
      <trkpt lat="49.36803" lon="0.07901">
        <ele>2.9</ele>
        <time>2015-10-18T08:02:24Z</time>
      </trkpt>
      <trkpt lat="49.36803" lon="0.07902">
        <ele>2.7</ele>
        <time>2015-10-18T08:02:25Z</time>
      </trkpt>
      <trkpt lat="49.36804" lon="0.07903">
        <ele>2.3</ele>
        <time>2015-10-18T08:02:26Z</time>
      </trkpt>
      <trkpt lat="49.36805" lon="0.07906">
        <ele>2.3</ele>
        <time>2015-10-18T08:02:29Z</time>
      </trkpt>
      <trkpt lat="49.36805" lon="0.07908">
        <ele>2.7</ele>
        <time>2015-10-18T08:02:30Z</time>
      </trkpt>
      <trkpt lat="49.36806" lon="0.07909">
        <ele>2.9</ele>
        <time>2015-10-18T08:02:31Z</time>
      </trkpt>
      <trkpt lat="49.36806" lon="0.07912">
        <ele>2</ele>
        <time>2015-10-18T08:02:34Z</time>
      </trkpt>
      <trkpt lat="49.36807" lon="0.07913">
        <ele>0.9</ele>
        <time>2015-10-18T08:02:35Z</time>
      </trkpt>
      <trkpt lat="49.36807" lon="0.07914">
        <ele>0.2</ele>
        <time>2015-10-18T08:02:36Z</time>
      </trkpt>
      <trkpt lat="49.36808" lon="0.07915">
        <ele>-0.3</ele>
        <time>2015-10-18T08:02:37Z</time>
      </trkpt>
      <trkpt lat="49.36808" lon="0.07916">
        <ele>-0.5</ele>
        <time>2015-10-18T08:02:38Z</time>
      </trkpt>
      <trkpt lat="49.36809" lon="0.07918">
        <ele>-0.7</ele>
        <time>2015-10-18T08:02:39Z</time>
      </trkpt>
      <trkpt lat="49.3681" lon="0.07919">
        <ele>-0.8</ele>
        <time>2015-10-18T08:02:40Z</time>
      </trkpt>
      <trkpt lat="49.36813" lon="0.0792">
        <ele>-1.1</ele>
        <time>2015-10-18T08:02:41Z</time>
      </trkpt>
      <trkpt lat="49.36814" lon="0.07921">
        <ele>-1.3</ele>
        <time>2015-10-18T08:02:42Z</time>
      </trkpt>
      <trkpt lat="49.36816" lon="0.07922">
        <ele>-1.5</ele>
        <time>2015-10-18T08:02:43Z</time>
      </trkpt>
      <trkpt lat="49.36819" lon="0.07923">
        <ele>-0.1</ele>
        <time>2015-10-18T08:02:44Z</time>
      </trkpt>
      <trkpt lat="49.36821" lon="0.07923">
        <ele>0.7</ele>
        <time>2015-10-18T08:02:45Z</time>
      </trkpt>
      <trkpt lat="49.36823" lon="0.07924">
        <ele>1.5</ele>
        <time>2015-10-18T08:02:46Z</time>
      </trkpt>
      <trkpt lat="49.36824" lon="0.07924">
        <ele>2.3</ele>
        <time>2015-10-18T08:02:47Z</time>
      </trkpt>
      <trkpt lat="49.36825" lon="0.07925">
        <ele>2.8</ele>
        <time>2015-10-18T08:02:48Z</time>
      </trkpt>
      <trkpt lat="49.36826" lon="0.07925">
        <ele>3.3</ele>
        <time>2015-10-18T08:02:49Z</time>
      </trkpt>
      <trkpt lat="49.36828" lon="0.07925">
        <ele>2.5</ele>
        <time>2015-10-18T08:02:50Z</time>
      </trkpt>
      <trkpt lat="49.36829" lon="0.07925">
        <ele>2</ele>
        <time>2015-10-18T08:02:51Z</time>
      </trkpt>
      <trkpt lat="49.3683" lon="0.07926">
        <ele>1.6</ele>
        <time>2015-10-18T08:02:52Z</time>
      </trkpt>
      <trkpt lat="49.36831" lon="0.07926">
        <ele>1.7</ele>
        <time>2015-10-18T08:02:53Z</time>
      </trkpt>
      <trkpt lat="49.36832" lon="0.07927">
        <ele>1.8</ele>
        <time>2015-10-18T08:02:54Z</time>
      </trkpt>
      <trkpt lat="49.36833" lon="0.07927">
        <ele>1.9</ele>
        <time>2015-10-18T08:02:55Z</time>
      </trkpt>
      <trkpt lat="49.36834" lon="0.07928">
        <ele>1.5</ele>
        <time>2015-10-18T08:02:56Z</time>
      </trkpt>
      <trkpt lat="49.36835" lon="0.07929">
        <ele>1.2</ele>
        <time>2015-10-18T08:02:57Z</time>
      </trkpt>
      <trkpt lat="49.36836" lon="0.0793">
        <ele>1</ele>
        <time>2015-10-18T08:02:58Z</time>
      </trkpt>
      <trkpt lat="49.36886" lon="0.07987">
        <ele>1.7</ele>
        <time>2015-10-18T08:03:51Z</time>
      </trkpt>
      <trkpt lat="49.36887" lon="0.07988">
        <ele>1.6</ele>
        <time>2015-10-18T08:03:52Z</time>
      </trkpt>
      <trkpt lat="49.36896" lon="0.08006">
        <ele>2.2</ele>
        <time>2015-10-18T08:04:07Z</time>
      </trkpt>
      <trkpt lat="49.36899" lon="0.08009">
        <ele>1.2</ele>
        <time>2015-10-18T08:04:10Z</time>
      </trkpt>
      <trkpt lat="49.36901" lon="0.08011">
        <ele>3.1</ele>
        <time>2015-10-18T08:04:13Z</time>
      </trkpt>
      <trkpt lat="49.36913" lon="0.08018">
        <ele>1.4</ele>
        <time>2015-10-18T08:04:25Z</time>
      </trkpt>
      <trkpt lat="49.36914" lon="0.08019">
        <ele>2.2</ele>
        <time>2015-10-18T08:04:26Z</time>
      </trkpt>
      <trkpt lat="49.36915" lon="0.0802">
        <ele>2.8</ele>
        <time>2015-10-18T08:04:27Z</time>
      </trkpt>
      <trkpt lat="49.36915" lon="0.08021">
        <ele>3.2</ele>
        <time>2015-10-18T08:04:28Z</time>
      </trkpt>
      <trkpt lat="49.37022" lon="0.08118">
        <ele>2.1</ele>
        <time>2015-10-18T08:06:22Z</time>
      </trkpt>
      <trkpt lat="49.37023" lon="0.08119">
        <ele>2.3</ele>
        <time>2015-10-18T08:06:23Z</time>
      </trkpt>
      <trkpt lat="49.37026" lon="0.08127">
        <ele>0.8</ele>
        <time>2015-10-18T08:06:32Z</time>
      </trkpt>
      <trkpt lat="49.37026" lon="0.08127">
        <ele>0.5</ele>
        <time>2015-10-18T08:06:33Z</time>
      </trkpt>
      <trkpt lat="49.37026" lon="0.08128">
        <ele>0.3</ele>
        <time>2015-10-18T08:06:34Z</time>
      </trkpt>
      <trkpt lat="49.37026" lon="0.08128">
        <ele>0.9</ele>
        <time>2015-10-18T08:06:35Z</time>
      </trkpt>
      <trkpt lat="49.37026" lon="0.08129">
        <ele>1.4</ele>
        <time>2015-10-18T08:06:36Z</time>
      </trkpt>
      <trkpt lat="49.37026" lon="0.08132">
        <ele>1.5</ele>
        <time>2015-10-18T08:06:39Z</time>
      </trkpt>
      <trkpt lat="49.37026" lon="0.08132">
        <ele>1.6</ele>
        <time>2015-10-18T08:06:41Z</time>
      </trkpt>
      <trkpt lat="49.37026" lon="0.08133">
        <ele>1.7</ele>
        <time>2015-10-18T08:06:42Z</time>
      </trkpt>
      <trkpt lat="49.37026" lon="0.08134">
        <ele>3.8</ele>
        <time>2015-10-18T08:06:51Z</time>
      </trkpt>
      <trkpt lat="49.37026" lon="0.08134">
        <ele>2.3</ele>
        <time>2015-10-18T08:06:53Z</time>
      </trkpt>
      <trkpt lat="49.37026" lon="0.08135">
        <ele>1</ele>
        <time>2015-10-18T08:06:54Z</time>
      </trkpt>
      <trkpt lat="49.37027" lon="0.08135">
        <ele>6.1</ele>
        <time>2015-10-18T08:06:55Z</time>
      </trkpt>
      <trkpt lat="49.37027" lon="0.08135">
        <ele>0.3</ele>
        <time>2015-10-18T08:06:56Z</time>
      </trkpt>
      <trkpt lat="49.37027" lon="0.08135">
        <ele>0.5</ele>
        <time>2015-10-18T08:06:57Z</time>
      </trkpt>
      <trkpt lat="49.37028" lon="0.08135">
        <ele>0.7</ele>
        <time>2015-10-18T08:06:58Z</time>
      </trkpt>
      <trkpt lat="49.37034" lon="0.08134">
        <ele>-0.1</ele>
        <time>2015-10-18T08:07:02Z</time>
      </trkpt>
      <trkpt lat="49.37036" lon="0.08135">
        <ele>0.8</ele>
        <time>2015-10-18T08:07:04Z</time>
      </trkpt>
      <trkpt lat="49.3704" lon="0.08137">
        <ele>1.1</ele>
        <time>2015-10-18T08:07:07Z</time>
      </trkpt>
      <trkpt lat="49.37045" lon="0.08142">
        <ele>1.5</ele>
        <time>2015-10-18T08:07:12Z</time>
      </trkpt>
      <trkpt lat="49.371" lon="0.08205">
        <ele>1.6</ele>
        <time>2015-10-18T08:08:14Z</time>
      </trkpt>
      <trkpt lat="49.37101" lon="0.08206">
        <ele>1.7</ele>
        <time>2015-10-18T08:08:15Z</time>
      </trkpt>
      <trkpt lat="49.37199" lon="0.08309">
        <ele>1.3</ele>
        <time>2015-10-18T08:10:05Z</time>
      </trkpt>
      <trkpt lat="49.37231" lon="0.08337">
        <ele>1.4</ele>
        <time>2015-10-18T08:10:41Z</time>
      </trkpt>
      <trkpt lat="49.37233" lon="0.08338">
        <ele>1.9</ele>
        <time>2015-10-18T08:10:43Z</time>
      </trkpt>
      <trkpt lat="49.37234" lon="0.08338">
        <ele>2.4</ele>
        <time>2015-10-18T08:10:44Z</time>
      </trkpt>
      <trkpt lat="49.37255" lon="0.08354">
        <ele>1.1</ele>
        <time>2015-10-18T08:11:13Z</time>
      </trkpt>
      <trkpt lat="49.37256" lon="0.08355">
        <ele>1.2</ele>
        <time>2015-10-18T08:11:14Z</time>
      </trkpt>
      <trkpt lat="49.37263" lon="0.08362">
        <ele>0.6</ele>
        <time>2015-10-18T08:11:25Z</time>
      </trkpt>
      <trkpt lat="49.37289" lon="0.08391">
        <ele>1.2</ele>
        <time>2015-10-18T08:12:00Z</time>
      </trkpt>
      <trkpt lat="49.3729" lon="0.08391">
        <ele>1.4</ele>
        <time>2015-10-18T08:12:01Z</time>
      </trkpt>
      <trkpt lat="49.37298" lon="0.08395">
        <ele>4.3</ele>
        <time>2015-10-18T08:12:10Z</time>
      </trkpt>
      <trkpt lat="49.37299" lon="0.08396">
        <ele>0.1</ele>
        <time>2015-10-18T08:12:11Z</time>
      </trkpt>
      <trkpt lat="49.37302" lon="0.084">
        <ele>-0.1</ele>
        <time>2015-10-18T08:12:15Z</time>
      </trkpt>
      <trkpt lat="49.37303" lon="0.084">
        <ele>-1.4</ele>
        <time>2015-10-18T08:12:16Z</time>
      </trkpt>
      <trkpt lat="49.3731" lon="0.08405">
        <ele>-1.3</ele>
        <time>2015-10-18T08:12:24Z</time>
      </trkpt>
      <trkpt lat="49.37311" lon="0.08405">
        <ele>-0.8</ele>
        <time>2015-10-18T08:12:25Z</time>
      </trkpt>
      <trkpt lat="49.37312" lon="0.08405">
        <ele>-0.5</ele>
        <time>2015-10-18T08:12:26Z</time>
      </trkpt>
      <trkpt lat="49.37312" lon="0.08405">
        <ele>-0.3</ele>
        <time>2015-10-18T08:12:27Z</time>
      </trkpt>
      <trkpt lat="49.37313" lon="0.08406">
        <ele>-1.1</ele>
        <time>2015-10-18T08:12:28Z</time>
      </trkpt>
      <trkpt lat="49.37314" lon="0.08406">
        <ele>-1.7</ele>
        <time>2015-10-18T08:12:29Z</time>
      </trkpt>
      <trkpt lat="49.37317" lon="0.0841">
        <ele>-2.6</ele>
        <time>2015-10-18T08:12:33Z</time>
      </trkpt>
      <trkpt lat="49.37323" lon="0.08417">
        <ele>4</ele>
        <time>2015-10-18T08:12:42Z</time>
      </trkpt>
      <trkpt lat="49.37333" lon="0.08428">
        <ele>-1.6</ele>
        <time>2015-10-18T08:12:55Z</time>
      </trkpt>
      <trkpt lat="49.37336" lon="0.08429">
        <ele>-1.4</ele>
        <time>2015-10-18T08:12:58Z</time>
      </trkpt>
      <trkpt lat="49.37337" lon="0.08431">
        <ele>-0.9</ele>
        <time>2015-10-18T08:13:00Z</time>
      </trkpt>
      <trkpt lat="49.37342" lon="0.08436">
        <ele>-7.1</ele>
        <time>2015-10-18T08:13:08Z</time>
      </trkpt>
      <trkpt lat="49.37342" lon="0.08436">
        <ele>-8.9</ele>
        <time>2015-10-18T08:13:09Z</time>
      </trkpt>
      <trkpt lat="49.37342" lon="0.08436">
        <ele>-4.9</ele>
        <time>2015-10-18T08:13:10Z</time>
      </trkpt>
      <trkpt lat="49.37342" lon="0.08437">
        <ele>-1.9</ele>
        <time>2015-10-18T08:13:11Z</time>
      </trkpt>
      <trkpt lat="49.37352" lon="0.08446">
        <ele>-0.1</ele>
        <time>2015-10-18T08:13:26Z</time>
      </trkpt>
      <trkpt lat="49.37352" lon="0.08446">
        <ele>-0.1</ele>
        <time>2015-10-18T08:13:27Z</time>
      </trkpt>
      <trkpt lat="49.37352" lon="0.08446">
        <ele>4</ele>
        <time>2015-10-18T08:13:28Z</time>
      </trkpt>
      <trkpt lat="49.37352" lon="0.08446">
        <ele>4</ele>
        <time>2015-10-18T08:13:29Z</time>
      </trkpt>
      <trkpt lat="49.37352" lon="0.08447">
        <ele>0.1</ele>
        <time>2015-10-18T08:13:30Z</time>
      </trkpt>
      <trkpt lat="49.37352" lon="0.08447">
        <ele>0.4</ele>
        <time>2015-10-18T08:13:31Z</time>
      </trkpt>
      <trkpt lat="49.37353" lon="0.08447">
        <ele>0.6</ele>
        <time>2015-10-18T08:13:32Z</time>
      </trkpt>
      <trkpt lat="49.37353" lon="0.08447">
        <ele>0.8</ele>
        <time>2015-10-18T08:13:33Z</time>
      </trkpt>
      <trkpt lat="49.37355" lon="0.08449">
        <ele>1</ele>
        <time>2015-10-18T08:13:35Z</time>
      </trkpt>
      <trkpt lat="49.37359" lon="0.08452">
        <ele>0.2</ele>
        <time>2015-10-18T08:13:41Z</time>
      </trkpt>
      <trkpt lat="49.37359" lon="0.08452">
        <ele>4</ele>
        <time>2015-10-18T08:13:42Z</time>
      </trkpt>
      <trkpt lat="49.37359" lon="0.08452">
        <ele>4</ele>
        <time>2015-10-18T08:13:43Z</time>
      </trkpt>
      <trkpt lat="49.37359" lon="0.08452">
        <ele>-0.1</ele>
        <time>2015-10-18T08:13:44Z</time>
      </trkpt>
      <trkpt lat="49.37359" lon="0.08452">
        <ele>-0.1</ele>
        <time>2015-10-18T08:13:45Z</time>
      </trkpt>
      <trkpt lat="49.37359" lon="0.08452">
        <ele>-0.4</ele>
        <time>2015-10-18T08:13:46Z</time>
      </trkpt>
      <trkpt lat="49.37359" lon="0.08452">
        <ele>-0.6</ele>
        <time>2015-10-18T08:13:47Z</time>
      </trkpt>
      <trkpt lat="49.37359" lon="0.08452">
        <ele>-0.7</ele>
        <time>2015-10-18T08:13:48Z</time>
      </trkpt>
      <trkpt lat="49.37359" lon="0.08452">
        <ele>-0.4</ele>
        <time>2015-10-18T08:13:49Z</time>
      </trkpt>
      <trkpt lat="49.37359" lon="0.08452">
        <ele>-0.2</ele>
        <time>2015-10-18T08:13:50Z</time>
      </trkpt>
      <trkpt lat="49.37359" lon="0.08452">
        <ele>4</ele>
        <time>2015-10-18T08:13:51Z</time>
      </trkpt>
      <trkpt lat="49.37359" lon="0.08452">
        <ele>-0.1</ele>
        <time>2015-10-18T08:13:52Z</time>
      </trkpt>
      <trkpt lat="49.37359" lon="0.08452">
        <ele>-0.1</ele>
        <time>2015-10-18T08:13:53Z</time>
      </trkpt>
      <trkpt lat="49.37358" lon="0.08452">
        <ele>-0.2</ele>
        <time>2015-10-18T08:13:54Z</time>
      </trkpt>
      <trkpt lat="49.37358" lon="0.08452">
        <ele>0.1</ele>
        <time>2015-10-18T08:13:55Z</time>
      </trkpt>
      <trkpt lat="49.37358" lon="0.08452">
        <ele>0.4</ele>
        <time>2015-10-18T08:13:56Z</time>
      </trkpt>
      <trkpt lat="49.37358" lon="0.08452">
        <ele>0.6</ele>
        <time>2015-10-18T08:13:57Z</time>
      </trkpt>
      <trkpt lat="49.37358" lon="0.08452">
        <ele>0.3</ele>
        <time>2015-10-18T08:13:58Z</time>
      </trkpt>
      <trkpt lat="49.37358" lon="0.08451">
        <ele>0.2</ele>
        <time>2015-10-18T08:13:59Z</time>
      </trkpt>
      <trkpt lat="49.37358" lon="0.08451">
        <ele>4.1</ele>
        <time>2015-10-18T08:14:00Z</time>
      </trkpt>
      <trkpt lat="49.37358" lon="0.08451">
        <ele>-0.2</ele>
        <time>2015-10-18T08:14:01Z</time>
      </trkpt>
      <trkpt lat="49.37358" lon="0.08452">
        <ele>-0.4</ele>
        <time>2015-10-18T08:14:02Z</time>
      </trkpt>
      <trkpt lat="49.37359" lon="0.08453">
        <ele>-0.6</ele>
        <time>2015-10-18T08:14:03Z</time>
      </trkpt>
      <trkpt lat="49.3736" lon="0.08454">
        <ele>-0.3</ele>
        <time>2015-10-18T08:14:04Z</time>
      </trkpt>
      <trkpt lat="49.3736" lon="0.08454">
        <ele>-0.1</ele>
        <time>2015-10-18T08:14:05Z</time>
      </trkpt>
      <trkpt lat="49.37361" lon="0.08455">
        <ele>4</ele>
        <time>2015-10-18T08:14:06Z</time>
      </trkpt>
      <trkpt lat="49.37362" lon="0.08456">
        <ele>0.3</ele>
        <time>2015-10-18T08:14:07Z</time>
      </trkpt>
      <trkpt lat="49.37383" lon="0.08475">
        <ele>2.3</ele>
        <time>2015-10-18T08:14:30Z</time>
      </trkpt>
      <trkpt lat="49.37383" lon="0.08475">
        <ele>2.3</ele>
        <time>2015-10-18T08:14:31Z</time>
      </trkpt>
      <trkpt lat="49.37383" lon="0.08475">
        <ele>2.2</ele>
        <time>2015-10-18T08:14:33Z</time>
      </trkpt>
      <trkpt lat="49.37383" lon="0.08475">
        <ele>1.5</ele>
        <time>2015-10-18T08:14:34Z</time>
      </trkpt>
      <trkpt lat="49.37383" lon="0.08475">
        <ele>1</ele>
        <time>2015-10-18T08:14:35Z</time>
      </trkpt>
      <trkpt lat="49.37383" lon="0.08476">
        <ele>0.7</ele>
        <time>2015-10-18T08:14:36Z</time>
      </trkpt>
      <trkpt lat="49.37383" lon="0.08476">
        <ele>-0.7</ele>
        <time>2015-10-18T08:14:37Z</time>
      </trkpt>
      <trkpt lat="49.37384" lon="0.08476">
        <ele>-1.9</ele>
        <time>2015-10-18T08:14:38Z</time>
      </trkpt>
      <trkpt lat="49.37384" lon="0.08476">
        <ele>-2.7</ele>
        <time>2015-10-18T08:14:39Z</time>
      </trkpt>
      <trkpt lat="49.37384" lon="0.08476">
        <ele>-1.3</ele>
        <time>2015-10-18T08:14:42Z</time>
      </trkpt>
      <trkpt lat="49.37384" lon="0.08476">
        <ele>-0.9</ele>
        <time>2015-10-18T08:14:43Z</time>
      </trkpt>
      <trkpt lat="49.37384" lon="0.08476">
        <ele>-0.5</ele>
        <time>2015-10-18T08:14:44Z</time>
      </trkpt>
      <trkpt lat="49.37384" lon="0.08476">
        <ele>-0.3</ele>
        <time>2015-10-18T08:14:45Z</time>
      </trkpt>
      <trkpt lat="49.37384" lon="0.08477">
        <ele>-0.3</ele>
        <time>2015-10-18T08:14:46Z</time>
      </trkpt>
      <trkpt lat="49.37385" lon="0.08481">
        <ele>-0.7</ele>
        <time>2015-10-18T08:14:49Z</time>
      </trkpt>
      <trkpt lat="49.37388" lon="0.0849">
        <ele>-0.9</ele>
        <time>2015-10-18T08:14:56Z</time>
      </trkpt>
      <trkpt lat="49.3739" lon="0.08494">
        <ele>-0.1</ele>
        <time>2015-10-18T08:15:00Z</time>
      </trkpt>
      <trkpt lat="49.37398" lon="0.08506">
        <ele>-1.9</ele>
        <time>2015-10-18T08:15:10Z</time>
      </trkpt>
      <trkpt lat="49.37423" lon="0.08535">
        <ele>-0.8</ele>
        <time>2015-10-18T08:15:37Z</time>
      </trkpt>
      <trkpt lat="49.37424" lon="0.08536">
        <ele>-0.9</ele>
        <time>2015-10-18T08:15:38Z</time>
      </trkpt>
      <trkpt lat="49.37437" lon="0.08552">
        <ele>2.3</ele>
        <time>2015-10-18T08:15:59Z</time>
      </trkpt>
      <trkpt lat="49.37439" lon="0.08554">
        <ele>2.7</ele>
        <time>2015-10-18T08:16:04Z</time>
      </trkpt>
      <trkpt lat="49.3744" lon="0.08554">
        <ele>2.5</ele>
        <time>2015-10-18T08:16:05Z</time>
      </trkpt>
      <trkpt lat="49.37441" lon="0.08553">
        <ele>2.3</ele>
        <time>2015-10-18T08:16:07Z</time>
      </trkpt>
      <trkpt lat="49.37448" lon="0.08547">
        <ele>0.1</ele>
        <time>2015-10-18T08:16:14Z</time>
      </trkpt>
      <trkpt lat="49.37448" lon="0.08547">
        <ele>-0.1</ele>
        <time>2015-10-18T08:16:15Z</time>
      </trkpt>
      <trkpt lat="49.37449" lon="0.08547">
        <ele>0.1</ele>
        <time>2015-10-18T08:16:16Z</time>
      </trkpt>
      <trkpt lat="49.37449" lon="0.08547">
        <ele>0.4</ele>
        <time>2015-10-18T08:16:17Z</time>
      </trkpt>
      <trkpt lat="49.37449" lon="0.08547">
        <ele>0.6</ele>
        <time>2015-10-18T08:16:18Z</time>
      </trkpt>
      <trkpt lat="49.37449" lon="0.08546">
        <ele>2.1</ele>
        <time>2015-10-18T08:16:22Z</time>
      </trkpt>
      <trkpt lat="49.37449" lon="0.08546">
        <ele>1.9</ele>
        <time>2015-10-18T08:16:23Z</time>
      </trkpt>
      <trkpt lat="49.37449" lon="0.08546">
        <ele>1.7</ele>
        <time>2015-10-18T08:16:24Z</time>
      </trkpt>
      <trkpt lat="49.37449" lon="0.08545">
        <ele>2.2</ele>
        <time>2015-10-18T08:16:25Z</time>
      </trkpt>
      <trkpt lat="49.37449" lon="0.08545">
        <ele>2.6</ele>
        <time>2015-10-18T08:16:26Z</time>
      </trkpt>
      <trkpt lat="49.37449" lon="0.08545">
        <ele>2.9</ele>
        <time>2015-10-18T08:16:27Z</time>
      </trkpt>
      <trkpt lat="49.37449" lon="0.08544">
        <ele>3.3</ele>
        <time>2015-10-18T08:16:28Z</time>
      </trkpt>
      <trkpt lat="49.37449" lon="0.08544">
        <ele>3.6</ele>
        <time>2015-10-18T08:16:29Z</time>
      </trkpt>
      <trkpt lat="49.37449" lon="0.08543">
        <ele>3.8</ele>
        <time>2015-10-18T08:16:30Z</time>
      </trkpt>
      <trkpt lat="49.37449" lon="0.08543">
        <ele>4</ele>
        <time>2015-10-18T08:16:31Z</time>
      </trkpt>
      <trkpt lat="49.3745" lon="0.08542">
        <ele>4.2</ele>
        <time>2015-10-18T08:16:32Z</time>
      </trkpt>
      <trkpt lat="49.3745" lon="0.08542">
        <ele>4.3</ele>
        <time>2015-10-18T08:16:33Z</time>
      </trkpt>
      <trkpt lat="49.3745" lon="0.08541">
        <ele>3.9</ele>
        <time>2015-10-18T08:16:34Z</time>
      </trkpt>
      <trkpt lat="49.3745" lon="0.08541">
        <ele>3.7</ele>
        <time>2015-10-18T08:16:35Z</time>
      </trkpt>
      <trkpt lat="49.3745" lon="0.08541">
        <ele>3.5</ele>
        <time>2015-10-18T08:16:36Z</time>
      </trkpt>
      <trkpt lat="49.3745" lon="0.08541">
        <ele>2.7</ele>
        <time>2015-10-18T08:16:37Z</time>
      </trkpt>
      <trkpt lat="49.3745" lon="0.0854">
        <ele>2.1</ele>
        <time>2015-10-18T08:16:38Z</time>
      </trkpt>
      <trkpt lat="49.3745" lon="0.0854">
        <ele>1.7</ele>
        <time>2015-10-18T08:16:39Z</time>
      </trkpt>
      <trkpt lat="49.3745" lon="0.0854">
        <ele>1.4</ele>
        <time>2015-10-18T08:16:40Z</time>
      </trkpt>
      <trkpt lat="49.3745" lon="0.0854">
        <ele>1.1</ele>
        <time>2015-10-18T08:16:41Z</time>
      </trkpt>
      <trkpt lat="49.3745" lon="0.08539">
        <ele>1</ele>
        <time>2015-10-18T08:16:42Z</time>
      </trkpt>
      <trkpt lat="49.3745" lon="0.08539">
        <ele>1.4</ele>
        <time>2015-10-18T08:16:43Z</time>
      </trkpt>
      <trkpt lat="49.3745" lon="0.08539">
        <ele>1.8</ele>
        <time>2015-10-18T08:16:44Z</time>
      </trkpt>
      <trkpt lat="49.3745" lon="0.08538">
        <ele>2.1</ele>
        <time>2015-10-18T08:16:45Z</time>
      </trkpt>
      <trkpt lat="49.3745" lon="0.08538">
        <ele>2.5</ele>
        <time>2015-10-18T08:16:46Z</time>
      </trkpt>
      <trkpt lat="49.3745" lon="0.08538">
        <ele>2.8</ele>
        <time>2015-10-18T08:16:47Z</time>
      </trkpt>
      <trkpt lat="49.3745" lon="0.08538">
        <ele>3</ele>
        <time>2015-10-18T08:16:48Z</time>
      </trkpt>
      <trkpt lat="49.3745" lon="0.08537">
        <ele>2.8</ele>
        <time>2015-10-18T08:16:49Z</time>
      </trkpt>
      <trkpt lat="49.3745" lon="0.08537">
        <ele>2.6</ele>
        <time>2015-10-18T08:16:50Z</time>
      </trkpt>
      <trkpt lat="49.3745" lon="0.08537">
        <ele>2.5</ele>
        <time>2015-10-18T08:16:51Z</time>
      </trkpt>
      <trkpt lat="49.3745" lon="0.08537">
        <ele>2.8</ele>
        <time>2015-10-18T08:16:52Z</time>
      </trkpt>
      <trkpt lat="49.3745" lon="0.08537">
        <ele>3</ele>
        <time>2015-10-18T08:16:53Z</time>
      </trkpt>
      <trkpt lat="49.3745" lon="0.08537">
        <ele>3.2</ele>
        <time>2015-10-18T08:16:54Z</time>
      </trkpt>
      <trkpt lat="49.3745" lon="0.08537">
        <ele>3.3</ele>
        <time>2015-10-18T08:16:55Z</time>
      </trkpt>
      <trkpt lat="49.3745" lon="0.08537">
        <ele>3.4</ele>
        <time>2015-10-18T08:16:56Z</time>
      </trkpt>
      <trkpt lat="49.37451" lon="0.08537">
        <ele>3.4</ele>
        <time>2015-10-18T08:17:03Z</time>
      </trkpt>
      <trkpt lat="49.37452" lon="0.08536">
        <ele>3.5</ele>
        <time>2015-10-18T08:17:04Z</time>
      </trkpt>
      <trkpt lat="49.37452" lon="0.08536">
        <ele>3.5</ele>
        <time>2015-10-18T08:17:05Z</time>
      </trkpt>
      <trkpt lat="49.37451" lon="0.08536">
        <ele>3.6</ele>
        <time>2015-10-18T08:17:06Z</time>
      </trkpt>
      <trkpt lat="49.37451" lon="0.08536">
        <ele>4.2</ele>
        <time>2015-10-18T08:17:07Z</time>
      </trkpt>
      <trkpt lat="49.37451" lon="0.08536">
        <ele>4.7</ele>
        <time>2015-10-18T08:17:08Z</time>
      </trkpt>
      <trkpt lat="49.37451" lon="0.08536">
        <ele>5.1</ele>
        <time>2015-10-18T08:17:09Z</time>
      </trkpt>
      <trkpt lat="49.37451" lon="0.08536">
        <ele>5.2</ele>
        <time>2015-10-18T08:17:10Z</time>
      </trkpt>
      <trkpt lat="49.37451" lon="0.08536">
        <ele>5.2</ele>
        <time>2015-10-18T08:17:11Z</time>
      </trkpt>
      <trkpt lat="49.37451" lon="0.08536">
        <ele>5.3</ele>
        <time>2015-10-18T08:17:12Z</time>
      </trkpt>
      <trkpt lat="49.37451" lon="0.08536">
        <ele>5.1</ele>
        <time>2015-10-18T08:17:13Z</time>
      </trkpt>
      <trkpt lat="49.37452" lon="0.08536">
        <ele>5</ele>
        <time>2015-10-18T08:17:14Z</time>
      </trkpt>
      <trkpt lat="49.37452" lon="0.08535">
        <ele>4.9</ele>
        <time>2015-10-18T08:17:15Z</time>
      </trkpt>
      <trkpt lat="49.37452" lon="0.08535">
        <ele>4.8</ele>
        <time>2015-10-18T08:17:16Z</time>
      </trkpt>
      <trkpt lat="49.37452" lon="0.08535">
        <ele>4.7</ele>
        <time>2015-10-18T08:17:17Z</time>
      </trkpt>
      <trkpt lat="49.37452" lon="0.08535">
        <ele>4.7</ele>
        <time>2015-10-18T08:17:18Z</time>
      </trkpt>
      <trkpt lat="49.37452" lon="0.08535">
        <ele>4.4</ele>
        <time>2015-10-18T08:17:19Z</time>
      </trkpt>
      <trkpt lat="49.37452" lon="0.08534">
        <ele>4.3</ele>
        <time>2015-10-18T08:17:20Z</time>
      </trkpt>
      <trkpt lat="49.37453" lon="0.08534">
        <ele>4.1</ele>
        <time>2015-10-18T08:17:21Z</time>
      </trkpt>
      <trkpt lat="49.37453" lon="0.08534">
        <ele>3.6</ele>
        <time>2015-10-18T08:17:22Z</time>
      </trkpt>
      <trkpt lat="49.37453" lon="0.08533">
        <ele>3.2</ele>
        <time>2015-10-18T08:17:23Z</time>
      </trkpt>
      <trkpt lat="49.37453" lon="0.08533">
        <ele>2.9</ele>
        <time>2015-10-18T08:17:24Z</time>
      </trkpt>
      <trkpt lat="49.37453" lon="0.08532">
        <ele>2.9</ele>
        <time>2015-10-18T08:17:25Z</time>
      </trkpt>
      <trkpt lat="49.37454" lon="0.08532">
        <ele>2.9</ele>
        <time>2015-10-18T08:17:26Z</time>
      </trkpt>
      <trkpt lat="49.37454" lon="0.08532">
        <ele>2.9</ele>
        <time>2015-10-18T08:17:27Z</time>
      </trkpt>
      <trkpt lat="49.37454" lon="0.08531">
        <ele>3.1</ele>
        <time>2015-10-18T08:17:28Z</time>
      </trkpt>
      <trkpt lat="49.37454" lon="0.08531">
        <ele>3.3</ele>
        <time>2015-10-18T08:17:29Z</time>
      </trkpt>
      <trkpt lat="49.37453" lon="0.08532">
        <ele>3.4</ele>
        <time>2015-10-18T08:17:30Z</time>
      </trkpt>
      <trkpt lat="49.37453" lon="0.08532">
        <ele>3.3</ele>
        <time>2015-10-18T08:17:31Z</time>
      </trkpt>
      <trkpt lat="49.37453" lon="0.08532">
        <ele>3.2</ele>
        <time>2015-10-18T08:17:32Z</time>
      </trkpt>
      <trkpt lat="49.37453" lon="0.08533">
        <ele>3.1</ele>
        <time>2015-10-18T08:17:33Z</time>
      </trkpt>
      <trkpt lat="49.37453" lon="0.08534">
        <ele>3.3</ele>
        <time>2015-10-18T08:17:34Z</time>
      </trkpt>
      <trkpt lat="49.37453" lon="0.08535">
        <ele>3.4</ele>
        <time>2015-10-18T08:17:35Z</time>
      </trkpt>
      <trkpt lat="49.37453" lon="0.08535">
        <ele>3.5</ele>
        <time>2015-10-18T08:17:36Z</time>
      </trkpt>
      <trkpt lat="49.37453" lon="0.08536">
        <ele>3.3</ele>
        <time>2015-10-18T08:17:37Z</time>
      </trkpt>
      <trkpt lat="49.37453" lon="0.08537">
        <ele>3.2</ele>
        <time>2015-10-18T08:17:38Z</time>
      </trkpt>
      <trkpt lat="49.37453" lon="0.08537">
        <ele>3.1</ele>
        <time>2015-10-18T08:17:39Z</time>
      </trkpt>
      <trkpt lat="49.37453" lon="0.08538">
        <ele>2.9</ele>
        <time>2015-10-18T08:17:40Z</time>
      </trkpt>
      <trkpt lat="49.37452" lon="0.08538">
        <ele>2.7</ele>
        <time>2015-10-18T08:17:41Z</time>
      </trkpt>
      <trkpt lat="49.37452" lon="0.08539">
        <ele>2.5</ele>
        <time>2015-10-18T08:17:42Z</time>
      </trkpt>
      <trkpt lat="49.37452" lon="0.08539">
        <ele>2.2</ele>
        <time>2015-10-18T08:17:43Z</time>
      </trkpt>
      <trkpt lat="49.37452" lon="0.08539">
        <ele>2</ele>
        <time>2015-10-18T08:17:44Z</time>
      </trkpt>
      <trkpt lat="49.37452" lon="0.0854">
        <ele>1.8</ele>
        <time>2015-10-18T08:17:45Z</time>
      </trkpt>
      <trkpt lat="49.37451" lon="0.0854">
        <ele>1.2</ele>
        <time>2015-10-18T08:17:46Z</time>
      </trkpt>
      <trkpt lat="49.37451" lon="0.0854">
        <ele>0.8</ele>
        <time>2015-10-18T08:17:47Z</time>
      </trkpt>
      <trkpt lat="49.37451" lon="0.08541">
        <ele>0.5</ele>
        <time>2015-10-18T08:17:48Z</time>
      </trkpt>
      <trkpt lat="49.37451" lon="0.08541">
        <ele>0.7</ele>
        <time>2015-10-18T08:17:49Z</time>
      </trkpt>
      <trkpt lat="49.37451" lon="0.08542">
        <ele>0.8</ele>
        <time>2015-10-18T08:17:50Z</time>
      </trkpt>
      <trkpt lat="49.3745" lon="0.08542">
        <ele>0.9</ele>
        <time>2015-10-18T08:17:51Z</time>
      </trkpt>
      <trkpt lat="49.3745" lon="0.08542">
        <ele>1.4</ele>
        <time>2015-10-18T08:17:52Z</time>
      </trkpt>
      <trkpt lat="49.3745" lon="0.08542">
        <ele>1.8</ele>
        <time>2015-10-18T08:17:53Z</time>
      </trkpt>
      <trkpt lat="49.3745" lon="0.08543">
        <ele>2.1</ele>
        <time>2015-10-18T08:17:54Z</time>
      </trkpt>
      <trkpt lat="49.3745" lon="0.08543">
        <ele>2.5</ele>
        <time>2015-10-18T08:17:55Z</time>
      </trkpt>
      <trkpt lat="49.3745" lon="0.08543">
        <ele>2.8</ele>
        <time>2015-10-18T08:17:56Z</time>
      </trkpt>
      <trkpt lat="49.3745" lon="0.08543">
        <ele>3</ele>
        <time>2015-10-18T08:17:57Z</time>
      </trkpt>
      <trkpt lat="49.37449" lon="0.08542">
        <ele>2.8</ele>
        <time>2015-10-18T08:17:58Z</time>
      </trkpt>
      <trkpt lat="49.37449" lon="0.08542">
        <ele>2.6</ele>
        <time>2015-10-18T08:17:59Z</time>
      </trkpt>
      <trkpt lat="49.37449" lon="0.08542">
        <ele>2.5</ele>
        <time>2015-10-18T08:18:00Z</time>
      </trkpt>
      <trkpt lat="49.37448" lon="0.08542">
        <ele>2.6</ele>
        <time>2015-10-18T08:18:01Z</time>
      </trkpt>
      <trkpt lat="49.37448" lon="0.08541">
        <ele>2.7</ele>
        <time>2015-10-18T08:18:02Z</time>
      </trkpt>
      <trkpt lat="49.37448" lon="0.08541">
        <ele>2.7</ele>
        <time>2015-10-18T08:18:03Z</time>
      </trkpt>
      <trkpt lat="49.37447" lon="0.08541">
        <ele>2.6</ele>
        <time>2015-10-18T08:18:04Z</time>
      </trkpt>
      <trkpt lat="49.37447" lon="0.08541">
        <ele>2.4</ele>
        <time>2015-10-18T08:18:05Z</time>
      </trkpt>
      <trkpt lat="49.37447" lon="0.08541">
        <ele>2.3</ele>
        <time>2015-10-18T08:18:06Z</time>
      </trkpt>
      <trkpt lat="49.37447" lon="0.08541">
        <ele>2.5</ele>
        <time>2015-10-18T08:18:07Z</time>
      </trkpt>
      <trkpt lat="49.37447" lon="0.08541">
        <ele>2.6</ele>
        <time>2015-10-18T08:18:08Z</time>
      </trkpt>
      <trkpt lat="49.37446" lon="0.08541">
        <ele>2.7</ele>
        <time>2015-10-18T08:18:09Z</time>
      </trkpt>
      <trkpt lat="49.37446" lon="0.08541">
        <ele>2.5</ele>
        <time>2015-10-18T08:18:10Z</time>
      </trkpt>
      <trkpt lat="49.37446" lon="0.08541">
        <ele>2.4</ele>
        <time>2015-10-18T08:18:11Z</time>
      </trkpt>
      <trkpt lat="49.37446" lon="0.08541">
        <ele>2.3</ele>
        <time>2015-10-18T08:18:12Z</time>
      </trkpt>
      <trkpt lat="49.37445" lon="0.08541">
        <ele>2.5</ele>
        <time>2015-10-18T08:18:13Z</time>
      </trkpt>
      <trkpt lat="49.37445" lon="0.08541">
        <ele>2.6</ele>
        <time>2015-10-18T08:18:14Z</time>
      </trkpt>
      <trkpt lat="49.37445" lon="0.08541">
        <ele>2.7</ele>
        <time>2015-10-18T08:18:15Z</time>
      </trkpt>
      <trkpt lat="49.37445" lon="0.08541">
        <ele>2.9</ele>
        <time>2015-10-18T08:18:16Z</time>
      </trkpt>
      <trkpt lat="49.37445" lon="0.08541">
        <ele>3.1</ele>
        <time>2015-10-18T08:18:17Z</time>
      </trkpt>
      <trkpt lat="49.37445" lon="0.08541">
        <ele>3.3</ele>
        <time>2015-10-18T08:18:18Z</time>
      </trkpt>
      <trkpt lat="49.37445" lon="0.0854">
        <ele>4</ele>
        <time>2015-10-18T08:18:19Z</time>
      </trkpt>
      <trkpt lat="49.37445" lon="0.0854">
        <ele>4.6</ele>
        <time>2015-10-18T08:18:20Z</time>
      </trkpt>
      <trkpt lat="49.37445" lon="0.0854">
        <ele>5</ele>
        <time>2015-10-18T08:18:21Z</time>
      </trkpt>
      <trkpt lat="49.37445" lon="0.0854">
        <ele>4.5</ele>
        <time>2015-10-18T08:18:22Z</time>
      </trkpt>
      <trkpt lat="49.37444" lon="0.0854">
        <ele>4.1</ele>
        <time>2015-10-18T08:18:23Z</time>
      </trkpt>
      <trkpt lat="49.37444" lon="0.0854">
        <ele>3.8</ele>
        <time>2015-10-18T08:18:24Z</time>
      </trkpt>
      <trkpt lat="49.37444" lon="0.0854">
        <ele>3.8</ele>
        <time>2015-10-18T08:18:25Z</time>
      </trkpt>
      <trkpt lat="49.37444" lon="0.0854">
        <ele>3.8</ele>
        <time>2015-10-18T08:18:26Z</time>
      </trkpt>
      <trkpt lat="49.37444" lon="0.08539">
        <ele>3.7</ele>
        <time>2015-10-18T08:18:27Z</time>
      </trkpt>
      <trkpt lat="49.37444" lon="0.08539">
        <ele>3.3</ele>
        <time>2015-10-18T08:18:28Z</time>
      </trkpt>
      <trkpt lat="49.37444" lon="0.08539">
        <ele>3</ele>
        <time>2015-10-18T08:18:29Z</time>
      </trkpt>
      <trkpt lat="49.37444" lon="0.08539">
        <ele>2.8</ele>
        <time>2015-10-18T08:18:30Z</time>
      </trkpt>
      <trkpt lat="49.37444" lon="0.08539">
        <ele>2.8</ele>
        <time>2015-10-18T08:18:31Z</time>
      </trkpt>
      <trkpt lat="49.37444" lon="0.08539">
        <ele>2.8</ele>
        <time>2015-10-18T08:18:32Z</time>
      </trkpt>
      <trkpt lat="49.37444" lon="0.08539">
        <ele>2.8</ele>
        <time>2015-10-18T08:18:33Z</time>
      </trkpt>
      <trkpt lat="49.37444" lon="0.08539">
        <ele>3.1</ele>
        <time>2015-10-18T08:18:34Z</time>
      </trkpt>
      <trkpt lat="49.37444" lon="0.08539">
        <ele>3.2</ele>
        <time>2015-10-18T08:18:35Z</time>
      </trkpt>
      <trkpt lat="49.37444" lon="0.08539">
        <ele>3.4</ele>
        <time>2015-10-18T08:18:36Z</time>
      </trkpt>
      <trkpt lat="49.37444" lon="0.08539">
        <ele>3.4</ele>
        <time>2015-10-18T08:18:37Z</time>
      </trkpt>
      <trkpt lat="49.37444" lon="0.08539">
        <ele>3.5</ele>
        <time>2015-10-18T08:18:38Z</time>
      </trkpt>
      <trkpt lat="49.37444" lon="0.08539">
        <ele>3.6</ele>
        <time>2015-10-18T08:18:39Z</time>
      </trkpt>
      <trkpt lat="49.37444" lon="0.08539">
        <ele>3.2</ele>
        <time>2015-10-18T08:18:40Z</time>
      </trkpt>
      <trkpt lat="49.37444" lon="0.08538">
        <ele>2.9</ele>
        <time>2015-10-18T08:18:41Z</time>
      </trkpt>
      <trkpt lat="49.37445" lon="0.08538">
        <ele>2.7</ele>
        <time>2015-10-18T08:18:42Z</time>
      </trkpt>
      <trkpt lat="49.37445" lon="0.08538">
        <ele>2.7</ele>
        <time>2015-10-18T08:18:43Z</time>
      </trkpt>
      <trkpt lat="49.37445" lon="0.08538">
        <ele>2.8</ele>
        <time>2015-10-18T08:18:44Z</time>
      </trkpt>
      <trkpt lat="49.37445" lon="0.08537">
        <ele>2.8</ele>
        <time>2015-10-18T08:18:45Z</time>
      </trkpt>
      <trkpt lat="49.37445" lon="0.08537">
        <ele>2.6</ele>
        <time>2015-10-18T08:18:46Z</time>
      </trkpt>
      <trkpt lat="49.37446" lon="0.08537">
        <ele>2.5</ele>
        <time>2015-10-18T08:18:47Z</time>
      </trkpt>
      <trkpt lat="49.37446" lon="0.08537">
        <ele>2.4</ele>
        <time>2015-10-18T08:18:48Z</time>
      </trkpt>
      <trkpt lat="49.37447" lon="0.08538">
        <ele>2.4</ele>
        <time>2015-10-18T08:18:53Z</time>
      </trkpt>
      <trkpt lat="49.37447" lon="0.08538">
        <ele>2.3</ele>
        <time>2015-10-18T08:18:54Z</time>
      </trkpt>
      <trkpt lat="49.37447" lon="0.08538">
        <ele>1.2</ele>
        <time>2015-10-18T08:18:55Z</time>
      </trkpt>
      <trkpt lat="49.37447" lon="0.08538">
        <ele>0.4</ele>
        <time>2015-10-18T08:18:56Z</time>
      </trkpt>
      <trkpt lat="49.37447" lon="0.08538">
        <ele>-0.1</ele>
        <time>2015-10-18T08:18:57Z</time>
      </trkpt>
      <trkpt lat="49.37447" lon="0.08538">
        <ele>0.4</ele>
        <time>2015-10-18T08:18:58Z</time>
      </trkpt>
      <trkpt lat="49.37448" lon="0.08537">
        <ele>0.8</ele>
        <time>2015-10-18T08:18:59Z</time>
      </trkpt>
      <trkpt lat="49.37448" lon="0.08537">
        <ele>1.1</ele>
        <time>2015-10-18T08:19:00Z</time>
      </trkpt>
      <trkpt lat="49.37448" lon="0.08537">
        <ele>1.5</ele>
        <time>2015-10-18T08:19:01Z</time>
      </trkpt>
      <trkpt lat="49.37448" lon="0.08536">
        <ele>1.9</ele>
        <time>2015-10-18T08:19:02Z</time>
      </trkpt>
      <trkpt lat="49.37448" lon="0.08536">
        <ele>2.1</ele>
        <time>2015-10-18T08:19:03Z</time>
      </trkpt>
      <trkpt lat="49.37448" lon="0.08535">
        <ele>2.1</ele>
        <time>2015-10-18T08:19:04Z</time>
      </trkpt>
      <trkpt lat="49.37448" lon="0.08535">
        <ele>2.1</ele>
        <time>2015-10-18T08:19:05Z</time>
      </trkpt>
      <trkpt lat="49.37448" lon="0.08535">
        <ele>2.1</ele>
        <time>2015-10-18T08:19:06Z</time>
      </trkpt>
      <trkpt lat="49.37448" lon="0.08534">
        <ele>2.5</ele>
        <time>2015-10-18T08:19:07Z</time>
      </trkpt>
      <trkpt lat="49.37448" lon="0.08534">
        <ele>2.8</ele>
        <time>2015-10-18T08:19:08Z</time>
      </trkpt>
      <trkpt lat="49.37448" lon="0.08534">
        <ele>3</ele>
        <time>2015-10-18T08:19:09Z</time>
      </trkpt>
      <trkpt lat="49.37448" lon="0.08534">
        <ele>3.2</ele>
        <time>2015-10-18T08:19:10Z</time>
      </trkpt>
      <trkpt lat="49.37448" lon="0.08533">
        <ele>3.3</ele>
        <time>2015-10-18T08:19:11Z</time>
      </trkpt>
      <trkpt lat="49.37448" lon="0.08533">
        <ele>3.4</ele>
        <time>2015-10-18T08:19:12Z</time>
      </trkpt>
      <trkpt lat="49.37448" lon="0.08533">
        <ele>3.3</ele>
        <time>2015-10-18T08:19:13Z</time>
      </trkpt>
      <trkpt lat="49.37448" lon="0.08533">
        <ele>3.2</ele>
        <time>2015-10-18T08:19:14Z</time>
      </trkpt>
      <trkpt lat="49.37448" lon="0.08533">
        <ele>3.1</ele>
        <time>2015-10-18T08:19:15Z</time>
      </trkpt>
      <trkpt lat="49.37448" lon="0.08533">
        <ele>4.5</ele>
        <time>2015-10-18T08:19:16Z</time>
      </trkpt>
      <trkpt lat="49.37448" lon="0.08533">
        <ele>5.6</ele>
        <time>2015-10-18T08:19:17Z</time>
      </trkpt>
      <trkpt lat="49.37448" lon="0.08533">
        <ele>6.3</ele>
        <time>2015-10-18T08:19:18Z</time>
      </trkpt>
      <trkpt lat="49.37448" lon="0.08533">
        <ele>6.1</ele>
        <time>2015-10-18T08:19:19Z</time>
      </trkpt>
      <trkpt lat="49.37448" lon="0.08533">
        <ele>5.9</ele>
        <time>2015-10-18T08:19:20Z</time>
      </trkpt>
      <trkpt lat="49.37448" lon="0.08534">
        <ele>5.8</ele>
        <time>2015-10-18T08:19:21Z</time>
      </trkpt>
      <trkpt lat="49.37448" lon="0.08534">
        <ele>5.7</ele>
        <time>2015-10-18T08:19:22Z</time>
      </trkpt>
      <trkpt lat="49.3745" lon="0.08534">
        <ele>3.2</ele>
        <time>2015-10-18T08:19:36Z</time>
      </trkpt>
      <trkpt lat="49.3745" lon="0.08534">
        <ele>3.3</ele>
        <time>2015-10-18T08:19:37Z</time>
      </trkpt>
      <trkpt lat="49.37451" lon="0.08538">
        <ele>4.7</ele>
        <time>2015-10-18T08:20:47Z</time>
      </trkpt>
      <trkpt lat="49.37451" lon="0.08538">
        <ele>4.7</ele>
        <time>2015-10-18T08:20:48Z</time>
      </trkpt>
      <trkpt lat="49.37451" lon="0.08539">
        <ele>4.6</ele>
        <time>2015-10-18T08:20:49Z</time>
      </trkpt>
      <trkpt lat="49.37451" lon="0.08539">
        <ele>4.6</ele>
        <time>2015-10-18T08:20:50Z</time>
      </trkpt>
      <trkpt lat="49.37451" lon="0.08539">
        <ele>4.6</ele>
        <time>2015-10-18T08:20:51Z</time>
      </trkpt>
      <trkpt lat="49.37451" lon="0.08539">
        <ele>4.6</ele>
        <time>2015-10-18T08:20:52Z</time>
      </trkpt>
      <trkpt lat="49.3745" lon="0.0854">
        <ele>4.6</ele>
        <time>2015-10-18T08:20:53Z</time>
      </trkpt>
      <trkpt lat="49.3745" lon="0.0854">
        <ele>4.6</ele>
        <time>2015-10-18T08:20:54Z</time>
      </trkpt>
      <trkpt lat="49.3745" lon="0.0854">
        <ele>4.6</ele>
        <time>2015-10-18T08:20:55Z</time>
      </trkpt>
      <trkpt lat="49.3745" lon="0.0854">
        <ele>4.6</ele>
        <time>2015-10-18T08:20:56Z</time>
      </trkpt>
      <trkpt lat="49.3745" lon="0.0854">
        <ele>4.6</ele>
        <time>2015-10-18T08:20:57Z</time>
      </trkpt>
      <trkpt lat="49.3745" lon="0.0854">
        <ele>3.9</ele>
        <time>2015-10-18T08:20:58Z</time>
      </trkpt>
      <trkpt lat="49.3745" lon="0.0854">
        <ele>3.5</ele>
        <time>2015-10-18T08:20:59Z</time>
      </trkpt>
      <trkpt lat="49.3745" lon="0.0854">
        <ele>3.1</ele>
        <time>2015-10-18T08:21:00Z</time>
      </trkpt>
      <trkpt lat="49.3745" lon="0.08541">
        <ele>3.1</ele>
        <time>2015-10-18T08:21:01Z</time>
      </trkpt>
      <trkpt lat="49.3745" lon="0.08541">
        <ele>3</ele>
        <time>2015-10-18T08:21:02Z</time>
      </trkpt>
      <trkpt lat="49.3745" lon="0.08541">
        <ele>3</ele>
        <time>2015-10-18T08:21:03Z</time>
      </trkpt>
      <trkpt lat="49.3745" lon="0.08541">
        <ele>2.8</ele>
        <time>2015-10-18T08:21:04Z</time>
      </trkpt>
      <trkpt lat="49.3745" lon="0.08542">
        <ele>2.6</ele>
        <time>2015-10-18T08:21:05Z</time>
      </trkpt>
      <trkpt lat="49.3745" lon="0.08542">
        <ele>2.5</ele>
        <time>2015-10-18T08:21:06Z</time>
      </trkpt>
      <trkpt lat="49.37449" lon="0.08542">
        <ele>2.6</ele>
        <time>2015-10-18T08:21:07Z</time>
      </trkpt>
      <trkpt lat="49.37449" lon="0.08542">
        <ele>2.6</ele>
        <time>2015-10-18T08:21:08Z</time>
      </trkpt>
      <trkpt lat="49.37449" lon="0.08542">
        <ele>2.7</ele>
        <time>2015-10-18T08:21:09Z</time>
      </trkpt>
      <trkpt lat="49.37449" lon="0.08542">
        <ele>3.2</ele>
        <time>2015-10-18T08:21:10Z</time>
      </trkpt>
      <trkpt lat="49.37449" lon="0.08542">
        <ele>3.5</ele>
        <time>2015-10-18T08:21:11Z</time>
      </trkpt>
      <trkpt lat="49.37449" lon="0.08542">
        <ele>3.8</ele>
        <time>2015-10-18T08:21:12Z</time>
      </trkpt>
      <trkpt lat="49.37449" lon="0.08542">
        <ele>3.6</ele>
        <time>2015-10-18T08:21:13Z</time>
      </trkpt>
      <trkpt lat="49.37449" lon="0.08542">
        <ele>3.4</ele>
        <time>2015-10-18T08:21:14Z</time>
      </trkpt>
      <trkpt lat="49.37449" lon="0.08542">
        <ele>3.3</ele>
        <time>2015-10-18T08:21:15Z</time>
      </trkpt>
      <trkpt lat="49.37449" lon="0.08542">
        <ele>3.4</ele>
        <time>2015-10-18T08:21:16Z</time>
      </trkpt>
      <trkpt lat="49.37449" lon="0.08541">
        <ele>3.5</ele>
        <time>2015-10-18T08:21:17Z</time>
      </trkpt>
      <trkpt lat="49.37449" lon="0.08541">
        <ele>3.5</ele>
        <time>2015-10-18T08:21:18Z</time>
      </trkpt>
      <trkpt lat="49.37449" lon="0.08541">
        <ele>3.4</ele>
        <time>2015-10-18T08:21:19Z</time>
      </trkpt>
      <trkpt lat="49.37449" lon="0.08541">
        <ele>3.3</ele>
        <time>2015-10-18T08:21:20Z</time>
      </trkpt>
      <trkpt lat="49.37449" lon="0.08541">
        <ele>3.2</ele>
        <time>2015-10-18T08:21:21Z</time>
      </trkpt>
      <trkpt lat="49.37449" lon="0.08541">
        <ele>3.1</ele>
        <time>2015-10-18T08:21:22Z</time>
      </trkpt>
      <trkpt lat="49.37449" lon="0.08541">
        <ele>3</ele>
        <time>2015-10-18T08:21:23Z</time>
      </trkpt>
      <trkpt lat="49.37449" lon="0.0854">
        <ele>3</ele>
        <time>2015-10-18T08:21:24Z</time>
      </trkpt>
      <trkpt lat="49.37449" lon="0.0854">
        <ele>3</ele>
        <time>2015-10-18T08:21:25Z</time>
      </trkpt>
      <trkpt lat="49.37449" lon="0.0854">
        <ele>3</ele>
        <time>2015-10-18T08:21:26Z</time>
      </trkpt>
      <trkpt lat="49.37449" lon="0.0854">
        <ele>2.9</ele>
        <time>2015-10-18T08:21:27Z</time>
      </trkpt>
      <trkpt lat="49.37449" lon="0.08539">
        <ele>2.9</ele>
        <time>2015-10-18T08:21:28Z</time>
      </trkpt>
      <trkpt lat="49.3745" lon="0.08539">
        <ele>2.9</ele>
        <time>2015-10-18T08:21:29Z</time>
      </trkpt>
      <trkpt lat="49.3745" lon="0.08539">
        <ele>2.9</ele>
        <time>2015-10-18T08:21:30Z</time>
      </trkpt>
      <trkpt lat="49.3745" lon="0.08539">
        <ele>2.7</ele>
        <time>2015-10-18T08:21:31Z</time>
      </trkpt>
      <trkpt lat="49.3745" lon="0.08539">
        <ele>2.5</ele>
        <time>2015-10-18T08:21:32Z</time>
      </trkpt>
      <trkpt lat="49.3745" lon="0.08538">
        <ele>2.4</ele>
        <time>2015-10-18T08:21:33Z</time>
      </trkpt>
      <trkpt lat="49.3745" lon="0.08538">
        <ele>2.3</ele>
        <time>2015-10-18T08:21:34Z</time>
      </trkpt>
      <trkpt lat="49.3745" lon="0.08538">
        <ele>2.3</ele>
        <time>2015-10-18T08:21:35Z</time>
      </trkpt>
      <trkpt lat="49.3745" lon="0.08538">
        <ele>2.2</ele>
        <time>2015-10-18T08:21:36Z</time>
      </trkpt>
      <trkpt lat="49.37449" lon="0.08538">
        <ele>2.6</ele>
        <time>2015-10-18T08:21:37Z</time>
      </trkpt>
      <trkpt lat="49.37449" lon="0.08538">
        <ele>2.9</ele>
        <time>2015-10-18T08:21:38Z</time>
      </trkpt>
      <trkpt lat="49.37449" lon="0.08537">
        <ele>3.1</ele>
        <time>2015-10-18T08:21:39Z</time>
      </trkpt>
      <trkpt lat="49.37449" lon="0.08537">
        <ele>3</ele>
        <time>2015-10-18T08:21:40Z</time>
      </trkpt>
      <trkpt lat="49.37449" lon="0.08537">
        <ele>3</ele>
        <time>2015-10-18T08:21:41Z</time>
      </trkpt>
      <trkpt lat="49.37449" lon="0.08536">
        <ele>3</ele>
        <time>2015-10-18T08:21:42Z</time>
      </trkpt>
      <trkpt lat="49.37448" lon="0.08536">
        <ele>3</ele>
        <time>2015-10-18T08:21:43Z</time>
      </trkpt>
      <trkpt lat="49.37448" lon="0.08536">
        <ele>2.9</ele>
        <time>2015-10-18T08:21:44Z</time>
      </trkpt>
      <trkpt lat="49.37448" lon="0.08535">
        <ele>2.9</ele>
        <time>2015-10-18T08:21:45Z</time>
      </trkpt>
      <trkpt lat="49.37448" lon="0.08535">
        <ele>2.7</ele>
        <time>2015-10-18T08:21:46Z</time>
      </trkpt>
      <trkpt lat="49.37448" lon="0.08535">
        <ele>2.6</ele>
        <time>2015-10-18T08:21:47Z</time>
      </trkpt>
      <trkpt lat="49.37448" lon="0.08535">
        <ele>2.4</ele>
        <time>2015-10-18T08:21:48Z</time>
      </trkpt>
      <trkpt lat="49.37447" lon="0.08535">
        <ele>1.5</ele>
        <time>2015-10-18T08:21:49Z</time>
      </trkpt>
      <trkpt lat="49.37447" lon="0.08535">
        <ele>0.8</ele>
        <time>2015-10-18T08:21:50Z</time>
      </trkpt>
      <trkpt lat="49.37447" lon="0.08535">
        <ele>0.3</ele>
        <time>2015-10-18T08:21:51Z</time>
      </trkpt>
      <trkpt lat="49.37447" lon="0.08535">
        <ele>0.3</ele>
        <time>2015-10-18T08:21:52Z</time>
      </trkpt>
      <trkpt lat="49.37447" lon="0.08535">
        <ele>0.3</ele>
        <time>2015-10-18T08:21:53Z</time>
      </trkpt>
      <trkpt lat="49.37447" lon="0.08535">
        <ele>0.4</ele>
        <time>2015-10-18T08:21:54Z</time>
      </trkpt>
      <trkpt lat="49.37447" lon="0.08535">
        <ele>1.2</ele>
        <time>2015-10-18T08:21:55Z</time>
      </trkpt>
      <trkpt lat="49.37447" lon="0.08535">
        <ele>1.8</ele>
        <time>2015-10-18T08:21:56Z</time>
      </trkpt>
      <trkpt lat="49.37447" lon="0.08535">
        <ele>2.3</ele>
        <time>2015-10-18T08:21:57Z</time>
      </trkpt>
      <trkpt lat="49.37447" lon="0.08535">
        <ele>2.2</ele>
        <time>2015-10-18T08:21:58Z</time>
      </trkpt>
      <trkpt lat="49.37447" lon="0.08536">
        <ele>2.2</ele>
        <time>2015-10-18T08:21:59Z</time>
      </trkpt>
      <trkpt lat="49.37447" lon="0.08536">
        <ele>2.2</ele>
        <time>2015-10-18T08:22:00Z</time>
      </trkpt>
      <trkpt lat="49.37447" lon="0.08536">
        <ele>2.8</ele>
        <time>2015-10-18T08:22:01Z</time>
      </trkpt>
      <trkpt lat="49.37448" lon="0.08537">
        <ele>3.2</ele>
        <time>2015-10-18T08:22:02Z</time>
      </trkpt>
      <trkpt lat="49.37448" lon="0.08537">
        <ele>3.5</ele>
        <time>2015-10-18T08:22:03Z</time>
      </trkpt>
      <trkpt lat="49.37448" lon="0.08537">
        <ele>3.4</ele>
        <time>2015-10-18T08:22:04Z</time>
      </trkpt>
      <trkpt lat="49.37448" lon="0.08538">
        <ele>3.3</ele>
        <time>2015-10-18T08:22:05Z</time>
      </trkpt>
      <trkpt lat="49.37448" lon="0.08538">
        <ele>3.2</ele>
        <time>2015-10-18T08:22:06Z</time>
      </trkpt>
      <trkpt lat="49.37448" lon="0.08538">
        <ele>3.3</ele>
        <time>2015-10-18T08:22:07Z</time>
      </trkpt>
      <trkpt lat="49.37448" lon="0.08538">
        <ele>3.4</ele>
        <time>2015-10-18T08:22:08Z</time>
      </trkpt>
      <trkpt lat="49.37448" lon="0.08538">
        <ele>3.5</ele>
        <time>2015-10-18T08:22:09Z</time>
      </trkpt>
      <trkpt lat="49.37448" lon="0.08539">
        <ele>3.5</ele>
        <time>2015-10-18T08:22:10Z</time>
      </trkpt>
      <trkpt lat="49.37448" lon="0.08539">
        <ele>3.6</ele>
        <time>2015-10-18T08:22:11Z</time>
      </trkpt>
      <trkpt lat="49.37448" lon="0.08539">
        <ele>3.6</ele>
        <time>2015-10-18T08:22:12Z</time>
      </trkpt>
      <trkpt lat="49.37448" lon="0.08539">
        <ele>3.6</ele>
        <time>2015-10-18T08:22:13Z</time>
      </trkpt>
      <trkpt lat="49.37448" lon="0.08539">
        <ele>3.7</ele>
        <time>2015-10-18T08:22:14Z</time>
      </trkpt>
      <trkpt lat="49.37448" lon="0.08539">
        <ele>3.7</ele>
        <time>2015-10-18T08:22:15Z</time>
      </trkpt>
      <trkpt lat="49.37448" lon="0.08539">
        <ele>4.1</ele>
        <time>2015-10-18T08:22:16Z</time>
      </trkpt>
      <trkpt lat="49.37448" lon="0.08539">
        <ele>4.4</ele>
        <time>2015-10-18T08:22:17Z</time>
      </trkpt>
      <trkpt lat="49.37448" lon="0.0854">
        <ele>4.7</ele>
        <time>2015-10-18T08:22:18Z</time>
      </trkpt>
      <trkpt lat="49.37448" lon="0.0854">
        <ele>4.2</ele>
        <time>2015-10-18T08:22:19Z</time>
      </trkpt>
      <trkpt lat="49.37448" lon="0.0854">
        <ele>3.9</ele>
        <time>2015-10-18T08:22:20Z</time>
      </trkpt>
      <trkpt lat="49.37448" lon="0.0854">
        <ele>3.6</ele>
        <time>2015-10-18T08:22:21Z</time>
      </trkpt>
      <trkpt lat="49.37448" lon="0.0854">
        <ele>3.2</ele>
        <time>2015-10-18T08:22:22Z</time>
      </trkpt>
      <trkpt lat="49.37448" lon="0.0854">
        <ele>3</ele>
        <time>2015-10-18T08:22:23Z</time>
      </trkpt>
      <trkpt lat="49.37448" lon="0.0854">
        <ele>2.7</ele>
        <time>2015-10-18T08:22:24Z</time>
      </trkpt>
      <trkpt lat="49.37448" lon="0.0854">
        <ele>2.4</ele>
        <time>2015-10-18T08:22:25Z</time>
      </trkpt>
      <trkpt lat="49.37448" lon="0.0854">
        <ele>2.1</ele>
        <time>2015-10-18T08:22:26Z</time>
      </trkpt>
      <trkpt lat="49.37448" lon="0.0854">
        <ele>1.9</ele>
        <time>2015-10-18T08:22:27Z</time>
      </trkpt>
      <trkpt lat="49.37448" lon="0.0854">
        <ele>1.9</ele>
        <time>2015-10-18T08:22:28Z</time>
      </trkpt>
      <trkpt lat="49.37448" lon="0.0854">
        <ele>2</ele>
        <time>2015-10-18T08:22:29Z</time>
      </trkpt>
      <trkpt lat="49.37448" lon="0.0854">
        <ele>2</ele>
        <time>2015-10-18T08:22:30Z</time>
      </trkpt>
      <trkpt lat="49.37448" lon="0.0854">
        <ele>2.2</ele>
        <time>2015-10-18T08:22:31Z</time>
      </trkpt>
      <trkpt lat="49.37446" lon="0.08538">
        <ele>3.9</ele>
        <time>2015-10-18T08:22:50Z</time>
      </trkpt>
      <trkpt lat="49.37446" lon="0.08538">
        <ele>4.1</ele>
        <time>2015-10-18T08:22:51Z</time>
      </trkpt>
      <trkpt lat="49.37446" lon="0.08538">
        <ele>4.8</ele>
        <time>2015-10-18T08:22:52Z</time>
      </trkpt>
      <trkpt lat="49.37446" lon="0.08538">
        <ele>5.4</ele>
        <time>2015-10-18T08:22:53Z</time>
      </trkpt>
      <trkpt lat="49.37446" lon="0.08538">
        <ele>5.8</ele>
        <time>2015-10-18T08:22:54Z</time>
      </trkpt>
      <trkpt lat="49.37446" lon="0.08538">
        <ele>5.5</ele>
        <time>2015-10-18T08:22:55Z</time>
      </trkpt>
      <trkpt lat="49.37446" lon="0.08538">
        <ele>5.2</ele>
        <time>2015-10-18T08:22:56Z</time>
      </trkpt>
      <trkpt lat="49.37446" lon="0.08538">
        <ele>5.1</ele>
        <time>2015-10-18T08:22:57Z</time>
      </trkpt>
      <trkpt lat="49.37446" lon="0.08538">
        <ele>4.7</ele>
        <time>2015-10-18T08:22:58Z</time>
      </trkpt>
      <trkpt lat="49.37446" lon="0.08538">
        <ele>4.5</ele>
        <time>2015-10-18T08:22:59Z</time>
      </trkpt>
      <trkpt lat="49.37446" lon="0.08538">
        <ele>4.3</ele>
        <time>2015-10-18T08:23:00Z</time>
      </trkpt>
      <trkpt lat="49.37446" lon="0.08538">
        <ele>4.2</ele>
        <time>2015-10-18T08:23:01Z</time>
      </trkpt>
      <trkpt lat="49.37446" lon="0.08538">
        <ele>4</ele>
        <time>2015-10-18T08:23:02Z</time>
      </trkpt>
      <trkpt lat="49.37446" lon="0.08538">
        <ele>4</ele>
        <time>2015-10-18T08:23:03Z</time>
      </trkpt>
      <trkpt lat="49.37446" lon="0.08538">
        <ele>3.7</ele>
        <time>2015-10-18T08:23:04Z</time>
      </trkpt>
      <trkpt lat="49.37446" lon="0.08538">
        <ele>3.5</ele>
        <time>2015-10-18T08:23:05Z</time>
      </trkpt>
      <trkpt lat="49.37447" lon="0.08539">
        <ele>3.3</ele>
        <time>2015-10-18T08:23:06Z</time>
      </trkpt>
      <trkpt lat="49.37447" lon="0.08539">
        <ele>3.2</ele>
        <time>2015-10-18T08:23:07Z</time>
      </trkpt>
      <trkpt lat="49.37447" lon="0.08539">
        <ele>3.1</ele>
        <time>2015-10-18T08:23:08Z</time>
      </trkpt>
      <trkpt lat="49.37447" lon="0.08539">
        <ele>3.1</ele>
        <time>2015-10-18T08:23:09Z</time>
      </trkpt>
      <trkpt lat="49.37447" lon="0.08539">
        <ele>3.2</ele>
        <time>2015-10-18T08:23:10Z</time>
      </trkpt>
      <trkpt lat="49.37447" lon="0.08539">
        <ele>3.4</ele>
        <time>2015-10-18T08:23:11Z</time>
      </trkpt>
      <trkpt lat="49.37447" lon="0.08539">
        <ele>3.5</ele>
        <time>2015-10-18T08:23:12Z</time>
      </trkpt>
      <trkpt lat="49.37447" lon="0.0854">
        <ele>3.3</ele>
        <time>2015-10-18T08:23:13Z</time>
      </trkpt>
      <trkpt lat="49.37447" lon="0.0854">
        <ele>3.2</ele>
        <time>2015-10-18T08:23:14Z</time>
      </trkpt>
      <trkpt lat="49.37447" lon="0.0854">
        <ele>3.1</ele>
        <time>2015-10-18T08:23:15Z</time>
      </trkpt>
      <trkpt lat="49.37447" lon="0.0854">
        <ele>3.3</ele>
        <time>2015-10-18T08:23:16Z</time>
      </trkpt>
      <trkpt lat="49.37447" lon="0.0854">
        <ele>3.4</ele>
        <time>2015-10-18T08:23:17Z</time>
      </trkpt>
      <trkpt lat="49.37447" lon="0.08541">
        <ele>3.5</ele>
        <time>2015-10-18T08:23:18Z</time>
      </trkpt>
      <trkpt lat="49.37447" lon="0.08541">
        <ele>3.1</ele>
        <time>2015-10-18T08:23:19Z</time>
      </trkpt>
      <trkpt lat="49.37447" lon="0.08541">
        <ele>2.9</ele>
        <time>2015-10-18T08:23:20Z</time>
      </trkpt>
      <trkpt lat="49.37447" lon="0.08541">
        <ele>2.7</ele>
        <time>2015-10-18T08:23:21Z</time>
      </trkpt>
      <trkpt lat="49.37447" lon="0.08541">
        <ele>2.7</ele>
        <time>2015-10-18T08:23:22Z</time>
      </trkpt>
      <trkpt lat="49.37447" lon="0.08541">
        <ele>2.8</ele>
        <time>2015-10-18T08:23:23Z</time>
      </trkpt>
      <trkpt lat="49.37447" lon="0.08541">
        <ele>2.8</ele>
        <time>2015-10-18T08:23:24Z</time>
      </trkpt>
      <trkpt lat="49.37447" lon="0.08541">
        <ele>2.6</ele>
        <time>2015-10-18T08:23:25Z</time>
      </trkpt>
      <trkpt lat="49.37447" lon="0.08541">
        <ele>2.4</ele>
        <time>2015-10-18T08:23:27Z</time>
      </trkpt>
      <trkpt lat="49.37447" lon="0.08541">
        <ele>2.3</ele>
        <time>2015-10-18T08:23:28Z</time>
      </trkpt>
      <trkpt lat="49.37447" lon="0.08541">
        <ele>2.2</ele>
        <time>2015-10-18T08:23:29Z</time>
      </trkpt>
      <trkpt lat="49.37447" lon="0.08541">
        <ele>2.2</ele>
        <time>2015-10-18T08:23:30Z</time>
      </trkpt>
      <trkpt lat="49.37447" lon="0.0854">
        <ele>2.8</ele>
        <time>2015-10-18T08:23:31Z</time>
      </trkpt>
      <trkpt lat="49.37447" lon="0.0854">
        <ele>3.2</ele>
        <time>2015-10-18T08:23:32Z</time>
      </trkpt>
      <trkpt lat="49.37447" lon="0.0854">
        <ele>3.6</ele>
        <time>2015-10-18T08:23:33Z</time>
      </trkpt>
      <trkpt lat="49.37448" lon="0.0854">
        <ele>3.2</ele>
        <time>2015-10-18T08:23:34Z</time>
      </trkpt>
      <trkpt lat="49.37448" lon="0.0854">
        <ele>2.9</ele>
        <time>2015-10-18T08:23:35Z</time>
      </trkpt>
      <trkpt lat="49.37448" lon="0.08539">
        <ele>2.7</ele>
        <time>2015-10-18T08:23:36Z</time>
      </trkpt>
      <trkpt lat="49.37448" lon="0.08539">
        <ele>2.1</ele>
        <time>2015-10-18T08:23:37Z</time>
      </trkpt>
      <trkpt lat="49.37448" lon="0.08539">
        <ele>1.7</ele>
        <time>2015-10-18T08:23:38Z</time>
      </trkpt>
      <trkpt lat="49.37448" lon="0.08539">
        <ele>1.4</ele>
        <time>2015-10-18T08:23:39Z</time>
      </trkpt>
      <trkpt lat="49.37448" lon="0.08544">
        <ele>2.8</ele>
        <time>2015-10-18T08:24:06Z</time>
      </trkpt>
      <trkpt lat="49.37448" lon="0.08543">
        <ele>3</ele>
        <time>2015-10-18T08:24:07Z</time>
      </trkpt>
      <trkpt lat="49.37448" lon="0.08543">
        <ele>3.2</ele>
        <time>2015-10-18T08:24:08Z</time>
      </trkpt>
      <trkpt lat="49.37448" lon="0.08543">
        <ele>3.3</ele>
        <time>2015-10-18T08:24:09Z</time>
      </trkpt>
      <trkpt lat="49.37448" lon="0.08542">
        <ele>3.6</ele>
        <time>2015-10-18T08:24:10Z</time>
      </trkpt>
      <trkpt lat="49.37448" lon="0.08542">
        <ele>3.9</ele>
        <time>2015-10-18T08:24:11Z</time>
      </trkpt>
      <trkpt lat="49.37448" lon="0.08541">
        <ele>4</ele>
        <time>2015-10-18T08:24:12Z</time>
      </trkpt>
      <trkpt lat="49.37448" lon="0.08541">
        <ele>4</ele>
        <time>2015-10-18T08:24:13Z</time>
      </trkpt>
      <trkpt lat="49.37448" lon="0.08541">
        <ele>3.9</ele>
        <time>2015-10-18T08:24:14Z</time>
      </trkpt>
      <trkpt lat="49.37448" lon="0.0854">
        <ele>3.9</ele>
        <time>2015-10-18T08:24:15Z</time>
      </trkpt>
      <trkpt lat="49.37448" lon="0.0854">
        <ele>3.6</ele>
        <time>2015-10-18T08:24:16Z</time>
      </trkpt>
      <trkpt lat="49.37448" lon="0.0854">
        <ele>3.4</ele>
        <time>2015-10-18T08:24:17Z</time>
      </trkpt>
      <trkpt lat="49.37448" lon="0.0854">
        <ele>3.3</ele>
        <time>2015-10-18T08:24:18Z</time>
      </trkpt>
      <trkpt lat="49.37448" lon="0.0854">
        <ele>3.2</ele>
        <time>2015-10-18T08:24:19Z</time>
      </trkpt>
      <trkpt lat="49.37448" lon="0.08539">
        <ele>3.1</ele>
        <time>2015-10-18T08:24:20Z</time>
      </trkpt>
      <trkpt lat="49.37448" lon="0.08539">
        <ele>3.1</ele>
        <time>2015-10-18T08:24:21Z</time>
      </trkpt>
      <trkpt lat="49.37448" lon="0.08539">
        <ele>3</ele>
        <time>2015-10-18T08:24:22Z</time>
      </trkpt>
      <trkpt lat="49.37448" lon="0.08539">
        <ele>3</ele>
        <time>2015-10-18T08:24:23Z</time>
      </trkpt>
      <trkpt lat="49.37448" lon="0.08539">
        <ele>3</ele>
        <time>2015-10-18T08:24:24Z</time>
      </trkpt>
      <trkpt lat="49.37448" lon="0.08539">
        <ele>2.9</ele>
        <time>2015-10-18T08:24:25Z</time>
      </trkpt>
      <trkpt lat="49.37448" lon="0.08539">
        <ele>2.9</ele>
        <time>2015-10-18T08:24:26Z</time>
      </trkpt>
      <trkpt lat="49.37448" lon="0.08539">
        <ele>2.9</ele>
        <time>2015-10-18T08:24:27Z</time>
      </trkpt>
      <trkpt lat="49.37449" lon="0.08538">
        <ele>3.1</ele>
        <time>2015-10-18T08:24:28Z</time>
      </trkpt>
      <trkpt lat="49.37449" lon="0.08538">
        <ele>3.3</ele>
        <time>2015-10-18T08:24:29Z</time>
      </trkpt>
      <trkpt lat="49.37449" lon="0.08538">
        <ele>3.4</ele>
        <time>2015-10-18T08:24:30Z</time>
      </trkpt>
      <trkpt lat="49.37449" lon="0.08538">
        <ele>3.5</ele>
        <time>2015-10-18T08:24:31Z</time>
      </trkpt>
      <trkpt lat="49.37449" lon="0.08538">
        <ele>3.5</ele>
        <time>2015-10-18T08:24:32Z</time>
      </trkpt>
      <trkpt lat="49.37449" lon="0.08538">
        <ele>3.6</ele>
        <time>2015-10-18T08:24:33Z</time>
      </trkpt>
      <trkpt lat="49.37449" lon="0.08538">
        <ele>3.4</ele>
        <time>2015-10-18T08:24:34Z</time>
      </trkpt>
      <trkpt lat="49.37449" lon="0.08538">
        <ele>3.3</ele>
        <time>2015-10-18T08:24:35Z</time>
      </trkpt>
      <trkpt lat="49.37449" lon="0.08537">
        <ele>3.2</ele>
        <time>2015-10-18T08:24:36Z</time>
      </trkpt>
      <trkpt lat="49.37449" lon="0.08537">
        <ele>3.3</ele>
        <time>2015-10-18T08:24:37Z</time>
      </trkpt>
      <trkpt lat="49.37449" lon="0.08537">
        <ele>3.4</ele>
        <time>2015-10-18T08:24:38Z</time>
      </trkpt>
      <trkpt lat="49.37449" lon="0.08537">
        <ele>3.5</ele>
        <time>2015-10-18T08:24:39Z</time>
      </trkpt>
      <trkpt lat="49.37449" lon="0.08537">
        <ele>3.3</ele>
        <time>2015-10-18T08:24:40Z</time>
      </trkpt>
      <trkpt lat="49.37449" lon="0.08537">
        <ele>3.2</ele>
        <time>2015-10-18T08:24:41Z</time>
      </trkpt>
      <trkpt lat="49.37449" lon="0.08536">
        <ele>3.1</ele>
        <time>2015-10-18T08:24:42Z</time>
      </trkpt>
      <trkpt lat="49.37449" lon="0.08536">
        <ele>3.5</ele>
        <time>2015-10-18T08:24:43Z</time>
      </trkpt>
      <trkpt lat="49.3745" lon="0.08536">
        <ele>3.8</ele>
        <time>2015-10-18T08:24:44Z</time>
      </trkpt>
      <trkpt lat="49.3745" lon="0.08536">
        <ele>4</ele>
        <time>2015-10-18T08:24:45Z</time>
      </trkpt>
      <trkpt lat="49.3745" lon="0.08535">
        <ele>3.9</ele>
        <time>2015-10-18T08:24:46Z</time>
      </trkpt>
      <trkpt lat="49.3745" lon="0.08535">
        <ele>3.9</ele>
        <time>2015-10-18T08:24:47Z</time>
      </trkpt>
      <trkpt lat="49.37451" lon="0.08535">
        <ele>3.8</ele>
        <time>2015-10-18T08:24:48Z</time>
      </trkpt>
      <trkpt lat="49.37451" lon="0.08535">
        <ele>3.8</ele>
        <time>2015-10-18T08:24:49Z</time>
      </trkpt>
      <trkpt lat="49.37451" lon="0.08535">
        <ele>3.8</ele>
        <time>2015-10-18T08:24:50Z</time>
      </trkpt>
      <trkpt lat="49.37451" lon="0.08535">
        <ele>3.8</ele>
        <time>2015-10-18T08:24:51Z</time>
      </trkpt>
      <trkpt lat="49.37451" lon="0.08536">
        <ele>3.5</ele>
        <time>2015-10-18T08:24:52Z</time>
      </trkpt>
      <trkpt lat="49.37451" lon="0.08536">
        <ele>3.4</ele>
        <time>2015-10-18T08:24:53Z</time>
      </trkpt>
      <trkpt lat="49.37451" lon="0.08537">
        <ele>3.3</ele>
        <time>2015-10-18T08:24:54Z</time>
      </trkpt>
      <trkpt lat="49.3745" lon="0.08538">
        <ele>3.6</ele>
        <time>2015-10-18T08:24:55Z</time>
      </trkpt>
      <trkpt lat="49.37445" lon="0.08549">
        <ele>-7.4</ele>
        <time>2015-10-18T08:25:02Z</time>
      </trkpt>
      <trkpt lat="49.37443" lon="0.08552">
        <ele>-10.2</ele>
        <time>2015-10-18T08:25:04Z</time>
      </trkpt>
      <trkpt lat="49.37441" lon="0.08555">
        <ele>-8</ele>
        <time>2015-10-18T08:25:08Z</time>
      </trkpt>
      <trkpt lat="49.37441" lon="0.08555">
        <ele>-7.7</ele>
        <time>2015-10-18T08:25:09Z</time>
      </trkpt>
      <trkpt lat="49.37441" lon="0.08556">
        <ele>-7.1</ele>
        <time>2015-10-18T08:25:10Z</time>
      </trkpt>
      <trkpt lat="49.37441" lon="0.08556">
        <ele>-6.7</ele>
        <time>2015-10-18T08:25:11Z</time>
      </trkpt>
      <trkpt lat="49.3744" lon="0.08556">
        <ele>-6.3</ele>
        <time>2015-10-18T08:25:12Z</time>
      </trkpt>
      <trkpt lat="49.3744" lon="0.08557">
        <ele>-3.4</ele>
        <time>2015-10-18T08:25:13Z</time>
      </trkpt>
      <trkpt lat="49.37439" lon="0.08558">
        <ele>-1.2</ele>
        <time>2015-10-18T08:25:14Z</time>
      </trkpt>
      <trkpt lat="49.37426" lon="0.08574">
        <ele>3</ele>
        <time>2015-10-18T08:25:26Z</time>
      </trkpt>
      <trkpt lat="49.37425" lon="0.08575">
        <ele>3</ele>
        <time>2015-10-18T08:25:27Z</time>
      </trkpt>
      <trkpt lat="49.37421" lon="0.08576">
        <ele>2</ele>
        <time>2015-10-18T08:25:31Z</time>
      </trkpt>
      <trkpt lat="49.37411" lon="0.08573">
        <ele>3.2</ele>
        <time>2015-10-18T08:25:39Z</time>
      </trkpt>
      <trkpt lat="49.3741" lon="0.08573">
        <ele>3.1</ele>
        <time>2015-10-18T08:25:40Z</time>
      </trkpt>
      <trkpt lat="49.37385" lon="0.08558">
        <ele>3.6</ele>
        <time>2015-10-18T08:26:00Z</time>
      </trkpt>
      <trkpt lat="49.37368" lon="0.08548">
        <ele>3.7</ele>
        <time>2015-10-18T08:26:15Z</time>
      </trkpt>
      <trkpt lat="49.37366" lon="0.08547">
        <ele>3.9</ele>
        <time>2015-10-18T08:26:16Z</time>
      </trkpt>
      <trkpt lat="49.37365" lon="0.08546">
        <ele>4.1</ele>
        <time>2015-10-18T08:26:17Z</time>
      </trkpt>
      <trkpt lat="49.37364" lon="0.08545">
        <ele>4.2</ele>
        <time>2015-10-18T08:26:18Z</time>
      </trkpt>
      <trkpt lat="49.37363" lon="0.08544">
        <ele>4.3</ele>
        <time>2015-10-18T08:26:19Z</time>
      </trkpt>
      <trkpt lat="49.37361" lon="0.08543">
        <ele>4.3</ele>
        <time>2015-10-18T08:26:20Z</time>
      </trkpt>
      <trkpt lat="49.3736" lon="0.08542">
        <ele>4.4</ele>
        <time>2015-10-18T08:26:21Z</time>
      </trkpt>
      <trkpt lat="49.37359" lon="0.08541">
        <ele>4.4</ele>
        <time>2015-10-18T08:26:22Z</time>
      </trkpt>
      <trkpt lat="49.37358" lon="0.0854">
        <ele>4.5</ele>
        <time>2015-10-18T08:26:23Z</time>
      </trkpt>
      <trkpt lat="49.37356" lon="0.08539">
        <ele>4.5</ele>
        <time>2015-10-18T08:26:24Z</time>
      </trkpt>
      <trkpt lat="49.37355" lon="0.08538">
        <ele>4.7</ele>
        <time>2015-10-18T08:26:25Z</time>
      </trkpt>
      <trkpt lat="49.37354" lon="0.08537">
        <ele>4.9</ele>
        <time>2015-10-18T08:26:26Z</time>
      </trkpt>
      <trkpt lat="49.37352" lon="0.08536">
        <ele>5</ele>
        <time>2015-10-18T08:26:27Z</time>
      </trkpt>
      <trkpt lat="49.37351" lon="0.08535">
        <ele>5.1</ele>
        <time>2015-10-18T08:26:28Z</time>
      </trkpt>
      <trkpt lat="49.37348" lon="0.08534">
        <ele>5.2</ele>
        <time>2015-10-18T08:26:30Z</time>
      </trkpt>
      <trkpt lat="49.37346" lon="0.08532">
        <ele>4.9</ele>
        <time>2015-10-18T08:26:32Z</time>
      </trkpt>
      <trkpt lat="49.37343" lon="0.08531">
        <ele>4.8</ele>
        <time>2015-10-18T08:26:34Z</time>
      </trkpt>
      <trkpt lat="49.37263" lon="0.08488">
        <ele>9.4</ele>
        <time>2015-10-18T08:27:40Z</time>
      </trkpt>
      <trkpt lat="49.37262" lon="0.08486">
        <ele>9.8</ele>
        <time>2015-10-18T08:27:41Z</time>
      </trkpt>
      <trkpt lat="49.37253" lon="0.08474">
        <ele>10.4</ele>
        <time>2015-10-18T08:27:50Z</time>
      </trkpt>
      <trkpt lat="49.37252" lon="0.08473">
        <ele>10.6</ele>
        <time>2015-10-18T08:27:51Z</time>
      </trkpt>
      <trkpt lat="49.37251" lon="0.08473">
        <ele>10.6</ele>
        <time>2015-10-18T08:27:52Z</time>
      </trkpt>
      <trkpt lat="49.3725" lon="0.08473">
        <ele>10.5</ele>
        <time>2015-10-18T08:27:53Z</time>
      </trkpt>
      <trkpt lat="49.37248" lon="0.08474">
        <ele>11.1</ele>
        <time>2015-10-18T08:27:55Z</time>
      </trkpt>
      <trkpt lat="49.37248" lon="0.08475">
        <ele>11.5</ele>
        <time>2015-10-18T08:27:56Z</time>
      </trkpt>
      <trkpt lat="49.37248" lon="0.08475">
        <ele>11.8</ele>
        <time>2015-10-18T08:27:57Z</time>
      </trkpt>
      <trkpt lat="49.37248" lon="0.08475">
        <ele>12.1</ele>
        <time>2015-10-18T08:27:58Z</time>
      </trkpt>
      <trkpt lat="49.37248" lon="0.08476">
        <ele>12.3</ele>
        <time>2015-10-18T08:27:59Z</time>
      </trkpt>
      <trkpt lat="49.37248" lon="0.08476">
        <ele>12.4</ele>
        <time>2015-10-18T08:28:00Z</time>
      </trkpt>
      <trkpt lat="49.37248" lon="0.08477">
        <ele>11.7</ele>
        <time>2015-10-18T08:28:01Z</time>
      </trkpt>
      <trkpt lat="49.37248" lon="0.08478">
        <ele>11.2</ele>
        <time>2015-10-18T08:28:02Z</time>
      </trkpt>
      <trkpt lat="49.37248" lon="0.08478">
        <ele>10.7</ele>
        <time>2015-10-18T08:28:03Z</time>
      </trkpt>
      <trkpt lat="49.37248" lon="0.0848">
        <ele>10.9</ele>
        <time>2015-10-18T08:28:04Z</time>
      </trkpt>
      <trkpt lat="49.37247" lon="0.08482">
        <ele>10.9</ele>
        <time>2015-10-18T08:28:05Z</time>
      </trkpt>
      <trkpt lat="49.37247" lon="0.08484">
        <ele>11</ele>
        <time>2015-10-18T08:28:06Z</time>
      </trkpt>
      <trkpt lat="49.37247" lon="0.08492">
        <ele>11.1</ele>
        <time>2015-10-18T08:28:10Z</time>
      </trkpt>
      <trkpt lat="49.37248" lon="0.08493">
        <ele>11.1</ele>
        <time>2015-10-18T08:28:11Z</time>
      </trkpt>
      <trkpt lat="49.37248" lon="0.08494">
        <ele>11.2</ele>
        <time>2015-10-18T08:28:12Z</time>
      </trkpt>
      <trkpt lat="49.37249" lon="0.08495">
        <ele>11.2</ele>
        <time>2015-10-18T08:28:13Z</time>
      </trkpt>
      <trkpt lat="49.37249" lon="0.08496">
        <ele>11.2</ele>
        <time>2015-10-18T08:28:14Z</time>
      </trkpt>
      <trkpt lat="49.3725" lon="0.08497">
        <ele>11.2</ele>
        <time>2015-10-18T08:28:15Z</time>
      </trkpt>
      <trkpt lat="49.37251" lon="0.08498">
        <ele>11.8</ele>
        <time>2015-10-18T08:28:16Z</time>
      </trkpt>
      <trkpt lat="49.37252" lon="0.08499">
        <ele>12.3</ele>
        <time>2015-10-18T08:28:17Z</time>
      </trkpt>
      <trkpt lat="49.37253" lon="0.085">
        <ele>12.6</ele>
        <time>2015-10-18T08:28:18Z</time>
      </trkpt>
      <trkpt lat="49.37254" lon="0.08501">
        <ele>12.7</ele>
        <time>2015-10-18T08:28:19Z</time>
      </trkpt>
      <trkpt lat="49.37255" lon="0.08502">
        <ele>12.7</ele>
        <time>2015-10-18T08:28:20Z</time>
      </trkpt>
      <trkpt lat="49.37255" lon="0.08502">
        <ele>12.8</ele>
        <time>2015-10-18T08:28:21Z</time>
      </trkpt>
      <trkpt lat="49.37256" lon="0.08503">
        <ele>12.6</ele>
        <time>2015-10-18T08:28:22Z</time>
      </trkpt>
      <trkpt lat="49.37257" lon="0.08504">
        <ele>12.4</ele>
        <time>2015-10-18T08:28:23Z</time>
      </trkpt>
      <trkpt lat="49.37258" lon="0.08505">
        <ele>12.3</ele>
        <time>2015-10-18T08:28:24Z</time>
      </trkpt>
      <trkpt lat="49.37259" lon="0.08505">
        <ele>12.7</ele>
        <time>2015-10-18T08:28:25Z</time>
      </trkpt>
      <trkpt lat="49.37259" lon="0.08506">
        <ele>12.9</ele>
        <time>2015-10-18T08:28:26Z</time>
      </trkpt>
      <trkpt lat="49.3726" lon="0.08507">
        <ele>13.1</ele>
        <time>2015-10-18T08:28:27Z</time>
      </trkpt>
      <trkpt lat="49.3726" lon="0.08507">
        <ele>13</ele>
        <time>2015-10-18T08:28:28Z</time>
      </trkpt>
      <trkpt lat="49.37261" lon="0.08508">
        <ele>13</ele>
        <time>2015-10-18T08:28:29Z</time>
      </trkpt>
      <trkpt lat="49.37261" lon="0.08509">
        <ele>13</ele>
        <time>2015-10-18T08:28:30Z</time>
      </trkpt>
      <trkpt lat="49.37262" lon="0.0851">
        <ele>12.7</ele>
        <time>2015-10-18T08:28:31Z</time>
      </trkpt>
      <trkpt lat="49.37262" lon="0.0851">
        <ele>12.5</ele>
        <time>2015-10-18T08:28:32Z</time>
      </trkpt>
      <trkpt lat="49.37269" lon="0.08519">
        <ele>15.9</ele>
        <time>2015-10-18T08:28:46Z</time>
      </trkpt>
      <trkpt lat="49.37269" lon="0.0852">
        <ele>16</ele>
        <time>2015-10-18T08:28:47Z</time>
      </trkpt>
      <trkpt lat="49.37287" lon="0.08543">
        <ele>21.2</ele>
        <time>2015-10-18T08:29:14Z</time>
      </trkpt>
      <trkpt lat="49.37288" lon="0.08544">
        <ele>21.4</ele>
        <time>2015-10-18T08:29:15Z</time>
      </trkpt>
      <trkpt lat="49.37289" lon="0.08546">
        <ele>21.3</ele>
        <time>2015-10-18T08:29:16Z</time>
      </trkpt>
      <trkpt lat="49.3729" lon="0.08546">
        <ele>21.3</ele>
        <time>2015-10-18T08:29:17Z</time>
      </trkpt>
      <trkpt lat="49.37291" lon="0.08547">
        <ele>21.2</ele>
        <time>2015-10-18T08:29:18Z</time>
      </trkpt>
      <trkpt lat="49.37292" lon="0.08548">
        <ele>21.6</ele>
        <time>2015-10-18T08:29:19Z</time>
      </trkpt>
      <trkpt lat="49.37293" lon="0.08549">
        <ele>21.9</ele>
        <time>2015-10-18T08:29:20Z</time>
      </trkpt>
      <trkpt lat="49.37294" lon="0.0855">
        <ele>22.5</ele>
        <time>2015-10-18T08:29:22Z</time>
      </trkpt>
      <trkpt lat="49.37295" lon="0.08551">
        <ele>22.8</ele>
        <time>2015-10-18T08:29:23Z</time>
      </trkpt>
      <trkpt lat="49.37348" lon="0.08617">
        <ele>33.6</ele>
        <time>2015-10-18T08:30:31Z</time>
      </trkpt>
      <trkpt lat="49.37349" lon="0.08618">
        <ele>33.6</ele>
        <time>2015-10-18T08:30:32Z</time>
      </trkpt>
      <trkpt lat="49.37366" lon="0.08632">
        <ele>36.7</ele>
        <time>2015-10-18T08:30:49Z</time>
      </trkpt>
      <trkpt lat="49.37368" lon="0.08633">
        <ele>36.6</ele>
        <time>2015-10-18T08:30:52Z</time>
      </trkpt>
      <trkpt lat="49.37379" lon="0.0864">
        <ele>37.8</ele>
        <time>2015-10-18T08:31:04Z</time>
      </trkpt>
      <trkpt lat="49.37396" lon="0.08654">
        <ele>39.8</ele>
        <time>2015-10-18T08:31:22Z</time>
      </trkpt>
      <trkpt lat="49.37398" lon="0.08657">
        <ele>40.4</ele>
        <time>2015-10-18T08:31:24Z</time>
      </trkpt>
      <trkpt lat="49.37403" lon="0.08662">
        <ele>39.9</ele>
        <time>2015-10-18T08:31:29Z</time>
      </trkpt>
      <trkpt lat="49.37414" lon="0.08672">
        <ele>41.9</ele>
        <time>2015-10-18T08:31:40Z</time>
      </trkpt>
      <trkpt lat="49.37415" lon="0.08673">
        <ele>42.4</ele>
        <time>2015-10-18T08:31:41Z</time>
      </trkpt>
      <trkpt lat="49.37415" lon="0.08674">
        <ele>42.7</ele>
        <time>2015-10-18T08:31:42Z</time>
      </trkpt>
      <trkpt lat="49.37417" lon="0.08676">
        <ele>42.7</ele>
        <time>2015-10-18T08:31:44Z</time>
      </trkpt>
      <trkpt lat="49.37418" lon="0.08677">
        <ele>42.7</ele>
        <time>2015-10-18T08:31:45Z</time>
      </trkpt>
      <trkpt lat="49.37419" lon="0.08678">
        <ele>42.7</ele>
        <time>2015-10-18T08:31:46Z</time>
      </trkpt>
      <trkpt lat="49.3742" lon="0.08679">
        <ele>42.7</ele>
        <time>2015-10-18T08:31:47Z</time>
      </trkpt>
      <trkpt lat="49.37421" lon="0.0868">
        <ele>42.7</ele>
        <time>2015-10-18T08:31:48Z</time>
      </trkpt>
      <trkpt lat="49.37422" lon="0.08681">
        <ele>42.7</ele>
        <time>2015-10-18T08:31:49Z</time>
      </trkpt>
      <trkpt lat="49.37454" lon="0.08748">
        <ele>49.4</ele>
        <time>2015-10-18T08:32:35Z</time>
      </trkpt>
      <trkpt lat="49.37477" lon="0.08804">
        <ele>49.5</ele>
        <time>2015-10-18T08:33:10Z</time>
      </trkpt>
      <trkpt lat="49.37477" lon="0.08805">
        <ele>49.9</ele>
        <time>2015-10-18T08:33:11Z</time>
      </trkpt>
      <trkpt lat="49.37478" lon="0.08809">
        <ele>50.2</ele>
        <time>2015-10-18T08:33:13Z</time>
      </trkpt>
      <trkpt lat="49.37478" lon="0.08811">
        <ele>50.2</ele>
        <time>2015-10-18T08:33:14Z</time>
      </trkpt>
      <trkpt lat="49.3748" lon="0.08824">
        <ele>48</ele>
        <time>2015-10-18T08:33:22Z</time>
      </trkpt>
      <trkpt lat="49.37481" lon="0.08825">
        <ele>46.2</ele>
        <time>2015-10-18T08:33:23Z</time>
      </trkpt>
      <trkpt lat="49.37493" lon="0.08848">
        <ele>51.9</ele>
        <time>2015-10-18T08:33:38Z</time>
      </trkpt>
      <trkpt lat="49.37494" lon="0.08849">
        <ele>51.9</ele>
        <time>2015-10-18T08:33:39Z</time>
      </trkpt>
      <trkpt lat="49.37547" lon="0.08927">
        <ele>54.3</ele>
        <time>2015-10-18T08:34:42Z</time>
      </trkpt>
      <trkpt lat="49.37548" lon="0.08929">
        <ele>53.9</ele>
        <time>2015-10-18T08:34:43Z</time>
      </trkpt>
      <trkpt lat="49.37553" lon="0.08935">
        <ele>54.2</ele>
        <time>2015-10-18T08:34:47Z</time>
      </trkpt>
      <trkpt lat="49.3756" lon="0.08945">
        <ele>55.1</ele>
        <time>2015-10-18T08:34:54Z</time>
      </trkpt>
      <trkpt lat="49.3756" lon="0.08947">
        <ele>55.1</ele>
        <time>2015-10-18T08:34:55Z</time>
      </trkpt>
      <trkpt lat="49.3756" lon="0.08949">
        <ele>55.2</ele>
        <time>2015-10-18T08:34:56Z</time>
      </trkpt>
      <trkpt lat="49.37561" lon="0.0895">
        <ele>55.2</ele>
        <time>2015-10-18T08:34:57Z</time>
      </trkpt>
      <trkpt lat="49.37561" lon="0.08952">
        <ele>55.4</ele>
        <time>2015-10-18T08:34:58Z</time>
      </trkpt>
      <trkpt lat="49.37561" lon="0.08954">
        <ele>55.6</ele>
        <time>2015-10-18T08:34:59Z</time>
      </trkpt>
      <trkpt lat="49.37562" lon="0.08956">
        <ele>55.7</ele>
        <time>2015-10-18T08:35:00Z</time>
      </trkpt>
      <trkpt lat="49.37562" lon="0.08958">
        <ele>55.6</ele>
        <time>2015-10-18T08:35:01Z</time>
      </trkpt>
      <trkpt lat="49.37563" lon="0.08959">
        <ele>55.5</ele>
        <time>2015-10-18T08:35:02Z</time>
      </trkpt>
      <trkpt lat="49.37564" lon="0.08963">
        <ele>55.2</ele>
        <time>2015-10-18T08:35:04Z</time>
      </trkpt>
      <trkpt lat="49.37567" lon="0.08972">
        <ele>55.6</ele>
        <time>2015-10-18T08:35:09Z</time>
      </trkpt>
      <trkpt lat="49.37567" lon="0.08973">
        <ele>56.3</ele>
        <time>2015-10-18T08:35:10Z</time>
      </trkpt>
      <trkpt lat="49.37577" lon="0.09">
        <ele>57.1</ele>
        <time>2015-10-18T08:35:29Z</time>
      </trkpt>
      <trkpt lat="49.37577" lon="0.08999">
        <ele>57</ele>
        <time>2015-10-18T08:35:30Z</time>
      </trkpt>
      <trkpt lat="49.37577" lon="0.08998">
        <ele>56.8</ele>
        <time>2015-10-18T08:35:31Z</time>
      </trkpt>
      <trkpt lat="49.37577" lon="0.08997">
        <ele>56.6</ele>
        <time>2015-10-18T08:35:32Z</time>
      </trkpt>
      <trkpt lat="49.37578" lon="0.08995">
        <ele>56.5</ele>
        <time>2015-10-18T08:35:33Z</time>
      </trkpt>
      <trkpt lat="49.37577" lon="0.08994">
        <ele>56.6</ele>
        <time>2015-10-18T08:35:34Z</time>
      </trkpt>
      <trkpt lat="49.37577" lon="0.08993">
        <ele>56.7</ele>
        <time>2015-10-18T08:35:35Z</time>
      </trkpt>
      <trkpt lat="49.37578" lon="0.08992">
        <ele>56.7</ele>
        <time>2015-10-18T08:35:36Z</time>
      </trkpt>
      <trkpt lat="49.37578" lon="0.08991">
        <ele>56.8</ele>
        <time>2015-10-18T08:35:37Z</time>
      </trkpt>
      <trkpt lat="49.37579" lon="0.0899">
        <ele>56.8</ele>
        <time>2015-10-18T08:35:38Z</time>
      </trkpt>
      <trkpt lat="49.37579" lon="0.08989">
        <ele>56.8</ele>
        <time>2015-10-18T08:35:39Z</time>
      </trkpt>
      <trkpt lat="49.3758" lon="0.08988">
        <ele>57.1</ele>
        <time>2015-10-18T08:35:40Z</time>
      </trkpt>
      <trkpt lat="49.37581" lon="0.08988">
        <ele>57.2</ele>
        <time>2015-10-18T08:35:41Z</time>
      </trkpt>
      <trkpt lat="49.37582" lon="0.08988">
        <ele>57.4</ele>
        <time>2015-10-18T08:35:42Z</time>
      </trkpt>
      <trkpt lat="49.37585" lon="0.08988">
        <ele>57.6</ele>
        <time>2015-10-18T08:35:45Z</time>
      </trkpt>
      <trkpt lat="49.37586" lon="0.08988">
        <ele>57</ele>
        <time>2015-10-18T08:35:46Z</time>
      </trkpt>
      <trkpt lat="49.37587" lon="0.08988">
        <ele>56.6</ele>
        <time>2015-10-18T08:35:47Z</time>
      </trkpt>
      <trkpt lat="49.37589" lon="0.08987">
        <ele>56</ele>
        <time>2015-10-18T08:35:49Z</time>
      </trkpt>
      <trkpt lat="49.37597" lon="0.08985">
        <ele>54.8</ele>
        <time>2015-10-18T08:35:55Z</time>
      </trkpt>
      <trkpt lat="49.376" lon="0.08984">
        <ele>54.6</ele>
        <time>2015-10-18T08:35:57Z</time>
      </trkpt>
      <trkpt lat="49.37601" lon="0.08984">
        <ele>54.6</ele>
        <time>2015-10-18T08:35:58Z</time>
      </trkpt>
      <trkpt lat="49.37607" lon="0.08987">
        <ele>54.9</ele>
        <time>2015-10-18T08:36:05Z</time>
      </trkpt>
      <trkpt lat="49.37606" lon="0.08986">
        <ele>55.2</ele>
        <time>2015-10-18T08:36:06Z</time>
      </trkpt>
      <trkpt lat="49.37606" lon="0.08985">
        <ele>55.4</ele>
        <time>2015-10-18T08:36:07Z</time>
      </trkpt>
      <trkpt lat="49.37605" lon="0.08985">
        <ele>55.6</ele>
        <time>2015-10-18T08:36:08Z</time>
      </trkpt>
      <trkpt lat="49.37604" lon="0.08985">
        <ele>55.7</ele>
        <time>2015-10-18T08:36:09Z</time>
      </trkpt>
      <trkpt lat="49.37603" lon="0.08985">
        <ele>55.4</ele>
        <time>2015-10-18T08:36:10Z</time>
      </trkpt>
      <trkpt lat="49.37603" lon="0.08984">
        <ele>55.1</ele>
        <time>2015-10-18T08:36:11Z</time>
      </trkpt>
      <trkpt lat="49.37602" lon="0.08983">
        <ele>55</ele>
        <time>2015-10-18T08:36:12Z</time>
      </trkpt>
      <trkpt lat="49.37601" lon="0.08983">
        <ele>55.2</ele>
        <time>2015-10-18T08:36:13Z</time>
      </trkpt>
      <trkpt lat="49.376" lon="0.08982">
        <ele>55.4</ele>
        <time>2015-10-18T08:36:14Z</time>
      </trkpt>
      <trkpt lat="49.37598" lon="0.08982">
        <ele>55.6</ele>
        <time>2015-10-18T08:36:15Z</time>
      </trkpt>
      <trkpt lat="49.37597" lon="0.08982">
        <ele>55.5</ele>
        <time>2015-10-18T08:36:16Z</time>
      </trkpt>
      <trkpt lat="49.37596" lon="0.08982">
        <ele>55.4</ele>
        <time>2015-10-18T08:36:17Z</time>
      </trkpt>
      <trkpt lat="49.37595" lon="0.08982">
        <ele>55.4</ele>
        <time>2015-10-18T08:36:18Z</time>
      </trkpt>
      <trkpt lat="49.37594" lon="0.08982">
        <ele>54.3</ele>
        <time>2015-10-18T08:36:19Z</time>
      </trkpt>
      <trkpt lat="49.37593" lon="0.08982">
        <ele>53.5</ele>
        <time>2015-10-18T08:36:20Z</time>
      </trkpt>
      <trkpt lat="49.37591" lon="0.08983">
        <ele>52.9</ele>
        <time>2015-10-18T08:36:21Z</time>
      </trkpt>
      <trkpt lat="49.3759" lon="0.08983">
        <ele>53.9</ele>
        <time>2015-10-18T08:36:22Z</time>
      </trkpt>
      <trkpt lat="49.37586" lon="0.08984">
        <ele>56</ele>
        <time>2015-10-18T08:36:26Z</time>
      </trkpt>
      <trkpt lat="49.37586" lon="0.08984">
        <ele>56.2</ele>
        <time>2015-10-18T08:36:27Z</time>
      </trkpt>
      <trkpt lat="49.37586" lon="0.08984">
        <ele>55.8</ele>
        <time>2015-10-18T08:36:28Z</time>
      </trkpt>
      <trkpt lat="49.37586" lon="0.08985">
        <ele>55.4</ele>
        <time>2015-10-18T08:36:29Z</time>
      </trkpt>
      <trkpt lat="49.37585" lon="0.08985">
        <ele>55.2</ele>
        <time>2015-10-18T08:36:30Z</time>
      </trkpt>
      <trkpt lat="49.37585" lon="0.08985">
        <ele>55.2</ele>
        <time>2015-10-18T08:36:31Z</time>
      </trkpt>
      <trkpt lat="49.37585" lon="0.08985">
        <ele>55.2</ele>
        <time>2015-10-18T08:36:32Z</time>
      </trkpt>
      <trkpt lat="49.37585" lon="0.08986">
        <ele>55.2</ele>
        <time>2015-10-18T08:36:33Z</time>
      </trkpt>
      <trkpt lat="49.37584" lon="0.08986">
        <ele>55.6</ele>
        <time>2015-10-18T08:36:34Z</time>
      </trkpt>
      <trkpt lat="49.37583" lon="0.08986">
        <ele>56</ele>
        <time>2015-10-18T08:36:35Z</time>
      </trkpt>
      <trkpt lat="49.37578" lon="0.08987">
        <ele>56.5</ele>
        <time>2015-10-18T08:36:40Z</time>
      </trkpt>
      <trkpt lat="49.37577" lon="0.08987">
        <ele>56.4</ele>
        <time>2015-10-18T08:36:41Z</time>
      </trkpt>
      <trkpt lat="49.37576" lon="0.08987">
        <ele>56.3</ele>
        <time>2015-10-18T08:36:42Z</time>
      </trkpt>
      <trkpt lat="49.37571" lon="0.08991">
        <ele>56.6</ele>
        <time>2015-10-18T08:36:49Z</time>
      </trkpt>
      <trkpt lat="49.37571" lon="0.08992">
        <ele>56.7</ele>
        <time>2015-10-18T08:36:50Z</time>
      </trkpt>
      <trkpt lat="49.37571" lon="0.08994">
        <ele>56.7</ele>
        <time>2015-10-18T08:36:51Z</time>
      </trkpt>
      <trkpt lat="49.37571" lon="0.08996">
        <ele>56.6</ele>
        <time>2015-10-18T08:36:52Z</time>
      </trkpt>
      <trkpt lat="49.37572" lon="0.08998">
        <ele>56.5</ele>
        <time>2015-10-18T08:36:53Z</time>
      </trkpt>
      <trkpt lat="49.37573" lon="0.09">
        <ele>56.4</ele>
        <time>2015-10-18T08:36:54Z</time>
      </trkpt>
      <trkpt lat="49.37573" lon="0.09002">
        <ele>56.5</ele>
        <time>2015-10-18T08:36:55Z</time>
      </trkpt>
      <trkpt lat="49.37574" lon="0.09004">
        <ele>56.6</ele>
        <time>2015-10-18T08:36:56Z</time>
      </trkpt>
      <trkpt lat="49.37575" lon="0.09006">
        <ele>56.7</ele>
        <time>2015-10-18T08:36:57Z</time>
      </trkpt>
      <trkpt lat="49.37576" lon="0.09008">
        <ele>56.7</ele>
        <time>2015-10-18T08:36:58Z</time>
      </trkpt>
      <trkpt lat="49.37577" lon="0.0901">
        <ele>56.8</ele>
        <time>2015-10-18T08:36:59Z</time>
      </trkpt>
      <trkpt lat="49.37579" lon="0.09013">
        <ele>56.8</ele>
        <time>2015-10-18T08:37:00Z</time>
      </trkpt>
      <trkpt lat="49.3758" lon="0.09014">
        <ele>56.8</ele>
        <time>2015-10-18T08:37:01Z</time>
      </trkpt>
      <trkpt lat="49.37581" lon="0.09016">
        <ele>56.9</ele>
        <time>2015-10-18T08:37:02Z</time>
      </trkpt>
      <trkpt lat="49.37582" lon="0.09018">
        <ele>56.9</ele>
        <time>2015-10-18T08:37:03Z</time>
      </trkpt>
      <trkpt lat="49.37583" lon="0.09019">
        <ele>56.9</ele>
        <time>2015-10-18T08:37:04Z</time>
      </trkpt>
      <trkpt lat="49.37584" lon="0.09021">
        <ele>56.9</ele>
        <time>2015-10-18T08:37:05Z</time>
      </trkpt>
      <trkpt lat="49.37585" lon="0.09023">
        <ele>56.9</ele>
        <time>2015-10-18T08:37:06Z</time>
      </trkpt>
      <trkpt lat="49.37586" lon="0.09025">
        <ele>56.9</ele>
        <time>2015-10-18T08:37:07Z</time>
      </trkpt>
      <trkpt lat="49.37589" lon="0.09031">
        <ele>57.6</ele>
        <time>2015-10-18T08:37:11Z</time>
      </trkpt>
      <trkpt lat="49.3759" lon="0.09033">
        <ele>57.9</ele>
        <time>2015-10-18T08:37:12Z</time>
      </trkpt>
      <trkpt lat="49.37612" lon="0.09091">
        <ele>60.5</ele>
        <time>2015-10-18T08:37:48Z</time>
      </trkpt>
      <trkpt lat="49.37616" lon="0.09102">
        <ele>62.1</ele>
        <time>2015-10-18T08:37:54Z</time>
      </trkpt>
      <trkpt lat="49.37617" lon="0.09104">
        <ele>61.9</ele>
        <time>2015-10-18T08:37:55Z</time>
      </trkpt>
      <trkpt lat="49.37648" lon="0.09193">
        <ele>64.2</ele>
        <time>2015-10-18T08:38:49Z</time>
      </trkpt>
      <trkpt lat="49.37648" lon="0.09193">
        <ele>64</ele>
        <time>2015-10-18T08:38:50Z</time>
      </trkpt>
      <trkpt lat="49.37649" lon="0.09194">
        <ele>63.9</ele>
        <time>2015-10-18T08:38:51Z</time>
      </trkpt>
      <trkpt lat="49.37649" lon="0.09195">
        <ele>64.5</ele>
        <time>2015-10-18T08:38:52Z</time>
      </trkpt>
      <trkpt lat="49.3765" lon="0.09197">
        <ele>65.2</ele>
        <time>2015-10-18T08:38:54Z</time>
      </trkpt>
      <trkpt lat="49.3765" lon="0.09199">
        <ele>65.4</ele>
        <time>2015-10-18T08:38:55Z</time>
      </trkpt>
      <trkpt lat="49.37651" lon="0.092">
        <ele>65.6</ele>
        <time>2015-10-18T08:38:56Z</time>
      </trkpt>
      <trkpt lat="49.37652" lon="0.09205">
        <ele>65.6</ele>
        <time>2015-10-18T08:38:58Z</time>
      </trkpt>
      <trkpt lat="49.37652" lon="0.09207">
        <ele>65.5</ele>
        <time>2015-10-18T08:38:59Z</time>
      </trkpt>
      <trkpt lat="49.37653" lon="0.0921">
        <ele>65.4</ele>
        <time>2015-10-18T08:39:00Z</time>
      </trkpt>
      <trkpt lat="49.37653" lon="0.09212">
        <ele>65.6</ele>
        <time>2015-10-18T08:39:01Z</time>
      </trkpt>
      <trkpt lat="49.37654" lon="0.09214">
        <ele>65.7</ele>
        <time>2015-10-18T08:39:02Z</time>
      </trkpt>
      <trkpt lat="49.37654" lon="0.09217">
        <ele>65.8</ele>
        <time>2015-10-18T08:39:03Z</time>
      </trkpt>
      <trkpt lat="49.37655" lon="0.09219">
        <ele>66.1</ele>
        <time>2015-10-18T08:39:04Z</time>
      </trkpt>
      <trkpt lat="49.37655" lon="0.09221">
        <ele>66.3</ele>
        <time>2015-10-18T08:39:05Z</time>
      </trkpt>
      <trkpt lat="49.37655" lon="0.09223">
        <ele>66.4</ele>
        <time>2015-10-18T08:39:06Z</time>
      </trkpt>
      <trkpt lat="49.37656" lon="0.09225">
        <ele>66.6</ele>
        <time>2015-10-18T08:39:07Z</time>
      </trkpt>
      <trkpt lat="49.37657" lon="0.09227">
        <ele>66.7</ele>
        <time>2015-10-18T08:39:08Z</time>
      </trkpt>
      <trkpt lat="49.37657" lon="0.09229">
        <ele>66.7</ele>
        <time>2015-10-18T08:39:09Z</time>
      </trkpt>
      <trkpt lat="49.37658" lon="0.09231">
        <ele>66.8</ele>
        <time>2015-10-18T08:39:10Z</time>
      </trkpt>
      <trkpt lat="49.37659" lon="0.09233">
        <ele>66.8</ele>
        <time>2015-10-18T08:39:11Z</time>
      </trkpt>
      <trkpt lat="49.37659" lon="0.09235">
        <ele>66.8</ele>
        <time>2015-10-18T08:39:12Z</time>
      </trkpt>
      <trkpt lat="49.3766" lon="0.09237">
        <ele>67.1</ele>
        <time>2015-10-18T08:39:13Z</time>
      </trkpt>
      <trkpt lat="49.37661" lon="0.09239">
        <ele>67.2</ele>
        <time>2015-10-18T08:39:14Z</time>
      </trkpt>
      <trkpt lat="49.37661" lon="0.09241">
        <ele>67.4</ele>
        <time>2015-10-18T08:39:15Z</time>
      </trkpt>
      <trkpt lat="49.37662" lon="0.09243">
        <ele>67</ele>
        <time>2015-10-18T08:39:16Z</time>
      </trkpt>
      <trkpt lat="49.37663" lon="0.09245">
        <ele>66.8</ele>
        <time>2015-10-18T08:39:17Z</time>
      </trkpt>
      <trkpt lat="49.37663" lon="0.09247">
        <ele>66.6</ele>
        <time>2015-10-18T08:39:18Z</time>
      </trkpt>
      <trkpt lat="49.37664" lon="0.09249">
        <ele>66.7</ele>
        <time>2015-10-18T08:39:19Z</time>
      </trkpt>
      <trkpt lat="49.37665" lon="0.09251">
        <ele>66.7</ele>
        <time>2015-10-18T08:39:20Z</time>
      </trkpt>
      <trkpt lat="49.37666" lon="0.09255">
        <ele>67</ele>
        <time>2015-10-18T08:39:22Z</time>
      </trkpt>
      <trkpt lat="49.37667" lon="0.09257">
        <ele>67.2</ele>
        <time>2015-10-18T08:39:23Z</time>
      </trkpt>
      <trkpt lat="49.3767" lon="0.09266">
        <ele>67.3</ele>
        <time>2015-10-18T08:39:28Z</time>
      </trkpt>
      <trkpt lat="49.3767" lon="0.09268">
        <ele>67.4</ele>
        <time>2015-10-18T08:39:29Z</time>
      </trkpt>
      <trkpt lat="49.37671" lon="0.09269">
        <ele>67.5</ele>
        <time>2015-10-18T08:39:30Z</time>
      </trkpt>
      <trkpt lat="49.37671" lon="0.09271">
        <ele>67.3</ele>
        <time>2015-10-18T08:39:31Z</time>
      </trkpt>
      <trkpt lat="49.37672" lon="0.09273">
        <ele>67.2</ele>
        <time>2015-10-18T08:39:32Z</time>
      </trkpt>
      <trkpt lat="49.37672" lon="0.09275">
        <ele>67.1</ele>
        <time>2015-10-18T08:39:33Z</time>
      </trkpt>
      <trkpt lat="49.37673" lon="0.09277">
        <ele>67.3</ele>
        <time>2015-10-18T08:39:34Z</time>
      </trkpt>
      <trkpt lat="49.37674" lon="0.09278">
        <ele>67.4</ele>
        <time>2015-10-18T08:39:35Z</time>
      </trkpt>
      <trkpt lat="49.37674" lon="0.09279">
        <ele>67.5</ele>
        <time>2015-10-18T08:39:36Z</time>
      </trkpt>
      <trkpt lat="49.37674" lon="0.09281">
        <ele>67.3</ele>
        <time>2015-10-18T08:39:37Z</time>
      </trkpt>
      <trkpt lat="49.37675" lon="0.09283">
        <ele>67.2</ele>
        <time>2015-10-18T08:39:38Z</time>
      </trkpt>
      <trkpt lat="49.37675" lon="0.09285">
        <ele>67.2</ele>
        <time>2015-10-18T08:39:39Z</time>
      </trkpt>
      <trkpt lat="49.37675" lon="0.09287">
        <ele>67.5</ele>
        <time>2015-10-18T08:39:40Z</time>
      </trkpt>
      <trkpt lat="49.37676" lon="0.09289">
        <ele>67.8</ele>
        <time>2015-10-18T08:39:41Z</time>
      </trkpt>
      <trkpt lat="49.37676" lon="0.0929">
        <ele>68</ele>
        <time>2015-10-18T08:39:42Z</time>
      </trkpt>
      <trkpt lat="49.37677" lon="0.09292">
        <ele>68.1</ele>
        <time>2015-10-18T08:39:43Z</time>
      </trkpt>
      <trkpt lat="49.37677" lon="0.09294">
        <ele>68.2</ele>
        <time>2015-10-18T08:39:44Z</time>
      </trkpt>
      <trkpt lat="49.37677" lon="0.09296">
        <ele>68.3</ele>
        <time>2015-10-18T08:39:45Z</time>
      </trkpt>
      <trkpt lat="49.37678" lon="0.09298">
        <ele>68.4</ele>
        <time>2015-10-18T08:39:46Z</time>
      </trkpt>
      <trkpt lat="49.37678" lon="0.09299">
        <ele>68.4</ele>
        <time>2015-10-18T08:39:47Z</time>
      </trkpt>
      <trkpt lat="49.37679" lon="0.09301">
        <ele>68.5</ele>
        <time>2015-10-18T08:39:48Z</time>
      </trkpt>
      <trkpt lat="49.3768" lon="0.09303">
        <ele>68.7</ele>
        <time>2015-10-18T08:39:49Z</time>
      </trkpt>
      <trkpt lat="49.3768" lon="0.09305">
        <ele>68.9</ele>
        <time>2015-10-18T08:39:50Z</time>
      </trkpt>
      <trkpt lat="49.37681" lon="0.09306">
        <ele>69</ele>
        <time>2015-10-18T08:39:51Z</time>
      </trkpt>
      <trkpt lat="49.37683" lon="0.0931">
        <ele>68.8</ele>
        <time>2015-10-18T08:39:53Z</time>
      </trkpt>
      <trkpt lat="49.37694" lon="0.09345">
        <ele>68.8</ele>
        <time>2015-10-18T08:40:13Z</time>
      </trkpt>
      <trkpt lat="49.37695" lon="0.09346">
        <ele>68.9</ele>
        <time>2015-10-18T08:40:14Z</time>
      </trkpt>
      <trkpt lat="49.37709" lon="0.09393">
        <ele>70.2</ele>
        <time>2015-10-18T08:40:39Z</time>
      </trkpt>
      <trkpt lat="49.37714" lon="0.09408">
        <ele>69.7</ele>
        <time>2015-10-18T08:40:48Z</time>
      </trkpt>
      <trkpt lat="49.37714" lon="0.0941">
        <ele>69.6</ele>
        <time>2015-10-18T08:40:49Z</time>
      </trkpt>
      <trkpt lat="49.37728" lon="0.0945">
        <ele>69.5</ele>
        <time>2015-10-18T08:41:12Z</time>
      </trkpt>
      <trkpt lat="49.37728" lon="0.09452">
        <ele>69.7</ele>
        <time>2015-10-18T08:41:13Z</time>
      </trkpt>
      <trkpt lat="49.37732" lon="0.09461">
        <ele>70.6</ele>
        <time>2015-10-18T08:41:18Z</time>
      </trkpt>
      <trkpt lat="49.37733" lon="0.09463">
        <ele>70.3</ele>
        <time>2015-10-18T08:41:19Z</time>
      </trkpt>
      <trkpt lat="49.37739" lon="0.09492">
        <ele>70.3</ele>
        <time>2015-10-18T08:41:32Z</time>
      </trkpt>
      <trkpt lat="49.37739" lon="0.09494">
        <ele>70.3</ele>
        <time>2015-10-18T08:41:33Z</time>
      </trkpt>
      <trkpt lat="49.3774" lon="0.09495">
        <ele>70.7</ele>
        <time>2015-10-18T08:41:34Z</time>
      </trkpt>
      <trkpt lat="49.3774" lon="0.09497">
        <ele>71</ele>
        <time>2015-10-18T08:41:35Z</time>
      </trkpt>
      <trkpt lat="49.3774" lon="0.09499">
        <ele>71.2</ele>
        <time>2015-10-18T08:41:36Z</time>
      </trkpt>
      <trkpt lat="49.37741" lon="0.09501">
        <ele>71.2</ele>
        <time>2015-10-18T08:41:37Z</time>
      </trkpt>
      <trkpt lat="49.37741" lon="0.09503">
        <ele>71.2</ele>
        <time>2015-10-18T08:41:38Z</time>
      </trkpt>
      <trkpt lat="49.37742" lon="0.09504">
        <ele>71.1</ele>
        <time>2015-10-18T08:41:39Z</time>
      </trkpt>
      <trkpt lat="49.37742" lon="0.09507">
        <ele>70.8</ele>
        <time>2015-10-18T08:41:41Z</time>
      </trkpt>
      <trkpt lat="49.37743" lon="0.09509">
        <ele>70.6</ele>
        <time>2015-10-18T08:41:42Z</time>
      </trkpt>
      <trkpt lat="49.37743" lon="0.0951">
        <ele>70.7</ele>
        <time>2015-10-18T08:41:43Z</time>
      </trkpt>
      <trkpt lat="49.37744" lon="0.09511">
        <ele>70.8</ele>
        <time>2015-10-18T08:41:44Z</time>
      </trkpt>
      <trkpt lat="49.37744" lon="0.09513">
        <ele>70.9</ele>
        <time>2015-10-18T08:41:45Z</time>
      </trkpt>
      <trkpt lat="49.37752" lon="0.09542">
        <ele>71</ele>
        <time>2015-10-18T08:42:03Z</time>
      </trkpt>
      <trkpt lat="49.37754" lon="0.09551">
        <ele>73.1</ele>
        <time>2015-10-18T08:42:09Z</time>
      </trkpt>
      <trkpt lat="49.37754" lon="0.09551">
        <ele>72.8</ele>
        <time>2015-10-18T08:42:10Z</time>
      </trkpt>
      <trkpt lat="49.37754" lon="0.09553">
        <ele>72.4</ele>
        <time>2015-10-18T08:42:12Z</time>
      </trkpt>
      <trkpt lat="49.37754" lon="0.09554">
        <ele>71.9</ele>
        <time>2015-10-18T08:42:13Z</time>
      </trkpt>
      <trkpt lat="49.37754" lon="0.09556">
        <ele>71.5</ele>
        <time>2015-10-18T08:42:14Z</time>
      </trkpt>
      <trkpt lat="49.37755" lon="0.09557">
        <ele>71.2</ele>
        <time>2015-10-18T08:42:15Z</time>
      </trkpt>
      <trkpt lat="49.37756" lon="0.09558">
        <ele>71.4</ele>
        <time>2015-10-18T08:42:16Z</time>
      </trkpt>
      <trkpt lat="49.37757" lon="0.0956">
        <ele>71.5</ele>
        <time>2015-10-18T08:42:17Z</time>
      </trkpt>
      <trkpt lat="49.3776" lon="0.09562">
        <ele>72.1</ele>
        <time>2015-10-18T08:42:20Z</time>
      </trkpt>
      <trkpt lat="49.37761" lon="0.09562">
        <ele>72.3</ele>
        <time>2015-10-18T08:42:21Z</time>
      </trkpt>
      <trkpt lat="49.37765" lon="0.09563">
        <ele>73.4</ele>
        <time>2015-10-18T08:42:25Z</time>
      </trkpt>
      <trkpt lat="49.37768" lon="0.09562">
        <ele>74.8</ele>
        <time>2015-10-18T08:42:28Z</time>
      </trkpt>
      <trkpt lat="49.37769" lon="0.09562">
        <ele>74.9</ele>
        <time>2015-10-18T08:42:29Z</time>
      </trkpt>
      <trkpt lat="49.37771" lon="0.0956">
        <ele>74.4</ele>
        <time>2015-10-18T08:42:32Z</time>
      </trkpt>
      <trkpt lat="49.37774" lon="0.09557">
        <ele>74.8</ele>
        <time>2015-10-18T08:42:36Z</time>
      </trkpt>
      <trkpt lat="49.37781" lon="0.09548">
        <ele>72.2</ele>
        <time>2015-10-18T08:42:45Z</time>
      </trkpt>
      <trkpt lat="49.37807" lon="0.09522">
        <ele>70.8</ele>
        <time>2015-10-18T08:43:11Z</time>
      </trkpt>
      <trkpt lat="49.3781" lon="0.09519">
        <ele>69</ele>
        <time>2015-10-18T08:43:14Z</time>
      </trkpt>
      <trkpt lat="49.37814" lon="0.09517">
        <ele>67.8</ele>
        <time>2015-10-18T08:43:17Z</time>
      </trkpt>
      <trkpt lat="49.37831" lon="0.09509">
        <ele>64.1</ele>
        <time>2015-10-18T08:43:34Z</time>
      </trkpt>
      <trkpt lat="49.37832" lon="0.09509">
        <ele>64</ele>
        <time>2015-10-18T08:43:35Z</time>
      </trkpt>
      <trkpt lat="49.37843" lon="0.09505">
        <ele>62.3</ele>
        <time>2015-10-18T08:43:46Z</time>
      </trkpt>
      <trkpt lat="49.37844" lon="0.09505">
        <ele>62.2</ele>
        <time>2015-10-18T08:43:47Z</time>
      </trkpt>
      <trkpt lat="49.37845" lon="0.09505">
        <ele>61.7</ele>
        <time>2015-10-18T08:43:48Z</time>
      </trkpt>
      <trkpt lat="49.37845" lon="0.09505">
        <ele>61.4</ele>
        <time>2015-10-18T08:43:49Z</time>
      </trkpt>
      <trkpt lat="49.37846" lon="0.09505">
        <ele>60.7</ele>
        <time>2015-10-18T08:43:51Z</time>
      </trkpt>
      <trkpt lat="49.37846" lon="0.09505">
        <ele>60.3</ele>
        <time>2015-10-18T08:43:52Z</time>
      </trkpt>
      <trkpt lat="49.37846" lon="0.09505">
        <ele>60.1</ele>
        <time>2015-10-18T08:43:53Z</time>
      </trkpt>
      <trkpt lat="49.37847" lon="0.09505">
        <ele>60.4</ele>
        <time>2015-10-18T08:43:54Z</time>
      </trkpt>
      <trkpt lat="49.37848" lon="0.09505">
        <ele>60.7</ele>
        <time>2015-10-18T08:43:56Z</time>
      </trkpt>
      <trkpt lat="49.37849" lon="0.09505">
        <ele>60.6</ele>
        <time>2015-10-18T08:43:57Z</time>
      </trkpt>
      <trkpt lat="49.3785" lon="0.09505">
        <ele>60.5</ele>
        <time>2015-10-18T08:43:58Z</time>
      </trkpt>
      <trkpt lat="49.37851" lon="0.09505">
        <ele>60.4</ele>
        <time>2015-10-18T08:43:59Z</time>
      </trkpt>
      <trkpt lat="49.37852" lon="0.09505">
        <ele>60.4</ele>
        <time>2015-10-18T08:44:00Z</time>
      </trkpt>
      <trkpt lat="49.37863" lon="0.09502">
        <ele>59.3</ele>
        <time>2015-10-18T08:44:08Z</time>
      </trkpt>
      <trkpt lat="49.37891" lon="0.095">
        <ele>56.9</ele>
        <time>2015-10-18T08:44:27Z</time>
      </trkpt>
      <trkpt lat="49.37893" lon="0.09501">
        <ele>56.5</ele>
        <time>2015-10-18T08:44:28Z</time>
      </trkpt>
      <trkpt lat="49.37895" lon="0.09501">
        <ele>56.2</ele>
        <time>2015-10-18T08:44:29Z</time>
      </trkpt>
      <trkpt lat="49.37917" lon="0.09509">
        <ele>52.4</ele>
        <time>2015-10-18T08:44:44Z</time>
      </trkpt>
      <trkpt lat="49.37918" lon="0.09509">
        <ele>52.3</ele>
        <time>2015-10-18T08:44:45Z</time>
      </trkpt>
      <trkpt lat="49.37928" lon="0.09511">
        <ele>51.8</ele>
        <time>2015-10-18T08:44:55Z</time>
      </trkpt>
      <trkpt lat="49.37929" lon="0.09511">
        <ele>51.6</ele>
        <time>2015-10-18T08:44:56Z</time>
      </trkpt>
      <trkpt lat="49.37929" lon="0.09511">
        <ele>51.9</ele>
        <time>2015-10-18T08:44:57Z</time>
      </trkpt>
      <trkpt lat="49.3793" lon="0.09511">
        <ele>52.1</ele>
        <time>2015-10-18T08:44:58Z</time>
      </trkpt>
      <trkpt lat="49.37931" lon="0.09511">
        <ele>52.3</ele>
        <time>2015-10-18T08:44:59Z</time>
      </trkpt>
      <trkpt lat="49.37932" lon="0.09512">
        <ele>52.2</ele>
        <time>2015-10-18T08:45:00Z</time>
      </trkpt>
      <trkpt lat="49.37933" lon="0.09512">
        <ele>52.1</ele>
        <time>2015-10-18T08:45:01Z</time>
      </trkpt>
      <trkpt lat="49.37934" lon="0.09512">
        <ele>52.1</ele>
        <time>2015-10-18T08:45:02Z</time>
      </trkpt>
      <trkpt lat="49.37935" lon="0.09512">
        <ele>51.6</ele>
        <time>2015-10-18T08:45:03Z</time>
      </trkpt>
      <trkpt lat="49.37936" lon="0.09512">
        <ele>51.3</ele>
        <time>2015-10-18T08:45:04Z</time>
      </trkpt>
      <trkpt lat="49.37943" lon="0.09511">
        <ele>50.6</ele>
        <time>2015-10-18T08:45:11Z</time>
      </trkpt>
      <trkpt lat="49.37944" lon="0.09511">
        <ele>50.7</ele>
        <time>2015-10-18T08:45:12Z</time>
      </trkpt>
      <trkpt lat="49.37953" lon="0.09513">
        <ele>50.4</ele>
        <time>2015-10-18T08:45:20Z</time>
      </trkpt>
      <trkpt lat="49.37958" lon="0.09513">
        <ele>49.8</ele>
        <time>2015-10-18T08:45:26Z</time>
      </trkpt>
      <trkpt lat="49.3796" lon="0.09513">
        <ele>49.7</ele>
        <time>2015-10-18T08:45:27Z</time>
      </trkpt>
      <trkpt lat="49.37967" lon="0.09511">
        <ele>49.9</ele>
        <time>2015-10-18T08:45:35Z</time>
      </trkpt>
      <trkpt lat="49.37971" lon="0.09511">
        <ele>49.6</ele>
        <time>2015-10-18T08:45:39Z</time>
      </trkpt>
      <trkpt lat="49.37972" lon="0.09512">
        <ele>49.5</ele>
        <time>2015-10-18T08:45:40Z</time>
      </trkpt>
      <trkpt lat="49.37975" lon="0.09514">
        <ele>49.8</ele>
        <time>2015-10-18T08:45:43Z</time>
      </trkpt>
      <trkpt lat="49.37979" lon="0.09519">
        <ele>50.1</ele>
        <time>2015-10-18T08:45:47Z</time>
      </trkpt>
      <trkpt lat="49.3798" lon="0.09521">
        <ele>50.8</ele>
        <time>2015-10-18T08:45:48Z</time>
      </trkpt>
      <trkpt lat="49.37996" lon="0.09543">
        <ele>49.5</ele>
        <time>2015-10-18T08:45:57Z</time>
      </trkpt>
      <trkpt lat="49.37997" lon="0.09544">
        <ele>49.5</ele>
        <time>2015-10-18T08:45:58Z</time>
      </trkpt>
      <trkpt lat="49.37998" lon="0.09546">
        <ele>49.5</ele>
        <time>2015-10-18T08:45:59Z</time>
      </trkpt>
      <trkpt lat="49.3802" lon="0.09579">
        <ele>52</ele>
        <time>2015-10-18T08:46:23Z</time>
      </trkpt>
      <trkpt lat="49.38021" lon="0.09581">
        <ele>51.8</ele>
        <time>2015-10-18T08:46:24Z</time>
      </trkpt>
      <trkpt lat="49.38021" lon="0.09583">
        <ele>51.6</ele>
        <time>2015-10-18T08:46:25Z</time>
      </trkpt>
      <trkpt lat="49.38022" lon="0.09585">
        <ele>51.5</ele>
        <time>2015-10-18T08:46:26Z</time>
      </trkpt>
      <trkpt lat="49.38023" lon="0.09587">
        <ele>51.6</ele>
        <time>2015-10-18T08:46:27Z</time>
      </trkpt>
      <trkpt lat="49.38023" lon="0.09589">
        <ele>51.7</ele>
        <time>2015-10-18T08:46:28Z</time>
      </trkpt>
      <trkpt lat="49.38024" lon="0.09591">
        <ele>51.7</ele>
        <time>2015-10-18T08:46:29Z</time>
      </trkpt>
      <trkpt lat="49.38025" lon="0.09592">
        <ele>51.8</ele>
        <time>2015-10-18T08:46:30Z</time>
      </trkpt>
      <trkpt lat="49.38037" lon="0.09625">
        <ele>50.3</ele>
        <time>2015-10-18T08:46:54Z</time>
      </trkpt>
      <trkpt lat="49.38037" lon="0.09625">
        <ele>49.3</ele>
        <time>2015-10-18T08:46:55Z</time>
      </trkpt>
      <trkpt lat="49.38037" lon="0.09625">
        <ele>48.5</ele>
        <time>2015-10-18T08:46:56Z</time>
      </trkpt>
      <trkpt lat="49.38037" lon="0.09626">
        <ele>47.5</ele>
        <time>2015-10-18T08:46:57Z</time>
      </trkpt>
      <trkpt lat="49.38037" lon="0.09626">
        <ele>46.7</ele>
        <time>2015-10-18T08:46:58Z</time>
      </trkpt>
      <trkpt lat="49.38036" lon="0.09626">
        <ele>46.1</ele>
        <time>2015-10-18T08:46:59Z</time>
      </trkpt>
      <trkpt lat="49.38036" lon="0.09627">
        <ele>47.2</ele>
        <time>2015-10-18T08:47:00Z</time>
      </trkpt>
      <trkpt lat="49.38036" lon="0.09628">
        <ele>47.9</ele>
        <time>2015-10-18T08:47:01Z</time>
      </trkpt>
      <trkpt lat="49.38036" lon="0.09629">
        <ele>48.5</ele>
        <time>2015-10-18T08:47:02Z</time>
      </trkpt>
      <trkpt lat="49.38035" lon="0.0963">
        <ele>50</ele>
        <time>2015-10-18T08:47:03Z</time>
      </trkpt>
      <trkpt lat="49.38035" lon="0.09631">
        <ele>51.1</ele>
        <time>2015-10-18T08:47:04Z</time>
      </trkpt>
      <trkpt lat="49.38034" lon="0.09631">
        <ele>51.9</ele>
        <time>2015-10-18T08:47:05Z</time>
      </trkpt>
      <trkpt lat="49.38034" lon="0.09632">
        <ele>52.5</ele>
        <time>2015-10-18T08:47:06Z</time>
      </trkpt>
      <trkpt lat="49.38034" lon="0.09632">
        <ele>53</ele>
        <time>2015-10-18T08:47:07Z</time>
      </trkpt>
      <trkpt lat="49.38034" lon="0.09632">
        <ele>53.4</ele>
        <time>2015-10-18T08:47:08Z</time>
      </trkpt>
      <trkpt lat="49.38033" lon="0.09633">
        <ele>52.2</ele>
        <time>2015-10-18T08:47:09Z</time>
      </trkpt>
      <trkpt lat="49.38033" lon="0.09633">
        <ele>51.3</ele>
        <time>2015-10-18T08:47:10Z</time>
      </trkpt>
      <trkpt lat="49.38033" lon="0.09633">
        <ele>50.6</ele>
        <time>2015-10-18T08:47:11Z</time>
      </trkpt>
      <trkpt lat="49.38033" lon="0.09633">
        <ele>50.7</ele>
        <time>2015-10-18T08:47:12Z</time>
      </trkpt>
      <trkpt lat="49.38033" lon="0.09633">
        <ele>50.8</ele>
        <time>2015-10-18T08:47:13Z</time>
      </trkpt>
      <trkpt lat="49.38032" lon="0.09634">
        <ele>50.9</ele>
        <time>2015-10-18T08:47:14Z</time>
      </trkpt>
      <trkpt lat="49.38032" lon="0.09634">
        <ele>51.1</ele>
        <time>2015-10-18T08:47:15Z</time>
      </trkpt>
      <trkpt lat="49.38032" lon="0.09634">
        <ele>51.3</ele>
        <time>2015-10-18T08:47:16Z</time>
      </trkpt>
      <trkpt lat="49.38032" lon="0.09634">
        <ele>51.5</ele>
        <time>2015-10-18T08:47:17Z</time>
      </trkpt>
      <trkpt lat="49.38032" lon="0.09634">
        <ele>51.2</ele>
        <time>2015-10-18T08:47:18Z</time>
      </trkpt>
      <trkpt lat="49.38032" lon="0.09634">
        <ele>50.9</ele>
        <time>2015-10-18T08:47:19Z</time>
      </trkpt>
      <trkpt lat="49.38032" lon="0.09635">
        <ele>50.8</ele>
        <time>2015-10-18T08:47:20Z</time>
      </trkpt>
      <trkpt lat="49.38032" lon="0.09635">
        <ele>50.8</ele>
        <time>2015-10-18T08:47:21Z</time>
      </trkpt>
      <trkpt lat="49.38031" lon="0.09635">
        <ele>50.9</ele>
        <time>2015-10-18T08:47:22Z</time>
      </trkpt>
      <trkpt lat="49.38031" lon="0.09635">
        <ele>50.9</ele>
        <time>2015-10-18T08:47:23Z</time>
      </trkpt>
      <trkpt lat="49.38031" lon="0.09635">
        <ele>50.8</ele>
        <time>2015-10-18T08:47:24Z</time>
      </trkpt>
      <trkpt lat="49.38031" lon="0.09635">
        <ele>50.6</ele>
        <time>2015-10-18T08:47:25Z</time>
      </trkpt>
      <trkpt lat="49.38031" lon="0.09635">
        <ele>50.5</ele>
        <time>2015-10-18T08:47:26Z</time>
      </trkpt>
      <trkpt lat="49.38031" lon="0.09635">
        <ele>50.5</ele>
        <time>2015-10-18T08:47:27Z</time>
      </trkpt>
      <trkpt lat="49.38031" lon="0.09635">
        <ele>50.4</ele>
        <time>2015-10-18T08:47:28Z</time>
      </trkpt>
      <trkpt lat="49.38031" lon="0.09635">
        <ele>50.4</ele>
        <time>2015-10-18T08:47:29Z</time>
      </trkpt>
      <trkpt lat="49.38031" lon="0.09635">
        <ele>50.5</ele>
        <time>2015-10-18T08:47:30Z</time>
      </trkpt>
      <trkpt lat="49.38031" lon="0.09635">
        <ele>50.7</ele>
        <time>2015-10-18T08:47:31Z</time>
      </trkpt>
      <trkpt lat="49.38031" lon="0.09635">
        <ele>50.8</ele>
        <time>2015-10-18T08:47:32Z</time>
      </trkpt>
      <trkpt lat="49.38031" lon="0.09635">
        <ele>50.9</ele>
        <time>2015-10-18T08:47:33Z</time>
      </trkpt>
      <trkpt lat="49.38031" lon="0.09635">
        <ele>50.9</ele>
        <time>2015-10-18T08:47:34Z</time>
      </trkpt>
      <trkpt lat="49.38031" lon="0.09635">
        <ele>51</ele>
        <time>2015-10-18T08:47:35Z</time>
      </trkpt>
      <trkpt lat="49.38031" lon="0.09635">
        <ele>50.8</ele>
        <time>2015-10-18T08:47:36Z</time>
      </trkpt>
      <trkpt lat="49.38031" lon="0.09635">
        <ele>50.6</ele>
        <time>2015-10-18T08:47:37Z</time>
      </trkpt>
      <trkpt lat="49.38031" lon="0.09635">
        <ele>50.5</ele>
        <time>2015-10-18T08:47:38Z</time>
      </trkpt>
      <trkpt lat="49.38031" lon="0.09635">
        <ele>50.5</ele>
        <time>2015-10-18T08:47:39Z</time>
      </trkpt>
      <trkpt lat="49.38031" lon="0.09635">
        <ele>50.4</ele>
        <time>2015-10-18T08:47:40Z</time>
      </trkpt>
      <trkpt lat="49.3803" lon="0.09635">
        <ele>50.4</ele>
        <time>2015-10-18T08:47:41Z</time>
      </trkpt>
      <trkpt lat="49.3803" lon="0.09635">
        <ele>50.3</ele>
        <time>2015-10-18T08:47:42Z</time>
      </trkpt>
      <trkpt lat="49.3803" lon="0.09635">
        <ele>50.3</ele>
        <time>2015-10-18T08:47:43Z</time>
      </trkpt>
      <trkpt lat="49.3803" lon="0.09635">
        <ele>50.3</ele>
        <time>2015-10-18T08:47:44Z</time>
      </trkpt>
      <trkpt lat="49.3803" lon="0.09635">
        <ele>50.3</ele>
        <time>2015-10-18T08:47:45Z</time>
      </trkpt>
      <trkpt lat="49.3803" lon="0.09635">
        <ele>50.3</ele>
        <time>2015-10-18T08:47:46Z</time>
      </trkpt>
      <trkpt lat="49.38029" lon="0.09635">
        <ele>50.3</ele>
        <time>2015-10-18T08:47:47Z</time>
      </trkpt>
      <trkpt lat="49.38029" lon="0.09635">
        <ele>50.5</ele>
        <time>2015-10-18T08:47:48Z</time>
      </trkpt>
      <trkpt lat="49.38029" lon="0.09635">
        <ele>50.6</ele>
        <time>2015-10-18T08:47:49Z</time>
      </trkpt>
      <trkpt lat="49.38029" lon="0.09635">
        <ele>50.7</ele>
        <time>2015-10-18T08:47:50Z</time>
      </trkpt>
      <trkpt lat="49.38028" lon="0.09636">
        <ele>50.6</ele>
        <time>2015-10-18T08:47:51Z</time>
      </trkpt>
      <trkpt lat="49.38028" lon="0.09636">
        <ele>50.5</ele>
        <time>2015-10-18T08:47:52Z</time>
      </trkpt>
      <trkpt lat="49.38028" lon="0.09636">
        <ele>50.5</ele>
        <time>2015-10-18T08:47:53Z</time>
      </trkpt>
      <trkpt lat="49.38028" lon="0.09636">
        <ele>49.8</ele>
        <time>2015-10-18T08:47:54Z</time>
      </trkpt>
      <trkpt lat="49.38028" lon="0.09636">
        <ele>49.3</ele>
        <time>2015-10-18T08:47:55Z</time>
      </trkpt>
      <trkpt lat="49.38027" lon="0.09637">
        <ele>48.9</ele>
        <time>2015-10-18T08:47:56Z</time>
      </trkpt>
      <trkpt lat="49.38027" lon="0.09637">
        <ele>49.4</ele>
        <time>2015-10-18T08:47:57Z</time>
      </trkpt>
      <trkpt lat="49.38025" lon="0.09643">
        <ele>50.7</ele>
        <time>2015-10-18T08:48:02Z</time>
      </trkpt>
      <trkpt lat="49.38023" lon="0.0965">
        <ele>50.7</ele>
        <time>2015-10-18T08:48:06Z</time>
      </trkpt>
      <trkpt lat="49.38023" lon="0.09654">
        <ele>50.5</ele>
        <time>2015-10-18T08:48:08Z</time>
      </trkpt>
      <trkpt lat="49.38023" lon="0.0966">
        <ele>50.8</ele>
        <time>2015-10-18T08:48:11Z</time>
      </trkpt>
      <trkpt lat="49.38025" lon="0.09665">
        <ele>51</ele>
        <time>2015-10-18T08:48:14Z</time>
      </trkpt>
      <trkpt lat="49.38026" lon="0.09667">
        <ele>50.8</ele>
        <time>2015-10-18T08:48:15Z</time>
      </trkpt>
      <trkpt lat="49.38027" lon="0.09668">
        <ele>50.7</ele>
        <time>2015-10-18T08:48:16Z</time>
      </trkpt>
      <trkpt lat="49.38028" lon="0.0967">
        <ele>50.6</ele>
        <time>2015-10-18T08:48:17Z</time>
      </trkpt>
      <trkpt lat="49.38029" lon="0.09672">
        <ele>50.7</ele>
        <time>2015-10-18T08:48:18Z</time>
      </trkpt>
      <trkpt lat="49.3803" lon="0.09673">
        <ele>50.8</ele>
        <time>2015-10-18T08:48:19Z</time>
      </trkpt>
      <trkpt lat="49.38031" lon="0.09675">
        <ele>50.9</ele>
        <time>2015-10-18T08:48:20Z</time>
      </trkpt>
      <trkpt lat="49.38032" lon="0.09677">
        <ele>50.7</ele>
        <time>2015-10-18T08:48:21Z</time>
      </trkpt>
      <trkpt lat="49.38034" lon="0.09679">
        <ele>50.6</ele>
        <time>2015-10-18T08:48:22Z</time>
      </trkpt>
      <trkpt lat="49.38035" lon="0.0968">
        <ele>50.5</ele>
        <time>2015-10-18T08:48:23Z</time>
      </trkpt>
      <trkpt lat="49.38036" lon="0.09682">
        <ele>50.4</ele>
        <time>2015-10-18T08:48:24Z</time>
      </trkpt>
      <trkpt lat="49.38037" lon="0.09684">
        <ele>50.4</ele>
        <time>2015-10-18T08:48:25Z</time>
      </trkpt>
      <trkpt lat="49.38038" lon="0.09686">
        <ele>50.4</ele>
        <time>2015-10-18T08:48:26Z</time>
      </trkpt>
      <trkpt lat="49.38039" lon="0.09688">
        <ele>50.3</ele>
        <time>2015-10-18T08:48:27Z</time>
      </trkpt>
      <trkpt lat="49.3804" lon="0.0969">
        <ele>50.3</ele>
        <time>2015-10-18T08:48:28Z</time>
      </trkpt>
      <trkpt lat="49.38041" lon="0.09691">
        <ele>50.3</ele>
        <time>2015-10-18T08:48:29Z</time>
      </trkpt>
      <trkpt lat="49.38042" lon="0.09693">
        <ele>50.3</ele>
        <time>2015-10-18T08:48:30Z</time>
      </trkpt>
      <trkpt lat="49.38044" lon="0.09694">
        <ele>50.3</ele>
        <time>2015-10-18T08:48:31Z</time>
      </trkpt>
      <trkpt lat="49.38045" lon="0.09696">
        <ele>50.3</ele>
        <time>2015-10-18T08:48:32Z</time>
      </trkpt>
      <trkpt lat="49.38046" lon="0.09697">
        <ele>50.5</ele>
        <time>2015-10-18T08:48:33Z</time>
      </trkpt>
      <trkpt lat="49.38047" lon="0.09698">
        <ele>50.6</ele>
        <time>2015-10-18T08:48:34Z</time>
      </trkpt>
      <trkpt lat="49.38047" lon="0.097">
        <ele>50.7</ele>
        <time>2015-10-18T08:48:35Z</time>
      </trkpt>
      <trkpt lat="49.38048" lon="0.09701">
        <ele>50.6</ele>
        <time>2015-10-18T08:48:36Z</time>
      </trkpt>
      <trkpt lat="49.38049" lon="0.09703">
        <ele>50.5</ele>
        <time>2015-10-18T08:48:37Z</time>
      </trkpt>
      <trkpt lat="49.3805" lon="0.09704">
        <ele>50.5</ele>
        <time>2015-10-18T08:48:38Z</time>
      </trkpt>
      <trkpt lat="49.38051" lon="0.09706">
        <ele>50.4</ele>
        <time>2015-10-18T08:48:39Z</time>
      </trkpt>
      <trkpt lat="49.38052" lon="0.09708">
        <ele>50.4</ele>
        <time>2015-10-18T08:48:40Z</time>
      </trkpt>
      <trkpt lat="49.38053" lon="0.09709">
        <ele>50.3</ele>
        <time>2015-10-18T08:48:41Z</time>
      </trkpt>
      <trkpt lat="49.38053" lon="0.09711">
        <ele>50.5</ele>
        <time>2015-10-18T08:48:42Z</time>
      </trkpt>
      <trkpt lat="49.38054" lon="0.09713">
        <ele>50.7</ele>
        <time>2015-10-18T08:48:43Z</time>
      </trkpt>
      <trkpt lat="49.38055" lon="0.09715">
        <ele>50.8</ele>
        <time>2015-10-18T08:48:44Z</time>
      </trkpt>
      <trkpt lat="49.38056" lon="0.09717">
        <ele>50.6</ele>
        <time>2015-10-18T08:48:45Z</time>
      </trkpt>
      <trkpt lat="49.38056" lon="0.09719">
        <ele>50.5</ele>
        <time>2015-10-18T08:48:46Z</time>
      </trkpt>
      <trkpt lat="49.38057" lon="0.09721">
        <ele>50.5</ele>
        <time>2015-10-18T08:48:47Z</time>
      </trkpt>
      <trkpt lat="49.38059" lon="0.09727">
        <ele>50.3</ele>
        <time>2015-10-18T08:48:50Z</time>
      </trkpt>
      <trkpt lat="49.38062" lon="0.09736">
        <ele>50.5</ele>
        <time>2015-10-18T08:48:54Z</time>
      </trkpt>
      <trkpt lat="49.38063" lon="0.09745">
        <ele>50.8</ele>
        <time>2015-10-18T08:48:57Z</time>
      </trkpt>
      <trkpt lat="49.38063" lon="0.09748">
        <ele>50.9</ele>
        <time>2015-10-18T08:48:58Z</time>
      </trkpt>
      <trkpt lat="49.3806" lon="0.09762">
        <ele>50.8</ele>
        <time>2015-10-18T08:49:08Z</time>
      </trkpt>
      <trkpt lat="49.38059" lon="0.0976">
        <ele>50.6</ele>
        <time>2015-10-18T08:49:09Z</time>
      </trkpt>
      <trkpt lat="49.38058" lon="0.09758">
        <ele>50.5</ele>
        <time>2015-10-18T08:49:10Z</time>
      </trkpt>
      <trkpt lat="49.38056" lon="0.09757">
        <ele>50.5</ele>
        <time>2015-10-18T08:49:11Z</time>
      </trkpt>
      <trkpt lat="49.38055" lon="0.09755">
        <ele>50.2</ele>
        <time>2015-10-18T08:49:12Z</time>
      </trkpt>
      <trkpt lat="49.38054" lon="0.09752">
        <ele>50</ele>
        <time>2015-10-18T08:49:13Z</time>
      </trkpt>
      <trkpt lat="49.38052" lon="0.0975">
        <ele>49.9</ele>
        <time>2015-10-18T08:49:14Z</time>
      </trkpt>
      <trkpt lat="49.3805" lon="0.09747">
        <ele>50</ele>
        <time>2015-10-18T08:49:15Z</time>
      </trkpt>
      <trkpt lat="49.38049" lon="0.09744">
        <ele>50</ele>
        <time>2015-10-18T08:49:16Z</time>
      </trkpt>
      <trkpt lat="49.38047" lon="0.09741">
        <ele>50.1</ele>
        <time>2015-10-18T08:49:17Z</time>
      </trkpt>
      <trkpt lat="49.38045" lon="0.09738">
        <ele>50.3</ele>
        <time>2015-10-18T08:49:18Z</time>
      </trkpt>
      <trkpt lat="49.38043" lon="0.09735">
        <ele>50.5</ele>
        <time>2015-10-18T08:49:19Z</time>
      </trkpt>
      <trkpt lat="49.38042" lon="0.09733">
        <ele>50.7</ele>
        <time>2015-10-18T08:49:20Z</time>
      </trkpt>
      <trkpt lat="49.3804" lon="0.0973">
        <ele>50.8</ele>
        <time>2015-10-18T08:49:21Z</time>
      </trkpt>
      <trkpt lat="49.38039" lon="0.09728">
        <ele>50.8</ele>
        <time>2015-10-18T08:49:22Z</time>
      </trkpt>
      <trkpt lat="49.38037" lon="0.09726">
        <ele>50.9</ele>
        <time>2015-10-18T08:49:23Z</time>
      </trkpt>
      <trkpt lat="49.38036" lon="0.09724">
        <ele>50.5</ele>
        <time>2015-10-18T08:49:24Z</time>
      </trkpt>
      <trkpt lat="49.38035" lon="0.09722">
        <ele>50.3</ele>
        <time>2015-10-18T08:49:25Z</time>
      </trkpt>
      <trkpt lat="49.38034" lon="0.09721">
        <ele>50</ele>
        <time>2015-10-18T08:49:26Z</time>
      </trkpt>
      <trkpt lat="49.38034" lon="0.09719">
        <ele>50.1</ele>
        <time>2015-10-18T08:49:27Z</time>
      </trkpt>
      <trkpt lat="49.38035" lon="0.09718">
        <ele>50.1</ele>
        <time>2015-10-18T08:49:28Z</time>
      </trkpt>
      <trkpt lat="49.38036" lon="0.09715">
        <ele>50.2</ele>
        <time>2015-10-18T08:49:29Z</time>
      </trkpt>
      <trkpt lat="49.38037" lon="0.09712">
        <ele>50</ele>
        <time>2015-10-18T08:49:30Z</time>
      </trkpt>
      <trkpt lat="49.38039" lon="0.0971">
        <ele>49.8</ele>
        <time>2015-10-18T08:49:31Z</time>
      </trkpt>
      <trkpt lat="49.38041" lon="0.09708">
        <ele>49.7</ele>
        <time>2015-10-18T08:49:32Z</time>
      </trkpt>
      <trkpt lat="49.38043" lon="0.09707">
        <ele>50.1</ele>
        <time>2015-10-18T08:49:33Z</time>
      </trkpt>
      <trkpt lat="49.38045" lon="0.09706">
        <ele>50.3</ele>
        <time>2015-10-18T08:49:34Z</time>
      </trkpt>
      <trkpt lat="49.38048" lon="0.09705">
        <ele>50.5</ele>
        <time>2015-10-18T08:49:35Z</time>
      </trkpt>
      <trkpt lat="49.38051" lon="0.09705">
        <ele>50.7</ele>
        <time>2015-10-18T08:49:36Z</time>
      </trkpt>
      <trkpt lat="49.38054" lon="0.09705">
        <ele>50.8</ele>
        <time>2015-10-18T08:49:37Z</time>
      </trkpt>
      <trkpt lat="49.38057" lon="0.09705">
        <ele>50.8</ele>
        <time>2015-10-18T08:49:38Z</time>
      </trkpt>
      <trkpt lat="49.3806" lon="0.09705">
        <ele>50.7</ele>
        <time>2015-10-18T08:49:39Z</time>
      </trkpt>
      <trkpt lat="49.38064" lon="0.09705">
        <ele>50.6</ele>
        <time>2015-10-18T08:49:40Z</time>
      </trkpt>
      <trkpt lat="49.38067" lon="0.09706">
        <ele>50.5</ele>
        <time>2015-10-18T08:49:41Z</time>
      </trkpt>
      <trkpt lat="49.3807" lon="0.09707">
        <ele>50.4</ele>
        <time>2015-10-18T08:49:42Z</time>
      </trkpt>
      <trkpt lat="49.38073" lon="0.09708">
        <ele>50.4</ele>
        <time>2015-10-18T08:49:43Z</time>
      </trkpt>
      <trkpt lat="49.38077" lon="0.09709">
        <ele>50.4</ele>
        <time>2015-10-18T08:49:44Z</time>
      </trkpt>
      <trkpt lat="49.3808" lon="0.09711">
        <ele>50.3</ele>
        <time>2015-10-18T08:49:45Z</time>
      </trkpt>
      <trkpt lat="49.38083" lon="0.09711">
        <ele>50.3</ele>
        <time>2015-10-18T08:49:46Z</time>
      </trkpt>
      <trkpt lat="49.38086" lon="0.09712">
        <ele>50.3</ele>
        <time>2015-10-18T08:49:47Z</time>
      </trkpt>
      <trkpt lat="49.38089" lon="0.09713">
        <ele>50.3</ele>
        <time>2015-10-18T08:49:48Z</time>
      </trkpt>
      <trkpt lat="49.38092" lon="0.09713">
        <ele>50.3</ele>
        <time>2015-10-18T08:49:49Z</time>
      </trkpt>
      <trkpt lat="49.38095" lon="0.09714">
        <ele>50.3</ele>
        <time>2015-10-18T08:49:50Z</time>
      </trkpt>
      <trkpt lat="49.38098" lon="0.09714">
        <ele>50.3</ele>
        <time>2015-10-18T08:49:51Z</time>
      </trkpt>
      <trkpt lat="49.38099" lon="0.09713">
        <ele>50.3</ele>
        <time>2015-10-18T08:49:52Z</time>
      </trkpt>
      <trkpt lat="49.38099" lon="0.09711">
        <ele>50.3</ele>
        <time>2015-10-18T08:49:53Z</time>
      </trkpt>
      <trkpt lat="49.38099" lon="0.0971">
        <ele>50.3</ele>
        <time>2015-10-18T08:49:54Z</time>
      </trkpt>
      <trkpt lat="49.38098" lon="0.09708">
        <ele>50.3</ele>
        <time>2015-10-18T08:49:55Z</time>
      </trkpt>
      <trkpt lat="49.38098" lon="0.09706">
        <ele>50.3</ele>
        <time>2015-10-18T08:49:56Z</time>
      </trkpt>
      <trkpt lat="49.38097" lon="0.09704">
        <ele>50.2</ele>
        <time>2015-10-18T08:49:57Z</time>
      </trkpt>
      <trkpt lat="49.38095" lon="0.09701">
        <ele>50.2</ele>
        <time>2015-10-18T08:49:58Z</time>
      </trkpt>
      <trkpt lat="49.38094" lon="0.09699">
        <ele>50.2</ele>
        <time>2015-10-18T08:49:59Z</time>
      </trkpt>
      <trkpt lat="49.38092" lon="0.09696">
        <ele>50.2</ele>
        <time>2015-10-18T08:50:00Z</time>
      </trkpt>
      <trkpt lat="49.38091" lon="0.09694">
        <ele>50.2</ele>
        <time>2015-10-18T08:50:01Z</time>
      </trkpt>
      <trkpt lat="49.38089" lon="0.09691">
        <ele>50.2</ele>
        <time>2015-10-18T08:50:02Z</time>
      </trkpt>
      <trkpt lat="49.38087" lon="0.09688">
        <ele>50.5</ele>
        <time>2015-10-18T08:50:03Z</time>
      </trkpt>
      <trkpt lat="49.38086" lon="0.09685">
        <ele>50.6</ele>
        <time>2015-10-18T08:50:04Z</time>
      </trkpt>
      <trkpt lat="49.38084" lon="0.09683">
        <ele>50.7</ele>
        <time>2015-10-18T08:50:05Z</time>
      </trkpt>
      <trkpt lat="49.38083" lon="0.09681">
        <ele>50.6</ele>
        <time>2015-10-18T08:50:06Z</time>
      </trkpt>
      <trkpt lat="49.38082" lon="0.09679">
        <ele>50.5</ele>
        <time>2015-10-18T08:50:07Z</time>
      </trkpt>
      <trkpt lat="49.38081" lon="0.09677">
        <ele>50.5</ele>
        <time>2015-10-18T08:50:08Z</time>
      </trkpt>
      <trkpt lat="49.3808" lon="0.09675">
        <ele>50.4</ele>
        <time>2015-10-18T08:50:09Z</time>
      </trkpt>
      <trkpt lat="49.3808" lon="0.09674">
        <ele>50.4</ele>
        <time>2015-10-18T08:50:10Z</time>
      </trkpt>
      <trkpt lat="49.38079" lon="0.09672">
        <ele>50.3</ele>
        <time>2015-10-18T08:50:11Z</time>
      </trkpt>
      <trkpt lat="49.38078" lon="0.0967">
        <ele>50.3</ele>
        <time>2015-10-18T08:50:12Z</time>
      </trkpt>
      <trkpt lat="49.38078" lon="0.09669">
        <ele>50.3</ele>
        <time>2015-10-18T08:50:13Z</time>
      </trkpt>
      <trkpt lat="49.38077" lon="0.09667">
        <ele>50.3</ele>
        <time>2015-10-18T08:50:14Z</time>
      </trkpt>
      <trkpt lat="49.38077" lon="0.09666">
        <ele>50.1</ele>
        <time>2015-10-18T08:50:15Z</time>
      </trkpt>
      <trkpt lat="49.38076" lon="0.09665">
        <ele>49.9</ele>
        <time>2015-10-18T08:50:16Z</time>
      </trkpt>
      <trkpt lat="49.38076" lon="0.09663">
        <ele>49.8</ele>
        <time>2015-10-18T08:50:17Z</time>
      </trkpt>
      <trkpt lat="49.38075" lon="0.09662">
        <ele>50.1</ele>
        <time>2015-10-18T08:50:18Z</time>
      </trkpt>
      <trkpt lat="49.38075" lon="0.0966">
        <ele>50.3</ele>
        <time>2015-10-18T08:50:19Z</time>
      </trkpt>
      <trkpt lat="49.38074" lon="0.09659">
        <ele>50.5</ele>
        <time>2015-10-18T08:50:20Z</time>
      </trkpt>
      <trkpt lat="49.38074" lon="0.09658">
        <ele>50.5</ele>
        <time>2015-10-18T08:50:21Z</time>
      </trkpt>
      <trkpt lat="49.38073" lon="0.09656">
        <ele>50.4</ele>
        <time>2015-10-18T08:50:22Z</time>
      </trkpt>
      <trkpt lat="49.38073" lon="0.09655">
        <ele>50.4</ele>
        <time>2015-10-18T08:50:23Z</time>
      </trkpt>
      <trkpt lat="49.38072" lon="0.09654">
        <ele>50.3</ele>
        <time>2015-10-18T08:50:24Z</time>
      </trkpt>
      <trkpt lat="49.38071" lon="0.09652">
        <ele>50.3</ele>
        <time>2015-10-18T08:50:25Z</time>
      </trkpt>
      <trkpt lat="49.38071" lon="0.09651">
        <ele>50.3</ele>
        <time>2015-10-18T08:50:26Z</time>
      </trkpt>
      <trkpt lat="49.3807" lon="0.0965">
        <ele>50.3</ele>
        <time>2015-10-18T08:50:27Z</time>
      </trkpt>
      <trkpt lat="49.3807" lon="0.09649">
        <ele>50.3</ele>
        <time>2015-10-18T08:50:28Z</time>
      </trkpt>
      <trkpt lat="49.38069" lon="0.09648">
        <ele>50.3</ele>
        <time>2015-10-18T08:50:29Z</time>
      </trkpt>
      <trkpt lat="49.38069" lon="0.09647">
        <ele>50.5</ele>
        <time>2015-10-18T08:50:30Z</time>
      </trkpt>
      <trkpt lat="49.38068" lon="0.09646">
        <ele>50.6</ele>
        <time>2015-10-18T08:50:31Z</time>
      </trkpt>
      <trkpt lat="49.38067" lon="0.09645">
        <ele>50.7</ele>
        <time>2015-10-18T08:50:32Z</time>
      </trkpt>
      <trkpt lat="49.38066" lon="0.09644">
        <ele>50.6</ele>
        <time>2015-10-18T08:50:33Z</time>
      </trkpt>
      <trkpt lat="49.38066" lon="0.09643">
        <ele>50.5</ele>
        <time>2015-10-18T08:50:34Z</time>
      </trkpt>
      <trkpt lat="49.38065" lon="0.09643">
        <ele>50.5</ele>
        <time>2015-10-18T08:50:35Z</time>
      </trkpt>
      <trkpt lat="49.38064" lon="0.09642">
        <ele>50.4</ele>
        <time>2015-10-18T08:50:36Z</time>
      </trkpt>
      <trkpt lat="49.38063" lon="0.09641">
        <ele>50.4</ele>
        <time>2015-10-18T08:50:37Z</time>
      </trkpt>
      <trkpt lat="49.38062" lon="0.0964">
        <ele>50.3</ele>
        <time>2015-10-18T08:50:38Z</time>
      </trkpt>
      <trkpt lat="49.38061" lon="0.09639">
        <ele>50.3</ele>
        <time>2015-10-18T08:50:39Z</time>
      </trkpt>
      <trkpt lat="49.38061" lon="0.09638">
        <ele>50.3</ele>
        <time>2015-10-18T08:50:40Z</time>
      </trkpt>
      <trkpt lat="49.3806" lon="0.09638">
        <ele>50.3</ele>
        <time>2015-10-18T08:50:41Z</time>
      </trkpt>
      <trkpt lat="49.38059" lon="0.09637">
        <ele>50.3</ele>
        <time>2015-10-18T08:50:42Z</time>
      </trkpt>
      <trkpt lat="49.38059" lon="0.09636">
        <ele>50.3</ele>
        <time>2015-10-18T08:50:43Z</time>
      </trkpt>
      <trkpt lat="49.38058" lon="0.09636">
        <ele>50.3</ele>
        <time>2015-10-18T08:50:44Z</time>
      </trkpt>
      <trkpt lat="49.38057" lon="0.09636">
        <ele>50.3</ele>
        <time>2015-10-18T08:50:45Z</time>
      </trkpt>
      <trkpt lat="49.38057" lon="0.09636">
        <ele>50.3</ele>
        <time>2015-10-18T08:50:46Z</time>
      </trkpt>
      <trkpt lat="49.38056" lon="0.09636">
        <ele>50.3</ele>
        <time>2015-10-18T08:50:47Z</time>
      </trkpt>
      <trkpt lat="49.38056" lon="0.09636">
        <ele>50.5</ele>
        <time>2015-10-18T08:50:48Z</time>
      </trkpt>
      <trkpt lat="49.38056" lon="0.09636">
        <ele>50.6</ele>
        <time>2015-10-18T08:50:49Z</time>
      </trkpt>
      <trkpt lat="49.38055" lon="0.09635">
        <ele>50.7</ele>
        <time>2015-10-18T08:50:50Z</time>
      </trkpt>
      <trkpt lat="49.38055" lon="0.09635">
        <ele>50.8</ele>
        <time>2015-10-18T08:50:51Z</time>
      </trkpt>
      <trkpt lat="49.38054" lon="0.09635">
        <ele>50.9</ele>
        <time>2015-10-18T08:50:52Z</time>
      </trkpt>
      <trkpt lat="49.38054" lon="0.09635">
        <ele>50.9</ele>
        <time>2015-10-18T08:50:53Z</time>
      </trkpt>
      <trkpt lat="49.38054" lon="0.09635">
        <ele>51</ele>
        <time>2015-10-18T08:50:54Z</time>
      </trkpt>
      <trkpt lat="49.38054" lon="0.09635">
        <ele>51</ele>
        <time>2015-10-18T08:50:55Z</time>
      </trkpt>
      <trkpt lat="49.38053" lon="0.09635">
        <ele>51</ele>
        <time>2015-10-18T08:50:56Z</time>
      </trkpt>
      <trkpt lat="49.38053" lon="0.09635">
        <ele>51</ele>
        <time>2015-10-18T08:50:57Z</time>
      </trkpt>
      <trkpt lat="49.38053" lon="0.09635">
        <ele>51</ele>
        <time>2015-10-18T08:50:58Z</time>
      </trkpt>
      <trkpt lat="49.38052" lon="0.09635">
        <ele>51.1</ele>
        <time>2015-10-18T08:50:59Z</time>
      </trkpt>
      <trkpt lat="49.38052" lon="0.09635">
        <ele>51.1</ele>
        <time>2015-10-18T08:51:00Z</time>
      </trkpt>
      <trkpt lat="49.38052" lon="0.09635">
        <ele>51.1</ele>
        <time>2015-10-18T08:51:01Z</time>
      </trkpt>
      <trkpt lat="49.38051" lon="0.09636">
        <ele>51.1</ele>
        <time>2015-10-18T08:51:02Z</time>
      </trkpt>
      <trkpt lat="49.38051" lon="0.09636">
        <ele>51.3</ele>
        <time>2015-10-18T08:51:03Z</time>
      </trkpt>
      <trkpt lat="49.38051" lon="0.09636">
        <ele>51.4</ele>
        <time>2015-10-18T08:51:04Z</time>
      </trkpt>
      <trkpt lat="49.38051" lon="0.09636">
        <ele>51.6</ele>
        <time>2015-10-18T08:51:05Z</time>
      </trkpt>
      <trkpt lat="49.3805" lon="0.09636">
        <ele>51.4</ele>
        <time>2015-10-18T08:51:06Z</time>
      </trkpt>
      <trkpt lat="49.3805" lon="0.09636">
        <ele>51.3</ele>
        <time>2015-10-18T08:51:07Z</time>
      </trkpt>
      <trkpt lat="49.3805" lon="0.09636">
        <ele>51.3</ele>
        <time>2015-10-18T08:51:08Z</time>
      </trkpt>
      <trkpt lat="49.3805" lon="0.09637">
        <ele>51</ele>
        <time>2015-10-18T08:51:09Z</time>
      </trkpt>
      <trkpt lat="49.38049" lon="0.09637">
        <ele>50.8</ele>
        <time>2015-10-18T08:51:10Z</time>
      </trkpt>
      <trkpt lat="49.38049" lon="0.09637">
        <ele>50.7</ele>
        <time>2015-10-18T08:51:11Z</time>
      </trkpt>
      <trkpt lat="49.38049" lon="0.09637">
        <ele>50.6</ele>
        <time>2015-10-18T08:51:12Z</time>
      </trkpt>
      <trkpt lat="49.38049" lon="0.09637">
        <ele>50.5</ele>
        <time>2015-10-18T08:51:13Z</time>
      </trkpt>
      <trkpt lat="49.38048" lon="0.09638">
        <ele>50.4</ele>
        <time>2015-10-18T08:51:14Z</time>
      </trkpt>
      <trkpt lat="49.38048" lon="0.09638">
        <ele>50.4</ele>
        <time>2015-10-18T08:51:15Z</time>
      </trkpt>
      <trkpt lat="49.38048" lon="0.09638">
        <ele>50.4</ele>
        <time>2015-10-18T08:51:16Z</time>
      </trkpt>
      <trkpt lat="49.38047" lon="0.09638">
        <ele>50.3</ele>
        <time>2015-10-18T08:51:17Z</time>
      </trkpt>
      <trkpt lat="49.38047" lon="0.09638">
        <ele>50.5</ele>
        <time>2015-10-18T08:51:18Z</time>
      </trkpt>
      <trkpt lat="49.38047" lon="0.09638">
        <ele>50.7</ele>
        <time>2015-10-18T08:51:19Z</time>
      </trkpt>
      <trkpt lat="49.38047" lon="0.09639">
        <ele>50.8</ele>
        <time>2015-10-18T08:51:20Z</time>
      </trkpt>
      <trkpt lat="49.38047" lon="0.09639">
        <ele>50.6</ele>
        <time>2015-10-18T08:51:21Z</time>
      </trkpt>
      <trkpt lat="49.38046" lon="0.09639">
        <ele>50.5</ele>
        <time>2015-10-18T08:51:22Z</time>
      </trkpt>
      <trkpt lat="49.38046" lon="0.09639">
        <ele>50.5</ele>
        <time>2015-10-18T08:51:23Z</time>
      </trkpt>
      <trkpt lat="49.38046" lon="0.0964">
        <ele>50.4</ele>
        <time>2015-10-18T08:51:24Z</time>
      </trkpt>
      <trkpt lat="49.38046" lon="0.0964">
        <ele>50.4</ele>
        <time>2015-10-18T08:51:25Z</time>
      </trkpt>
      <trkpt lat="49.38046" lon="0.0964">
        <ele>50.3</ele>
        <time>2015-10-18T08:51:26Z</time>
      </trkpt>
      <trkpt lat="49.38046" lon="0.0964">
        <ele>50.5</ele>
        <time>2015-10-18T08:51:27Z</time>
      </trkpt>
      <trkpt lat="49.38046" lon="0.09641">
        <ele>50.7</ele>
        <time>2015-10-18T08:51:28Z</time>
      </trkpt>
      <trkpt lat="49.38045" lon="0.09641">
        <ele>50.8</ele>
        <time>2015-10-18T08:51:29Z</time>
      </trkpt>
      <trkpt lat="49.38045" lon="0.09641">
        <ele>50.6</ele>
        <time>2015-10-18T08:51:30Z</time>
      </trkpt>
      <trkpt lat="49.38045" lon="0.09641">
        <ele>50.5</ele>
        <time>2015-10-18T08:51:31Z</time>
      </trkpt>
      <trkpt lat="49.38045" lon="0.09642">
        <ele>50.5</ele>
        <time>2015-10-18T08:51:32Z</time>
      </trkpt>
      <trkpt lat="49.38045" lon="0.09642">
        <ele>50.4</ele>
        <time>2015-10-18T08:51:33Z</time>
      </trkpt>
      <trkpt lat="49.38045" lon="0.09642">
        <ele>50.4</ele>
        <time>2015-10-18T08:51:34Z</time>
      </trkpt>
      <trkpt lat="49.38045" lon="0.09642">
        <ele>50.3</ele>
        <time>2015-10-18T08:51:35Z</time>
      </trkpt>
      <trkpt lat="49.38045" lon="0.09643">
        <ele>50.3</ele>
        <time>2015-10-18T08:51:36Z</time>
      </trkpt>
      <trkpt lat="49.38045" lon="0.09643">
        <ele>50.3</ele>
        <time>2015-10-18T08:51:37Z</time>
      </trkpt>
      <trkpt lat="49.38045" lon="0.09643">
        <ele>50.3</ele>
        <time>2015-10-18T08:51:38Z</time>
      </trkpt>
      <trkpt lat="49.38045" lon="0.09643">
        <ele>50.3</ele>
        <time>2015-10-18T08:51:39Z</time>
      </trkpt>
      <trkpt lat="49.38045" lon="0.09644">
        <ele>50.3</ele>
        <time>2015-10-18T08:51:40Z</time>
      </trkpt>
      <trkpt lat="49.38045" lon="0.09644">
        <ele>50.3</ele>
        <time>2015-10-18T08:51:41Z</time>
      </trkpt>
      <trkpt lat="49.38045" lon="0.09644">
        <ele>49.6</ele>
        <time>2015-10-18T08:51:42Z</time>
      </trkpt>
      <trkpt lat="49.38045" lon="0.09644">
        <ele>49.2</ele>
        <time>2015-10-18T08:51:43Z</time>
      </trkpt>
      <trkpt lat="49.38045" lon="0.09645">
        <ele>48.8</ele>
        <time>2015-10-18T08:51:44Z</time>
      </trkpt>
      <trkpt lat="49.38045" lon="0.09645">
        <ele>49.2</ele>
        <time>2015-10-18T08:51:45Z</time>
      </trkpt>
      <trkpt lat="49.38045" lon="0.09645">
        <ele>49.4</ele>
        <time>2015-10-18T08:51:46Z</time>
      </trkpt>
      <trkpt lat="49.38045" lon="0.09645">
        <ele>49.6</ele>
        <time>2015-10-18T08:51:47Z</time>
      </trkpt>
      <trkpt lat="49.38045" lon="0.09645">
        <ele>49.8</ele>
        <time>2015-10-18T08:51:48Z</time>
      </trkpt>
      <trkpt lat="49.38045" lon="0.09645">
        <ele>49.9</ele>
        <time>2015-10-18T08:51:49Z</time>
      </trkpt>
      <trkpt lat="49.38045" lon="0.09645">
        <ele>50</ele>
        <time>2015-10-18T08:51:50Z</time>
      </trkpt>
      <trkpt lat="49.38044" lon="0.09645">
        <ele>50.1</ele>
        <time>2015-10-18T08:51:51Z</time>
      </trkpt>
      <trkpt lat="49.38044" lon="0.09645">
        <ele>50.1</ele>
        <time>2015-10-18T08:51:52Z</time>
      </trkpt>
      <trkpt lat="49.38044" lon="0.09646">
        <ele>50.1</ele>
        <time>2015-10-18T08:51:53Z</time>
      </trkpt>
      <trkpt lat="49.38044" lon="0.09646">
        <ele>50.2</ele>
        <time>2015-10-18T08:51:54Z</time>
      </trkpt>
      <trkpt lat="49.38044" lon="0.09646">
        <ele>50.2</ele>
        <time>2015-10-18T08:51:55Z</time>
      </trkpt>
      <trkpt lat="49.38044" lon="0.09646">
        <ele>50.2</ele>
        <time>2015-10-18T08:51:56Z</time>
      </trkpt>
      <trkpt lat="49.38044" lon="0.09646">
        <ele>50.2</ele>
        <time>2015-10-18T08:51:57Z</time>
      </trkpt>
      <trkpt lat="49.38044" lon="0.09646">
        <ele>50.2</ele>
        <time>2015-10-18T08:51:58Z</time>
      </trkpt>
      <trkpt lat="49.38044" lon="0.09646">
        <ele>50.2</ele>
        <time>2015-10-18T08:51:59Z</time>
      </trkpt>
      <trkpt lat="49.38044" lon="0.09646">
        <ele>50.2</ele>
        <time>2015-10-18T08:52:00Z</time>
      </trkpt>
      <trkpt lat="49.38044" lon="0.09646">
        <ele>50.2</ele>
        <time>2015-10-18T08:52:01Z</time>
      </trkpt>
      <trkpt lat="49.38044" lon="0.09646">
        <ele>50.2</ele>
        <time>2015-10-18T08:52:02Z</time>
      </trkpt>
      <trkpt lat="49.38044" lon="0.09646">
        <ele>50.2</ele>
        <time>2015-10-18T08:52:03Z</time>
      </trkpt>
      <trkpt lat="49.38044" lon="0.09647">
        <ele>50.2</ele>
        <time>2015-10-18T08:52:04Z</time>
      </trkpt>
      <trkpt lat="49.38044" lon="0.09647">
        <ele>50.2</ele>
        <time>2015-10-18T08:52:05Z</time>
      </trkpt>
      <trkpt lat="49.38044" lon="0.09647">
        <ele>50.2</ele>
        <time>2015-10-18T08:52:06Z</time>
      </trkpt>
      <trkpt lat="49.38044" lon="0.09647">
        <ele>50.2</ele>
        <time>2015-10-18T08:52:07Z</time>
      </trkpt>
      <trkpt lat="49.38044" lon="0.09647">
        <ele>50.2</ele>
        <time>2015-10-18T08:52:08Z</time>
      </trkpt>
      <trkpt lat="49.38044" lon="0.09647">
        <ele>50.2</ele>
        <time>2015-10-18T08:52:09Z</time>
      </trkpt>
      <trkpt lat="49.38044" lon="0.09647">
        <ele>50.2</ele>
        <time>2015-10-18T08:52:10Z</time>
      </trkpt>
      <trkpt lat="49.38044" lon="0.09647">
        <ele>50.2</ele>
        <time>2015-10-18T08:52:11Z</time>
      </trkpt>
      <trkpt lat="49.38044" lon="0.09647">
        <ele>50.2</ele>
        <time>2015-10-18T08:52:12Z</time>
      </trkpt>
      <trkpt lat="49.38043" lon="0.09647">
        <ele>50.2</ele>
        <time>2015-10-18T08:52:13Z</time>
      </trkpt>
      <trkpt lat="49.38043" lon="0.09647">
        <ele>50.2</ele>
        <time>2015-10-18T08:52:14Z</time>
      </trkpt>
      <trkpt lat="49.38043" lon="0.09648">
        <ele>50.2</ele>
        <time>2015-10-18T08:52:15Z</time>
      </trkpt>
      <trkpt lat="49.38043" lon="0.09648">
        <ele>50.2</ele>
        <time>2015-10-18T08:52:16Z</time>
      </trkpt>
      <trkpt lat="49.38043" lon="0.09648">
        <ele>50.2</ele>
        <time>2015-10-18T08:52:17Z</time>
      </trkpt>
      <trkpt lat="49.38043" lon="0.09648">
        <ele>50.2</ele>
        <time>2015-10-18T08:52:18Z</time>
      </trkpt>
      <trkpt lat="49.38043" lon="0.09648">
        <ele>50.2</ele>
        <time>2015-10-18T08:52:19Z</time>
      </trkpt>
      <trkpt lat="49.38043" lon="0.09648">
        <ele>50.2</ele>
        <time>2015-10-18T08:52:20Z</time>
      </trkpt>
      <trkpt lat="49.38044" lon="0.09648">
        <ele>50.2</ele>
        <time>2015-10-18T08:52:21Z</time>
      </trkpt>
      <trkpt lat="49.38044" lon="0.09649">
        <ele>50.2</ele>
        <time>2015-10-18T08:52:22Z</time>
      </trkpt>
      <trkpt lat="49.38044" lon="0.09649">
        <ele>50.2</ele>
        <time>2015-10-18T08:52:23Z</time>
      </trkpt>
      <trkpt lat="49.38044" lon="0.09649">
        <ele>50.5</ele>
        <time>2015-10-18T08:52:24Z</time>
      </trkpt>
      <trkpt lat="49.38044" lon="0.09649">
        <ele>50.6</ele>
        <time>2015-10-18T08:52:25Z</time>
      </trkpt>
      <trkpt lat="49.38044" lon="0.09649">
        <ele>50.7</ele>
        <time>2015-10-18T08:52:26Z</time>
      </trkpt>
      <trkpt lat="49.38044" lon="0.09649">
        <ele>50.6</ele>
        <time>2015-10-18T08:52:27Z</time>
      </trkpt>
      <trkpt lat="49.38044" lon="0.09649">
        <ele>50.5</ele>
        <time>2015-10-18T08:52:28Z</time>
      </trkpt>
      <trkpt lat="49.38044" lon="0.09649">
        <ele>50.5</ele>
        <time>2015-10-18T08:52:29Z</time>
      </trkpt>
      <trkpt lat="49.38044" lon="0.09649">
        <ele>50.4</ele>
        <time>2015-10-18T08:52:30Z</time>
      </trkpt>
      <trkpt lat="49.38044" lon="0.09649">
        <ele>50.4</ele>
        <time>2015-10-18T08:52:31Z</time>
      </trkpt>
      <trkpt lat="49.38044" lon="0.09649">
        <ele>50.3</ele>
        <time>2015-10-18T08:52:32Z</time>
      </trkpt>
      <trkpt lat="49.38045" lon="0.09649">
        <ele>50.3</ele>
        <time>2015-10-18T08:52:33Z</time>
      </trkpt>
      <trkpt lat="49.38045" lon="0.09648">
        <ele>50.3</ele>
        <time>2015-10-18T08:52:34Z</time>
      </trkpt>
      <trkpt lat="49.38045" lon="0.09648">
        <ele>50.3</ele>
        <time>2015-10-18T08:52:35Z</time>
      </trkpt>
      <trkpt lat="49.38045" lon="0.09648">
        <ele>50.3</ele>
        <time>2015-10-18T08:52:36Z</time>
      </trkpt>
      <trkpt lat="49.38045" lon="0.09647">
        <ele>50.3</ele>
        <time>2015-10-18T08:52:37Z</time>
      </trkpt>
      <trkpt lat="49.38045" lon="0.09647">
        <ele>50.3</ele>
        <time>2015-10-18T08:52:38Z</time>
      </trkpt>
      <trkpt lat="49.38046" lon="0.09646">
        <ele>50.3</ele>
        <time>2015-10-18T08:52:39Z</time>
      </trkpt>
      <trkpt lat="49.38046" lon="0.09646">
        <ele>50.3</ele>
        <time>2015-10-18T08:52:40Z</time>
      </trkpt>
      <trkpt lat="49.38046" lon="0.09646">
        <ele>50.3</ele>
        <time>2015-10-18T08:52:41Z</time>
      </trkpt>
      <trkpt lat="49.38046" lon="0.09645">
        <ele>50</ele>
        <time>2015-10-18T08:52:42Z</time>
      </trkpt>
      <trkpt lat="49.38046" lon="0.09645">
        <ele>49.9</ele>
        <time>2015-10-18T08:52:43Z</time>
      </trkpt>
      <trkpt lat="49.38046" lon="0.09645">
        <ele>49.8</ele>
        <time>2015-10-18T08:52:44Z</time>
      </trkpt>
      <trkpt lat="49.38047" lon="0.09645">
        <ele>49.7</ele>
        <time>2015-10-18T08:52:45Z</time>
      </trkpt>
      <trkpt lat="49.38047" lon="0.09645">
        <ele>49.6</ele>
        <time>2015-10-18T08:52:46Z</time>
      </trkpt>
      <trkpt lat="49.38047" lon="0.09644">
        <ele>49.6</ele>
        <time>2015-10-18T08:52:47Z</time>
      </trkpt>
      <trkpt lat="49.38047" lon="0.09644">
        <ele>49.3</ele>
        <time>2015-10-18T08:52:48Z</time>
      </trkpt>
      <trkpt lat="49.38047" lon="0.09644">
        <ele>49.1</ele>
        <time>2015-10-18T08:52:49Z</time>
      </trkpt>
      <trkpt lat="49.38047" lon="0.09644">
        <ele>49</ele>
        <time>2015-10-18T08:52:50Z</time>
      </trkpt>
      <trkpt lat="49.38047" lon="0.09645">
        <ele>51.7</ele>
        <time>2015-10-18T08:52:58Z</time>
      </trkpt>
      <trkpt lat="49.38047" lon="0.09645">
        <ele>52.1</ele>
        <time>2015-10-18T08:52:59Z</time>
      </trkpt>
      <trkpt lat="49.38047" lon="0.09645">
        <ele>52.1</ele>
        <time>2015-10-18T08:53:00Z</time>
      </trkpt>
      <trkpt lat="49.38047" lon="0.09645">
        <ele>52</ele>
        <time>2015-10-18T08:53:01Z</time>
      </trkpt>
      <trkpt lat="49.38047" lon="0.09645">
        <ele>52</ele>
        <time>2015-10-18T08:53:02Z</time>
      </trkpt>
      <trkpt lat="49.38046" lon="0.09645">
        <ele>51.8</ele>
        <time>2015-10-18T08:53:03Z</time>
      </trkpt>
      <trkpt lat="49.38046" lon="0.09645">
        <ele>51.6</ele>
        <time>2015-10-18T08:53:04Z</time>
      </trkpt>
      <trkpt lat="49.38046" lon="0.09646">
        <ele>51.5</ele>
        <time>2015-10-18T08:53:05Z</time>
      </trkpt>
      <trkpt lat="49.38046" lon="0.09646">
        <ele>51.4</ele>
        <time>2015-10-18T08:53:06Z</time>
      </trkpt>
      <trkpt lat="49.38046" lon="0.09646">
        <ele>51.3</ele>
        <time>2015-10-18T08:53:07Z</time>
      </trkpt>
      <trkpt lat="49.38046" lon="0.09646">
        <ele>51.2</ele>
        <time>2015-10-18T08:53:08Z</time>
      </trkpt>
      <trkpt lat="49.38046" lon="0.09647">
        <ele>51</ele>
        <time>2015-10-18T08:53:09Z</time>
      </trkpt>
      <trkpt lat="49.38047" lon="0.09647">
        <ele>50.8</ele>
        <time>2015-10-18T08:53:10Z</time>
      </trkpt>
      <trkpt lat="49.38047" lon="0.09647">
        <ele>50.7</ele>
        <time>2015-10-18T08:53:11Z</time>
      </trkpt>
      <trkpt lat="49.38047" lon="0.09647">
        <ele>50.8</ele>
        <time>2015-10-18T08:53:12Z</time>
      </trkpt>
      <trkpt lat="49.38047" lon="0.09648">
        <ele>50.8</ele>
        <time>2015-10-18T08:53:13Z</time>
      </trkpt>
      <trkpt lat="49.38047" lon="0.09648">
        <ele>50.9</ele>
        <time>2015-10-18T08:53:14Z</time>
      </trkpt>
      <trkpt lat="49.38047" lon="0.09648">
        <ele>50.7</ele>
        <time>2015-10-18T08:53:15Z</time>
      </trkpt>
      <trkpt lat="49.38046" lon="0.09648">
        <ele>50.6</ele>
        <time>2015-10-18T08:53:16Z</time>
      </trkpt>
      <trkpt lat="49.38046" lon="0.09648">
        <ele>50.5</ele>
        <time>2015-10-18T08:53:17Z</time>
      </trkpt>
      <trkpt lat="49.38046" lon="0.09648">
        <ele>50.2</ele>
        <time>2015-10-18T08:53:18Z</time>
      </trkpt>
      <trkpt lat="49.38046" lon="0.09648">
        <ele>50</ele>
        <time>2015-10-18T08:53:19Z</time>
      </trkpt>
      <trkpt lat="49.38046" lon="0.09648">
        <ele>49.9</ele>
        <time>2015-10-18T08:53:20Z</time>
      </trkpt>
      <trkpt lat="49.38046" lon="0.09648">
        <ele>50.2</ele>
        <time>2015-10-18T08:53:21Z</time>
      </trkpt>
      <trkpt lat="49.38046" lon="0.09648">
        <ele>50.4</ele>
        <time>2015-10-18T08:53:22Z</time>
      </trkpt>
      <trkpt lat="49.38046" lon="0.09648">
        <ele>50.6</ele>
        <time>2015-10-18T08:53:23Z</time>
      </trkpt>
      <trkpt lat="49.38046" lon="0.09648">
        <ele>50.9</ele>
        <time>2015-10-18T08:53:24Z</time>
      </trkpt>
      <trkpt lat="49.38046" lon="0.09648">
        <ele>51.2</ele>
        <time>2015-10-18T08:53:25Z</time>
      </trkpt>
      <trkpt lat="49.38045" lon="0.09648">
        <ele>51.3</ele>
        <time>2015-10-18T08:53:26Z</time>
      </trkpt>
      <trkpt lat="49.38045" lon="0.09648">
        <ele>51.1</ele>
        <time>2015-10-18T08:53:27Z</time>
      </trkpt>
      <trkpt lat="49.38045" lon="0.09648">
        <ele>50.9</ele>
        <time>2015-10-18T08:53:28Z</time>
      </trkpt>
      <trkpt lat="49.38045" lon="0.09648">
        <ele>50.7</ele>
        <time>2015-10-18T08:53:29Z</time>
      </trkpt>
      <trkpt lat="49.38045" lon="0.09648">
        <ele>49.6</ele>
        <time>2015-10-18T08:53:30Z</time>
      </trkpt>
      <trkpt lat="49.38045" lon="0.09648">
        <ele>48.7</ele>
        <time>2015-10-18T08:53:31Z</time>
      </trkpt>
      <trkpt lat="49.38044" lon="0.09647">
        <ele>48</ele>
        <time>2015-10-18T08:53:32Z</time>
      </trkpt>
      <trkpt lat="49.38044" lon="0.09647">
        <ele>48.2</ele>
        <time>2015-10-18T08:53:33Z</time>
      </trkpt>
      <trkpt lat="49.38044" lon="0.09647">
        <ele>48.3</ele>
        <time>2015-10-18T08:53:34Z</time>
      </trkpt>
      <trkpt lat="49.38044" lon="0.09647">
        <ele>48.4</ele>
        <time>2015-10-18T08:53:35Z</time>
      </trkpt>
      <trkpt lat="49.38043" lon="0.09647">
        <ele>48</ele>
        <time>2015-10-18T08:53:36Z</time>
      </trkpt>
      <trkpt lat="49.38043" lon="0.09647">
        <ele>47.7</ele>
        <time>2015-10-18T08:53:37Z</time>
      </trkpt>
      <trkpt lat="49.38043" lon="0.09647">
        <ele>47.5</ele>
        <time>2015-10-18T08:53:38Z</time>
      </trkpt>
      <trkpt lat="49.38043" lon="0.09647">
        <ele>46.7</ele>
        <time>2015-10-18T08:53:39Z</time>
      </trkpt>
      <trkpt lat="49.38042" lon="0.09646">
        <ele>46.2</ele>
        <time>2015-10-18T08:53:40Z</time>
      </trkpt>
      <trkpt lat="49.38042" lon="0.09646">
        <ele>45.7</ele>
        <time>2015-10-18T08:53:41Z</time>
      </trkpt>
      <trkpt lat="49.38042" lon="0.09646">
        <ele>48.1</ele>
        <time>2015-10-18T08:53:42Z</time>
      </trkpt>
      <trkpt lat="49.38042" lon="0.09645">
        <ele>49.9</ele>
        <time>2015-10-18T08:53:43Z</time>
      </trkpt>
      <trkpt lat="49.38042" lon="0.09645">
        <ele>51.2</ele>
        <time>2015-10-18T08:53:44Z</time>
      </trkpt>
      <trkpt lat="49.38042" lon="0.09644">
        <ele>51</ele>
        <time>2015-10-18T08:53:45Z</time>
      </trkpt>
      <trkpt lat="49.38042" lon="0.09644">
        <ele>50.8</ele>
        <time>2015-10-18T08:53:46Z</time>
      </trkpt>
      <trkpt lat="49.38042" lon="0.09643">
        <ele>50.7</ele>
        <time>2015-10-18T08:53:47Z</time>
      </trkpt>
      <trkpt lat="49.38042" lon="0.09643">
        <ele>50.6</ele>
        <time>2015-10-18T08:53:48Z</time>
      </trkpt>
      <trkpt lat="49.38041" lon="0.09643">
        <ele>50.5</ele>
        <time>2015-10-18T08:53:49Z</time>
      </trkpt>
      <trkpt lat="49.3804" lon="0.09642">
        <ele>50.4</ele>
        <time>2015-10-18T08:53:50Z</time>
      </trkpt>
      <trkpt lat="49.3804" lon="0.09642">
        <ele>50.2</ele>
        <time>2015-10-18T08:53:51Z</time>
      </trkpt>
      <trkpt lat="49.38039" lon="0.09641">
        <ele>50</ele>
        <time>2015-10-18T08:53:52Z</time>
      </trkpt>
      <trkpt lat="49.38039" lon="0.09641">
        <ele>49.8</ele>
        <time>2015-10-18T08:53:53Z</time>
      </trkpt>
      <trkpt lat="49.38038" lon="0.09641">
        <ele>51</ele>
        <time>2015-10-18T08:53:54Z</time>
      </trkpt>
      <trkpt lat="49.38038" lon="0.0964">
        <ele>51.8</ele>
        <time>2015-10-18T08:53:55Z</time>
      </trkpt>
      <trkpt lat="49.38038" lon="0.0964">
        <ele>52.5</ele>
        <time>2015-10-18T08:53:56Z</time>
      </trkpt>
      <trkpt lat="49.38038" lon="0.0964">
        <ele>52.3</ele>
        <time>2015-10-18T08:53:57Z</time>
      </trkpt>
      <trkpt lat="49.38038" lon="0.0964">
        <ele>52.2</ele>
        <time>2015-10-18T08:53:58Z</time>
      </trkpt>
      <trkpt lat="49.38038" lon="0.0964">
        <ele>52.2</ele>
        <time>2015-10-18T08:53:59Z</time>
      </trkpt>
      <trkpt lat="49.38038" lon="0.09641">
        <ele>52.1</ele>
        <time>2015-10-18T08:54:00Z</time>
      </trkpt>
      <trkpt lat="49.38039" lon="0.09641">
        <ele>52</ele>
        <time>2015-10-18T08:54:01Z</time>
      </trkpt>
      <trkpt lat="49.38039" lon="0.09641">
        <ele>52</ele>
        <time>2015-10-18T08:54:02Z</time>
      </trkpt>
      <trkpt lat="49.38039" lon="0.09642">
        <ele>51.8</ele>
        <time>2015-10-18T08:54:03Z</time>
      </trkpt>
      <trkpt lat="49.38039" lon="0.09643">
        <ele>51.6</ele>
        <time>2015-10-18T08:54:04Z</time>
      </trkpt>
      <trkpt lat="49.3804" lon="0.09644">
        <ele>51.5</ele>
        <time>2015-10-18T08:54:05Z</time>
      </trkpt>
      <trkpt lat="49.3804" lon="0.09644">
        <ele>47.8</ele>
        <time>2015-10-18T08:54:06Z</time>
      </trkpt>
      <trkpt lat="49.3804" lon="0.09645">
        <ele>45.1</ele>
        <time>2015-10-18T08:54:07Z</time>
      </trkpt>
      <trkpt lat="49.3804" lon="0.09645">
        <ele>43.1</ele>
        <time>2015-10-18T08:54:08Z</time>
      </trkpt>
      <trkpt lat="49.38041" lon="0.09646">
        <ele>45.8</ele>
        <time>2015-10-18T08:54:10Z</time>
      </trkpt>
      <trkpt lat="49.38041" lon="0.09646">
        <ele>46.7</ele>
        <time>2015-10-18T08:54:11Z</time>
      </trkpt>
      <trkpt lat="49.38041" lon="0.09646">
        <ele>47.8</ele>
        <time>2015-10-18T08:54:12Z</time>
      </trkpt>
      <trkpt lat="49.38041" lon="0.09646">
        <ele>48.6</ele>
        <time>2015-10-18T08:54:13Z</time>
      </trkpt>
      <trkpt lat="49.38041" lon="0.09647">
        <ele>49.2</ele>
        <time>2015-10-18T08:54:14Z</time>
      </trkpt>
      <trkpt lat="49.38042" lon="0.09647">
        <ele>51.8</ele>
        <time>2015-10-18T08:54:15Z</time>
      </trkpt>
      <trkpt lat="49.38042" lon="0.09648">
        <ele>53.7</ele>
        <time>2015-10-18T08:54:16Z</time>
      </trkpt>
      <trkpt lat="49.38043" lon="0.09649">
        <ele>55.1</ele>
        <time>2015-10-18T08:54:17Z</time>
      </trkpt>
      <trkpt lat="49.38043" lon="0.0965">
        <ele>55.2</ele>
        <time>2015-10-18T08:54:18Z</time>
      </trkpt>
      <trkpt lat="49.3805" lon="0.09657">
        <ele>49.4</ele>
        <time>2015-10-18T08:54:25Z</time>
      </trkpt>
      <trkpt lat="49.3806" lon="0.09663">
        <ele>51.2</ele>
        <time>2015-10-18T08:54:34Z</time>
      </trkpt>
      <trkpt lat="49.38082" lon="0.09678">
        <ele>48.1</ele>
        <time>2015-10-18T08:54:56Z</time>
      </trkpt>
      <trkpt lat="49.38082" lon="0.09678">
        <ele>48.2</ele>
        <time>2015-10-18T08:54:57Z</time>
      </trkpt>
      <trkpt lat="49.38082" lon="0.09679">
        <ele>48.3</ele>
        <time>2015-10-18T08:54:58Z</time>
      </trkpt>
      <trkpt lat="49.38083" lon="0.09679">
        <ele>48.4</ele>
        <time>2015-10-18T08:54:59Z</time>
      </trkpt>
      <trkpt lat="49.38212" lon="0.09771">
        <ele>34.9</ele>
        <time>2015-10-18T08:56:34Z</time>
      </trkpt>
      <trkpt lat="49.38213" lon="0.09772">
        <ele>35</ele>
        <time>2015-10-18T08:56:35Z</time>
      </trkpt>
      <trkpt lat="49.38252" lon="0.09802">
        <ele>37.4</ele>
        <time>2015-10-18T08:57:09Z</time>
      </trkpt>
      <trkpt lat="49.38253" lon="0.09803">
        <ele>37.6</ele>
        <time>2015-10-18T08:57:13Z</time>
      </trkpt>
      <trkpt lat="49.38253" lon="0.09803">
        <ele>37.6</ele>
        <time>2015-10-18T08:57:14Z</time>
      </trkpt>
      <trkpt lat="49.38253" lon="0.09803">
        <ele>37.6</ele>
        <time>2015-10-18T08:57:15Z</time>
      </trkpt>
      <trkpt lat="49.38253" lon="0.09803">
        <ele>37.7</ele>
        <time>2015-10-18T08:57:16Z</time>
      </trkpt>
      <trkpt lat="49.38254" lon="0.09802">
        <ele>37.7</ele>
        <time>2015-10-18T08:57:17Z</time>
      </trkpt>
      <trkpt lat="49.38254" lon="0.098">
        <ele>37.7</ele>
        <time>2015-10-18T08:57:19Z</time>
      </trkpt>
      <trkpt lat="49.38254" lon="0.09793">
        <ele>38.1</ele>
        <time>2015-10-18T08:57:24Z</time>
      </trkpt>
      <trkpt lat="49.38254" lon="0.09792">
        <ele>38.2</ele>
        <time>2015-10-18T08:57:25Z</time>
      </trkpt>
      <trkpt lat="49.3826" lon="0.09769">
        <ele>37.8</ele>
        <time>2015-10-18T08:57:40Z</time>
      </trkpt>
      <trkpt lat="49.3826" lon="0.09768">
        <ele>37.6</ele>
        <time>2015-10-18T08:57:41Z</time>
      </trkpt>
      <trkpt lat="49.38263" lon="0.09762">
        <ele>37.1</ele>
        <time>2015-10-18T08:57:46Z</time>
      </trkpt>
      <trkpt lat="49.38264" lon="0.0976">
        <ele>37.3</ele>
        <time>2015-10-18T08:57:47Z</time>
      </trkpt>
      <trkpt lat="49.38271" lon="0.09741">
        <ele>35.7</ele>
        <time>2015-10-18T08:57:58Z</time>
      </trkpt>
      <trkpt lat="49.38271" lon="0.09739">
        <ele>35.4</ele>
        <time>2015-10-18T08:57:59Z</time>
      </trkpt>
      <trkpt lat="49.38272" lon="0.09734">
        <ele>35</ele>
        <time>2015-10-18T08:58:01Z</time>
      </trkpt>
      <trkpt lat="49.38272" lon="0.09728">
        <ele>34.7</ele>
        <time>2015-10-18T08:58:04Z</time>
      </trkpt>
      <trkpt lat="49.38271" lon="0.09707">
        <ele>33</ele>
        <time>2015-10-18T08:58:15Z</time>
      </trkpt>
      <trkpt lat="49.38272" lon="0.09705">
        <ele>32.8</ele>
        <time>2015-10-18T08:58:16Z</time>
      </trkpt>
      <trkpt lat="49.38273" lon="0.09696">
        <ele>31.1</ele>
        <time>2015-10-18T08:58:20Z</time>
      </trkpt>
      <trkpt lat="49.38282" lon="0.09667">
        <ele>28</ele>
        <time>2015-10-18T08:58:38Z</time>
      </trkpt>
      <trkpt lat="49.38283" lon="0.09665">
        <ele>27.5</ele>
        <time>2015-10-18T08:58:40Z</time>
      </trkpt>
      <trkpt lat="49.38283" lon="0.09665">
        <ele>27.6</ele>
        <time>2015-10-18T08:58:41Z</time>
      </trkpt>
      <trkpt lat="49.38283" lon="0.09665">
        <ele>27.6</ele>
        <time>2015-10-18T08:58:42Z</time>
      </trkpt>
      <trkpt lat="49.38284" lon="0.09665">
        <ele>27</ele>
        <time>2015-10-18T08:58:45Z</time>
      </trkpt>
      <trkpt lat="49.38284" lon="0.09664">
        <ele>26.8</ele>
        <time>2015-10-18T08:58:46Z</time>
      </trkpt>
      <trkpt lat="49.38284" lon="0.09664">
        <ele>26.6</ele>
        <time>2015-10-18T08:58:47Z</time>
      </trkpt>
      <trkpt lat="49.38284" lon="0.09661">
        <ele>27.4</ele>
        <time>2015-10-18T08:58:51Z</time>
      </trkpt>
      <trkpt lat="49.38287" lon="0.09657">
        <ele>23.6</ele>
        <time>2015-10-18T08:58:56Z</time>
      </trkpt>
      <trkpt lat="49.38287" lon="0.09657">
        <ele>23.4</ele>
        <time>2015-10-18T08:58:57Z</time>
      </trkpt>
      <trkpt lat="49.38288" lon="0.09656">
        <ele>23.3</ele>
        <time>2015-10-18T08:58:58Z</time>
      </trkpt>
      <trkpt lat="49.38288" lon="0.09655">
        <ele>22.7</ele>
        <time>2015-10-18T08:58:59Z</time>
      </trkpt>
      <trkpt lat="49.38289" lon="0.09655">
        <ele>22.3</ele>
        <time>2015-10-18T08:59:00Z</time>
      </trkpt>
      <trkpt lat="49.3829" lon="0.09654">
        <ele>22</ele>
        <time>2015-10-18T08:59:01Z</time>
      </trkpt>
      <trkpt lat="49.3829" lon="0.09653">
        <ele>22.4</ele>
        <time>2015-10-18T08:59:02Z</time>
      </trkpt>
      <trkpt lat="49.38291" lon="0.09653">
        <ele>22.7</ele>
        <time>2015-10-18T08:59:03Z</time>
      </trkpt>
      <trkpt lat="49.38291" lon="0.09653">
        <ele>23</ele>
        <time>2015-10-18T08:59:04Z</time>
      </trkpt>
      <trkpt lat="49.38291" lon="0.09653">
        <ele>22.3</ele>
        <time>2015-10-18T08:59:05Z</time>
      </trkpt>
      <trkpt lat="49.38291" lon="0.09653">
        <ele>21.8</ele>
        <time>2015-10-18T08:59:06Z</time>
      </trkpt>
      <trkpt lat="49.38292" lon="0.09652">
        <ele>21.4</ele>
        <time>2015-10-18T08:59:07Z</time>
      </trkpt>
      <trkpt lat="49.38292" lon="0.09652">
        <ele>21.4</ele>
        <time>2015-10-18T08:59:08Z</time>
      </trkpt>
      <trkpt lat="49.38292" lon="0.09651">
        <ele>21.3</ele>
        <time>2015-10-18T08:59:09Z</time>
      </trkpt>
      <trkpt lat="49.38293" lon="0.09651">
        <ele>21.3</ele>
        <time>2015-10-18T08:59:10Z</time>
      </trkpt>
      <trkpt lat="49.38293" lon="0.09651">
        <ele>20.6</ele>
        <time>2015-10-18T08:59:11Z</time>
      </trkpt>
      <trkpt lat="49.38293" lon="0.09651">
        <ele>20.1</ele>
        <time>2015-10-18T08:59:12Z</time>
      </trkpt>
      <trkpt lat="49.38293" lon="0.09651">
        <ele>19.8</ele>
        <time>2015-10-18T08:59:13Z</time>
      </trkpt>
      <trkpt lat="49.38293" lon="0.09651">
        <ele>20.3</ele>
        <time>2015-10-18T08:59:14Z</time>
      </trkpt>
      <trkpt lat="49.38294" lon="0.09651">
        <ele>20.7</ele>
        <time>2015-10-18T08:59:15Z</time>
      </trkpt>
      <trkpt lat="49.38294" lon="0.09652">
        <ele>21</ele>
        <time>2015-10-18T08:59:16Z</time>
      </trkpt>
      <trkpt lat="49.38295" lon="0.09652">
        <ele>20.7</ele>
        <time>2015-10-18T08:59:17Z</time>
      </trkpt>
      <trkpt lat="49.38295" lon="0.09652">
        <ele>20.4</ele>
        <time>2015-10-18T08:59:18Z</time>
      </trkpt>
      <trkpt lat="49.38296" lon="0.09653">
        <ele>20.1</ele>
        <time>2015-10-18T08:59:19Z</time>
      </trkpt>
      <trkpt lat="49.38296" lon="0.09653">
        <ele>19.8</ele>
        <time>2015-10-18T08:59:20Z</time>
      </trkpt>
      <trkpt lat="49.38297" lon="0.09653">
        <ele>19.5</ele>
        <time>2015-10-18T08:59:21Z</time>
      </trkpt>
      <trkpt lat="49.38298" lon="0.09654">
        <ele>19.3</ele>
        <time>2015-10-18T08:59:22Z</time>
      </trkpt>
      <trkpt lat="49.38299" lon="0.09653">
        <ele>19.1</ele>
        <time>2015-10-18T08:59:23Z</time>
      </trkpt>
      <trkpt lat="49.38299" lon="0.09653">
        <ele>19</ele>
        <time>2015-10-18T08:59:24Z</time>
      </trkpt>
      <trkpt lat="49.383" lon="0.09651">
        <ele>18.9</ele>
        <time>2015-10-18T08:59:25Z</time>
      </trkpt>
      <trkpt lat="49.383" lon="0.0965">
        <ele>18.4</ele>
        <time>2015-10-18T08:59:26Z</time>
      </trkpt>
      <trkpt lat="49.383" lon="0.09648">
        <ele>18.1</ele>
        <time>2015-10-18T08:59:27Z</time>
      </trkpt>
      <trkpt lat="49.383" lon="0.09646">
        <ele>17.8</ele>
        <time>2015-10-18T08:59:28Z</time>
      </trkpt>
      <trkpt lat="49.383" lon="0.09643">
        <ele>15.5</ele>
        <time>2015-10-18T08:59:29Z</time>
      </trkpt>
      <trkpt lat="49.383" lon="0.0964">
        <ele>13.8</ele>
        <time>2015-10-18T08:59:30Z</time>
      </trkpt>
      <trkpt lat="49.38299" lon="0.09638">
        <ele>12.5</ele>
        <time>2015-10-18T08:59:31Z</time>
      </trkpt>
      <trkpt lat="49.38299" lon="0.09636">
        <ele>11.6</ele>
        <time>2015-10-18T08:59:32Z</time>
      </trkpt>
      <trkpt lat="49.38298" lon="0.09634">
        <ele>10.9</ele>
        <time>2015-10-18T08:59:33Z</time>
      </trkpt>
      <trkpt lat="49.38298" lon="0.09632">
        <ele>10.3</ele>
        <time>2015-10-18T08:59:34Z</time>
      </trkpt>
      <trkpt lat="49.38298" lon="0.0963">
        <ele>11</ele>
        <time>2015-10-18T08:59:35Z</time>
      </trkpt>
      <trkpt lat="49.38298" lon="0.09629">
        <ele>11.4</ele>
        <time>2015-10-18T08:59:36Z</time>
      </trkpt>
      <trkpt lat="49.38298" lon="0.09628">
        <ele>11.8</ele>
        <time>2015-10-18T08:59:37Z</time>
      </trkpt>
      <trkpt lat="49.38298" lon="0.09627">
        <ele>12.3</ele>
        <time>2015-10-18T08:59:38Z</time>
      </trkpt>
      <trkpt lat="49.38299" lon="0.09627">
        <ele>12.9</ele>
        <time>2015-10-18T08:59:40Z</time>
      </trkpt>
      <trkpt lat="49.383" lon="0.09628">
        <ele>12.9</ele>
        <time>2015-10-18T08:59:41Z</time>
      </trkpt>
      <trkpt lat="49.38301" lon="0.09628">
        <ele>12.9</ele>
        <time>2015-10-18T08:59:42Z</time>
      </trkpt>
      <trkpt lat="49.38302" lon="0.09629">
        <ele>12.9</ele>
        <time>2015-10-18T08:59:43Z</time>
      </trkpt>
      <trkpt lat="49.38303" lon="0.0963">
        <ele>12.6</ele>
        <time>2015-10-18T08:59:44Z</time>
      </trkpt>
      <trkpt lat="49.38304" lon="0.09631">
        <ele>12.5</ele>
        <time>2015-10-18T08:59:45Z</time>
      </trkpt>
      <trkpt lat="49.38305" lon="0.09632">
        <ele>12.4</ele>
        <time>2015-10-18T08:59:46Z</time>
      </trkpt>
      <trkpt lat="49.38306" lon="0.09633">
        <ele>12.5</ele>
        <time>2015-10-18T08:59:47Z</time>
      </trkpt>
      <trkpt lat="49.38307" lon="0.09634">
        <ele>12.6</ele>
        <time>2015-10-18T08:59:48Z</time>
      </trkpt>
      <trkpt lat="49.38307" lon="0.09635">
        <ele>12.6</ele>
        <time>2015-10-18T08:59:49Z</time>
      </trkpt>
      <trkpt lat="49.38308" lon="0.09636">
        <ele>9.4</ele>
        <time>2015-10-18T08:59:50Z</time>
      </trkpt>
      <trkpt lat="49.38308" lon="0.09637">
        <ele>6.9</ele>
        <time>2015-10-18T08:59:51Z</time>
      </trkpt>
      <trkpt lat="49.38309" lon="0.09637">
        <ele>5.1</ele>
        <time>2015-10-18T08:59:52Z</time>
      </trkpt>
      <trkpt lat="49.38309" lon="0.09638">
        <ele>7</ele>
        <time>2015-10-18T08:59:53Z</time>
      </trkpt>
      <trkpt lat="49.3831" lon="0.09639">
        <ele>8.5</ele>
        <time>2015-10-18T08:59:54Z</time>
      </trkpt>
      <trkpt lat="49.3831" lon="0.0964">
        <ele>9.6</ele>
        <time>2015-10-18T08:59:55Z</time>
      </trkpt>
      <trkpt lat="49.3831" lon="0.0964">
        <ele>6.7</ele>
        <time>2015-10-18T08:59:56Z</time>
      </trkpt>
      <trkpt lat="49.3831" lon="0.0964">
        <ele>4.5</ele>
        <time>2015-10-18T08:59:57Z</time>
      </trkpt>
      <trkpt lat="49.3831" lon="0.0964">
        <ele>2.8</ele>
        <time>2015-10-18T08:59:58Z</time>
      </trkpt>
      <trkpt lat="49.38309" lon="0.0964">
        <ele>5.1</ele>
        <time>2015-10-18T08:59:59Z</time>
      </trkpt>
      <trkpt lat="49.38309" lon="0.0964">
        <ele>6.9</ele>
        <time>2015-10-18T09:00:00Z</time>
      </trkpt>
      <trkpt lat="49.38309" lon="0.0964">
        <ele>8.1</ele>
        <time>2015-10-18T09:00:01Z</time>
      </trkpt>
      <trkpt lat="49.38309" lon="0.0964">
        <ele>6</ele>
        <time>2015-10-18T09:00:02Z</time>
      </trkpt>
      <trkpt lat="49.38309" lon="0.0964">
        <ele>4.4</ele>
        <time>2015-10-18T09:00:03Z</time>
      </trkpt>
      <trkpt lat="49.38309" lon="0.0964">
        <ele>3.2</ele>
        <time>2015-10-18T09:00:04Z</time>
      </trkpt>
      <trkpt lat="49.38308" lon="0.0964">
        <ele>5.6</ele>
        <time>2015-10-18T09:00:05Z</time>
      </trkpt>
      <trkpt lat="49.38308" lon="0.0964">
        <ele>7.4</ele>
        <time>2015-10-18T09:00:06Z</time>
      </trkpt>
      <trkpt lat="49.38309" lon="0.0964">
        <ele>8.8</ele>
        <time>2015-10-18T09:00:07Z</time>
      </trkpt>
      <trkpt lat="49.38309" lon="0.0964">
        <ele>6.7</ele>
        <time>2015-10-18T09:00:08Z</time>
      </trkpt>
      <trkpt lat="49.38309" lon="0.09639">
        <ele>5.1</ele>
        <time>2015-10-18T09:00:09Z</time>
      </trkpt>
      <trkpt lat="49.38309" lon="0.09639">
        <ele>3.9</ele>
        <time>2015-10-18T09:00:10Z</time>
      </trkpt>
      <trkpt lat="49.38309" lon="0.09639">
        <ele>6.2</ele>
        <time>2015-10-18T09:00:11Z</time>
      </trkpt>
      <trkpt lat="49.38309" lon="0.09639">
        <ele>7.8</ele>
        <time>2015-10-18T09:00:12Z</time>
      </trkpt>
      <trkpt lat="49.38309" lon="0.09639">
        <ele>9.1</ele>
        <time>2015-10-18T09:00:13Z</time>
      </trkpt>
      <trkpt lat="49.38309" lon="0.09639">
        <ele>9</ele>
        <time>2015-10-18T09:00:14Z</time>
      </trkpt>
      <trkpt lat="49.3831" lon="0.09639">
        <ele>8.9</ele>
        <time>2015-10-18T09:00:15Z</time>
      </trkpt>
      <trkpt lat="49.3831" lon="0.09638">
        <ele>8.9</ele>
        <time>2015-10-18T09:00:16Z</time>
      </trkpt>
      <trkpt lat="49.38311" lon="0.09637">
        <ele>6.3</ele>
        <time>2015-10-18T09:00:18Z</time>
      </trkpt>
      <trkpt lat="49.38311" lon="0.09637">
        <ele>5.4</ele>
        <time>2015-10-18T09:00:19Z</time>
      </trkpt>
      <trkpt lat="49.38311" lon="0.09636">
        <ele>5.6</ele>
        <time>2015-10-18T09:00:20Z</time>
      </trkpt>
      <trkpt lat="49.38312" lon="0.09635">
        <ele>5.8</ele>
        <time>2015-10-18T09:00:21Z</time>
      </trkpt>
      <trkpt lat="49.38312" lon="0.09635">
        <ele>5.9</ele>
        <time>2015-10-18T09:00:22Z</time>
      </trkpt>
      <trkpt lat="49.38312" lon="0.09634">
        <ele>5.3</ele>
        <time>2015-10-18T09:00:23Z</time>
      </trkpt>
      <trkpt lat="49.38313" lon="0.09634">
        <ele>4.9</ele>
        <time>2015-10-18T09:00:24Z</time>
      </trkpt>
      <trkpt lat="49.38313" lon="0.09633">
        <ele>4.6</ele>
        <time>2015-10-18T09:00:25Z</time>
      </trkpt>
      <trkpt lat="49.38313" lon="0.09633">
        <ele>4.6</ele>
        <time>2015-10-18T09:00:26Z</time>
      </trkpt>
      <trkpt lat="49.38313" lon="0.09633">
        <ele>4.6</ele>
        <time>2015-10-18T09:00:27Z</time>
      </trkpt>
      <trkpt lat="49.38313" lon="0.09632">
        <ele>4.6</ele>
        <time>2015-10-18T09:00:28Z</time>
      </trkpt>
      <trkpt lat="49.38313" lon="0.09631">
        <ele>4</ele>
        <time>2015-10-18T09:00:29Z</time>
      </trkpt>
      <trkpt lat="49.38313" lon="0.09631">
        <ele>3.5</ele>
        <time>2015-10-18T09:00:30Z</time>
      </trkpt>
      <trkpt lat="49.38313" lon="0.0963">
        <ele>3.1</ele>
        <time>2015-10-18T09:00:31Z</time>
      </trkpt>
      <trkpt lat="49.38313" lon="0.09629">
        <ele>3.7</ele>
        <time>2015-10-18T09:00:32Z</time>
      </trkpt>
      <trkpt lat="49.38313" lon="0.09628">
        <ele>4.1</ele>
        <time>2015-10-18T09:00:33Z</time>
      </trkpt>
      <trkpt lat="49.38313" lon="0.09627">
        <ele>4.4</ele>
        <time>2015-10-18T09:00:34Z</time>
      </trkpt>
      <trkpt lat="49.38313" lon="0.09626">
        <ele>4</ele>
        <time>2015-10-18T09:00:35Z</time>
      </trkpt>
      <trkpt lat="49.38312" lon="0.09625">
        <ele>3.5</ele>
        <time>2015-10-18T09:00:37Z</time>
      </trkpt>
      <trkpt lat="49.38312" lon="0.09626">
        <ele>2.8</ele>
        <time>2015-10-18T09:00:38Z</time>
      </trkpt>
      <trkpt lat="49.38311" lon="0.09627">
        <ele>2.2</ele>
        <time>2015-10-18T09:00:39Z</time>
      </trkpt>
      <trkpt lat="49.3831" lon="0.09629">
        <ele>1.7</ele>
        <time>2015-10-18T09:00:40Z</time>
      </trkpt>
      <trkpt lat="49.3831" lon="0.09631">
        <ele>2.9</ele>
        <time>2015-10-18T09:00:41Z</time>
      </trkpt>
      <trkpt lat="49.3831" lon="0.09632">
        <ele>3.7</ele>
        <time>2015-10-18T09:00:42Z</time>
      </trkpt>
      <trkpt lat="49.3831" lon="0.09634">
        <ele>4.3</ele>
        <time>2015-10-18T09:00:43Z</time>
      </trkpt>
      <trkpt lat="49.38311" lon="0.09636">
        <ele>4.8</ele>
        <time>2015-10-18T09:00:44Z</time>
      </trkpt>
      <trkpt lat="49.38311" lon="0.09638">
        <ele>5.1</ele>
        <time>2015-10-18T09:00:45Z</time>
      </trkpt>
      <trkpt lat="49.38311" lon="0.0964">
        <ele>5.4</ele>
        <time>2015-10-18T09:00:46Z</time>
      </trkpt>
      <trkpt lat="49.38311" lon="0.09642">
        <ele>5</ele>
        <time>2015-10-18T09:00:47Z</time>
      </trkpt>
      <trkpt lat="49.38312" lon="0.09643">
        <ele>4.7</ele>
        <time>2015-10-18T09:00:48Z</time>
      </trkpt>
      <trkpt lat="49.38312" lon="0.09644">
        <ele>4.4</ele>
        <time>2015-10-18T09:00:49Z</time>
      </trkpt>
      <trkpt lat="49.38313" lon="0.09646">
        <ele>4.7</ele>
        <time>2015-10-18T09:00:50Z</time>
      </trkpt>
      <trkpt lat="49.38313" lon="0.09648">
        <ele>4.9</ele>
        <time>2015-10-18T09:00:51Z</time>
      </trkpt>
      <trkpt lat="49.38314" lon="0.09649">
        <ele>5</ele>
        <time>2015-10-18T09:00:52Z</time>
      </trkpt>
      <trkpt lat="49.38315" lon="0.0965">
        <ele>3.6</ele>
        <time>2015-10-18T09:00:53Z</time>
      </trkpt>
      <trkpt lat="49.38316" lon="0.0965">
        <ele>2.6</ele>
        <time>2015-10-18T09:00:54Z</time>
      </trkpt>
      <trkpt lat="49.38317" lon="0.09651">
        <ele>1.9</ele>
        <time>2015-10-18T09:00:55Z</time>
      </trkpt>
      <trkpt lat="49.38318" lon="0.09651">
        <ele>1.5</ele>
        <time>2015-10-18T09:00:56Z</time>
      </trkpt>
      <trkpt lat="49.38319" lon="0.09652">
        <ele>1.2</ele>
        <time>2015-10-18T09:00:57Z</time>
      </trkpt>
      <trkpt lat="49.3832" lon="0.09652">
        <ele>1</ele>
        <time>2015-10-18T09:00:58Z</time>
      </trkpt>
      <trkpt lat="49.38321" lon="0.09653">
        <ele>0.5</ele>
        <time>2015-10-18T09:00:59Z</time>
      </trkpt>
      <trkpt lat="49.38322" lon="0.09653">
        <ele>9.1</ele>
        <time>2015-10-18T09:01:00Z</time>
      </trkpt>
      <trkpt lat="49.38323" lon="0.09653">
        <ele>-0.2</ele>
        <time>2015-10-18T09:01:01Z</time>
      </trkpt>
      <trkpt lat="49.38325" lon="0.09653">
        <ele>8.2</ele>
        <time>2015-10-18T09:01:02Z</time>
      </trkpt>
      <trkpt lat="49.38325" lon="0.09653">
        <ele>7.9</ele>
        <time>2015-10-18T09:01:03Z</time>
      </trkpt>
      <trkpt lat="49.38326" lon="0.09653">
        <ele>0.1</ele>
        <time>2015-10-18T09:01:04Z</time>
      </trkpt>
      <trkpt lat="49.38326" lon="0.09653">
        <ele>-0.7</ele>
        <time>2015-10-18T09:01:05Z</time>
      </trkpt>
      <trkpt lat="49.38326" lon="0.09653">
        <ele>-1.5</ele>
        <time>2015-10-18T09:01:06Z</time>
      </trkpt>
      <trkpt lat="49.38327" lon="0.09653">
        <ele>-2</ele>
        <time>2015-10-18T09:01:07Z</time>
      </trkpt>
      <trkpt lat="49.38327" lon="0.09654">
        <ele>-0.8</ele>
        <time>2015-10-18T09:01:08Z</time>
      </trkpt>
      <trkpt lat="49.38327" lon="0.09654">
        <ele>0.1</ele>
        <time>2015-10-18T09:01:09Z</time>
      </trkpt>
      <trkpt lat="49.38328" lon="0.09655">
        <ele>0.8</ele>
        <time>2015-10-18T09:01:10Z</time>
      </trkpt>
      <trkpt lat="49.38328" lon="0.09655">
        <ele>1.1</ele>
        <time>2015-10-18T09:01:11Z</time>
      </trkpt>
      <trkpt lat="49.38328" lon="0.09656">
        <ele>1.3</ele>
        <time>2015-10-18T09:01:12Z</time>
      </trkpt>
      <trkpt lat="49.38328" lon="0.09656">
        <ele>1.5</ele>
        <time>2015-10-18T09:01:13Z</time>
      </trkpt>
      <trkpt lat="49.38329" lon="0.09657">
        <ele>1.9</ele>
        <time>2015-10-18T09:01:14Z</time>
      </trkpt>
      <trkpt lat="49.38329" lon="0.09658">
        <ele>2.1</ele>
        <time>2015-10-18T09:01:15Z</time>
      </trkpt>
      <trkpt lat="49.3833" lon="0.09659">
        <ele>2.3</ele>
        <time>2015-10-18T09:01:16Z</time>
      </trkpt>
      <trkpt lat="49.3833" lon="0.0966">
        <ele>2</ele>
        <time>2015-10-18T09:01:17Z</time>
      </trkpt>
      <trkpt lat="49.3833" lon="0.0966">
        <ele>1.8</ele>
        <time>2015-10-18T09:01:18Z</time>
      </trkpt>
      <trkpt lat="49.3833" lon="0.09661">
        <ele>1.7</ele>
        <time>2015-10-18T09:01:19Z</time>
      </trkpt>
      <trkpt lat="49.38331" lon="0.09662">
        <ele>1.6</ele>
        <time>2015-10-18T09:01:20Z</time>
      </trkpt>
      <trkpt lat="49.38331" lon="0.09662">
        <ele>1.5</ele>
        <time>2015-10-18T09:01:21Z</time>
      </trkpt>
      <trkpt lat="49.38332" lon="0.09663">
        <ele>1.4</ele>
        <time>2015-10-18T09:01:22Z</time>
      </trkpt>
      <trkpt lat="49.38332" lon="0.09663">
        <ele>0.3</ele>
        <time>2015-10-18T09:01:23Z</time>
      </trkpt>
      <trkpt lat="49.38332" lon="0.09663">
        <ele>-0.4</ele>
        <time>2015-10-18T09:01:24Z</time>
      </trkpt>
      <trkpt lat="49.38332" lon="0.09663">
        <ele>-1</ele>
        <time>2015-10-18T09:01:25Z</time>
      </trkpt>
      <trkpt lat="49.38332" lon="0.09663">
        <ele>-3.9</ele>
        <time>2015-10-18T09:01:26Z</time>
      </trkpt>
      <trkpt lat="49.38332" lon="0.09662">
        <ele>-6.1</ele>
        <time>2015-10-18T09:01:27Z</time>
      </trkpt>
      <trkpt lat="49.38332" lon="0.09662">
        <ele>-7.8</ele>
        <time>2015-10-18T09:01:28Z</time>
      </trkpt>
      <trkpt lat="49.38332" lon="0.09661">
        <ele>-5.3</ele>
        <time>2015-10-18T09:01:29Z</time>
      </trkpt>
      <trkpt lat="49.38332" lon="0.0966">
        <ele>-3.4</ele>
        <time>2015-10-18T09:01:30Z</time>
      </trkpt>
      <trkpt lat="49.38332" lon="0.0966">
        <ele>-2</ele>
        <time>2015-10-18T09:01:31Z</time>
      </trkpt>
      <trkpt lat="49.38332" lon="0.0966">
        <ele>-1.4</ele>
        <time>2015-10-18T09:01:32Z</time>
      </trkpt>
      <trkpt lat="49.38332" lon="0.09659">
        <ele>-0.9</ele>
        <time>2015-10-18T09:01:33Z</time>
      </trkpt>
      <trkpt lat="49.38332" lon="0.09659">
        <ele>-0.6</ele>
        <time>2015-10-18T09:01:34Z</time>
      </trkpt>
      <trkpt lat="49.38331" lon="0.09659">
        <ele>-2.8</ele>
        <time>2015-10-18T09:01:35Z</time>
      </trkpt>
      <trkpt lat="49.38331" lon="0.09659">
        <ele>-4.4</ele>
        <time>2015-10-18T09:01:36Z</time>
      </trkpt>
      <trkpt lat="49.38331" lon="0.09659">
        <ele>-5.7</ele>
        <time>2015-10-18T09:01:37Z</time>
      </trkpt>
      <trkpt lat="49.38331" lon="0.09659">
        <ele>-2.9</ele>
        <time>2015-10-18T09:01:38Z</time>
      </trkpt>
      <trkpt lat="49.38331" lon="0.09659">
        <ele>-0.8</ele>
        <time>2015-10-18T09:01:39Z</time>
      </trkpt>
      <trkpt lat="49.38331" lon="0.09659">
        <ele>0.7</ele>
        <time>2015-10-18T09:01:40Z</time>
      </trkpt>
      <trkpt lat="49.38331" lon="0.09659">
        <ele>0.2</ele>
        <time>2015-10-18T09:01:41Z</time>
      </trkpt>
      <trkpt lat="49.38331" lon="0.09659">
        <ele>-0.1</ele>
        <time>2015-10-18T09:01:42Z</time>
      </trkpt>
      <trkpt lat="49.38331" lon="0.09659">
        <ele>-0.3</ele>
        <time>2015-10-18T09:01:43Z</time>
      </trkpt>
      <trkpt lat="49.38331" lon="0.09659">
        <ele>0.2</ele>
        <time>2015-10-18T09:01:44Z</time>
      </trkpt>
      <trkpt lat="49.38331" lon="0.0966">
        <ele>0.7</ele>
        <time>2015-10-18T09:01:45Z</time>
      </trkpt>
      <trkpt lat="49.38332" lon="0.0966">
        <ele>1</ele>
        <time>2015-10-18T09:01:46Z</time>
      </trkpt>
      <trkpt lat="49.38332" lon="0.0966">
        <ele>1.5</ele>
        <time>2015-10-18T09:01:47Z</time>
      </trkpt>
      <trkpt lat="49.38332" lon="0.0966">
        <ele>1.8</ele>
        <time>2015-10-18T09:01:48Z</time>
      </trkpt>
      <trkpt lat="49.38332" lon="0.0966">
        <ele>2.1</ele>
        <time>2015-10-18T09:01:49Z</time>
      </trkpt>
      <trkpt lat="49.38332" lon="0.0966">
        <ele>0.2</ele>
        <time>2015-10-18T09:01:50Z</time>
      </trkpt>
      <trkpt lat="49.38332" lon="0.09661">
        <ele>-1.1</ele>
        <time>2015-10-18T09:01:51Z</time>
      </trkpt>
      <trkpt lat="49.38332" lon="0.09661">
        <ele>-2.1</ele>
        <time>2015-10-18T09:01:52Z</time>
      </trkpt>
      <trkpt lat="49.38332" lon="0.09661">
        <ele>-2.1</ele>
        <time>2015-10-18T09:01:53Z</time>
      </trkpt>
      <trkpt lat="49.38332" lon="0.09661">
        <ele>-2.1</ele>
        <time>2015-10-18T09:01:54Z</time>
      </trkpt>
      <trkpt lat="49.38332" lon="0.09661">
        <ele>-2</ele>
        <time>2015-10-18T09:01:55Z</time>
      </trkpt>
      <trkpt lat="49.38332" lon="0.09661">
        <ele>-1.8</ele>
        <time>2015-10-18T09:01:56Z</time>
      </trkpt>
      <trkpt lat="49.38332" lon="0.09661">
        <ele>-1.7</ele>
        <time>2015-10-18T09:01:57Z</time>
      </trkpt>
      <trkpt lat="49.38333" lon="0.09661">
        <ele>-1.5</ele>
        <time>2015-10-18T09:01:58Z</time>
      </trkpt>
      <trkpt lat="49.38333" lon="0.09662">
        <ele>-1.2</ele>
        <time>2015-10-18T09:01:59Z</time>
      </trkpt>
      <trkpt lat="49.38333" lon="0.09662">
        <ele>-1</ele>
        <time>2015-10-18T09:02:00Z</time>
      </trkpt>
      <trkpt lat="49.38334" lon="0.09663">
        <ele>-0.8</ele>
        <time>2015-10-18T09:02:01Z</time>
      </trkpt>
      <trkpt lat="49.38335" lon="0.09663">
        <ele>-2.8</ele>
        <time>2015-10-18T09:02:02Z</time>
      </trkpt>
      <trkpt lat="49.38336" lon="0.09662">
        <ele>-4.2</ele>
        <time>2015-10-18T09:02:03Z</time>
      </trkpt>
      <trkpt lat="49.38337" lon="0.09662">
        <ele>-5.3</ele>
        <time>2015-10-18T09:02:04Z</time>
      </trkpt>
      <trkpt lat="49.38337" lon="0.09661">
        <ele>-4.7</ele>
        <time>2015-10-18T09:02:05Z</time>
      </trkpt>
      <trkpt lat="49.38337" lon="0.0966">
        <ele>-4.2</ele>
        <time>2015-10-18T09:02:06Z</time>
      </trkpt>
      <trkpt lat="49.38337" lon="0.09659">
        <ele>-3.9</ele>
        <time>2015-10-18T09:02:07Z</time>
      </trkpt>
      <trkpt lat="49.38338" lon="0.09659">
        <ele>-4.2</ele>
        <time>2015-10-18T09:02:08Z</time>
      </trkpt>
      <trkpt lat="49.38339" lon="0.09658">
        <ele>-4.5</ele>
        <time>2015-10-18T09:02:09Z</time>
      </trkpt>
      <trkpt lat="49.3835" lon="0.09658">
        <ele>-2</ele>
        <time>2015-10-18T09:02:17Z</time>
      </trkpt>
      <trkpt lat="49.38354" lon="0.09658">
        <ele>-5.7</ele>
        <time>2015-10-18T09:02:20Z</time>
      </trkpt>
      <trkpt lat="49.38358" lon="0.09659">
        <ele>-6.9</ele>
        <time>2015-10-18T09:02:23Z</time>
      </trkpt>
      <trkpt lat="49.38375" lon="0.09668">
        <ele>-5</ele>
        <time>2015-10-18T09:02:35Z</time>
      </trkpt>
      <trkpt lat="49.38378" lon="0.0967">
        <ele>-4.6</ele>
        <time>2015-10-18T09:02:39Z</time>
      </trkpt>
      <trkpt lat="49.38378" lon="0.0967">
        <ele>-4.8</ele>
        <time>2015-10-18T09:02:40Z</time>
      </trkpt>
      <trkpt lat="49.38378" lon="0.0967">
        <ele>-5.1</ele>
        <time>2015-10-18T09:02:41Z</time>
      </trkpt>
      <trkpt lat="49.38378" lon="0.0967">
        <ele>-5.4</ele>
        <time>2015-10-18T09:02:42Z</time>
      </trkpt>
      <trkpt lat="49.38378" lon="0.09669">
        <ele>-5.5</ele>
        <time>2015-10-18T09:02:43Z</time>
      </trkpt>
      <trkpt lat="49.38378" lon="0.09669">
        <ele>-6.1</ele>
        <time>2015-10-18T09:02:44Z</time>
      </trkpt>
      <trkpt lat="49.38378" lon="0.09669">
        <ele>-6.5</ele>
        <time>2015-10-18T09:02:45Z</time>
      </trkpt>
      <trkpt lat="49.38378" lon="0.09669">
        <ele>-6.8</ele>
        <time>2015-10-18T09:02:46Z</time>
      </trkpt>
      <trkpt lat="49.38377" lon="0.0967">
        <ele>-6.2</ele>
        <time>2015-10-18T09:02:47Z</time>
      </trkpt>
      <trkpt lat="49.38377" lon="0.0967">
        <ele>-5</ele>
        <time>2015-10-18T09:02:51Z</time>
      </trkpt>
      <trkpt lat="49.38377" lon="0.0967">
        <ele>-4.9</ele>
        <time>2015-10-18T09:02:52Z</time>
      </trkpt>
      <trkpt lat="49.38378" lon="0.0967">
        <ele>-4.6</ele>
        <time>2015-10-18T09:02:53Z</time>
      </trkpt>
      <trkpt lat="49.38379" lon="0.0967">
        <ele>-4.3</ele>
        <time>2015-10-18T09:02:54Z</time>
      </trkpt>
      <trkpt lat="49.3838" lon="0.09671">
        <ele>-4.2</ele>
        <time>2015-10-18T09:02:55Z</time>
      </trkpt>
      <trkpt lat="49.38438" lon="0.09728">
        <ele>-4.8</ele>
        <time>2015-10-18T09:03:36Z</time>
      </trkpt>
      <trkpt lat="49.38439" lon="0.09728">
        <ele>-4.7</ele>
        <time>2015-10-18T09:03:37Z</time>
      </trkpt>
      <trkpt lat="49.3848" lon="0.09748">
        <ele>-5</ele>
        <time>2015-10-18T09:04:04Z</time>
      </trkpt>
      <trkpt lat="49.38481" lon="0.09749">
        <ele>-5.1</ele>
        <time>2015-10-18T09:04:05Z</time>
      </trkpt>
      <trkpt lat="49.38489" lon="0.09754">
        <ele>-7.6</ele>
        <time>2015-10-18T09:04:10Z</time>
      </trkpt>
      <trkpt lat="49.38492" lon="0.09756">
        <ele>-8.8</ele>
        <time>2015-10-18T09:04:12Z</time>
      </trkpt>
      <trkpt lat="49.38501" lon="0.09761">
        <ele>-3.7</ele>
        <time>2015-10-18T09:04:19Z</time>
      </trkpt>
      <trkpt lat="49.38502" lon="0.09761">
        <ele>-4.5</ele>
        <time>2015-10-18T09:04:20Z</time>
      </trkpt>
      <trkpt lat="49.38502" lon="0.09761">
        <ele>-5.1</ele>
        <time>2015-10-18T09:04:21Z</time>
      </trkpt>
      <trkpt lat="49.38502" lon="0.09761">
        <ele>-5.6</ele>
        <time>2015-10-18T09:04:22Z</time>
      </trkpt>
      <trkpt lat="49.38503" lon="0.09762">
        <ele>-4.7</ele>
        <time>2015-10-18T09:04:23Z</time>
      </trkpt>
      <trkpt lat="49.38575" lon="0.09846">
        <ele>-4</ele>
        <time>2015-10-18T09:05:20Z</time>
      </trkpt>
      <trkpt lat="49.38576" lon="0.09848">
        <ele>-4.1</ele>
        <time>2015-10-18T09:05:21Z</time>
      </trkpt>
      <trkpt lat="49.38726" lon="0.10045">
        <ele>-3.5</ele>
        <time>2015-10-18T09:07:25Z</time>
      </trkpt>
      <trkpt lat="49.38814" lon="0.10165">
        <ele>-4.9</ele>
        <time>2015-10-18T09:08:46Z</time>
      </trkpt>
      <trkpt lat="49.38814" lon="0.10165">
        <ele>-5.6</ele>
        <time>2015-10-18T09:08:47Z</time>
      </trkpt>
      <trkpt lat="49.38814" lon="0.10166">
        <ele>-5.8</ele>
        <time>2015-10-18T09:08:48Z</time>
      </trkpt>
      <trkpt lat="49.38814" lon="0.10166">
        <ele>-6.7</ele>
        <time>2015-10-18T09:08:49Z</time>
      </trkpt>
      <trkpt lat="49.38814" lon="0.10167">
        <ele>-7.2</ele>
        <time>2015-10-18T09:08:50Z</time>
      </trkpt>
      <trkpt lat="49.38815" lon="0.10168">
        <ele>-7.4</ele>
        <time>2015-10-18T09:08:51Z</time>
      </trkpt>
      <trkpt lat="49.38815" lon="0.1017">
        <ele>-5.4</ele>
        <time>2015-10-18T09:08:52Z</time>
      </trkpt>
      <trkpt lat="49.38816" lon="0.10172">
        <ele>-4.3</ele>
        <time>2015-10-18T09:08:53Z</time>
      </trkpt>
      <trkpt lat="49.38817" lon="0.10174">
        <ele>-3.6</ele>
        <time>2015-10-18T09:08:54Z</time>
      </trkpt>
      <trkpt lat="49.38818" lon="0.10176">
        <ele>-4</ele>
        <time>2015-10-18T09:08:55Z</time>
      </trkpt>
      <trkpt lat="49.38822" lon="0.10183">
        <ele>-4.4</ele>
        <time>2015-10-18T09:08:59Z</time>
      </trkpt>
      <trkpt lat="49.38844" lon="0.10212">
        <ele>-28</ele>
        <time>2015-10-18T09:09:19Z</time>
      </trkpt>
      <trkpt lat="49.38853" lon="0.10222">
        <ele>-6</ele>
        <time>2015-10-18T09:09:27Z</time>
      </trkpt>
      <trkpt lat="49.38864" lon="0.10234">
        <ele>-4.5</ele>
        <time>2015-10-18T09:09:36Z</time>
      </trkpt>
      <trkpt lat="49.38865" lon="0.10235">
        <ele>-4.7</ele>
        <time>2015-10-18T09:09:37Z</time>
      </trkpt>
      <trkpt lat="49.38878" lon="0.10257">
        <ele>-6.2</ele>
        <time>2015-10-18T09:09:49Z</time>
      </trkpt>
      <trkpt lat="49.38879" lon="0.10258">
        <ele>-6.6</ele>
        <time>2015-10-18T09:09:50Z</time>
      </trkpt>
      <trkpt lat="49.38908" lon="0.10295">
        <ele>-15.4</ele>
        <time>2015-10-18T09:10:15Z</time>
      </trkpt>
      <trkpt lat="49.38911" lon="0.103">
        <ele>-10.7</ele>
        <time>2015-10-18T09:10:18Z</time>
      </trkpt>
      <trkpt lat="49.38955" lon="0.1038">
        <ele>-5.4</ele>
        <time>2015-10-18T09:11:04Z</time>
      </trkpt>
      <trkpt lat="49.38955" lon="0.10382">
        <ele>-5.2</ele>
        <time>2015-10-18T09:11:05Z</time>
      </trkpt>
      <trkpt lat="49.38964" lon="0.10412">
        <ele>-6.4</ele>
        <time>2015-10-18T09:11:20Z</time>
      </trkpt>
      <trkpt lat="49.38971" lon="0.10444">
        <ele>-6.8</ele>
        <time>2015-10-18T09:11:35Z</time>
      </trkpt>
      <trkpt lat="49.38975" lon="0.10466">
        <ele>-4.3</ele>
        <time>2015-10-18T09:11:45Z</time>
      </trkpt>
      <trkpt lat="49.3898" lon="0.10486">
        <ele>-3.9</ele>
        <time>2015-10-18T09:11:55Z</time>
      </trkpt>
      <trkpt lat="49.38981" lon="0.10488">
        <ele>-4.9</ele>
        <time>2015-10-18T09:11:56Z</time>
      </trkpt>
      <trkpt lat="49.39005" lon="0.10527">
        <ele>-32.2</ele>
        <time>2015-10-18T09:12:19Z</time>
      </trkpt>
      <trkpt lat="49.39006" lon="0.10528">
        <ele>-31.1</ele>
        <time>2015-10-18T09:12:20Z</time>
      </trkpt>
      <trkpt lat="49.39042" lon="0.10579">
        <ele>-3.3</ele>
        <time>2015-10-18T09:12:52Z</time>
      </trkpt>
      <trkpt lat="49.39043" lon="0.10582">
        <ele>-3.5</ele>
        <time>2015-10-18T09:12:55Z</time>
      </trkpt>
      <trkpt lat="49.39043" lon="0.10583">
        <ele>-3.5</ele>
        <time>2015-10-18T09:12:56Z</time>
      </trkpt>
      <trkpt lat="49.39044" lon="0.10584">
        <ele>-3.6</ele>
        <time>2015-10-18T09:12:57Z</time>
      </trkpt>
      <trkpt lat="49.39047" lon="0.1059">
        <ele>-2.9</ele>
        <time>2015-10-18T09:13:00Z</time>
      </trkpt>
      <trkpt lat="49.3905" lon="0.10593">
        <ele>-3.1</ele>
        <time>2015-10-18T09:13:02Z</time>
      </trkpt>
      <trkpt lat="49.39075" lon="0.10624">
        <ele>-3.4</ele>
        <time>2015-10-18T09:13:22Z</time>
      </trkpt>
      <trkpt lat="49.39077" lon="0.10626">
        <ele>-3.6</ele>
        <time>2015-10-18T09:13:23Z</time>
      </trkpt>
      <trkpt lat="49.39116" lon="0.10673">
        <ele>0.2</ele>
        <time>2015-10-18T09:13:55Z</time>
      </trkpt>
      <trkpt lat="49.39252" lon="0.10843">
        <ele>-4.6</ele>
        <time>2015-10-18T09:15:53Z</time>
      </trkpt>
      <trkpt lat="49.39253" lon="0.10844">
        <ele>-4.8</ele>
        <time>2015-10-18T09:15:54Z</time>
      </trkpt>
      <trkpt lat="49.39284" lon="0.10883">
        <ele>-6.2</ele>
        <time>2015-10-18T09:16:21Z</time>
      </trkpt>
      <trkpt lat="49.39288" lon="0.10891">
        <ele>-3.8</ele>
        <time>2015-10-18T09:16:26Z</time>
      </trkpt>
      <trkpt lat="49.39295" lon="0.10904">
        <ele>-3.1</ele>
        <time>2015-10-18T09:16:35Z</time>
      </trkpt>
      <trkpt lat="49.39295" lon="0.10904">
        <ele>-3.2</ele>
        <time>2015-10-18T09:16:36Z</time>
      </trkpt>
      <trkpt lat="49.39295" lon="0.10904">
        <ele>-3.3</ele>
        <time>2015-10-18T09:16:37Z</time>
      </trkpt>
      <trkpt lat="49.39295" lon="0.10904">
        <ele>-3.4</ele>
        <time>2015-10-18T09:16:38Z</time>
      </trkpt>
      <trkpt lat="49.39295" lon="0.10904">
        <ele>-3.5</ele>
        <time>2015-10-18T09:16:39Z</time>
      </trkpt>
      <trkpt lat="49.39296" lon="0.10905">
        <ele>-3.5</ele>
        <time>2015-10-18T09:16:40Z</time>
      </trkpt>
      <trkpt lat="49.39373" lon="0.10997">
        <ele>-4.7</ele>
        <time>2015-10-18T09:17:42Z</time>
      </trkpt>
      <trkpt lat="49.39374" lon="0.10999">
        <ele>-4.8</ele>
        <time>2015-10-18T09:17:43Z</time>
      </trkpt>
      <trkpt lat="49.39442" lon="0.11101">
        <ele>-3.9</ele>
        <time>2015-10-18T09:18:45Z</time>
      </trkpt>
      <trkpt lat="49.39443" lon="0.11102">
        <ele>-3.8</ele>
        <time>2015-10-18T09:18:46Z</time>
      </trkpt>
      <trkpt lat="49.39446" lon="0.11104">
        <ele>-4.1</ele>
        <time>2015-10-18T09:18:48Z</time>
      </trkpt>
      <trkpt lat="49.39457" lon="0.11113">
        <ele>-3.1</ele>
        <time>2015-10-18T09:18:56Z</time>
      </trkpt>
      <trkpt lat="49.39458" lon="0.11114">
        <ele>-4.3</ele>
        <time>2015-10-18T09:18:57Z</time>
      </trkpt>
      <trkpt lat="49.3946" lon="0.11118">
        <ele>-5.9</ele>
        <time>2015-10-18T09:19:00Z</time>
      </trkpt>
      <trkpt lat="49.39461" lon="0.11123">
        <ele>-7.1</ele>
        <time>2015-10-18T09:19:04Z</time>
      </trkpt>
      <trkpt lat="49.39462" lon="0.11125">
        <ele>-7.5</ele>
        <time>2015-10-18T09:19:05Z</time>
      </trkpt>
      <trkpt lat="49.39471" lon="0.11149">
        <ele>-3.4</ele>
        <time>2015-10-18T09:19:21Z</time>
      </trkpt>
      <trkpt lat="49.39471" lon="0.1115">
        <ele>-3.5</ele>
        <time>2015-10-18T09:19:22Z</time>
      </trkpt>
      <trkpt lat="49.39473" lon="0.11153">
        <ele>-3.3</ele>
        <time>2015-10-18T09:19:24Z</time>
      </trkpt>
      <trkpt lat="49.39491" lon="0.11177">
        <ele>-2.6</ele>
        <time>2015-10-18T09:19:42Z</time>
      </trkpt>
      <trkpt lat="49.39493" lon="0.11177">
        <ele>-3.2</ele>
        <time>2015-10-18T09:19:43Z</time>
      </trkpt>
      <trkpt lat="49.39496" lon="0.1118">
        <ele>-3</ele>
        <time>2015-10-18T09:19:46Z</time>
      </trkpt>
      <trkpt lat="49.39497" lon="0.11181">
        <ele>-2.7</ele>
        <time>2015-10-18T09:19:47Z</time>
      </trkpt>
      <trkpt lat="49.39499" lon="0.11183">
        <ele>-3.8</ele>
        <time>2015-10-18T09:19:49Z</time>
      </trkpt>
      <trkpt lat="49.39508" lon="0.11193">
        <ele>-2.9</ele>
        <time>2015-10-18T09:20:00Z</time>
      </trkpt>
      <trkpt lat="49.39514" lon="0.11199">
        <ele>-4.7</ele>
        <time>2015-10-18T09:20:07Z</time>
      </trkpt>
      <trkpt lat="49.39515" lon="0.11201">
        <ele>-5.9</ele>
        <time>2015-10-18T09:20:09Z</time>
      </trkpt>
      <trkpt lat="49.39527" lon="0.11218">
        <ele>-4.9</ele>
        <time>2015-10-18T09:20:25Z</time>
      </trkpt>
      <trkpt lat="49.39527" lon="0.11218">
        <ele>-4.6</ele>
        <time>2015-10-18T09:20:26Z</time>
      </trkpt>
      <trkpt lat="49.39527" lon="0.11217">
        <ele>-6</ele>
        <time>2015-10-18T09:20:28Z</time>
      </trkpt>
      <trkpt lat="49.39527" lon="0.11215">
        <ele>-5.7</ele>
        <time>2015-10-18T09:20:30Z</time>
      </trkpt>
      <trkpt lat="49.39527" lon="0.11214">
        <ele>-5.2</ele>
        <time>2015-10-18T09:20:31Z</time>
      </trkpt>
      <trkpt lat="49.39527" lon="0.11213">
        <ele>-4.8</ele>
        <time>2015-10-18T09:20:32Z</time>
      </trkpt>
      <trkpt lat="49.39527" lon="0.11212">
        <ele>-5.1</ele>
        <time>2015-10-18T09:20:33Z</time>
      </trkpt>
      <trkpt lat="49.39527" lon="0.11212">
        <ele>-5.4</ele>
        <time>2015-10-18T09:20:34Z</time>
      </trkpt>
      <trkpt lat="49.39526" lon="0.11212">
        <ele>-5.6</ele>
        <time>2015-10-18T09:20:35Z</time>
      </trkpt>
      <trkpt lat="49.39526" lon="0.11212">
        <ele>-5.7</ele>
        <time>2015-10-18T09:20:36Z</time>
      </trkpt>
      <trkpt lat="49.39526" lon="0.11212">
        <ele>-5.8</ele>
        <time>2015-10-18T09:20:37Z</time>
      </trkpt>
      <trkpt lat="49.39526" lon="0.11212">
        <ele>-5.9</ele>
        <time>2015-10-18T09:20:38Z</time>
      </trkpt>
      <trkpt lat="49.39526" lon="0.11212">
        <ele>-4.9</ele>
        <time>2015-10-18T09:20:39Z</time>
      </trkpt>
      <trkpt lat="49.39526" lon="0.11212">
        <ele>-4.2</ele>
        <time>2015-10-18T09:20:40Z</time>
      </trkpt>
      <trkpt lat="49.39525" lon="0.11212">
        <ele>-3.6</ele>
        <time>2015-10-18T09:20:41Z</time>
      </trkpt>
      <trkpt lat="49.39525" lon="0.11213">
        <ele>-2.8</ele>
        <time>2015-10-18T09:20:42Z</time>
      </trkpt>
      <trkpt lat="49.39525" lon="0.11215">
        <ele>-1.7</ele>
        <time>2015-10-18T09:20:44Z</time>
      </trkpt>
      <trkpt lat="49.39525" lon="0.11217">
        <ele>-2.4</ele>
        <time>2015-10-18T09:20:45Z</time>
      </trkpt>
      <trkpt lat="49.39525" lon="0.11219">
        <ele>-2.9</ele>
        <time>2015-10-18T09:20:46Z</time>
      </trkpt>
      <trkpt lat="49.39525" lon="0.1122">
        <ele>-3.3</ele>
        <time>2015-10-18T09:20:47Z</time>
      </trkpt>
      <trkpt lat="49.39526" lon="0.11222">
        <ele>-3.2</ele>
        <time>2015-10-18T09:20:48Z</time>
      </trkpt>
      <trkpt lat="49.39526" lon="0.11223">
        <ele>-3.1</ele>
        <time>2015-10-18T09:20:49Z</time>
      </trkpt>
      <trkpt lat="49.39527" lon="0.11224">
        <ele>-3</ele>
        <time>2015-10-18T09:20:50Z</time>
      </trkpt>
      <trkpt lat="49.39527" lon="0.11225">
        <ele>-3.2</ele>
        <time>2015-10-18T09:20:51Z</time>
      </trkpt>
      <trkpt lat="49.39528" lon="0.11226">
        <ele>-3.3</ele>
        <time>2015-10-18T09:20:52Z</time>
      </trkpt>
      <trkpt lat="49.39528" lon="0.11227">
        <ele>-3.4</ele>
        <time>2015-10-18T09:20:53Z</time>
      </trkpt>
      <trkpt lat="49.39528" lon="0.11228">
        <ele>-3.2</ele>
        <time>2015-10-18T09:20:54Z</time>
      </trkpt>
      <trkpt lat="49.39529" lon="0.11229">
        <ele>-3.1</ele>
        <time>2015-10-18T09:20:55Z</time>
      </trkpt>
      <trkpt lat="49.39529" lon="0.11231">
        <ele>-6.2</ele>
        <time>2015-10-18T09:20:58Z</time>
      </trkpt>
      <trkpt lat="49.39529" lon="0.11232">
        <ele>-7.2</ele>
        <time>2015-10-18T09:20:59Z</time>
      </trkpt>
      <trkpt lat="49.3953" lon="0.11235">
        <ele>-6.6</ele>
        <time>2015-10-18T09:21:02Z</time>
      </trkpt>
      <trkpt lat="49.39535" lon="0.11247">
        <ele>-4.1</ele>
        <time>2015-10-18T09:21:13Z</time>
      </trkpt>
      <trkpt lat="49.39537" lon="0.11253">
        <ele>-7.7</ele>
        <time>2015-10-18T09:21:18Z</time>
      </trkpt>
      <trkpt lat="49.39538" lon="0.11253">
        <ele>-7.5</ele>
        <time>2015-10-18T09:21:19Z</time>
      </trkpt>
      <trkpt lat="49.3954" lon="0.11255">
        <ele>-7.6</ele>
        <time>2015-10-18T09:21:22Z</time>
      </trkpt>
      <trkpt lat="49.3954" lon="0.11256">
        <ele>-7.6</ele>
        <time>2015-10-18T09:21:23Z</time>
      </trkpt>
      <trkpt lat="49.3954" lon="0.11258">
        <ele>-8.4</ele>
        <time>2015-10-18T09:21:25Z</time>
      </trkpt>
      <trkpt lat="49.3954" lon="0.11259">
        <ele>-8.7</ele>
        <time>2015-10-18T09:21:26Z</time>
      </trkpt>
      <trkpt lat="49.3954" lon="0.1126">
        <ele>-7.2</ele>
        <time>2015-10-18T09:21:27Z</time>
      </trkpt>
      <trkpt lat="49.3954" lon="0.11261">
        <ele>-6.1</ele>
        <time>2015-10-18T09:21:28Z</time>
      </trkpt>
      <trkpt lat="49.39541" lon="0.11266">
        <ele>-5.3</ele>
        <time>2015-10-18T09:21:31Z</time>
      </trkpt>
      <trkpt lat="49.39542" lon="0.11268">
        <ele>-4.7</ele>
        <time>2015-10-18T09:21:33Z</time>
      </trkpt>
      <trkpt lat="49.39545" lon="0.11275">
        <ele>-3.7</ele>
        <time>2015-10-18T09:21:40Z</time>
      </trkpt>
      <trkpt lat="49.39546" lon="0.11279">
        <ele>-3.2</ele>
        <time>2015-10-18T09:21:44Z</time>
      </trkpt>
      <trkpt lat="49.39546" lon="0.11284">
        <ele>-3.4</ele>
        <time>2015-10-18T09:21:49Z</time>
      </trkpt>
      <trkpt lat="49.39545" lon="0.11285">
        <ele>-3.3</ele>
        <time>2015-10-18T09:21:50Z</time>
      </trkpt>
      <trkpt lat="49.39544" lon="0.11288">
        <ele>-4.2</ele>
        <time>2015-10-18T09:21:52Z</time>
      </trkpt>
      <trkpt lat="49.39543" lon="0.11289">
        <ele>-4.4</ele>
        <time>2015-10-18T09:21:53Z</time>
      </trkpt>
      <trkpt lat="49.39543" lon="0.1129">
        <ele>-4</ele>
        <time>2015-10-18T09:21:54Z</time>
      </trkpt>
      <trkpt lat="49.39542" lon="0.11292">
        <ele>-3.7</ele>
        <time>2015-10-18T09:21:55Z</time>
      </trkpt>
      <trkpt lat="49.39542" lon="0.11293">
        <ele>-3.5</ele>
        <time>2015-10-18T09:21:56Z</time>
      </trkpt>
      <trkpt lat="49.39541" lon="0.11294">
        <ele>-3.7</ele>
        <time>2015-10-18T09:21:57Z</time>
      </trkpt>
      <trkpt lat="49.3954" lon="0.11303">
        <ele>-6.2</ele>
        <time>2015-10-18T09:22:03Z</time>
      </trkpt>
      <trkpt lat="49.39539" lon="0.11305">
        <ele>-5.3</ele>
        <time>2015-10-18T09:22:06Z</time>
      </trkpt>
      <trkpt lat="49.39538" lon="0.11305">
        <ele>-4.7</ele>
        <time>2015-10-18T09:22:07Z</time>
      </trkpt>
      <trkpt lat="49.39537" lon="0.11305">
        <ele>-4.2</ele>
        <time>2015-10-18T09:22:08Z</time>
      </trkpt>
      <trkpt lat="49.39537" lon="0.11305">
        <ele>-4.1</ele>
        <time>2015-10-18T09:22:09Z</time>
      </trkpt>
      <trkpt lat="49.39536" lon="0.11305">
        <ele>-4</ele>
        <time>2015-10-18T09:22:10Z</time>
      </trkpt>
      <trkpt lat="49.39535" lon="0.11304">
        <ele>-3.9</ele>
        <time>2015-10-18T09:22:11Z</time>
      </trkpt>
      <trkpt lat="49.39535" lon="0.11304">
        <ele>-3.6</ele>
        <time>2015-10-18T09:22:12Z</time>
      </trkpt>
      <trkpt lat="49.39535" lon="0.11303">
        <ele>-3.4</ele>
        <time>2015-10-18T09:22:13Z</time>
      </trkpt>
      <trkpt lat="49.39535" lon="0.11303">
        <ele>-3.3</ele>
        <time>2015-10-18T09:22:14Z</time>
      </trkpt>
      <trkpt lat="49.39534" lon="0.11303">
        <ele>-3.1</ele>
        <time>2015-10-18T09:22:15Z</time>
      </trkpt>
      <trkpt lat="49.39534" lon="0.11303">
        <ele>-3.1</ele>
        <time>2015-10-18T09:22:16Z</time>
      </trkpt>
      <trkpt lat="49.39534" lon="0.11303">
        <ele>-3</ele>
        <time>2015-10-18T09:22:17Z</time>
      </trkpt>
      <trkpt lat="49.39534" lon="0.11304">
        <ele>-3.2</ele>
        <time>2015-10-18T09:22:18Z</time>
      </trkpt>
      <trkpt lat="49.39534" lon="0.11305">
        <ele>-3.3</ele>
        <time>2015-10-18T09:22:19Z</time>
      </trkpt>
      <trkpt lat="49.39535" lon="0.11306">
        <ele>-3.4</ele>
        <time>2015-10-18T09:22:20Z</time>
      </trkpt>
      <trkpt lat="49.39536" lon="0.11307">
        <ele>-3.6</ele>
        <time>2015-10-18T09:22:21Z</time>
      </trkpt>
      <trkpt lat="49.39537" lon="0.11307">
        <ele>-3.8</ele>
        <time>2015-10-18T09:22:22Z</time>
      </trkpt>
      <trkpt lat="49.39538" lon="0.11308">
        <ele>-4</ele>
        <time>2015-10-18T09:22:23Z</time>
      </trkpt>
      <trkpt lat="49.39538" lon="0.11309">
        <ele>-4.5</ele>
        <time>2015-10-18T09:22:24Z</time>
      </trkpt>
      <trkpt lat="49.39539" lon="0.1131">
        <ele>-4.9</ele>
        <time>2015-10-18T09:22:25Z</time>
      </trkpt>
      <trkpt lat="49.39539" lon="0.11311">
        <ele>-5.2</ele>
        <time>2015-10-18T09:22:26Z</time>
      </trkpt>
      <trkpt lat="49.3954" lon="0.11314">
        <ele>-7.1</ele>
        <time>2015-10-18T09:22:28Z</time>
      </trkpt>
      <trkpt lat="49.39545" lon="0.11331">
        <ele>-4.9</ele>
        <time>2015-10-18T09:22:44Z</time>
      </trkpt>
      <trkpt lat="49.39546" lon="0.11334">
        <ele>-4.7</ele>
        <time>2015-10-18T09:22:46Z</time>
      </trkpt>
      <trkpt lat="49.39549" lon="0.11341">
        <ele>-4.7</ele>
        <time>2015-10-18T09:22:51Z</time>
      </trkpt>
      <trkpt lat="49.39549" lon="0.11342">
        <ele>-4.4</ele>
        <time>2015-10-18T09:22:52Z</time>
      </trkpt>
      <trkpt lat="49.39549" lon="0.11344">
        <ele>-4.2</ele>
        <time>2015-10-18T09:22:53Z</time>
      </trkpt>
      <trkpt lat="49.39549" lon="0.11345">
        <ele>-4.5</ele>
        <time>2015-10-18T09:22:54Z</time>
      </trkpt>
      <trkpt lat="49.39551" lon="0.11353">
        <ele>-7.5</ele>
        <time>2015-10-18T09:22:59Z</time>
      </trkpt>
      <trkpt lat="49.3955" lon="0.11357">
        <ele>-6.2</ele>
        <time>2015-10-18T09:23:01Z</time>
      </trkpt>
      <trkpt lat="49.3955" lon="0.11364">
        <ele>-6.4</ele>
        <time>2015-10-18T09:23:05Z</time>
      </trkpt>
      <trkpt lat="49.3955" lon="0.11366">
        <ele>-6.6</ele>
        <time>2015-10-18T09:23:06Z</time>
      </trkpt>
      <trkpt lat="49.39553" lon="0.11375">
        <ele>-6.9</ele>
        <time>2015-10-18T09:23:11Z</time>
      </trkpt>
      <trkpt lat="49.39553" lon="0.11376">
        <ele>-6.1</ele>
        <time>2015-10-18T09:23:12Z</time>
      </trkpt>
      <trkpt lat="49.39554" lon="0.1138">
        <ele>-5</ele>
        <time>2015-10-18T09:23:14Z</time>
      </trkpt>
      <trkpt lat="49.39555" lon="0.11381">
        <ele>-5.7</ele>
        <time>2015-10-18T09:23:15Z</time>
      </trkpt>
      <trkpt lat="49.39567" lon="0.11459">
        <ele>-3.7</ele>
        <time>2015-10-18T09:23:58Z</time>
      </trkpt>
      <trkpt lat="49.39568" lon="0.1146">
        <ele>-2.8</ele>
        <time>2015-10-18T09:23:59Z</time>
      </trkpt>
      <trkpt lat="49.39577" lon="0.11487">
        <ele>-5</ele>
        <time>2015-10-18T09:24:17Z</time>
      </trkpt>
      <trkpt lat="49.39578" lon="0.11489">
        <ele>-5.7</ele>
        <time>2015-10-18T09:24:20Z</time>
      </trkpt>
      <trkpt lat="49.39578" lon="0.11489">
        <ele>-5.8</ele>
        <time>2015-10-18T09:24:21Z</time>
      </trkpt>
      <trkpt lat="49.39578" lon="0.11489">
        <ele>-5.9</ele>
        <time>2015-10-18T09:24:22Z</time>
      </trkpt>
      <trkpt lat="49.39577" lon="0.11489">
        <ele>-5.9</ele>
        <time>2015-10-18T09:24:23Z</time>
      </trkpt>
      <trkpt lat="49.39577" lon="0.11489">
        <ele>-5.8</ele>
        <time>2015-10-18T09:24:24Z</time>
      </trkpt>
      <trkpt lat="49.39577" lon="0.11489">
        <ele>-5.6</ele>
        <time>2015-10-18T09:24:25Z</time>
      </trkpt>
      <trkpt lat="49.39577" lon="0.1149">
        <ele>-5.6</ele>
        <time>2015-10-18T09:24:26Z</time>
      </trkpt>
      <trkpt lat="49.39577" lon="0.1149">
        <ele>-5.7</ele>
        <time>2015-10-18T09:24:27Z</time>
      </trkpt>
      <trkpt lat="49.39577" lon="0.1149">
        <ele>-5.8</ele>
        <time>2015-10-18T09:24:28Z</time>
      </trkpt>
      <trkpt lat="49.39576" lon="0.1149">
        <ele>-5.9</ele>
        <time>2015-10-18T09:24:29Z</time>
      </trkpt>
      <trkpt lat="49.39576" lon="0.11491">
        <ele>-5.5</ele>
        <time>2015-10-18T09:24:30Z</time>
      </trkpt>
      <trkpt lat="49.39576" lon="0.11492">
        <ele>-5.3</ele>
        <time>2015-10-18T09:24:31Z</time>
      </trkpt>
      <trkpt lat="49.39576" lon="0.11493">
        <ele>-5.1</ele>
        <time>2015-10-18T09:24:32Z</time>
      </trkpt>
      <trkpt lat="49.39576" lon="0.11494">
        <ele>-4.7</ele>
        <time>2015-10-18T09:24:33Z</time>
      </trkpt>
      <trkpt lat="49.39577" lon="0.11496">
        <ele>-4.4</ele>
        <time>2015-10-18T09:24:34Z</time>
      </trkpt>
      <trkpt lat="49.39582" lon="0.11506">
        <ele>-5.3</ele>
        <time>2015-10-18T09:24:41Z</time>
      </trkpt>
      <trkpt lat="49.39588" lon="0.11516">
        <ele>-6.6</ele>
        <time>2015-10-18T09:24:48Z</time>
      </trkpt>
      <trkpt lat="49.39589" lon="0.11519">
        <ele>-6.8</ele>
        <time>2015-10-18T09:24:50Z</time>
      </trkpt>
      <trkpt lat="49.39592" lon="0.11529">
        <ele>-9.3</ele>
        <time>2015-10-18T09:24:56Z</time>
      </trkpt>
      <trkpt lat="49.39601" lon="0.11554">
        <ele>-7.2</ele>
        <time>2015-10-18T09:25:12Z</time>
      </trkpt>
      <trkpt lat="49.39602" lon="0.11556">
        <ele>-7.3</ele>
        <time>2015-10-18T09:25:13Z</time>
      </trkpt>
      <trkpt lat="49.39603" lon="0.11561">
        <ele>-9.1</ele>
        <time>2015-10-18T09:25:17Z</time>
      </trkpt>
      <trkpt lat="49.39603" lon="0.11563">
        <ele>-8.3</ele>
        <time>2015-10-18T09:25:18Z</time>
      </trkpt>
      <trkpt lat="49.39604" lon="0.11568">
        <ele>-8.5</ele>
        <time>2015-10-18T09:25:21Z</time>
      </trkpt>
      <trkpt lat="49.39605" lon="0.11573">
        <ele>-8.8</ele>
        <time>2015-10-18T09:25:24Z</time>
      </trkpt>
      <trkpt lat="49.39609" lon="0.11589">
        <ele>-9.6</ele>
        <time>2015-10-18T09:25:33Z</time>
      </trkpt>
      <trkpt lat="49.3961" lon="0.1159">
        <ele>-9.6</ele>
        <time>2015-10-18T09:25:34Z</time>
      </trkpt>
      <trkpt lat="49.39614" lon="0.116">
        <ele>-6.1</ele>
        <time>2015-10-18T09:25:40Z</time>
      </trkpt>
      <trkpt lat="49.39626" lon="0.11628">
        <ele>-17.2</ele>
        <time>2015-10-18T09:25:56Z</time>
      </trkpt>
      <trkpt lat="49.39626" lon="0.11631">
        <ele>-18.4</ele>
        <time>2015-10-18T09:25:57Z</time>
      </trkpt>
      <trkpt lat="49.39627" lon="0.11644">
        <ele>-7.1</ele>
        <time>2015-10-18T09:26:03Z</time>
      </trkpt>
      <trkpt lat="49.39627" lon="0.11654">
        <ele>-7.7</ele>
        <time>2015-10-18T09:26:08Z</time>
      </trkpt>
      <trkpt lat="49.39625" lon="0.11684">
        <ele>-7.7</ele>
        <time>2015-10-18T09:26:23Z</time>
      </trkpt>
      <trkpt lat="49.39625" lon="0.11686">
        <ele>-7.1</ele>
        <time>2015-10-18T09:26:24Z</time>
      </trkpt>
      <trkpt lat="49.39632" lon="0.11704">
        <ele>-8.1</ele>
        <time>2015-10-18T09:26:33Z</time>
      </trkpt>
      <trkpt lat="49.39637" lon="0.11722">
        <ele>-3</ele>
        <time>2015-10-18T09:26:42Z</time>
      </trkpt>
      <trkpt lat="49.39638" lon="0.11724">
        <ele>-3.3</ele>
        <time>2015-10-18T09:26:43Z</time>
      </trkpt>
      <trkpt lat="49.39641" lon="0.11742">
        <ele>-3.6</ele>
        <time>2015-10-18T09:26:53Z</time>
      </trkpt>
      <trkpt lat="49.39642" lon="0.11744">
        <ele>-4.3</ele>
        <time>2015-10-18T09:26:54Z</time>
      </trkpt>
      <trkpt lat="49.39652" lon="0.11764">
        <ele>-5.8</ele>
        <time>2015-10-18T09:27:06Z</time>
      </trkpt>
      <trkpt lat="49.39686" lon="0.11827">
        <ele>-6.4</ele>
        <time>2015-10-18T09:27:44Z</time>
      </trkpt>
      <trkpt lat="49.39687" lon="0.11829">
        <ele>-6.5</ele>
        <time>2015-10-18T09:27:45Z</time>
      </trkpt>
      <trkpt lat="49.39748" lon="0.11935">
        <ele>-7.1</ele>
        <time>2015-10-18T09:28:48Z</time>
      </trkpt>
      <trkpt lat="49.39749" lon="0.11936">
        <ele>-7.3</ele>
        <time>2015-10-18T09:28:49Z</time>
      </trkpt>
      <trkpt lat="49.39839" lon="0.12095">
        <ele>-5.7</ele>
        <time>2015-10-18T09:30:34Z</time>
      </trkpt>
      <trkpt lat="49.39886" lon="0.12179">
        <ele>-15.3</ele>
        <time>2015-10-18T09:31:31Z</time>
      </trkpt>
      <trkpt lat="49.39899" lon="0.12202">
        <ele>-7.5</ele>
        <time>2015-10-18T09:31:47Z</time>
      </trkpt>
      <trkpt lat="49.39899" lon="0.12203">
        <ele>-8</ele>
        <time>2015-10-18T09:31:48Z</time>
      </trkpt>
      <trkpt lat="49.39958" lon="0.12285">
        <ele>-2.2</ele>
        <time>2015-10-18T09:32:52Z</time>
      </trkpt>
      <trkpt lat="49.39959" lon="0.12287">
        <ele>-2</ele>
        <time>2015-10-18T09:32:53Z</time>
      </trkpt>
      <trkpt lat="49.39977" lon="0.1232">
        <ele>-3.9</ele>
        <time>2015-10-18T09:33:16Z</time>
      </trkpt>
      <trkpt lat="49.39987" lon="0.12341">
        <ele>-7.2</ele>
        <time>2015-10-18T09:33:29Z</time>
      </trkpt>
      <trkpt lat="49.39988" lon="0.12343">
        <ele>-6.7</ele>
        <time>2015-10-18T09:33:30Z</time>
      </trkpt>
      <trkpt lat="49.39989" lon="0.12348">
        <ele>-5.7</ele>
        <time>2015-10-18T09:33:34Z</time>
      </trkpt>
      <trkpt lat="49.3999" lon="0.1235">
        <ele>-5.2</ele>
        <time>2015-10-18T09:33:35Z</time>
      </trkpt>
      <trkpt lat="49.40004" lon="0.12384">
        <ele>-1.3</ele>
        <time>2015-10-18T09:34:01Z</time>
      </trkpt>
      <trkpt lat="49.40004" lon="0.12385">
        <ele>-1.3</ele>
        <time>2015-10-18T09:34:02Z</time>
      </trkpt>
      <trkpt lat="49.40004" lon="0.12387">
        <ele>-1.3</ele>
        <time>2015-10-18T09:34:03Z</time>
      </trkpt>
      <trkpt lat="49.40004" lon="0.12395">
        <ele>-0.9</ele>
        <time>2015-10-18T09:34:08Z</time>
      </trkpt>
      <trkpt lat="49.40004" lon="0.12399">
        <ele>-1.7</ele>
        <time>2015-10-18T09:34:10Z</time>
      </trkpt>
      <trkpt lat="49.40005" lon="0.124">
        <ele>-3</ele>
        <time>2015-10-18T09:34:11Z</time>
      </trkpt>
      <trkpt lat="49.40006" lon="0.12405">
        <ele>-3.8</ele>
        <time>2015-10-18T09:34:14Z</time>
      </trkpt>
      <trkpt lat="49.40014" lon="0.12418">
        <ele>-2.9</ele>
        <time>2015-10-18T09:34:24Z</time>
      </trkpt>
      <trkpt lat="49.40016" lon="0.12418">
        <ele>-3.3</ele>
        <time>2015-10-18T09:34:26Z</time>
      </trkpt>
      <trkpt lat="49.40017" lon="0.12418">
        <ele>-3.6</ele>
        <time>2015-10-18T09:34:27Z</time>
      </trkpt>
      <trkpt lat="49.40018" lon="0.12419">
        <ele>-3.8</ele>
        <time>2015-10-18T09:34:28Z</time>
      </trkpt>
      <trkpt lat="49.40019" lon="0.12419">
        <ele>-3.4</ele>
        <time>2015-10-18T09:34:29Z</time>
      </trkpt>
      <trkpt lat="49.4002" lon="0.12419">
        <ele>-3</ele>
        <time>2015-10-18T09:34:30Z</time>
      </trkpt>
      <trkpt lat="49.40021" lon="0.1242">
        <ele>-2.7</ele>
        <time>2015-10-18T09:34:31Z</time>
      </trkpt>
      <trkpt lat="49.40021" lon="0.12419">
        <ele>-2.3</ele>
        <time>2015-10-18T09:34:32Z</time>
      </trkpt>
      <trkpt lat="49.40021" lon="0.12419">
        <ele>-2</ele>
        <time>2015-10-18T09:34:33Z</time>
      </trkpt>
      <trkpt lat="49.40021" lon="0.12419">
        <ele>-1.8</ele>
        <time>2015-10-18T09:34:34Z</time>
      </trkpt>
      <trkpt lat="49.4002" lon="0.12419">
        <ele>-2.1</ele>
        <time>2015-10-18T09:34:35Z</time>
      </trkpt>
      <trkpt lat="49.4002" lon="0.12419">
        <ele>-2.3</ele>
        <time>2015-10-18T09:34:36Z</time>
      </trkpt>
      <trkpt lat="49.4002" lon="0.12419">
        <ele>-2.4</ele>
        <time>2015-10-18T09:34:37Z</time>
      </trkpt>
      <trkpt lat="49.4002" lon="0.12419">
        <ele>-2.5</ele>
        <time>2015-10-18T09:34:38Z</time>
      </trkpt>
      <trkpt lat="49.4002" lon="0.12419">
        <ele>-2.6</ele>
        <time>2015-10-18T09:34:39Z</time>
      </trkpt>
      <trkpt lat="49.4002" lon="0.12419">
        <ele>-2.6</ele>
        <time>2015-10-18T09:34:40Z</time>
      </trkpt>
      <trkpt lat="49.4002" lon="0.12419">
        <ele>-5</ele>
        <time>2015-10-18T09:34:41Z</time>
      </trkpt>
      <trkpt lat="49.4002" lon="0.12419">
        <ele>-6.7</ele>
        <time>2015-10-18T09:34:42Z</time>
      </trkpt>
      <trkpt lat="49.4002" lon="0.12419">
        <ele>-8</ele>
        <time>2015-10-18T09:34:43Z</time>
      </trkpt>
      <trkpt lat="49.4002" lon="0.12419">
        <ele>-6.9</ele>
        <time>2015-10-18T09:34:44Z</time>
      </trkpt>
      <trkpt lat="49.4002" lon="0.1242">
        <ele>-6.1</ele>
        <time>2015-10-18T09:34:45Z</time>
      </trkpt>
      <trkpt lat="49.4002" lon="0.1242">
        <ele>-5.5</ele>
        <time>2015-10-18T09:34:46Z</time>
      </trkpt>
      <trkpt lat="49.4002" lon="0.1242">
        <ele>-5.2</ele>
        <time>2015-10-18T09:34:47Z</time>
      </trkpt>
      <trkpt lat="49.4002" lon="0.1242">
        <ele>-5</ele>
        <time>2015-10-18T09:34:48Z</time>
      </trkpt>
      <trkpt lat="49.4002" lon="0.1242">
        <ele>-4.9</ele>
        <time>2015-10-18T09:34:49Z</time>
      </trkpt>
      <trkpt lat="49.4002" lon="0.12419">
        <ele>-4.6</ele>
        <time>2015-10-18T09:34:50Z</time>
      </trkpt>
      <trkpt lat="49.4002" lon="0.12419">
        <ele>-4.3</ele>
        <time>2015-10-18T09:34:51Z</time>
      </trkpt>
      <trkpt lat="49.4002" lon="0.12419">
        <ele>-4.2</ele>
        <time>2015-10-18T09:34:52Z</time>
      </trkpt>
      <trkpt lat="49.4002" lon="0.12419">
        <ele>-3.8</ele>
        <time>2015-10-18T09:34:53Z</time>
      </trkpt>
      <trkpt lat="49.4002" lon="0.1242">
        <ele>-3.6</ele>
        <time>2015-10-18T09:34:54Z</time>
      </trkpt>
      <trkpt lat="49.4002" lon="0.1242">
        <ele>-3.4</ele>
        <time>2015-10-18T09:34:55Z</time>
      </trkpt>
      <trkpt lat="49.4002" lon="0.1242">
        <ele>-3.2</ele>
        <time>2015-10-18T09:34:56Z</time>
      </trkpt>
      <trkpt lat="49.4002" lon="0.1242">
        <ele>-3.1</ele>
        <time>2015-10-18T09:34:57Z</time>
      </trkpt>
      <trkpt lat="49.4002" lon="0.1242">
        <ele>-3</ele>
        <time>2015-10-18T09:34:58Z</time>
      </trkpt>
      <trkpt lat="49.40019" lon="0.1242">
        <ele>-2.4</ele>
        <time>2015-10-18T09:34:59Z</time>
      </trkpt>
      <trkpt lat="49.40019" lon="0.1242">
        <ele>-1.9</ele>
        <time>2015-10-18T09:35:00Z</time>
      </trkpt>
      <trkpt lat="49.40019" lon="0.1242">
        <ele>-1.5</ele>
        <time>2015-10-18T09:35:01Z</time>
      </trkpt>
      <trkpt lat="49.40019" lon="0.1242">
        <ele>-1</ele>
        <time>2015-10-18T09:35:02Z</time>
      </trkpt>
      <trkpt lat="49.4002" lon="0.1242">
        <ele>-0.6</ele>
        <time>2015-10-18T09:35:03Z</time>
      </trkpt>
      <trkpt lat="49.4002" lon="0.12421">
        <ele>-0.3</ele>
        <time>2015-10-18T09:35:04Z</time>
      </trkpt>
      <trkpt lat="49.40021" lon="0.12422">
        <ele>-0.3</ele>
        <time>2015-10-18T09:35:06Z</time>
      </trkpt>
      <trkpt lat="49.40021" lon="0.12422">
        <ele>-0.3</ele>
        <time>2015-10-18T09:35:07Z</time>
      </trkpt>
      <trkpt lat="49.40021" lon="0.12422">
        <ele>-2</ele>
        <time>2015-10-18T09:35:08Z</time>
      </trkpt>
      <trkpt lat="49.40021" lon="0.12422">
        <ele>-3.2</ele>
        <time>2015-10-18T09:35:09Z</time>
      </trkpt>
      <trkpt lat="49.40021" lon="0.12422">
        <ele>-4.2</ele>
        <time>2015-10-18T09:35:10Z</time>
      </trkpt>
      <trkpt lat="49.40021" lon="0.12422">
        <ele>-2.8</ele>
        <time>2015-10-18T09:35:11Z</time>
      </trkpt>
      <trkpt lat="49.40051" lon="0.12441">
        <ele>-2.4</ele>
        <time>2015-10-18T09:35:38Z</time>
      </trkpt>
      <trkpt lat="49.40052" lon="0.12442">
        <ele>-2.9</ele>
        <time>2015-10-18T09:35:39Z</time>
      </trkpt>
      <trkpt lat="49.40057" lon="0.12449">
        <ele>-2.4</ele>
        <time>2015-10-18T09:35:45Z</time>
      </trkpt>
      <trkpt lat="49.40059" lon="0.12452">
        <ele>-3.2</ele>
        <time>2015-10-18T09:35:49Z</time>
      </trkpt>
      <trkpt lat="49.40059" lon="0.12453">
        <ele>-3.3</ele>
        <time>2015-10-18T09:35:50Z</time>
      </trkpt>
      <trkpt lat="49.40059" lon="0.12452">
        <ele>-3.4</ele>
        <time>2015-10-18T09:35:51Z</time>
      </trkpt>
      <trkpt lat="49.40059" lon="0.12453">
        <ele>-3.4</ele>
        <time>2015-10-18T09:35:52Z</time>
      </trkpt>
      <trkpt lat="49.40063" lon="0.12461">
        <ele>-4.1</ele>
        <time>2015-10-18T09:35:58Z</time>
      </trkpt>
      <trkpt lat="49.4014" lon="0.12628">
        <ele>-2.7</ele>
        <time>2015-10-18T09:37:53Z</time>
      </trkpt>
      <trkpt lat="49.4014" lon="0.12628">
        <ele>-3.8</ele>
        <time>2015-10-18T09:37:54Z</time>
      </trkpt>
      <trkpt lat="49.40141" lon="0.12628">
        <ele>-4.6</ele>
        <time>2015-10-18T09:37:55Z</time>
      </trkpt>
      <trkpt lat="49.40141" lon="0.12628">
        <ele>-3.7</ele>
        <time>2015-10-18T09:37:56Z</time>
      </trkpt>
      <trkpt lat="49.40141" lon="0.12628">
        <ele>-3.1</ele>
        <time>2015-10-18T09:37:57Z</time>
      </trkpt>
      <trkpt lat="49.40144" lon="0.12633">
        <ele>-1.8</ele>
        <time>2015-10-18T09:38:01Z</time>
      </trkpt>
      <trkpt lat="49.40152" lon="0.12645">
        <ele>-2</ele>
        <time>2015-10-18T09:38:11Z</time>
      </trkpt>
      <trkpt lat="49.40153" lon="0.12645">
        <ele>-2</ele>
        <time>2015-10-18T09:38:12Z</time>
      </trkpt>
      <trkpt lat="49.40166" lon="0.12657">
        <ele>-7.4</ele>
        <time>2015-10-18T09:38:24Z</time>
      </trkpt>
      <trkpt lat="49.40166" lon="0.12659">
        <ele>-9.1</ele>
        <time>2015-10-18T09:38:25Z</time>
      </trkpt>
      <trkpt lat="49.40167" lon="0.1266">
        <ele>-7.5</ele>
        <time>2015-10-18T09:38:26Z</time>
      </trkpt>
      <trkpt lat="49.40168" lon="0.12662">
        <ele>-6.4</ele>
        <time>2015-10-18T09:38:27Z</time>
      </trkpt>
      <trkpt lat="49.40183" lon="0.12698">
        <ele>-3</ele>
        <time>2015-10-18T09:38:49Z</time>
      </trkpt>
      <trkpt lat="49.4021" lon="0.1277">
        <ele>-3.9</ele>
        <time>2015-10-18T09:39:34Z</time>
      </trkpt>
      <trkpt lat="49.4021" lon="0.1277">
        <ele>-3.7</ele>
        <time>2015-10-18T09:39:35Z</time>
      </trkpt>
      <trkpt lat="49.4021" lon="0.1277">
        <ele>-3.4</ele>
        <time>2015-10-18T09:39:36Z</time>
      </trkpt>
      <trkpt lat="49.4021" lon="0.1277">
        <ele>-3.3</ele>
        <time>2015-10-18T09:39:37Z</time>
      </trkpt>
      <trkpt lat="49.40209" lon="0.1277">
        <ele>-2.8</ele>
        <time>2015-10-18T09:39:38Z</time>
      </trkpt>
      <trkpt lat="49.40209" lon="0.1277">
        <ele>-2.4</ele>
        <time>2015-10-18T09:39:39Z</time>
      </trkpt>
      <trkpt lat="49.40209" lon="0.1277">
        <ele>-2</ele>
        <time>2015-10-18T09:39:40Z</time>
      </trkpt>
      <trkpt lat="49.40209" lon="0.1277">
        <ele>-2</ele>
        <time>2015-10-18T09:39:41Z</time>
      </trkpt>
      <trkpt lat="49.40209" lon="0.1277">
        <ele>-2</ele>
        <time>2015-10-18T09:39:42Z</time>
      </trkpt>
      <trkpt lat="49.40209" lon="0.1277">
        <ele>-2</ele>
        <time>2015-10-18T09:39:43Z</time>
      </trkpt>
      <trkpt lat="49.40209" lon="0.1277">
        <ele>-2.2</ele>
        <time>2015-10-18T09:39:44Z</time>
      </trkpt>
      <trkpt lat="49.40209" lon="0.1277">
        <ele>-2.4</ele>
        <time>2015-10-18T09:39:45Z</time>
      </trkpt>
      <trkpt lat="49.40209" lon="0.1277">
        <ele>-2.5</ele>
        <time>2015-10-18T09:39:46Z</time>
      </trkpt>
      <trkpt lat="49.40209" lon="0.1277">
        <ele>-2.3</ele>
        <time>2015-10-18T09:39:47Z</time>
      </trkpt>
      <trkpt lat="49.40209" lon="0.1277">
        <ele>-2.3</ele>
        <time>2015-10-18T09:39:48Z</time>
      </trkpt>
      <trkpt lat="49.40209" lon="0.1277">
        <ele>-2.2</ele>
        <time>2015-10-18T09:39:49Z</time>
      </trkpt>
      <trkpt lat="49.40209" lon="0.1277">
        <ele>-2.1</ele>
        <time>2015-10-18T09:39:50Z</time>
      </trkpt>
      <trkpt lat="49.40209" lon="0.12771">
        <ele>-2.1</ele>
        <time>2015-10-18T09:39:51Z</time>
      </trkpt>
      <trkpt lat="49.40209" lon="0.12772">
        <ele>-2.1</ele>
        <time>2015-10-18T09:39:52Z</time>
      </trkpt>
      <trkpt lat="49.40214" lon="0.12797">
        <ele>-8.3</ele>
        <time>2015-10-18T09:40:07Z</time>
      </trkpt>
      <trkpt lat="49.40214" lon="0.12798">
        <ele>-5.9</ele>
        <time>2015-10-18T09:40:08Z</time>
      </trkpt>
      <trkpt lat="49.40217" lon="0.12806">
        <ele>-0.9</ele>
        <time>2015-10-18T09:40:13Z</time>
      </trkpt>
      <trkpt lat="49.40252" lon="0.1288">
        <ele>-4.4</ele>
        <time>2015-10-18T09:41:03Z</time>
      </trkpt>
      <trkpt lat="49.40252" lon="0.1288">
        <ele>-4.9</ele>
        <time>2015-10-18T09:41:04Z</time>
      </trkpt>
      <trkpt lat="49.40252" lon="0.1288">
        <ele>-4.6</ele>
        <time>2015-10-18T09:41:05Z</time>
      </trkpt>
      <trkpt lat="49.40252" lon="0.1288">
        <ele>-4.3</ele>
        <time>2015-10-18T09:41:06Z</time>
      </trkpt>
      <trkpt lat="49.40252" lon="0.1288">
        <ele>-4.2</ele>
        <time>2015-10-18T09:41:07Z</time>
      </trkpt>
      <trkpt lat="49.40252" lon="0.1288">
        <ele>-4.2</ele>
        <time>2015-10-18T09:41:08Z</time>
      </trkpt>
      <trkpt lat="49.40252" lon="0.1288">
        <ele>-4.3</ele>
        <time>2015-10-18T09:41:09Z</time>
      </trkpt>
      <trkpt lat="49.40252" lon="0.1288">
        <ele>-4.3</ele>
        <time>2015-10-18T09:41:10Z</time>
      </trkpt>
      <trkpt lat="49.40252" lon="0.1288">
        <ele>-4.2</ele>
        <time>2015-10-18T09:41:11Z</time>
      </trkpt>
      <trkpt lat="49.40252" lon="0.1288">
        <ele>-4</ele>
        <time>2015-10-18T09:41:12Z</time>
      </trkpt>
      <trkpt lat="49.40252" lon="0.1288">
        <ele>-3.9</ele>
        <time>2015-10-18T09:41:13Z</time>
      </trkpt>
      <trkpt lat="49.40251" lon="0.1288">
        <ele>-3.4</ele>
        <time>2015-10-18T09:41:14Z</time>
      </trkpt>
      <trkpt lat="49.40251" lon="0.1288">
        <ele>-3.1</ele>
        <time>2015-10-18T09:41:15Z</time>
      </trkpt>
      <trkpt lat="49.40251" lon="0.1288">
        <ele>-2.8</ele>
        <time>2015-10-18T09:41:16Z</time>
      </trkpt>
      <trkpt lat="49.40251" lon="0.1288">
        <ele>-2.6</ele>
        <time>2015-10-18T09:41:17Z</time>
      </trkpt>
      <trkpt lat="49.40251" lon="0.1288">
        <ele>-2.4</ele>
        <time>2015-10-18T09:41:18Z</time>
      </trkpt>
      <trkpt lat="49.40251" lon="0.1288">
        <ele>-2.3</ele>
        <time>2015-10-18T09:41:19Z</time>
      </trkpt>
      <trkpt lat="49.40251" lon="0.1288">
        <ele>-2.4</ele>
        <time>2015-10-18T09:41:20Z</time>
      </trkpt>
      <trkpt lat="49.40251" lon="0.1288">
        <ele>-2.5</ele>
        <time>2015-10-18T09:41:21Z</time>
      </trkpt>
      <trkpt lat="49.40251" lon="0.1288">
        <ele>-2.6</ele>
        <time>2015-10-18T09:41:22Z</time>
      </trkpt>
      <trkpt lat="49.40251" lon="0.1288">
        <ele>-2.2</ele>
        <time>2015-10-18T09:41:23Z</time>
      </trkpt>
      <trkpt lat="49.40251" lon="0.1288">
        <ele>-2</ele>
        <time>2015-10-18T09:41:24Z</time>
      </trkpt>
      <trkpt lat="49.40251" lon="0.1288">
        <ele>-1.8</ele>
        <time>2015-10-18T09:41:25Z</time>
      </trkpt>
      <trkpt lat="49.40251" lon="0.1288">
        <ele>-2.4</ele>
        <time>2015-10-18T09:41:26Z</time>
      </trkpt>
      <trkpt lat="49.40251" lon="0.1288">
        <ele>-2.9</ele>
        <time>2015-10-18T09:41:27Z</time>
      </trkpt>
      <trkpt lat="49.40252" lon="0.1288">
        <ele>-2.2</ele>
        <time>2015-10-18T09:41:37Z</time>
      </trkpt>
      <trkpt lat="49.40252" lon="0.1288">
        <ele>-1.7</ele>
        <time>2015-10-18T09:41:38Z</time>
      </trkpt>
      <trkpt lat="49.40252" lon="0.1288">
        <ele>-1.4</ele>
        <time>2015-10-18T09:41:39Z</time>
      </trkpt>
      <trkpt lat="49.40252" lon="0.12879">
        <ele>-1.1</ele>
        <time>2015-10-18T09:41:40Z</time>
      </trkpt>
      <trkpt lat="49.40251" lon="0.12878">
        <ele>-0.9</ele>
        <time>2015-10-18T09:41:41Z</time>
      </trkpt>
      <trkpt lat="49.4025" lon="0.12877">
        <ele>-0.6</ele>
        <time>2015-10-18T09:41:43Z</time>
      </trkpt>
      <trkpt lat="49.40249" lon="0.12877">
        <ele>5.4</ele>
        <time>2015-10-18T09:41:44Z</time>
      </trkpt>
      <trkpt lat="49.40248" lon="0.12877">
        <ele>0.5</ele>
        <time>2015-10-18T09:41:45Z</time>
      </trkpt>
      <trkpt lat="49.40247" lon="0.12877">
        <ele>0.9</ele>
        <time>2015-10-18T09:41:46Z</time>
      </trkpt>
      <trkpt lat="49.40246" lon="0.12877">
        <ele>0.1</ele>
        <time>2015-10-18T09:41:47Z</time>
      </trkpt>
      <trkpt lat="49.40245" lon="0.12877">
        <ele>-0.3</ele>
        <time>2015-10-18T09:41:48Z</time>
      </trkpt>
      <trkpt lat="49.40245" lon="0.12878">
        <ele>-0.7</ele>
        <time>2015-10-18T09:41:49Z</time>
      </trkpt>
      <trkpt lat="49.40245" lon="0.1288">
        <ele>-2.5</ele>
        <time>2015-10-18T09:41:50Z</time>
      </trkpt>
      <trkpt lat="49.40245" lon="0.12882">
        <ele>-3.8</ele>
        <time>2015-10-18T09:41:51Z</time>
      </trkpt>
      <trkpt lat="49.40245" lon="0.12884">
        <ele>-4.8</ele>
        <time>2015-10-18T09:41:52Z</time>
      </trkpt>
      <trkpt lat="49.40246" lon="0.12886">
        <ele>-4.3</ele>
        <time>2015-10-18T09:41:53Z</time>
      </trkpt>
      <trkpt lat="49.40246" lon="0.12888">
        <ele>-3.9</ele>
        <time>2015-10-18T09:41:54Z</time>
      </trkpt>
      <trkpt lat="49.40247" lon="0.1289">
        <ele>-3.6</ele>
        <time>2015-10-18T09:41:55Z</time>
      </trkpt>
      <trkpt lat="49.40248" lon="0.12892">
        <ele>-3.4</ele>
        <time>2015-10-18T09:41:56Z</time>
      </trkpt>
      <trkpt lat="49.40249" lon="0.12894">
        <ele>-3.3</ele>
        <time>2015-10-18T09:41:57Z</time>
      </trkpt>
      <trkpt lat="49.4025" lon="0.12896">
        <ele>-3.2</ele>
        <time>2015-10-18T09:41:58Z</time>
      </trkpt>
      <trkpt lat="49.40251" lon="0.12898">
        <ele>-2.7</ele>
        <time>2015-10-18T09:41:59Z</time>
      </trkpt>
      <trkpt lat="49.40252" lon="0.129">
        <ele>-2.3</ele>
        <time>2015-10-18T09:42:00Z</time>
      </trkpt>
      <trkpt lat="49.40253" lon="0.12901">
        <ele>-2</ele>
        <time>2015-10-18T09:42:01Z</time>
      </trkpt>
      <trkpt lat="49.40253" lon="0.12903">
        <ele>-2.4</ele>
        <time>2015-10-18T09:42:02Z</time>
      </trkpt>
      <trkpt lat="49.40254" lon="0.12905">
        <ele>-2.7</ele>
        <time>2015-10-18T09:42:03Z</time>
      </trkpt>
      <trkpt lat="49.40302" lon="0.13017">
        <ele>-11.6</ele>
        <time>2015-10-18T09:43:12Z</time>
      </trkpt>
      <trkpt lat="49.40303" lon="0.13017">
        <ele>-15.8</ele>
        <time>2015-10-18T09:43:13Z</time>
      </trkpt>
      <trkpt lat="49.40304" lon="0.13018">
        <ele>-13.4</ele>
        <time>2015-10-18T09:43:14Z</time>
      </trkpt>
      <trkpt lat="49.40305" lon="0.13018">
        <ele>-11.6</ele>
        <time>2015-10-18T09:43:15Z</time>
      </trkpt>
      <trkpt lat="49.40306" lon="0.13018">
        <ele>-10.2</ele>
        <time>2015-10-18T09:43:16Z</time>
      </trkpt>
      <trkpt lat="49.40307" lon="0.13019">
        <ele>-7.3</ele>
        <time>2015-10-18T09:43:17Z</time>
      </trkpt>
      <trkpt lat="49.40307" lon="0.13019">
        <ele>-5.2</ele>
        <time>2015-10-18T09:43:18Z</time>
      </trkpt>
      <trkpt lat="49.40308" lon="0.13019">
        <ele>-3.5</ele>
        <time>2015-10-18T09:43:19Z</time>
      </trkpt>
      <trkpt lat="49.40308" lon="0.13019">
        <ele>-2.7</ele>
        <time>2015-10-18T09:43:20Z</time>
      </trkpt>
      <trkpt lat="49.40309" lon="0.13019">
        <ele>-2.1</ele>
        <time>2015-10-18T09:43:21Z</time>
      </trkpt>
      <trkpt lat="49.40309" lon="0.13019">
        <ele>-1.7</ele>
        <time>2015-10-18T09:43:22Z</time>
      </trkpt>
      <trkpt lat="49.40309" lon="0.13019">
        <ele>-1.5</ele>
        <time>2015-10-18T09:43:23Z</time>
      </trkpt>
      <trkpt lat="49.40308" lon="0.13025">
        <ele>-2.5</ele>
        <time>2015-10-18T09:43:37Z</time>
      </trkpt>
      <trkpt lat="49.40308" lon="0.13026">
        <ele>-3.8</ele>
        <time>2015-10-18T09:43:38Z</time>
      </trkpt>
      <trkpt lat="49.40308" lon="0.13026">
        <ele>-4.8</ele>
        <time>2015-10-18T09:43:39Z</time>
      </trkpt>
      <trkpt lat="49.40308" lon="0.13026">
        <ele>-5.6</ele>
        <time>2015-10-18T09:43:40Z</time>
      </trkpt>
      <trkpt lat="49.40308" lon="0.13029">
        <ele>-4</ele>
        <time>2015-10-18T09:43:43Z</time>
      </trkpt>
      <trkpt lat="49.4031" lon="0.1303">
        <ele>-3.8</ele>
        <time>2015-10-18T09:43:46Z</time>
      </trkpt>
      <trkpt lat="49.40311" lon="0.13029">
        <ele>-3.5</ele>
        <time>2015-10-18T09:43:47Z</time>
      </trkpt>
      <trkpt lat="49.40311" lon="0.13029">
        <ele>-3.4</ele>
        <time>2015-10-18T09:43:48Z</time>
      </trkpt>
      <trkpt lat="49.40312" lon="0.13028">
        <ele>-3.2</ele>
        <time>2015-10-18T09:43:49Z</time>
      </trkpt>
      <trkpt lat="49.40312" lon="0.13028">
        <ele>-3.3</ele>
        <time>2015-10-18T09:43:50Z</time>
      </trkpt>
      <trkpt lat="49.40312" lon="0.13027">
        <ele>-3.4</ele>
        <time>2015-10-18T09:43:51Z</time>
      </trkpt>
      <trkpt lat="49.40312" lon="0.13027">
        <ele>-3.5</ele>
        <time>2015-10-18T09:43:52Z</time>
      </trkpt>
      <trkpt lat="49.40311" lon="0.13027">
        <ele>-2.9</ele>
        <time>2015-10-18T09:43:53Z</time>
      </trkpt>
      <trkpt lat="49.40311" lon="0.13026">
        <ele>-2.4</ele>
        <time>2015-10-18T09:43:54Z</time>
      </trkpt>
      <trkpt lat="49.40311" lon="0.13026">
        <ele>-2.1</ele>
        <time>2015-10-18T09:43:55Z</time>
      </trkpt>
      <trkpt lat="49.4031" lon="0.13026">
        <ele>-2.3</ele>
        <time>2015-10-18T09:43:56Z</time>
      </trkpt>
      <trkpt lat="49.4031" lon="0.13026">
        <ele>-2.4</ele>
        <time>2015-10-18T09:43:57Z</time>
      </trkpt>
      <trkpt lat="49.4031" lon="0.13025">
        <ele>-2.8</ele>
        <time>2015-10-18T09:43:59Z</time>
      </trkpt>
      <trkpt lat="49.4031" lon="0.13025">
        <ele>-3</ele>
        <time>2015-10-18T09:44:00Z</time>
      </trkpt>
      <trkpt lat="49.4031" lon="0.13025">
        <ele>-3.2</ele>
        <time>2015-10-18T09:44:01Z</time>
      </trkpt>
      <trkpt lat="49.40309" lon="0.13025">
        <ele>-2.5</ele>
        <time>2015-10-18T09:44:02Z</time>
      </trkpt>
      <trkpt lat="49.40308" lon="0.13025">
        <ele>-1.9</ele>
        <time>2015-10-18T09:44:03Z</time>
      </trkpt>
      <trkpt lat="49.40308" lon="0.13025">
        <ele>-1.5</ele>
        <time>2015-10-18T09:44:04Z</time>
      </trkpt>
      <trkpt lat="49.40308" lon="0.13025">
        <ele>-2</ele>
        <time>2015-10-18T09:44:05Z</time>
      </trkpt>
      <trkpt lat="49.40308" lon="0.13025">
        <ele>-2.4</ele>
        <time>2015-10-18T09:44:06Z</time>
      </trkpt>
      <trkpt lat="49.40308" lon="0.13025">
        <ele>-2.7</ele>
        <time>2015-10-18T09:44:07Z</time>
      </trkpt>
      <trkpt lat="49.40308" lon="0.13024">
        <ele>-3.2</ele>
        <time>2015-10-18T09:44:08Z</time>
      </trkpt>
      <trkpt lat="49.40308" lon="0.13024">
        <ele>-3.5</ele>
        <time>2015-10-18T09:44:09Z</time>
      </trkpt>
      <trkpt lat="49.40308" lon="0.13024">
        <ele>-3.7</ele>
        <time>2015-10-18T09:44:10Z</time>
      </trkpt>
      <trkpt lat="49.40308" lon="0.13025">
        <ele>-2.9</ele>
        <time>2015-10-18T09:44:11Z</time>
      </trkpt>
      <trkpt lat="49.40309" lon="0.13027">
        <ele>-1.8</ele>
        <time>2015-10-18T09:44:13Z</time>
      </trkpt>
      <trkpt lat="49.40309" lon="0.13029">
        <ele>-2.2</ele>
        <time>2015-10-18T09:44:14Z</time>
      </trkpt>
      <trkpt lat="49.40317" lon="0.13043">
        <ele>-3.3</ele>
        <time>2015-10-18T09:44:24Z</time>
      </trkpt>
      <trkpt lat="49.40318" lon="0.13044">
        <ele>-3.4</ele>
        <time>2015-10-18T09:44:25Z</time>
      </trkpt>
      <trkpt lat="49.40324" lon="0.1305">
        <ele>-6.5</ele>
        <time>2015-10-18T09:44:31Z</time>
      </trkpt>
      <trkpt lat="49.40328" lon="0.13059">
        <ele>-4</ele>
        <time>2015-10-18T09:44:38Z</time>
      </trkpt>
      <trkpt lat="49.40332" lon="0.13066">
        <ele>-1.6</ele>
        <time>2015-10-18T09:44:44Z</time>
      </trkpt>
      <trkpt lat="49.40332" lon="0.13067">
        <ele>-1.9</ele>
        <time>2015-10-18T09:44:45Z</time>
      </trkpt>
      <trkpt lat="49.40334" lon="0.1307">
        <ele>-1.1</ele>
        <time>2015-10-18T09:44:49Z</time>
      </trkpt>
      <trkpt lat="49.40334" lon="0.1307">
        <ele>-0.7</ele>
        <time>2015-10-18T09:44:50Z</time>
      </trkpt>
      <trkpt lat="49.40334" lon="0.1307">
        <ele>-0.4</ele>
        <time>2015-10-18T09:44:51Z</time>
      </trkpt>
      <trkpt lat="49.40334" lon="0.13069">
        <ele>-0.2</ele>
        <time>2015-10-18T09:44:52Z</time>
      </trkpt>
      <trkpt lat="49.40334" lon="0.13069">
        <ele>-0.2</ele>
        <time>2015-10-18T09:44:53Z</time>
      </trkpt>
      <trkpt lat="49.40334" lon="0.13069">
        <ele>-0.2</ele>
        <time>2015-10-18T09:44:54Z</time>
      </trkpt>
      <trkpt lat="49.40334" lon="0.13069">
        <ele>-0.3</ele>
        <time>2015-10-18T09:44:55Z</time>
      </trkpt>
      <trkpt lat="49.40335" lon="0.13069">
        <ele>0.5</ele>
        <time>2015-10-18T09:44:56Z</time>
      </trkpt>
      <trkpt lat="49.40335" lon="0.13069">
        <ele>1.1</ele>
        <time>2015-10-18T09:44:57Z</time>
      </trkpt>
      <trkpt lat="49.40335" lon="0.1307">
        <ele>1.5</ele>
        <time>2015-10-18T09:44:58Z</time>
      </trkpt>
      <trkpt lat="49.40335" lon="0.13071">
        <ele>1.2</ele>
        <time>2015-10-18T09:44:59Z</time>
      </trkpt>
      <trkpt lat="49.40346" lon="0.13111">
        <ele>-4.5</ele>
        <time>2015-10-18T09:45:28Z</time>
      </trkpt>
      <trkpt lat="49.40346" lon="0.13112">
        <ele>-4.2</ele>
        <time>2015-10-18T09:45:29Z</time>
      </trkpt>
      <trkpt lat="49.40359" lon="0.13159">
        <ele>-1.3</ele>
        <time>2015-10-18T09:46:00Z</time>
      </trkpt>
      <trkpt lat="49.40364" lon="0.13167">
        <ele>-2.9</ele>
        <time>2015-10-18T09:46:06Z</time>
      </trkpt>
      <trkpt lat="49.40364" lon="0.13169">
        <ele>-3</ele>
        <time>2015-10-18T09:46:07Z</time>
      </trkpt>
      <trkpt lat="49.40365" lon="0.13176">
        <ele>-3.4</ele>
        <time>2015-10-18T09:46:11Z</time>
      </trkpt>
      <trkpt lat="49.40365" lon="0.1318">
        <ele>-3.5</ele>
        <time>2015-10-18T09:46:13Z</time>
      </trkpt>
      <trkpt lat="49.40365" lon="0.13182">
        <ele>-3.8</ele>
        <time>2015-10-18T09:46:14Z</time>
      </trkpt>
      <trkpt lat="49.40365" lon="0.13184">
        <ele>-3.9</ele>
        <time>2015-10-18T09:46:15Z</time>
      </trkpt>
      <trkpt lat="49.40365" lon="0.13187">
        <ele>-4.1</ele>
        <time>2015-10-18T09:46:16Z</time>
      </trkpt>
      <trkpt lat="49.40367" lon="0.13198">
        <ele>-4.5</ele>
        <time>2015-10-18T09:46:22Z</time>
      </trkpt>
      <trkpt lat="49.40369" lon="0.13208">
        <ele>-14.7</ele>
        <time>2015-10-18T09:46:28Z</time>
      </trkpt>
      <trkpt lat="49.40375" lon="0.13237">
        <ele>-4.1</ele>
        <time>2015-10-18T09:46:45Z</time>
      </trkpt>
      <trkpt lat="49.40375" lon="0.13239">
        <ele>-4</ele>
        <time>2015-10-18T09:46:46Z</time>
      </trkpt>
      <trkpt lat="49.40379" lon="0.13271">
        <ele>-4.8</ele>
        <time>2015-10-18T09:47:06Z</time>
      </trkpt>
      <trkpt lat="49.40379" lon="0.13272">
        <ele>-4.7</ele>
        <time>2015-10-18T09:47:07Z</time>
      </trkpt>
      <trkpt lat="49.4038" lon="0.13277">
        <ele>-5.1</ele>
        <time>2015-10-18T09:47:10Z</time>
      </trkpt>
      <trkpt lat="49.40384" lon="0.13296">
        <ele>-3.9</ele>
        <time>2015-10-18T09:47:21Z</time>
      </trkpt>
      <trkpt lat="49.40385" lon="0.13298">
        <ele>-3.8</ele>
        <time>2015-10-18T09:47:22Z</time>
      </trkpt>
      <trkpt lat="49.4039" lon="0.13312">
        <ele>-5.3</ele>
        <time>2015-10-18T09:47:32Z</time>
      </trkpt>
      <trkpt lat="49.40397" lon="0.13325">
        <ele>-5.2</ele>
        <time>2015-10-18T09:47:41Z</time>
      </trkpt>
      <trkpt lat="49.40413" lon="0.13362">
        <ele>-3.4</ele>
        <time>2015-10-18T09:48:05Z</time>
      </trkpt>
      <trkpt lat="49.40413" lon="0.13363">
        <ele>-3.2</ele>
        <time>2015-10-18T09:48:06Z</time>
      </trkpt>
      <trkpt lat="49.40422" lon="0.13393">
        <ele>-1.4</ele>
        <time>2015-10-18T09:48:25Z</time>
      </trkpt>
      <trkpt lat="49.40423" lon="0.13394">
        <ele>-1.3</ele>
        <time>2015-10-18T09:48:26Z</time>
      </trkpt>
      <trkpt lat="49.40423" lon="0.13394">
        <ele>-1.3</ele>
        <time>2015-10-18T09:48:27Z</time>
      </trkpt>
      <trkpt lat="49.40424" lon="0.13395">
        <ele>-1.2</ele>
        <time>2015-10-18T09:48:28Z</time>
      </trkpt>
      <trkpt lat="49.40428" lon="0.13404">
        <ele>-1.5</ele>
        <time>2015-10-18T09:48:37Z</time>
      </trkpt>
      <trkpt lat="49.40428" lon="0.13405">
        <ele>-1.8</ele>
        <time>2015-10-18T09:48:38Z</time>
      </trkpt>
      <trkpt lat="49.40428" lon="0.13406">
        <ele>-2.1</ele>
        <time>2015-10-18T09:48:39Z</time>
      </trkpt>
      <trkpt lat="49.40429" lon="0.13407">
        <ele>-2.2</ele>
        <time>2015-10-18T09:48:40Z</time>
      </trkpt>
      <trkpt lat="49.4043" lon="0.1341">
        <ele>-2.5</ele>
        <time>2015-10-18T09:48:42Z</time>
      </trkpt>
      <trkpt lat="49.4043" lon="0.13411">
        <ele>-2.6</ele>
        <time>2015-10-18T09:48:43Z</time>
      </trkpt>
      <trkpt lat="49.40431" lon="0.13416">
        <ele>-3.7</ele>
        <time>2015-10-18T09:48:46Z</time>
      </trkpt>
      <trkpt lat="49.40434" lon="0.13424">
        <ele>-4.9</ele>
        <time>2015-10-18T09:48:51Z</time>
      </trkpt>
      <trkpt lat="49.40436" lon="0.13433">
        <ele>-4.1</ele>
        <time>2015-10-18T09:48:56Z</time>
      </trkpt>
      <trkpt lat="49.4044" lon="0.13452">
        <ele>-5.5</ele>
        <time>2015-10-18T09:49:07Z</time>
      </trkpt>
      <trkpt lat="49.4044" lon="0.13454">
        <ele>-5.5</ele>
        <time>2015-10-18T09:49:08Z</time>
      </trkpt>
      <trkpt lat="49.4044" lon="0.13461">
        <ele>-4.9</ele>
        <time>2015-10-18T09:49:13Z</time>
      </trkpt>
      <trkpt lat="49.40439" lon="0.13462">
        <ele>-4.7</ele>
        <time>2015-10-18T09:49:15Z</time>
      </trkpt>
      <trkpt lat="49.40439" lon="0.13463">
        <ele>-4.6</ele>
        <time>2015-10-18T09:49:16Z</time>
      </trkpt>
      <trkpt lat="49.40438" lon="0.13463">
        <ele>-5.6</ele>
        <time>2015-10-18T09:49:17Z</time>
      </trkpt>
      <trkpt lat="49.40438" lon="0.13463">
        <ele>-6.4</ele>
        <time>2015-10-18T09:49:18Z</time>
      </trkpt>
      <trkpt lat="49.40438" lon="0.13462">
        <ele>-6.9</ele>
        <time>2015-10-18T09:49:19Z</time>
      </trkpt>
      <trkpt lat="49.40438" lon="0.13462">
        <ele>-6.9</ele>
        <time>2015-10-18T09:49:20Z</time>
      </trkpt>
      <trkpt lat="49.40438" lon="0.13462">
        <ele>-6.9</ele>
        <time>2015-10-18T09:49:21Z</time>
      </trkpt>
      <trkpt lat="49.40438" lon="0.13462">
        <ele>-6.9</ele>
        <time>2015-10-18T09:49:22Z</time>
      </trkpt>
      <trkpt lat="49.40438" lon="0.13462">
        <ele>-6.7</ele>
        <time>2015-10-18T09:49:23Z</time>
      </trkpt>
      <trkpt lat="49.40438" lon="0.13463">
        <ele>-6.6</ele>
        <time>2015-10-18T09:49:24Z</time>
      </trkpt>
      <trkpt lat="49.40438" lon="0.13463">
        <ele>-6.5</ele>
        <time>2015-10-18T09:49:25Z</time>
      </trkpt>
      <trkpt lat="49.40438" lon="0.13463">
        <ele>-6.2</ele>
        <time>2015-10-18T09:49:26Z</time>
      </trkpt>
      <trkpt lat="49.40438" lon="0.13463">
        <ele>-6</ele>
        <time>2015-10-18T09:49:27Z</time>
      </trkpt>
      <trkpt lat="49.40438" lon="0.13463">
        <ele>-5.8</ele>
        <time>2015-10-18T09:49:28Z</time>
      </trkpt>
      <trkpt lat="49.40438" lon="0.13463">
        <ele>-5.7</ele>
        <time>2015-10-18T09:49:29Z</time>
      </trkpt>
      <trkpt lat="49.40438" lon="0.13463">
        <ele>-5.6</ele>
        <time>2015-10-18T09:49:30Z</time>
      </trkpt>
      <trkpt lat="49.40438" lon="0.13463">
        <ele>-5.5</ele>
        <time>2015-10-18T09:49:31Z</time>
      </trkpt>
      <trkpt lat="49.40438" lon="0.13464">
        <ele>-5.4</ele>
        <time>2015-10-18T09:49:32Z</time>
      </trkpt>
      <trkpt lat="49.40438" lon="0.13464">
        <ele>-5.4</ele>
        <time>2015-10-18T09:49:33Z</time>
      </trkpt>
      <trkpt lat="49.40438" lon="0.13464">
        <ele>-5.4</ele>
        <time>2015-10-18T09:49:34Z</time>
      </trkpt>
      <trkpt lat="49.40438" lon="0.13464">
        <ele>-5.6</ele>
        <time>2015-10-18T09:49:35Z</time>
      </trkpt>
      <trkpt lat="49.40438" lon="0.13464">
        <ele>-5.7</ele>
        <time>2015-10-18T09:49:36Z</time>
      </trkpt>
      <trkpt lat="49.40438" lon="0.13464">
        <ele>-5.8</ele>
        <time>2015-10-18T09:49:37Z</time>
      </trkpt>
      <trkpt lat="49.40438" lon="0.13464">
        <ele>-5.7</ele>
        <time>2015-10-18T09:49:38Z</time>
      </trkpt>
      <trkpt lat="49.40438" lon="0.13464">
        <ele>-5.6</ele>
        <time>2015-10-18T09:49:39Z</time>
      </trkpt>
      <trkpt lat="49.40438" lon="0.13464">
        <ele>-5.5</ele>
        <time>2015-10-18T09:49:40Z</time>
      </trkpt>
      <trkpt lat="49.40438" lon="0.13464">
        <ele>-5.5</ele>
        <time>2015-10-18T09:49:41Z</time>
      </trkpt>
      <trkpt lat="49.40438" lon="0.13464">
        <ele>-5.4</ele>
        <time>2015-10-18T09:49:42Z</time>
      </trkpt>
      <trkpt lat="49.40438" lon="0.13464">
        <ele>-5.4</ele>
        <time>2015-10-18T09:49:43Z</time>
      </trkpt>
      <trkpt lat="49.40438" lon="0.13464">
        <ele>-4.7</ele>
        <time>2015-10-18T09:49:44Z</time>
      </trkpt>
      <trkpt lat="49.40438" lon="0.13465">
        <ele>-4.3</ele>
        <time>2015-10-18T09:49:45Z</time>
      </trkpt>
      <trkpt lat="49.40438" lon="0.13465">
        <ele>-3.9</ele>
        <time>2015-10-18T09:49:46Z</time>
      </trkpt>
      <trkpt lat="49.40438" lon="0.13465">
        <ele>-4.2</ele>
        <time>2015-10-18T09:49:47Z</time>
      </trkpt>
      <trkpt lat="49.40438" lon="0.13465">
        <ele>-4.5</ele>
        <time>2015-10-18T09:49:48Z</time>
      </trkpt>
      <trkpt lat="49.40439" lon="0.13465">
        <ele>-4.7</ele>
        <time>2015-10-18T09:49:49Z</time>
      </trkpt>
      <trkpt lat="49.4044" lon="0.13464">
        <ele>-4.2</ele>
        <time>2015-10-18T09:49:50Z</time>
      </trkpt>
      <trkpt lat="49.4044" lon="0.13464">
        <ele>-3.9</ele>
        <time>2015-10-18T09:49:51Z</time>
      </trkpt>
      <trkpt lat="49.4044" lon="0.13463">
        <ele>-3.6</ele>
        <time>2015-10-18T09:49:52Z</time>
      </trkpt>
      <trkpt lat="49.40441" lon="0.13463">
        <ele>-3.6</ele>
        <time>2015-10-18T09:49:53Z</time>
      </trkpt>
      <trkpt lat="49.40441" lon="0.13464">
        <ele>-3.6</ele>
        <time>2015-10-18T09:49:54Z</time>
      </trkpt>
      <trkpt lat="49.40441" lon="0.13465">
        <ele>-3.6</ele>
        <time>2015-10-18T09:49:55Z</time>
      </trkpt>
      <trkpt lat="49.40441" lon="0.13466">
        <ele>-5.7</ele>
        <time>2015-10-18T09:49:56Z</time>
      </trkpt>
      <trkpt lat="49.4044" lon="0.13468">
        <ele>-7.2</ele>
        <time>2015-10-18T09:49:57Z</time>
      </trkpt>
      <trkpt lat="49.4044" lon="0.13469">
        <ele>-8.4</ele>
        <time>2015-10-18T09:49:58Z</time>
      </trkpt>
      <trkpt lat="49.4044" lon="0.13471">
        <ele>-7.4</ele>
        <time>2015-10-18T09:49:59Z</time>
      </trkpt>
      <trkpt lat="49.40439" lon="0.13472">
        <ele>-6.7</ele>
        <time>2015-10-18T09:50:00Z</time>
      </trkpt>
      <trkpt lat="49.40439" lon="0.13474">
        <ele>-6.1</ele>
        <time>2015-10-18T09:50:01Z</time>
      </trkpt>
      <trkpt lat="49.40438" lon="0.13475">
        <ele>-5.9</ele>
        <time>2015-10-18T09:50:02Z</time>
      </trkpt>
      <trkpt lat="49.40438" lon="0.13477">
        <ele>-5.8</ele>
        <time>2015-10-18T09:50:03Z</time>
      </trkpt>
      <trkpt lat="49.40437" lon="0.13478">
        <ele>-5.6</ele>
        <time>2015-10-18T09:50:04Z</time>
      </trkpt>
      <trkpt lat="49.40437" lon="0.13479">
        <ele>-5.6</ele>
        <time>2015-10-18T09:50:05Z</time>
      </trkpt>
      <trkpt lat="49.40436" lon="0.13481">
        <ele>-5.5</ele>
        <time>2015-10-18T09:50:06Z</time>
      </trkpt>
      <trkpt lat="49.40436" lon="0.13483">
        <ele>-5.4</ele>
        <time>2015-10-18T09:50:07Z</time>
      </trkpt>
      <trkpt lat="49.40436" lon="0.13484">
        <ele>-5.6</ele>
        <time>2015-10-18T09:50:08Z</time>
      </trkpt>
      <trkpt lat="49.40435" lon="0.13486">
        <ele>-5.7</ele>
        <time>2015-10-18T09:50:09Z</time>
      </trkpt>
      <trkpt lat="49.40435" lon="0.13487">
        <ele>-5.8</ele>
        <time>2015-10-18T09:50:10Z</time>
      </trkpt>
      <trkpt lat="49.40435" lon="0.13489">
        <ele>-5.9</ele>
        <time>2015-10-18T09:50:11Z</time>
      </trkpt>
      <trkpt lat="49.40436" lon="0.13495">
        <ele>-5.3</ele>
        <time>2015-10-18T09:50:15Z</time>
      </trkpt>
      <trkpt lat="49.40437" lon="0.13499">
        <ele>-5.4</ele>
        <time>2015-10-18T09:50:17Z</time>
      </trkpt>
      <trkpt lat="49.40444" lon="0.13518">
        <ele>-5.3</ele>
        <time>2015-10-18T09:50:29Z</time>
      </trkpt>
      <trkpt lat="49.40444" lon="0.1352">
        <ele>-4.9</ele>
        <time>2015-10-18T09:50:30Z</time>
      </trkpt>
      <trkpt lat="49.40444" lon="0.13521">
        <ele>-4.6</ele>
        <time>2015-10-18T09:50:31Z</time>
      </trkpt>
      <trkpt lat="49.40444" lon="0.13523">
        <ele>-4.8</ele>
        <time>2015-10-18T09:50:32Z</time>
      </trkpt>
      <trkpt lat="49.40444" lon="0.13525">
        <ele>-4.9</ele>
        <time>2015-10-18T09:50:33Z</time>
      </trkpt>
      <trkpt lat="49.40446" lon="0.13533">
        <ele>-4.5</ele>
        <time>2015-10-18T09:50:38Z</time>
      </trkpt>
      <trkpt lat="49.40446" lon="0.13536">
        <ele>-5.6</ele>
        <time>2015-10-18T09:50:40Z</time>
      </trkpt>
      <trkpt lat="49.40448" lon="0.13539">
        <ele>-4.7</ele>
        <time>2015-10-18T09:50:42Z</time>
      </trkpt>
      <trkpt lat="49.4046" lon="0.13565">
        <ele>-6.6</ele>
        <time>2015-10-18T09:50:59Z</time>
      </trkpt>
      <trkpt lat="49.4046" lon="0.13566">
        <ele>-6.5</ele>
        <time>2015-10-18T09:51:00Z</time>
      </trkpt>
      <trkpt lat="49.40466" lon="0.1359">
        <ele>-5.6</ele>
        <time>2015-10-18T09:51:19Z</time>
      </trkpt>
      <trkpt lat="49.40467" lon="0.13592">
        <ele>-5.3</ele>
        <time>2015-10-18T09:51:20Z</time>
      </trkpt>
      <trkpt lat="49.40483" lon="0.13626">
        <ele>-5.6</ele>
        <time>2015-10-18T09:51:45Z</time>
      </trkpt>
      <trkpt lat="49.40487" lon="0.13636">
        <ele>-7.5</ele>
        <time>2015-10-18T09:51:52Z</time>
      </trkpt>
      <trkpt lat="49.40498" lon="0.13673">
        <ele>-5.2</ele>
        <time>2015-10-18T09:52:17Z</time>
      </trkpt>
      <trkpt lat="49.40511" lon="0.13712">
        <ele>-6.1</ele>
        <time>2015-10-18T09:52:42Z</time>
      </trkpt>
      <trkpt lat="49.40512" lon="0.13713">
        <ele>-5.9</ele>
        <time>2015-10-18T09:52:43Z</time>
      </trkpt>
      <trkpt lat="49.40518" lon="0.13731">
        <ele>-4.5</ele>
        <time>2015-10-18T09:52:56Z</time>
      </trkpt>
      <trkpt lat="49.4052" lon="0.13738">
        <ele>-3.4</ele>
        <time>2015-10-18T09:53:02Z</time>
      </trkpt>
      <trkpt lat="49.4052" lon="0.13739">
        <ele>-3.5</ele>
        <time>2015-10-18T09:53:03Z</time>
      </trkpt>
      <trkpt lat="49.4052" lon="0.1374">
        <ele>-3.5</ele>
        <time>2015-10-18T09:53:04Z</time>
      </trkpt>
      <trkpt lat="49.40519" lon="0.1374">
        <ele>-3.5</ele>
        <time>2015-10-18T09:53:05Z</time>
      </trkpt>
      <trkpt lat="49.40519" lon="0.13741">
        <ele>-3.6</ele>
        <time>2015-10-18T09:53:06Z</time>
      </trkpt>
      <trkpt lat="49.40519" lon="0.13741">
        <ele>-3.6</ele>
        <time>2015-10-18T09:53:07Z</time>
      </trkpt>
      <trkpt lat="49.40519" lon="0.13742">
        <ele>-3.4</ele>
        <time>2015-10-18T09:53:08Z</time>
      </trkpt>
      <trkpt lat="49.40519" lon="0.13742">
        <ele>-3.2</ele>
        <time>2015-10-18T09:53:09Z</time>
      </trkpt>
      <trkpt lat="49.40519" lon="0.13744">
        <ele>-3.1</ele>
        <time>2015-10-18T09:53:10Z</time>
      </trkpt>
      <trkpt lat="49.40519" lon="0.13746">
        <ele>-3.7</ele>
        <time>2015-10-18T09:53:12Z</time>
      </trkpt>
      <trkpt lat="49.4052" lon="0.13751">
        <ele>-3.6</ele>
        <time>2015-10-18T09:53:17Z</time>
      </trkpt>
      <trkpt lat="49.4052" lon="0.13751">
        <ele>-3.8</ele>
        <time>2015-10-18T09:53:18Z</time>
      </trkpt>
      <trkpt lat="49.4052" lon="0.13751">
        <ele>-4</ele>
        <time>2015-10-18T09:53:19Z</time>
      </trkpt>
      <trkpt lat="49.4052" lon="0.13752">
        <ele>-3.3</ele>
        <time>2015-10-18T09:53:20Z</time>
      </trkpt>
      <trkpt lat="49.4052" lon="0.13752">
        <ele>-2.7</ele>
        <time>2015-10-18T09:53:21Z</time>
      </trkpt>
      <trkpt lat="49.40522" lon="0.13761">
        <ele>-3.6</ele>
        <time>2015-10-18T09:53:25Z</time>
      </trkpt>
      <trkpt lat="49.40528" lon="0.13774">
        <ele>-8.6</ele>
        <time>2015-10-18T09:53:32Z</time>
      </trkpt>
      <trkpt lat="49.40529" lon="0.13778">
        <ele>-9.3</ele>
        <time>2015-10-18T09:53:34Z</time>
      </trkpt>
      <trkpt lat="49.40535" lon="0.13795">
        <ele>-10.9</ele>
        <time>2015-10-18T09:53:43Z</time>
      </trkpt>
      <trkpt lat="49.40536" lon="0.13797">
        <ele>-9.7</ele>
        <time>2015-10-18T09:53:44Z</time>
      </trkpt>
      <trkpt lat="49.40539" lon="0.13807">
        <ele>-6.6</ele>
        <time>2015-10-18T09:53:50Z</time>
      </trkpt>
      <trkpt lat="49.4054" lon="0.1381">
        <ele>-6.8</ele>
        <time>2015-10-18T09:53:52Z</time>
      </trkpt>
      <trkpt lat="49.4054" lon="0.13812">
        <ele>-6</ele>
        <time>2015-10-18T09:53:53Z</time>
      </trkpt>
      <trkpt lat="49.4054" lon="0.13813">
        <ele>-5.4</ele>
        <time>2015-10-18T09:53:54Z</time>
      </trkpt>
      <trkpt lat="49.4054" lon="0.13815">
        <ele>-4.9</ele>
        <time>2015-10-18T09:53:55Z</time>
      </trkpt>
      <trkpt lat="49.4054" lon="0.13817">
        <ele>-5.2</ele>
        <time>2015-10-18T09:53:56Z</time>
      </trkpt>
      <trkpt lat="49.4054" lon="0.13818">
        <ele>-5.5</ele>
        <time>2015-10-18T09:53:57Z</time>
      </trkpt>
      <trkpt lat="49.40541" lon="0.13826">
        <ele>-5</ele>
        <time>2015-10-18T09:54:02Z</time>
      </trkpt>
      <trkpt lat="49.40541" lon="0.13847">
        <ele>-5.7</ele>
        <time>2015-10-18T09:54:14Z</time>
      </trkpt>
      <trkpt lat="49.40541" lon="0.13848">
        <ele>-5.2</ele>
        <time>2015-10-18T09:54:15Z</time>
      </trkpt>
      <trkpt lat="49.40547" lon="0.13871">
        <ele>-6.9</ele>
        <time>2015-10-18T09:54:28Z</time>
      </trkpt>
      <trkpt lat="49.40552" lon="0.13889">
        <ele>-6.4</ele>
        <time>2015-10-18T09:54:38Z</time>
      </trkpt>
      <trkpt lat="49.40553" lon="0.1389">
        <ele>-6.9</ele>
        <time>2015-10-18T09:54:39Z</time>
      </trkpt>
      <trkpt lat="49.40555" lon="0.13897">
        <ele>-5.7</ele>
        <time>2015-10-18T09:54:43Z</time>
      </trkpt>
      <trkpt lat="49.40556" lon="0.13899">
        <ele>-5.9</ele>
        <time>2015-10-18T09:54:45Z</time>
      </trkpt>
      <trkpt lat="49.40556" lon="0.139">
        <ele>-5.9</ele>
        <time>2015-10-18T09:54:46Z</time>
      </trkpt>
      <trkpt lat="49.40557" lon="0.13908">
        <ele>-5.4</ele>
        <time>2015-10-18T09:54:50Z</time>
      </trkpt>
      <trkpt lat="49.40559" lon="0.13912">
        <ele>-6.4</ele>
        <time>2015-10-18T09:54:52Z</time>
      </trkpt>
      <trkpt lat="49.4056" lon="0.13912">
        <ele>-6.4</ele>
        <time>2015-10-18T09:54:53Z</time>
      </trkpt>
      <trkpt lat="49.40562" lon="0.13912">
        <ele>-6.3</ele>
        <time>2015-10-18T09:54:55Z</time>
      </trkpt>
      <trkpt lat="49.40562" lon="0.13912">
        <ele>-6</ele>
        <time>2015-10-18T09:54:56Z</time>
      </trkpt>
      <trkpt lat="49.40563" lon="0.13912">
        <ele>-5.8</ele>
        <time>2015-10-18T09:54:57Z</time>
      </trkpt>
      <trkpt lat="49.40564" lon="0.13911">
        <ele>-5.7</ele>
        <time>2015-10-18T09:54:58Z</time>
      </trkpt>
      <trkpt lat="49.40565" lon="0.13911">
        <ele>-6.6</ele>
        <time>2015-10-18T09:54:59Z</time>
      </trkpt>
      <trkpt lat="49.40565" lon="0.13911">
        <ele>-7.3</ele>
        <time>2015-10-18T09:55:00Z</time>
      </trkpt>
      <trkpt lat="49.40566" lon="0.13911">
        <ele>-7.9</ele>
        <time>2015-10-18T09:55:01Z</time>
      </trkpt>
      <trkpt lat="49.40568" lon="0.13912">
        <ele>-8.5</ele>
        <time>2015-10-18T09:55:02Z</time>
      </trkpt>
      <trkpt lat="49.40571" lon="0.13918">
        <ele>-7.9</ele>
        <time>2015-10-18T09:55:06Z</time>
      </trkpt>
      <trkpt lat="49.40573" lon="0.13924">
        <ele>-10.8</ele>
        <time>2015-10-18T09:55:09Z</time>
      </trkpt>
      <trkpt lat="49.40574" lon="0.13926">
        <ele>-11.9</ele>
        <time>2015-10-18T09:55:10Z</time>
      </trkpt>
      <trkpt lat="49.40582" lon="0.13955">
        <ele>-4.2</ele>
        <time>2015-10-18T09:55:26Z</time>
      </trkpt>
      <trkpt lat="49.40582" lon="0.13961">
        <ele>-12.8</ele>
        <time>2015-10-18T09:55:29Z</time>
      </trkpt>
      <trkpt lat="49.40584" lon="0.13975">
        <ele>-8.8</ele>
        <time>2015-10-18T09:55:36Z</time>
      </trkpt>
      <trkpt lat="49.40583" lon="0.13976">
        <ele>-7.9</ele>
        <time>2015-10-18T09:55:37Z</time>
      </trkpt>
      <trkpt lat="49.40583" lon="0.13977">
        <ele>-7.5</ele>
        <time>2015-10-18T09:55:38Z</time>
      </trkpt>
      <trkpt lat="49.40583" lon="0.13978">
        <ele>-7.1</ele>
        <time>2015-10-18T09:55:39Z</time>
      </trkpt>
      <trkpt lat="49.40583" lon="0.13978">
        <ele>-6.9</ele>
        <time>2015-10-18T09:55:40Z</time>
      </trkpt>
      <trkpt lat="49.40583" lon="0.13978">
        <ele>-7.3</ele>
        <time>2015-10-18T09:55:41Z</time>
      </trkpt>
      <trkpt lat="49.40583" lon="0.13978">
        <ele>-7.6</ele>
        <time>2015-10-18T09:55:42Z</time>
      </trkpt>
      <trkpt lat="49.40583" lon="0.1398">
        <ele>-7.4</ele>
        <time>2015-10-18T09:55:44Z</time>
      </trkpt>
      <trkpt lat="49.40583" lon="0.13984">
        <ele>-9.6</ele>
        <time>2015-10-18T09:55:47Z</time>
      </trkpt>
      <trkpt lat="49.40584" lon="0.13986">
        <ele>-11.6</ele>
        <time>2015-10-18T09:55:48Z</time>
      </trkpt>
      <trkpt lat="49.40585" lon="0.13989">
        <ele>-11.8</ele>
        <time>2015-10-18T09:55:50Z</time>
      </trkpt>
      <trkpt lat="49.40585" lon="0.13991">
        <ele>-10.8</ele>
        <time>2015-10-18T09:55:51Z</time>
      </trkpt>
      <trkpt lat="49.40585" lon="0.14002">
        <ele>-7</ele>
        <time>2015-10-18T09:55:57Z</time>
      </trkpt>
      <trkpt lat="49.40583" lon="0.14022">
        <ele>-7.8</ele>
        <time>2015-10-18T09:56:07Z</time>
      </trkpt>
      <trkpt lat="49.40582" lon="0.14039">
        <ele>-10.2</ele>
        <time>2015-10-18T09:56:16Z</time>
      </trkpt>
      <trkpt lat="49.40582" lon="0.14041">
        <ele>-9.4</ele>
        <time>2015-10-18T09:56:17Z</time>
      </trkpt>
      <trkpt lat="49.40583" lon="0.14053">
        <ele>-11.9</ele>
        <time>2015-10-18T09:56:23Z</time>
      </trkpt>
      <trkpt lat="49.40583" lon="0.14057">
        <ele>-19.5</ele>
        <time>2015-10-18T09:56:25Z</time>
      </trkpt>
      <trkpt lat="49.40583" lon="0.14067">
        <ele>-10.3</ele>
        <time>2015-10-18T09:56:30Z</time>
      </trkpt>
      <trkpt lat="49.40582" lon="0.14101">
        <ele>-7.8</ele>
        <time>2015-10-18T09:56:47Z</time>
      </trkpt>
      <trkpt lat="49.40581" lon="0.14103">
        <ele>-6.6</ele>
        <time>2015-10-18T09:56:48Z</time>
      </trkpt>
      <trkpt lat="49.40581" lon="0.14105">
        <ele>-5.6</ele>
        <time>2015-10-18T09:56:49Z</time>
      </trkpt>
      <trkpt lat="49.4058" lon="0.14107">
        <ele>-10.3</ele>
        <time>2015-10-18T09:56:50Z</time>
      </trkpt>
      <trkpt lat="49.40578" lon="0.14118">
        <ele>-11.7</ele>
        <time>2015-10-18T09:56:57Z</time>
      </trkpt>
      <trkpt lat="49.40578" lon="0.1412">
        <ele>-12.6</ele>
        <time>2015-10-18T09:56:58Z</time>
      </trkpt>
      <trkpt lat="49.40578" lon="0.14127">
        <ele>-8.2</ele>
        <time>2015-10-18T09:57:02Z</time>
      </trkpt>
      <trkpt lat="49.40579" lon="0.14152">
        <ele>-10.7</ele>
        <time>2015-10-18T09:57:15Z</time>
      </trkpt>
      <trkpt lat="49.4058" lon="0.14155">
        <ele>-7.2</ele>
        <time>2015-10-18T09:57:17Z</time>
      </trkpt>
      <trkpt lat="49.40589" lon="0.14234">
        <ele>-6.9</ele>
        <time>2015-10-18T09:58:01Z</time>
      </trkpt>
      <trkpt lat="49.4059" lon="0.14235">
        <ele>-7.1</ele>
        <time>2015-10-18T09:58:02Z</time>
      </trkpt>
      <trkpt lat="49.4059" lon="0.14235">
        <ele>-7.7</ele>
        <time>2015-10-18T09:58:13Z</time>
      </trkpt>
      <trkpt lat="49.4059" lon="0.14235">
        <ele>-7.8</ele>
        <time>2015-10-18T09:58:14Z</time>
      </trkpt>
      <trkpt lat="49.4059" lon="0.14235">
        <ele>-7.8</ele>
        <time>2015-10-18T09:58:15Z</time>
      </trkpt>
      <trkpt lat="49.4059" lon="0.14235">
        <ele>-7.8</ele>
        <time>2015-10-18T09:58:16Z</time>
      </trkpt>
      <trkpt lat="49.4059" lon="0.14234">
        <ele>-8</ele>
        <time>2015-10-18T09:58:17Z</time>
      </trkpt>
      <trkpt lat="49.4059" lon="0.14234">
        <ele>-8.1</ele>
        <time>2015-10-18T09:58:18Z</time>
      </trkpt>
      <trkpt lat="49.4059" lon="0.14234">
        <ele>-8.2</ele>
        <time>2015-10-18T09:58:19Z</time>
      </trkpt>
      <trkpt lat="49.4059" lon="0.14234">
        <ele>-8.1</ele>
        <time>2015-10-18T09:58:20Z</time>
      </trkpt>
      <trkpt lat="49.4059" lon="0.14234">
        <ele>-8</ele>
        <time>2015-10-18T09:58:21Z</time>
      </trkpt>
      <trkpt lat="49.4059" lon="0.14235">
        <ele>-8</ele>
        <time>2015-10-18T09:58:22Z</time>
      </trkpt>
      <trkpt lat="49.4059" lon="0.14237">
        <ele>-8.8</ele>
        <time>2015-10-18T09:58:23Z</time>
      </trkpt>
      <trkpt lat="49.40593" lon="0.14271">
        <ele>-7.5</ele>
        <time>2015-10-18T09:58:42Z</time>
      </trkpt>
      <trkpt lat="49.40594" lon="0.14278">
        <ele>-7.2</ele>
        <time>2015-10-18T09:58:46Z</time>
      </trkpt>
      <trkpt lat="49.406" lon="0.14306">
        <ele>-8.4</ele>
        <time>2015-10-18T09:59:01Z</time>
      </trkpt>
      <trkpt lat="49.40601" lon="0.14307">
        <ele>-8.6</ele>
        <time>2015-10-18T09:59:02Z</time>
      </trkpt>
      <trkpt lat="49.40601" lon="0.14309">
        <ele>-8.8</ele>
        <time>2015-10-18T09:59:03Z</time>
      </trkpt>
      <trkpt lat="49.40613" lon="0.14327">
        <ele>-7.1</ele>
        <time>2015-10-18T09:59:16Z</time>
      </trkpt>
      <trkpt lat="49.40614" lon="0.14328">
        <ele>-7.9</ele>
        <time>2015-10-18T09:59:17Z</time>
      </trkpt>
      <trkpt lat="49.40616" lon="0.14331">
        <ele>-8.9</ele>
        <time>2015-10-18T09:59:19Z</time>
      </trkpt>
      <trkpt lat="49.40616" lon="0.14333">
        <ele>-8.6</ele>
        <time>2015-10-18T09:59:20Z</time>
      </trkpt>
      <trkpt lat="49.40616" lon="0.14335">
        <ele>-8.4</ele>
        <time>2015-10-18T09:59:21Z</time>
      </trkpt>
      <trkpt lat="49.40616" lon="0.14337">
        <ele>-8.3</ele>
        <time>2015-10-18T09:59:22Z</time>
      </trkpt>
      <trkpt lat="49.40616" lon="0.14339">
        <ele>-7.9</ele>
        <time>2015-10-18T09:59:23Z</time>
      </trkpt>
      <trkpt lat="49.40616" lon="0.14341">
        <ele>-7.7</ele>
        <time>2015-10-18T09:59:24Z</time>
      </trkpt>
      <trkpt lat="49.40616" lon="0.14343">
        <ele>-7.5</ele>
        <time>2015-10-18T09:59:25Z</time>
      </trkpt>
      <trkpt lat="49.40615" lon="0.14345">
        <ele>-6.5</ele>
        <time>2015-10-18T09:59:26Z</time>
      </trkpt>
      <trkpt lat="49.40615" lon="0.14347">
        <ele>-5.8</ele>
        <time>2015-10-18T09:59:27Z</time>
      </trkpt>
      <trkpt lat="49.40615" lon="0.14349">
        <ele>-5.3</ele>
        <time>2015-10-18T09:59:28Z</time>
      </trkpt>
      <trkpt lat="49.40614" lon="0.1435">
        <ele>-12.1</ele>
        <time>2015-10-18T09:59:29Z</time>
      </trkpt>
      <trkpt lat="49.40613" lon="0.14358">
        <ele>-13.4</ele>
        <time>2015-10-18T09:59:33Z</time>
      </trkpt>
      <trkpt lat="49.40612" lon="0.14381">
        <ele>-11</ele>
        <time>2015-10-18T09:59:45Z</time>
      </trkpt>
      <trkpt lat="49.4061" lon="0.14402">
        <ele>-5.4</ele>
        <time>2015-10-18T09:59:56Z</time>
      </trkpt>
      <trkpt lat="49.40609" lon="0.14403">
        <ele>-6</ele>
        <time>2015-10-18T09:59:57Z</time>
      </trkpt>
      <trkpt lat="49.40608" lon="0.14409">
        <ele>-7</ele>
        <time>2015-10-18T10:00:00Z</time>
      </trkpt>
      <trkpt lat="49.40608" lon="0.1441">
        <ele>-7.2</ele>
        <time>2015-10-18T10:00:01Z</time>
      </trkpt>
      <trkpt lat="49.40607" lon="0.14414">
        <ele>-6</ele>
        <time>2015-10-18T10:00:03Z</time>
      </trkpt>
      <trkpt lat="49.40607" lon="0.14416">
        <ele>-5.6</ele>
        <time>2015-10-18T10:00:04Z</time>
      </trkpt>
      <trkpt lat="49.40609" lon="0.1443">
        <ele>-10.2</ele>
        <time>2015-10-18T10:00:11Z</time>
      </trkpt>
      <trkpt lat="49.40614" lon="0.14455">
        <ele>-7</ele>
        <time>2015-10-18T10:00:24Z</time>
      </trkpt>
      <trkpt lat="49.40641" lon="0.14585">
        <ele>-14</ele>
        <time>2015-10-18T10:01:32Z</time>
      </trkpt>
      <trkpt lat="49.40642" lon="0.14586">
        <ele>-19.9</ele>
        <time>2015-10-18T10:01:33Z</time>
      </trkpt>
      <trkpt lat="49.40665" lon="0.14652">
        <ele>-6.2</ele>
        <time>2015-10-18T10:02:11Z</time>
      </trkpt>
      <trkpt lat="49.40671" lon="0.14672">
        <ele>-12.3</ele>
        <time>2015-10-18T10:02:22Z</time>
      </trkpt>
      <trkpt lat="49.40685" lon="0.14732">
        <ele>-6.2</ele>
        <time>2015-10-18T10:02:56Z</time>
      </trkpt>
      <trkpt lat="49.40685" lon="0.14734">
        <ele>-6.4</ele>
        <time>2015-10-18T10:02:57Z</time>
      </trkpt>
      <trkpt lat="49.40698" lon="0.14777">
        <ele>-7.3</ele>
        <time>2015-10-18T10:03:23Z</time>
      </trkpt>
      <trkpt lat="49.40698" lon="0.14777">
        <ele>-7.4</ele>
        <time>2015-10-18T10:03:24Z</time>
      </trkpt>
      <trkpt lat="49.40699" lon="0.14778">
        <ele>-7.5</ele>
        <time>2015-10-18T10:03:25Z</time>
      </trkpt>
      <trkpt lat="49.40707" lon="0.14801">
        <ele>-10.8</ele>
        <time>2015-10-18T10:03:40Z</time>
      </trkpt>
      <trkpt lat="49.40708" lon="0.14806">
        <ele>-7.6</ele>
        <time>2015-10-18T10:03:43Z</time>
      </trkpt>
      <trkpt lat="49.40709" lon="0.14811">
        <ele>-5.3</ele>
        <time>2015-10-18T10:03:46Z</time>
      </trkpt>
      <trkpt lat="49.40712" lon="0.14834">
        <ele>-7.7</ele>
        <time>2015-10-18T10:03:59Z</time>
      </trkpt>
      <trkpt lat="49.40712" lon="0.14836">
        <ele>-8.2</ele>
        <time>2015-10-18T10:04:00Z</time>
      </trkpt>
      <trkpt lat="49.40726" lon="0.14947">
        <ele>-8.3</ele>
        <time>2015-10-18T10:05:01Z</time>
      </trkpt>
      <trkpt lat="49.40726" lon="0.14948">
        <ele>-8.3</ele>
        <time>2015-10-18T10:05:02Z</time>
      </trkpt>
      <trkpt lat="49.40726" lon="0.14952">
        <ele>-8.5</ele>
        <time>2015-10-18T10:05:07Z</time>
      </trkpt>
      <trkpt lat="49.40725" lon="0.14953">
        <ele>-8.4</ele>
        <time>2015-10-18T10:05:08Z</time>
      </trkpt>
      <trkpt lat="49.40724" lon="0.14953">
        <ele>-8.2</ele>
        <time>2015-10-18T10:05:09Z</time>
      </trkpt>
      <trkpt lat="49.40724" lon="0.14953">
        <ele>-8.1</ele>
        <time>2015-10-18T10:05:10Z</time>
      </trkpt>
      <trkpt lat="49.40723" lon="0.14953">
        <ele>-8.4</ele>
        <time>2015-10-18T10:05:11Z</time>
      </trkpt>
      <trkpt lat="49.40722" lon="0.14954">
        <ele>-8.7</ele>
        <time>2015-10-18T10:05:12Z</time>
      </trkpt>
      <trkpt lat="49.40722" lon="0.14954">
        <ele>-8.9</ele>
        <time>2015-10-18T10:05:13Z</time>
      </trkpt>
      <trkpt lat="49.4072" lon="0.14957">
        <ele>-8.7</ele>
        <time>2015-10-18T10:05:18Z</time>
      </trkpt>
      <trkpt lat="49.4072" lon="0.14959">
        <ele>-8.7</ele>
        <time>2015-10-18T10:05:19Z</time>
      </trkpt>
      <trkpt lat="49.4072" lon="0.1496">
        <ele>-8.8</ele>
        <time>2015-10-18T10:05:20Z</time>
      </trkpt>
      <trkpt lat="49.4072" lon="0.14961">
        <ele>-9</ele>
        <time>2015-10-18T10:05:21Z</time>
      </trkpt>
      <trkpt lat="49.4072" lon="0.14962">
        <ele>-9.1</ele>
        <time>2015-10-18T10:05:22Z</time>
      </trkpt>
      <trkpt lat="49.4072" lon="0.14963">
        <ele>-9</ele>
        <time>2015-10-18T10:05:23Z</time>
      </trkpt>
      <trkpt lat="49.4072" lon="0.14964">
        <ele>-8.9</ele>
        <time>2015-10-18T10:05:24Z</time>
      </trkpt>
      <trkpt lat="49.4072" lon="0.14968">
        <ele>-9.2</ele>
        <time>2015-10-18T10:05:28Z</time>
      </trkpt>
      <trkpt lat="49.40721" lon="0.14972">
        <ele>-8.4</ele>
        <time>2015-10-18T10:05:31Z</time>
      </trkpt>
      <trkpt lat="49.40724" lon="0.14982">
        <ele>-7.7</ele>
        <time>2015-10-18T10:05:39Z</time>
      </trkpt>
      <trkpt lat="49.40725" lon="0.14983">
        <ele>-7.5</ele>
        <time>2015-10-18T10:05:40Z</time>
      </trkpt>
      <trkpt lat="49.40726" lon="0.14983">
        <ele>-7.4</ele>
        <time>2015-10-18T10:05:41Z</time>
      </trkpt>
      <trkpt lat="49.40727" lon="0.14984">
        <ele>-7.3</ele>
        <time>2015-10-18T10:05:42Z</time>
      </trkpt>
      <trkpt lat="49.40727" lon="0.14984">
        <ele>-7.2</ele>
        <time>2015-10-18T10:05:43Z</time>
      </trkpt>
      <trkpt lat="49.40728" lon="0.14985">
        <ele>-7.5</ele>
        <time>2015-10-18T10:05:44Z</time>
      </trkpt>
      <trkpt lat="49.40732" lon="0.14987">
        <ele>-7.9</ele>
        <time>2015-10-18T10:05:48Z</time>
      </trkpt>
      <trkpt lat="49.40734" lon="0.14988">
        <ele>-7.8</ele>
        <time>2015-10-18T10:05:50Z</time>
      </trkpt>
      <trkpt lat="49.40734" lon="0.14989">
        <ele>-7.8</ele>
        <time>2015-10-18T10:05:51Z</time>
      </trkpt>
      <trkpt lat="49.40736" lon="0.14996">
        <ele>-6.8</ele>
        <time>2015-10-18T10:05:55Z</time>
      </trkpt>
      <trkpt lat="49.40739" lon="0.15014">
        <ele>-5.4</ele>
        <time>2015-10-18T10:06:05Z</time>
      </trkpt>
      <trkpt lat="49.40739" lon="0.15016">
        <ele>-5.4</ele>
        <time>2015-10-18T10:06:06Z</time>
      </trkpt>
      <trkpt lat="49.4076" lon="0.15099">
        <ele>-10.6</ele>
        <time>2015-10-18T10:06:52Z</time>
      </trkpt>
      <trkpt lat="49.40761" lon="0.15101">
        <ele>-9.9</ele>
        <time>2015-10-18T10:06:53Z</time>
      </trkpt>
      <trkpt lat="49.40763" lon="0.15107">
        <ele>-9.9</ele>
        <time>2015-10-18T10:06:57Z</time>
      </trkpt>
      <trkpt lat="49.40764" lon="0.15112">
        <ele>-9.5</ele>
        <time>2015-10-18T10:07:00Z</time>
      </trkpt>
      <trkpt lat="49.40787" lon="0.15223">
        <ele>-7.9</ele>
        <time>2015-10-18T10:08:00Z</time>
      </trkpt>
      <trkpt lat="49.40788" lon="0.15225">
        <ele>-7.7</ele>
        <time>2015-10-18T10:08:01Z</time>
      </trkpt>
      <trkpt lat="49.40848" lon="0.15417">
        <ele>-11.4</ele>
        <time>2015-10-18T10:09:53Z</time>
      </trkpt>
      <trkpt lat="49.40849" lon="0.15418">
        <ele>-15.1</ele>
        <time>2015-10-18T10:09:54Z</time>
      </trkpt>
      <trkpt lat="49.40892" lon="0.15522">
        <ele>-11.2</ele>
        <time>2015-10-18T10:11:02Z</time>
      </trkpt>
      <trkpt lat="49.40893" lon="0.15523">
        <ele>-10.5</ele>
        <time>2015-10-18T10:11:03Z</time>
      </trkpt>
      <trkpt lat="49.40907" lon="0.15542">
        <ele>-7.5</ele>
        <time>2015-10-18T10:11:18Z</time>
      </trkpt>
      <trkpt lat="49.40909" lon="0.15547">
        <ele>-10.6</ele>
        <time>2015-10-18T10:11:22Z</time>
      </trkpt>
      <trkpt lat="49.40912" lon="0.15553">
        <ele>-10</ele>
        <time>2015-10-18T10:11:27Z</time>
      </trkpt>
      <trkpt lat="49.40912" lon="0.15554">
        <ele>-9.8</ele>
        <time>2015-10-18T10:11:28Z</time>
      </trkpt>
      <trkpt lat="49.40912" lon="0.15569">
        <ele>-9.5</ele>
        <time>2015-10-18T10:11:38Z</time>
      </trkpt>
      <trkpt lat="49.40913" lon="0.1559">
        <ele>-9.4</ele>
        <time>2015-10-18T10:11:52Z</time>
      </trkpt>
      <trkpt lat="49.40914" lon="0.15591">
        <ele>-9.2</ele>
        <time>2015-10-18T10:11:53Z</time>
      </trkpt>
      <trkpt lat="49.40917" lon="0.15595">
        <ele>-9.2</ele>
        <time>2015-10-18T10:11:57Z</time>
      </trkpt>
      <trkpt lat="49.40918" lon="0.15595">
        <ele>-9.2</ele>
        <time>2015-10-18T10:11:58Z</time>
      </trkpt>
      <trkpt lat="49.4092" lon="0.15595">
        <ele>-8.5</ele>
        <time>2015-10-18T10:11:59Z</time>
      </trkpt>
      <trkpt lat="49.40921" lon="0.15595">
        <ele>-7.9</ele>
        <time>2015-10-18T10:12:00Z</time>
      </trkpt>
      <trkpt lat="49.40922" lon="0.15596">
        <ele>-7.4</ele>
        <time>2015-10-18T10:12:01Z</time>
      </trkpt>
      <trkpt lat="49.40923" lon="0.15597">
        <ele>-7.9</ele>
        <time>2015-10-18T10:12:02Z</time>
      </trkpt>
      <trkpt lat="49.40923" lon="0.15598">
        <ele>-8.3</ele>
        <time>2015-10-18T10:12:03Z</time>
      </trkpt>
      <trkpt lat="49.40924" lon="0.15599">
        <ele>-8.6</ele>
        <time>2015-10-18T10:12:04Z</time>
      </trkpt>
      <trkpt lat="49.40927" lon="0.15611">
        <ele>-9.4</ele>
        <time>2015-10-18T10:12:11Z</time>
      </trkpt>
      <trkpt lat="49.40934" lon="0.15638">
        <ele>-8.5</ele>
        <time>2015-10-18T10:12:27Z</time>
      </trkpt>
      <trkpt lat="49.40937" lon="0.15647">
        <ele>-7.8</ele>
        <time>2015-10-18T10:12:32Z</time>
      </trkpt>
      <trkpt lat="49.40969" lon="0.15753">
        <ele>-9.5</ele>
        <time>2015-10-18T10:13:33Z</time>
      </trkpt>
      <trkpt lat="49.4097" lon="0.15755">
        <ele>-10.1</ele>
        <time>2015-10-18T10:13:34Z</time>
      </trkpt>
      <trkpt lat="49.40976" lon="0.15772">
        <ele>-8.2</ele>
        <time>2015-10-18T10:13:46Z</time>
      </trkpt>
      <trkpt lat="49.40976" lon="0.15773">
        <ele>-7.7</ele>
        <time>2015-10-18T10:13:47Z</time>
      </trkpt>
      <trkpt lat="49.40976" lon="0.15774">
        <ele>-7.3</ele>
        <time>2015-10-18T10:13:48Z</time>
      </trkpt>
      <trkpt lat="49.40976" lon="0.15775">
        <ele>-7</ele>
        <time>2015-10-18T10:13:49Z</time>
      </trkpt>
      <trkpt lat="49.40975" lon="0.15775">
        <ele>-7.6</ele>
        <time>2015-10-18T10:13:50Z</time>
      </trkpt>
      <trkpt lat="49.40975" lon="0.15776">
        <ele>-8.1</ele>
        <time>2015-10-18T10:13:51Z</time>
      </trkpt>
      <trkpt lat="49.40974" lon="0.15777">
        <ele>-8.4</ele>
        <time>2015-10-18T10:13:52Z</time>
      </trkpt>
      <trkpt lat="49.40974" lon="0.15777">
        <ele>-8.5</ele>
        <time>2015-10-18T10:13:53Z</time>
      </trkpt>
      <trkpt lat="49.40974" lon="0.15778">
        <ele>-8.5</ele>
        <time>2015-10-18T10:13:54Z</time>
      </trkpt>
      <trkpt lat="49.40974" lon="0.15779">
        <ele>-8.5</ele>
        <time>2015-10-18T10:13:55Z</time>
      </trkpt>
      <trkpt lat="49.40973" lon="0.15779">
        <ele>-8.3</ele>
        <time>2015-10-18T10:13:56Z</time>
      </trkpt>
      <trkpt lat="49.40973" lon="0.15779">
        <ele>-8.2</ele>
        <time>2015-10-18T10:13:57Z</time>
      </trkpt>
      <trkpt lat="49.40973" lon="0.1578">
        <ele>-8.1</ele>
        <time>2015-10-18T10:13:58Z</time>
      </trkpt>
      <trkpt lat="49.40973" lon="0.1578">
        <ele>-8</ele>
        <time>2015-10-18T10:13:59Z</time>
      </trkpt>
      <trkpt lat="49.40974" lon="0.15781">
        <ele>-8</ele>
        <time>2015-10-18T10:14:00Z</time>
      </trkpt>
      <trkpt lat="49.40974" lon="0.15781">
        <ele>-7.9</ele>
        <time>2015-10-18T10:14:01Z</time>
      </trkpt>
      <trkpt lat="49.40974" lon="0.15783">
        <ele>-8.1</ele>
        <time>2015-10-18T10:14:02Z</time>
      </trkpt>
      <trkpt lat="49.40992" lon="0.15894">
        <ele>-10.2</ele>
        <time>2015-10-18T10:15:03Z</time>
      </trkpt>
      <trkpt lat="49.40992" lon="0.15896">
        <ele>-10</ele>
        <time>2015-10-18T10:15:04Z</time>
      </trkpt>
      <trkpt lat="49.40996" lon="0.15906">
        <ele>-9.1</ele>
        <time>2015-10-18T10:15:12Z</time>
      </trkpt>
      <trkpt lat="49.40996" lon="0.15906">
        <ele>-9</ele>
        <time>2015-10-18T10:15:13Z</time>
      </trkpt>
      <trkpt lat="49.40996" lon="0.15907">
        <ele>-9.3</ele>
        <time>2015-10-18T10:15:14Z</time>
      </trkpt>
      <trkpt lat="49.41001" lon="0.15919">
        <ele>-8.6</ele>
        <time>2015-10-18T10:15:22Z</time>
      </trkpt>
      <trkpt lat="49.41001" lon="0.15921">
        <ele>-8.6</ele>
        <time>2015-10-18T10:15:23Z</time>
      </trkpt>
      <trkpt lat="49.41005" lon="0.15957">
        <ele>-9.9</ele>
        <time>2015-10-18T10:15:42Z</time>
      </trkpt>
      <trkpt lat="49.41012" lon="0.16001">
        <ele>-8.8</ele>
        <time>2015-10-18T10:16:06Z</time>
      </trkpt>
      <trkpt lat="49.41012" lon="0.16003">
        <ele>-8.9</ele>
        <time>2015-10-18T10:16:07Z</time>
      </trkpt>
      <trkpt lat="49.41022" lon="0.16058">
        <ele>-8.1</ele>
        <time>2015-10-18T10:16:37Z</time>
      </trkpt>
      <trkpt lat="49.41023" lon="0.1607">
        <ele>-12.5</ele>
        <time>2015-10-18T10:16:44Z</time>
      </trkpt>
      <trkpt lat="49.41024" lon="0.16083">
        <ele>-11</ele>
        <time>2015-10-18T10:16:53Z</time>
      </trkpt>
      <trkpt lat="49.41025" lon="0.16085">
        <ele>-10</ele>
        <time>2015-10-18T10:16:54Z</time>
      </trkpt>
      <trkpt lat="49.41028" lon="0.16094">
        <ele>-7.8</ele>
        <time>2015-10-18T10:17:01Z</time>
      </trkpt>
      <trkpt lat="49.41037" lon="0.16112">
        <ele>-7.3</ele>
        <time>2015-10-18T10:17:16Z</time>
      </trkpt>
      <trkpt lat="49.41038" lon="0.16114">
        <ele>-7.8</ele>
        <time>2015-10-18T10:17:17Z</time>
      </trkpt>
      <trkpt lat="49.41067" lon="0.16176">
        <ele>-5.9</ele>
        <time>2015-10-18T10:18:03Z</time>
      </trkpt>
      <trkpt lat="49.41075" lon="0.16198">
        <ele>-6.5</ele>
        <time>2015-10-18T10:18:18Z</time>
      </trkpt>
      <trkpt lat="49.41076" lon="0.162">
        <ele>-6.4</ele>
        <time>2015-10-18T10:18:19Z</time>
      </trkpt>
      <trkpt lat="49.41077" lon="0.16209">
        <ele>-5.8</ele>
        <time>2015-10-18T10:18:25Z</time>
      </trkpt>
      <trkpt lat="49.41077" lon="0.16211">
        <ele>-6.3</ele>
        <time>2015-10-18T10:18:26Z</time>
      </trkpt>
      <trkpt lat="49.41077" lon="0.16212">
        <ele>-6.6</ele>
        <time>2015-10-18T10:18:27Z</time>
      </trkpt>
      <trkpt lat="49.4108" lon="0.16252">
        <ele>-11.5</ele>
        <time>2015-10-18T10:18:50Z</time>
      </trkpt>
      <trkpt lat="49.41081" lon="0.1632">
        <ele>-8.7</ele>
        <time>2015-10-18T10:19:28Z</time>
      </trkpt>
      <trkpt lat="49.41081" lon="0.16322">
        <ele>-7.6</ele>
        <time>2015-10-18T10:19:29Z</time>
      </trkpt>
      <trkpt lat="49.41081" lon="0.16406">
        <ele>-5.2</ele>
        <time>2015-10-18T10:20:14Z</time>
      </trkpt>
      <trkpt lat="49.41092" lon="0.16491">
        <ele>-5.6</ele>
        <time>2015-10-18T10:21:01Z</time>
      </trkpt>
      <trkpt lat="49.41092" lon="0.16493">
        <ele>-6.3</ele>
        <time>2015-10-18T10:21:02Z</time>
      </trkpt>
      <trkpt lat="49.41131" lon="0.16798">
        <ele>-7.3</ele>
        <time>2015-10-18T10:23:53Z</time>
      </trkpt>
      <trkpt lat="49.41145" lon="0.16876">
        <ele>-9.7</ele>
        <time>2015-10-18T10:24:37Z</time>
      </trkpt>
      <trkpt lat="49.41146" lon="0.16892">
        <ele>-6.7</ele>
        <time>2015-10-18T10:24:46Z</time>
      </trkpt>
      <trkpt lat="49.41146" lon="0.16901">
        <ele>-7.8</ele>
        <time>2015-10-18T10:24:55Z</time>
      </trkpt>
      <trkpt lat="49.41146" lon="0.16901">
        <ele>-8.6</ele>
        <time>2015-10-18T10:24:56Z</time>
      </trkpt>
      <trkpt lat="49.41146" lon="0.16901">
        <ele>-9.2</ele>
        <time>2015-10-18T10:24:57Z</time>
      </trkpt>
      <trkpt lat="49.41146" lon="0.16902">
        <ele>-9.7</ele>
        <time>2015-10-18T10:24:58Z</time>
      </trkpt>
      <trkpt lat="49.41146" lon="0.16902">
        <ele>-11.1</ele>
        <time>2015-10-18T10:24:59Z</time>
      </trkpt>
      <trkpt lat="49.41146" lon="0.16902">
        <ele>-12.1</ele>
        <time>2015-10-18T10:25:00Z</time>
      </trkpt>
      <trkpt lat="49.41146" lon="0.16902">
        <ele>-12.9</ele>
        <time>2015-10-18T10:25:01Z</time>
      </trkpt>
      <trkpt lat="49.41146" lon="0.16902">
        <ele>-9.7</ele>
        <time>2015-10-18T10:25:02Z</time>
      </trkpt>
      <trkpt lat="49.41145" lon="0.16902">
        <ele>-7.4</ele>
        <time>2015-10-18T10:25:03Z</time>
      </trkpt>
      <trkpt lat="49.41145" lon="0.16902">
        <ele>-5.6</ele>
        <time>2015-10-18T10:25:04Z</time>
      </trkpt>
      <trkpt lat="49.41145" lon="0.16902">
        <ele>-6</ele>
        <time>2015-10-18T10:25:05Z</time>
      </trkpt>
      <trkpt lat="49.41145" lon="0.16902">
        <ele>-6.2</ele>
        <time>2015-10-18T10:25:06Z</time>
      </trkpt>
      <trkpt lat="49.41145" lon="0.16901">
        <ele>-6.4</ele>
        <time>2015-10-18T10:25:07Z</time>
      </trkpt>
      <trkpt lat="49.41145" lon="0.16901">
        <ele>-6.3</ele>
        <time>2015-10-18T10:25:09Z</time>
      </trkpt>
      <trkpt lat="49.41145" lon="0.16901">
        <ele>-6.2</ele>
        <time>2015-10-18T10:25:10Z</time>
      </trkpt>
      <trkpt lat="49.41144" lon="0.16902">
        <ele>-5.8</ele>
        <time>2015-10-18T10:25:11Z</time>
      </trkpt>
      <trkpt lat="49.41144" lon="0.16903">
        <ele>-5.6</ele>
        <time>2015-10-18T10:25:14Z</time>
      </trkpt>
      <trkpt lat="49.41144" lon="0.16903">
        <ele>-6</ele>
        <time>2015-10-18T10:25:15Z</time>
      </trkpt>
      <trkpt lat="49.41144" lon="0.16903">
        <ele>-6.2</ele>
        <time>2015-10-18T10:25:16Z</time>
      </trkpt>
      <trkpt lat="49.41144" lon="0.16903">
        <ele>-7</ele>
        <time>2015-10-18T10:25:17Z</time>
      </trkpt>
      <trkpt lat="49.41144" lon="0.16903">
        <ele>-7.6</ele>
        <time>2015-10-18T10:25:18Z</time>
      </trkpt>
      <trkpt lat="49.41144" lon="0.16903">
        <ele>-8.1</ele>
        <time>2015-10-18T10:25:19Z</time>
      </trkpt>
      <trkpt lat="49.41144" lon="0.16903">
        <ele>-8</ele>
        <time>2015-10-18T10:25:20Z</time>
      </trkpt>
      <trkpt lat="49.41144" lon="0.16902">
        <ele>-7.9</ele>
        <time>2015-10-18T10:25:21Z</time>
      </trkpt>
      <trkpt lat="49.41145" lon="0.16901">
        <ele>-7.9</ele>
        <time>2015-10-18T10:25:22Z</time>
      </trkpt>
      <trkpt lat="49.41145" lon="0.16899">
        <ele>-7.5</ele>
        <time>2015-10-18T10:25:24Z</time>
      </trkpt>
      <trkpt lat="49.41146" lon="0.16883">
        <ele>-7.2</ele>
        <time>2015-10-18T10:25:35Z</time>
      </trkpt>
      <trkpt lat="49.41147" lon="0.16882">
        <ele>-6.9</ele>
        <time>2015-10-18T10:25:36Z</time>
      </trkpt>
      <trkpt lat="49.41148" lon="0.16881">
        <ele>-6.7</ele>
        <time>2015-10-18T10:25:37Z</time>
      </trkpt>
      <trkpt lat="49.41149" lon="0.1688">
        <ele>-7</ele>
        <time>2015-10-18T10:25:38Z</time>
      </trkpt>
      <trkpt lat="49.4115" lon="0.16879">
        <ele>-7.2</ele>
        <time>2015-10-18T10:25:39Z</time>
      </trkpt>
      <trkpt lat="49.41151" lon="0.16878">
        <ele>-7.3</ele>
        <time>2015-10-18T10:25:40Z</time>
      </trkpt>
      <trkpt lat="49.41152" lon="0.16878">
        <ele>-7.4</ele>
        <time>2015-10-18T10:25:41Z</time>
      </trkpt>
      <trkpt lat="49.41157" lon="0.16873">
        <ele>-7.4</ele>
        <time>2015-10-18T10:25:47Z</time>
      </trkpt>
      <trkpt lat="49.41159" lon="0.16872">
        <ele>-8</ele>
        <time>2015-10-18T10:25:51Z</time>
      </trkpt>
      <trkpt lat="49.4116" lon="0.16873">
        <ele>-8.2</ele>
        <time>2015-10-18T10:25:52Z</time>
      </trkpt>
      <trkpt lat="49.4116" lon="0.16874">
        <ele>-7.6</ele>
        <time>2015-10-18T10:25:53Z</time>
      </trkpt>
      <trkpt lat="49.4116" lon="0.16876">
        <ele>-7.3</ele>
        <time>2015-10-18T10:25:54Z</time>
      </trkpt>
      <trkpt lat="49.41161" lon="0.16877">
        <ele>-7</ele>
        <time>2015-10-18T10:25:55Z</time>
      </trkpt>
      <trkpt lat="49.4116" lon="0.16879">
        <ele>-7.2</ele>
        <time>2015-10-18T10:25:56Z</time>
      </trkpt>
      <trkpt lat="49.4116" lon="0.16881">
        <ele>-7.3</ele>
        <time>2015-10-18T10:25:57Z</time>
      </trkpt>
      <trkpt lat="49.4116" lon="0.16882">
        <ele>-7.4</ele>
        <time>2015-10-18T10:25:58Z</time>
      </trkpt>
      <trkpt lat="49.4116" lon="0.16884">
        <ele>-7.9</ele>
        <time>2015-10-18T10:25:59Z</time>
      </trkpt>
      <trkpt lat="49.4116" lon="0.16886">
        <ele>-8.3</ele>
        <time>2015-10-18T10:26:00Z</time>
      </trkpt>
      <trkpt lat="49.4116" lon="0.16888">
        <ele>-8.6</ele>
        <time>2015-10-18T10:26:01Z</time>
      </trkpt>
      <trkpt lat="49.4116" lon="0.16889">
        <ele>-8.8</ele>
        <time>2015-10-18T10:26:02Z</time>
      </trkpt>
      <trkpt lat="49.4116" lon="0.16891">
        <ele>-9</ele>
        <time>2015-10-18T10:26:03Z</time>
      </trkpt>
      <trkpt lat="49.4116" lon="0.16893">
        <ele>-9.1</ele>
        <time>2015-10-18T10:26:04Z</time>
      </trkpt>
      <trkpt lat="49.4116" lon="0.169">
        <ele>-8.2</ele>
        <time>2015-10-18T10:26:09Z</time>
      </trkpt>
      <trkpt lat="49.4116" lon="0.16905">
        <ele>-8</ele>
        <time>2015-10-18T10:26:13Z</time>
      </trkpt>
      <trkpt lat="49.41156" lon="0.1692">
        <ele>-7.4</ele>
        <time>2015-10-18T10:26:25Z</time>
      </trkpt>
      <trkpt lat="49.41147" lon="0.16951">
        <ele>-8.8</ele>
        <time>2015-10-18T10:26:47Z</time>
      </trkpt>
      <trkpt lat="49.41147" lon="0.16953">
        <ele>-7.5</ele>
        <time>2015-10-18T10:26:48Z</time>
      </trkpt>
      <trkpt lat="49.41148" lon="0.16971">
        <ele>-11.5</ele>
        <time>2015-10-18T10:26:58Z</time>
      </trkpt>
      <trkpt lat="49.41148" lon="0.16973">
        <ele>-10.6</ele>
        <time>2015-10-18T10:26:59Z</time>
      </trkpt>
      <trkpt lat="49.41158" lon="0.17026">
        <ele>-9.6</ele>
        <time>2015-10-18T10:27:27Z</time>
      </trkpt>
      <trkpt lat="49.41166" lon="0.17053">
        <ele>-4.6</ele>
        <time>2015-10-18T10:27:43Z</time>
      </trkpt>
      <trkpt lat="49.41168" lon="0.17065">
        <ele>-6.7</ele>
        <time>2015-10-18T10:27:50Z</time>
      </trkpt>
      <trkpt lat="49.41168" lon="0.17068">
        <ele>-6.8</ele>
        <time>2015-10-18T10:27:52Z</time>
      </trkpt>
      <trkpt lat="49.41167" lon="0.17069">
        <ele>-7</ele>
        <time>2015-10-18T10:27:53Z</time>
      </trkpt>
      <trkpt lat="49.41167" lon="0.17071">
        <ele>-7.2</ele>
        <time>2015-10-18T10:27:54Z</time>
      </trkpt>
      <trkpt lat="49.41166" lon="0.17072">
        <ele>-7.4</ele>
        <time>2015-10-18T10:27:55Z</time>
      </trkpt>
      <trkpt lat="49.41166" lon="0.17073">
        <ele>-8.1</ele>
        <time>2015-10-18T10:27:56Z</time>
      </trkpt>
      <trkpt lat="49.41165" lon="0.17074">
        <ele>-8.6</ele>
        <time>2015-10-18T10:27:57Z</time>
      </trkpt>
      <trkpt lat="49.41164" lon="0.17075">
        <ele>-9</ele>
        <time>2015-10-18T10:27:58Z</time>
      </trkpt>
      <trkpt lat="49.41163" lon="0.17077">
        <ele>-9.5</ele>
        <time>2015-10-18T10:27:59Z</time>
      </trkpt>
      <trkpt lat="49.41163" lon="0.17078">
        <ele>-9.9</ele>
        <time>2015-10-18T10:28:00Z</time>
      </trkpt>
      <trkpt lat="49.41162" lon="0.17079">
        <ele>-10.2</ele>
        <time>2015-10-18T10:28:01Z</time>
      </trkpt>
      <trkpt lat="49.41162" lon="0.1708">
        <ele>-9.6</ele>
        <time>2015-10-18T10:28:02Z</time>
      </trkpt>
      <trkpt lat="49.41161" lon="0.17085">
        <ele>-9.2</ele>
        <time>2015-10-18T10:28:05Z</time>
      </trkpt>
      <trkpt lat="49.41161" lon="0.1709">
        <ele>-9</ele>
        <time>2015-10-18T10:28:08Z</time>
      </trkpt>
      <trkpt lat="49.41163" lon="0.17097">
        <ele>-6.9</ele>
        <time>2015-10-18T10:28:12Z</time>
      </trkpt>
      <trkpt lat="49.41164" lon="0.17104">
        <ele>-4.8</ele>
        <time>2015-10-18T10:28:16Z</time>
      </trkpt>
      <trkpt lat="49.41166" lon="0.1712">
        <ele>-6.8</ele>
        <time>2015-10-18T10:28:25Z</time>
      </trkpt>
      <trkpt lat="49.41166" lon="0.17121">
        <ele>-8.5</ele>
        <time>2015-10-18T10:28:26Z</time>
      </trkpt>
      <trkpt lat="49.41167" lon="0.17132">
        <ele>-11.4</ele>
        <time>2015-10-18T10:28:32Z</time>
      </trkpt>
      <trkpt lat="49.41169" lon="0.17139">
        <ele>-10.4</ele>
        <time>2015-10-18T10:28:36Z</time>
      </trkpt>
      <trkpt lat="49.4119" lon="0.17236">
        <ele>-7.1</ele>
        <time>2015-10-18T10:29:30Z</time>
      </trkpt>
      <trkpt lat="49.4119" lon="0.17238">
        <ele>-7</ele>
        <time>2015-10-18T10:29:31Z</time>
      </trkpt>
      <trkpt lat="49.41217" lon="0.17357">
        <ele>-10.4</ele>
        <time>2015-10-18T10:30:37Z</time>
      </trkpt>
      <trkpt lat="49.41217" lon="0.17359">
        <ele>-8.3</ele>
        <time>2015-10-18T10:30:38Z</time>
      </trkpt>
      <trkpt lat="49.4124" lon="0.17468">
        <ele>-8.3</ele>
        <time>2015-10-18T10:31:41Z</time>
      </trkpt>
      <trkpt lat="49.41245" lon="0.17481">
        <ele>-8.2</ele>
        <time>2015-10-18T10:31:49Z</time>
      </trkpt>
      <trkpt lat="49.4127" lon="0.17543">
        <ele>-10.9</ele>
        <time>2015-10-18T10:32:28Z</time>
      </trkpt>
      <trkpt lat="49.4127" lon="0.17544">
        <ele>-9.7</ele>
        <time>2015-10-18T10:32:29Z</time>
      </trkpt>
      <trkpt lat="49.41294" lon="0.17626">
        <ele>-8</ele>
        <time>2015-10-18T10:33:16Z</time>
      </trkpt>
      <trkpt lat="49.41294" lon="0.17627">
        <ele>-14</ele>
        <time>2015-10-18T10:33:17Z</time>
      </trkpt>
      <trkpt lat="49.4138" lon="0.17838">
        <ele>-9</ele>
        <time>2015-10-18T10:35:31Z</time>
      </trkpt>
      <trkpt lat="49.41381" lon="0.1784">
        <ele>-9.5</ele>
        <time>2015-10-18T10:35:32Z</time>
      </trkpt>
      <trkpt lat="49.41385" lon="0.1785">
        <ele>-13.7</ele>
        <time>2015-10-18T10:35:39Z</time>
      </trkpt>
      <trkpt lat="49.4139" lon="0.17864">
        <ele>-10.8</ele>
        <time>2015-10-18T10:35:48Z</time>
      </trkpt>
      <trkpt lat="49.41409" lon="0.17918">
        <ele>-8.6</ele>
        <time>2015-10-18T10:36:23Z</time>
      </trkpt>
      <trkpt lat="49.4141" lon="0.17918">
        <ele>-8.6</ele>
        <time>2015-10-18T10:36:24Z</time>
      </trkpt>
      <trkpt lat="49.4141" lon="0.1792">
        <ele>-8.2</ele>
        <time>2015-10-18T10:36:34Z</time>
      </trkpt>
      <trkpt lat="49.41411" lon="0.17922">
        <ele>-7.6</ele>
        <time>2015-10-18T10:36:35Z</time>
      </trkpt>
      <trkpt lat="49.41416" lon="0.17938">
        <ele>-9.1</ele>
        <time>2015-10-18T10:36:46Z</time>
      </trkpt>
      <trkpt lat="49.41416" lon="0.17938">
        <ele>-10</ele>
        <time>2015-10-18T10:36:47Z</time>
      </trkpt>
      <trkpt lat="49.41416" lon="0.17938">
        <ele>-10.7</ele>
        <time>2015-10-18T10:36:48Z</time>
      </trkpt>
      <trkpt lat="49.41416" lon="0.17938">
        <ele>-10.8</ele>
        <time>2015-10-18T10:36:49Z</time>
      </trkpt>
      <trkpt lat="49.41416" lon="0.17938">
        <ele>-10.9</ele>
        <time>2015-10-18T10:36:50Z</time>
      </trkpt>
      <trkpt lat="49.41416" lon="0.17938">
        <ele>-10.9</ele>
        <time>2015-10-18T10:36:51Z</time>
      </trkpt>
      <trkpt lat="49.41416" lon="0.17938">
        <ele>-10.8</ele>
        <time>2015-10-18T10:36:52Z</time>
      </trkpt>
      <trkpt lat="49.41416" lon="0.17938">
        <ele>-10.6</ele>
        <time>2015-10-18T10:36:53Z</time>
      </trkpt>
      <trkpt lat="49.41415" lon="0.17938">
        <ele>-10.5</ele>
        <time>2015-10-18T10:36:54Z</time>
      </trkpt>
      <trkpt lat="49.41415" lon="0.17938">
        <ele>-9.4</ele>
        <time>2015-10-18T10:36:55Z</time>
      </trkpt>
      <trkpt lat="49.41415" lon="0.17938">
        <ele>-8.6</ele>
        <time>2015-10-18T10:36:56Z</time>
      </trkpt>
      <trkpt lat="49.41415" lon="0.17938">
        <ele>-8</ele>
        <time>2015-10-18T10:36:57Z</time>
      </trkpt>
      <trkpt lat="49.41415" lon="0.17938">
        <ele>-7.5</ele>
        <time>2015-10-18T10:36:58Z</time>
      </trkpt>
      <trkpt lat="49.41415" lon="0.17938">
        <ele>-7.2</ele>
        <time>2015-10-18T10:36:59Z</time>
      </trkpt>
      <trkpt lat="49.41415" lon="0.17938">
        <ele>-6.9</ele>
        <time>2015-10-18T10:37:00Z</time>
      </trkpt>
      <trkpt lat="49.41415" lon="0.17938">
        <ele>-8.2</ele>
        <time>2015-10-18T10:37:01Z</time>
      </trkpt>
      <trkpt lat="49.41415" lon="0.17938">
        <ele>-9.1</ele>
        <time>2015-10-18T10:37:02Z</time>
      </trkpt>
      <trkpt lat="49.41415" lon="0.17939">
        <ele>-9.8</ele>
        <time>2015-10-18T10:37:03Z</time>
      </trkpt>
      <trkpt lat="49.41415" lon="0.17939">
        <ele>-8.7</ele>
        <time>2015-10-18T10:37:04Z</time>
      </trkpt>
      <trkpt lat="49.41416" lon="0.17939">
        <ele>-7.8</ele>
        <time>2015-10-18T10:37:05Z</time>
      </trkpt>
      <trkpt lat="49.41416" lon="0.17939">
        <ele>-7.2</ele>
        <time>2015-10-18T10:37:06Z</time>
      </trkpt>
      <trkpt lat="49.41416" lon="0.17939">
        <ele>-7.3</ele>
        <time>2015-10-18T10:37:07Z</time>
      </trkpt>
      <trkpt lat="49.41416" lon="0.17939">
        <ele>-7.4</ele>
        <time>2015-10-18T10:37:08Z</time>
      </trkpt>
      <trkpt lat="49.41416" lon="0.17939">
        <ele>-7.5</ele>
        <time>2015-10-18T10:37:09Z</time>
      </trkpt>
      <trkpt lat="49.41416" lon="0.17939">
        <ele>-7.4</ele>
        <time>2015-10-18T10:37:10Z</time>
      </trkpt>
      <trkpt lat="49.41416" lon="0.17939">
        <ele>-7.3</ele>
        <time>2015-10-18T10:37:11Z</time>
      </trkpt>
      <trkpt lat="49.41416" lon="0.17939">
        <ele>-7.2</ele>
        <time>2015-10-18T10:37:12Z</time>
      </trkpt>
      <trkpt lat="49.41416" lon="0.17939">
        <ele>-7.3</ele>
        <time>2015-10-18T10:37:13Z</time>
      </trkpt>
      <trkpt lat="49.41416" lon="0.17939">
        <ele>-7.4</ele>
        <time>2015-10-18T10:37:14Z</time>
      </trkpt>
      <trkpt lat="49.41416" lon="0.17939">
        <ele>-7.5</ele>
        <time>2015-10-18T10:37:15Z</time>
      </trkpt>
      <trkpt lat="49.41416" lon="0.17939">
        <ele>-7.6</ele>
        <time>2015-10-18T10:37:16Z</time>
      </trkpt>
      <trkpt lat="49.41415" lon="0.17939">
        <ele>-7.6</ele>
        <time>2015-10-18T10:37:17Z</time>
      </trkpt>
      <trkpt lat="49.41415" lon="0.17939">
        <ele>-7.7</ele>
        <time>2015-10-18T10:37:18Z</time>
      </trkpt>
      <trkpt lat="49.41415" lon="0.17939">
        <ele>-7.3</ele>
        <time>2015-10-18T10:37:19Z</time>
      </trkpt>
      <trkpt lat="49.41415" lon="0.17939">
        <ele>-7</ele>
        <time>2015-10-18T10:37:20Z</time>
      </trkpt>
      <trkpt lat="49.41415" lon="0.1794">
        <ele>-6.8</ele>
        <time>2015-10-18T10:37:21Z</time>
      </trkpt>
      <trkpt lat="49.41416" lon="0.17942">
        <ele>-5</ele>
        <time>2015-10-18T10:37:23Z</time>
      </trkpt>
      <trkpt lat="49.41416" lon="0.17944">
        <ele>-4.5</ele>
        <time>2015-10-18T10:37:24Z</time>
      </trkpt>
      <trkpt lat="49.4142" lon="0.17953">
        <ele>-4.5</ele>
        <time>2015-10-18T10:37:30Z</time>
      </trkpt>
      <trkpt lat="49.41423" lon="0.1796">
        <ele>-6.5</ele>
        <time>2015-10-18T10:37:35Z</time>
      </trkpt>
      <trkpt lat="49.41424" lon="0.17961">
        <ele>-6.8</ele>
        <time>2015-10-18T10:37:36Z</time>
      </trkpt>
      <trkpt lat="49.41434" lon="0.17981">
        <ele>-9.3</ele>
        <time>2015-10-18T10:37:50Z</time>
      </trkpt>
      <trkpt lat="49.4144" lon="0.17994">
        <ele>-8.9</ele>
        <time>2015-10-18T10:37:59Z</time>
      </trkpt>
      <trkpt lat="49.41449" lon="0.18006">
        <ele>-8.2</ele>
        <time>2015-10-18T10:38:09Z</time>
      </trkpt>
      <trkpt lat="49.41456" lon="0.18019">
        <ele>-12</ele>
        <time>2015-10-18T10:38:19Z</time>
      </trkpt>
      <trkpt lat="49.41457" lon="0.18022">
        <ele>-16.3</ele>
        <time>2015-10-18T10:38:21Z</time>
      </trkpt>
      <trkpt lat="49.41497" lon="0.18156">
        <ele>-10.7</ele>
        <time>2015-10-18T10:39:46Z</time>
      </trkpt>
      <trkpt lat="49.41497" lon="0.18158">
        <ele>-9.8</ele>
        <time>2015-10-18T10:39:47Z</time>
      </trkpt>
      <trkpt lat="49.41512" lon="0.18208">
        <ele>-7.6</ele>
        <time>2015-10-18T10:40:24Z</time>
      </trkpt>
      <trkpt lat="49.41512" lon="0.18208">
        <ele>-7</ele>
        <time>2015-10-18T10:40:25Z</time>
      </trkpt>
      <trkpt lat="49.41513" lon="0.1821">
        <ele>-6.6</ele>
        <time>2015-10-18T10:40:26Z</time>
      </trkpt>
      <trkpt lat="49.41514" lon="0.18221">
        <ele>-7.6</ele>
        <time>2015-10-18T10:40:33Z</time>
      </trkpt>
      <trkpt lat="49.41523" lon="0.18279">
        <ele>-7.3</ele>
        <time>2015-10-18T10:41:06Z</time>
      </trkpt>
      <trkpt lat="49.41524" lon="0.18281">
        <ele>-7.9</ele>
        <time>2015-10-18T10:41:07Z</time>
      </trkpt>
      <trkpt lat="49.41524" lon="0.18283">
        <ele>-8.2</ele>
        <time>2015-10-18T10:41:08Z</time>
      </trkpt>
      <trkpt lat="49.41527" lon="0.18307">
        <ele>-8.2</ele>
        <time>2015-10-18T10:41:21Z</time>
      </trkpt>
      <trkpt lat="49.41527" lon="0.18308">
        <ele>-7.7</ele>
        <time>2015-10-18T10:41:22Z</time>
      </trkpt>
      <trkpt lat="49.41526" lon="0.18316">
        <ele>-8.6</ele>
        <time>2015-10-18T10:41:28Z</time>
      </trkpt>
      <trkpt lat="49.41526" lon="0.18318">
        <ele>-8.4</ele>
        <time>2015-10-18T10:41:29Z</time>
      </trkpt>
      <trkpt lat="49.41527" lon="0.18325">
        <ele>-7.7</ele>
        <time>2015-10-18T10:41:35Z</time>
      </trkpt>
      <trkpt lat="49.41526" lon="0.18325">
        <ele>-7.9</ele>
        <time>2015-10-18T10:41:36Z</time>
      </trkpt>
      <trkpt lat="49.41525" lon="0.18324">
        <ele>-7.7</ele>
        <time>2015-10-18T10:41:37Z</time>
      </trkpt>
      <trkpt lat="49.41524" lon="0.18322">
        <ele>-7.5</ele>
        <time>2015-10-18T10:41:38Z</time>
      </trkpt>
      <trkpt lat="49.41524" lon="0.18321">
        <ele>-7.4</ele>
        <time>2015-10-18T10:41:39Z</time>
      </trkpt>
      <trkpt lat="49.41523" lon="0.1832">
        <ele>-7.5</ele>
        <time>2015-10-18T10:41:40Z</time>
      </trkpt>
      <trkpt lat="49.41522" lon="0.18319">
        <ele>-7.5</ele>
        <time>2015-10-18T10:41:41Z</time>
      </trkpt>
      <trkpt lat="49.41522" lon="0.18318">
        <ele>-7.6</ele>
        <time>2015-10-18T10:41:42Z</time>
      </trkpt>
      <trkpt lat="49.41521" lon="0.18317">
        <ele>-7.6</ele>
        <time>2015-10-18T10:41:43Z</time>
      </trkpt>
      <trkpt lat="49.4152" lon="0.18316">
        <ele>-7.7</ele>
        <time>2015-10-18T10:41:44Z</time>
      </trkpt>
      <trkpt lat="49.41519" lon="0.18316">
        <ele>-7.7</ele>
        <time>2015-10-18T10:41:45Z</time>
      </trkpt>
      <trkpt lat="49.41512" lon="0.1831">
        <ele>-7.4</ele>
        <time>2015-10-18T10:41:56Z</time>
      </trkpt>
      <trkpt lat="49.41512" lon="0.1831">
        <ele>-7.5</ele>
        <time>2015-10-18T10:41:57Z</time>
      </trkpt>
      <trkpt lat="49.41512" lon="0.1831">
        <ele>-7.6</ele>
        <time>2015-10-18T10:41:58Z</time>
      </trkpt>
      <trkpt lat="49.41512" lon="0.1831">
        <ele>-7.6</ele>
        <time>2015-10-18T10:41:59Z</time>
      </trkpt>
      <trkpt lat="49.41512" lon="0.1831">
        <ele>-7.7</ele>
        <time>2015-10-18T10:42:00Z</time>
      </trkpt>
      <trkpt lat="49.41512" lon="0.1831">
        <ele>-6.6</ele>
        <time>2015-10-18T10:42:01Z</time>
      </trkpt>
      <trkpt lat="49.41512" lon="0.1831">
        <ele>-5.9</ele>
        <time>2015-10-18T10:42:02Z</time>
      </trkpt>
      <trkpt lat="49.41512" lon="0.1831">
        <ele>-5.3</ele>
        <time>2015-10-18T10:42:03Z</time>
      </trkpt>
      <trkpt lat="49.41512" lon="0.1831">
        <ele>-5.9</ele>
        <time>2015-10-18T10:42:04Z</time>
      </trkpt>
      <trkpt lat="49.41512" lon="0.18309">
        <ele>-6.4</ele>
        <time>2015-10-18T10:42:05Z</time>
      </trkpt>
      <trkpt lat="49.41512" lon="0.18309">
        <ele>-6.7</ele>
        <time>2015-10-18T10:42:06Z</time>
      </trkpt>
      <trkpt lat="49.41512" lon="0.18309">
        <ele>-7.6</ele>
        <time>2015-10-18T10:42:08Z</time>
      </trkpt>
      <trkpt lat="49.41512" lon="0.1831">
        <ele>-7.8</ele>
        <time>2015-10-18T10:42:09Z</time>
      </trkpt>
      <trkpt lat="49.41512" lon="0.1831">
        <ele>-7.2</ele>
        <time>2015-10-18T10:42:10Z</time>
      </trkpt>
      <trkpt lat="49.41512" lon="0.1831">
        <ele>-6.7</ele>
        <time>2015-10-18T10:42:11Z</time>
      </trkpt>
      <trkpt lat="49.41512" lon="0.18309">
        <ele>-6.4</ele>
        <time>2015-10-18T10:42:12Z</time>
      </trkpt>
      <trkpt lat="49.41512" lon="0.18309">
        <ele>-6.5</ele>
        <time>2015-10-18T10:42:13Z</time>
      </trkpt>
      <trkpt lat="49.41512" lon="0.18309">
        <ele>-6.6</ele>
        <time>2015-10-18T10:42:14Z</time>
      </trkpt>
      <trkpt lat="49.41512" lon="0.18309">
        <ele>-6.7</ele>
        <time>2015-10-18T10:42:15Z</time>
      </trkpt>
      <trkpt lat="49.41511" lon="0.18309">
        <ele>-6.3</ele>
        <time>2015-10-18T10:42:16Z</time>
      </trkpt>
      <trkpt lat="49.41511" lon="0.18309">
        <ele>-6.1</ele>
        <time>2015-10-18T10:42:17Z</time>
      </trkpt>
      <trkpt lat="49.41511" lon="0.18308">
        <ele>-5.9</ele>
        <time>2015-10-18T10:42:18Z</time>
      </trkpt>
      <trkpt lat="49.41511" lon="0.18308">
        <ele>-6.4</ele>
        <time>2015-10-18T10:42:19Z</time>
      </trkpt>
      <trkpt lat="49.41511" lon="0.18308">
        <ele>-6.7</ele>
        <time>2015-10-18T10:42:20Z</time>
      </trkpt>
      <trkpt lat="49.41511" lon="0.18308">
        <ele>-7</ele>
        <time>2015-10-18T10:42:21Z</time>
      </trkpt>
      <trkpt lat="49.41511" lon="0.18308">
        <ele>-7.2</ele>
        <time>2015-10-18T10:42:22Z</time>
      </trkpt>
      <trkpt lat="49.41511" lon="0.18308">
        <ele>-7.3</ele>
        <time>2015-10-18T10:42:23Z</time>
      </trkpt>
      <trkpt lat="49.41511" lon="0.18308">
        <ele>-7.4</ele>
        <time>2015-10-18T10:42:24Z</time>
      </trkpt>
      <trkpt lat="49.41511" lon="0.18308">
        <ele>-7.5</ele>
        <time>2015-10-18T10:42:25Z</time>
      </trkpt>
      <trkpt lat="49.41511" lon="0.18308">
        <ele>-7.6</ele>
        <time>2015-10-18T10:42:26Z</time>
      </trkpt>
      <trkpt lat="49.41511" lon="0.18308">
        <ele>-7.6</ele>
        <time>2015-10-18T10:42:27Z</time>
      </trkpt>
      <trkpt lat="49.41511" lon="0.18307">
        <ele>-7.7</ele>
        <time>2015-10-18T10:42:28Z</time>
      </trkpt>
      <trkpt lat="49.41511" lon="0.18307">
        <ele>-7.7</ele>
        <time>2015-10-18T10:42:29Z</time>
      </trkpt>
      <trkpt lat="49.41511" lon="0.18307">
        <ele>-7.7</ele>
        <time>2015-10-18T10:42:30Z</time>
      </trkpt>
      <trkpt lat="49.41511" lon="0.18307">
        <ele>-7.7</ele>
        <time>2015-10-18T10:42:31Z</time>
      </trkpt>
      <trkpt lat="49.41511" lon="0.18307">
        <ele>-7.7</ele>
        <time>2015-10-18T10:42:32Z</time>
      </trkpt>
      <trkpt lat="49.41511" lon="0.18306">
        <ele>-47.8</ele>
        <time>2015-10-18T10:42:39Z</time>
      </trkpt>
      <trkpt lat="49.41511" lon="0.18306">
        <ele>-51.4</ele>
        <time>2015-10-18T10:42:40Z</time>
      </trkpt>
      <trkpt lat="49.41511" lon="0.18306">
        <ele>-54.1</ele>
        <time>2015-10-18T10:42:41Z</time>
      </trkpt>
      <trkpt lat="49.41511" lon="0.18307">
        <ele>-56.2</ele>
        <time>2015-10-18T10:42:42Z</time>
      </trkpt>
      <trkpt lat="49.41511" lon="0.18307">
        <ele>-49.9</ele>
        <time>2015-10-18T10:42:43Z</time>
      </trkpt>
      <trkpt lat="49.41511" lon="0.18307">
        <ele>-45.1</ele>
        <time>2015-10-18T10:42:44Z</time>
      </trkpt>
      <trkpt lat="49.41511" lon="0.18307">
        <ele>-41.6</ele>
        <time>2015-10-18T10:42:45Z</time>
      </trkpt>
      <trkpt lat="49.41511" lon="0.18307">
        <ele>-33.7</ele>
        <time>2015-10-18T10:42:46Z</time>
      </trkpt>
      <trkpt lat="49.41512" lon="0.18307">
        <ele>-27.9</ele>
        <time>2015-10-18T10:42:47Z</time>
      </trkpt>
      <trkpt lat="49.41512" lon="0.18307">
        <ele>-23.5</ele>
        <time>2015-10-18T10:42:48Z</time>
      </trkpt>
      <trkpt lat="49.41512" lon="0.18307">
        <ele>-19.1</ele>
        <time>2015-10-18T10:42:49Z</time>
      </trkpt>
      <trkpt lat="49.41512" lon="0.18307">
        <ele>-15.9</ele>
        <time>2015-10-18T10:42:50Z</time>
      </trkpt>
      <trkpt lat="49.41512" lon="0.18307">
        <ele>-13.4</ele>
        <time>2015-10-18T10:42:51Z</time>
      </trkpt>
      <trkpt lat="49.41512" lon="0.18308">
        <ele>-9.3</ele>
        <time>2015-10-18T10:42:52Z</time>
      </trkpt>
      <trkpt lat="49.41512" lon="0.18308">
        <ele>-6.2</ele>
        <time>2015-10-18T10:42:53Z</time>
      </trkpt>
      <trkpt lat="49.41512" lon="0.18308">
        <ele>-3.9</ele>
        <time>2015-10-18T10:42:54Z</time>
      </trkpt>
      <trkpt lat="49.41512" lon="0.18308">
        <ele>-1.4</ele>
        <time>2015-10-18T10:42:55Z</time>
      </trkpt>
      <trkpt lat="49.41512" lon="0.18308">
        <ele>0.4</ele>
        <time>2015-10-18T10:42:56Z</time>
      </trkpt>
      <trkpt lat="49.41512" lon="0.18308">
        <ele>1.9</ele>
        <time>2015-10-18T10:42:57Z</time>
      </trkpt>
      <trkpt lat="49.41512" lon="0.18308">
        <ele>15.1</ele>
        <time>2015-10-18T10:43:01Z</time>
      </trkpt>
      <trkpt lat="49.41512" lon="0.18308">
        <ele>36.4</ele>
        <time>2015-10-18T10:43:02Z</time>
      </trkpt>
      <trkpt lat="49.41512" lon="0.18308">
        <ele>52.4</ele>
        <time>2015-10-18T10:43:03Z</time>
      </trkpt>
      <trkpt lat="49.41512" lon="0.18308">
        <ele>50.2</ele>
        <time>2015-10-18T10:43:04Z</time>
      </trkpt>
      <trkpt lat="49.41512" lon="0.18308">
        <ele>48.5</ele>
        <time>2015-10-18T10:43:05Z</time>
      </trkpt>
      <trkpt lat="49.41512" lon="0.18308">
        <ele>47.3</ele>
        <time>2015-10-18T10:43:06Z</time>
      </trkpt>
      <trkpt lat="49.41512" lon="0.18307">
        <ele>39.3</ele>
        <time>2015-10-18T10:43:07Z</time>
      </trkpt>
      <trkpt lat="49.41512" lon="0.18306">
        <ele>-6.6</ele>
        <time>2015-10-18T10:43:55Z</time>
      </trkpt>
      <trkpt lat="49.41512" lon="0.18306">
        <ele>-6.5</ele>
        <time>2015-10-18T10:43:56Z</time>
      </trkpt>
      <trkpt lat="49.41512" lon="0.18306">
        <ele>-6.4</ele>
        <time>2015-10-18T10:43:57Z</time>
      </trkpt>
      <trkpt lat="49.41512" lon="0.18306">
        <ele>-6.5</ele>
        <time>2015-10-18T10:43:58Z</time>
      </trkpt>
      <trkpt lat="49.41512" lon="0.18304">
        <ele>-7</ele>
        <time>2015-10-18T10:50:16Z</time>
      </trkpt>
      <trkpt lat="49.41511" lon="0.18304">
        <ele>-7</ele>
        <time>2015-10-18T10:50:17Z</time>
      </trkpt>
      <trkpt lat="49.41511" lon="0.18304">
        <ele>-7</ele>
        <time>2015-10-18T10:50:18Z</time>
      </trkpt>
      <trkpt lat="49.41511" lon="0.18304">
        <ele>-7</ele>
        <time>2015-10-18T10:50:19Z</time>
      </trkpt>
      <trkpt lat="49.41511" lon="0.18304">
        <ele>-7</ele>
        <time>2015-10-18T10:50:20Z</time>
      </trkpt>
      <trkpt lat="49.41511" lon="0.18304">
        <ele>-7</ele>
        <time>2015-10-18T10:50:21Z</time>
      </trkpt>
      <trkpt lat="49.41511" lon="0.18304">
        <ele>-7.2</ele>
        <time>2015-10-18T10:50:22Z</time>
      </trkpt>
      <trkpt lat="49.41511" lon="0.18304">
        <ele>-7.3</ele>
        <time>2015-10-18T10:50:23Z</time>
      </trkpt>
      <trkpt lat="49.41511" lon="0.18304">
        <ele>-7.4</ele>
        <time>2015-10-18T10:50:24Z</time>
      </trkpt>
      <trkpt lat="49.41511" lon="0.18304">
        <ele>-7.7</ele>
        <time>2015-10-18T10:50:25Z</time>
      </trkpt>
      <trkpt lat="49.41511" lon="0.18304">
        <ele>-7.9</ele>
        <time>2015-10-18T10:50:26Z</time>
      </trkpt>
      <trkpt lat="49.41511" lon="0.18304">
        <ele>-8.1</ele>
        <time>2015-10-18T10:50:27Z</time>
      </trkpt>
      <trkpt lat="49.41511" lon="0.18304">
        <ele>-7.8</ele>
        <time>2015-10-18T10:50:28Z</time>
      </trkpt>
      <trkpt lat="49.41511" lon="0.18304">
        <ele>-7.6</ele>
        <time>2015-10-18T10:50:29Z</time>
      </trkpt>
      <trkpt lat="49.41511" lon="0.18304">
        <ele>-7.4</ele>
        <time>2015-10-18T10:50:30Z</time>
      </trkpt>
      <trkpt lat="49.41511" lon="0.18305">
        <ele>-7.5</ele>
        <time>2015-10-18T10:50:31Z</time>
      </trkpt>
      <trkpt lat="49.41511" lon="0.18305">
        <ele>-7.6</ele>
        <time>2015-10-18T10:50:32Z</time>
      </trkpt>
      <trkpt lat="49.41511" lon="0.18305">
        <ele>-7.6</ele>
        <time>2015-10-18T10:50:33Z</time>
      </trkpt>
      <trkpt lat="49.41511" lon="0.18305">
        <ele>-7.7</ele>
        <time>2015-10-18T10:50:34Z</time>
      </trkpt>
      <trkpt lat="49.41511" lon="0.18305">
        <ele>-7.7</ele>
        <time>2015-10-18T10:50:35Z</time>
      </trkpt>
      <trkpt lat="49.41511" lon="0.18305">
        <ele>-7.7</ele>
        <time>2015-10-18T10:50:36Z</time>
      </trkpt>
      <trkpt lat="49.41511" lon="0.18305">
        <ele>-7.7</ele>
        <time>2015-10-18T10:50:37Z</time>
      </trkpt>
      <trkpt lat="49.41511" lon="0.18305">
        <ele>-7.7</ele>
        <time>2015-10-18T10:50:38Z</time>
      </trkpt>
      <trkpt lat="49.41511" lon="0.18305">
        <ele>-7.7</ele>
        <time>2015-10-18T10:50:39Z</time>
      </trkpt>
      <trkpt lat="49.41511" lon="0.18305">
        <ele>-7.5</ele>
        <time>2015-10-18T10:50:40Z</time>
      </trkpt>
      <trkpt lat="49.41511" lon="0.18305">
        <ele>-7.4</ele>
        <time>2015-10-18T10:50:41Z</time>
      </trkpt>
      <trkpt lat="49.41511" lon="0.18305">
        <ele>-7.3</ele>
        <time>2015-10-18T10:50:42Z</time>
      </trkpt>
      <trkpt lat="49.41511" lon="0.18305">
        <ele>-7.2</ele>
        <time>2015-10-18T10:50:43Z</time>
      </trkpt>
      <trkpt lat="49.41511" lon="0.18305">
        <ele>-7.1</ele>
        <time>2015-10-18T10:50:44Z</time>
      </trkpt>
      <trkpt lat="49.41511" lon="0.18305">
        <ele>-7.1</ele>
        <time>2015-10-18T10:50:45Z</time>
      </trkpt>
      <trkpt lat="49.41511" lon="0.18305">
        <ele>-7.1</ele>
        <time>2015-10-18T10:50:46Z</time>
      </trkpt>
      <trkpt lat="49.41511" lon="0.18305">
        <ele>-7</ele>
        <time>2015-10-18T10:50:47Z</time>
      </trkpt>
      <trkpt lat="49.41511" lon="0.18305">
        <ele>-7</ele>
        <time>2015-10-18T10:50:48Z</time>
      </trkpt>
      <trkpt lat="49.41511" lon="0.18305">
        <ele>-7</ele>
        <time>2015-10-18T10:50:49Z</time>
      </trkpt>
      <trkpt lat="49.41511" lon="0.18305">
        <ele>-7</ele>
        <time>2015-10-18T10:50:50Z</time>
      </trkpt>
      <trkpt lat="49.41511" lon="0.18305">
        <ele>-7</ele>
        <time>2015-10-18T10:50:51Z</time>
      </trkpt>
      <trkpt lat="49.41511" lon="0.18305">
        <ele>-7.2</ele>
        <time>2015-10-18T10:50:52Z</time>
      </trkpt>
      <trkpt lat="49.41511" lon="0.18305">
        <ele>-7.6</ele>
        <time>2015-10-18T10:50:57Z</time>
      </trkpt>
      <trkpt lat="49.41511" lon="0.18305">
        <ele>-7.7</ele>
        <time>2015-10-18T10:50:58Z</time>
      </trkpt>
      <trkpt lat="49.41511" lon="0.18305">
        <ele>-7.7</ele>
        <time>2015-10-18T10:50:59Z</time>
      </trkpt>
      <trkpt lat="49.41511" lon="0.18305">
        <ele>-7.7</ele>
        <time>2015-10-18T10:51:00Z</time>
      </trkpt>
      <trkpt lat="49.41511" lon="0.18305">
        <ele>-7.5</ele>
        <time>2015-10-18T10:51:01Z</time>
      </trkpt>
      <trkpt lat="49.41511" lon="0.18305">
        <ele>-7.4</ele>
        <time>2015-10-18T10:51:02Z</time>
      </trkpt>
      <trkpt lat="49.41511" lon="0.18305">
        <ele>-7.3</ele>
        <time>2015-10-18T10:51:03Z</time>
      </trkpt>
      <trkpt lat="49.41511" lon="0.18305">
        <ele>-7</ele>
        <time>2015-10-18T10:51:04Z</time>
      </trkpt>
      <trkpt lat="49.41511" lon="0.18305">
        <ele>-6.8</ele>
        <time>2015-10-18T10:51:05Z</time>
      </trkpt>
      <trkpt lat="49.41511" lon="0.18305">
        <ele>-6.6</ele>
        <time>2015-10-18T10:51:06Z</time>
      </trkpt>
      <trkpt lat="49.41511" lon="0.18304">
        <ele>-6.9</ele>
        <time>2015-10-18T10:51:13Z</time>
      </trkpt>
      <trkpt lat="49.41511" lon="0.18304">
        <ele>-6.9</ele>
        <time>2015-10-18T10:51:17Z</time>
      </trkpt>
      <trkpt lat="49.41511" lon="0.18304">
        <ele>-6.9</ele>
        <time>2015-10-18T10:51:18Z</time>
      </trkpt>
      <trkpt lat="49.41511" lon="0.18304">
        <ele>-7.1</ele>
        <time>2015-10-18T10:51:19Z</time>
      </trkpt>
      <trkpt lat="49.41511" lon="0.18304">
        <ele>-7.3</ele>
        <time>2015-10-18T10:51:20Z</time>
      </trkpt>
      <trkpt lat="49.41511" lon="0.18304">
        <ele>-7.4</ele>
        <time>2015-10-18T10:51:21Z</time>
      </trkpt>
      <trkpt lat="49.41511" lon="0.18304">
        <ele>-7.5</ele>
        <time>2015-10-18T10:51:22Z</time>
      </trkpt>
      <trkpt lat="49.41511" lon="0.18305">
        <ele>-7.6</ele>
        <time>2015-10-18T10:51:23Z</time>
      </trkpt>
      <trkpt lat="49.41511" lon="0.18305">
        <ele>-7.6</ele>
        <time>2015-10-18T10:51:24Z</time>
      </trkpt>
      <trkpt lat="49.41511" lon="0.18305">
        <ele>-7.2</ele>
        <time>2015-10-18T10:51:25Z</time>
      </trkpt>
      <trkpt lat="49.41511" lon="0.18305">
        <ele>-7</ele>
        <time>2015-10-18T10:51:26Z</time>
      </trkpt>
      <trkpt lat="49.41511" lon="0.18305">
        <ele>-6.8</ele>
        <time>2015-10-18T10:51:27Z</time>
      </trkpt>
      <trkpt lat="49.41511" lon="0.18305">
        <ele>-7</ele>
        <time>2015-10-18T10:51:28Z</time>
      </trkpt>
      <trkpt lat="49.41511" lon="0.18305">
        <ele>-7.2</ele>
        <time>2015-10-18T10:51:29Z</time>
      </trkpt>
      <trkpt lat="49.41511" lon="0.18305">
        <ele>-7.3</ele>
        <time>2015-10-18T10:51:30Z</time>
      </trkpt>
      <trkpt lat="49.41511" lon="0.18305">
        <ele>-7.5</ele>
        <time>2015-10-18T10:51:31Z</time>
      </trkpt>
      <trkpt lat="49.41511" lon="0.18305">
        <ele>-7.5</ele>
        <time>2015-10-18T10:51:32Z</time>
      </trkpt>
      <trkpt lat="49.41511" lon="0.18305">
        <ele>-7.6</ele>
        <time>2015-10-18T10:51:33Z</time>
      </trkpt>
      <trkpt lat="49.41511" lon="0.18305">
        <ele>-7.8</ele>
        <time>2015-10-18T10:51:34Z</time>
      </trkpt>
      <trkpt lat="49.41511" lon="0.18305">
        <ele>-8</ele>
        <time>2015-10-18T10:51:35Z</time>
      </trkpt>
      <trkpt lat="49.41511" lon="0.18305">
        <ele>-8.2</ele>
        <time>2015-10-18T10:51:36Z</time>
      </trkpt>
      <trkpt lat="49.41511" lon="0.18305">
        <ele>-7.9</ele>
        <time>2015-10-18T10:51:37Z</time>
      </trkpt>
      <trkpt lat="49.41511" lon="0.18305">
        <ele>-7.6</ele>
        <time>2015-10-18T10:51:38Z</time>
      </trkpt>
      <trkpt lat="49.41511" lon="0.18305">
        <ele>-7.5</ele>
        <time>2015-10-18T10:51:39Z</time>
      </trkpt>
      <trkpt lat="49.41511" lon="0.18305">
        <ele>-7.3</ele>
        <time>2015-10-18T10:51:40Z</time>
      </trkpt>
      <trkpt lat="49.41511" lon="0.18305">
        <ele>-7.2</ele>
        <time>2015-10-18T10:51:41Z</time>
      </trkpt>
      <trkpt lat="49.41511" lon="0.18305">
        <ele>-7.2</ele>
        <time>2015-10-18T10:51:42Z</time>
      </trkpt>
      <trkpt lat="49.41511" lon="0.18305">
        <ele>-7.1</ele>
        <time>2015-10-18T10:51:43Z</time>
      </trkpt>
      <trkpt lat="49.41511" lon="0.18305">
        <ele>-7.1</ele>
        <time>2015-10-18T10:51:44Z</time>
      </trkpt>
      <trkpt lat="49.41512" lon="0.18306">
        <ele>-7.2</ele>
        <time>2015-10-18T10:52:01Z</time>
      </trkpt>
      <trkpt lat="49.41512" lon="0.18306">
        <ele>-7.4</ele>
        <time>2015-10-18T10:52:02Z</time>
      </trkpt>
      <trkpt lat="49.41512" lon="0.18306">
        <ele>-7.5</ele>
        <time>2015-10-18T10:52:03Z</time>
      </trkpt>
      <trkpt lat="49.41511" lon="0.18306">
        <ele>-7.5</ele>
        <time>2015-10-18T10:52:04Z</time>
      </trkpt>
      <trkpt lat="49.41511" lon="0.18306">
        <ele>-7.6</ele>
        <time>2015-10-18T10:52:05Z</time>
      </trkpt>
      <trkpt lat="49.41511" lon="0.18306">
        <ele>-7.6</ele>
        <time>2015-10-18T10:52:06Z</time>
      </trkpt>
      <trkpt lat="49.41512" lon="0.18306">
        <ele>-7.1</ele>
        <time>2015-10-18T10:52:07Z</time>
      </trkpt>
      <trkpt lat="49.41512" lon="0.18306">
        <ele>-6.6</ele>
        <time>2015-10-18T10:52:08Z</time>
      </trkpt>
      <trkpt lat="49.41512" lon="0.18306">
        <ele>-6.3</ele>
        <time>2015-10-18T10:52:09Z</time>
      </trkpt>
      <trkpt lat="49.41512" lon="0.18306">
        <ele>-6</ele>
        <time>2015-10-18T10:52:10Z</time>
      </trkpt>
      <trkpt lat="49.41512" lon="0.18306">
        <ele>-5.8</ele>
        <time>2015-10-18T10:52:11Z</time>
      </trkpt>
      <trkpt lat="49.41512" lon="0.18306">
        <ele>-5.7</ele>
        <time>2015-10-18T10:52:12Z</time>
      </trkpt>
      <trkpt lat="49.41512" lon="0.18306">
        <ele>-5.8</ele>
        <time>2015-10-18T10:52:13Z</time>
      </trkpt>
      <trkpt lat="49.41512" lon="0.18306">
        <ele>-5.9</ele>
        <time>2015-10-18T10:52:14Z</time>
      </trkpt>
      <trkpt lat="49.41512" lon="0.18306">
        <ele>-5.9</ele>
        <time>2015-10-18T10:52:15Z</time>
      </trkpt>
      <trkpt lat="49.41512" lon="0.18306">
        <ele>-5.8</ele>
        <time>2015-10-18T10:52:16Z</time>
      </trkpt>
      <trkpt lat="49.41512" lon="0.18306">
        <ele>-5.7</ele>
        <time>2015-10-18T10:52:17Z</time>
      </trkpt>
      <trkpt lat="49.41512" lon="0.18306">
        <ele>-5.6</ele>
        <time>2015-10-18T10:52:18Z</time>
      </trkpt>
      <trkpt lat="49.41512" lon="0.18306">
        <ele>-5.7</ele>
        <time>2015-10-18T10:52:19Z</time>
      </trkpt>
      <trkpt lat="49.41512" lon="0.18306">
        <ele>-5.8</ele>
        <time>2015-10-18T10:52:20Z</time>
      </trkpt>
      <trkpt lat="49.41512" lon="0.18306">
        <ele>-5.9</ele>
        <time>2015-10-18T10:52:21Z</time>
      </trkpt>
      <trkpt lat="49.41512" lon="0.18306">
        <ele>-6.2</ele>
        <time>2015-10-18T10:52:22Z</time>
      </trkpt>
      <trkpt lat="49.41512" lon="0.18306">
        <ele>-6.3</ele>
        <time>2015-10-18T10:52:23Z</time>
      </trkpt>
      <trkpt lat="49.41512" lon="0.18306">
        <ele>-6.5</ele>
        <time>2015-10-18T10:52:24Z</time>
      </trkpt>
      <trkpt lat="49.41512" lon="0.18306">
        <ele>-6.4</ele>
        <time>2015-10-18T10:52:25Z</time>
      </trkpt>
      <trkpt lat="49.41512" lon="0.18306">
        <ele>-6.3</ele>
        <time>2015-10-18T10:52:26Z</time>
      </trkpt>
      <trkpt lat="49.41512" lon="0.18306">
        <ele>-6.3</ele>
        <time>2015-10-18T10:52:27Z</time>
      </trkpt>
      <trkpt lat="49.41512" lon="0.18306">
        <ele>-6.4</ele>
        <time>2015-10-18T10:52:28Z</time>
      </trkpt>
      <trkpt lat="49.41512" lon="0.18306">
        <ele>-6.6</ele>
        <time>2015-10-18T10:52:29Z</time>
      </trkpt>
      <trkpt lat="49.41511" lon="0.18306">
        <ele>-6.7</ele>
        <time>2015-10-18T10:52:30Z</time>
      </trkpt>
      <trkpt lat="49.41511" lon="0.18306">
        <ele>-6.9</ele>
        <time>2015-10-18T10:52:31Z</time>
      </trkpt>
      <trkpt lat="49.41511" lon="0.18306">
        <ele>-7.2</ele>
        <time>2015-10-18T10:52:32Z</time>
      </trkpt>
      <trkpt lat="49.41511" lon="0.18306">
        <ele>-7.3</ele>
        <time>2015-10-18T10:52:33Z</time>
      </trkpt>
      <trkpt lat="49.41511" lon="0.18306">
        <ele>-7.4</ele>
        <time>2015-10-18T10:52:34Z</time>
      </trkpt>
      <trkpt lat="49.41511" lon="0.18306">
        <ele>-7.5</ele>
        <time>2015-10-18T10:52:35Z</time>
      </trkpt>
      <trkpt lat="49.41511" lon="0.18306">
        <ele>-7.6</ele>
        <time>2015-10-18T10:52:36Z</time>
      </trkpt>
      <trkpt lat="49.41511" lon="0.18306">
        <ele>-7.6</ele>
        <time>2015-10-18T10:52:37Z</time>
      </trkpt>
      <trkpt lat="49.41511" lon="0.18306">
        <ele>-7.7</ele>
        <time>2015-10-18T10:52:38Z</time>
      </trkpt>
      <trkpt lat="49.41511" lon="0.18306">
        <ele>-7.7</ele>
        <time>2015-10-18T10:52:39Z</time>
      </trkpt>
      <trkpt lat="49.41511" lon="0.18306">
        <ele>-7.5</ele>
        <time>2015-10-18T10:52:40Z</time>
      </trkpt>
      <trkpt lat="49.41511" lon="0.18306">
        <ele>-7.4</ele>
        <time>2015-10-18T10:52:41Z</time>
      </trkpt>
      <trkpt lat="49.41511" lon="0.18306">
        <ele>-7</ele>
        <time>2015-10-18T10:52:43Z</time>
      </trkpt>
      <trkpt lat="49.41511" lon="0.18307">
        <ele>-6.8</ele>
        <time>2015-10-18T10:52:44Z</time>
      </trkpt>
      <trkpt lat="49.41511" lon="0.18307">
        <ele>-6.6</ele>
        <time>2015-10-18T10:52:45Z</time>
      </trkpt>
      <trkpt lat="49.41511" lon="0.18307">
        <ele>-6.7</ele>
        <time>2015-10-18T10:52:46Z</time>
      </trkpt>
      <trkpt lat="49.41511" lon="0.18307">
        <ele>-6.8</ele>
        <time>2015-10-18T10:52:47Z</time>
      </trkpt>
      <trkpt lat="49.41511" lon="0.18307">
        <ele>-6.8</ele>
        <time>2015-10-18T10:52:48Z</time>
      </trkpt>
      <trkpt lat="49.41511" lon="0.18307">
        <ele>-6.6</ele>
        <time>2015-10-18T10:52:49Z</time>
      </trkpt>
      <trkpt lat="49.41511" lon="0.18307">
        <ele>-6.5</ele>
        <time>2015-10-18T10:52:50Z</time>
      </trkpt>
      <trkpt lat="49.41511" lon="0.18307">
        <ele>-8</ele>
        <time>2015-10-18T10:52:56Z</time>
      </trkpt>
      <trkpt lat="49.41511" lon="0.18307">
        <ele>-7.9</ele>
        <time>2015-10-18T10:52:57Z</time>
      </trkpt>
      <trkpt lat="49.41511" lon="0.18307">
        <ele>-7.3</ele>
        <time>2015-10-18T10:52:58Z</time>
      </trkpt>
      <trkpt lat="49.41511" lon="0.18307">
        <ele>-6.8</ele>
        <time>2015-10-18T10:52:59Z</time>
      </trkpt>
      <trkpt lat="49.41511" lon="0.18308">
        <ele>-6.4</ele>
        <time>2015-10-18T10:53:00Z</time>
      </trkpt>
      <trkpt lat="49.41511" lon="0.18308">
        <ele>-6.3</ele>
        <time>2015-10-18T10:53:01Z</time>
      </trkpt>
      <trkpt lat="49.41511" lon="0.18308">
        <ele>-6.3</ele>
        <time>2015-10-18T10:53:02Z</time>
      </trkpt>
      <trkpt lat="49.41512" lon="0.18308">
        <ele>-6.2</ele>
        <time>2015-10-18T10:53:03Z</time>
      </trkpt>
      <trkpt lat="49.41512" lon="0.18308">
        <ele>-6.2</ele>
        <time>2015-10-18T10:53:04Z</time>
      </trkpt>
      <trkpt lat="49.41512" lon="0.18308">
        <ele>-6.2</ele>
        <time>2015-10-18T10:53:05Z</time>
      </trkpt>
      <trkpt lat="49.41512" lon="0.18308">
        <ele>-6.2</ele>
        <time>2015-10-18T10:53:06Z</time>
      </trkpt>
      <trkpt lat="49.41512" lon="0.18308">
        <ele>-6.2</ele>
        <time>2015-10-18T10:53:07Z</time>
      </trkpt>
      <trkpt lat="49.41512" lon="0.18308">
        <ele>-6.1</ele>
        <time>2015-10-18T10:53:08Z</time>
      </trkpt>
      <trkpt lat="49.41512" lon="0.18308">
        <ele>-6.1</ele>
        <time>2015-10-18T10:53:09Z</time>
      </trkpt>
      <trkpt lat="49.41512" lon="0.18308">
        <ele>-7.2</ele>
        <time>2015-10-18T10:53:10Z</time>
      </trkpt>
      <trkpt lat="49.41512" lon="0.18308">
        <ele>-7.9</ele>
        <time>2015-10-18T10:53:11Z</time>
      </trkpt>
      <trkpt lat="49.41512" lon="0.18308">
        <ele>-8.5</ele>
        <time>2015-10-18T10:53:12Z</time>
      </trkpt>
      <trkpt lat="49.41512" lon="0.18308">
        <ele>-7.7</ele>
        <time>2015-10-18T10:53:13Z</time>
      </trkpt>
      <trkpt lat="49.41512" lon="0.18309">
        <ele>-7.1</ele>
        <time>2015-10-18T10:53:14Z</time>
      </trkpt>
      <trkpt lat="49.41512" lon="0.18309">
        <ele>-6.7</ele>
        <time>2015-10-18T10:53:15Z</time>
      </trkpt>
      <trkpt lat="49.41512" lon="0.18309">
        <ele>-6.5</ele>
        <time>2015-10-18T10:53:16Z</time>
      </trkpt>
      <trkpt lat="49.41512" lon="0.18309">
        <ele>-6.4</ele>
        <time>2015-10-18T10:53:17Z</time>
      </trkpt>
      <trkpt lat="49.41512" lon="0.18309">
        <ele>-6.3</ele>
        <time>2015-10-18T10:53:18Z</time>
      </trkpt>
      <trkpt lat="49.41512" lon="0.18309">
        <ele>-6.9</ele>
        <time>2015-10-18T10:53:19Z</time>
      </trkpt>
      <trkpt lat="49.41512" lon="0.18309">
        <ele>-7.3</ele>
        <time>2015-10-18T10:53:20Z</time>
      </trkpt>
      <trkpt lat="49.41512" lon="0.18309">
        <ele>-7.6</ele>
        <time>2015-10-18T10:53:21Z</time>
      </trkpt>
      <trkpt lat="49.41512" lon="0.18309">
        <ele>-7.1</ele>
        <time>2015-10-18T10:53:22Z</time>
      </trkpt>
      <trkpt lat="49.41512" lon="0.18309">
        <ele>-6.6</ele>
        <time>2015-10-18T10:53:23Z</time>
      </trkpt>
      <trkpt lat="49.41512" lon="0.18309">
        <ele>-6.3</ele>
        <time>2015-10-18T10:53:24Z</time>
      </trkpt>
      <trkpt lat="49.41512" lon="0.18309">
        <ele>-6</ele>
        <time>2015-10-18T10:53:25Z</time>
      </trkpt>
      <trkpt lat="49.41512" lon="0.18309">
        <ele>-5.8</ele>
        <time>2015-10-18T10:53:26Z</time>
      </trkpt>
      <trkpt lat="49.41512" lon="0.18309">
        <ele>-5.7</ele>
        <time>2015-10-18T10:53:27Z</time>
      </trkpt>
      <trkpt lat="49.41512" lon="0.18309">
        <ele>-5.9</ele>
        <time>2015-10-18T10:53:29Z</time>
      </trkpt>
      <trkpt lat="49.41512" lon="0.18309">
        <ele>-5.9</ele>
        <time>2015-10-18T10:53:30Z</time>
      </trkpt>
      <trkpt lat="49.41512" lon="0.18309">
        <ele>-5.8</ele>
        <time>2015-10-18T10:53:31Z</time>
      </trkpt>
      <trkpt lat="49.41512" lon="0.18309">
        <ele>-5.7</ele>
        <time>2015-10-18T10:53:32Z</time>
      </trkpt>
      <trkpt lat="49.41512" lon="0.18309">
        <ele>-5.7</ele>
        <time>2015-10-18T10:53:34Z</time>
      </trkpt>
      <trkpt lat="49.41512" lon="0.18309">
        <ele>-5.8</ele>
        <time>2015-10-18T10:53:35Z</time>
      </trkpt>
      <trkpt lat="49.41511" lon="0.18307">
        <ele>-7.5</ele>
        <time>2015-10-18T10:54:08Z</time>
      </trkpt>
      <trkpt lat="49.41511" lon="0.18308">
        <ele>-7.6</ele>
        <time>2015-10-18T10:54:09Z</time>
      </trkpt>
      <trkpt lat="49.41511" lon="0.18308">
        <ele>-7.4</ele>
        <time>2015-10-18T10:54:10Z</time>
      </trkpt>
      <trkpt lat="49.41508" lon="0.18312">
        <ele>-7.5</ele>
        <time>2015-10-18T10:54:15Z</time>
      </trkpt>
      <trkpt lat="49.41506" lon="0.18314">
        <ele>-7.2</ele>
        <time>2015-10-18T10:54:18Z</time>
      </trkpt>
      <trkpt lat="49.415" lon="0.18319">
        <ele>-6</ele>
        <time>2015-10-18T10:54:27Z</time>
      </trkpt>
      <trkpt lat="49.415" lon="0.18319">
        <ele>-8.7</ele>
        <time>2015-10-18T10:54:28Z</time>
      </trkpt>
      <trkpt lat="49.41499" lon="0.18319">
        <ele>-10.8</ele>
        <time>2015-10-18T10:54:29Z</time>
      </trkpt>
      <trkpt lat="49.41499" lon="0.1832">
        <ele>-12.3</ele>
        <time>2015-10-18T10:54:30Z</time>
      </trkpt>
      <trkpt lat="49.41498" lon="0.18321">
        <ele>-11</ele>
        <time>2015-10-18T10:54:34Z</time>
      </trkpt>
      <trkpt lat="49.41498" lon="0.18321">
        <ele>-9.2</ele>
        <time>2015-10-18T10:54:35Z</time>
      </trkpt>
      <trkpt lat="49.41498" lon="0.18321">
        <ele>-7.8</ele>
        <time>2015-10-18T10:54:36Z</time>
      </trkpt>
      <trkpt lat="49.41498" lon="0.18321">
        <ele>-5.7</ele>
        <time>2015-10-18T10:54:37Z</time>
      </trkpt>
      <trkpt lat="49.41498" lon="0.18321">
        <ele>-4.2</ele>
        <time>2015-10-18T10:54:38Z</time>
      </trkpt>
      <trkpt lat="49.41497" lon="0.18321">
        <ele>-3</ele>
        <time>2015-10-18T10:54:39Z</time>
      </trkpt>
      <trkpt lat="49.41497" lon="0.18321">
        <ele>-5.6</ele>
        <time>2015-10-18T10:54:40Z</time>
      </trkpt>
      <trkpt lat="49.41497" lon="0.18321">
        <ele>-7.6</ele>
        <time>2015-10-18T10:54:41Z</time>
      </trkpt>
      <trkpt lat="49.41497" lon="0.18321">
        <ele>-9.1</ele>
        <time>2015-10-18T10:54:42Z</time>
      </trkpt>
      <trkpt lat="49.41497" lon="0.18321">
        <ele>-9</ele>
        <time>2015-10-18T10:54:43Z</time>
      </trkpt>
      <trkpt lat="49.41497" lon="0.18321">
        <ele>-8.9</ele>
        <time>2015-10-18T10:54:44Z</time>
      </trkpt>
      <trkpt lat="49.41497" lon="0.18321">
        <ele>-8.8</ele>
        <time>2015-10-18T10:54:45Z</time>
      </trkpt>
      <trkpt lat="49.41497" lon="0.18321">
        <ele>-7.3</ele>
        <time>2015-10-18T10:54:46Z</time>
      </trkpt>
      <trkpt lat="49.41497" lon="0.1832">
        <ele>-6.2</ele>
        <time>2015-10-18T10:54:47Z</time>
      </trkpt>
      <trkpt lat="49.41497" lon="0.1832">
        <ele>-5.3</ele>
        <time>2015-10-18T10:54:48Z</time>
      </trkpt>
      <trkpt lat="49.41497" lon="0.18319">
        <ele>-2.8</ele>
        <time>2015-10-18T10:54:49Z</time>
      </trkpt>
      <trkpt lat="49.41497" lon="0.18319">
        <ele>-1</ele>
        <time>2015-10-18T10:54:50Z</time>
      </trkpt>
      <trkpt lat="49.41497" lon="0.18319">
        <ele>0.3</ele>
        <time>2015-10-18T10:54:51Z</time>
      </trkpt>
      <trkpt lat="49.41496" lon="0.18318">
        <ele>-0.6</ele>
        <time>2015-10-18T10:54:52Z</time>
      </trkpt>
      <trkpt lat="49.41495" lon="0.18319">
        <ele>-1.3</ele>
        <time>2015-10-18T10:54:53Z</time>
      </trkpt>
      <trkpt lat="49.41493" lon="0.18321">
        <ele>-2.6</ele>
        <time>2015-10-18T10:54:55Z</time>
      </trkpt>
      <trkpt lat="49.41488" lon="0.18328">
        <ele>-5.5</ele>
        <time>2015-10-18T10:55:01Z</time>
      </trkpt>
      <trkpt lat="49.41475" lon="0.18352">
        <ele>-6.8</ele>
        <time>2015-10-18T10:55:20Z</time>
      </trkpt>
      <trkpt lat="49.41464" lon="0.18369">
        <ele>-6.3</ele>
        <time>2015-10-18T10:55:34Z</time>
      </trkpt>
      <trkpt lat="49.41463" lon="0.1837">
        <ele>-6.3</ele>
        <time>2015-10-18T10:55:35Z</time>
      </trkpt>
      <trkpt lat="49.41462" lon="0.18371">
        <ele>-6.2</ele>
        <time>2015-10-18T10:55:36Z</time>
      </trkpt>
      <trkpt lat="49.41454" lon="0.18377">
        <ele>-4.4</ele>
        <time>2015-10-18T10:55:44Z</time>
      </trkpt>
      <trkpt lat="49.41448" lon="0.1838">
        <ele>-4.2</ele>
        <time>2015-10-18T10:55:49Z</time>
      </trkpt>
      <trkpt lat="49.41443" lon="0.1838">
        <ele>-4.2</ele>
        <time>2015-10-18T10:55:54Z</time>
      </trkpt>
      <trkpt lat="49.41437" lon="0.1838">
        <ele>-4.4</ele>
        <time>2015-10-18T10:55:59Z</time>
      </trkpt>
      <trkpt lat="49.41424" lon="0.18377">
        <ele>-3.5</ele>
        <time>2015-10-18T10:56:12Z</time>
      </trkpt>
      <trkpt lat="49.41423" lon="0.18377">
        <ele>-3.8</ele>
        <time>2015-10-18T10:56:13Z</time>
      </trkpt>
      <trkpt lat="49.4142" lon="0.18379">
        <ele>-3.9</ele>
        <time>2015-10-18T10:56:17Z</time>
      </trkpt>
      <trkpt lat="49.41418" lon="0.18382">
        <ele>-3</ele>
        <time>2015-10-18T10:56:20Z</time>
      </trkpt>
      <trkpt lat="49.41407" lon="0.18394">
        <ele>-2</ele>
        <time>2015-10-18T10:56:34Z</time>
      </trkpt>
      <trkpt lat="49.41399" lon="0.18398">
        <ele>-1.5</ele>
        <time>2015-10-18T10:56:42Z</time>
      </trkpt>
      <trkpt lat="49.41398" lon="0.18399">
        <ele>-1.2</ele>
        <time>2015-10-18T10:56:43Z</time>
      </trkpt>
      <trkpt lat="49.41366" lon="0.18437">
        <ele>0.3</ele>
        <time>2015-10-18T10:57:20Z</time>
      </trkpt>
      <trkpt lat="49.41365" lon="0.18439">
        <ele>0.3</ele>
        <time>2015-10-18T10:57:21Z</time>
      </trkpt>
      <trkpt lat="49.41363" lon="0.18449">
        <ele>1.1</ele>
        <time>2015-10-18T10:57:26Z</time>
      </trkpt>
      <trkpt lat="49.41362" lon="0.18466">
        <ele>2.8</ele>
        <time>2015-10-18T10:57:35Z</time>
      </trkpt>
      <trkpt lat="49.4136" lon="0.18476">
        <ele>3.6</ele>
        <time>2015-10-18T10:57:41Z</time>
      </trkpt>
      <trkpt lat="49.41359" lon="0.18479">
        <ele>3.6</ele>
        <time>2015-10-18T10:57:43Z</time>
      </trkpt>
      <trkpt lat="49.41358" lon="0.1848">
        <ele>3.7</ele>
        <time>2015-10-18T10:57:44Z</time>
      </trkpt>
      <trkpt lat="49.4134" lon="0.18513">
        <ele>5</ele>
        <time>2015-10-18T10:58:12Z</time>
      </trkpt>
      <trkpt lat="49.41331" lon="0.18525">
        <ele>5.3</ele>
        <time>2015-10-18T10:58:23Z</time>
      </trkpt>
      <trkpt lat="49.41315" lon="0.18551">
        <ele>7.3</ele>
        <time>2015-10-18T10:58:43Z</time>
      </trkpt>
      <trkpt lat="49.41315" lon="0.18551">
        <ele>7.6</ele>
        <time>2015-10-18T10:58:44Z</time>
      </trkpt>
      <trkpt lat="49.41314" lon="0.18551">
        <ele>7.9</ele>
        <time>2015-10-18T10:58:45Z</time>
      </trkpt>
      <trkpt lat="49.41314" lon="0.18552">
        <ele>7.9</ele>
        <time>2015-10-18T10:58:46Z</time>
      </trkpt>
      <trkpt lat="49.41314" lon="0.18553">
        <ele>7.9</ele>
        <time>2015-10-18T10:58:47Z</time>
      </trkpt>
      <trkpt lat="49.41313" lon="0.18553">
        <ele>7.9</ele>
        <time>2015-10-18T10:58:48Z</time>
      </trkpt>
      <trkpt lat="49.41313" lon="0.18554">
        <ele>8.1</ele>
        <time>2015-10-18T10:58:49Z</time>
      </trkpt>
      <trkpt lat="49.41312" lon="0.18554">
        <ele>8.2</ele>
        <time>2015-10-18T10:58:50Z</time>
      </trkpt>
      <trkpt lat="49.41312" lon="0.18555">
        <ele>8.4</ele>
        <time>2015-10-18T10:58:51Z</time>
      </trkpt>
      <trkpt lat="49.41311" lon="0.18556">
        <ele>8</ele>
        <time>2015-10-18T10:58:52Z</time>
      </trkpt>
      <trkpt lat="49.41311" lon="0.18557">
        <ele>7.8</ele>
        <time>2015-10-18T10:58:53Z</time>
      </trkpt>
      <trkpt lat="49.41309" lon="0.1856">
        <ele>7.4</ele>
        <time>2015-10-18T10:58:56Z</time>
      </trkpt>
      <trkpt lat="49.41308" lon="0.18561">
        <ele>7.3</ele>
        <time>2015-10-18T10:58:57Z</time>
      </trkpt>
      <trkpt lat="49.41307" lon="0.18562">
        <ele>7.4</ele>
        <time>2015-10-18T10:58:58Z</time>
      </trkpt>
      <trkpt lat="49.41306" lon="0.18564">
        <ele>7.5</ele>
        <time>2015-10-18T10:58:59Z</time>
      </trkpt>
      <trkpt lat="49.41305" lon="0.18565">
        <ele>7.6</ele>
        <time>2015-10-18T10:59:00Z</time>
      </trkpt>
      <trkpt lat="49.41304" lon="0.18566">
        <ele>7.9</ele>
        <time>2015-10-18T10:59:01Z</time>
      </trkpt>
      <trkpt lat="49.41304" lon="0.18568">
        <ele>8.1</ele>
        <time>2015-10-18T10:59:02Z</time>
      </trkpt>
      <trkpt lat="49.41303" lon="0.18569">
        <ele>8.2</ele>
        <time>2015-10-18T10:59:03Z</time>
      </trkpt>
      <trkpt lat="49.41299" lon="0.18577">
        <ele>9.8</ele>
        <time>2015-10-18T10:59:10Z</time>
      </trkpt>
      <trkpt lat="49.41299" lon="0.18578">
        <ele>10.1</ele>
        <time>2015-10-18T10:59:11Z</time>
      </trkpt>
      <trkpt lat="49.41299" lon="0.18579">
        <ele>10.4</ele>
        <time>2015-10-18T10:59:12Z</time>
      </trkpt>
      <trkpt lat="49.41299" lon="0.18581">
        <ele>9.8</ele>
        <time>2015-10-18T10:59:13Z</time>
      </trkpt>
      <trkpt lat="49.41299" lon="0.18583">
        <ele>9.3</ele>
        <time>2015-10-18T10:59:14Z</time>
      </trkpt>
      <trkpt lat="49.41299" lon="0.18585">
        <ele>8.9</ele>
        <time>2015-10-18T10:59:15Z</time>
      </trkpt>
      <trkpt lat="49.41298" lon="0.18587">
        <ele>8.9</ele>
        <time>2015-10-18T10:59:16Z</time>
      </trkpt>
      <trkpt lat="49.41298" lon="0.18589">
        <ele>8.8</ele>
        <time>2015-10-18T10:59:17Z</time>
      </trkpt>
      <trkpt lat="49.41298" lon="0.1859">
        <ele>8.8</ele>
        <time>2015-10-18T10:59:18Z</time>
      </trkpt>
      <trkpt lat="49.41298" lon="0.18592">
        <ele>9</ele>
        <time>2015-10-18T10:59:19Z</time>
      </trkpt>
      <trkpt lat="49.41298" lon="0.18593">
        <ele>9.1</ele>
        <time>2015-10-18T10:59:20Z</time>
      </trkpt>
      <trkpt lat="49.41298" lon="0.18593">
        <ele>9.2</ele>
        <time>2015-10-18T10:59:21Z</time>
      </trkpt>
      <trkpt lat="49.41297" lon="0.18594">
        <ele>9.3</ele>
        <time>2015-10-18T10:59:22Z</time>
      </trkpt>
      <trkpt lat="49.41297" lon="0.18594">
        <ele>9.4</ele>
        <time>2015-10-18T10:59:23Z</time>
      </trkpt>
      <trkpt lat="49.41297" lon="0.18595">
        <ele>9.4</ele>
        <time>2015-10-18T10:59:24Z</time>
      </trkpt>
      <trkpt lat="49.41297" lon="0.18595">
        <ele>9.2</ele>
        <time>2015-10-18T10:59:25Z</time>
      </trkpt>
      <trkpt lat="49.41296" lon="0.18596">
        <ele>9.1</ele>
        <time>2015-10-18T10:59:26Z</time>
      </trkpt>
      <trkpt lat="49.41296" lon="0.18598">
        <ele>9</ele>
        <time>2015-10-18T10:59:27Z</time>
      </trkpt>
      <trkpt lat="49.41297" lon="0.186">
        <ele>8.7</ele>
        <time>2015-10-18T10:59:28Z</time>
      </trkpt>
      <trkpt lat="49.41298" lon="0.18604">
        <ele>8.4</ele>
        <time>2015-10-18T10:59:31Z</time>
      </trkpt>
      <trkpt lat="49.413" lon="0.18606">
        <ele>8.5</ele>
        <time>2015-10-18T10:59:33Z</time>
      </trkpt>
      <trkpt lat="49.41301" lon="0.18608">
        <ele>8.6</ele>
        <time>2015-10-18T10:59:34Z</time>
      </trkpt>
      <trkpt lat="49.41302" lon="0.18609">
        <ele>8.6</ele>
        <time>2015-10-18T10:59:35Z</time>
      </trkpt>
      <trkpt lat="49.41303" lon="0.18609">
        <ele>8.6</ele>
        <time>2015-10-18T10:59:36Z</time>
      </trkpt>
      <trkpt lat="49.41304" lon="0.1861">
        <ele>8.7</ele>
        <time>2015-10-18T10:59:37Z</time>
      </trkpt>
      <trkpt lat="49.41305" lon="0.18611">
        <ele>8.7</ele>
        <time>2015-10-18T10:59:38Z</time>
      </trkpt>
      <trkpt lat="49.41307" lon="0.18614">
        <ele>9</ele>
        <time>2015-10-18T10:59:41Z</time>
      </trkpt>
      <trkpt lat="49.41308" lon="0.18615">
        <ele>9.2</ele>
        <time>2015-10-18T10:59:42Z</time>
      </trkpt>
      <trkpt lat="49.41314" lon="0.18626">
        <ele>10.5</ele>
        <time>2015-10-18T10:59:53Z</time>
      </trkpt>
      <trkpt lat="49.41314" lon="0.18626">
        <ele>10.5</ele>
        <time>2015-10-18T10:59:54Z</time>
      </trkpt>
      <trkpt lat="49.41314" lon="0.18626">
        <ele>10.5</ele>
        <time>2015-10-18T10:59:55Z</time>
      </trkpt>
      <trkpt lat="49.41314" lon="0.18626">
        <ele>10.4</ele>
        <time>2015-10-18T10:59:56Z</time>
      </trkpt>
      <trkpt lat="49.41314" lon="0.18626">
        <ele>10.4</ele>
        <time>2015-10-18T10:59:57Z</time>
      </trkpt>
      <trkpt lat="49.41314" lon="0.18626">
        <ele>10.2</ele>
        <time>2015-10-18T10:59:58Z</time>
      </trkpt>
      <trkpt lat="49.41314" lon="0.18627">
        <ele>10</ele>
        <time>2015-10-18T10:59:59Z</time>
      </trkpt>
      <trkpt lat="49.41314" lon="0.18627">
        <ele>9.9</ele>
        <time>2015-10-18T11:00:00Z</time>
      </trkpt>
      <trkpt lat="49.41314" lon="0.18627">
        <ele>9.8</ele>
        <time>2015-10-18T11:00:01Z</time>
      </trkpt>
      <trkpt lat="49.41314" lon="0.18627">
        <ele>9.7</ele>
        <time>2015-10-18T11:00:02Z</time>
      </trkpt>
      <trkpt lat="49.41314" lon="0.18628">
        <ele>9.7</ele>
        <time>2015-10-18T11:00:03Z</time>
      </trkpt>
      <trkpt lat="49.41315" lon="0.18632">
        <ele>10</ele>
        <time>2015-10-18T11:00:05Z</time>
      </trkpt>
      <trkpt lat="49.41315" lon="0.18634">
        <ele>10.1</ele>
        <time>2015-10-18T11:00:06Z</time>
      </trkpt>
      <trkpt lat="49.41317" lon="0.18637">
        <ele>9.8</ele>
        <time>2015-10-18T11:00:08Z</time>
      </trkpt>
      <trkpt lat="49.41317" lon="0.18639">
        <ele>9.8</ele>
        <time>2015-10-18T11:00:09Z</time>
      </trkpt>
      <trkpt lat="49.41338" lon="0.18677">
        <ele>11.1</ele>
        <time>2015-10-18T11:00:37Z</time>
      </trkpt>
      <trkpt lat="49.41338" lon="0.18677">
        <ele>10.9</ele>
        <time>2015-10-18T11:00:38Z</time>
      </trkpt>
      <trkpt lat="49.41339" lon="0.18678">
        <ele>10.8</ele>
        <time>2015-10-18T11:00:39Z</time>
      </trkpt>
      <trkpt lat="49.41339" lon="0.18678">
        <ele>10.7</ele>
        <time>2015-10-18T11:00:40Z</time>
      </trkpt>
      <trkpt lat="49.41339" lon="0.18679">
        <ele>10.6</ele>
        <time>2015-10-18T11:00:41Z</time>
      </trkpt>
      <trkpt lat="49.4135" lon="0.18706">
        <ele>10.3</ele>
        <time>2015-10-18T11:00:57Z</time>
      </trkpt>
      <trkpt lat="49.41351" lon="0.18706">
        <ele>9.7</ele>
        <time>2015-10-18T11:00:58Z</time>
      </trkpt>
      <trkpt lat="49.41353" lon="0.18704">
        <ele>8.9</ele>
        <time>2015-10-18T11:01:00Z</time>
      </trkpt>
      <trkpt lat="49.41355" lon="0.18701">
        <ele>8.9</ele>
        <time>2015-10-18T11:01:01Z</time>
      </trkpt>
      <trkpt lat="49.41356" lon="0.18699">
        <ele>8.8</ele>
        <time>2015-10-18T11:01:02Z</time>
      </trkpt>
      <trkpt lat="49.41357" lon="0.18698">
        <ele>8.8</ele>
        <time>2015-10-18T11:01:03Z</time>
      </trkpt>
      <trkpt lat="49.41358" lon="0.18696">
        <ele>8.8</ele>
        <time>2015-10-18T11:01:04Z</time>
      </trkpt>
      <trkpt lat="49.41358" lon="0.18695">
        <ele>8.7</ele>
        <time>2015-10-18T11:01:05Z</time>
      </trkpt>
      <trkpt lat="49.41358" lon="0.18692">
        <ele>9.6</ele>
        <time>2015-10-18T11:01:13Z</time>
      </trkpt>
      <trkpt lat="49.41358" lon="0.18693">
        <ele>9.6</ele>
        <time>2015-10-18T11:01:14Z</time>
      </trkpt>
      <trkpt lat="49.41358" lon="0.18696">
        <ele>9.5</ele>
        <time>2015-10-18T11:01:17Z</time>
      </trkpt>
      <trkpt lat="49.41354" lon="0.18701">
        <ele>9.4</ele>
        <time>2015-10-18T11:01:22Z</time>
      </trkpt>
      <trkpt lat="49.41353" lon="0.18703">
        <ele>9.6</ele>
        <time>2015-10-18T11:01:23Z</time>
      </trkpt>
      <trkpt lat="49.41352" lon="0.18704">
        <ele>9.8</ele>
        <time>2015-10-18T11:01:24Z</time>
      </trkpt>
      <trkpt lat="49.41337" lon="0.18724">
        <ele>11.2</ele>
        <time>2015-10-18T11:01:41Z</time>
      </trkpt>
      <trkpt lat="49.41306" lon="0.1876">
        <ele>14.2</ele>
        <time>2015-10-18T11:02:13Z</time>
      </trkpt>
      <trkpt lat="49.41305" lon="0.18761">
        <ele>14</ele>
        <time>2015-10-18T11:02:14Z</time>
      </trkpt>
      <trkpt lat="49.413" lon="0.18766">
        <ele>13.8</ele>
        <time>2015-10-18T11:02:18Z</time>
      </trkpt>
      <trkpt lat="49.41271" lon="0.188">
        <ele>16.9</ele>
        <time>2015-10-18T11:02:49Z</time>
      </trkpt>
      <trkpt lat="49.41249" lon="0.18819">
        <ele>20.1</ele>
        <time>2015-10-18T11:03:09Z</time>
      </trkpt>
      <trkpt lat="49.41241" lon="0.18827">
        <ele>21.2</ele>
        <time>2015-10-18T11:03:17Z</time>
      </trkpt>
      <trkpt lat="49.41241" lon="0.18827">
        <ele>21.2</ele>
        <time>2015-10-18T11:03:18Z</time>
      </trkpt>
      <trkpt lat="49.41212" lon="0.18857">
        <ele>26</ele>
        <time>2015-10-18T11:03:55Z</time>
      </trkpt>
      <trkpt lat="49.41205" lon="0.18864">
        <ele>27.1</ele>
        <time>2015-10-18T11:04:03Z</time>
      </trkpt>
      <trkpt lat="49.41191" lon="0.18884">
        <ele>29.5</ele>
        <time>2015-10-18T11:04:20Z</time>
      </trkpt>
      <trkpt lat="49.41191" lon="0.18885">
        <ele>29.7</ele>
        <time>2015-10-18T11:04:21Z</time>
      </trkpt>
      <trkpt lat="49.41175" lon="0.18911">
        <ele>31.9</ele>
        <time>2015-10-18T11:04:46Z</time>
      </trkpt>
      <trkpt lat="49.41174" lon="0.18912">
        <ele>31.9</ele>
        <time>2015-10-18T11:04:47Z</time>
      </trkpt>
      <trkpt lat="49.41173" lon="0.18913">
        <ele>31.9</ele>
        <time>2015-10-18T11:04:48Z</time>
      </trkpt>
      <trkpt lat="49.41173" lon="0.18914">
        <ele>31.5</ele>
        <time>2015-10-18T11:04:49Z</time>
      </trkpt>
      <trkpt lat="49.41172" lon="0.18915">
        <ele>31.2</ele>
        <time>2015-10-18T11:04:50Z</time>
      </trkpt>
      <trkpt lat="49.41171" lon="0.18919">
        <ele>31.4</ele>
        <time>2015-10-18T11:04:53Z</time>
      </trkpt>
      <trkpt lat="49.41171" lon="0.18921">
        <ele>31.5</ele>
        <time>2015-10-18T11:04:54Z</time>
      </trkpt>
      <trkpt lat="49.41171" lon="0.18923">
        <ele>32.1</ele>
        <time>2015-10-18T11:04:55Z</time>
      </trkpt>
      <trkpt lat="49.41172" lon="0.18927">
        <ele>32.7</ele>
        <time>2015-10-18T11:04:57Z</time>
      </trkpt>
      <trkpt lat="49.41173" lon="0.18931">
        <ele>32.4</ele>
        <time>2015-10-18T11:04:59Z</time>
      </trkpt>
      <trkpt lat="49.41173" lon="0.18933">
        <ele>32.3</ele>
        <time>2015-10-18T11:05:00Z</time>
      </trkpt>
      <trkpt lat="49.41174" lon="0.18935">
        <ele>32.6</ele>
        <time>2015-10-18T11:05:01Z</time>
      </trkpt>
      <trkpt lat="49.41174" lon="0.18937">
        <ele>32.9</ele>
        <time>2015-10-18T11:05:02Z</time>
      </trkpt>
      <trkpt lat="49.41175" lon="0.18939">
        <ele>33</ele>
        <time>2015-10-18T11:05:03Z</time>
      </trkpt>
      <trkpt lat="49.41176" lon="0.18941">
        <ele>33</ele>
        <time>2015-10-18T11:05:04Z</time>
      </trkpt>
      <trkpt lat="49.41176" lon="0.18942">
        <ele>32.9</ele>
        <time>2015-10-18T11:05:05Z</time>
      </trkpt>
      <trkpt lat="49.41177" lon="0.18944">
        <ele>32.9</ele>
        <time>2015-10-18T11:05:06Z</time>
      </trkpt>
      <trkpt lat="49.41178" lon="0.18946">
        <ele>33.1</ele>
        <time>2015-10-18T11:05:07Z</time>
      </trkpt>
      <trkpt lat="49.41179" lon="0.18947">
        <ele>33.2</ele>
        <time>2015-10-18T11:05:08Z</time>
      </trkpt>
      <trkpt lat="49.4118" lon="0.18949">
        <ele>33.3</ele>
        <time>2015-10-18T11:05:09Z</time>
      </trkpt>
      <trkpt lat="49.41181" lon="0.1895">
        <ele>33.4</ele>
        <time>2015-10-18T11:05:10Z</time>
      </trkpt>
      <trkpt lat="49.41181" lon="0.18952">
        <ele>33.4</ele>
        <time>2015-10-18T11:05:11Z</time>
      </trkpt>
      <trkpt lat="49.41182" lon="0.18953">
        <ele>33.5</ele>
        <time>2015-10-18T11:05:12Z</time>
      </trkpt>
      <trkpt lat="49.41183" lon="0.18955">
        <ele>33.5</ele>
        <time>2015-10-18T11:05:13Z</time>
      </trkpt>
      <trkpt lat="49.41185" lon="0.18958">
        <ele>33.6</ele>
        <time>2015-10-18T11:05:15Z</time>
      </trkpt>
      <trkpt lat="49.41185" lon="0.18959">
        <ele>33.8</ele>
        <time>2015-10-18T11:05:16Z</time>
      </trkpt>
      <trkpt lat="49.41194" lon="0.18982">
        <ele>36.7</ele>
        <time>2015-10-18T11:05:34Z</time>
      </trkpt>
      <trkpt lat="49.41194" lon="0.18983">
        <ele>36.8</ele>
        <time>2015-10-18T11:05:35Z</time>
      </trkpt>
      <trkpt lat="49.41194" lon="0.18983">
        <ele>36.8</ele>
        <time>2015-10-18T11:05:36Z</time>
      </trkpt>
      <trkpt lat="49.41194" lon="0.18983">
        <ele>37.5</ele>
        <time>2015-10-18T11:05:37Z</time>
      </trkpt>
      <trkpt lat="49.41194" lon="0.18983">
        <ele>38</ele>
        <time>2015-10-18T11:05:38Z</time>
      </trkpt>
      <trkpt lat="49.41194" lon="0.18983">
        <ele>38.3</ele>
        <time>2015-10-18T11:05:39Z</time>
      </trkpt>
      <trkpt lat="49.41194" lon="0.18983">
        <ele>38.2</ele>
        <time>2015-10-18T11:05:40Z</time>
      </trkpt>
      <trkpt lat="49.41194" lon="0.18984">
        <ele>38.1</ele>
        <time>2015-10-18T11:05:41Z</time>
      </trkpt>
      <trkpt lat="49.41194" lon="0.18984">
        <ele>38</ele>
        <time>2015-10-18T11:05:42Z</time>
      </trkpt>
      <trkpt lat="49.41194" lon="0.18984">
        <ele>37.9</ele>
        <time>2015-10-18T11:05:43Z</time>
      </trkpt>
      <trkpt lat="49.41194" lon="0.18983">
        <ele>37.9</ele>
        <time>2015-10-18T11:05:44Z</time>
      </trkpt>
      <trkpt lat="49.41194" lon="0.18983">
        <ele>37.5</ele>
        <time>2015-10-18T11:05:45Z</time>
      </trkpt>
      <trkpt lat="49.41193" lon="0.18983">
        <ele>37.1</ele>
        <time>2015-10-18T11:05:48Z</time>
      </trkpt>
      <trkpt lat="49.41188" lon="0.18983">
        <ele>37.9</ele>
        <time>2015-10-18T11:05:55Z</time>
      </trkpt>
      <trkpt lat="49.41187" lon="0.18984">
        <ele>37.9</ele>
        <time>2015-10-18T11:05:57Z</time>
      </trkpt>
      <trkpt lat="49.41184" lon="0.18988">
        <ele>37.8</ele>
        <time>2015-10-18T11:06:02Z</time>
      </trkpt>
      <trkpt lat="49.41183" lon="0.18991">
        <ele>38.5</ele>
        <time>2015-10-18T11:06:04Z</time>
      </trkpt>
      <trkpt lat="49.41183" lon="0.18992">
        <ele>38.7</ele>
        <time>2015-10-18T11:06:05Z</time>
      </trkpt>
      <trkpt lat="49.41183" lon="0.18993">
        <ele>39.5</ele>
        <time>2015-10-18T11:06:06Z</time>
      </trkpt>
      <trkpt lat="49.41184" lon="0.18994">
        <ele>40.1</ele>
        <time>2015-10-18T11:06:07Z</time>
      </trkpt>
      <trkpt lat="49.41184" lon="0.18995">
        <ele>40.6</ele>
        <time>2015-10-18T11:06:08Z</time>
      </trkpt>
      <trkpt lat="49.41184" lon="0.18995">
        <ele>40.7</ele>
        <time>2015-10-18T11:06:09Z</time>
      </trkpt>
      <trkpt lat="49.41184" lon="0.18996">
        <ele>40.8</ele>
        <time>2015-10-18T11:06:10Z</time>
      </trkpt>
      <trkpt lat="49.41185" lon="0.18997">
        <ele>40.9</ele>
        <time>2015-10-18T11:06:11Z</time>
      </trkpt>
      <trkpt lat="49.41185" lon="0.18998">
        <ele>41.1</ele>
        <time>2015-10-18T11:06:12Z</time>
      </trkpt>
      <trkpt lat="49.41185" lon="0.18998">
        <ele>41.3</ele>
        <time>2015-10-18T11:06:13Z</time>
      </trkpt>
      <trkpt lat="49.41185" lon="0.18999">
        <ele>41.5</ele>
        <time>2015-10-18T11:06:14Z</time>
      </trkpt>
      <trkpt lat="49.41185" lon="0.19">
        <ele>41.6</ele>
        <time>2015-10-18T11:06:15Z</time>
      </trkpt>
      <trkpt lat="49.41185" lon="0.19001">
        <ele>41.7</ele>
        <time>2015-10-18T11:06:16Z</time>
      </trkpt>
      <trkpt lat="49.41186" lon="0.19002">
        <ele>41.7</ele>
        <time>2015-10-18T11:06:17Z</time>
      </trkpt>
      <trkpt lat="49.41186" lon="0.19003">
        <ele>42</ele>
        <time>2015-10-18T11:06:18Z</time>
      </trkpt>
      <trkpt lat="49.41186" lon="0.19004">
        <ele>42.2</ele>
        <time>2015-10-18T11:06:19Z</time>
      </trkpt>
      <trkpt lat="49.41186" lon="0.19005">
        <ele>42.3</ele>
        <time>2015-10-18T11:06:20Z</time>
      </trkpt>
      <trkpt lat="49.41186" lon="0.19005">
        <ele>42.6</ele>
        <time>2015-10-18T11:06:21Z</time>
      </trkpt>
      <trkpt lat="49.41187" lon="0.19006">
        <ele>42.9</ele>
        <time>2015-10-18T11:06:22Z</time>
      </trkpt>
      <trkpt lat="49.41187" lon="0.19007">
        <ele>43.1</ele>
        <time>2015-10-18T11:06:23Z</time>
      </trkpt>
      <trkpt lat="49.41187" lon="0.19007">
        <ele>43.6</ele>
        <time>2015-10-18T11:06:24Z</time>
      </trkpt>
      <trkpt lat="49.41188" lon="0.19008">
        <ele>44</ele>
        <time>2015-10-18T11:06:25Z</time>
      </trkpt>
      <trkpt lat="49.41188" lon="0.19008">
        <ele>44.3</ele>
        <time>2015-10-18T11:06:26Z</time>
      </trkpt>
      <trkpt lat="49.41188" lon="0.19009">
        <ele>44.1</ele>
        <time>2015-10-18T11:06:27Z</time>
      </trkpt>
      <trkpt lat="49.41188" lon="0.19009">
        <ele>44</ele>
        <time>2015-10-18T11:06:28Z</time>
      </trkpt>
      <trkpt lat="49.41188" lon="0.1901">
        <ele>43.9</ele>
        <time>2015-10-18T11:06:29Z</time>
      </trkpt>
      <trkpt lat="49.41188" lon="0.1901">
        <ele>43.6</ele>
        <time>2015-10-18T11:06:30Z</time>
      </trkpt>
      <trkpt lat="49.41188" lon="0.1901">
        <ele>43.4</ele>
        <time>2015-10-18T11:06:31Z</time>
      </trkpt>
      <trkpt lat="49.41188" lon="0.1901">
        <ele>43.2</ele>
        <time>2015-10-18T11:06:32Z</time>
      </trkpt>
      <trkpt lat="49.41188" lon="0.1901">
        <ele>43.7</ele>
        <time>2015-10-18T11:06:33Z</time>
      </trkpt>
      <trkpt lat="49.41188" lon="0.19011">
        <ele>44.1</ele>
        <time>2015-10-18T11:06:34Z</time>
      </trkpt>
      <trkpt lat="49.41188" lon="0.19011">
        <ele>44.4</ele>
        <time>2015-10-18T11:06:35Z</time>
      </trkpt>
      <trkpt lat="49.41188" lon="0.19012">
        <ele>44.6</ele>
        <time>2015-10-18T11:06:36Z</time>
      </trkpt>
      <trkpt lat="49.41188" lon="0.19013">
        <ele>44.8</ele>
        <time>2015-10-18T11:06:37Z</time>
      </trkpt>
      <trkpt lat="49.41188" lon="0.19015">
        <ele>44.8</ele>
        <time>2015-10-18T11:06:39Z</time>
      </trkpt>
      <trkpt lat="49.41189" lon="0.19022">
        <ele>44.2</ele>
        <time>2015-10-18T11:06:46Z</time>
      </trkpt>
      <trkpt lat="49.41191" lon="0.19027">
        <ele>44.8</ele>
        <time>2015-10-18T11:06:51Z</time>
      </trkpt>
      <trkpt lat="49.41194" lon="0.19036">
        <ele>46.3</ele>
        <time>2015-10-18T11:07:00Z</time>
      </trkpt>
      <trkpt lat="49.41194" lon="0.19037">
        <ele>45.8</ele>
        <time>2015-10-18T11:07:01Z</time>
      </trkpt>
      <trkpt lat="49.41194" lon="0.19038">
        <ele>45.5</ele>
        <time>2015-10-18T11:07:02Z</time>
      </trkpt>
      <trkpt lat="49.41195" lon="0.19039">
        <ele>45.8</ele>
        <time>2015-10-18T11:07:03Z</time>
      </trkpt>
      <trkpt lat="49.41195" lon="0.1904">
        <ele>46.1</ele>
        <time>2015-10-18T11:07:04Z</time>
      </trkpt>
      <trkpt lat="49.41196" lon="0.19041">
        <ele>46.3</ele>
        <time>2015-10-18T11:07:05Z</time>
      </trkpt>
      <trkpt lat="49.41196" lon="0.19042">
        <ele>46.7</ele>
        <time>2015-10-18T11:07:06Z</time>
      </trkpt>
      <trkpt lat="49.41197" lon="0.19044">
        <ele>46.9</ele>
        <time>2015-10-18T11:07:07Z</time>
      </trkpt>
      <trkpt lat="49.41196" lon="0.19045">
        <ele>47.1</ele>
        <time>2015-10-18T11:07:08Z</time>
      </trkpt>
      <trkpt lat="49.41196" lon="0.19046">
        <ele>47.3</ele>
        <time>2015-10-18T11:07:09Z</time>
      </trkpt>
      <trkpt lat="49.41195" lon="0.19048">
        <ele>47.4</ele>
        <time>2015-10-18T11:07:10Z</time>
      </trkpt>
      <trkpt lat="49.41195" lon="0.19049">
        <ele>47.5</ele>
        <time>2015-10-18T11:07:11Z</time>
      </trkpt>
      <trkpt lat="49.41195" lon="0.19051">
        <ele>48</ele>
        <time>2015-10-18T11:07:12Z</time>
      </trkpt>
      <trkpt lat="49.41195" lon="0.19052">
        <ele>48.3</ele>
        <time>2015-10-18T11:07:13Z</time>
      </trkpt>
      <trkpt lat="49.41195" lon="0.19056">
        <ele>48.6</ele>
        <time>2015-10-18T11:07:16Z</time>
      </trkpt>
      <trkpt lat="49.41195" lon="0.19057">
        <ele>48.6</ele>
        <time>2015-10-18T11:07:17Z</time>
      </trkpt>
      <trkpt lat="49.41195" lon="0.1906">
        <ele>49</ele>
        <time>2015-10-18T11:07:19Z</time>
      </trkpt>
      <trkpt lat="49.41195" lon="0.19061">
        <ele>49.1</ele>
        <time>2015-10-18T11:07:20Z</time>
      </trkpt>
      <trkpt lat="49.41196" lon="0.19063">
        <ele>49.6</ele>
        <time>2015-10-18T11:07:22Z</time>
      </trkpt>
      <trkpt lat="49.41195" lon="0.19065">
        <ele>49.7</ele>
        <time>2015-10-18T11:07:23Z</time>
      </trkpt>
      <trkpt lat="49.41196" lon="0.19069">
        <ele>50</ele>
        <time>2015-10-18T11:07:26Z</time>
      </trkpt>
      <trkpt lat="49.41196" lon="0.19071">
        <ele>50.1</ele>
        <time>2015-10-18T11:07:27Z</time>
      </trkpt>
      <trkpt lat="49.41196" lon="0.19072">
        <ele>50.1</ele>
        <time>2015-10-18T11:07:28Z</time>
      </trkpt>
      <trkpt lat="49.41196" lon="0.19074">
        <ele>50.2</ele>
        <time>2015-10-18T11:07:29Z</time>
      </trkpt>
      <trkpt lat="49.41196" lon="0.19075">
        <ele>50.4</ele>
        <time>2015-10-18T11:07:30Z</time>
      </trkpt>
      <trkpt lat="49.41197" lon="0.19076">
        <ele>50.6</ele>
        <time>2015-10-18T11:07:31Z</time>
      </trkpt>
      <trkpt lat="49.41197" lon="0.19077">
        <ele>50.7</ele>
        <time>2015-10-18T11:07:32Z</time>
      </trkpt>
      <trkpt lat="49.41197" lon="0.19078">
        <ele>50.6</ele>
        <time>2015-10-18T11:07:33Z</time>
      </trkpt>
      <trkpt lat="49.41197" lon="0.19079">
        <ele>50.5</ele>
        <time>2015-10-18T11:07:34Z</time>
      </trkpt>
      <trkpt lat="49.41197" lon="0.1908">
        <ele>50.4</ele>
        <time>2015-10-18T11:07:35Z</time>
      </trkpt>
      <trkpt lat="49.41197" lon="0.19082">
        <ele>50.6</ele>
        <time>2015-10-18T11:07:36Z</time>
      </trkpt>
      <trkpt lat="49.41197" lon="0.19083">
        <ele>50.7</ele>
        <time>2015-10-18T11:07:37Z</time>
      </trkpt>
      <trkpt lat="49.41198" lon="0.19084">
        <ele>50.8</ele>
        <time>2015-10-18T11:07:38Z</time>
      </trkpt>
      <trkpt lat="49.41198" lon="0.19085">
        <ele>51.3</ele>
        <time>2015-10-18T11:07:39Z</time>
      </trkpt>
      <trkpt lat="49.41199" lon="0.19086">
        <ele>51.7</ele>
        <time>2015-10-18T11:07:40Z</time>
      </trkpt>
      <trkpt lat="49.41199" lon="0.19087">
        <ele>51.9</ele>
        <time>2015-10-18T11:07:41Z</time>
      </trkpt>
      <trkpt lat="49.41199" lon="0.19088">
        <ele>51.9</ele>
        <time>2015-10-18T11:07:42Z</time>
      </trkpt>
      <trkpt lat="49.412" lon="0.1909">
        <ele>51.9</ele>
        <time>2015-10-18T11:07:43Z</time>
      </trkpt>
      <trkpt lat="49.412" lon="0.19091">
        <ele>51.9</ele>
        <time>2015-10-18T11:07:44Z</time>
      </trkpt>
      <trkpt lat="49.41201" lon="0.19092">
        <ele>52.1</ele>
        <time>2015-10-18T11:07:45Z</time>
      </trkpt>
      <trkpt lat="49.41201" lon="0.19093">
        <ele>52.3</ele>
        <time>2015-10-18T11:07:46Z</time>
      </trkpt>
      <trkpt lat="49.41201" lon="0.19093">
        <ele>52.4</ele>
        <time>2015-10-18T11:07:47Z</time>
      </trkpt>
      <trkpt lat="49.41202" lon="0.19094">
        <ele>52.7</ele>
        <time>2015-10-18T11:07:48Z</time>
      </trkpt>
      <trkpt lat="49.41202" lon="0.19096">
        <ele>53.1</ele>
        <time>2015-10-18T11:07:50Z</time>
      </trkpt>
      <trkpt lat="49.41204" lon="0.191">
        <ele>54.4</ele>
        <time>2015-10-18T11:07:54Z</time>
      </trkpt>
      <trkpt lat="49.41204" lon="0.19101">
        <ele>54.4</ele>
        <time>2015-10-18T11:07:55Z</time>
      </trkpt>
      <trkpt lat="49.41204" lon="0.19102">
        <ele>54.4</ele>
        <time>2015-10-18T11:07:56Z</time>
      </trkpt>
      <trkpt lat="49.41204" lon="0.19103">
        <ele>54.6</ele>
        <time>2015-10-18T11:07:57Z</time>
      </trkpt>
      <trkpt lat="49.41205" lon="0.19105">
        <ele>54.8</ele>
        <time>2015-10-18T11:07:58Z</time>
      </trkpt>
      <trkpt lat="49.41205" lon="0.19106">
        <ele>54.9</ele>
        <time>2015-10-18T11:07:59Z</time>
      </trkpt>
      <trkpt lat="49.41205" lon="0.19107">
        <ele>54.8</ele>
        <time>2015-10-18T11:08:00Z</time>
      </trkpt>
      <trkpt lat="49.41205" lon="0.19109">
        <ele>54.7</ele>
        <time>2015-10-18T11:08:01Z</time>
      </trkpt>
      <trkpt lat="49.41205" lon="0.1911">
        <ele>54.6</ele>
        <time>2015-10-18T11:08:02Z</time>
      </trkpt>
      <trkpt lat="49.41206" lon="0.19112">
        <ele>54.6</ele>
        <time>2015-10-18T11:08:03Z</time>
      </trkpt>
      <trkpt lat="49.41206" lon="0.19113">
        <ele>54.5</ele>
        <time>2015-10-18T11:08:04Z</time>
      </trkpt>
      <trkpt lat="49.41206" lon="0.19115">
        <ele>54.5</ele>
        <time>2015-10-18T11:08:05Z</time>
      </trkpt>
      <trkpt lat="49.41206" lon="0.19117">
        <ele>55.1</ele>
        <time>2015-10-18T11:08:06Z</time>
      </trkpt>
      <trkpt lat="49.41207" lon="0.19118">
        <ele>55.6</ele>
        <time>2015-10-18T11:08:07Z</time>
      </trkpt>
      <trkpt lat="49.41207" lon="0.1912">
        <ele>55.9</ele>
        <time>2015-10-18T11:08:08Z</time>
      </trkpt>
      <trkpt lat="49.41207" lon="0.19121">
        <ele>55.9</ele>
        <time>2015-10-18T11:08:09Z</time>
      </trkpt>
      <trkpt lat="49.41208" lon="0.19122">
        <ele>56</ele>
        <time>2015-10-18T11:08:10Z</time>
      </trkpt>
      <trkpt lat="49.41208" lon="0.19124">
        <ele>56</ele>
        <time>2015-10-18T11:08:11Z</time>
      </trkpt>
      <trkpt lat="49.41208" lon="0.19125">
        <ele>56.4</ele>
        <time>2015-10-18T11:08:12Z</time>
      </trkpt>
      <trkpt lat="49.41208" lon="0.19127">
        <ele>56.8</ele>
        <time>2015-10-18T11:08:13Z</time>
      </trkpt>
      <trkpt lat="49.41209" lon="0.19129">
        <ele>57</ele>
        <time>2015-10-18T11:08:14Z</time>
      </trkpt>
      <trkpt lat="49.41209" lon="0.1913">
        <ele>57</ele>
        <time>2015-10-18T11:08:15Z</time>
      </trkpt>
      <trkpt lat="49.41209" lon="0.19132">
        <ele>57</ele>
        <time>2015-10-18T11:08:16Z</time>
      </trkpt>
      <trkpt lat="49.41209" lon="0.19133">
        <ele>57</ele>
        <time>2015-10-18T11:08:17Z</time>
      </trkpt>
      <trkpt lat="49.41209" lon="0.19134">
        <ele>57.1</ele>
        <time>2015-10-18T11:08:18Z</time>
      </trkpt>
      <trkpt lat="49.4121" lon="0.19135">
        <ele>57.3</ele>
        <time>2015-10-18T11:08:19Z</time>
      </trkpt>
      <trkpt lat="49.4121" lon="0.19136">
        <ele>57.4</ele>
        <time>2015-10-18T11:08:20Z</time>
      </trkpt>
      <trkpt lat="49.4121" lon="0.19137">
        <ele>57.5</ele>
        <time>2015-10-18T11:08:21Z</time>
      </trkpt>
      <trkpt lat="49.4121" lon="0.19138">
        <ele>57.6</ele>
        <time>2015-10-18T11:08:22Z</time>
      </trkpt>
      <trkpt lat="49.4121" lon="0.19139">
        <ele>57.6</ele>
        <time>2015-10-18T11:08:23Z</time>
      </trkpt>
      <trkpt lat="49.41211" lon="0.1914">
        <ele>57.8</ele>
        <time>2015-10-18T11:08:24Z</time>
      </trkpt>
      <trkpt lat="49.41211" lon="0.19141">
        <ele>58</ele>
        <time>2015-10-18T11:08:25Z</time>
      </trkpt>
      <trkpt lat="49.41211" lon="0.19142">
        <ele>58.2</ele>
        <time>2015-10-18T11:08:26Z</time>
      </trkpt>
      <trkpt lat="49.41211" lon="0.19143">
        <ele>58.3</ele>
        <time>2015-10-18T11:08:27Z</time>
      </trkpt>
      <trkpt lat="49.41211" lon="0.19144">
        <ele>58.3</ele>
        <time>2015-10-18T11:08:28Z</time>
      </trkpt>
      <trkpt lat="49.41212" lon="0.19144">
        <ele>58.4</ele>
        <time>2015-10-18T11:08:29Z</time>
      </trkpt>
      <trkpt lat="49.41212" lon="0.19145">
        <ele>58.4</ele>
        <time>2015-10-18T11:08:30Z</time>
      </trkpt>
      <trkpt lat="49.41212" lon="0.19146">
        <ele>58.5</ele>
        <time>2015-10-18T11:08:31Z</time>
      </trkpt>
      <trkpt lat="49.41214" lon="0.19149">
        <ele>59</ele>
        <time>2015-10-18T11:08:35Z</time>
      </trkpt>
      <trkpt lat="49.41214" lon="0.1915">
        <ele>58.9</ele>
        <time>2015-10-18T11:08:36Z</time>
      </trkpt>
      <trkpt lat="49.41215" lon="0.19152">
        <ele>58.8</ele>
        <time>2015-10-18T11:08:38Z</time>
      </trkpt>
      <trkpt lat="49.41216" lon="0.19153">
        <ele>58.9</ele>
        <time>2015-10-18T11:08:39Z</time>
      </trkpt>
      <trkpt lat="49.41216" lon="0.19154">
        <ele>59</ele>
        <time>2015-10-18T11:08:40Z</time>
      </trkpt>
      <trkpt lat="49.41216" lon="0.19155">
        <ele>59.1</ele>
        <time>2015-10-18T11:08:41Z</time>
      </trkpt>
      <trkpt lat="49.41217" lon="0.19156">
        <ele>59.4</ele>
        <time>2015-10-18T11:08:42Z</time>
      </trkpt>
      <trkpt lat="49.41217" lon="0.19157">
        <ele>59.6</ele>
        <time>2015-10-18T11:08:43Z</time>
      </trkpt>
      <trkpt lat="49.41217" lon="0.19157">
        <ele>59.8</ele>
        <time>2015-10-18T11:08:44Z</time>
      </trkpt>
      <trkpt lat="49.41218" lon="0.19159">
        <ele>60.3</ele>
        <time>2015-10-18T11:08:46Z</time>
      </trkpt>
      <trkpt lat="49.4122" lon="0.1916">
        <ele>60.8</ele>
        <time>2015-10-18T11:08:49Z</time>
      </trkpt>
      <trkpt lat="49.4122" lon="0.19161">
        <ele>60.8</ele>
        <time>2015-10-18T11:08:50Z</time>
      </trkpt>
      <trkpt lat="49.41221" lon="0.19162">
        <ele>60.7</ele>
        <time>2015-10-18T11:08:51Z</time>
      </trkpt>
      <trkpt lat="49.41221" lon="0.19162">
        <ele>60.6</ele>
        <time>2015-10-18T11:08:52Z</time>
      </trkpt>
      <trkpt lat="49.41226" lon="0.19175">
        <ele>62</ele>
        <time>2015-10-18T11:09:02Z</time>
      </trkpt>
      <trkpt lat="49.41226" lon="0.19176">
        <ele>62.2</ele>
        <time>2015-10-18T11:09:03Z</time>
      </trkpt>
      <trkpt lat="49.41226" lon="0.19179">
        <ele>62.4</ele>
        <time>2015-10-18T11:09:05Z</time>
      </trkpt>
      <trkpt lat="49.41225" lon="0.1918">
        <ele>62.9</ele>
        <time>2015-10-18T11:09:06Z</time>
      </trkpt>
      <trkpt lat="49.41225" lon="0.19181">
        <ele>63.3</ele>
        <time>2015-10-18T11:09:07Z</time>
      </trkpt>
      <trkpt lat="49.41225" lon="0.19182">
        <ele>63.6</ele>
        <time>2015-10-18T11:09:08Z</time>
      </trkpt>
      <trkpt lat="49.41224" lon="0.19184">
        <ele>63.6</ele>
        <time>2015-10-18T11:09:09Z</time>
      </trkpt>
      <trkpt lat="49.41224" lon="0.19185">
        <ele>63.6</ele>
        <time>2015-10-18T11:09:10Z</time>
      </trkpt>
      <trkpt lat="49.41224" lon="0.19186">
        <ele>63.6</ele>
        <time>2015-10-18T11:09:11Z</time>
      </trkpt>
      <trkpt lat="49.41224" lon="0.19188">
        <ele>63.8</ele>
        <time>2015-10-18T11:09:12Z</time>
      </trkpt>
      <trkpt lat="49.41224" lon="0.19189">
        <ele>63.9</ele>
        <time>2015-10-18T11:09:13Z</time>
      </trkpt>
      <trkpt lat="49.41224" lon="0.1919">
        <ele>64.1</ele>
        <time>2015-10-18T11:09:14Z</time>
      </trkpt>
      <trkpt lat="49.41223" lon="0.19191">
        <ele>64.4</ele>
        <time>2015-10-18T11:09:15Z</time>
      </trkpt>
      <trkpt lat="49.41223" lon="0.19192">
        <ele>64.6</ele>
        <time>2015-10-18T11:09:16Z</time>
      </trkpt>
      <trkpt lat="49.41223" lon="0.19194">
        <ele>65.3</ele>
        <time>2015-10-18T11:09:18Z</time>
      </trkpt>
      <trkpt lat="49.41223" lon="0.19195">
        <ele>65.7</ele>
        <time>2015-10-18T11:09:19Z</time>
      </trkpt>
      <trkpt lat="49.41223" lon="0.19196">
        <ele>66</ele>
        <time>2015-10-18T11:09:20Z</time>
      </trkpt>
      <trkpt lat="49.41223" lon="0.19198">
        <ele>65.6</ele>
        <time>2015-10-18T11:09:21Z</time>
      </trkpt>
      <trkpt lat="49.41223" lon="0.19199">
        <ele>65.3</ele>
        <time>2015-10-18T11:09:22Z</time>
      </trkpt>
      <trkpt lat="49.41223" lon="0.19203">
        <ele>65.5</ele>
        <time>2015-10-18T11:09:25Z</time>
      </trkpt>
      <trkpt lat="49.41223" lon="0.19204">
        <ele>65.7</ele>
        <time>2015-10-18T11:09:26Z</time>
      </trkpt>
      <trkpt lat="49.41224" lon="0.19204">
        <ele>65.6</ele>
        <time>2015-10-18T11:09:27Z</time>
      </trkpt>
      <trkpt lat="49.41224" lon="0.19205">
        <ele>65.5</ele>
        <time>2015-10-18T11:09:28Z</time>
      </trkpt>
      <trkpt lat="49.41223" lon="0.19206">
        <ele>65.4</ele>
        <time>2015-10-18T11:09:29Z</time>
      </trkpt>
      <trkpt lat="49.41223" lon="0.19207">
        <ele>66.4</ele>
        <time>2015-10-18T11:09:31Z</time>
      </trkpt>
      <trkpt lat="49.41223" lon="0.19207">
        <ele>66.8</ele>
        <time>2015-10-18T11:09:32Z</time>
      </trkpt>
      <trkpt lat="49.41223" lon="0.19209">
        <ele>66.8</ele>
        <time>2015-10-18T11:09:34Z</time>
      </trkpt>
      <trkpt lat="49.41222" lon="0.19209">
        <ele>66.9</ele>
        <time>2015-10-18T11:09:35Z</time>
      </trkpt>
      <trkpt lat="49.41222" lon="0.1921">
        <ele>67.1</ele>
        <time>2015-10-18T11:09:36Z</time>
      </trkpt>
      <trkpt lat="49.41222" lon="0.19211">
        <ele>67.2</ele>
        <time>2015-10-18T11:09:37Z</time>
      </trkpt>
      <trkpt lat="49.41221" lon="0.19211">
        <ele>67.4</ele>
        <time>2015-10-18T11:09:38Z</time>
      </trkpt>
      <trkpt lat="49.41221" lon="0.19212">
        <ele>67.5</ele>
        <time>2015-10-18T11:09:39Z</time>
      </trkpt>
      <trkpt lat="49.4122" lon="0.19213">
        <ele>67.5</ele>
        <time>2015-10-18T11:09:40Z</time>
      </trkpt>
      <trkpt lat="49.41219" lon="0.19214">
        <ele>67.8</ele>
        <time>2015-10-18T11:09:42Z</time>
      </trkpt>
      <trkpt lat="49.41219" lon="0.19214">
        <ele>68</ele>
        <time>2015-10-18T11:09:43Z</time>
      </trkpt>
      <trkpt lat="49.41218" lon="0.19215">
        <ele>68.2</ele>
        <time>2015-10-18T11:09:44Z</time>
      </trkpt>
      <trkpt lat="49.41218" lon="0.19215">
        <ele>68.3</ele>
        <time>2015-10-18T11:09:45Z</time>
      </trkpt>
      <trkpt lat="49.41218" lon="0.19216">
        <ele>68.3</ele>
        <time>2015-10-18T11:09:46Z</time>
      </trkpt>
      <trkpt lat="49.41217" lon="0.19217">
        <ele>68.4</ele>
        <time>2015-10-18T11:09:47Z</time>
      </trkpt>
      <trkpt lat="49.41217" lon="0.19217">
        <ele>68.7</ele>
        <time>2015-10-18T11:09:48Z</time>
      </trkpt>
      <trkpt lat="49.41216" lon="0.19218">
        <ele>69.3</ele>
        <time>2015-10-18T11:09:51Z</time>
      </trkpt>
      <trkpt lat="49.41216" lon="0.19218">
        <ele>69.5</ele>
        <time>2015-10-18T11:09:52Z</time>
      </trkpt>
      <trkpt lat="49.41216" lon="0.19219">
        <ele>69.7</ele>
        <time>2015-10-18T11:09:53Z</time>
      </trkpt>
      <trkpt lat="49.41215" lon="0.19219">
        <ele>70.1</ele>
        <time>2015-10-18T11:09:54Z</time>
      </trkpt>
      <trkpt lat="49.41215" lon="0.19219">
        <ele>70.3</ele>
        <time>2015-10-18T11:09:55Z</time>
      </trkpt>
      <trkpt lat="49.41214" lon="0.19219">
        <ele>70.5</ele>
        <time>2015-10-18T11:09:56Z</time>
      </trkpt>
      <trkpt lat="49.41214" lon="0.19219">
        <ele>70.7</ele>
        <time>2015-10-18T11:09:57Z</time>
      </trkpt>
      <trkpt lat="49.41213" lon="0.19218">
        <ele>70.8</ele>
        <time>2015-10-18T11:09:58Z</time>
      </trkpt>
      <trkpt lat="49.41213" lon="0.19218">
        <ele>70.8</ele>
        <time>2015-10-18T11:09:59Z</time>
      </trkpt>
      <trkpt lat="49.41212" lon="0.19218">
        <ele>70.9</ele>
        <time>2015-10-18T11:10:00Z</time>
      </trkpt>
      <trkpt lat="49.41212" lon="0.19218">
        <ele>70.9</ele>
        <time>2015-10-18T11:10:01Z</time>
      </trkpt>
      <trkpt lat="49.41211" lon="0.19218">
        <ele>71</ele>
        <time>2015-10-18T11:10:02Z</time>
      </trkpt>
      <trkpt lat="49.41211" lon="0.19218">
        <ele>71.2</ele>
        <time>2015-10-18T11:10:03Z</time>
      </trkpt>
      <trkpt lat="49.4121" lon="0.19218">
        <ele>71.4</ele>
        <time>2015-10-18T11:10:04Z</time>
      </trkpt>
      <trkpt lat="49.4121" lon="0.19218">
        <ele>71.5</ele>
        <time>2015-10-18T11:10:05Z</time>
      </trkpt>
      <trkpt lat="49.41209" lon="0.19217">
        <ele>71.8</ele>
        <time>2015-10-18T11:10:06Z</time>
      </trkpt>
      <trkpt lat="49.41208" lon="0.19217">
        <ele>72.1</ele>
        <time>2015-10-18T11:10:07Z</time>
      </trkpt>
      <trkpt lat="49.41208" lon="0.19217">
        <ele>72.2</ele>
        <time>2015-10-18T11:10:08Z</time>
      </trkpt>
      <trkpt lat="49.41207" lon="0.19217">
        <ele>72.4</ele>
        <time>2015-10-18T11:10:09Z</time>
      </trkpt>
      <trkpt lat="49.41207" lon="0.19217">
        <ele>72.5</ele>
        <time>2015-10-18T11:10:10Z</time>
      </trkpt>
      <trkpt lat="49.41206" lon="0.19216">
        <ele>72.5</ele>
        <time>2015-10-18T11:10:11Z</time>
      </trkpt>
      <trkpt lat="49.41206" lon="0.19216">
        <ele>73</ele>
        <time>2015-10-18T11:10:12Z</time>
      </trkpt>
      <trkpt lat="49.41205" lon="0.19215">
        <ele>73.6</ele>
        <time>2015-10-18T11:10:14Z</time>
      </trkpt>
      <trkpt lat="49.41204" lon="0.19215">
        <ele>73.4</ele>
        <time>2015-10-18T11:10:15Z</time>
      </trkpt>
      <trkpt lat="49.41203" lon="0.19214">
        <ele>73.4</ele>
        <time>2015-10-18T11:10:18Z</time>
      </trkpt>
      <trkpt lat="49.41203" lon="0.19214">
        <ele>73.7</ele>
        <time>2015-10-18T11:10:19Z</time>
      </trkpt>
      <trkpt lat="49.41203" lon="0.19214">
        <ele>73.9</ele>
        <time>2015-10-18T11:10:20Z</time>
      </trkpt>
      <trkpt lat="49.41202" lon="0.19213">
        <ele>74.2</ele>
        <time>2015-10-18T11:10:21Z</time>
      </trkpt>
      <trkpt lat="49.41202" lon="0.19213">
        <ele>74.5</ele>
        <time>2015-10-18T11:10:22Z</time>
      </trkpt>
      <trkpt lat="49.41201" lon="0.19213">
        <ele>74.7</ele>
        <time>2015-10-18T11:10:23Z</time>
      </trkpt>
      <trkpt lat="49.412" lon="0.19212">
        <ele>75</ele>
        <time>2015-10-18T11:10:26Z</time>
      </trkpt>
      <trkpt lat="49.412" lon="0.19211">
        <ele>75.1</ele>
        <time>2015-10-18T11:10:27Z</time>
      </trkpt>
      <trkpt lat="49.41198" lon="0.1921">
        <ele>75.6</ele>
        <time>2015-10-18T11:10:31Z</time>
      </trkpt>
      <trkpt lat="49.41198" lon="0.1921">
        <ele>75.7</ele>
        <time>2015-10-18T11:10:32Z</time>
      </trkpt>
      <trkpt lat="49.41197" lon="0.19209">
        <ele>76</ele>
        <time>2015-10-18T11:10:33Z</time>
      </trkpt>
      <trkpt lat="49.41196" lon="0.19208">
        <ele>76.2</ele>
        <time>2015-10-18T11:10:34Z</time>
      </trkpt>
      <trkpt lat="49.41195" lon="0.19208">
        <ele>76.4</ele>
        <time>2015-10-18T11:10:35Z</time>
      </trkpt>
      <trkpt lat="49.41195" lon="0.19207">
        <ele>76.5</ele>
        <time>2015-10-18T11:10:36Z</time>
      </trkpt>
      <trkpt lat="49.41194" lon="0.19207">
        <ele>76.6</ele>
        <time>2015-10-18T11:10:37Z</time>
      </trkpt>
      <trkpt lat="49.41193" lon="0.19206">
        <ele>76.7</ele>
        <time>2015-10-18T11:10:38Z</time>
      </trkpt>
      <trkpt lat="49.41192" lon="0.19205">
        <ele>76.8</ele>
        <time>2015-10-18T11:10:39Z</time>
      </trkpt>
      <trkpt lat="49.41192" lon="0.19204">
        <ele>76.8</ele>
        <time>2015-10-18T11:10:40Z</time>
      </trkpt>
      <trkpt lat="49.41191" lon="0.19204">
        <ele>76.8</ele>
        <time>2015-10-18T11:10:41Z</time>
      </trkpt>
      <trkpt lat="49.4119" lon="0.19203">
        <ele>77.1</ele>
        <time>2015-10-18T11:10:42Z</time>
      </trkpt>
      <trkpt lat="49.41189" lon="0.19202">
        <ele>77.2</ele>
        <time>2015-10-18T11:10:43Z</time>
      </trkpt>
      <trkpt lat="49.41188" lon="0.19201">
        <ele>77.4</ele>
        <time>2015-10-18T11:10:44Z</time>
      </trkpt>
      <trkpt lat="49.41186" lon="0.19198">
        <ele>77.8</ele>
        <time>2015-10-18T11:10:49Z</time>
      </trkpt>
      <trkpt lat="49.41184" lon="0.19194">
        <ele>77.8</ele>
        <time>2015-10-18T11:10:54Z</time>
      </trkpt>
      <trkpt lat="49.41183" lon="0.19193">
        <ele>77.8</ele>
        <time>2015-10-18T11:10:55Z</time>
      </trkpt>
      <trkpt lat="49.41183" lon="0.19193">
        <ele>77.8</ele>
        <time>2015-10-18T11:10:56Z</time>
      </trkpt>
      <trkpt lat="49.41182" lon="0.19191">
        <ele>78.1</ele>
        <time>2015-10-18T11:10:58Z</time>
      </trkpt>
      <trkpt lat="49.41181" lon="0.1919">
        <ele>78.3</ele>
        <time>2015-10-18T11:10:59Z</time>
      </trkpt>
      <trkpt lat="49.4118" lon="0.19189">
        <ele>78.6</ele>
        <time>2015-10-18T11:11:00Z</time>
      </trkpt>
      <trkpt lat="49.4118" lon="0.19188">
        <ele>78.8</ele>
        <time>2015-10-18T11:11:01Z</time>
      </trkpt>
      <trkpt lat="49.41179" lon="0.19187">
        <ele>78.9</ele>
        <time>2015-10-18T11:11:02Z</time>
      </trkpt>
      <trkpt lat="49.41178" lon="0.19186">
        <ele>79.1</ele>
        <time>2015-10-18T11:11:03Z</time>
      </trkpt>
      <trkpt lat="49.41177" lon="0.19185">
        <ele>79.2</ele>
        <time>2015-10-18T11:11:04Z</time>
      </trkpt>
      <trkpt lat="49.41176" lon="0.19184">
        <ele>79.2</ele>
        <time>2015-10-18T11:11:05Z</time>
      </trkpt>
      <trkpt lat="49.41175" lon="0.19183">
        <ele>79.5</ele>
        <time>2015-10-18T11:11:06Z</time>
      </trkpt>
      <trkpt lat="49.41174" lon="0.19182">
        <ele>79.7</ele>
        <time>2015-10-18T11:11:07Z</time>
      </trkpt>
      <trkpt lat="49.41173" lon="0.19182">
        <ele>79.8</ele>
        <time>2015-10-18T11:11:08Z</time>
      </trkpt>
      <trkpt lat="49.41173" lon="0.19181">
        <ele>79.9</ele>
        <time>2015-10-18T11:11:09Z</time>
      </trkpt>
      <trkpt lat="49.41172" lon="0.1918">
        <ele>80</ele>
        <time>2015-10-18T11:11:10Z</time>
      </trkpt>
      <trkpt lat="49.41171" lon="0.19179">
        <ele>80.1</ele>
        <time>2015-10-18T11:11:11Z</time>
      </trkpt>
      <trkpt lat="49.4117" lon="0.19178">
        <ele>80.5</ele>
        <time>2015-10-18T11:11:12Z</time>
      </trkpt>
      <trkpt lat="49.41169" lon="0.19177">
        <ele>80.9</ele>
        <time>2015-10-18T11:11:13Z</time>
      </trkpt>
      <trkpt lat="49.41168" lon="0.19176">
        <ele>81.2</ele>
        <time>2015-10-18T11:11:14Z</time>
      </trkpt>
      <trkpt lat="49.41167" lon="0.19174">
        <ele>81.5</ele>
        <time>2015-10-18T11:11:16Z</time>
      </trkpt>
      <trkpt lat="49.41166" lon="0.19172">
        <ele>81.5</ele>
        <time>2015-10-18T11:11:18Z</time>
      </trkpt>
      <trkpt lat="49.41165" lon="0.19171">
        <ele>81.4</ele>
        <time>2015-10-18T11:11:19Z</time>
      </trkpt>
      <trkpt lat="49.41164" lon="0.1917">
        <ele>81.3</ele>
        <time>2015-10-18T11:11:20Z</time>
      </trkpt>
      <trkpt lat="49.41164" lon="0.19169">
        <ele>81.5</ele>
        <time>2015-10-18T11:11:21Z</time>
      </trkpt>
      <trkpt lat="49.4116" lon="0.19165">
        <ele>81.8</ele>
        <time>2015-10-18T11:11:26Z</time>
      </trkpt>
      <trkpt lat="49.4116" lon="0.19164">
        <ele>82.3</ele>
        <time>2015-10-18T11:11:27Z</time>
      </trkpt>
      <trkpt lat="49.41158" lon="0.19162">
        <ele>83</ele>
        <time>2015-10-18T11:11:30Z</time>
      </trkpt>
      <trkpt lat="49.41158" lon="0.19161">
        <ele>83.2</ele>
        <time>2015-10-18T11:11:31Z</time>
      </trkpt>
      <trkpt lat="49.41157" lon="0.1916">
        <ele>83.3</ele>
        <time>2015-10-18T11:11:32Z</time>
      </trkpt>
      <trkpt lat="49.41157" lon="0.19159">
        <ele>83.4</ele>
        <time>2015-10-18T11:11:33Z</time>
      </trkpt>
      <trkpt lat="49.41156" lon="0.19157">
        <ele>83.5</ele>
        <time>2015-10-18T11:11:35Z</time>
      </trkpt>
      <trkpt lat="49.41155" lon="0.19157">
        <ele>83.5</ele>
        <time>2015-10-18T11:11:36Z</time>
      </trkpt>
      <trkpt lat="49.41155" lon="0.19156">
        <ele>83.5</ele>
        <time>2015-10-18T11:11:37Z</time>
      </trkpt>
      <trkpt lat="49.41155" lon="0.19155">
        <ele>83.5</ele>
        <time>2015-10-18T11:11:38Z</time>
      </trkpt>
      <trkpt lat="49.41154" lon="0.19154">
        <ele>83.8</ele>
        <time>2015-10-18T11:11:39Z</time>
      </trkpt>
      <trkpt lat="49.41154" lon="0.19153">
        <ele>83.9</ele>
        <time>2015-10-18T11:11:40Z</time>
      </trkpt>
      <trkpt lat="49.41153" lon="0.19152">
        <ele>84.1</ele>
        <time>2015-10-18T11:11:41Z</time>
      </trkpt>
      <trkpt lat="49.41152" lon="0.19151">
        <ele>84.2</ele>
        <time>2015-10-18T11:11:42Z</time>
      </trkpt>
      <trkpt lat="49.41152" lon="0.19149">
        <ele>84.2</ele>
        <time>2015-10-18T11:11:43Z</time>
      </trkpt>
      <trkpt lat="49.41151" lon="0.19147">
        <ele>84.3</ele>
        <time>2015-10-18T11:11:44Z</time>
      </trkpt>
      <trkpt lat="49.4115" lon="0.19146">
        <ele>84.3</ele>
        <time>2015-10-18T11:11:45Z</time>
      </trkpt>
      <trkpt lat="49.41149" lon="0.19144">
        <ele>84.4</ele>
        <time>2015-10-18T11:11:46Z</time>
      </trkpt>
      <trkpt lat="49.41148" lon="0.19143">
        <ele>84.4</ele>
        <time>2015-10-18T11:11:47Z</time>
      </trkpt>
      <trkpt lat="49.41148" lon="0.19141">
        <ele>84.8</ele>
        <time>2015-10-18T11:11:48Z</time>
      </trkpt>
      <trkpt lat="49.41147" lon="0.1914">
        <ele>85.1</ele>
        <time>2015-10-18T11:11:49Z</time>
      </trkpt>
      <trkpt lat="49.41146" lon="0.19139">
        <ele>85.4</ele>
        <time>2015-10-18T11:11:50Z</time>
      </trkpt>
      <trkpt lat="49.41145" lon="0.19137">
        <ele>85.4</ele>
        <time>2015-10-18T11:11:51Z</time>
      </trkpt>
      <trkpt lat="49.41144" lon="0.19136">
        <ele>85.3</ele>
        <time>2015-10-18T11:11:52Z</time>
      </trkpt>
      <trkpt lat="49.41143" lon="0.19135">
        <ele>85.3</ele>
        <time>2015-10-18T11:11:53Z</time>
      </trkpt>
      <trkpt lat="49.41142" lon="0.19134">
        <ele>85.7</ele>
        <time>2015-10-18T11:11:54Z</time>
      </trkpt>
      <trkpt lat="49.41141" lon="0.19133">
        <ele>86</ele>
        <time>2015-10-18T11:11:55Z</time>
      </trkpt>
      <trkpt lat="49.4114" lon="0.19131">
        <ele>86.4</ele>
        <time>2015-10-18T11:11:57Z</time>
      </trkpt>
      <trkpt lat="49.41138" lon="0.19129">
        <ele>87.5</ele>
        <time>2015-10-18T11:12:03Z</time>
      </trkpt>
      <trkpt lat="49.41138" lon="0.19128">
        <ele>87.6</ele>
        <time>2015-10-18T11:12:04Z</time>
      </trkpt>
      <trkpt lat="49.41137" lon="0.19128">
        <ele>87.8</ele>
        <time>2015-10-18T11:12:05Z</time>
      </trkpt>
      <trkpt lat="49.41137" lon="0.19128">
        <ele>88</ele>
        <time>2015-10-18T11:12:06Z</time>
      </trkpt>
      <trkpt lat="49.41137" lon="0.19128">
        <ele>88.2</ele>
        <time>2015-10-18T11:12:07Z</time>
      </trkpt>
      <trkpt lat="49.41136" lon="0.19127">
        <ele>88.1</ele>
        <time>2015-10-18T11:12:08Z</time>
      </trkpt>
      <trkpt lat="49.41135" lon="0.19126">
        <ele>87.9</ele>
        <time>2015-10-18T11:12:10Z</time>
      </trkpt>
      <trkpt lat="49.41132" lon="0.19125">
        <ele>87.9</ele>
        <time>2015-10-18T11:12:13Z</time>
      </trkpt>
      <trkpt lat="49.41131" lon="0.19125">
        <ele>88</ele>
        <time>2015-10-18T11:12:14Z</time>
      </trkpt>
      <trkpt lat="49.4113" lon="0.19125">
        <ele>88.2</ele>
        <time>2015-10-18T11:12:15Z</time>
      </trkpt>
      <trkpt lat="49.41129" lon="0.19125">
        <ele>88.3</ele>
        <time>2015-10-18T11:12:16Z</time>
      </trkpt>
      <trkpt lat="49.41127" lon="0.19124">
        <ele>89</ele>
        <time>2015-10-18T11:12:19Z</time>
      </trkpt>
      <trkpt lat="49.41127" lon="0.19124">
        <ele>89.3</ele>
        <time>2015-10-18T11:12:20Z</time>
      </trkpt>
      <trkpt lat="49.41126" lon="0.19124">
        <ele>89.5</ele>
        <time>2015-10-18T11:12:21Z</time>
      </trkpt>
      <trkpt lat="49.41121" lon="0.19125">
        <ele>89.7</ele>
        <time>2015-10-18T11:12:28Z</time>
      </trkpt>
      <trkpt lat="49.4112" lon="0.19125">
        <ele>89.6</ele>
        <time>2015-10-18T11:12:29Z</time>
      </trkpt>
      <trkpt lat="49.41119" lon="0.19125">
        <ele>89.6</ele>
        <time>2015-10-18T11:12:30Z</time>
      </trkpt>
      <trkpt lat="49.41118" lon="0.19125">
        <ele>89.6</ele>
        <time>2015-10-18T11:12:31Z</time>
      </trkpt>
      <trkpt lat="49.41116" lon="0.19125">
        <ele>90</ele>
        <time>2015-10-18T11:12:32Z</time>
      </trkpt>
      <trkpt lat="49.41115" lon="0.19125">
        <ele>90.2</ele>
        <time>2015-10-18T11:12:33Z</time>
      </trkpt>
      <trkpt lat="49.41114" lon="0.19124">
        <ele>90.5</ele>
        <time>2015-10-18T11:12:34Z</time>
      </trkpt>
      <trkpt lat="49.41112" lon="0.19124">
        <ele>90.8</ele>
        <time>2015-10-18T11:12:35Z</time>
      </trkpt>
      <trkpt lat="49.41111" lon="0.19124">
        <ele>91.1</ele>
        <time>2015-10-18T11:12:36Z</time>
      </trkpt>
      <trkpt lat="49.4111" lon="0.19124">
        <ele>91.3</ele>
        <time>2015-10-18T11:12:37Z</time>
      </trkpt>
      <trkpt lat="49.41109" lon="0.19124">
        <ele>90.9</ele>
        <time>2015-10-18T11:12:38Z</time>
      </trkpt>
      <trkpt lat="49.41108" lon="0.19124">
        <ele>90.5</ele>
        <time>2015-10-18T11:12:39Z</time>
      </trkpt>
      <trkpt lat="49.41108" lon="0.19124">
        <ele>90.2</ele>
        <time>2015-10-18T11:12:40Z</time>
      </trkpt>
      <trkpt lat="49.41107" lon="0.19124">
        <ele>90</ele>
        <time>2015-10-18T11:12:41Z</time>
      </trkpt>
      <trkpt lat="49.41107" lon="0.19124">
        <ele>89.9</ele>
        <time>2015-10-18T11:12:42Z</time>
      </trkpt>
      <trkpt lat="49.41107" lon="0.19124">
        <ele>89.8</ele>
        <time>2015-10-18T11:12:43Z</time>
      </trkpt>
      <trkpt lat="49.41106" lon="0.19124">
        <ele>89.7</ele>
        <time>2015-10-18T11:12:44Z</time>
      </trkpt>
      <trkpt lat="49.41106" lon="0.19124">
        <ele>89.6</ele>
        <time>2015-10-18T11:12:45Z</time>
      </trkpt>
      <trkpt lat="49.41106" lon="0.19124">
        <ele>89.6</ele>
        <time>2015-10-18T11:12:46Z</time>
      </trkpt>
      <trkpt lat="49.41106" lon="0.19124">
        <ele>89.8</ele>
        <time>2015-10-18T11:12:47Z</time>
      </trkpt>
      <trkpt lat="49.41106" lon="0.19124">
        <ele>89.9</ele>
        <time>2015-10-18T11:12:48Z</time>
      </trkpt>
      <trkpt lat="49.41106" lon="0.19124">
        <ele>90</ele>
        <time>2015-10-18T11:12:49Z</time>
      </trkpt>
      <trkpt lat="49.41107" lon="0.19123">
        <ele>90.1</ele>
        <time>2015-10-18T11:12:50Z</time>
      </trkpt>
      <trkpt lat="49.41107" lon="0.19123">
        <ele>90.1</ele>
        <time>2015-10-18T11:12:51Z</time>
      </trkpt>
      <trkpt lat="49.41108" lon="0.19123">
        <ele>90.2</ele>
        <time>2015-10-18T11:12:52Z</time>
      </trkpt>
      <trkpt lat="49.41108" lon="0.19122">
        <ele>90</ele>
        <time>2015-10-18T11:12:53Z</time>
      </trkpt>
      <trkpt lat="49.41109" lon="0.19122">
        <ele>89.9</ele>
        <time>2015-10-18T11:12:54Z</time>
      </trkpt>
      <trkpt lat="49.41109" lon="0.19122">
        <ele>89.8</ele>
        <time>2015-10-18T11:12:55Z</time>
      </trkpt>
      <trkpt lat="49.4111" lon="0.19122">
        <ele>90.1</ele>
        <time>2015-10-18T11:12:56Z</time>
      </trkpt>
      <trkpt lat="49.4111" lon="0.19122">
        <ele>90.4</ele>
        <time>2015-10-18T11:12:57Z</time>
      </trkpt>
      <trkpt lat="49.4111" lon="0.19121">
        <ele>90.5</ele>
        <time>2015-10-18T11:12:58Z</time>
      </trkpt>
      <trkpt lat="49.4111" lon="0.19121">
        <ele>90.7</ele>
        <time>2015-10-18T11:12:59Z</time>
      </trkpt>
      <trkpt lat="49.4111" lon="0.19122">
        <ele>90.8</ele>
        <time>2015-10-18T11:13:00Z</time>
      </trkpt>
      <trkpt lat="49.4111" lon="0.19122">
        <ele>90.9</ele>
        <time>2015-10-18T11:13:01Z</time>
      </trkpt>
      <trkpt lat="49.41111" lon="0.19122">
        <ele>90.7</ele>
        <time>2015-10-18T11:13:02Z</time>
      </trkpt>
      <trkpt lat="49.41111" lon="0.19122">
        <ele>90.6</ele>
        <time>2015-10-18T11:13:03Z</time>
      </trkpt>
      <trkpt lat="49.41111" lon="0.19122">
        <ele>90.5</ele>
        <time>2015-10-18T11:13:04Z</time>
      </trkpt>
      <trkpt lat="49.41111" lon="0.19123">
        <ele>90.5</ele>
        <time>2015-10-18T11:13:05Z</time>
      </trkpt>
      <trkpt lat="49.41111" lon="0.19123">
        <ele>90.4</ele>
        <time>2015-10-18T11:13:06Z</time>
      </trkpt>
      <trkpt lat="49.41111" lon="0.19123">
        <ele>90.4</ele>
        <time>2015-10-18T11:13:07Z</time>
      </trkpt>
      <trkpt lat="49.41111" lon="0.19124">
        <ele>90.6</ele>
        <time>2015-10-18T11:13:08Z</time>
      </trkpt>
      <trkpt lat="49.41111" lon="0.19124">
        <ele>90.7</ele>
        <time>2015-10-18T11:13:09Z</time>
      </trkpt>
      <trkpt lat="49.41111" lon="0.19124">
        <ele>90.8</ele>
        <time>2015-10-18T11:13:10Z</time>
      </trkpt>
      <trkpt lat="49.41111" lon="0.19125">
        <ele>91.1</ele>
        <time>2015-10-18T11:13:11Z</time>
      </trkpt>
      <trkpt lat="49.41111" lon="0.19125">
        <ele>91.3</ele>
        <time>2015-10-18T11:13:12Z</time>
      </trkpt>
      <trkpt lat="49.41111" lon="0.19125">
        <ele>91.5</ele>
        <time>2015-10-18T11:13:13Z</time>
      </trkpt>
      <trkpt lat="49.41111" lon="0.19126">
        <ele>91.4</ele>
        <time>2015-10-18T11:13:14Z</time>
      </trkpt>
      <trkpt lat="49.41111" lon="0.19126">
        <ele>91.3</ele>
        <time>2015-10-18T11:13:15Z</time>
      </trkpt>
      <trkpt lat="49.41111" lon="0.19126">
        <ele>91.3</ele>
        <time>2015-10-18T11:13:16Z</time>
      </trkpt>
      <trkpt lat="49.41111" lon="0.19126">
        <ele>91.2</ele>
        <time>2015-10-18T11:13:17Z</time>
      </trkpt>
      <trkpt lat="49.41111" lon="0.19127">
        <ele>91.2</ele>
        <time>2015-10-18T11:13:18Z</time>
      </trkpt>
      <trkpt lat="49.41111" lon="0.19127">
        <ele>91.2</ele>
        <time>2015-10-18T11:13:19Z</time>
      </trkpt>
      <trkpt lat="49.41112" lon="0.19127">
        <ele>90.8</ele>
        <time>2015-10-18T11:13:20Z</time>
      </trkpt>
      <trkpt lat="49.41112" lon="0.19127">
        <ele>90.4</ele>
        <time>2015-10-18T11:13:21Z</time>
      </trkpt>
      <trkpt lat="49.41112" lon="0.19128">
        <ele>90.2</ele>
        <time>2015-10-18T11:13:22Z</time>
      </trkpt>
      <trkpt lat="49.41112" lon="0.19128">
        <ele>90.2</ele>
        <time>2015-10-18T11:13:23Z</time>
      </trkpt>
      <trkpt lat="49.41112" lon="0.19128">
        <ele>90.2</ele>
        <time>2015-10-18T11:13:24Z</time>
      </trkpt>
      <trkpt lat="49.41112" lon="0.19128">
        <ele>90.2</ele>
        <time>2015-10-18T11:13:25Z</time>
      </trkpt>
      <trkpt lat="49.41113" lon="0.19128">
        <ele>90.3</ele>
        <time>2015-10-18T11:13:26Z</time>
      </trkpt>
      <trkpt lat="49.41113" lon="0.19128">
        <ele>90.3</ele>
        <time>2015-10-18T11:13:27Z</time>
      </trkpt>
      <trkpt lat="49.41113" lon="0.19128">
        <ele>90.3</ele>
        <time>2015-10-18T11:13:28Z</time>
      </trkpt>
      <trkpt lat="49.41113" lon="0.19128">
        <ele>90.3</ele>
        <time>2015-10-18T11:13:29Z</time>
      </trkpt>
      <trkpt lat="49.41114" lon="0.19128">
        <ele>90.3</ele>
        <time>2015-10-18T11:13:30Z</time>
      </trkpt>
      <trkpt lat="49.41114" lon="0.19128">
        <ele>90.3</ele>
        <time>2015-10-18T11:13:31Z</time>
      </trkpt>
      <trkpt lat="49.41114" lon="0.19128">
        <ele>90.3</ele>
        <time>2015-10-18T11:13:32Z</time>
      </trkpt>
      <trkpt lat="49.41115" lon="0.19128">
        <ele>90.3</ele>
        <time>2015-10-18T11:13:33Z</time>
      </trkpt>
      <trkpt lat="49.41115" lon="0.19128">
        <ele>90.3</ele>
        <time>2015-10-18T11:13:34Z</time>
      </trkpt>
      <trkpt lat="49.41115" lon="0.19128">
        <ele>90.3</ele>
        <time>2015-10-18T11:13:35Z</time>
      </trkpt>
      <trkpt lat="49.41115" lon="0.19128">
        <ele>90.3</ele>
        <time>2015-10-18T11:13:36Z</time>
      </trkpt>
      <trkpt lat="49.41116" lon="0.19128">
        <ele>90.3</ele>
        <time>2015-10-18T11:13:37Z</time>
      </trkpt>
      <trkpt lat="49.41116" lon="0.19128">
        <ele>90.3</ele>
        <time>2015-10-18T11:13:38Z</time>
      </trkpt>
      <trkpt lat="49.41116" lon="0.19127">
        <ele>90.3</ele>
        <time>2015-10-18T11:13:39Z</time>
      </trkpt>
      <trkpt lat="49.41116" lon="0.19127">
        <ele>90.3</ele>
        <time>2015-10-18T11:13:40Z</time>
      </trkpt>
      <trkpt lat="49.41116" lon="0.19127">
        <ele>90.5</ele>
        <time>2015-10-18T11:13:41Z</time>
      </trkpt>
      <trkpt lat="49.41117" lon="0.19127">
        <ele>90.7</ele>
        <time>2015-10-18T11:13:42Z</time>
      </trkpt>
      <trkpt lat="49.41117" lon="0.19127">
        <ele>90.8</ele>
        <time>2015-10-18T11:13:43Z</time>
      </trkpt>
      <trkpt lat="49.41117" lon="0.19126">
        <ele>91.1</ele>
        <time>2015-10-18T11:13:44Z</time>
      </trkpt>
      <trkpt lat="49.41117" lon="0.19126">
        <ele>91.3</ele>
        <time>2015-10-18T11:13:45Z</time>
      </trkpt>
      <trkpt lat="49.41117" lon="0.19126">
        <ele>91.5</ele>
        <time>2015-10-18T11:13:46Z</time>
      </trkpt>
      <trkpt lat="49.41117" lon="0.19126">
        <ele>91.4</ele>
        <time>2015-10-18T11:13:47Z</time>
      </trkpt>
      <trkpt lat="49.41116" lon="0.19125">
        <ele>91.3</ele>
        <time>2015-10-18T11:13:48Z</time>
      </trkpt>
      <trkpt lat="49.41116" lon="0.19125">
        <ele>91.3</ele>
        <time>2015-10-18T11:13:49Z</time>
      </trkpt>
      <trkpt lat="49.41116" lon="0.19125">
        <ele>91.2</ele>
        <time>2015-10-18T11:13:50Z</time>
      </trkpt>
      <trkpt lat="49.41116" lon="0.19125">
        <ele>91.2</ele>
        <time>2015-10-18T11:13:51Z</time>
      </trkpt>
      <trkpt lat="49.41115" lon="0.19125">
        <ele>91.2</ele>
        <time>2015-10-18T11:13:52Z</time>
      </trkpt>
      <trkpt lat="49.41115" lon="0.19125">
        <ele>91.2</ele>
        <time>2015-10-18T11:13:53Z</time>
      </trkpt>
      <trkpt lat="49.41115" lon="0.19125">
        <ele>91.2</ele>
        <time>2015-10-18T11:13:54Z</time>
      </trkpt>
      <trkpt lat="49.41114" lon="0.19125">
        <ele>91.2</ele>
        <time>2015-10-18T11:13:55Z</time>
      </trkpt>
      <trkpt lat="49.41114" lon="0.19125">
        <ele>91.1</ele>
        <time>2015-10-18T11:13:56Z</time>
      </trkpt>
      <trkpt lat="49.41114" lon="0.19125">
        <ele>91.1</ele>
        <time>2015-10-18T11:13:57Z</time>
      </trkpt>
      <trkpt lat="49.41114" lon="0.19125">
        <ele>91.1</ele>
        <time>2015-10-18T11:13:58Z</time>
      </trkpt>
      <trkpt lat="49.41114" lon="0.19125">
        <ele>91.1</ele>
        <time>2015-10-18T11:13:59Z</time>
      </trkpt>
      <trkpt lat="49.41113" lon="0.19125">
        <ele>91.1</ele>
        <time>2015-10-18T11:14:00Z</time>
      </trkpt>
      <trkpt lat="49.41104" lon="0.19122">
        <ele>91.6</ele>
        <time>2015-10-18T11:20:58Z</time>
      </trkpt>
      <trkpt lat="49.41104" lon="0.19123">
        <ele>91.9</ele>
        <time>2015-10-18T11:20:59Z</time>
      </trkpt>
      <trkpt lat="49.41104" lon="0.19124">
        <ele>92.3</ele>
        <time>2015-10-18T11:21:01Z</time>
      </trkpt>
      <trkpt lat="49.41104" lon="0.19124">
        <ele>92.4</ele>
        <time>2015-10-18T11:21:02Z</time>
      </trkpt>
      <trkpt lat="49.41104" lon="0.19125">
        <ele>92.5</ele>
        <time>2015-10-18T11:21:03Z</time>
      </trkpt>
      <trkpt lat="49.41104" lon="0.19127">
        <ele>92.6</ele>
        <time>2015-10-18T11:21:04Z</time>
      </trkpt>
      <trkpt lat="49.41103" lon="0.19128">
        <ele>91.2</ele>
        <time>2015-10-18T11:21:05Z</time>
      </trkpt>
      <trkpt lat="49.41102" lon="0.1913">
        <ele>89.3</ele>
        <time>2015-10-18T11:21:07Z</time>
      </trkpt>
      <trkpt lat="49.41102" lon="0.19131">
        <ele>89.8</ele>
        <time>2015-10-18T11:21:08Z</time>
      </trkpt>
      <trkpt lat="49.41101" lon="0.19131">
        <ele>90.1</ele>
        <time>2015-10-18T11:21:09Z</time>
      </trkpt>
      <trkpt lat="49.41101" lon="0.19132">
        <ele>90.4</ele>
        <time>2015-10-18T11:21:10Z</time>
      </trkpt>
      <trkpt lat="49.411" lon="0.19132">
        <ele>90.8</ele>
        <time>2015-10-18T11:21:11Z</time>
      </trkpt>
      <trkpt lat="49.41099" lon="0.19133">
        <ele>91.1</ele>
        <time>2015-10-18T11:21:12Z</time>
      </trkpt>
      <trkpt lat="49.41098" lon="0.19134">
        <ele>91.3</ele>
        <time>2015-10-18T11:21:13Z</time>
      </trkpt>
      <trkpt lat="49.41097" lon="0.19134">
        <ele>87.9</ele>
        <time>2015-10-18T11:21:14Z</time>
      </trkpt>
      <trkpt lat="49.41096" lon="0.19134">
        <ele>85.4</ele>
        <time>2015-10-18T11:21:15Z</time>
      </trkpt>
      <trkpt lat="49.41095" lon="0.19135">
        <ele>83.5</ele>
        <time>2015-10-18T11:21:16Z</time>
      </trkpt>
      <trkpt lat="49.41094" lon="0.19135">
        <ele>85</ele>
        <time>2015-10-18T11:21:17Z</time>
      </trkpt>
      <trkpt lat="49.41093" lon="0.19135">
        <ele>86.1</ele>
        <time>2015-10-18T11:21:18Z</time>
      </trkpt>
      <trkpt lat="49.41092" lon="0.19136">
        <ele>86.9</ele>
        <time>2015-10-18T11:21:19Z</time>
      </trkpt>
      <trkpt lat="49.41091" lon="0.19136">
        <ele>89</ele>
        <time>2015-10-18T11:21:20Z</time>
      </trkpt>
      <trkpt lat="49.4109" lon="0.19136">
        <ele>90.6</ele>
        <time>2015-10-18T11:21:21Z</time>
      </trkpt>
      <trkpt lat="49.41089" lon="0.19137">
        <ele>91.8</ele>
        <time>2015-10-18T11:21:22Z</time>
      </trkpt>
      <trkpt lat="49.41088" lon="0.19137">
        <ele>93.5</ele>
        <time>2015-10-18T11:21:23Z</time>
      </trkpt>
      <trkpt lat="49.41088" lon="0.19137">
        <ele>94.8</ele>
        <time>2015-10-18T11:21:24Z</time>
      </trkpt>
      <trkpt lat="49.41087" lon="0.19138">
        <ele>95.7</ele>
        <time>2015-10-18T11:21:25Z</time>
      </trkpt>
      <trkpt lat="49.41087" lon="0.19138">
        <ele>95.8</ele>
        <time>2015-10-18T11:21:26Z</time>
      </trkpt>
      <trkpt lat="49.41086" lon="0.19138">
        <ele>95.9</ele>
        <time>2015-10-18T11:21:27Z</time>
      </trkpt>
      <trkpt lat="49.41086" lon="0.19139">
        <ele>96</ele>
        <time>2015-10-18T11:21:28Z</time>
      </trkpt>
      <trkpt lat="49.41086" lon="0.19139">
        <ele>94.6</ele>
        <time>2015-10-18T11:21:29Z</time>
      </trkpt>
      <trkpt lat="49.41085" lon="0.1914">
        <ele>93.5</ele>
        <time>2015-10-18T11:21:30Z</time>
      </trkpt>
      <trkpt lat="49.41084" lon="0.19142">
        <ele>92.5</ele>
        <time>2015-10-18T11:21:32Z</time>
      </trkpt>
      <trkpt lat="49.41083" lon="0.19144">
        <ele>92.8</ele>
        <time>2015-10-18T11:21:35Z</time>
      </trkpt>
      <trkpt lat="49.41083" lon="0.19145">
        <ele>93.2</ele>
        <time>2015-10-18T11:21:36Z</time>
      </trkpt>
      <trkpt lat="49.41082" lon="0.19146">
        <ele>93.5</ele>
        <time>2015-10-18T11:21:37Z</time>
      </trkpt>
      <trkpt lat="49.41081" lon="0.19147">
        <ele>93.4</ele>
        <time>2015-10-18T11:21:38Z</time>
      </trkpt>
      <trkpt lat="49.41081" lon="0.19147">
        <ele>93.2</ele>
        <time>2015-10-18T11:21:39Z</time>
      </trkpt>
      <trkpt lat="49.4108" lon="0.19148">
        <ele>93.1</ele>
        <time>2015-10-18T11:21:40Z</time>
      </trkpt>
      <trkpt lat="49.41079" lon="0.19149">
        <ele>93</ele>
        <time>2015-10-18T11:21:41Z</time>
      </trkpt>
      <trkpt lat="49.41078" lon="0.19151">
        <ele>93</ele>
        <time>2015-10-18T11:21:42Z</time>
      </trkpt>
      <trkpt lat="49.41078" lon="0.19152">
        <ele>92.9</ele>
        <time>2015-10-18T11:21:43Z</time>
      </trkpt>
      <trkpt lat="49.41077" lon="0.19153">
        <ele>90.6</ele>
        <time>2015-10-18T11:21:44Z</time>
      </trkpt>
      <trkpt lat="49.41077" lon="0.19154">
        <ele>88.9</ele>
        <time>2015-10-18T11:21:45Z</time>
      </trkpt>
      <trkpt lat="49.41077" lon="0.19156">
        <ele>87.5</ele>
        <time>2015-10-18T11:21:46Z</time>
      </trkpt>
      <trkpt lat="49.41076" lon="0.19157">
        <ele>88.9</ele>
        <time>2015-10-18T11:21:47Z</time>
      </trkpt>
      <trkpt lat="49.41076" lon="0.19158">
        <ele>89.8</ele>
        <time>2015-10-18T11:21:48Z</time>
      </trkpt>
      <trkpt lat="49.41075" lon="0.19159">
        <ele>90.6</ele>
        <time>2015-10-18T11:21:49Z</time>
      </trkpt>
      <trkpt lat="49.41075" lon="0.1916">
        <ele>91.1</ele>
        <time>2015-10-18T11:21:50Z</time>
      </trkpt>
      <trkpt lat="49.41074" lon="0.19161">
        <ele>91.6</ele>
        <time>2015-10-18T11:21:51Z</time>
      </trkpt>
      <trkpt lat="49.41073" lon="0.19162">
        <ele>91.9</ele>
        <time>2015-10-18T11:21:52Z</time>
      </trkpt>
      <trkpt lat="49.41072" lon="0.19162">
        <ele>92.1</ele>
        <time>2015-10-18T11:21:53Z</time>
      </trkpt>
      <trkpt lat="49.41072" lon="0.19163">
        <ele>92.3</ele>
        <time>2015-10-18T11:21:54Z</time>
      </trkpt>
      <trkpt lat="49.41071" lon="0.19164">
        <ele>92.4</ele>
        <time>2015-10-18T11:21:55Z</time>
      </trkpt>
      <trkpt lat="49.41067" lon="0.19167">
        <ele>92.5</ele>
        <time>2015-10-18T11:21:59Z</time>
      </trkpt>
      <trkpt lat="49.41066" lon="0.19167">
        <ele>92.3</ele>
        <time>2015-10-18T11:22:00Z</time>
      </trkpt>
      <trkpt lat="49.41057" lon="0.19175">
        <ele>92.9</ele>
        <time>2015-10-18T11:22:10Z</time>
      </trkpt>
      <trkpt lat="49.41054" lon="0.19177">
        <ele>93.7</ele>
        <time>2015-10-18T11:22:13Z</time>
      </trkpt>
      <trkpt lat="49.41053" lon="0.19178">
        <ele>93.9</ele>
        <time>2015-10-18T11:22:14Z</time>
      </trkpt>
      <trkpt lat="49.41018" lon="0.19196">
        <ele>95.1</ele>
        <time>2015-10-18T11:22:48Z</time>
      </trkpt>
      <trkpt lat="49.41017" lon="0.19197">
        <ele>95.2</ele>
        <time>2015-10-18T11:22:49Z</time>
      </trkpt>
      <trkpt lat="49.41014" lon="0.192">
        <ele>94.9</ele>
        <time>2015-10-18T11:22:52Z</time>
      </trkpt>
      <trkpt lat="49.41014" lon="0.19201">
        <ele>94.8</ele>
        <time>2015-10-18T11:22:53Z</time>
      </trkpt>
      <trkpt lat="49.41011" lon="0.19204">
        <ele>95.1</ele>
        <time>2015-10-18T11:22:56Z</time>
      </trkpt>
      <trkpt lat="49.4101" lon="0.19205">
        <ele>95.3</ele>
        <time>2015-10-18T11:22:57Z</time>
      </trkpt>
      <trkpt lat="49.41007" lon="0.19208">
        <ele>95.6</ele>
        <time>2015-10-18T11:23:00Z</time>
      </trkpt>
      <trkpt lat="49.40999" lon="0.19216">
        <ele>96.1</ele>
        <time>2015-10-18T11:23:09Z</time>
      </trkpt>
      <trkpt lat="49.40998" lon="0.19216">
        <ele>96.1</ele>
        <time>2015-10-18T11:23:10Z</time>
      </trkpt>
      <trkpt lat="49.40998" lon="0.19216">
        <ele>96.1</ele>
        <time>2015-10-18T11:23:11Z</time>
      </trkpt>
      <trkpt lat="49.40998" lon="0.19217">
        <ele>96.1</ele>
        <time>2015-10-18T11:23:12Z</time>
      </trkpt>
      <trkpt lat="49.40997" lon="0.19217">
        <ele>96.1</ele>
        <time>2015-10-18T11:23:13Z</time>
      </trkpt>
      <trkpt lat="49.40996" lon="0.19218">
        <ele>96.1</ele>
        <time>2015-10-18T11:23:14Z</time>
      </trkpt>
      <trkpt lat="49.40993" lon="0.19221">
        <ele>96.1</ele>
        <time>2015-10-18T11:23:17Z</time>
      </trkpt>
      <trkpt lat="49.40992" lon="0.19222">
        <ele>96.3</ele>
        <time>2015-10-18T11:23:18Z</time>
      </trkpt>
      <trkpt lat="49.40991" lon="0.19223">
        <ele>96.5</ele>
        <time>2015-10-18T11:23:19Z</time>
      </trkpt>
      <trkpt lat="49.40989" lon="0.19224">
        <ele>96.6</ele>
        <time>2015-10-18T11:23:20Z</time>
      </trkpt>
      <trkpt lat="49.40988" lon="0.19225">
        <ele>96.7</ele>
        <time>2015-10-18T11:23:21Z</time>
      </trkpt>
      <trkpt lat="49.40986" lon="0.19226">
        <ele>96.8</ele>
        <time>2015-10-18T11:23:22Z</time>
      </trkpt>
      <trkpt lat="49.40985" lon="0.19227">
        <ele>96.8</ele>
        <time>2015-10-18T11:23:23Z</time>
      </trkpt>
      <trkpt lat="49.40984" lon="0.19228">
        <ele>96.7</ele>
        <time>2015-10-18T11:23:24Z</time>
      </trkpt>
      <trkpt lat="49.40973" lon="0.19237">
        <ele>96.4</ele>
        <time>2015-10-18T11:23:33Z</time>
      </trkpt>
      <trkpt lat="49.40972" lon="0.19238">
        <ele>96.5</ele>
        <time>2015-10-18T11:23:34Z</time>
      </trkpt>
      <trkpt lat="49.40971" lon="0.19239">
        <ele>96.6</ele>
        <time>2015-10-18T11:23:35Z</time>
      </trkpt>
      <trkpt lat="49.40971" lon="0.1924">
        <ele>96.5</ele>
        <time>2015-10-18T11:23:36Z</time>
      </trkpt>
      <trkpt lat="49.4097" lon="0.19241">
        <ele>96.4</ele>
        <time>2015-10-18T11:23:37Z</time>
      </trkpt>
      <trkpt lat="49.4097" lon="0.19242">
        <ele>96.4</ele>
        <time>2015-10-18T11:23:38Z</time>
      </trkpt>
      <trkpt lat="49.40969" lon="0.19243">
        <ele>96.3</ele>
        <time>2015-10-18T11:23:39Z</time>
      </trkpt>
      <trkpt lat="49.40968" lon="0.19244">
        <ele>96.3</ele>
        <time>2015-10-18T11:23:40Z</time>
      </trkpt>
      <trkpt lat="49.40964" lon="0.1925">
        <ele>97</ele>
        <time>2015-10-18T11:23:45Z</time>
      </trkpt>
      <trkpt lat="49.40963" lon="0.19251">
        <ele>97.2</ele>
        <time>2015-10-18T11:23:46Z</time>
      </trkpt>
      <trkpt lat="49.40963" lon="0.19252">
        <ele>97.1</ele>
        <time>2015-10-18T11:23:47Z</time>
      </trkpt>
      <trkpt lat="49.40962" lon="0.19253">
        <ele>97.1</ele>
        <time>2015-10-18T11:23:48Z</time>
      </trkpt>
      <trkpt lat="49.40961" lon="0.19255">
        <ele>97</ele>
        <time>2015-10-18T11:23:50Z</time>
      </trkpt>
      <trkpt lat="49.40961" lon="0.19256">
        <ele>97</ele>
        <time>2015-10-18T11:23:51Z</time>
      </trkpt>
      <trkpt lat="49.40961" lon="0.19256">
        <ele>97</ele>
        <time>2015-10-18T11:23:52Z</time>
      </trkpt>
      <trkpt lat="49.4096" lon="0.19257">
        <ele>97</ele>
        <time>2015-10-18T11:23:53Z</time>
      </trkpt>
      <trkpt lat="49.40957" lon="0.19257">
        <ele>97</ele>
        <time>2015-10-18T11:23:57Z</time>
      </trkpt>
      <trkpt lat="49.40956" lon="0.19257">
        <ele>97</ele>
        <time>2015-10-18T11:23:58Z</time>
      </trkpt>
      <trkpt lat="49.40956" lon="0.19258">
        <ele>97.2</ele>
        <time>2015-10-18T11:23:59Z</time>
      </trkpt>
      <trkpt lat="49.40955" lon="0.19258">
        <ele>97.3</ele>
        <time>2015-10-18T11:24:00Z</time>
      </trkpt>
      <trkpt lat="49.40955" lon="0.19259">
        <ele>97.5</ele>
        <time>2015-10-18T11:24:01Z</time>
      </trkpt>
      <trkpt lat="49.40954" lon="0.19259">
        <ele>97.6</ele>
        <time>2015-10-18T11:24:02Z</time>
      </trkpt>
      <trkpt lat="49.4095" lon="0.19263">
        <ele>97</ele>
        <time>2015-10-18T11:24:06Z</time>
      </trkpt>
      <trkpt lat="49.40915" lon="0.19295">
        <ele>98</ele>
        <time>2015-10-18T11:24:39Z</time>
      </trkpt>
      <trkpt lat="49.40914" lon="0.19295">
        <ele>97.7</ele>
        <time>2015-10-18T11:24:40Z</time>
      </trkpt>
      <trkpt lat="49.40913" lon="0.19296">
        <ele>97.8</ele>
        <time>2015-10-18T11:24:41Z</time>
      </trkpt>
      <trkpt lat="49.40911" lon="0.19297">
        <ele>97.8</ele>
        <time>2015-10-18T11:24:43Z</time>
      </trkpt>
      <trkpt lat="49.40908" lon="0.19298">
        <ele>98.3</ele>
        <time>2015-10-18T11:24:46Z</time>
      </trkpt>
      <trkpt lat="49.40899" lon="0.19302">
        <ele>98.2</ele>
        <time>2015-10-18T11:24:54Z</time>
      </trkpt>
      <trkpt lat="49.40898" lon="0.19302">
        <ele>98.3</ele>
        <time>2015-10-18T11:24:55Z</time>
      </trkpt>
      <trkpt lat="49.40897" lon="0.19302">
        <ele>98.4</ele>
        <time>2015-10-18T11:24:56Z</time>
      </trkpt>
      <trkpt lat="49.40896" lon="0.19303">
        <ele>98.5</ele>
        <time>2015-10-18T11:24:57Z</time>
      </trkpt>
      <trkpt lat="49.40895" lon="0.19303">
        <ele>98.5</ele>
        <time>2015-10-18T11:24:58Z</time>
      </trkpt>
      <trkpt lat="49.40894" lon="0.19304">
        <ele>98.6</ele>
        <time>2015-10-18T11:24:59Z</time>
      </trkpt>
      <trkpt lat="49.40893" lon="0.19304">
        <ele>98.6</ele>
        <time>2015-10-18T11:25:00Z</time>
      </trkpt>
      <trkpt lat="49.40893" lon="0.19304">
        <ele>98.6</ele>
        <time>2015-10-18T11:25:01Z</time>
      </trkpt>
      <trkpt lat="49.40892" lon="0.19304">
        <ele>98.2</ele>
        <time>2015-10-18T11:25:02Z</time>
      </trkpt>
      <trkpt lat="49.40892" lon="0.19305">
        <ele>97.9</ele>
        <time>2015-10-18T11:25:03Z</time>
      </trkpt>
      <trkpt lat="49.40891" lon="0.19305">
        <ele>97.7</ele>
        <time>2015-10-18T11:25:04Z</time>
      </trkpt>
      <trkpt lat="49.40891" lon="0.19305">
        <ele>97.9</ele>
        <time>2015-10-18T11:25:05Z</time>
      </trkpt>
      <trkpt lat="49.4089" lon="0.19305">
        <ele>98.1</ele>
        <time>2015-10-18T11:25:06Z</time>
      </trkpt>
      <trkpt lat="49.40889" lon="0.19306">
        <ele>98.2</ele>
        <time>2015-10-18T11:25:07Z</time>
      </trkpt>
      <trkpt lat="49.40879" lon="0.19307">
        <ele>98.2</ele>
        <time>2015-10-18T11:25:15Z</time>
      </trkpt>
      <trkpt lat="49.40874" lon="0.19308">
        <ele>98</ele>
        <time>2015-10-18T11:25:19Z</time>
      </trkpt>
      <trkpt lat="49.40873" lon="0.19308">
        <ele>97.9</ele>
        <time>2015-10-18T11:25:20Z</time>
      </trkpt>
      <trkpt lat="49.40872" lon="0.19308">
        <ele>97.9</ele>
        <time>2015-10-18T11:25:21Z</time>
      </trkpt>
      <trkpt lat="49.40868" lon="0.1931">
        <ele>98.2</ele>
        <time>2015-10-18T11:25:24Z</time>
      </trkpt>
      <trkpt lat="49.40867" lon="0.19311">
        <ele>98.3</ele>
        <time>2015-10-18T11:25:25Z</time>
      </trkpt>
      <trkpt lat="49.40844" lon="0.1932">
        <ele>98.7</ele>
        <time>2015-10-18T11:25:40Z</time>
      </trkpt>
      <trkpt lat="49.40843" lon="0.1932">
        <ele>98.9</ele>
        <time>2015-10-18T11:25:41Z</time>
      </trkpt>
      <trkpt lat="49.40829" lon="0.1933">
        <ele>99</ele>
        <time>2015-10-18T11:25:54Z</time>
      </trkpt>
      <trkpt lat="49.40826" lon="0.19334">
        <ele>98.8</ele>
        <time>2015-10-18T11:25:57Z</time>
      </trkpt>
      <trkpt lat="49.40811" lon="0.19348">
        <ele>98.9</ele>
        <time>2015-10-18T11:26:12Z</time>
      </trkpt>
      <trkpt lat="49.4081" lon="0.19349">
        <ele>98.9</ele>
        <time>2015-10-18T11:26:13Z</time>
      </trkpt>
      <trkpt lat="49.40809" lon="0.19352">
        <ele>99.7</ele>
        <time>2015-10-18T11:26:16Z</time>
      </trkpt>
      <trkpt lat="49.40808" lon="0.19352">
        <ele>99.4</ele>
        <time>2015-10-18T11:26:17Z</time>
      </trkpt>
      <trkpt lat="49.40806" lon="0.19354">
        <ele>99</ele>
        <time>2015-10-18T11:26:20Z</time>
      </trkpt>
      <trkpt lat="49.40805" lon="0.19355">
        <ele>98.9</ele>
        <time>2015-10-18T11:26:21Z</time>
      </trkpt>
      <trkpt lat="49.40804" lon="0.19356">
        <ele>98.8</ele>
        <time>2015-10-18T11:26:24Z</time>
      </trkpt>
      <trkpt lat="49.40803" lon="0.19357">
        <ele>98.7</ele>
        <time>2015-10-18T11:26:25Z</time>
      </trkpt>
      <trkpt lat="49.40802" lon="0.19358">
        <ele>99.5</ele>
        <time>2015-10-18T11:26:29Z</time>
      </trkpt>
      <trkpt lat="49.40802" lon="0.19359">
        <ele>99.8</ele>
        <time>2015-10-18T11:26:31Z</time>
      </trkpt>
      <trkpt lat="49.408" lon="0.1936">
        <ele>99.7</ele>
        <time>2015-10-18T11:26:33Z</time>
      </trkpt>
      <trkpt lat="49.40799" lon="0.19361">
        <ele>99.6</ele>
        <time>2015-10-18T11:26:34Z</time>
      </trkpt>
      <trkpt lat="49.40798" lon="0.19361">
        <ele>99.6</ele>
        <time>2015-10-18T11:26:35Z</time>
      </trkpt>
      <trkpt lat="49.40798" lon="0.19362">
        <ele>99.6</ele>
        <time>2015-10-18T11:26:36Z</time>
      </trkpt>
      <trkpt lat="49.40797" lon="0.19362">
        <ele>99.6</ele>
        <time>2015-10-18T11:26:37Z</time>
      </trkpt>
      <trkpt lat="49.40797" lon="0.19362">
        <ele>99.5</ele>
        <time>2015-10-18T11:26:38Z</time>
      </trkpt>
      <trkpt lat="49.40796" lon="0.19362">
        <ele>99.5</ele>
        <time>2015-10-18T11:26:39Z</time>
      </trkpt>
      <trkpt lat="49.40795" lon="0.19362">
        <ele>99.5</ele>
        <time>2015-10-18T11:26:40Z</time>
      </trkpt>
      <trkpt lat="49.40794" lon="0.19362">
        <ele>99.3</ele>
        <time>2015-10-18T11:26:41Z</time>
      </trkpt>
      <trkpt lat="49.40792" lon="0.19362">
        <ele>99.1</ele>
        <time>2015-10-18T11:26:42Z</time>
      </trkpt>
      <trkpt lat="49.40791" lon="0.19362">
        <ele>99</ele>
        <time>2015-10-18T11:26:43Z</time>
      </trkpt>
      <trkpt lat="49.4079" lon="0.19362">
        <ele>99.3</ele>
        <time>2015-10-18T11:26:44Z</time>
      </trkpt>
      <trkpt lat="49.40789" lon="0.19362">
        <ele>99.6</ele>
        <time>2015-10-18T11:26:45Z</time>
      </trkpt>
      <trkpt lat="49.40788" lon="0.19363">
        <ele>99.8</ele>
        <time>2015-10-18T11:26:46Z</time>
      </trkpt>
      <trkpt lat="49.40783" lon="0.19364">
        <ele>99.1</ele>
        <time>2015-10-18T11:26:49Z</time>
      </trkpt>
      <trkpt lat="49.40781" lon="0.19365">
        <ele>99.2</ele>
        <time>2015-10-18T11:26:50Z</time>
      </trkpt>
      <trkpt lat="49.40773" lon="0.1937">
        <ele>99.6</ele>
        <time>2015-10-18T11:26:56Z</time>
      </trkpt>
      <trkpt lat="49.40718" lon="0.19404">
        <ele>99.6</ele>
        <time>2015-10-18T11:27:40Z</time>
      </trkpt>
      <trkpt lat="49.40717" lon="0.19405">
        <ele>99.3</ele>
        <time>2015-10-18T11:27:41Z</time>
      </trkpt>
      <trkpt lat="49.40716" lon="0.19407">
        <ele>99.2</ele>
        <time>2015-10-18T11:27:42Z</time>
      </trkpt>
      <trkpt lat="49.40714" lon="0.19408">
        <ele>99</ele>
        <time>2015-10-18T11:27:43Z</time>
      </trkpt>
      <trkpt lat="49.40712" lon="0.19409">
        <ele>98.9</ele>
        <time>2015-10-18T11:27:45Z</time>
      </trkpt>
      <trkpt lat="49.40706" lon="0.1941">
        <ele>99.2</ele>
        <time>2015-10-18T11:27:49Z</time>
      </trkpt>
      <trkpt lat="49.40686" lon="0.19414">
        <ele>99.4</ele>
        <time>2015-10-18T11:28:05Z</time>
      </trkpt>
      <trkpt lat="49.40684" lon="0.19414">
        <ele>99</ele>
        <time>2015-10-18T11:28:06Z</time>
      </trkpt>
      <trkpt lat="49.40662" lon="0.1941">
        <ele>99.9</ele>
        <time>2015-10-18T11:28:23Z</time>
      </trkpt>
      <trkpt lat="49.40661" lon="0.1941">
        <ele>99.8</ele>
        <time>2015-10-18T11:28:24Z</time>
      </trkpt>
      <trkpt lat="49.4064" lon="0.19412">
        <ele>100.4</ele>
        <time>2015-10-18T11:28:41Z</time>
      </trkpt>
      <trkpt lat="49.40639" lon="0.19413">
        <ele>100.4</ele>
        <time>2015-10-18T11:28:42Z</time>
      </trkpt>
      <trkpt lat="49.40633" lon="0.19419">
        <ele>100.3</ele>
        <time>2015-10-18T11:28:47Z</time>
      </trkpt>
      <trkpt lat="49.40633" lon="0.19421">
        <ele>100.3</ele>
        <time>2015-10-18T11:28:48Z</time>
      </trkpt>
      <trkpt lat="49.40631" lon="0.19428">
        <ele>100.3</ele>
        <time>2015-10-18T11:28:52Z</time>
      </trkpt>
      <trkpt lat="49.40631" lon="0.1943">
        <ele>99.9</ele>
        <time>2015-10-18T11:28:53Z</time>
      </trkpt>
      <trkpt lat="49.40631" lon="0.19432">
        <ele>99.6</ele>
        <time>2015-10-18T11:28:54Z</time>
      </trkpt>
      <trkpt lat="49.40631" lon="0.19434">
        <ele>99.4</ele>
        <time>2015-10-18T11:28:55Z</time>
      </trkpt>
      <trkpt lat="49.40631" lon="0.19436">
        <ele>99.6</ele>
        <time>2015-10-18T11:28:56Z</time>
      </trkpt>
      <trkpt lat="49.40631" lon="0.19437">
        <ele>99.8</ele>
        <time>2015-10-18T11:28:57Z</time>
      </trkpt>
      <trkpt lat="49.40632" lon="0.19439">
        <ele>99.9</ele>
        <time>2015-10-18T11:28:58Z</time>
      </trkpt>
      <trkpt lat="49.40632" lon="0.1944">
        <ele>100</ele>
        <time>2015-10-18T11:28:59Z</time>
      </trkpt>
      <trkpt lat="49.40632" lon="0.19442">
        <ele>100.1</ele>
        <time>2015-10-18T11:29:00Z</time>
      </trkpt>
      <trkpt lat="49.40632" lon="0.19444">
        <ele>100.2</ele>
        <time>2015-10-18T11:29:01Z</time>
      </trkpt>
      <trkpt lat="49.40633" lon="0.19445">
        <ele>100.2</ele>
        <time>2015-10-18T11:29:02Z</time>
      </trkpt>
      <trkpt lat="49.40633" lon="0.19447">
        <ele>100.2</ele>
        <time>2015-10-18T11:29:03Z</time>
      </trkpt>
      <trkpt lat="49.40634" lon="0.19449">
        <ele>100.3</ele>
        <time>2015-10-18T11:29:04Z</time>
      </trkpt>
      <trkpt lat="49.40634" lon="0.1945">
        <ele>100.3</ele>
        <time>2015-10-18T11:29:05Z</time>
      </trkpt>
      <trkpt lat="49.40635" lon="0.19452">
        <ele>100.3</ele>
        <time>2015-10-18T11:29:06Z</time>
      </trkpt>
      <trkpt lat="49.40635" lon="0.19454">
        <ele>100.3</ele>
        <time>2015-10-18T11:29:07Z</time>
      </trkpt>
      <trkpt lat="49.40635" lon="0.19456">
        <ele>99.9</ele>
        <time>2015-10-18T11:29:08Z</time>
      </trkpt>
      <trkpt lat="49.40636" lon="0.19457">
        <ele>99.6</ele>
        <time>2015-10-18T11:29:09Z</time>
      </trkpt>
      <trkpt lat="49.40637" lon="0.19463">
        <ele>99</ele>
        <time>2015-10-18T11:29:12Z</time>
      </trkpt>
      <trkpt lat="49.40637" lon="0.19465">
        <ele>98.9</ele>
        <time>2015-10-18T11:29:13Z</time>
      </trkpt>
      <trkpt lat="49.40638" lon="0.1947">
        <ele>99.3</ele>
        <time>2015-10-18T11:29:16Z</time>
      </trkpt>
      <trkpt lat="49.4064" lon="0.19499">
        <ele>99.8</ele>
        <time>2015-10-18T11:29:32Z</time>
      </trkpt>
      <trkpt lat="49.40641" lon="0.19501">
        <ele>100.2</ele>
        <time>2015-10-18T11:29:33Z</time>
      </trkpt>
      <trkpt lat="49.40641" lon="0.19502">
        <ele>100.4</ele>
        <time>2015-10-18T11:29:34Z</time>
      </trkpt>
      <trkpt lat="49.40642" lon="0.19504">
        <ele>100.4</ele>
        <time>2015-10-18T11:29:35Z</time>
      </trkpt>
      <trkpt lat="49.40642" lon="0.19506">
        <ele>100.4</ele>
        <time>2015-10-18T11:29:36Z</time>
      </trkpt>
      <trkpt lat="49.40643" lon="0.19508">
        <ele>100.2</ele>
        <time>2015-10-18T11:29:37Z</time>
      </trkpt>
      <trkpt lat="49.40643" lon="0.1951">
        <ele>100</ele>
        <time>2015-10-18T11:29:38Z</time>
      </trkpt>
      <trkpt lat="49.40643" lon="0.19512">
        <ele>99.9</ele>
        <time>2015-10-18T11:29:39Z</time>
      </trkpt>
      <trkpt lat="49.40643" lon="0.19514">
        <ele>99.8</ele>
        <time>2015-10-18T11:29:40Z</time>
      </trkpt>
      <trkpt lat="49.40643" lon="0.19516">
        <ele>99.7</ele>
        <time>2015-10-18T11:29:41Z</time>
      </trkpt>
      <trkpt lat="49.40642" lon="0.19518">
        <ele>99.6</ele>
        <time>2015-10-18T11:29:42Z</time>
      </trkpt>
      <trkpt lat="49.40642" lon="0.1952">
        <ele>99.6</ele>
        <time>2015-10-18T11:29:43Z</time>
      </trkpt>
      <trkpt lat="49.40641" lon="0.19522">
        <ele>99.6</ele>
        <time>2015-10-18T11:29:44Z</time>
      </trkpt>
      <trkpt lat="49.4064" lon="0.19523">
        <ele>99.6</ele>
        <time>2015-10-18T11:29:45Z</time>
      </trkpt>
      <trkpt lat="49.4064" lon="0.19526">
        <ele>99.5</ele>
        <time>2015-10-18T11:29:46Z</time>
      </trkpt>
      <trkpt lat="49.40639" lon="0.19528">
        <ele>99.5</ele>
        <time>2015-10-18T11:29:47Z</time>
      </trkpt>
      <trkpt lat="49.40639" lon="0.19531">
        <ele>99.5</ele>
        <time>2015-10-18T11:29:48Z</time>
      </trkpt>
      <trkpt lat="49.40638" lon="0.19533">
        <ele>99.5</ele>
        <time>2015-10-18T11:29:49Z</time>
      </trkpt>
      <trkpt lat="49.40637" lon="0.19535">
        <ele>99.5</ele>
        <time>2015-10-18T11:29:50Z</time>
      </trkpt>
      <trkpt lat="49.40636" lon="0.1954">
        <ele>99.9</ele>
        <time>2015-10-18T11:29:53Z</time>
      </trkpt>
      <trkpt lat="49.40635" lon="0.19542">
        <ele>100</ele>
        <time>2015-10-18T11:29:54Z</time>
      </trkpt>
      <trkpt lat="49.40635" lon="0.19544">
        <ele>100.1</ele>
        <time>2015-10-18T11:29:55Z</time>
      </trkpt>
      <trkpt lat="49.40634" lon="0.19547">
        <ele>100.1</ele>
        <time>2015-10-18T11:29:56Z</time>
      </trkpt>
      <trkpt lat="49.40629" lon="0.19586">
        <ele>99.9</ele>
        <time>2015-10-18T11:30:14Z</time>
      </trkpt>
      <trkpt lat="49.40627" lon="0.19589">
        <ele>100</ele>
        <time>2015-10-18T11:30:15Z</time>
      </trkpt>
      <trkpt lat="49.40624" lon="0.19597">
        <ele>99.7</ele>
        <time>2015-10-18T11:30:18Z</time>
      </trkpt>
      <trkpt lat="49.40624" lon="0.19599">
        <ele>99.6</ele>
        <time>2015-10-18T11:30:19Z</time>
      </trkpt>
      <trkpt lat="49.4062" lon="0.1961">
        <ele>99.7</ele>
        <time>2015-10-18T11:30:25Z</time>
      </trkpt>
      <trkpt lat="49.4062" lon="0.19612">
        <ele>99.9</ele>
        <time>2015-10-18T11:30:26Z</time>
      </trkpt>
      <trkpt lat="49.40622" lon="0.19638">
        <ele>100.3</ele>
        <time>2015-10-18T11:30:38Z</time>
      </trkpt>
      <trkpt lat="49.40627" lon="0.19667">
        <ele>99.3</ele>
        <time>2015-10-18T11:30:51Z</time>
      </trkpt>
      <trkpt lat="49.40627" lon="0.19669">
        <ele>95.4</ele>
        <time>2015-10-18T11:30:52Z</time>
      </trkpt>
      <trkpt lat="49.40627" lon="0.19679">
        <ele>96.1</ele>
        <time>2015-10-18T11:30:57Z</time>
      </trkpt>
      <trkpt lat="49.40628" lon="0.197">
        <ele>100</ele>
        <time>2015-10-18T11:31:07Z</time>
      </trkpt>
      <trkpt lat="49.40628" lon="0.19704">
        <ele>100.2</ele>
        <time>2015-10-18T11:31:09Z</time>
      </trkpt>
      <trkpt lat="49.40627" lon="0.19713">
        <ele>99.6</ele>
        <time>2015-10-18T11:31:14Z</time>
      </trkpt>
      <trkpt lat="49.40626" lon="0.19726">
        <ele>100.1</ele>
        <time>2015-10-18T11:31:21Z</time>
      </trkpt>
      <trkpt lat="49.40626" lon="0.19728">
        <ele>100.2</ele>
        <time>2015-10-18T11:31:22Z</time>
      </trkpt>
      <trkpt lat="49.40626" lon="0.19741">
        <ele>100.1</ele>
        <time>2015-10-18T11:31:28Z</time>
      </trkpt>
      <trkpt lat="49.40626" lon="0.19744">
        <ele>99.8</ele>
        <time>2015-10-18T11:31:30Z</time>
      </trkpt>
      <trkpt lat="49.40626" lon="0.1975">
        <ele>100.1</ele>
        <time>2015-10-18T11:31:33Z</time>
      </trkpt>
      <trkpt lat="49.40626" lon="0.19772">
        <ele>99.9</ele>
        <time>2015-10-18T11:31:44Z</time>
      </trkpt>
      <trkpt lat="49.40626" lon="0.19774">
        <ele>99.8</ele>
        <time>2015-10-18T11:31:45Z</time>
      </trkpt>
      <trkpt lat="49.40622" lon="0.19809">
        <ele>98.9</ele>
        <time>2015-10-18T11:32:02Z</time>
      </trkpt>
      <trkpt lat="49.40622" lon="0.19811">
        <ele>98.8</ele>
        <time>2015-10-18T11:32:03Z</time>
      </trkpt>
      <trkpt lat="49.40621" lon="0.19824">
        <ele>98</ele>
        <time>2015-10-18T11:32:11Z</time>
      </trkpt>
      <trkpt lat="49.40621" lon="0.19828">
        <ele>98.4</ele>
        <time>2015-10-18T11:32:13Z</time>
      </trkpt>
      <trkpt lat="49.40622" lon="0.19842">
        <ele>98.1</ele>
        <time>2015-10-18T11:32:19Z</time>
      </trkpt>
      <trkpt lat="49.40624" lon="0.19888">
        <ele>98.7</ele>
        <time>2015-10-18T11:32:42Z</time>
      </trkpt>
      <trkpt lat="49.40623" lon="0.19889">
        <ele>98.9</ele>
        <time>2015-10-18T11:32:43Z</time>
      </trkpt>
      <trkpt lat="49.40623" lon="0.19893">
        <ele>99.2</ele>
        <time>2015-10-18T11:32:45Z</time>
      </trkpt>
      <trkpt lat="49.40622" lon="0.19897">
        <ele>98.9</ele>
        <time>2015-10-18T11:32:47Z</time>
      </trkpt>
      <trkpt lat="49.40621" lon="0.19901">
        <ele>98.8</ele>
        <time>2015-10-18T11:32:49Z</time>
      </trkpt>
      <trkpt lat="49.40621" lon="0.19903">
        <ele>98.8</ele>
        <time>2015-10-18T11:32:50Z</time>
      </trkpt>
      <trkpt lat="49.4062" lon="0.19904">
        <ele>98.7</ele>
        <time>2015-10-18T11:32:51Z</time>
      </trkpt>
      <trkpt lat="49.40619" lon="0.19906">
        <ele>98.9</ele>
        <time>2015-10-18T11:32:52Z</time>
      </trkpt>
      <trkpt lat="49.40619" lon="0.19907">
        <ele>99.1</ele>
        <time>2015-10-18T11:32:53Z</time>
      </trkpt>
      <trkpt lat="49.40618" lon="0.19908">
        <ele>99.2</ele>
        <time>2015-10-18T11:32:54Z</time>
      </trkpt>
      <trkpt lat="49.40617" lon="0.1991">
        <ele>99</ele>
        <time>2015-10-18T11:32:55Z</time>
      </trkpt>
      <trkpt lat="49.40615" lon="0.19913">
        <ele>98.8</ele>
        <time>2015-10-18T11:32:58Z</time>
      </trkpt>
      <trkpt lat="49.40613" lon="0.19914">
        <ele>98.7</ele>
        <time>2015-10-18T11:33:00Z</time>
      </trkpt>
      <trkpt lat="49.40595" lon="0.19926">
        <ele>98.8</ele>
        <time>2015-10-18T11:33:15Z</time>
      </trkpt>
      <trkpt lat="49.40594" lon="0.19926">
        <ele>99</ele>
        <time>2015-10-18T11:33:16Z</time>
      </trkpt>
      <trkpt lat="49.40573" lon="0.19941">
        <ele>99.8</ele>
        <time>2015-10-18T11:33:35Z</time>
      </trkpt>
      <trkpt lat="49.40573" lon="0.19941">
        <ele>99.7</ele>
        <time>2015-10-18T11:33:36Z</time>
      </trkpt>
      <trkpt lat="49.40572" lon="0.19942">
        <ele>99.8</ele>
        <time>2015-10-18T11:33:37Z</time>
      </trkpt>
      <trkpt lat="49.40549" lon="0.19954">
        <ele>99.8</ele>
        <time>2015-10-18T11:33:56Z</time>
      </trkpt>
      <trkpt lat="49.40547" lon="0.19954">
        <ele>99.9</ele>
        <time>2015-10-18T11:33:58Z</time>
      </trkpt>
      <trkpt lat="49.4054" lon="0.19957">
        <ele>100.2</ele>
        <time>2015-10-18T11:34:03Z</time>
      </trkpt>
      <trkpt lat="49.4051" lon="0.19969">
        <ele>100.3</ele>
        <time>2015-10-18T11:34:24Z</time>
      </trkpt>
      <trkpt lat="49.40509" lon="0.1997">
        <ele>100.3</ele>
        <time>2015-10-18T11:34:25Z</time>
      </trkpt>
      <trkpt lat="49.40505" lon="0.19974">
        <ele>100.3</ele>
        <time>2015-10-18T11:34:28Z</time>
      </trkpt>
      <trkpt lat="49.40504" lon="0.19979">
        <ele>100.3</ele>
        <time>2015-10-18T11:34:30Z</time>
      </trkpt>
      <trkpt lat="49.40502" lon="0.19985">
        <ele>100.8</ele>
        <time>2015-10-18T11:34:33Z</time>
      </trkpt>
      <trkpt lat="49.40502" lon="0.19988">
        <ele>100.7</ele>
        <time>2015-10-18T11:34:34Z</time>
      </trkpt>
      <trkpt lat="49.40503" lon="0.20002">
        <ele>100.4</ele>
        <time>2015-10-18T11:34:41Z</time>
      </trkpt>
      <trkpt lat="49.40511" lon="0.20048">
        <ele>100.2</ele>
        <time>2015-10-18T11:35:04Z</time>
      </trkpt>
      <trkpt lat="49.40511" lon="0.20066">
        <ele>100.3</ele>
        <time>2015-10-18T11:35:13Z</time>
      </trkpt>
      <trkpt lat="49.40509" lon="0.20075">
        <ele>100</ele>
        <time>2015-10-18T11:35:17Z</time>
      </trkpt>
      <trkpt lat="49.40509" lon="0.20077">
        <ele>99.8</ele>
        <time>2015-10-18T11:35:18Z</time>
      </trkpt>
      <trkpt lat="49.40509" lon="0.20079">
        <ele>99.8</ele>
        <time>2015-10-18T11:35:19Z</time>
      </trkpt>
      <trkpt lat="49.40509" lon="0.20082">
        <ele>99.6</ele>
        <time>2015-10-18T11:35:21Z</time>
      </trkpt>
      <trkpt lat="49.40515" lon="0.20149">
        <ele>98.2</ele>
        <time>2015-10-18T11:35:51Z</time>
      </trkpt>
      <trkpt lat="49.40515" lon="0.20151">
        <ele>98.1</ele>
        <time>2015-10-18T11:35:52Z</time>
      </trkpt>
      <trkpt lat="49.40515" lon="0.20159">
        <ele>97.9</ele>
        <time>2015-10-18T11:35:56Z</time>
      </trkpt>
      <trkpt lat="49.40515" lon="0.20162">
        <ele>97.9</ele>
        <time>2015-10-18T11:35:57Z</time>
      </trkpt>
      <trkpt lat="49.40522" lon="0.20206">
        <ele>97.4</ele>
        <time>2015-10-18T11:36:17Z</time>
      </trkpt>
      <trkpt lat="49.40525" lon="0.20215">
        <ele>98.1</ele>
        <time>2015-10-18T11:36:22Z</time>
      </trkpt>
      <trkpt lat="49.40526" lon="0.20217">
        <ele>98</ele>
        <time>2015-10-18T11:36:23Z</time>
      </trkpt>
      <trkpt lat="49.40526" lon="0.20219">
        <ele>98</ele>
        <time>2015-10-18T11:36:24Z</time>
      </trkpt>
      <trkpt lat="49.40532" lon="0.20243">
        <ele>96.5</ele>
        <time>2015-10-18T11:36:36Z</time>
      </trkpt>
      <trkpt lat="49.40532" lon="0.20245">
        <ele>96.2</ele>
        <time>2015-10-18T11:36:37Z</time>
      </trkpt>
      <trkpt lat="49.40539" lon="0.20304">
        <ele>95.3</ele>
        <time>2015-10-18T11:37:05Z</time>
      </trkpt>
      <trkpt lat="49.4054" lon="0.20307">
        <ele>95.1</ele>
        <time>2015-10-18T11:37:06Z</time>
      </trkpt>
      <trkpt lat="49.40555" lon="0.20378">
        <ele>92.1</ele>
        <time>2015-10-18T11:37:38Z</time>
      </trkpt>
      <trkpt lat="49.40561" lon="0.20416">
        <ele>91.9</ele>
        <time>2015-10-18T11:37:56Z</time>
      </trkpt>
      <trkpt lat="49.40561" lon="0.2042">
        <ele>91.7</ele>
        <time>2015-10-18T11:37:58Z</time>
      </trkpt>
      <trkpt lat="49.40563" lon="0.20449">
        <ele>90.6</ele>
        <time>2015-10-18T11:38:12Z</time>
      </trkpt>
      <trkpt lat="49.40563" lon="0.20451">
        <ele>90.5</ele>
        <time>2015-10-18T11:38:13Z</time>
      </trkpt>
      <trkpt lat="49.40565" lon="0.20469">
        <ele>89.9</ele>
        <time>2015-10-18T11:38:22Z</time>
      </trkpt>
      <trkpt lat="49.40566" lon="0.20474">
        <ele>90.1</ele>
        <time>2015-10-18T11:38:24Z</time>
      </trkpt>
      <trkpt lat="49.40567" lon="0.20493">
        <ele>89.4</ele>
        <time>2015-10-18T11:38:32Z</time>
      </trkpt>
      <trkpt lat="49.4057" lon="0.20521">
        <ele>88.2</ele>
        <time>2015-10-18T11:38:45Z</time>
      </trkpt>
      <trkpt lat="49.4057" lon="0.20523">
        <ele>87.6</ele>
        <time>2015-10-18T11:38:46Z</time>
      </trkpt>
      <trkpt lat="49.40571" lon="0.20529">
        <ele>86.6</ele>
        <time>2015-10-18T11:38:49Z</time>
      </trkpt>
      <trkpt lat="49.40572" lon="0.20533">
        <ele>86</ele>
        <time>2015-10-18T11:38:51Z</time>
      </trkpt>
      <trkpt lat="49.40575" lon="0.2054">
        <ele>86.1</ele>
        <time>2015-10-18T11:38:55Z</time>
      </trkpt>
      <trkpt lat="49.40578" lon="0.20544">
        <ele>86.3</ele>
        <time>2015-10-18T11:38:58Z</time>
      </trkpt>
      <trkpt lat="49.40595" lon="0.20571">
        <ele>86.5</ele>
        <time>2015-10-18T11:39:16Z</time>
      </trkpt>
      <trkpt lat="49.40596" lon="0.20572">
        <ele>86.2</ele>
        <time>2015-10-18T11:39:17Z</time>
      </trkpt>
      <trkpt lat="49.40615" lon="0.20592">
        <ele>86.7</ele>
        <time>2015-10-18T11:39:33Z</time>
      </trkpt>
      <trkpt lat="49.40648" lon="0.2063">
        <ele>90.2</ele>
        <time>2015-10-18T11:40:09Z</time>
      </trkpt>
      <trkpt lat="49.40705" lon="0.20709">
        <ele>92.8</ele>
        <time>2015-10-18T11:41:06Z</time>
      </trkpt>
      <trkpt lat="49.40706" lon="0.20711">
        <ele>93</ele>
        <time>2015-10-18T11:41:07Z</time>
      </trkpt>
      <trkpt lat="49.40711" lon="0.20719">
        <ele>93.2</ele>
        <time>2015-10-18T11:41:13Z</time>
      </trkpt>
      <trkpt lat="49.40712" lon="0.2072">
        <ele>93.3</ele>
        <time>2015-10-18T11:41:14Z</time>
      </trkpt>
      <trkpt lat="49.40717" lon="0.20727">
        <ele>92.6</ele>
        <time>2015-10-18T11:41:19Z</time>
      </trkpt>
      <trkpt lat="49.40722" lon="0.20738">
        <ele>92.8</ele>
        <time>2015-10-18T11:41:25Z</time>
      </trkpt>
      <trkpt lat="49.40725" lon="0.20744">
        <ele>94.3</ele>
        <time>2015-10-18T11:41:29Z</time>
      </trkpt>
      <trkpt lat="49.40728" lon="0.20749">
        <ele>94.9</ele>
        <time>2015-10-18T11:41:32Z</time>
      </trkpt>
      <trkpt lat="49.40773" lon="0.20842">
        <ele>94.6</ele>
        <time>2015-10-18T11:42:28Z</time>
      </trkpt>
      <trkpt lat="49.40774" lon="0.20844">
        <ele>94.6</ele>
        <time>2015-10-18T11:42:29Z</time>
      </trkpt>
      <trkpt lat="49.40786" lon="0.20875">
        <ele>94.9</ele>
        <time>2015-10-18T11:42:50Z</time>
      </trkpt>
      <trkpt lat="49.40789" lon="0.20881">
        <ele>95.1</ele>
        <time>2015-10-18T11:42:54Z</time>
      </trkpt>
      <trkpt lat="49.40835" lon="0.20997">
        <ele>96.9</ele>
        <time>2015-10-18T11:44:01Z</time>
      </trkpt>
      <trkpt lat="49.40836" lon="0.20999">
        <ele>96.9</ele>
        <time>2015-10-18T11:44:02Z</time>
      </trkpt>
      <trkpt lat="49.40841" lon="0.21019">
        <ele>97.5</ele>
        <time>2015-10-18T11:44:12Z</time>
      </trkpt>
      <trkpt lat="49.40842" lon="0.21021">
        <ele>97.6</ele>
        <time>2015-10-18T11:44:13Z</time>
      </trkpt>
      <trkpt lat="49.40877" lon="0.21107">
        <ele>97.1</ele>
        <time>2015-10-18T11:44:56Z</time>
      </trkpt>
      <trkpt lat="49.40878" lon="0.21109">
        <ele>97.1</ele>
        <time>2015-10-18T11:44:57Z</time>
      </trkpt>
      <trkpt lat="49.40881" lon="0.21117">
        <ele>96.9</ele>
        <time>2015-10-18T11:45:02Z</time>
      </trkpt>
      <trkpt lat="49.40882" lon="0.21119">
        <ele>96.7</ele>
        <time>2015-10-18T11:45:03Z</time>
      </trkpt>
      <trkpt lat="49.40904" lon="0.21175">
        <ele>97.6</ele>
        <time>2015-10-18T11:45:37Z</time>
      </trkpt>
      <trkpt lat="49.40905" lon="0.21177">
        <ele>97.7</ele>
        <time>2015-10-18T11:45:38Z</time>
      </trkpt>
      <trkpt lat="49.40911" lon="0.21191">
        <ele>98.2</ele>
        <time>2015-10-18T11:45:47Z</time>
      </trkpt>
      <trkpt lat="49.40937" lon="0.2126">
        <ele>98</ele>
        <time>2015-10-18T11:46:21Z</time>
      </trkpt>
      <trkpt lat="49.40938" lon="0.21262">
        <ele>97.6</ele>
        <time>2015-10-18T11:46:22Z</time>
      </trkpt>
      <trkpt lat="49.40961" lon="0.21308">
        <ele>97.9</ele>
        <time>2015-10-18T11:46:48Z</time>
      </trkpt>
      <trkpt lat="49.40962" lon="0.21309">
        <ele>98.1</ele>
        <time>2015-10-18T11:46:49Z</time>
      </trkpt>
      <trkpt lat="49.40964" lon="0.2131">
        <ele>98.3</ele>
        <time>2015-10-18T11:46:51Z</time>
      </trkpt>
      <trkpt lat="49.40965" lon="0.21311">
        <ele>98.2</ele>
        <time>2015-10-18T11:46:52Z</time>
      </trkpt>
      <trkpt lat="49.40968" lon="0.21311">
        <ele>94.4</ele>
        <time>2015-10-18T11:46:55Z</time>
      </trkpt>
      <trkpt lat="49.40972" lon="0.21311">
        <ele>89.7</ele>
        <time>2015-10-18T11:46:57Z</time>
      </trkpt>
      <trkpt lat="49.40983" lon="0.2131">
        <ele>98.4</ele>
        <time>2015-10-18T11:47:03Z</time>
      </trkpt>
      <trkpt lat="49.41033" lon="0.21304">
        <ele>98.2</ele>
        <time>2015-10-18T11:47:35Z</time>
      </trkpt>
      <trkpt lat="49.41034" lon="0.21303">
        <ele>98.3</ele>
        <time>2015-10-18T11:47:36Z</time>
      </trkpt>
      <trkpt lat="49.41205" lon="0.21271">
        <ele>97.4</ele>
        <time>2015-10-18T11:49:36Z</time>
      </trkpt>
      <trkpt lat="49.41216" lon="0.2127">
        <ele>90.4</ele>
        <time>2015-10-18T11:49:44Z</time>
      </trkpt>
      <trkpt lat="49.41219" lon="0.2127">
        <ele>91.8</ele>
        <time>2015-10-18T11:49:46Z</time>
      </trkpt>
      <trkpt lat="49.41231" lon="0.21267">
        <ele>95.1</ele>
        <time>2015-10-18T11:49:55Z</time>
      </trkpt>
      <trkpt lat="49.41434" lon="0.21226">
        <ele>94.3</ele>
        <time>2015-10-18T11:52:17Z</time>
      </trkpt>
      <trkpt lat="49.41436" lon="0.21226">
        <ele>94.8</ele>
        <time>2015-10-18T11:52:18Z</time>
      </trkpt>
      <trkpt lat="49.4156" lon="0.21194">
        <ele>93.2</ele>
        <time>2015-10-18T11:53:42Z</time>
      </trkpt>
      <trkpt lat="49.41573" lon="0.21187">
        <ele>89.9</ele>
        <time>2015-10-18T11:53:54Z</time>
      </trkpt>
      <trkpt lat="49.41573" lon="0.21183">
        <ele>90.4</ele>
        <time>2015-10-18T11:54:04Z</time>
      </trkpt>
      <trkpt lat="49.41573" lon="0.21183">
        <ele>90.6</ele>
        <time>2015-10-18T11:54:05Z</time>
      </trkpt>
      <trkpt lat="49.41573" lon="0.21183">
        <ele>90.9</ele>
        <time>2015-10-18T11:54:06Z</time>
      </trkpt>
      <trkpt lat="49.41574" lon="0.21183">
        <ele>91.2</ele>
        <time>2015-10-18T11:54:07Z</time>
      </trkpt>
      <trkpt lat="49.4158" lon="0.21181">
        <ele>90.4</ele>
        <time>2015-10-18T11:54:12Z</time>
      </trkpt>
      <trkpt lat="49.41582" lon="0.2118">
        <ele>89.7</ele>
        <time>2015-10-18T11:54:13Z</time>
      </trkpt>
      <trkpt lat="49.41599" lon="0.21168">
        <ele>90.1</ele>
        <time>2015-10-18T11:54:32Z</time>
      </trkpt>
      <trkpt lat="49.41599" lon="0.21167">
        <ele>89.5</ele>
        <time>2015-10-18T11:54:33Z</time>
      </trkpt>
      <trkpt lat="49.41599" lon="0.21167">
        <ele>89.1</ele>
        <time>2015-10-18T11:54:34Z</time>
      </trkpt>
      <trkpt lat="49.416" lon="0.21167">
        <ele>88.7</ele>
        <time>2015-10-18T11:54:35Z</time>
      </trkpt>
      <trkpt lat="49.41601" lon="0.21166">
        <ele>89.8</ele>
        <time>2015-10-18T11:54:36Z</time>
      </trkpt>
      <trkpt lat="49.41612" lon="0.21162">
        <ele>88</ele>
        <time>2015-10-18T11:54:44Z</time>
      </trkpt>
      <trkpt lat="49.41613" lon="0.21161">
        <ele>89</ele>
        <time>2015-10-18T11:54:45Z</time>
      </trkpt>
      <trkpt lat="49.41628" lon="0.21153">
        <ele>90</ele>
        <time>2015-10-18T11:55:07Z</time>
      </trkpt>
      <trkpt lat="49.41628" lon="0.21153">
        <ele>89.9</ele>
        <time>2015-10-18T11:55:08Z</time>
      </trkpt>
      <trkpt lat="49.41628" lon="0.21153">
        <ele>89.7</ele>
        <time>2015-10-18T11:55:10Z</time>
      </trkpt>
      <trkpt lat="49.41628" lon="0.21153">
        <ele>89.6</ele>
        <time>2015-10-18T11:55:11Z</time>
      </trkpt>
      <trkpt lat="49.41628" lon="0.21153">
        <ele>89.8</ele>
        <time>2015-10-18T11:55:12Z</time>
      </trkpt>
      <trkpt lat="49.41629" lon="0.21153">
        <ele>89.9</ele>
        <time>2015-10-18T11:55:13Z</time>
      </trkpt>
      <trkpt lat="49.4163" lon="0.21152">
        <ele>90</ele>
        <time>2015-10-18T11:55:14Z</time>
      </trkpt>
      <trkpt lat="49.4163" lon="0.21152">
        <ele>89.9</ele>
        <time>2015-10-18T11:55:15Z</time>
      </trkpt>
      <trkpt lat="49.4163" lon="0.21152">
        <ele>89.8</ele>
        <time>2015-10-18T11:55:16Z</time>
      </trkpt>
      <trkpt lat="49.4163" lon="0.21152">
        <ele>89.7</ele>
        <time>2015-10-18T11:55:17Z</time>
      </trkpt>
      <trkpt lat="49.4163" lon="0.21152">
        <ele>89.2</ele>
        <time>2015-10-18T11:55:18Z</time>
      </trkpt>
      <trkpt lat="49.4163" lon="0.21152">
        <ele>88.9</ele>
        <time>2015-10-18T11:55:19Z</time>
      </trkpt>
      <trkpt lat="49.4163" lon="0.21152">
        <ele>88.6</ele>
        <time>2015-10-18T11:55:20Z</time>
      </trkpt>
      <trkpt lat="49.4163" lon="0.21152">
        <ele>88.6</ele>
        <time>2015-10-18T11:55:21Z</time>
      </trkpt>
      <trkpt lat="49.4163" lon="0.21152">
        <ele>88.6</ele>
        <time>2015-10-18T11:55:22Z</time>
      </trkpt>
      <trkpt lat="49.4163" lon="0.21152">
        <ele>88.6</ele>
        <time>2015-10-18T11:55:23Z</time>
      </trkpt>
      <trkpt lat="49.4163" lon="0.21152">
        <ele>88.4</ele>
        <time>2015-10-18T11:55:24Z</time>
      </trkpt>
      <trkpt lat="49.4163" lon="0.21152">
        <ele>88.2</ele>
        <time>2015-10-18T11:55:25Z</time>
      </trkpt>
      <trkpt lat="49.4163" lon="0.21152">
        <ele>88.1</ele>
        <time>2015-10-18T11:55:26Z</time>
      </trkpt>
      <trkpt lat="49.4163" lon="0.21152">
        <ele>88.3</ele>
        <time>2015-10-18T11:55:27Z</time>
      </trkpt>
      <trkpt lat="49.4163" lon="0.21152">
        <ele>88.3</ele>
        <time>2015-10-18T11:55:28Z</time>
      </trkpt>
      <trkpt lat="49.4163" lon="0.21153">
        <ele>88.4</ele>
        <time>2015-10-18T11:55:29Z</time>
      </trkpt>
      <trkpt lat="49.4163" lon="0.21153">
        <ele>88.5</ele>
        <time>2015-10-18T11:55:30Z</time>
      </trkpt>
      <trkpt lat="49.4163" lon="0.21153">
        <ele>88.5</ele>
        <time>2015-10-18T11:55:31Z</time>
      </trkpt>
      <trkpt lat="49.4163" lon="0.21153">
        <ele>88.5</ele>
        <time>2015-10-18T11:55:32Z</time>
      </trkpt>
      <trkpt lat="49.4163" lon="0.21154">
        <ele>86.5</ele>
        <time>2015-10-18T11:55:33Z</time>
      </trkpt>
      <trkpt lat="49.4163" lon="0.21154">
        <ele>84.9</ele>
        <time>2015-10-18T11:55:34Z</time>
      </trkpt>
      <trkpt lat="49.4163" lon="0.21154">
        <ele>83.8</ele>
        <time>2015-10-18T11:55:35Z</time>
      </trkpt>
      <trkpt lat="49.4163" lon="0.21154">
        <ele>85.8</ele>
        <time>2015-10-18T11:55:36Z</time>
      </trkpt>
      <trkpt lat="49.4163" lon="0.21154">
        <ele>87.3</ele>
        <time>2015-10-18T11:55:37Z</time>
      </trkpt>
      <trkpt lat="49.4163" lon="0.21154">
        <ele>88.5</ele>
        <time>2015-10-18T11:55:38Z</time>
      </trkpt>
      <trkpt lat="49.4163" lon="0.21154">
        <ele>88.9</ele>
        <time>2015-10-18T11:55:39Z</time>
      </trkpt>
      <trkpt lat="49.4163" lon="0.21154">
        <ele>89.3</ele>
        <time>2015-10-18T11:55:40Z</time>
      </trkpt>
      <trkpt lat="49.4163" lon="0.21154">
        <ele>89.5</ele>
        <time>2015-10-18T11:55:41Z</time>
      </trkpt>
      <trkpt lat="49.41631" lon="0.21154">
        <ele>89.5</ele>
        <time>2015-10-18T11:55:42Z</time>
      </trkpt>
      <trkpt lat="49.41631" lon="0.21154">
        <ele>89.5</ele>
        <time>2015-10-18T11:55:43Z</time>
      </trkpt>
      <trkpt lat="49.41631" lon="0.21154">
        <ele>89.5</ele>
        <time>2015-10-18T11:55:44Z</time>
      </trkpt>
      <trkpt lat="49.41631" lon="0.21154">
        <ele>89.5</ele>
        <time>2015-10-18T11:55:45Z</time>
      </trkpt>
      <trkpt lat="49.41631" lon="0.21154">
        <ele>89.5</ele>
        <time>2015-10-18T11:55:46Z</time>
      </trkpt>
      <trkpt lat="49.41631" lon="0.21154">
        <ele>89.5</ele>
        <time>2015-10-18T11:55:47Z</time>
      </trkpt>
      <trkpt lat="49.41631" lon="0.21154">
        <ele>88</ele>
        <time>2015-10-18T11:55:48Z</time>
      </trkpt>
      <trkpt lat="49.41633" lon="0.21156">
        <ele>86.7</ele>
        <time>2015-10-18T11:55:51Z</time>
      </trkpt>
      <trkpt lat="49.41634" lon="0.21156">
        <ele>87.2</ele>
        <time>2015-10-18T11:55:52Z</time>
      </trkpt>
      <trkpt lat="49.41636" lon="0.21155">
        <ele>87.5</ele>
        <time>2015-10-18T11:55:53Z</time>
      </trkpt>
      <trkpt lat="49.41637" lon="0.21155">
        <ele>87.4</ele>
        <time>2015-10-18T11:55:54Z</time>
      </trkpt>
      <trkpt lat="49.41638" lon="0.21154">
        <ele>87.3</ele>
        <time>2015-10-18T11:55:55Z</time>
      </trkpt>
      <trkpt lat="49.41639" lon="0.21154">
        <ele>87.2</ele>
        <time>2015-10-18T11:55:56Z</time>
      </trkpt>
      <trkpt lat="49.41641" lon="0.21153">
        <ele>88.4</ele>
        <time>2015-10-18T11:55:57Z</time>
      </trkpt>
      <trkpt lat="49.41649" lon="0.21148">
        <ele>92.1</ele>
        <time>2015-10-18T11:56:07Z</time>
      </trkpt>
      <trkpt lat="49.41649" lon="0.21148">
        <ele>92.1</ele>
        <time>2015-10-18T11:56:08Z</time>
      </trkpt>
      <trkpt lat="49.41649" lon="0.21148">
        <ele>91.2</ele>
        <time>2015-10-18T11:56:09Z</time>
      </trkpt>
      <trkpt lat="49.41649" lon="0.21147">
        <ele>90.6</ele>
        <time>2015-10-18T11:56:10Z</time>
      </trkpt>
      <trkpt lat="49.41649" lon="0.21147">
        <ele>90.1</ele>
        <time>2015-10-18T11:56:11Z</time>
      </trkpt>
      <trkpt lat="49.41648" lon="0.21147">
        <ele>89.3</ele>
        <time>2015-10-18T11:56:12Z</time>
      </trkpt>
      <trkpt lat="49.41648" lon="0.21147">
        <ele>88.7</ele>
        <time>2015-10-18T11:56:13Z</time>
      </trkpt>
      <trkpt lat="49.41648" lon="0.21147">
        <ele>88.3</ele>
        <time>2015-10-18T11:56:14Z</time>
      </trkpt>
      <trkpt lat="49.41648" lon="0.21147">
        <ele>86.9</ele>
        <time>2015-10-18T11:56:15Z</time>
      </trkpt>
      <trkpt lat="49.41648" lon="0.21147">
        <ele>85.9</ele>
        <time>2015-10-18T11:56:16Z</time>
      </trkpt>
      <trkpt lat="49.41649" lon="0.21146">
        <ele>85.1</ele>
        <time>2015-10-18T11:56:17Z</time>
      </trkpt>
      <trkpt lat="49.41653" lon="0.21142">
        <ele>89.4</ele>
        <time>2015-10-18T11:56:26Z</time>
      </trkpt>
      <trkpt lat="49.41653" lon="0.21142">
        <ele>89.4</ele>
        <time>2015-10-18T11:56:27Z</time>
      </trkpt>
      <trkpt lat="49.41653" lon="0.21142">
        <ele>89.4</ele>
        <time>2015-10-18T11:56:28Z</time>
      </trkpt>
      <trkpt lat="49.41653" lon="0.21141">
        <ele>89.4</ele>
        <time>2015-10-18T11:56:29Z</time>
      </trkpt>
      <trkpt lat="49.41653" lon="0.21141">
        <ele>88.8</ele>
        <time>2015-10-18T11:56:30Z</time>
      </trkpt>
      <trkpt lat="49.41653" lon="0.21141">
        <ele>88.3</ele>
        <time>2015-10-18T11:56:31Z</time>
      </trkpt>
      <trkpt lat="49.41653" lon="0.21141">
        <ele>88</ele>
        <time>2015-10-18T11:56:32Z</time>
      </trkpt>
      <trkpt lat="49.41653" lon="0.2114">
        <ele>88.6</ele>
        <time>2015-10-18T11:56:33Z</time>
      </trkpt>
      <trkpt lat="49.41653" lon="0.2114">
        <ele>89</ele>
        <time>2015-10-18T11:56:34Z</time>
      </trkpt>
      <trkpt lat="49.41653" lon="0.2114">
        <ele>89.3</ele>
        <time>2015-10-18T11:56:35Z</time>
      </trkpt>
      <trkpt lat="49.41656" lon="0.21141">
        <ele>89.4</ele>
        <time>2015-10-18T11:56:37Z</time>
      </trkpt>
      <trkpt lat="49.41657" lon="0.21141">
        <ele>89.4</ele>
        <time>2015-10-18T11:56:38Z</time>
      </trkpt>
      <trkpt lat="49.41665" lon="0.21137">
        <ele>90.3</ele>
        <time>2015-10-18T11:56:44Z</time>
      </trkpt>
      <trkpt lat="49.41689" lon="0.21127">
        <ele>89</ele>
        <time>2015-10-18T11:57:02Z</time>
      </trkpt>
      <trkpt lat="49.41691" lon="0.21126">
        <ele>88.9</ele>
        <time>2015-10-18T11:57:03Z</time>
      </trkpt>
      <trkpt lat="49.41736" lon="0.21107">
        <ele>85.6</ele>
        <time>2015-10-18T11:57:37Z</time>
      </trkpt>
      <trkpt lat="49.41737" lon="0.21107">
        <ele>86.4</ele>
        <time>2015-10-18T11:57:38Z</time>
      </trkpt>
      <trkpt lat="49.41741" lon="0.2111">
        <ele>88.6</ele>
        <time>2015-10-18T11:57:41Z</time>
      </trkpt>
      <trkpt lat="49.41743" lon="0.21113">
        <ele>88.3</ele>
        <time>2015-10-18T11:57:43Z</time>
      </trkpt>
      <trkpt lat="49.41747" lon="0.2112">
        <ele>89.4</ele>
        <time>2015-10-18T11:57:47Z</time>
      </trkpt>
      <trkpt lat="49.41755" lon="0.21143">
        <ele>89.4</ele>
        <time>2015-10-18T11:57:59Z</time>
      </trkpt>
      <trkpt lat="49.41781" lon="0.21231">
        <ele>86.9</ele>
        <time>2015-10-18T11:58:43Z</time>
      </trkpt>
      <trkpt lat="49.41781" lon="0.21234">
        <ele>86.5</ele>
        <time>2015-10-18T11:58:44Z</time>
      </trkpt>
      <trkpt lat="49.41801" lon="0.21295">
        <ele>85.5</ele>
        <time>2015-10-18T11:59:15Z</time>
      </trkpt>
      <trkpt lat="49.41812" lon="0.2132">
        <ele>89</ele>
        <time>2015-10-18T11:59:29Z</time>
      </trkpt>
      <trkpt lat="49.41813" lon="0.21321">
        <ele>89.1</ele>
        <time>2015-10-18T11:59:30Z</time>
      </trkpt>
      <trkpt lat="49.41844" lon="0.21373">
        <ele>84.9</ele>
        <time>2015-10-18T12:00:02Z</time>
      </trkpt>
      <trkpt lat="49.41845" lon="0.21374">
        <ele>86.1</ele>
        <time>2015-10-18T12:00:03Z</time>
      </trkpt>
      <trkpt lat="49.4191" lon="0.21457">
        <ele>81.2</ele>
        <time>2015-10-18T12:01:02Z</time>
      </trkpt>
      <trkpt lat="49.41919" lon="0.2147">
        <ele>85.8</ele>
        <time>2015-10-18T12:01:11Z</time>
      </trkpt>
      <trkpt lat="49.4192" lon="0.21471">
        <ele>84.9</ele>
        <time>2015-10-18T12:01:12Z</time>
      </trkpt>
      <trkpt lat="49.41948" lon="0.21494">
        <ele>82.4</ele>
        <time>2015-10-18T12:01:35Z</time>
      </trkpt>
      <trkpt lat="49.41949" lon="0.21495">
        <ele>82.9</ele>
        <time>2015-10-18T12:01:36Z</time>
      </trkpt>
      <trkpt lat="49.4195" lon="0.21496">
        <ele>83.3</ele>
        <time>2015-10-18T12:01:37Z</time>
      </trkpt>
      <trkpt lat="49.41962" lon="0.21505">
        <ele>78.9</ele>
        <time>2015-10-18T12:01:47Z</time>
      </trkpt>
      <trkpt lat="49.41963" lon="0.21506">
        <ele>79.8</ele>
        <time>2015-10-18T12:01:48Z</time>
      </trkpt>
      <trkpt lat="49.42047" lon="0.21543">
        <ele>86.2</ele>
        <time>2015-10-18T12:02:51Z</time>
      </trkpt>
      <trkpt lat="49.42047" lon="0.21543">
        <ele>85.6</ele>
        <time>2015-10-18T12:02:52Z</time>
      </trkpt>
      <trkpt lat="49.42047" lon="0.21542">
        <ele>85.8</ele>
        <time>2015-10-18T12:02:54Z</time>
      </trkpt>
      <trkpt lat="49.42047" lon="0.21542">
        <ele>86.3</ele>
        <time>2015-10-18T12:02:55Z</time>
      </trkpt>
      <trkpt lat="49.42048" lon="0.21542">
        <ele>86.6</ele>
        <time>2015-10-18T12:02:56Z</time>
      </trkpt>
      <trkpt lat="49.42048" lon="0.21543">
        <ele>86.1</ele>
        <time>2015-10-18T12:02:57Z</time>
      </trkpt>
      <trkpt lat="49.42049" lon="0.21543">
        <ele>85.7</ele>
        <time>2015-10-18T12:02:58Z</time>
      </trkpt>
      <trkpt lat="49.42049" lon="0.21544">
        <ele>85.4</ele>
        <time>2015-10-18T12:02:59Z</time>
      </trkpt>
      <trkpt lat="49.42062" lon="0.21554">
        <ele>85.9</ele>
        <time>2015-10-18T12:03:10Z</time>
      </trkpt>
      <trkpt lat="49.42063" lon="0.21556">
        <ele>86.6</ele>
        <time>2015-10-18T12:03:11Z</time>
      </trkpt>
      <trkpt lat="49.42065" lon="0.21559">
        <ele>87.5</ele>
        <time>2015-10-18T12:03:13Z</time>
      </trkpt>
      <trkpt lat="49.42069" lon="0.21565">
        <ele>87.8</ele>
        <time>2015-10-18T12:03:17Z</time>
      </trkpt>
      <trkpt lat="49.4207" lon="0.2157">
        <ele>85.4</ele>
        <time>2015-10-18T12:03:20Z</time>
      </trkpt>
      <trkpt lat="49.42093" lon="0.21627">
        <ele>79.2</ele>
        <time>2015-10-18T12:03:50Z</time>
      </trkpt>
      <trkpt lat="49.42101" lon="0.21649">
        <ele>87.3</ele>
        <time>2015-10-18T12:04:03Z</time>
      </trkpt>
      <trkpt lat="49.42102" lon="0.21651">
        <ele>88.3</ele>
        <time>2015-10-18T12:04:04Z</time>
      </trkpt>
      <trkpt lat="49.42103" lon="0.21655">
        <ele>86.6</ele>
        <time>2015-10-18T12:04:06Z</time>
      </trkpt>
      <trkpt lat="49.42104" lon="0.21659">
        <ele>83.5</ele>
        <time>2015-10-18T12:04:08Z</time>
      </trkpt>
      <trkpt lat="49.42104" lon="0.21661">
        <ele>77.7</ele>
        <time>2015-10-18T12:04:09Z</time>
      </trkpt>
      <trkpt lat="49.42124" lon="0.21752">
        <ele>93.2</ele>
        <time>2015-10-18T12:04:54Z</time>
      </trkpt>
      <trkpt lat="49.42124" lon="0.21754">
        <ele>93.5</ele>
        <time>2015-10-18T12:04:55Z</time>
      </trkpt>
      <trkpt lat="49.42143" lon="0.21852">
        <ele>84.4</ele>
        <time>2015-10-18T12:05:42Z</time>
      </trkpt>
      <trkpt lat="49.42144" lon="0.21854">
        <ele>83.3</ele>
        <time>2015-10-18T12:05:43Z</time>
      </trkpt>
      <trkpt lat="49.42162" lon="0.21889">
        <ele>85.6</ele>
        <time>2015-10-18T12:06:03Z</time>
      </trkpt>
      <trkpt lat="49.42217" lon="0.21996">
        <ele>85.5</ele>
        <time>2015-10-18T12:07:07Z</time>
      </trkpt>
      <trkpt lat="49.42217" lon="0.21998">
        <ele>85.4</ele>
        <time>2015-10-18T12:07:08Z</time>
      </trkpt>
      <trkpt lat="49.4222" lon="0.22016">
        <ele>85.5</ele>
        <time>2015-10-18T12:07:16Z</time>
      </trkpt>
      <trkpt lat="49.42223" lon="0.22044">
        <ele>84.5</ele>
        <time>2015-10-18T12:07:29Z</time>
      </trkpt>
      <trkpt lat="49.42227" lon="0.22074">
        <ele>85.1</ele>
        <time>2015-10-18T12:07:44Z</time>
      </trkpt>
      <trkpt lat="49.42228" lon="0.22078">
        <ele>84.4</ele>
        <time>2015-10-18T12:07:46Z</time>
      </trkpt>
      <trkpt lat="49.42234" lon="0.22091">
        <ele>84.2</ele>
        <time>2015-10-18T12:07:52Z</time>
      </trkpt>
      <trkpt lat="49.4224" lon="0.22101">
        <ele>83.7</ele>
        <time>2015-10-18T12:07:58Z</time>
      </trkpt>
      <trkpt lat="49.42243" lon="0.22105">
        <ele>85.6</ele>
        <time>2015-10-18T12:08:01Z</time>
      </trkpt>
      <trkpt lat="49.42245" lon="0.22107">
        <ele>86.2</ele>
        <time>2015-10-18T12:08:03Z</time>
      </trkpt>
      <trkpt lat="49.42253" lon="0.22115">
        <ele>84.7</ele>
        <time>2015-10-18T12:08:10Z</time>
      </trkpt>
      <trkpt lat="49.42254" lon="0.22116">
        <ele>83.6</ele>
        <time>2015-10-18T12:08:11Z</time>
      </trkpt>
      <trkpt lat="49.42291" lon="0.22143">
        <ele>82.3</ele>
        <time>2015-10-18T12:08:40Z</time>
      </trkpt>
      <trkpt lat="49.42292" lon="0.22144">
        <ele>82.4</ele>
        <time>2015-10-18T12:08:41Z</time>
      </trkpt>
      <trkpt lat="49.42303" lon="0.22157">
        <ele>86.6</ele>
        <time>2015-10-18T12:08:51Z</time>
      </trkpt>
      <trkpt lat="49.42323" lon="0.22179">
        <ele>79.1</ele>
        <time>2015-10-18T12:09:12Z</time>
      </trkpt>
      <trkpt lat="49.42324" lon="0.22179">
        <ele>81.1</ele>
        <time>2015-10-18T12:09:13Z</time>
      </trkpt>
      <trkpt lat="49.42326" lon="0.2218">
        <ele>80.9</ele>
        <time>2015-10-18T12:09:14Z</time>
      </trkpt>
      <trkpt lat="49.42328" lon="0.22181">
        <ele>80.6</ele>
        <time>2015-10-18T12:09:16Z</time>
      </trkpt>
      <trkpt lat="49.42329" lon="0.22182">
        <ele>78</ele>
        <time>2015-10-18T12:09:17Z</time>
      </trkpt>
      <trkpt lat="49.42335" lon="0.22186">
        <ele>80</ele>
        <time>2015-10-18T12:09:21Z</time>
      </trkpt>
      <trkpt lat="49.42343" lon="0.22191">
        <ele>76.6</ele>
        <time>2015-10-18T12:09:27Z</time>
      </trkpt>
      <trkpt lat="49.42346" lon="0.22191">
        <ele>78.4</ele>
        <time>2015-10-18T12:09:29Z</time>
      </trkpt>
      <trkpt lat="49.42349" lon="0.22191">
        <ele>81.7</ele>
        <time>2015-10-18T12:09:32Z</time>
      </trkpt>
      <trkpt lat="49.4235" lon="0.22191">
        <ele>81.1</ele>
        <time>2015-10-18T12:09:33Z</time>
      </trkpt>
      <trkpt lat="49.4235" lon="0.22191">
        <ele>80.7</ele>
        <time>2015-10-18T12:09:34Z</time>
      </trkpt>
      <trkpt lat="49.4235" lon="0.22191">
        <ele>80.4</ele>
        <time>2015-10-18T12:09:35Z</time>
      </trkpt>
      <trkpt lat="49.42351" lon="0.2219">
        <ele>80.2</ele>
        <time>2015-10-18T12:09:36Z</time>
      </trkpt>
      <trkpt lat="49.42351" lon="0.2219">
        <ele>80</ele>
        <time>2015-10-18T12:09:37Z</time>
      </trkpt>
      <trkpt lat="49.42351" lon="0.22189">
        <ele>79.8</ele>
        <time>2015-10-18T12:09:38Z</time>
      </trkpt>
      <trkpt lat="49.42351" lon="0.22189">
        <ele>79.7</ele>
        <time>2015-10-18T12:09:39Z</time>
      </trkpt>
      <trkpt lat="49.42352" lon="0.22188">
        <ele>79.7</ele>
        <time>2015-10-18T12:09:40Z</time>
      </trkpt>
      <trkpt lat="49.42352" lon="0.22187">
        <ele>81.1</ele>
        <time>2015-10-18T12:09:41Z</time>
      </trkpt>
      <trkpt lat="49.42352" lon="0.22187">
        <ele>82.1</ele>
        <time>2015-10-18T12:09:42Z</time>
      </trkpt>
      <trkpt lat="49.42353" lon="0.22186">
        <ele>82.9</ele>
        <time>2015-10-18T12:09:43Z</time>
      </trkpt>
      <trkpt lat="49.42353" lon="0.22186">
        <ele>82.5</ele>
        <time>2015-10-18T12:09:44Z</time>
      </trkpt>
      <trkpt lat="49.42353" lon="0.22186">
        <ele>82.1</ele>
        <time>2015-10-18T12:09:45Z</time>
      </trkpt>
      <trkpt lat="49.42353" lon="0.22185">
        <ele>81.9</ele>
        <time>2015-10-18T12:09:46Z</time>
      </trkpt>
      <trkpt lat="49.42353" lon="0.22185">
        <ele>81.7</ele>
        <time>2015-10-18T12:09:47Z</time>
      </trkpt>
      <trkpt lat="49.42353" lon="0.22185">
        <ele>81.5</ele>
        <time>2015-10-18T12:09:48Z</time>
      </trkpt>
      <trkpt lat="49.42354" lon="0.22184">
        <ele>81.4</ele>
        <time>2015-10-18T12:09:49Z</time>
      </trkpt>
      <trkpt lat="49.42354" lon="0.22184">
        <ele>80.7</ele>
        <time>2015-10-18T12:09:50Z</time>
      </trkpt>
      <trkpt lat="49.42354" lon="0.22184">
        <ele>80.2</ele>
        <time>2015-10-18T12:09:51Z</time>
      </trkpt>
      <trkpt lat="49.42354" lon="0.22184">
        <ele>79.8</ele>
        <time>2015-10-18T12:09:52Z</time>
      </trkpt>
      <trkpt lat="49.42354" lon="0.22184">
        <ele>79.5</ele>
        <time>2015-10-18T12:09:53Z</time>
      </trkpt>
      <trkpt lat="49.42354" lon="0.22183">
        <ele>79.3</ele>
        <time>2015-10-18T12:09:54Z</time>
      </trkpt>
      <trkpt lat="49.42354" lon="0.22183">
        <ele>79.1</ele>
        <time>2015-10-18T12:09:55Z</time>
      </trkpt>
      <trkpt lat="49.42354" lon="0.22183">
        <ele>78.1</ele>
        <time>2015-10-18T12:09:56Z</time>
      </trkpt>
      <trkpt lat="49.42354" lon="0.22183">
        <ele>77.4</ele>
        <time>2015-10-18T12:09:57Z</time>
      </trkpt>
      <trkpt lat="49.42354" lon="0.22184">
        <ele>76.9</ele>
        <time>2015-10-18T12:09:58Z</time>
      </trkpt>
      <trkpt lat="49.42353" lon="0.22184">
        <ele>77.9</ele>
        <time>2015-10-18T12:09:59Z</time>
      </trkpt>
      <trkpt lat="49.42353" lon="0.22186">
        <ele>79.3</ele>
        <time>2015-10-18T12:10:01Z</time>
      </trkpt>
      <trkpt lat="49.42353" lon="0.22189">
        <ele>80.1</ele>
        <time>2015-10-18T12:10:03Z</time>
      </trkpt>
      <trkpt lat="49.42353" lon="0.22191">
        <ele>80.3</ele>
        <time>2015-10-18T12:10:04Z</time>
      </trkpt>
      <trkpt lat="49.42354" lon="0.22192">
        <ele>79.7</ele>
        <time>2015-10-18T12:10:05Z</time>
      </trkpt>
      <trkpt lat="49.42354" lon="0.22193">
        <ele>79.2</ele>
        <time>2015-10-18T12:10:06Z</time>
      </trkpt>
      <trkpt lat="49.42354" lon="0.22194">
        <ele>78.9</ele>
        <time>2015-10-18T12:10:07Z</time>
      </trkpt>
      <trkpt lat="49.42354" lon="0.22195">
        <ele>79.4</ele>
        <time>2015-10-18T12:10:08Z</time>
      </trkpt>
      <trkpt lat="49.42355" lon="0.22195">
        <ele>79.8</ele>
        <time>2015-10-18T12:10:09Z</time>
      </trkpt>
      <trkpt lat="49.42355" lon="0.22196">
        <ele>80.2</ele>
        <time>2015-10-18T12:10:10Z</time>
      </trkpt>
      <trkpt lat="49.42355" lon="0.22196">
        <ele>80</ele>
        <time>2015-10-18T12:10:11Z</time>
      </trkpt>
      <trkpt lat="49.42355" lon="0.22198">
        <ele>79.7</ele>
        <time>2015-10-18T12:10:13Z</time>
      </trkpt>
      <trkpt lat="49.42354" lon="0.22199">
        <ele>79.2</ele>
        <time>2015-10-18T12:10:14Z</time>
      </trkpt>
      <trkpt lat="49.42354" lon="0.22199">
        <ele>78</ele>
        <time>2015-10-18T12:10:20Z</time>
      </trkpt>
      <trkpt lat="49.42354" lon="0.22199">
        <ele>78</ele>
        <time>2015-10-18T12:10:21Z</time>
      </trkpt>
      <trkpt lat="49.42353" lon="0.22199">
        <ele>77.9</ele>
        <time>2015-10-18T12:10:22Z</time>
      </trkpt>
      <trkpt lat="49.42353" lon="0.22199">
        <ele>78.1</ele>
        <time>2015-10-18T12:10:23Z</time>
      </trkpt>
      <trkpt lat="49.42353" lon="0.222">
        <ele>78.2</ele>
        <time>2015-10-18T12:10:24Z</time>
      </trkpt>
      <trkpt lat="49.42353" lon="0.222">
        <ele>78.3</ele>
        <time>2015-10-18T12:10:25Z</time>
      </trkpt>
      <trkpt lat="49.42353" lon="0.222">
        <ele>78.4</ele>
        <time>2015-10-18T12:10:26Z</time>
      </trkpt>
      <trkpt lat="49.42353" lon="0.22201">
        <ele>78.4</ele>
        <time>2015-10-18T12:10:27Z</time>
      </trkpt>
      <trkpt lat="49.42353" lon="0.22201">
        <ele>78.5</ele>
        <time>2015-10-18T12:10:28Z</time>
      </trkpt>
      <trkpt lat="49.42354" lon="0.22202">
        <ele>77.5</ele>
        <time>2015-10-18T12:10:37Z</time>
      </trkpt>
      <trkpt lat="49.42354" lon="0.22202">
        <ele>78.2</ele>
        <time>2015-10-18T12:10:38Z</time>
      </trkpt>
      <trkpt lat="49.42354" lon="0.22203">
        <ele>78.7</ele>
        <time>2015-10-18T12:10:39Z</time>
      </trkpt>
      <trkpt lat="49.42355" lon="0.22203">
        <ele>79.1</ele>
        <time>2015-10-18T12:10:40Z</time>
      </trkpt>
      <trkpt lat="49.42355" lon="0.22203">
        <ele>79</ele>
        <time>2015-10-18T12:10:41Z</time>
      </trkpt>
      <trkpt lat="49.42355" lon="0.22203">
        <ele>78.9</ele>
        <time>2015-10-18T12:10:42Z</time>
      </trkpt>
      <trkpt lat="49.42355" lon="0.22203">
        <ele>78.8</ele>
        <time>2015-10-18T12:10:43Z</time>
      </trkpt>
      <trkpt lat="49.42355" lon="0.22203">
        <ele>79</ele>
        <time>2015-10-18T12:10:44Z</time>
      </trkpt>
      <trkpt lat="49.42355" lon="0.22204">
        <ele>79.1</ele>
        <time>2015-10-18T12:10:45Z</time>
      </trkpt>
      <trkpt lat="49.42355" lon="0.22204">
        <ele>79.2</ele>
        <time>2015-10-18T12:10:46Z</time>
      </trkpt>
      <trkpt lat="49.42355" lon="0.22204">
        <ele>78.8</ele>
        <time>2015-10-18T12:10:47Z</time>
      </trkpt>
      <trkpt lat="49.42355" lon="0.22204">
        <ele>78.6</ele>
        <time>2015-10-18T12:10:48Z</time>
      </trkpt>
      <trkpt lat="49.42355" lon="0.22204">
        <ele>78.4</ele>
        <time>2015-10-18T12:10:49Z</time>
      </trkpt>
      <trkpt lat="49.42355" lon="0.22204">
        <ele>78.2</ele>
        <time>2015-10-18T12:10:50Z</time>
      </trkpt>
      <trkpt lat="49.42355" lon="0.22204">
        <ele>78.1</ele>
        <time>2015-10-18T12:10:51Z</time>
      </trkpt>
      <trkpt lat="49.42355" lon="0.22204">
        <ele>78</ele>
        <time>2015-10-18T12:10:52Z</time>
      </trkpt>
      <trkpt lat="49.42355" lon="0.22203">
        <ele>78.4</ele>
        <time>2015-10-18T12:10:53Z</time>
      </trkpt>
      <trkpt lat="49.42355" lon="0.22203">
        <ele>78.6</ele>
        <time>2015-10-18T12:10:54Z</time>
      </trkpt>
      <trkpt lat="49.42355" lon="0.22203">
        <ele>78.8</ele>
        <time>2015-10-18T12:10:55Z</time>
      </trkpt>
      <trkpt lat="49.42355" lon="0.22203">
        <ele>79</ele>
        <time>2015-10-18T12:10:56Z</time>
      </trkpt>
      <trkpt lat="49.42355" lon="0.22203">
        <ele>79.1</ele>
        <time>2015-10-18T12:10:57Z</time>
      </trkpt>
      <trkpt lat="49.42355" lon="0.22202">
        <ele>79.2</ele>
        <time>2015-10-18T12:10:58Z</time>
      </trkpt>
      <trkpt lat="49.42355" lon="0.22202">
        <ele>79.4</ele>
        <time>2015-10-18T12:10:59Z</time>
      </trkpt>
      <trkpt lat="49.42356" lon="0.22202">
        <ele>79.7</ele>
        <time>2015-10-18T12:11:00Z</time>
      </trkpt>
      <trkpt lat="49.42356" lon="0.22202">
        <ele>79.8</ele>
        <time>2015-10-18T12:11:01Z</time>
      </trkpt>
      <trkpt lat="49.42356" lon="0.22201">
        <ele>79.7</ele>
        <time>2015-10-18T12:11:02Z</time>
      </trkpt>
      <trkpt lat="49.42356" lon="0.22201">
        <ele>79.6</ele>
        <time>2015-10-18T12:11:03Z</time>
      </trkpt>
      <trkpt lat="49.42356" lon="0.22201">
        <ele>79.6</ele>
        <time>2015-10-18T12:11:04Z</time>
      </trkpt>
      <trkpt lat="49.42356" lon="0.22201">
        <ele>79.5</ele>
        <time>2015-10-18T12:11:05Z</time>
      </trkpt>
      <trkpt lat="49.42356" lon="0.22201">
        <ele>79.5</ele>
        <time>2015-10-18T12:11:06Z</time>
      </trkpt>
      <trkpt lat="49.42356" lon="0.22201">
        <ele>79.5</ele>
        <time>2015-10-18T12:11:07Z</time>
      </trkpt>
      <trkpt lat="49.42356" lon="0.22201">
        <ele>79.5</ele>
        <time>2015-10-18T12:11:08Z</time>
      </trkpt>
      <trkpt lat="49.42356" lon="0.22201">
        <ele>79.5</ele>
        <time>2015-10-18T12:11:09Z</time>
      </trkpt>
      <trkpt lat="49.42356" lon="0.22201">
        <ele>79.5</ele>
        <time>2015-10-18T12:11:10Z</time>
      </trkpt>
      <trkpt lat="49.42356" lon="0.22201">
        <ele>79.2</ele>
        <time>2015-10-18T12:11:11Z</time>
      </trkpt>
      <trkpt lat="49.42356" lon="0.22201">
        <ele>79.1</ele>
        <time>2015-10-18T12:11:12Z</time>
      </trkpt>
      <trkpt lat="49.42356" lon="0.22201">
        <ele>79</ele>
        <time>2015-10-18T12:11:13Z</time>
      </trkpt>
      <trkpt lat="49.42356" lon="0.22201">
        <ele>79.1</ele>
        <time>2015-10-18T12:11:14Z</time>
      </trkpt>
      <trkpt lat="49.42356" lon="0.22201">
        <ele>79.2</ele>
        <time>2015-10-18T12:11:15Z</time>
      </trkpt>
      <trkpt lat="49.42356" lon="0.22201">
        <ele>79.2</ele>
        <time>2015-10-18T12:11:16Z</time>
      </trkpt>
      <trkpt lat="49.42356" lon="0.22201">
        <ele>79.3</ele>
        <time>2015-10-18T12:11:17Z</time>
      </trkpt>
      <trkpt lat="49.42356" lon="0.22201">
        <ele>79.3</ele>
        <time>2015-10-18T12:11:18Z</time>
      </trkpt>
      <trkpt lat="49.42356" lon="0.22202">
        <ele>79.3</ele>
        <time>2015-10-18T12:11:19Z</time>
      </trkpt>
      <trkpt lat="49.42356" lon="0.22202">
        <ele>78.3</ele>
        <time>2015-10-18T12:11:32Z</time>
      </trkpt>
      <trkpt lat="49.42356" lon="0.22202">
        <ele>78.6</ele>
        <time>2015-10-18T12:11:33Z</time>
      </trkpt>
      <trkpt lat="49.42356" lon="0.22202">
        <ele>78.8</ele>
        <time>2015-10-18T12:11:34Z</time>
      </trkpt>
      <trkpt lat="49.42356" lon="0.22202">
        <ele>78.3</ele>
        <time>2015-10-18T12:11:35Z</time>
      </trkpt>
      <trkpt lat="49.42356" lon="0.22201">
        <ele>78</ele>
        <time>2015-10-18T12:11:36Z</time>
      </trkpt>
      <trkpt lat="49.42356" lon="0.22201">
        <ele>77.7</ele>
        <time>2015-10-18T12:11:37Z</time>
      </trkpt>
      <trkpt lat="49.42357" lon="0.22201">
        <ele>78.4</ele>
        <time>2015-10-18T12:11:38Z</time>
      </trkpt>
      <trkpt lat="49.42357" lon="0.22201">
        <ele>78.8</ele>
        <time>2015-10-18T12:11:39Z</time>
      </trkpt>
      <trkpt lat="49.42357" lon="0.22201">
        <ele>79.2</ele>
        <time>2015-10-18T12:11:40Z</time>
      </trkpt>
      <trkpt lat="49.42357" lon="0.22201">
        <ele>79</ele>
        <time>2015-10-18T12:11:41Z</time>
      </trkpt>
      <trkpt lat="49.42357" lon="0.22201">
        <ele>78.9</ele>
        <time>2015-10-18T12:11:42Z</time>
      </trkpt>
      <trkpt lat="49.42357" lon="0.22201">
        <ele>78.8</ele>
        <time>2015-10-18T12:11:43Z</time>
      </trkpt>
      <trkpt lat="49.42357" lon="0.22201">
        <ele>78.8</ele>
        <time>2015-10-18T12:11:44Z</time>
      </trkpt>
      <trkpt lat="49.42357" lon="0.22201">
        <ele>78.7</ele>
        <time>2015-10-18T12:11:45Z</time>
      </trkpt>
      <trkpt lat="49.42357" lon="0.22201">
        <ele>78.7</ele>
        <time>2015-10-18T12:11:46Z</time>
      </trkpt>
      <trkpt lat="49.42357" lon="0.22201">
        <ele>78.5</ele>
        <time>2015-10-18T12:11:47Z</time>
      </trkpt>
      <trkpt lat="49.42357" lon="0.22201">
        <ele>78.3</ele>
        <time>2015-10-18T12:11:48Z</time>
      </trkpt>
      <trkpt lat="49.42357" lon="0.22201">
        <ele>78.2</ele>
        <time>2015-10-18T12:11:49Z</time>
      </trkpt>
      <trkpt lat="49.42357" lon="0.22202">
        <ele>77.5</ele>
        <time>2015-10-18T12:11:58Z</time>
      </trkpt>
      <trkpt lat="49.42357" lon="0.22202">
        <ele>79</ele>
        <time>2015-10-18T12:11:59Z</time>
      </trkpt>
      <trkpt lat="49.42357" lon="0.22202">
        <ele>80.2</ele>
        <time>2015-10-18T12:12:00Z</time>
      </trkpt>
      <trkpt lat="49.42357" lon="0.22202">
        <ele>81</ele>
        <time>2015-10-18T12:12:01Z</time>
      </trkpt>
      <trkpt lat="49.42357" lon="0.22202">
        <ele>81</ele>
        <time>2015-10-18T12:12:02Z</time>
      </trkpt>
      <trkpt lat="49.42357" lon="0.22202">
        <ele>81.1</ele>
        <time>2015-10-18T12:12:03Z</time>
      </trkpt>
      <trkpt lat="49.42357" lon="0.22202">
        <ele>81.1</ele>
        <time>2015-10-18T12:12:04Z</time>
      </trkpt>
      <trkpt lat="49.42357" lon="0.22202">
        <ele>81.1</ele>
        <time>2015-10-18T12:12:05Z</time>
      </trkpt>
      <trkpt lat="49.42357" lon="0.22202">
        <ele>81.1</ele>
        <time>2015-10-18T12:12:06Z</time>
      </trkpt>
      <trkpt lat="49.42357" lon="0.22202">
        <ele>81.1</ele>
        <time>2015-10-18T12:12:07Z</time>
      </trkpt>
      <trkpt lat="49.42357" lon="0.22202">
        <ele>80.9</ele>
        <time>2015-10-18T12:12:08Z</time>
      </trkpt>
      <trkpt lat="49.42357" lon="0.22203">
        <ele>80.7</ele>
        <time>2015-10-18T12:12:09Z</time>
      </trkpt>
      <trkpt lat="49.42356" lon="0.22203">
        <ele>80.6</ele>
        <time>2015-10-18T12:12:10Z</time>
      </trkpt>
      <trkpt lat="49.42356" lon="0.22203">
        <ele>80.3</ele>
        <time>2015-10-18T12:12:11Z</time>
      </trkpt>
      <trkpt lat="49.42356" lon="0.22203">
        <ele>80.1</ele>
        <time>2015-10-18T12:12:12Z</time>
      </trkpt>
      <trkpt lat="49.42356" lon="0.22203">
        <ele>79.9</ele>
        <time>2015-10-18T12:12:13Z</time>
      </trkpt>
      <trkpt lat="49.42356" lon="0.22203">
        <ele>79.8</ele>
        <time>2015-10-18T12:12:14Z</time>
      </trkpt>
      <trkpt lat="49.42356" lon="0.22203">
        <ele>79.7</ele>
        <time>2015-10-18T12:12:15Z</time>
      </trkpt>
      <trkpt lat="49.42356" lon="0.22203">
        <ele>79.6</ele>
        <time>2015-10-18T12:12:16Z</time>
      </trkpt>
      <trkpt lat="49.42356" lon="0.22203">
        <ele>79.6</ele>
        <time>2015-10-18T12:12:17Z</time>
      </trkpt>
      <trkpt lat="49.42356" lon="0.22203">
        <ele>79.5</ele>
        <time>2015-10-18T12:12:18Z</time>
      </trkpt>
      <trkpt lat="49.42356" lon="0.22203">
        <ele>79.5</ele>
        <time>2015-10-18T12:12:19Z</time>
      </trkpt>
      <trkpt lat="49.42356" lon="0.22202">
        <ele>79.5</ele>
        <time>2015-10-18T12:12:20Z</time>
      </trkpt>
      <trkpt lat="49.42356" lon="0.22202">
        <ele>79.5</ele>
        <time>2015-10-18T12:12:21Z</time>
      </trkpt>
      <trkpt lat="49.42356" lon="0.22202">
        <ele>79.5</ele>
        <time>2015-10-18T12:12:22Z</time>
      </trkpt>
      <trkpt lat="49.42356" lon="0.22202">
        <ele>79.2</ele>
        <time>2015-10-18T12:12:23Z</time>
      </trkpt>
      <trkpt lat="49.42356" lon="0.22202">
        <ele>79.1</ele>
        <time>2015-10-18T12:12:24Z</time>
      </trkpt>
      <trkpt lat="49.42356" lon="0.22202">
        <ele>79</ele>
        <time>2015-10-18T12:12:25Z</time>
      </trkpt>
      <trkpt lat="49.42356" lon="0.22202">
        <ele>78.5</ele>
        <time>2015-10-18T12:12:26Z</time>
      </trkpt>
      <trkpt lat="49.42356" lon="0.22202">
        <ele>78.1</ele>
        <time>2015-10-18T12:12:27Z</time>
      </trkpt>
      <trkpt lat="49.42356" lon="0.22202">
        <ele>77.8</ele>
        <time>2015-10-18T12:12:28Z</time>
      </trkpt>
      <trkpt lat="49.42356" lon="0.22202">
        <ele>78</ele>
        <time>2015-10-18T12:12:29Z</time>
      </trkpt>
      <trkpt lat="49.42356" lon="0.22202">
        <ele>78.1</ele>
        <time>2015-10-18T12:12:30Z</time>
      </trkpt>
      <trkpt lat="49.42356" lon="0.22202">
        <ele>78.3</ele>
        <time>2015-10-18T12:12:31Z</time>
      </trkpt>
      <trkpt lat="49.42356" lon="0.22202">
        <ele>78.3</ele>
        <time>2015-10-18T12:12:32Z</time>
      </trkpt>
      <trkpt lat="49.42355" lon="0.22202">
        <ele>78.4</ele>
        <time>2015-10-18T12:12:33Z</time>
      </trkpt>
      <trkpt lat="49.42355" lon="0.22202">
        <ele>78.5</ele>
        <time>2015-10-18T12:12:34Z</time>
      </trkpt>
      <trkpt lat="49.42355" lon="0.22202">
        <ele>78.7</ele>
        <time>2015-10-18T12:12:35Z</time>
      </trkpt>
      <trkpt lat="49.42355" lon="0.22202">
        <ele>78.9</ele>
        <time>2015-10-18T12:12:36Z</time>
      </trkpt>
      <trkpt lat="49.42355" lon="0.22203">
        <ele>79</ele>
        <time>2015-10-18T12:12:37Z</time>
      </trkpt>
      <trkpt lat="49.42355" lon="0.22202">
        <ele>76.6</ele>
        <time>2015-10-18T12:12:38Z</time>
      </trkpt>
      <trkpt lat="49.42355" lon="0.22202">
        <ele>74.8</ele>
        <time>2015-10-18T12:12:39Z</time>
      </trkpt>
      <trkpt lat="49.42356" lon="0.22201">
        <ele>73.5</ele>
        <time>2015-10-18T12:12:40Z</time>
      </trkpt>
      <trkpt lat="49.42356" lon="0.22198">
        <ele>77.4</ele>
        <time>2015-10-18T12:12:43Z</time>
      </trkpt>
      <trkpt lat="49.42356" lon="0.22197">
        <ele>79</ele>
        <time>2015-10-18T12:12:45Z</time>
      </trkpt>
      <trkpt lat="49.42356" lon="0.22197">
        <ele>79.5</ele>
        <time>2015-10-18T12:12:46Z</time>
      </trkpt>
      <trkpt lat="49.42356" lon="0.22196">
        <ele>79.5</ele>
        <time>2015-10-18T12:12:47Z</time>
      </trkpt>
      <trkpt lat="49.42356" lon="0.22196">
        <ele>79.5</ele>
        <time>2015-10-18T12:12:48Z</time>
      </trkpt>
      <trkpt lat="49.42356" lon="0.22196">
        <ele>79.5</ele>
        <time>2015-10-18T12:12:49Z</time>
      </trkpt>
      <trkpt lat="49.42356" lon="0.22196">
        <ele>79.9</ele>
        <time>2015-10-18T12:12:50Z</time>
      </trkpt>
      <trkpt lat="49.42356" lon="0.22196">
        <ele>80.2</ele>
        <time>2015-10-18T12:12:51Z</time>
      </trkpt>
      <trkpt lat="49.42356" lon="0.22196">
        <ele>80.4</ele>
        <time>2015-10-18T12:12:52Z</time>
      </trkpt>
      <trkpt lat="49.42356" lon="0.22196">
        <ele>80.2</ele>
        <time>2015-10-18T12:12:53Z</time>
      </trkpt>
      <trkpt lat="49.42356" lon="0.22196">
        <ele>80</ele>
        <time>2015-10-18T12:12:54Z</time>
      </trkpt>
      <trkpt lat="49.42356" lon="0.22195">
        <ele>79.8</ele>
        <time>2015-10-18T12:12:55Z</time>
      </trkpt>
      <trkpt lat="49.42355" lon="0.22195">
        <ele>79.7</ele>
        <time>2015-10-18T12:12:56Z</time>
      </trkpt>
      <trkpt lat="49.42355" lon="0.22195">
        <ele>79.7</ele>
        <time>2015-10-18T12:12:57Z</time>
      </trkpt>
      <trkpt lat="49.42355" lon="0.22194">
        <ele>79.6</ele>
        <time>2015-10-18T12:12:58Z</time>
      </trkpt>
      <trkpt lat="49.42355" lon="0.22194">
        <ele>79.1</ele>
        <time>2015-10-18T12:12:59Z</time>
      </trkpt>
      <trkpt lat="49.42354" lon="0.22193">
        <ele>78.8</ele>
        <time>2015-10-18T12:13:00Z</time>
      </trkpt>
      <trkpt lat="49.42354" lon="0.22192">
        <ele>78.5</ele>
        <time>2015-10-18T12:13:01Z</time>
      </trkpt>
      <trkpt lat="49.42354" lon="0.22192">
        <ele>78.8</ele>
        <time>2015-10-18T12:13:02Z</time>
      </trkpt>
      <trkpt lat="49.42354" lon="0.22191">
        <ele>78.9</ele>
        <time>2015-10-18T12:13:03Z</time>
      </trkpt>
      <trkpt lat="49.42354" lon="0.22191">
        <ele>79.1</ele>
        <time>2015-10-18T12:13:04Z</time>
      </trkpt>
      <trkpt lat="49.42354" lon="0.2219">
        <ele>79.6</ele>
        <time>2015-10-18T12:13:05Z</time>
      </trkpt>
      <trkpt lat="49.42354" lon="0.22189">
        <ele>79.9</ele>
        <time>2015-10-18T12:13:06Z</time>
      </trkpt>
      <trkpt lat="49.42353" lon="0.22188">
        <ele>80.2</ele>
        <time>2015-10-18T12:13:07Z</time>
      </trkpt>
      <trkpt lat="49.42353" lon="0.22187">
        <ele>79</ele>
        <time>2015-10-18T12:13:08Z</time>
      </trkpt>
      <trkpt lat="49.42352" lon="0.22186">
        <ele>78.1</ele>
        <time>2015-10-18T12:13:09Z</time>
      </trkpt>
      <trkpt lat="49.4235" lon="0.2218">
        <ele>78.8</ele>
        <time>2015-10-18T12:13:14Z</time>
      </trkpt>
      <trkpt lat="49.42349" lon="0.22179">
        <ele>79.4</ele>
        <time>2015-10-18T12:13:15Z</time>
      </trkpt>
      <trkpt lat="49.42344" lon="0.22176">
        <ele>79.5</ele>
        <time>2015-10-18T12:13:23Z</time>
      </trkpt>
      <trkpt lat="49.42344" lon="0.22177">
        <ele>79.9</ele>
        <time>2015-10-18T12:13:24Z</time>
      </trkpt>
      <trkpt lat="49.42344" lon="0.22179">
        <ele>79.8</ele>
        <time>2015-10-18T12:13:28Z</time>
      </trkpt>
      <trkpt lat="49.42344" lon="0.2218">
        <ele>80.1</ele>
        <time>2015-10-18T12:13:29Z</time>
      </trkpt>
      <trkpt lat="49.42345" lon="0.2218">
        <ele>80.3</ele>
        <time>2015-10-18T12:13:30Z</time>
      </trkpt>
      <trkpt lat="49.42345" lon="0.2218">
        <ele>80.5</ele>
        <time>2015-10-18T12:13:31Z</time>
      </trkpt>
      <trkpt lat="49.42345" lon="0.2218">
        <ele>80.5</ele>
        <time>2015-10-18T12:13:32Z</time>
      </trkpt>
      <trkpt lat="49.42345" lon="0.2218">
        <ele>80.4</ele>
        <time>2015-10-18T12:13:33Z</time>
      </trkpt>
      <trkpt lat="49.42345" lon="0.22181">
        <ele>80.4</ele>
        <time>2015-10-18T12:13:34Z</time>
      </trkpt>
      <trkpt lat="49.42346" lon="0.22181">
        <ele>80.6</ele>
        <time>2015-10-18T12:13:35Z</time>
      </trkpt>
      <trkpt lat="49.42346" lon="0.22181">
        <ele>80.7</ele>
        <time>2015-10-18T12:13:36Z</time>
      </trkpt>
      <trkpt lat="49.42346" lon="0.22181">
        <ele>80.8</ele>
        <time>2015-10-18T12:13:37Z</time>
      </trkpt>
      <trkpt lat="49.42346" lon="0.22181">
        <ele>80.7</ele>
        <time>2015-10-18T12:13:38Z</time>
      </trkpt>
      <trkpt lat="49.42346" lon="0.22181">
        <ele>80.6</ele>
        <time>2015-10-18T12:13:39Z</time>
      </trkpt>
      <trkpt lat="49.42346" lon="0.22181">
        <ele>80.5</ele>
        <time>2015-10-18T12:13:40Z</time>
      </trkpt>
      <trkpt lat="49.42346" lon="0.22181">
        <ele>80.2</ele>
        <time>2015-10-18T12:13:41Z</time>
      </trkpt>
      <trkpt lat="49.42346" lon="0.22181">
        <ele>80</ele>
        <time>2015-10-18T12:13:42Z</time>
      </trkpt>
      <trkpt lat="49.42347" lon="0.22181">
        <ele>79.9</ele>
        <time>2015-10-18T12:13:43Z</time>
      </trkpt>
      <trkpt lat="49.42347" lon="0.22181">
        <ele>80.2</ele>
        <time>2015-10-18T12:13:44Z</time>
      </trkpt>
      <trkpt lat="49.42347" lon="0.22181">
        <ele>80.4</ele>
        <time>2015-10-18T12:13:45Z</time>
      </trkpt>
      <trkpt lat="49.42347" lon="0.22181">
        <ele>79.5</ele>
        <time>2015-10-18T12:13:46Z</time>
      </trkpt>
      <trkpt lat="49.42347" lon="0.22182">
        <ele>78.9</ele>
        <time>2015-10-18T12:13:47Z</time>
      </trkpt>
      <trkpt lat="49.42346" lon="0.22182">
        <ele>78.4</ele>
        <time>2015-10-18T12:13:48Z</time>
      </trkpt>
      <trkpt lat="49.42346" lon="0.22182">
        <ele>79.1</ele>
        <time>2015-10-18T12:13:49Z</time>
      </trkpt>
      <trkpt lat="49.42346" lon="0.22182">
        <ele>79.6</ele>
        <time>2015-10-18T12:13:50Z</time>
      </trkpt>
      <trkpt lat="49.42346" lon="0.22183">
        <ele>80</ele>
        <time>2015-10-18T12:13:51Z</time>
      </trkpt>
      <trkpt lat="49.42346" lon="0.22183">
        <ele>79.8</ele>
        <time>2015-10-18T12:13:52Z</time>
      </trkpt>
      <trkpt lat="49.42346" lon="0.22183">
        <ele>79.7</ele>
        <time>2015-10-18T12:13:53Z</time>
      </trkpt>
      <trkpt lat="49.42345" lon="0.22183">
        <ele>79.7</ele>
        <time>2015-10-18T12:13:54Z</time>
      </trkpt>
      <trkpt lat="49.42345" lon="0.22183">
        <ele>80.4</ele>
        <time>2015-10-18T12:13:55Z</time>
      </trkpt>
      <trkpt lat="49.42345" lon="0.22182">
        <ele>81</ele>
        <time>2015-10-18T12:13:56Z</time>
      </trkpt>
      <trkpt lat="49.42344" lon="0.22182">
        <ele>81.5</ele>
        <time>2015-10-18T12:13:57Z</time>
      </trkpt>
      <trkpt lat="49.42343" lon="0.22182">
        <ele>81.4</ele>
        <time>2015-10-18T12:13:58Z</time>
      </trkpt>
      <trkpt lat="49.42337" lon="0.22181">
        <ele>81.2</ele>
        <time>2015-10-18T12:14:03Z</time>
      </trkpt>
      <trkpt lat="49.42335" lon="0.22181">
        <ele>80.4</ele>
        <time>2015-10-18T12:14:05Z</time>
      </trkpt>
      <trkpt lat="49.4233" lon="0.22181">
        <ele>80.9</ele>
        <time>2015-10-18T12:14:12Z</time>
      </trkpt>
      <trkpt lat="49.42329" lon="0.22185">
        <ele>80.6</ele>
        <time>2015-10-18T12:14:14Z</time>
      </trkpt>
      <trkpt lat="49.42329" lon="0.22187">
        <ele>80.5</ele>
        <time>2015-10-18T12:14:15Z</time>
      </trkpt>
      <trkpt lat="49.42328" lon="0.22189">
        <ele>80.7</ele>
        <time>2015-10-18T12:14:16Z</time>
      </trkpt>
      <trkpt lat="49.42328" lon="0.22191">
        <ele>80.8</ele>
        <time>2015-10-18T12:14:17Z</time>
      </trkpt>
      <trkpt lat="49.42328" lon="0.22192">
        <ele>80.9</ele>
        <time>2015-10-18T12:14:18Z</time>
      </trkpt>
      <trkpt lat="49.42328" lon="0.22194">
        <ele>80.7</ele>
        <time>2015-10-18T12:14:19Z</time>
      </trkpt>
      <trkpt lat="49.42327" lon="0.22195">
        <ele>80.6</ele>
        <time>2015-10-18T12:14:20Z</time>
      </trkpt>
      <trkpt lat="49.42327" lon="0.22197">
        <ele>80.5</ele>
        <time>2015-10-18T12:14:21Z</time>
      </trkpt>
      <trkpt lat="49.42326" lon="0.22198">
        <ele>80.9</ele>
        <time>2015-10-18T12:14:22Z</time>
      </trkpt>
      <trkpt lat="49.42326" lon="0.22199">
        <ele>81.1</ele>
        <time>2015-10-18T12:14:23Z</time>
      </trkpt>
      <trkpt lat="49.42326" lon="0.22201">
        <ele>81.3</ele>
        <time>2015-10-18T12:14:24Z</time>
      </trkpt>
      <trkpt lat="49.42326" lon="0.22203">
        <ele>81.1</ele>
        <time>2015-10-18T12:14:25Z</time>
      </trkpt>
      <trkpt lat="49.42326" lon="0.22204">
        <ele>80.9</ele>
        <time>2015-10-18T12:14:26Z</time>
      </trkpt>
      <trkpt lat="49.42326" lon="0.22206">
        <ele>80.7</ele>
        <time>2015-10-18T12:14:27Z</time>
      </trkpt>
      <trkpt lat="49.42326" lon="0.22208">
        <ele>80.8</ele>
        <time>2015-10-18T12:14:28Z</time>
      </trkpt>
      <trkpt lat="49.42326" lon="0.22209">
        <ele>80.9</ele>
        <time>2015-10-18T12:14:29Z</time>
      </trkpt>
      <trkpt lat="49.42326" lon="0.22211">
        <ele>80.9</ele>
        <time>2015-10-18T12:14:30Z</time>
      </trkpt>
      <trkpt lat="49.42325" lon="0.22213">
        <ele>80.8</ele>
        <time>2015-10-18T12:14:31Z</time>
      </trkpt>
      <trkpt lat="49.42325" lon="0.22214">
        <ele>80.6</ele>
        <time>2015-10-18T12:14:32Z</time>
      </trkpt>
      <trkpt lat="49.42325" lon="0.22216">
        <ele>80.5</ele>
        <time>2015-10-18T12:14:33Z</time>
      </trkpt>
      <trkpt lat="49.42325" lon="0.22218">
        <ele>80.7</ele>
        <time>2015-10-18T12:14:34Z</time>
      </trkpt>
      <trkpt lat="49.42324" lon="0.22219">
        <ele>80.8</ele>
        <time>2015-10-18T12:14:35Z</time>
      </trkpt>
      <trkpt lat="49.42324" lon="0.22221">
        <ele>80.9</ele>
        <time>2015-10-18T12:14:36Z</time>
      </trkpt>
      <trkpt lat="49.42317" lon="0.22238">
        <ele>81.9</ele>
        <time>2015-10-18T12:14:46Z</time>
      </trkpt>
      <trkpt lat="49.42316" lon="0.22241">
        <ele>82.3</ele>
        <time>2015-10-18T12:14:48Z</time>
      </trkpt>
      <trkpt lat="49.42309" lon="0.22251">
        <ele>82.4</ele>
        <time>2015-10-18T12:14:56Z</time>
      </trkpt>
      <trkpt lat="49.42307" lon="0.22254">
        <ele>82.6</ele>
        <time>2015-10-18T12:14:59Z</time>
      </trkpt>
      <trkpt lat="49.42306" lon="0.22254">
        <ele>83.1</ele>
        <time>2015-10-18T12:15:02Z</time>
      </trkpt>
      <trkpt lat="49.42306" lon="0.22256">
        <ele>80.5</ele>
        <time>2015-10-18T12:15:07Z</time>
      </trkpt>
      <trkpt lat="49.42306" lon="0.22257">
        <ele>80.9</ele>
        <time>2015-10-18T12:15:08Z</time>
      </trkpt>
      <trkpt lat="49.42306" lon="0.22259">
        <ele>81.1</ele>
        <time>2015-10-18T12:15:09Z</time>
      </trkpt>
      <trkpt lat="49.42305" lon="0.2226">
        <ele>81.3</ele>
        <time>2015-10-18T12:15:10Z</time>
      </trkpt>
      <trkpt lat="49.42304" lon="0.22261">
        <ele>81.5</ele>
        <time>2015-10-18T12:15:11Z</time>
      </trkpt>
      <trkpt lat="49.42303" lon="0.22262">
        <ele>81.6</ele>
        <time>2015-10-18T12:15:12Z</time>
      </trkpt>
      <trkpt lat="49.42302" lon="0.22263">
        <ele>81.7</ele>
        <time>2015-10-18T12:15:13Z</time>
      </trkpt>
      <trkpt lat="49.42298" lon="0.22265">
        <ele>81.5</ele>
        <time>2015-10-18T12:15:17Z</time>
      </trkpt>
      <trkpt lat="49.42298" lon="0.22266">
        <ele>81.4</ele>
        <time>2015-10-18T12:15:18Z</time>
      </trkpt>
      <trkpt lat="49.42289" lon="0.2227">
        <ele>83.3</ele>
        <time>2015-10-18T12:15:25Z</time>
      </trkpt>
      <trkpt lat="49.42284" lon="0.22271">
        <ele>80.8</ele>
        <time>2015-10-18T12:15:30Z</time>
      </trkpt>
      <trkpt lat="49.42283" lon="0.22271">
        <ele>76.9</ele>
        <time>2015-10-18T12:15:31Z</time>
      </trkpt>
      <trkpt lat="49.42272" lon="0.22268">
        <ele>82.2</ele>
        <time>2015-10-18T12:15:40Z</time>
      </trkpt>
      <trkpt lat="49.42261" lon="0.22262">
        <ele>87.4</ele>
        <time>2015-10-18T12:15:52Z</time>
      </trkpt>
      <trkpt lat="49.42244" lon="0.22249">
        <ele>84.9</ele>
        <time>2015-10-18T12:16:06Z</time>
      </trkpt>
      <trkpt lat="49.42234" lon="0.22241">
        <ele>84.5</ele>
        <time>2015-10-18T12:16:14Z</time>
      </trkpt>
      <trkpt lat="49.42231" lon="0.22241">
        <ele>84.8</ele>
        <time>2015-10-18T12:16:16Z</time>
      </trkpt>
      <trkpt lat="49.42226" lon="0.22243">
        <ele>85.1</ele>
        <time>2015-10-18T12:16:19Z</time>
      </trkpt>
      <trkpt lat="49.42224" lon="0.22245">
        <ele>85.2</ele>
        <time>2015-10-18T12:16:21Z</time>
      </trkpt>
      <trkpt lat="49.42219" lon="0.22252">
        <ele>84.8</ele>
        <time>2015-10-18T12:16:26Z</time>
      </trkpt>
      <trkpt lat="49.42211" lon="0.22264">
        <ele>85.3</ele>
        <time>2015-10-18T12:16:36Z</time>
      </trkpt>
      <trkpt lat="49.4221" lon="0.22266">
        <ele>85.1</ele>
        <time>2015-10-18T12:16:37Z</time>
      </trkpt>
      <trkpt lat="49.42142" lon="0.22347">
        <ele>87.6</ele>
        <time>2015-10-18T12:17:36Z</time>
      </trkpt>
      <trkpt lat="49.42141" lon="0.22348">
        <ele>86.6</ele>
        <time>2015-10-18T12:17:37Z</time>
      </trkpt>
      <trkpt lat="49.4214" lon="0.2235">
        <ele>85.9</ele>
        <time>2015-10-18T12:17:38Z</time>
      </trkpt>
      <trkpt lat="49.42038" lon="0.22481">
        <ele>85.4</ele>
        <time>2015-10-18T12:19:08Z</time>
      </trkpt>
      <trkpt lat="49.42037" lon="0.22483">
        <ele>86.2</ele>
        <time>2015-10-18T12:19:09Z</time>
      </trkpt>
      <trkpt lat="49.42028" lon="0.22497">
        <ele>83.6</ele>
        <time>2015-10-18T12:19:18Z</time>
      </trkpt>
      <trkpt lat="49.42016" lon="0.2253">
        <ele>82.5</ele>
        <time>2015-10-18T12:19:36Z</time>
      </trkpt>
      <trkpt lat="49.42015" lon="0.22535">
        <ele>83.4</ele>
        <time>2015-10-18T12:19:38Z</time>
      </trkpt>
      <trkpt lat="49.42012" lon="0.22563">
        <ele>81.9</ele>
        <time>2015-10-18T12:19:52Z</time>
      </trkpt>
      <trkpt lat="49.42012" lon="0.22565">
        <ele>82.5</ele>
        <time>2015-10-18T12:19:54Z</time>
      </trkpt>
      <trkpt lat="49.42012" lon="0.22566">
        <ele>82.5</ele>
        <time>2015-10-18T12:19:55Z</time>
      </trkpt>
      <trkpt lat="49.42012" lon="0.22566">
        <ele>82.6</ele>
        <time>2015-10-18T12:19:56Z</time>
      </trkpt>
      <trkpt lat="49.42012" lon="0.22566">
        <ele>82.4</ele>
        <time>2015-10-18T12:19:57Z</time>
      </trkpt>
      <trkpt lat="49.42012" lon="0.22567">
        <ele>82.3</ele>
        <time>2015-10-18T12:19:58Z</time>
      </trkpt>
      <trkpt lat="49.42012" lon="0.22567">
        <ele>82.2</ele>
        <time>2015-10-18T12:19:59Z</time>
      </trkpt>
      <trkpt lat="49.42012" lon="0.22566">
        <ele>81.7</ele>
        <time>2015-10-18T12:20:00Z</time>
      </trkpt>
      <trkpt lat="49.42011" lon="0.22566">
        <ele>81.4</ele>
        <time>2015-10-18T12:20:01Z</time>
      </trkpt>
      <trkpt lat="49.42011" lon="0.22566">
        <ele>81.1</ele>
        <time>2015-10-18T12:20:02Z</time>
      </trkpt>
      <trkpt lat="49.42012" lon="0.22565">
        <ele>80.5</ele>
        <time>2015-10-18T12:20:03Z</time>
      </trkpt>
      <trkpt lat="49.42012" lon="0.22565">
        <ele>80</ele>
        <time>2015-10-18T12:20:04Z</time>
      </trkpt>
      <trkpt lat="49.42012" lon="0.22565">
        <ele>79.6</ele>
        <time>2015-10-18T12:20:05Z</time>
      </trkpt>
      <trkpt lat="49.42012" lon="0.22565">
        <ele>80.2</ele>
        <time>2015-10-18T12:20:06Z</time>
      </trkpt>
      <trkpt lat="49.42012" lon="0.22566">
        <ele>80.6</ele>
        <time>2015-10-18T12:20:07Z</time>
      </trkpt>
      <trkpt lat="49.42012" lon="0.22566">
        <ele>81</ele>
        <time>2015-10-18T12:20:08Z</time>
      </trkpt>
      <trkpt lat="49.42012" lon="0.22566">
        <ele>81.2</ele>
        <time>2015-10-18T12:20:09Z</time>
      </trkpt>
      <trkpt lat="49.42012" lon="0.22566">
        <ele>81.4</ele>
        <time>2015-10-18T12:20:10Z</time>
      </trkpt>
      <trkpt lat="49.42012" lon="0.22566">
        <ele>81.5</ele>
        <time>2015-10-18T12:20:11Z</time>
      </trkpt>
      <trkpt lat="49.42012" lon="0.22566">
        <ele>81.6</ele>
        <time>2015-10-18T12:20:12Z</time>
      </trkpt>
      <trkpt lat="49.42012" lon="0.22566">
        <ele>81.7</ele>
        <time>2015-10-18T12:20:13Z</time>
      </trkpt>
      <trkpt lat="49.42012" lon="0.22566">
        <ele>81.8</ele>
        <time>2015-10-18T12:20:14Z</time>
      </trkpt>
      <trkpt lat="49.42012" lon="0.22566">
        <ele>81.2</ele>
        <time>2015-10-18T12:20:15Z</time>
      </trkpt>
      <trkpt lat="49.42012" lon="0.22566">
        <ele>80.7</ele>
        <time>2015-10-18T12:20:16Z</time>
      </trkpt>
      <trkpt lat="49.42012" lon="0.22566">
        <ele>80.4</ele>
        <time>2015-10-18T12:20:17Z</time>
      </trkpt>
      <trkpt lat="49.42013" lon="0.22566">
        <ele>80.6</ele>
        <time>2015-10-18T12:20:18Z</time>
      </trkpt>
      <trkpt lat="49.42013" lon="0.22566">
        <ele>80.7</ele>
        <time>2015-10-18T12:20:19Z</time>
      </trkpt>
      <trkpt lat="49.42013" lon="0.22566">
        <ele>80.8</ele>
        <time>2015-10-18T12:20:20Z</time>
      </trkpt>
      <trkpt lat="49.42013" lon="0.22566">
        <ele>80.7</ele>
        <time>2015-10-18T12:20:21Z</time>
      </trkpt>
      <trkpt lat="49.42014" lon="0.22566">
        <ele>80.6</ele>
        <time>2015-10-18T12:20:22Z</time>
      </trkpt>
      <trkpt lat="49.42014" lon="0.22566">
        <ele>80.5</ele>
        <time>2015-10-18T12:20:23Z</time>
      </trkpt>
      <trkpt lat="49.42014" lon="0.22566">
        <ele>79.8</ele>
        <time>2015-10-18T12:20:24Z</time>
      </trkpt>
      <trkpt lat="49.42015" lon="0.22566">
        <ele>79.3</ele>
        <time>2015-10-18T12:20:25Z</time>
      </trkpt>
      <trkpt lat="49.42015" lon="0.22566">
        <ele>78.9</ele>
        <time>2015-10-18T12:20:26Z</time>
      </trkpt>
      <trkpt lat="49.42015" lon="0.22566">
        <ele>79.5</ele>
        <time>2015-10-18T12:20:27Z</time>
      </trkpt>
      <trkpt lat="49.42015" lon="0.22565">
        <ele>79.9</ele>
        <time>2015-10-18T12:20:28Z</time>
      </trkpt>
      <trkpt lat="49.42015" lon="0.22565">
        <ele>80.2</ele>
        <time>2015-10-18T12:20:29Z</time>
      </trkpt>
      <trkpt lat="49.42013" lon="0.22564">
        <ele>79.5</ele>
        <time>2015-10-18T12:20:31Z</time>
      </trkpt>
      <trkpt lat="49.42012" lon="0.22564">
        <ele>79.3</ele>
        <time>2015-10-18T12:20:32Z</time>
      </trkpt>
      <trkpt lat="49.42011" lon="0.22564">
        <ele>79.7</ele>
        <time>2015-10-18T12:20:33Z</time>
      </trkpt>
      <trkpt lat="49.42011" lon="0.22565">
        <ele>80.1</ele>
        <time>2015-10-18T12:20:34Z</time>
      </trkpt>
      <trkpt lat="49.4201" lon="0.22565">
        <ele>80.3</ele>
        <time>2015-10-18T12:20:35Z</time>
      </trkpt>
      <trkpt lat="49.42009" lon="0.22565">
        <ele>80.1</ele>
        <time>2015-10-18T12:20:36Z</time>
      </trkpt>
      <trkpt lat="49.42008" lon="0.22566">
        <ele>79.9</ele>
        <time>2015-10-18T12:20:37Z</time>
      </trkpt>
      <trkpt lat="49.42007" lon="0.22567">
        <ele>79.8</ele>
        <time>2015-10-18T12:20:38Z</time>
      </trkpt>
      <trkpt lat="49.42006" lon="0.22568">
        <ele>79.5</ele>
        <time>2015-10-18T12:20:39Z</time>
      </trkpt>
      <trkpt lat="49.42005" lon="0.22569">
        <ele>79.3</ele>
        <time>2015-10-18T12:20:40Z</time>
      </trkpt>
      <trkpt lat="49.42005" lon="0.22569">
        <ele>79.1</ele>
        <time>2015-10-18T12:20:41Z</time>
      </trkpt>
      <trkpt lat="49.42005" lon="0.22569">
        <ele>78.8</ele>
        <time>2015-10-18T12:20:42Z</time>
      </trkpt>
      <trkpt lat="49.42005" lon="0.2257">
        <ele>78.5</ele>
        <time>2015-10-18T12:20:43Z</time>
      </trkpt>
      <trkpt lat="49.42005" lon="0.2257">
        <ele>78.3</ele>
        <time>2015-10-18T12:20:44Z</time>
      </trkpt>
      <trkpt lat="49.42004" lon="0.2257">
        <ele>78.6</ele>
        <time>2015-10-18T12:20:45Z</time>
      </trkpt>
      <trkpt lat="49.42004" lon="0.2257">
        <ele>78.8</ele>
        <time>2015-10-18T12:20:46Z</time>
      </trkpt>
      <trkpt lat="49.42004" lon="0.22571">
        <ele>79</ele>
        <time>2015-10-18T12:20:47Z</time>
      </trkpt>
      <trkpt lat="49.42004" lon="0.22571">
        <ele>78.7</ele>
        <time>2015-10-18T12:20:48Z</time>
      </trkpt>
      <trkpt lat="49.42005" lon="0.22572">
        <ele>78.4</ele>
        <time>2015-10-18T12:20:49Z</time>
      </trkpt>
      <trkpt lat="49.42005" lon="0.22572">
        <ele>78.3</ele>
        <time>2015-10-18T12:20:50Z</time>
      </trkpt>
      <trkpt lat="49.42005" lon="0.22573">
        <ele>78.1</ele>
        <time>2015-10-18T12:20:51Z</time>
      </trkpt>
      <trkpt lat="49.42005" lon="0.22573">
        <ele>78</ele>
        <time>2015-10-18T12:20:52Z</time>
      </trkpt>
      <trkpt lat="49.42005" lon="0.22574">
        <ele>78</ele>
        <time>2015-10-18T12:20:53Z</time>
      </trkpt>
      <trkpt lat="49.42005" lon="0.22574">
        <ele>78.1</ele>
        <time>2015-10-18T12:20:54Z</time>
      </trkpt>
      <trkpt lat="49.42005" lon="0.22574">
        <ele>78.2</ele>
        <time>2015-10-18T12:20:55Z</time>
      </trkpt>
      <trkpt lat="49.42005" lon="0.22574">
        <ele>78.3</ele>
        <time>2015-10-18T12:20:56Z</time>
      </trkpt>
      <trkpt lat="49.42005" lon="0.22574">
        <ele>78.4</ele>
        <time>2015-10-18T12:20:57Z</time>
      </trkpt>
      <trkpt lat="49.42005" lon="0.22574">
        <ele>78.4</ele>
        <time>2015-10-18T12:20:58Z</time>
      </trkpt>
      <trkpt lat="49.42005" lon="0.22574">
        <ele>78.5</ele>
        <time>2015-10-18T12:20:59Z</time>
      </trkpt>
      <trkpt lat="49.42005" lon="0.22574">
        <ele>77.7</ele>
        <time>2015-10-18T12:21:00Z</time>
      </trkpt>
      <trkpt lat="49.42005" lon="0.22574">
        <ele>77.1</ele>
        <time>2015-10-18T12:21:01Z</time>
      </trkpt>
      <trkpt lat="49.42005" lon="0.22574">
        <ele>76.6</ele>
        <time>2015-10-18T12:21:02Z</time>
      </trkpt>
      <trkpt lat="49.42005" lon="0.22574">
        <ele>76.9</ele>
        <time>2015-10-18T12:21:03Z</time>
      </trkpt>
      <trkpt lat="49.42005" lon="0.22573">
        <ele>77.1</ele>
        <time>2015-10-18T12:21:04Z</time>
      </trkpt>
      <trkpt lat="49.42004" lon="0.22573">
        <ele>77.3</ele>
        <time>2015-10-18T12:21:05Z</time>
      </trkpt>
      <trkpt lat="49.42004" lon="0.22573">
        <ele>78.7</ele>
        <time>2015-10-18T12:21:06Z</time>
      </trkpt>
      <trkpt lat="49.42004" lon="0.22573">
        <ele>79.7</ele>
        <time>2015-10-18T12:21:07Z</time>
      </trkpt>
      <trkpt lat="49.42004" lon="0.22573">
        <ele>80.5</ele>
        <time>2015-10-18T12:21:08Z</time>
      </trkpt>
      <trkpt lat="49.42003" lon="0.22573">
        <ele>80.8</ele>
        <time>2015-10-18T12:21:09Z</time>
      </trkpt>
      <trkpt lat="49.42003" lon="0.22573">
        <ele>81.1</ele>
        <time>2015-10-18T12:21:10Z</time>
      </trkpt>
      <trkpt lat="49.42003" lon="0.22572">
        <ele>81.3</ele>
        <time>2015-10-18T12:21:11Z</time>
      </trkpt>
      <trkpt lat="49.42003" lon="0.22571">
        <ele>80.6</ele>
        <time>2015-10-18T12:21:12Z</time>
      </trkpt>
      <trkpt lat="49.42003" lon="0.2257">
        <ele>80.1</ele>
        <time>2015-10-18T12:21:13Z</time>
      </trkpt>
      <trkpt lat="49.42003" lon="0.2257">
        <ele>79.7</ele>
        <time>2015-10-18T12:21:14Z</time>
      </trkpt>
      <trkpt lat="49.42003" lon="0.2257">
        <ele>79.9</ele>
        <time>2015-10-18T12:21:15Z</time>
      </trkpt>
      <trkpt lat="49.42003" lon="0.22569">
        <ele>80</ele>
        <time>2015-10-18T12:21:16Z</time>
      </trkpt>
      <trkpt lat="49.42003" lon="0.22569">
        <ele>80</ele>
        <time>2015-10-18T12:21:17Z</time>
      </trkpt>
      <trkpt lat="49.42002" lon="0.22568">
        <ele>79.9</ele>
        <time>2015-10-18T12:21:18Z</time>
      </trkpt>
      <trkpt lat="49.42001" lon="0.22568">
        <ele>79.7</ele>
        <time>2015-10-18T12:21:20Z</time>
      </trkpt>
      <trkpt lat="49.42" lon="0.22568">
        <ele>79.4</ele>
        <time>2015-10-18T12:21:21Z</time>
      </trkpt>
      <trkpt lat="49.42" lon="0.22568">
        <ele>79.2</ele>
        <time>2015-10-18T12:21:22Z</time>
      </trkpt>
      <trkpt lat="49.41999" lon="0.22569">
        <ele>79.1</ele>
        <time>2015-10-18T12:21:23Z</time>
      </trkpt>
      <trkpt lat="49.41999" lon="0.22569">
        <ele>78.5</ele>
        <time>2015-10-18T12:21:24Z</time>
      </trkpt>
      <trkpt lat="49.41998" lon="0.2257">
        <ele>78.1</ele>
        <time>2015-10-18T12:21:25Z</time>
      </trkpt>
      <trkpt lat="49.41997" lon="0.22571">
        <ele>77.8</ele>
        <time>2015-10-18T12:21:26Z</time>
      </trkpt>
      <trkpt lat="49.41997" lon="0.22572">
        <ele>77.8</ele>
        <time>2015-10-18T12:21:27Z</time>
      </trkpt>
      <trkpt lat="49.41997" lon="0.22574">
        <ele>77.8</ele>
        <time>2015-10-18T12:21:28Z</time>
      </trkpt>
      <trkpt lat="49.41998" lon="0.22575">
        <ele>77.8</ele>
        <time>2015-10-18T12:21:29Z</time>
      </trkpt>
      <trkpt lat="49.41998" lon="0.22576">
        <ele>76.3</ele>
        <time>2015-10-18T12:21:30Z</time>
      </trkpt>
      <trkpt lat="49.41999" lon="0.22577">
        <ele>75.2</ele>
        <time>2015-10-18T12:21:31Z</time>
      </trkpt>
      <trkpt lat="49.41999" lon="0.22578">
        <ele>74.4</ele>
        <time>2015-10-18T12:21:32Z</time>
      </trkpt>
      <trkpt lat="49.42" lon="0.22579">
        <ele>74.8</ele>
        <time>2015-10-18T12:21:33Z</time>
      </trkpt>
      <trkpt lat="49.42001" lon="0.2258">
        <ele>75.1</ele>
        <time>2015-10-18T12:21:34Z</time>
      </trkpt>
      <trkpt lat="49.42002" lon="0.22581">
        <ele>75.4</ele>
        <time>2015-10-18T12:21:35Z</time>
      </trkpt>
      <trkpt lat="49.42003" lon="0.22582">
        <ele>75.8</ele>
        <time>2015-10-18T12:21:36Z</time>
      </trkpt>
      <trkpt lat="49.42005" lon="0.22584">
        <ele>76.1</ele>
        <time>2015-10-18T12:21:37Z</time>
      </trkpt>
      <trkpt lat="49.42006" lon="0.22585">
        <ele>76.3</ele>
        <time>2015-10-18T12:21:38Z</time>
      </trkpt>
      <trkpt lat="49.42007" lon="0.22586">
        <ele>76.4</ele>
        <time>2015-10-18T12:21:39Z</time>
      </trkpt>
      <trkpt lat="49.42009" lon="0.22587">
        <ele>76.6</ele>
        <time>2015-10-18T12:21:40Z</time>
      </trkpt>
      <trkpt lat="49.4201" lon="0.22588">
        <ele>76.6</ele>
        <time>2015-10-18T12:21:41Z</time>
      </trkpt>
      <trkpt lat="49.42011" lon="0.22589">
        <ele>76.7</ele>
        <time>2015-10-18T12:21:42Z</time>
      </trkpt>
      <trkpt lat="49.42013" lon="0.22591">
        <ele>76.8</ele>
        <time>2015-10-18T12:21:44Z</time>
      </trkpt>
      <trkpt lat="49.42014" lon="0.22593">
        <ele>76.2</ele>
        <time>2015-10-18T12:21:45Z</time>
      </trkpt>
      <trkpt lat="49.42015" lon="0.22596">
        <ele>75.4</ele>
        <time>2015-10-18T12:21:48Z</time>
      </trkpt>
      <trkpt lat="49.42015" lon="0.22596">
        <ele>75.4</ele>
        <time>2015-10-18T12:21:49Z</time>
      </trkpt>
      <trkpt lat="49.42015" lon="0.22596">
        <ele>75.3</ele>
        <time>2015-10-18T12:21:50Z</time>
      </trkpt>
      <trkpt lat="49.42016" lon="0.22596">
        <ele>75.1</ele>
        <time>2015-10-18T12:21:51Z</time>
      </trkpt>
      <trkpt lat="49.42016" lon="0.22596">
        <ele>74.9</ele>
        <time>2015-10-18T12:21:52Z</time>
      </trkpt>
      <trkpt lat="49.42016" lon="0.22596">
        <ele>74.8</ele>
        <time>2015-10-18T12:21:53Z</time>
      </trkpt>
      <trkpt lat="49.42016" lon="0.22596">
        <ele>74.3</ele>
        <time>2015-10-18T12:21:54Z</time>
      </trkpt>
      <trkpt lat="49.42015" lon="0.22596">
        <ele>73.9</ele>
        <time>2015-10-18T12:21:55Z</time>
      </trkpt>
      <trkpt lat="49.42015" lon="0.22596">
        <ele>73.6</ele>
        <time>2015-10-18T12:21:56Z</time>
      </trkpt>
      <trkpt lat="49.42015" lon="0.22596">
        <ele>73</ele>
        <time>2015-10-18T12:21:57Z</time>
      </trkpt>
      <trkpt lat="49.42015" lon="0.22595">
        <ele>72.5</ele>
        <time>2015-10-18T12:21:58Z</time>
      </trkpt>
      <trkpt lat="49.42015" lon="0.22595">
        <ele>72.2</ele>
        <time>2015-10-18T12:21:59Z</time>
      </trkpt>
      <trkpt lat="49.42014" lon="0.22595">
        <ele>73</ele>
        <time>2015-10-18T12:22:02Z</time>
      </trkpt>
      <trkpt lat="49.42014" lon="0.22594">
        <ele>72.9</ele>
        <time>2015-10-18T12:22:03Z</time>
      </trkpt>
      <trkpt lat="49.42014" lon="0.22594">
        <ele>72.9</ele>
        <time>2015-10-18T12:22:04Z</time>
      </trkpt>
      <trkpt lat="49.42014" lon="0.22594">
        <ele>72.8</ele>
        <time>2015-10-18T12:22:05Z</time>
      </trkpt>
      <trkpt lat="49.42013" lon="0.22594">
        <ele>72.8</ele>
        <time>2015-10-18T12:22:06Z</time>
      </trkpt>
      <trkpt lat="49.42013" lon="0.22594">
        <ele>72.8</ele>
        <time>2015-10-18T12:22:07Z</time>
      </trkpt>
      <trkpt lat="49.42013" lon="0.22594">
        <ele>72.8</ele>
        <time>2015-10-18T12:22:08Z</time>
      </trkpt>
      <trkpt lat="49.42013" lon="0.22594">
        <ele>72.8</ele>
        <time>2015-10-18T12:22:09Z</time>
      </trkpt>
      <trkpt lat="49.42013" lon="0.22594">
        <ele>72.8</ele>
        <time>2015-10-18T12:22:10Z</time>
      </trkpt>
      <trkpt lat="49.42013" lon="0.22594">
        <ele>72.8</ele>
        <time>2015-10-18T12:22:11Z</time>
      </trkpt>
      <trkpt lat="49.42013" lon="0.22594">
        <ele>73</ele>
        <time>2015-10-18T12:22:12Z</time>
      </trkpt>
      <trkpt lat="49.42012" lon="0.22594">
        <ele>73.1</ele>
        <time>2015-10-18T12:22:13Z</time>
      </trkpt>
      <trkpt lat="49.42012" lon="0.22594">
        <ele>73.2</ele>
        <time>2015-10-18T12:22:14Z</time>
      </trkpt>
      <trkpt lat="49.42012" lon="0.22594">
        <ele>73.3</ele>
        <time>2015-10-18T12:22:15Z</time>
      </trkpt>
      <trkpt lat="49.42012" lon="0.22594">
        <ele>73.4</ele>
        <time>2015-10-18T12:22:16Z</time>
      </trkpt>
      <trkpt lat="49.42012" lon="0.22594">
        <ele>73.4</ele>
        <time>2015-10-18T12:22:17Z</time>
      </trkpt>
      <trkpt lat="49.42012" lon="0.22594">
        <ele>73.1</ele>
        <time>2015-10-18T12:22:18Z</time>
      </trkpt>
      <trkpt lat="49.42013" lon="0.22595">
        <ele>72.8</ele>
        <time>2015-10-18T12:22:19Z</time>
      </trkpt>
      <trkpt lat="49.42013" lon="0.22595">
        <ele>72.6</ele>
        <time>2015-10-18T12:22:20Z</time>
      </trkpt>
      <trkpt lat="49.42013" lon="0.22595">
        <ele>72.6</ele>
        <time>2015-10-18T12:22:21Z</time>
      </trkpt>
      <trkpt lat="49.42013" lon="0.22595">
        <ele>72.6</ele>
        <time>2015-10-18T12:22:22Z</time>
      </trkpt>
      <trkpt lat="49.42013" lon="0.22595">
        <ele>72.7</ele>
        <time>2015-10-18T12:22:23Z</time>
      </trkpt>
      <trkpt lat="49.42013" lon="0.22595">
        <ele>72.5</ele>
        <time>2015-10-18T12:22:24Z</time>
      </trkpt>
      <trkpt lat="49.42013" lon="0.22596">
        <ele>72.3</ele>
        <time>2015-10-18T12:22:25Z</time>
      </trkpt>
      <trkpt lat="49.42013" lon="0.22596">
        <ele>72.2</ele>
        <time>2015-10-18T12:22:26Z</time>
      </trkpt>
      <trkpt lat="49.42013" lon="0.22596">
        <ele>73</ele>
        <time>2015-10-18T12:22:27Z</time>
      </trkpt>
      <trkpt lat="49.42013" lon="0.22596">
        <ele>73.6</ele>
        <time>2015-10-18T12:22:28Z</time>
      </trkpt>
      <trkpt lat="49.42013" lon="0.22596">
        <ele>74</ele>
        <time>2015-10-18T12:22:29Z</time>
      </trkpt>
      <trkpt lat="49.42013" lon="0.22596">
        <ele>74.1</ele>
        <time>2015-10-18T12:22:30Z</time>
      </trkpt>
      <trkpt lat="49.42014" lon="0.22594">
        <ele>73</ele>
        <time>2015-10-18T12:22:38Z</time>
      </trkpt>
      <trkpt lat="49.42015" lon="0.22594">
        <ele>72.9</ele>
        <time>2015-10-18T12:22:40Z</time>
      </trkpt>
      <trkpt lat="49.42014" lon="0.22593">
        <ele>72.9</ele>
        <time>2015-10-18T12:22:41Z</time>
      </trkpt>
      <trkpt lat="49.42014" lon="0.22592">
        <ele>72.8</ele>
        <time>2015-10-18T12:22:42Z</time>
      </trkpt>
      <trkpt lat="49.42013" lon="0.22592">
        <ele>72.8</ele>
        <time>2015-10-18T12:22:43Z</time>
      </trkpt>
      <trkpt lat="49.42012" lon="0.22591">
        <ele>72.8</ele>
        <time>2015-10-18T12:22:44Z</time>
      </trkpt>
      <trkpt lat="49.4201" lon="0.22592">
        <ele>72.8</ele>
        <time>2015-10-18T12:22:46Z</time>
      </trkpt>
      <trkpt lat="49.41998" lon="0.22597">
        <ele>70.8</ele>
        <time>2015-10-18T12:22:56Z</time>
      </trkpt>
      <trkpt lat="49.41998" lon="0.22603">
        <ele>70</ele>
        <time>2015-10-18T12:22:59Z</time>
      </trkpt>
      <trkpt lat="49.41998" lon="0.22604">
        <ele>69.4</ele>
        <time>2015-10-18T12:23:00Z</time>
      </trkpt>
      <trkpt lat="49.41998" lon="0.22605">
        <ele>69</ele>
        <time>2015-10-18T12:23:01Z</time>
      </trkpt>
      <trkpt lat="49.41999" lon="0.22605">
        <ele>68.7</ele>
        <time>2015-10-18T12:23:02Z</time>
      </trkpt>
      <trkpt lat="49.41999" lon="0.22605">
        <ele>68.9</ele>
        <time>2015-10-18T12:23:03Z</time>
      </trkpt>
      <trkpt lat="49.42" lon="0.22605">
        <ele>69</ele>
        <time>2015-10-18T12:23:04Z</time>
      </trkpt>
      <trkpt lat="49.42" lon="0.22606">
        <ele>69.1</ele>
        <time>2015-10-18T12:23:05Z</time>
      </trkpt>
      <trkpt lat="49.42001" lon="0.22606">
        <ele>69.6</ele>
        <time>2015-10-18T12:23:06Z</time>
      </trkpt>
      <trkpt lat="49.42001" lon="0.22606">
        <ele>70</ele>
        <time>2015-10-18T12:23:07Z</time>
      </trkpt>
      <trkpt lat="49.42001" lon="0.22606">
        <ele>70.3</ele>
        <time>2015-10-18T12:23:08Z</time>
      </trkpt>
      <trkpt lat="49.42001" lon="0.22606">
        <ele>70.5</ele>
        <time>2015-10-18T12:23:09Z</time>
      </trkpt>
      <trkpt lat="49.42001" lon="0.22606">
        <ele>70</ele>
        <time>2015-10-18T12:23:14Z</time>
      </trkpt>
      <trkpt lat="49.42001" lon="0.22606">
        <ele>70</ele>
        <time>2015-10-18T12:23:15Z</time>
      </trkpt>
      <trkpt lat="49.42001" lon="0.22606">
        <ele>70.1</ele>
        <time>2015-10-18T12:23:16Z</time>
      </trkpt>
      <trkpt lat="49.42001" lon="0.22606">
        <ele>70.1</ele>
        <time>2015-10-18T12:23:17Z</time>
      </trkpt>
      <trkpt lat="49.42002" lon="0.22606">
        <ele>70.2</ele>
        <time>2015-10-18T12:23:18Z</time>
      </trkpt>
      <trkpt lat="49.42013" lon="0.22614">
        <ele>67</ele>
        <time>2015-10-18T12:23:27Z</time>
      </trkpt>
      <trkpt lat="49.42014" lon="0.22615">
        <ele>66.6</ele>
        <time>2015-10-18T12:23:28Z</time>
      </trkpt>
      <trkpt lat="49.42015" lon="0.22622">
        <ele>66.2</ele>
        <time>2015-10-18T12:23:32Z</time>
      </trkpt>
      <trkpt lat="49.42014" lon="0.22623">
        <ele>66.1</ele>
        <time>2015-10-18T12:23:33Z</time>
      </trkpt>
      <trkpt lat="49.42014" lon="0.22624">
        <ele>66.1</ele>
        <time>2015-10-18T12:23:34Z</time>
      </trkpt>
      <trkpt lat="49.42013" lon="0.22624">
        <ele>66.1</ele>
        <time>2015-10-18T12:23:35Z</time>
      </trkpt>
      <trkpt lat="49.42011" lon="0.22625">
        <ele>65.3</ele>
        <time>2015-10-18T12:23:36Z</time>
      </trkpt>
      <trkpt lat="49.4201" lon="0.22625">
        <ele>64.6</ele>
        <time>2015-10-18T12:23:37Z</time>
      </trkpt>
      <trkpt lat="49.42009" lon="0.22624">
        <ele>64.2</ele>
        <time>2015-10-18T12:23:38Z</time>
      </trkpt>
      <trkpt lat="49.42008" lon="0.22624">
        <ele>64.2</ele>
        <time>2015-10-18T12:23:39Z</time>
      </trkpt>
      <trkpt lat="49.42006" lon="0.22624">
        <ele>64.3</ele>
        <time>2015-10-18T12:23:40Z</time>
      </trkpt>
      <trkpt lat="49.42005" lon="0.22624">
        <ele>64.3</ele>
        <time>2015-10-18T12:23:41Z</time>
      </trkpt>
      <trkpt lat="49.42004" lon="0.22625">
        <ele>64.1</ele>
        <time>2015-10-18T12:23:42Z</time>
      </trkpt>
      <trkpt lat="49.42003" lon="0.22625">
        <ele>64</ele>
        <time>2015-10-18T12:23:43Z</time>
      </trkpt>
      <trkpt lat="49.42003" lon="0.22626">
        <ele>63.9</ele>
        <time>2015-10-18T12:23:44Z</time>
      </trkpt>
      <trkpt lat="49.42003" lon="0.22629">
        <ele>60.8</ele>
        <time>2015-10-18T12:23:59Z</time>
      </trkpt>
      <trkpt lat="49.42004" lon="0.22629">
        <ele>60.8</ele>
        <time>2015-10-18T12:24:00Z</time>
      </trkpt>
      <trkpt lat="49.42014" lon="0.22637">
        <ele>59</ele>
        <time>2015-10-18T12:24:10Z</time>
      </trkpt>
      <trkpt lat="49.42015" lon="0.22639">
        <ele>58.9</ele>
        <time>2015-10-18T12:24:11Z</time>
      </trkpt>
      <trkpt lat="49.42015" lon="0.2264">
        <ele>58.6</ele>
        <time>2015-10-18T12:24:12Z</time>
      </trkpt>
      <trkpt lat="49.42016" lon="0.22642">
        <ele>58.4</ele>
        <time>2015-10-18T12:24:13Z</time>
      </trkpt>
      <trkpt lat="49.42016" lon="0.22644">
        <ele>58.2</ele>
        <time>2015-10-18T12:24:14Z</time>
      </trkpt>
      <trkpt lat="49.42015" lon="0.22645">
        <ele>58.3</ele>
        <time>2015-10-18T12:24:15Z</time>
      </trkpt>
      <trkpt lat="49.42015" lon="0.22647">
        <ele>58.4</ele>
        <time>2015-10-18T12:24:16Z</time>
      </trkpt>
      <trkpt lat="49.42014" lon="0.22648">
        <ele>58.4</ele>
        <time>2015-10-18T12:24:17Z</time>
      </trkpt>
      <trkpt lat="49.42013" lon="0.2265">
        <ele>57.8</ele>
        <time>2015-10-18T12:24:18Z</time>
      </trkpt>
      <trkpt lat="49.42013" lon="0.22652">
        <ele>57.4</ele>
        <time>2015-10-18T12:24:19Z</time>
      </trkpt>
      <trkpt lat="49.42013" lon="0.22654">
        <ele>57.1</ele>
        <time>2015-10-18T12:24:20Z</time>
      </trkpt>
      <trkpt lat="49.42014" lon="0.22655">
        <ele>56.6</ele>
        <time>2015-10-18T12:24:21Z</time>
      </trkpt>
      <trkpt lat="49.42014" lon="0.22657">
        <ele>56.3</ele>
        <time>2015-10-18T12:24:22Z</time>
      </trkpt>
      <trkpt lat="49.42017" lon="0.22661">
        <ele>55.3</ele>
        <time>2015-10-18T12:24:25Z</time>
      </trkpt>
      <trkpt lat="49.42018" lon="0.22666">
        <ele>54.2</ele>
        <time>2015-10-18T12:24:29Z</time>
      </trkpt>
      <trkpt lat="49.42018" lon="0.22667">
        <ele>54.1</ele>
        <time>2015-10-18T12:24:30Z</time>
      </trkpt>
      <trkpt lat="49.42017" lon="0.22669">
        <ele>53.9</ele>
        <time>2015-10-18T12:24:31Z</time>
      </trkpt>
      <trkpt lat="49.42016" lon="0.22671">
        <ele>53.8</ele>
        <time>2015-10-18T12:24:32Z</time>
      </trkpt>
      <trkpt lat="49.42015" lon="0.22673">
        <ele>53.8</ele>
        <time>2015-10-18T12:24:33Z</time>
      </trkpt>
      <trkpt lat="49.42014" lon="0.22674">
        <ele>53.7</ele>
        <time>2015-10-18T12:24:34Z</time>
      </trkpt>
      <trkpt lat="49.42012" lon="0.22676">
        <ele>53.7</ele>
        <time>2015-10-18T12:24:35Z</time>
      </trkpt>
      <trkpt lat="49.42011" lon="0.22676">
        <ele>53</ele>
        <time>2015-10-18T12:24:36Z</time>
      </trkpt>
      <trkpt lat="49.42009" lon="0.22677">
        <ele>52.5</ele>
        <time>2015-10-18T12:24:37Z</time>
      </trkpt>
      <trkpt lat="49.42007" lon="0.22677">
        <ele>52.2</ele>
        <time>2015-10-18T12:24:38Z</time>
      </trkpt>
      <trkpt lat="49.42006" lon="0.22677">
        <ele>50</ele>
        <time>2015-10-18T12:24:39Z</time>
      </trkpt>
      <trkpt lat="49.42004" lon="0.22677">
        <ele>48.4</ele>
        <time>2015-10-18T12:24:40Z</time>
      </trkpt>
      <trkpt lat="49.42002" lon="0.22677">
        <ele>47.2</ele>
        <time>2015-10-18T12:24:41Z</time>
      </trkpt>
      <trkpt lat="49.42001" lon="0.22676">
        <ele>48.2</ele>
        <time>2015-10-18T12:24:42Z</time>
      </trkpt>
      <trkpt lat="49.42" lon="0.22676">
        <ele>48.9</ele>
        <time>2015-10-18T12:24:43Z</time>
      </trkpt>
      <trkpt lat="49.41998" lon="0.22676">
        <ele>49.4</ele>
        <time>2015-10-18T12:24:44Z</time>
      </trkpt>
      <trkpt lat="49.41997" lon="0.22675">
        <ele>49.2</ele>
        <time>2015-10-18T12:24:45Z</time>
      </trkpt>
      <trkpt lat="49.41995" lon="0.22675">
        <ele>49.1</ele>
        <time>2015-10-18T12:24:46Z</time>
      </trkpt>
      <trkpt lat="49.41994" lon="0.22675">
        <ele>48.9</ele>
        <time>2015-10-18T12:24:47Z</time>
      </trkpt>
      <trkpt lat="49.41986" lon="0.22673">
        <ele>48.2</ele>
        <time>2015-10-18T12:24:53Z</time>
      </trkpt>
      <trkpt lat="49.41985" lon="0.22673">
        <ele>47.9</ele>
        <time>2015-10-18T12:24:54Z</time>
      </trkpt>
      <trkpt lat="49.41978" lon="0.22674">
        <ele>45.7</ele>
        <time>2015-10-18T12:24:59Z</time>
      </trkpt>
      <trkpt lat="49.41976" lon="0.22676">
        <ele>45.1</ele>
        <time>2015-10-18T12:25:01Z</time>
      </trkpt>
      <trkpt lat="49.41972" lon="0.22678">
        <ele>44.7</ele>
        <time>2015-10-18T12:25:04Z</time>
      </trkpt>
      <trkpt lat="49.41968" lon="0.22683">
        <ele>43.5</ele>
        <time>2015-10-18T12:25:07Z</time>
      </trkpt>
      <trkpt lat="49.41959" lon="0.22695">
        <ele>41.5</ele>
        <time>2015-10-18T12:25:13Z</time>
      </trkpt>
      <trkpt lat="49.41953" lon="0.22702">
        <ele>39.4</ele>
        <time>2015-10-18T12:25:18Z</time>
      </trkpt>
      <trkpt lat="49.41952" lon="0.22704">
        <ele>38.7</ele>
        <time>2015-10-18T12:25:19Z</time>
      </trkpt>
      <trkpt lat="49.41951" lon="0.22705">
        <ele>38.3</ele>
        <time>2015-10-18T12:25:20Z</time>
      </trkpt>
      <trkpt lat="49.41949" lon="0.22708">
        <ele>38.1</ele>
        <time>2015-10-18T12:25:22Z</time>
      </trkpt>
      <trkpt lat="49.41948" lon="0.22709">
        <ele>38</ele>
        <time>2015-10-18T12:25:23Z</time>
      </trkpt>
      <trkpt lat="49.41947" lon="0.22711">
        <ele>36.7</ele>
        <time>2015-10-18T12:25:24Z</time>
      </trkpt>
      <trkpt lat="49.41946" lon="0.22712">
        <ele>35.7</ele>
        <time>2015-10-18T12:25:25Z</time>
      </trkpt>
      <trkpt lat="49.41946" lon="0.22714">
        <ele>35</ele>
        <time>2015-10-18T12:25:26Z</time>
      </trkpt>
      <trkpt lat="49.41945" lon="0.22716">
        <ele>33.3</ele>
        <time>2015-10-18T12:25:28Z</time>
      </trkpt>
      <trkpt lat="49.41945" lon="0.22719">
        <ele>32.8</ele>
        <time>2015-10-18T12:25:31Z</time>
      </trkpt>
      <trkpt lat="49.41945" lon="0.22719">
        <ele>32.8</ele>
        <time>2015-10-18T12:25:32Z</time>
      </trkpt>
      <trkpt lat="49.41945" lon="0.22719">
        <ele>32.1</ele>
        <time>2015-10-18T12:25:33Z</time>
      </trkpt>
      <trkpt lat="49.41945" lon="0.22719">
        <ele>31.7</ele>
        <time>2015-10-18T12:25:34Z</time>
      </trkpt>
      <trkpt lat="49.41945" lon="0.22719">
        <ele>31.3</ele>
        <time>2015-10-18T12:25:35Z</time>
      </trkpt>
      <trkpt lat="49.41945" lon="0.22719">
        <ele>31.5</ele>
        <time>2015-10-18T12:25:36Z</time>
      </trkpt>
      <trkpt lat="49.41945" lon="0.2272">
        <ele>32.2</ele>
        <time>2015-10-18T12:25:39Z</time>
      </trkpt>
      <trkpt lat="49.41946" lon="0.2272">
        <ele>31.5</ele>
        <time>2015-10-18T12:25:52Z</time>
      </trkpt>
      <trkpt lat="49.41946" lon="0.2272">
        <ele>31.5</ele>
        <time>2015-10-18T12:25:54Z</time>
      </trkpt>
      <trkpt lat="49.41947" lon="0.2272">
        <ele>31.6</ele>
        <time>2015-10-18T12:25:55Z</time>
      </trkpt>
      <trkpt lat="49.41947" lon="0.2272">
        <ele>31.7</ele>
        <time>2015-10-18T12:25:56Z</time>
      </trkpt>
      <trkpt lat="49.4195" lon="0.22722">
        <ele>31.5</ele>
        <time>2015-10-18T12:25:58Z</time>
      </trkpt>
      <trkpt lat="49.41956" lon="0.22731">
        <ele>31.1</ele>
        <time>2015-10-18T12:26:04Z</time>
      </trkpt>
      <trkpt lat="49.42019" lon="0.22825">
        <ele>16.8</ele>
        <time>2015-10-18T12:27:03Z</time>
      </trkpt>
      <trkpt lat="49.42019" lon="0.22825">
        <ele>16.8</ele>
        <time>2015-10-18T12:27:04Z</time>
      </trkpt>
      <trkpt lat="49.42019" lon="0.22825">
        <ele>16.1</ele>
        <time>2015-10-18T12:27:05Z</time>
      </trkpt>
      <trkpt lat="49.42019" lon="0.22825">
        <ele>15.5</ele>
        <time>2015-10-18T12:27:06Z</time>
      </trkpt>
      <trkpt lat="49.42019" lon="0.22825">
        <ele>15</ele>
        <time>2015-10-18T12:27:07Z</time>
      </trkpt>
      <trkpt lat="49.42019" lon="0.22825">
        <ele>15.3</ele>
        <time>2015-10-18T12:27:08Z</time>
      </trkpt>
      <trkpt lat="49.42019" lon="0.22825">
        <ele>15.5</ele>
        <time>2015-10-18T12:27:09Z</time>
      </trkpt>
      <trkpt lat="49.42019" lon="0.22825">
        <ele>15.7</ele>
        <time>2015-10-18T12:27:10Z</time>
      </trkpt>
      <trkpt lat="49.42019" lon="0.22825">
        <ele>13.7</ele>
        <time>2015-10-18T12:27:11Z</time>
      </trkpt>
      <trkpt lat="49.42019" lon="0.22825">
        <ele>12.3</ele>
        <time>2015-10-18T12:27:12Z</time>
      </trkpt>
      <trkpt lat="49.42019" lon="0.22825">
        <ele>11.2</ele>
        <time>2015-10-18T12:27:13Z</time>
      </trkpt>
      <trkpt lat="49.42019" lon="0.22825">
        <ele>12.4</ele>
        <time>2015-10-18T12:27:14Z</time>
      </trkpt>
      <trkpt lat="49.42019" lon="0.22825">
        <ele>13.4</ele>
        <time>2015-10-18T12:27:15Z</time>
      </trkpt>
      <trkpt lat="49.42019" lon="0.22825">
        <ele>14.1</ele>
        <time>2015-10-18T12:27:16Z</time>
      </trkpt>
      <trkpt lat="49.42019" lon="0.22825">
        <ele>14.4</ele>
        <time>2015-10-18T12:27:17Z</time>
      </trkpt>
      <trkpt lat="49.42019" lon="0.22825">
        <ele>14.6</ele>
        <time>2015-10-18T12:27:18Z</time>
      </trkpt>
      <trkpt lat="49.42019" lon="0.22825">
        <ele>14.9</ele>
        <time>2015-10-18T12:27:20Z</time>
      </trkpt>
      <trkpt lat="49.42019" lon="0.22825">
        <ele>15</ele>
        <time>2015-10-18T12:27:21Z</time>
      </trkpt>
      <trkpt lat="49.42019" lon="0.22825">
        <ele>15.1</ele>
        <time>2015-10-18T12:27:22Z</time>
      </trkpt>
      <trkpt lat="49.42019" lon="0.22825">
        <ele>15</ele>
        <time>2015-10-18T12:27:23Z</time>
      </trkpt>
      <trkpt lat="49.42019" lon="0.22824">
        <ele>14.8</ele>
        <time>2015-10-18T12:27:24Z</time>
      </trkpt>
      <trkpt lat="49.42019" lon="0.22824">
        <ele>14.8</ele>
        <time>2015-10-18T12:27:25Z</time>
      </trkpt>
      <trkpt lat="49.42019" lon="0.22824">
        <ele>14.5</ele>
        <time>2015-10-18T12:27:26Z</time>
      </trkpt>
      <trkpt lat="49.42019" lon="0.22824">
        <ele>14.3</ele>
        <time>2015-10-18T12:27:27Z</time>
      </trkpt>
      <trkpt lat="49.42019" lon="0.22824">
        <ele>14.1</ele>
        <time>2015-10-18T12:27:28Z</time>
      </trkpt>
      <trkpt lat="49.42024" lon="0.22822">
        <ele>15.3</ele>
        <time>2015-10-18T12:27:41Z</time>
      </trkpt>
      <trkpt lat="49.42024" lon="0.22822">
        <ele>15.3</ele>
        <time>2015-10-18T12:27:42Z</time>
      </trkpt>
      <trkpt lat="49.42025" lon="0.22822">
        <ele>15.3</ele>
        <time>2015-10-18T12:27:43Z</time>
      </trkpt>
      <trkpt lat="49.42025" lon="0.22822">
        <ele>15.3</ele>
        <time>2015-10-18T12:27:44Z</time>
      </trkpt>
      <trkpt lat="49.42026" lon="0.22823">
        <ele>15.3</ele>
        <time>2015-10-18T12:27:45Z</time>
      </trkpt>
      <trkpt lat="49.42028" lon="0.22824">
        <ele>15.3</ele>
        <time>2015-10-18T12:27:46Z</time>
      </trkpt>
      <trkpt lat="49.42045" lon="0.22852">
        <ele>13.9</ele>
        <time>2015-10-18T12:28:10Z</time>
      </trkpt>
      <trkpt lat="49.42046" lon="0.22855">
        <ele>13.6</ele>
        <time>2015-10-18T12:28:11Z</time>
      </trkpt>
      <trkpt lat="49.42047" lon="0.22862">
        <ele>13.2</ele>
        <time>2015-10-18T12:28:14Z</time>
      </trkpt>
      <trkpt lat="49.42048" lon="0.22865">
        <ele>13.1</ele>
        <time>2015-10-18T12:28:15Z</time>
      </trkpt>
      <trkpt lat="49.42048" lon="0.22868">
        <ele>13</ele>
        <time>2015-10-18T12:28:16Z</time>
      </trkpt>
      <trkpt lat="49.42048" lon="0.2287">
        <ele>12.6</ele>
        <time>2015-10-18T12:28:17Z</time>
      </trkpt>
      <trkpt lat="49.42049" lon="0.22873">
        <ele>12.2</ele>
        <time>2015-10-18T12:28:18Z</time>
      </trkpt>
      <trkpt lat="49.42049" lon="0.22875">
        <ele>12</ele>
        <time>2015-10-18T12:28:19Z</time>
      </trkpt>
      <trkpt lat="49.42049" lon="0.22877">
        <ele>12.2</ele>
        <time>2015-10-18T12:28:20Z</time>
      </trkpt>
      <trkpt lat="49.4205" lon="0.2288">
        <ele>12.4</ele>
        <time>2015-10-18T12:28:21Z</time>
      </trkpt>
      <trkpt lat="49.42054" lon="0.22911">
        <ele>12.2</ele>
        <time>2015-10-18T12:28:37Z</time>
      </trkpt>
      <trkpt lat="49.42054" lon="0.22911">
        <ele>12</ele>
        <time>2015-10-18T12:28:38Z</time>
      </trkpt>
      <trkpt lat="49.42054" lon="0.22911">
        <ele>11.8</ele>
        <time>2015-10-18T12:28:39Z</time>
      </trkpt>
      <trkpt lat="49.42053" lon="0.22911">
        <ele>11.6</ele>
        <time>2015-10-18T12:28:40Z</time>
      </trkpt>
      <trkpt lat="49.42053" lon="0.22911">
        <ele>11.5</ele>
        <time>2015-10-18T12:28:41Z</time>
      </trkpt>
      <trkpt lat="49.42053" lon="0.22912">
        <ele>11.4</ele>
        <time>2015-10-18T12:28:43Z</time>
      </trkpt>
      <trkpt lat="49.42053" lon="0.22912">
        <ele>11.3</ele>
        <time>2015-10-18T12:28:44Z</time>
      </trkpt>
      <trkpt lat="49.42053" lon="0.22912">
        <ele>11.3</ele>
        <time>2015-10-18T12:28:45Z</time>
      </trkpt>
      <trkpt lat="49.42053" lon="0.22912">
        <ele>11.3</ele>
        <time>2015-10-18T12:28:46Z</time>
      </trkpt>
      <trkpt lat="49.42053" lon="0.22912">
        <ele>11.6</ele>
        <time>2015-10-18T12:28:48Z</time>
      </trkpt>
      <trkpt lat="49.42053" lon="0.22913">
        <ele>11.7</ele>
        <time>2015-10-18T12:28:49Z</time>
      </trkpt>
      <trkpt lat="49.42056" lon="0.22936">
        <ele>11.7</ele>
        <time>2015-10-18T12:29:01Z</time>
      </trkpt>
      <trkpt lat="49.42056" lon="0.22942">
        <ele>11.4</ele>
        <time>2015-10-18T12:29:04Z</time>
      </trkpt>
      <trkpt lat="49.42056" lon="0.22953">
        <ele>11.5</ele>
        <time>2015-10-18T12:29:10Z</time>
      </trkpt>
      <trkpt lat="49.42056" lon="0.22957">
        <ele>11</ele>
        <time>2015-10-18T12:29:12Z</time>
      </trkpt>
      <trkpt lat="49.42056" lon="0.22959">
        <ele>11</ele>
        <time>2015-10-18T12:29:13Z</time>
      </trkpt>
      <trkpt lat="49.42051" lon="0.22984">
        <ele>11.7</ele>
        <time>2015-10-18T12:29:26Z</time>
      </trkpt>
      <trkpt lat="49.4205" lon="0.22991">
        <ele>11.5</ele>
        <time>2015-10-18T12:29:30Z</time>
      </trkpt>
      <trkpt lat="49.4205" lon="0.22993">
        <ele>11</ele>
        <time>2015-10-18T12:29:31Z</time>
      </trkpt>
      <trkpt lat="49.4205" lon="0.22995">
        <ele>10.6</ele>
        <time>2015-10-18T12:29:32Z</time>
      </trkpt>
      <trkpt lat="49.42051" lon="0.22997">
        <ele>10.3</ele>
        <time>2015-10-18T12:29:33Z</time>
      </trkpt>
      <trkpt lat="49.42058" lon="0.23022">
        <ele>9.9</ele>
        <time>2015-10-18T12:29:44Z</time>
      </trkpt>
      <trkpt lat="49.42063" lon="0.23045">
        <ele>9.1</ele>
        <time>2015-10-18T12:29:54Z</time>
      </trkpt>
      <trkpt lat="49.42064" lon="0.2306">
        <ele>9.9</ele>
        <time>2015-10-18T12:30:05Z</time>
      </trkpt>
      <trkpt lat="49.42064" lon="0.2306">
        <ele>10</ele>
        <time>2015-10-18T12:30:06Z</time>
      </trkpt>
      <trkpt lat="49.42064" lon="0.2306">
        <ele>9.5</ele>
        <time>2015-10-18T12:30:07Z</time>
      </trkpt>
      <trkpt lat="49.42064" lon="0.2306">
        <ele>9.1</ele>
        <time>2015-10-18T12:30:08Z</time>
      </trkpt>
      <trkpt lat="49.42064" lon="0.2306">
        <ele>8.8</ele>
        <time>2015-10-18T12:30:09Z</time>
      </trkpt>
      <trkpt lat="49.42063" lon="0.2306">
        <ele>8.5</ele>
        <time>2015-10-18T12:30:10Z</time>
      </trkpt>
      <trkpt lat="49.42063" lon="0.2306">
        <ele>8.4</ele>
        <time>2015-10-18T12:30:11Z</time>
      </trkpt>
      <trkpt lat="49.42063" lon="0.2306">
        <ele>8.2</ele>
        <time>2015-10-18T12:30:12Z</time>
      </trkpt>
      <trkpt lat="49.42063" lon="0.2306">
        <ele>8.8</ele>
        <time>2015-10-18T12:30:13Z</time>
      </trkpt>
      <trkpt lat="49.42063" lon="0.23061">
        <ele>9.2</ele>
        <time>2015-10-18T12:30:14Z</time>
      </trkpt>
      <trkpt lat="49.42063" lon="0.23063">
        <ele>9.5</ele>
        <time>2015-10-18T12:30:15Z</time>
      </trkpt>
      <trkpt lat="49.42063" lon="0.23072">
        <ele>10.1</ele>
        <time>2015-10-18T12:30:19Z</time>
      </trkpt>
      <trkpt lat="49.42063" lon="0.23079">
        <ele>9.2</ele>
        <time>2015-10-18T12:30:22Z</time>
      </trkpt>
      <trkpt lat="49.4207" lon="0.23135">
        <ele>5.8</ele>
        <time>2015-10-18T12:30:48Z</time>
      </trkpt>
      <trkpt lat="49.42074" lon="0.23154">
        <ele>6.4</ele>
        <time>2015-10-18T12:30:57Z</time>
      </trkpt>
      <trkpt lat="49.42089" lon="0.23224">
        <ele>4.2</ele>
        <time>2015-10-18T12:31:32Z</time>
      </trkpt>
      <trkpt lat="49.42089" lon="0.23225">
        <ele>4.3</ele>
        <time>2015-10-18T12:31:33Z</time>
      </trkpt>
      <trkpt lat="49.4209" lon="0.23226">
        <ele>3.7</ele>
        <time>2015-10-18T12:31:34Z</time>
      </trkpt>
      <trkpt lat="49.42097" lon="0.23233">
        <ele>2</ele>
        <time>2015-10-18T12:31:42Z</time>
      </trkpt>
      <trkpt lat="49.42097" lon="0.23233">
        <ele>2</ele>
        <time>2015-10-18T12:31:43Z</time>
      </trkpt>
      <trkpt lat="49.42098" lon="0.23233">
        <ele>2</ele>
        <time>2015-10-18T12:31:44Z</time>
      </trkpt>
      <trkpt lat="49.42099" lon="0.23232">
        <ele>2</ele>
        <time>2015-10-18T12:31:45Z</time>
      </trkpt>
      <trkpt lat="49.421" lon="0.23232">
        <ele>2.2</ele>
        <time>2015-10-18T12:31:46Z</time>
      </trkpt>
      <trkpt lat="49.42101" lon="0.23231">
        <ele>2.4</ele>
        <time>2015-10-18T12:31:47Z</time>
      </trkpt>
      <trkpt lat="49.42102" lon="0.23231">
        <ele>2.5</ele>
        <time>2015-10-18T12:31:48Z</time>
      </trkpt>
      <trkpt lat="49.42103" lon="0.2323">
        <ele>2.8</ele>
        <time>2015-10-18T12:31:49Z</time>
      </trkpt>
      <trkpt lat="49.42104" lon="0.2323">
        <ele>3.1</ele>
        <time>2015-10-18T12:31:50Z</time>
      </trkpt>
      <trkpt lat="49.42104" lon="0.2323">
        <ele>3.2</ele>
        <time>2015-10-18T12:31:51Z</time>
      </trkpt>
      <trkpt lat="49.42105" lon="0.2323">
        <ele>2.5</ele>
        <time>2015-10-18T12:31:52Z</time>
      </trkpt>
      <trkpt lat="49.42106" lon="0.23229">
        <ele>2</ele>
        <time>2015-10-18T12:31:53Z</time>
      </trkpt>
      <trkpt lat="49.42107" lon="0.23229">
        <ele>1.6</ele>
        <time>2015-10-18T12:31:54Z</time>
      </trkpt>
      <trkpt lat="49.42111" lon="0.23228">
        <ele>3.3</ele>
        <time>2015-10-18T12:31:59Z</time>
      </trkpt>
      <trkpt lat="49.42116" lon="0.23226">
        <ele>3.7</ele>
        <time>2015-10-18T12:32:04Z</time>
      </trkpt>
      <trkpt lat="49.42117" lon="0.23225">
        <ele>3.7</ele>
        <time>2015-10-18T12:32:05Z</time>
      </trkpt>
      <trkpt lat="49.42118" lon="0.23225">
        <ele>3.7</ele>
        <time>2015-10-18T12:32:06Z</time>
      </trkpt>
      <trkpt lat="49.42119" lon="0.23224">
        <ele>3</ele>
        <time>2015-10-18T12:32:08Z</time>
      </trkpt>
      <trkpt lat="49.42119" lon="0.23224">
        <ele>2.8</ele>
        <time>2015-10-18T12:32:09Z</time>
      </trkpt>
      <trkpt lat="49.4212" lon="0.23224">
        <ele>2.8</ele>
        <time>2015-10-18T12:32:12Z</time>
      </trkpt>
      <trkpt lat="49.42121" lon="0.23225">
        <ele>3.3</ele>
        <time>2015-10-18T12:32:13Z</time>
      </trkpt>
      <trkpt lat="49.42122" lon="0.23224">
        <ele>3.6</ele>
        <time>2015-10-18T12:32:14Z</time>
      </trkpt>
      <trkpt lat="49.42123" lon="0.23224">
        <ele>3.8</ele>
        <time>2015-10-18T12:32:15Z</time>
      </trkpt>
      <trkpt lat="49.42124" lon="0.23224">
        <ele>3.6</ele>
        <time>2015-10-18T12:32:16Z</time>
      </trkpt>
      <trkpt lat="49.42124" lon="0.23224">
        <ele>3.4</ele>
        <time>2015-10-18T12:32:17Z</time>
      </trkpt>
      <trkpt lat="49.42125" lon="0.23224">
        <ele>3.3</ele>
        <time>2015-10-18T12:32:18Z</time>
      </trkpt>
      <trkpt lat="49.42127" lon="0.23224">
        <ele>3.5</ele>
        <time>2015-10-18T12:32:21Z</time>
      </trkpt>
      <trkpt lat="49.42128" lon="0.23224">
        <ele>3</ele>
        <time>2015-10-18T12:32:22Z</time>
      </trkpt>
      <trkpt lat="49.42129" lon="0.23225">
        <ele>2.5</ele>
        <time>2015-10-18T12:32:23Z</time>
      </trkpt>
      <trkpt lat="49.4213" lon="0.23225">
        <ele>2.2</ele>
        <time>2015-10-18T12:32:24Z</time>
      </trkpt>
      <trkpt lat="49.42131" lon="0.23226">
        <ele>2.6</ele>
        <time>2015-10-18T12:32:25Z</time>
      </trkpt>
      <trkpt lat="49.42133" lon="0.23226">
        <ele>2.9</ele>
        <time>2015-10-18T12:32:26Z</time>
      </trkpt>
      <trkpt lat="49.42134" lon="0.23226">
        <ele>3.1</ele>
        <time>2015-10-18T12:32:27Z</time>
      </trkpt>
      <trkpt lat="49.42135" lon="0.23226">
        <ele>3.2</ele>
        <time>2015-10-18T12:32:28Z</time>
      </trkpt>
      <trkpt lat="49.42136" lon="0.23226">
        <ele>3.4</ele>
        <time>2015-10-18T12:32:29Z</time>
      </trkpt>
      <trkpt lat="49.42137" lon="0.23226">
        <ele>3.5</ele>
        <time>2015-10-18T12:32:30Z</time>
      </trkpt>
      <trkpt lat="49.42138" lon="0.23226">
        <ele>3.1</ele>
        <time>2015-10-18T12:32:31Z</time>
      </trkpt>
      <trkpt lat="49.4214" lon="0.23225">
        <ele>2.7</ele>
        <time>2015-10-18T12:32:33Z</time>
      </trkpt>
      <trkpt lat="49.4214" lon="0.23225">
        <ele>2.9</ele>
        <time>2015-10-18T12:32:34Z</time>
      </trkpt>
      <trkpt lat="49.42141" lon="0.23224">
        <ele>3.1</ele>
        <time>2015-10-18T12:32:35Z</time>
      </trkpt>
      <trkpt lat="49.42142" lon="0.23223">
        <ele>3.3</ele>
        <time>2015-10-18T12:32:36Z</time>
      </trkpt>
      <trkpt lat="49.42142" lon="0.23223">
        <ele>3</ele>
        <time>2015-10-18T12:32:37Z</time>
      </trkpt>
      <trkpt lat="49.42143" lon="0.23222">
        <ele>2.7</ele>
        <time>2015-10-18T12:32:38Z</time>
      </trkpt>
      <trkpt lat="49.42144" lon="0.23222">
        <ele>2.6</ele>
        <time>2015-10-18T12:32:39Z</time>
      </trkpt>
      <trkpt lat="49.42144" lon="0.23221">
        <ele>3.1</ele>
        <time>2015-10-18T12:32:40Z</time>
      </trkpt>
      <trkpt lat="49.42144" lon="0.23221">
        <ele>3.4</ele>
        <time>2015-10-18T12:32:41Z</time>
      </trkpt>
      <trkpt lat="49.42145" lon="0.23221">
        <ele>3.7</ele>
        <time>2015-10-18T12:32:42Z</time>
      </trkpt>
      <trkpt lat="49.42146" lon="0.2322">
        <ele>3.3</ele>
        <time>2015-10-18T12:32:43Z</time>
      </trkpt>
      <trkpt lat="49.42146" lon="0.2322">
        <ele>3</ele>
        <time>2015-10-18T12:32:44Z</time>
      </trkpt>
      <trkpt lat="49.42147" lon="0.2322">
        <ele>2.8</ele>
        <time>2015-10-18T12:32:45Z</time>
      </trkpt>
      <trkpt lat="49.42148" lon="0.23221">
        <ele>2.2</ele>
        <time>2015-10-18T12:32:51Z</time>
      </trkpt>
      <trkpt lat="49.42148" lon="0.23222">
        <ele>2.4</ele>
        <time>2015-10-18T12:32:52Z</time>
      </trkpt>
      <trkpt lat="49.42147" lon="0.23223">
        <ele>2.5</ele>
        <time>2015-10-18T12:32:53Z</time>
      </trkpt>
      <trkpt lat="49.42147" lon="0.23224">
        <ele>2.6</ele>
        <time>2015-10-18T12:32:54Z</time>
      </trkpt>
      <trkpt lat="49.42146" lon="0.23226">
        <ele>2.7</ele>
        <time>2015-10-18T12:32:55Z</time>
      </trkpt>
      <trkpt lat="49.42145" lon="0.23227">
        <ele>2.7</ele>
        <time>2015-10-18T12:32:56Z</time>
      </trkpt>
      <trkpt lat="49.42144" lon="0.23229">
        <ele>2.8</ele>
        <time>2015-10-18T12:32:57Z</time>
      </trkpt>
      <trkpt lat="49.42143" lon="0.2323">
        <ele>2.6</ele>
        <time>2015-10-18T12:32:58Z</time>
      </trkpt>
      <trkpt lat="49.42143" lon="0.23232">
        <ele>2.5</ele>
        <time>2015-10-18T12:32:59Z</time>
      </trkpt>
      <trkpt lat="49.42142" lon="0.23234">
        <ele>2.4</ele>
        <time>2015-10-18T12:33:00Z</time>
      </trkpt>
      <trkpt lat="49.42141" lon="0.23236">
        <ele>2.5</ele>
        <time>2015-10-18T12:33:01Z</time>
      </trkpt>
      <trkpt lat="49.4214" lon="0.23237">
        <ele>2.6</ele>
        <time>2015-10-18T12:33:02Z</time>
      </trkpt>
      <trkpt lat="49.4214" lon="0.23239">
        <ele>2.7</ele>
        <time>2015-10-18T12:33:03Z</time>
      </trkpt>
      <trkpt lat="49.42139" lon="0.23241">
        <ele>2.7</ele>
        <time>2015-10-18T12:33:04Z</time>
      </trkpt>
      <trkpt lat="49.42138" lon="0.23242">
        <ele>2.8</ele>
        <time>2015-10-18T12:33:05Z</time>
      </trkpt>
      <trkpt lat="49.42138" lon="0.23244">
        <ele>2.8</ele>
        <time>2015-10-18T12:33:06Z</time>
      </trkpt>
      <trkpt lat="49.42137" lon="0.23245">
        <ele>2.6</ele>
        <time>2015-10-18T12:33:07Z</time>
      </trkpt>
      <trkpt lat="49.42136" lon="0.23247">
        <ele>2.5</ele>
        <time>2015-10-18T12:33:08Z</time>
      </trkpt>
      <trkpt lat="49.42136" lon="0.23249">
        <ele>2.4</ele>
        <time>2015-10-18T12:33:09Z</time>
      </trkpt>
      <trkpt lat="49.42135" lon="0.23251">
        <ele>2.3</ele>
        <time>2015-10-18T12:33:10Z</time>
      </trkpt>
      <trkpt lat="49.42135" lon="0.23252">
        <ele>2.2</ele>
        <time>2015-10-18T12:33:11Z</time>
      </trkpt>
      <trkpt lat="49.42134" lon="0.23254">
        <ele>2.2</ele>
        <time>2015-10-18T12:33:12Z</time>
      </trkpt>
      <trkpt lat="49.42134" lon="0.23256">
        <ele>2.6</ele>
        <time>2015-10-18T12:33:13Z</time>
      </trkpt>
      <trkpt lat="49.42133" lon="0.23258">
        <ele>2.9</ele>
        <time>2015-10-18T12:33:14Z</time>
      </trkpt>
      <trkpt lat="49.42129" lon="0.23278">
        <ele>2.2</ele>
        <time>2015-10-18T12:33:25Z</time>
      </trkpt>
      <trkpt lat="49.42125" lon="0.23287">
        <ele>1.9</ele>
        <time>2015-10-18T12:33:29Z</time>
      </trkpt>
      <trkpt lat="49.42121" lon="0.23292">
        <ele>1.2</ele>
        <time>2015-10-18T12:33:32Z</time>
      </trkpt>
      <trkpt lat="49.4212" lon="0.23293">
        <ele>1</ele>
        <time>2015-10-18T12:33:33Z</time>
      </trkpt>
      <trkpt lat="49.4212" lon="0.23293">
        <ele>0.8</ele>
        <time>2015-10-18T12:33:34Z</time>
      </trkpt>
      <trkpt lat="49.42119" lon="0.23293">
        <ele>0.7</ele>
        <time>2015-10-18T12:33:35Z</time>
      </trkpt>
      <trkpt lat="49.42118" lon="0.23293">
        <ele>0.6</ele>
        <time>2015-10-18T12:33:36Z</time>
      </trkpt>
      <trkpt lat="49.42117" lon="0.23294">
        <ele>0.8</ele>
        <time>2015-10-18T12:33:37Z</time>
      </trkpt>
      <trkpt lat="49.42116" lon="0.23294">
        <ele>0.9</ele>
        <time>2015-10-18T12:33:38Z</time>
      </trkpt>
      <trkpt lat="49.42116" lon="0.23295">
        <ele>1</ele>
        <time>2015-10-18T12:33:39Z</time>
      </trkpt>
      <trkpt lat="49.42115" lon="0.23295">
        <ele>0.4</ele>
        <time>2015-10-18T12:33:40Z</time>
      </trkpt>
      <trkpt lat="49.42114" lon="0.23296">
        <ele>10.4</ele>
        <time>2015-10-18T12:33:41Z</time>
      </trkpt>
      <trkpt lat="49.42112" lon="0.23297">
        <ele>10.3</ele>
        <time>2015-10-18T12:33:44Z</time>
      </trkpt>
      <trkpt lat="49.42111" lon="0.23297">
        <ele>0.1</ele>
        <time>2015-10-18T12:33:45Z</time>
      </trkpt>
      <trkpt lat="49.4211" lon="0.23297">
        <ele>-1.5</ele>
        <time>2015-10-18T12:33:48Z</time>
      </trkpt>
      <trkpt lat="49.42109" lon="0.23294">
        <ele>-1.5</ele>
        <time>2015-10-18T12:33:52Z</time>
      </trkpt>
      <trkpt lat="49.42108" lon="0.23294">
        <ele>-1.6</ele>
        <time>2015-10-18T12:33:53Z</time>
      </trkpt>
      <trkpt lat="49.42108" lon="0.23292">
        <ele>-1.7</ele>
        <time>2015-10-18T12:33:54Z</time>
      </trkpt>
      <trkpt lat="49.42108" lon="0.23291">
        <ele>-0.9</ele>
        <time>2015-10-18T12:33:55Z</time>
      </trkpt>
      <trkpt lat="49.42108" lon="0.23289">
        <ele>-0.4</ele>
        <time>2015-10-18T12:33:56Z</time>
      </trkpt>
      <trkpt lat="49.42108" lon="0.23287">
        <ele>11.3</ele>
        <time>2015-10-18T12:33:57Z</time>
      </trkpt>
      <trkpt lat="49.42108" lon="0.23285">
        <ele>0.1</ele>
        <time>2015-10-18T12:33:58Z</time>
      </trkpt>
      <trkpt lat="49.42108" lon="0.23283">
        <ele>0.2</ele>
        <time>2015-10-18T12:33:59Z</time>
      </trkpt>
      <trkpt lat="49.42107" lon="0.23282">
        <ele>0.2</ele>
        <time>2015-10-18T12:34:00Z</time>
      </trkpt>
      <trkpt lat="49.42107" lon="0.2328">
        <ele>0.3</ele>
        <time>2015-10-18T12:34:01Z</time>
      </trkpt>
      <trkpt lat="49.42107" lon="0.23279">
        <ele>0.3</ele>
        <time>2015-10-18T12:34:02Z</time>
      </trkpt>
      <trkpt lat="49.42106" lon="0.23277">
        <ele>0.3</ele>
        <time>2015-10-18T12:34:03Z</time>
      </trkpt>
      <trkpt lat="49.42106" lon="0.23276">
        <ele>0.6</ele>
        <time>2015-10-18T12:34:04Z</time>
      </trkpt>
      <trkpt lat="49.42105" lon="0.23275">
        <ele>0.7</ele>
        <time>2015-10-18T12:34:05Z</time>
      </trkpt>
      <trkpt lat="49.42105" lon="0.23274">
        <ele>0.9</ele>
        <time>2015-10-18T12:34:06Z</time>
      </trkpt>
      <trkpt lat="49.42105" lon="0.23273">
        <ele>1.7</ele>
        <time>2015-10-18T12:34:08Z</time>
      </trkpt>
      <trkpt lat="49.42104" lon="0.23273">
        <ele>2</ele>
        <time>2015-10-18T12:34:09Z</time>
      </trkpt>
      <trkpt lat="49.42104" lon="0.23272">
        <ele>1.8</ele>
        <time>2015-10-18T12:34:10Z</time>
      </trkpt>
      <trkpt lat="49.42104" lon="0.23271">
        <ele>1.7</ele>
        <time>2015-10-18T12:34:11Z</time>
      </trkpt>
      <trkpt lat="49.42103" lon="0.2327">
        <ele>1.6</ele>
        <time>2015-10-18T12:34:12Z</time>
      </trkpt>
      <trkpt lat="49.42098" lon="0.23268">
        <ele>1.1</ele>
        <time>2015-10-18T12:34:18Z</time>
      </trkpt>
      <trkpt lat="49.42097" lon="0.23268">
        <ele>0.1</ele>
        <time>2015-10-18T12:34:19Z</time>
      </trkpt>
      <trkpt lat="49.42096" lon="0.23268">
        <ele>-0.6</ele>
        <time>2015-10-18T12:34:20Z</time>
      </trkpt>
      <trkpt lat="49.42096" lon="0.23268">
        <ele>-1.1</ele>
        <time>2015-10-18T12:34:21Z</time>
      </trkpt>
      <trkpt lat="49.42095" lon="0.23268">
        <ele>-0.5</ele>
        <time>2015-10-18T12:34:22Z</time>
      </trkpt>
      <trkpt lat="49.42095" lon="0.23268">
        <ele>11.2</ele>
        <time>2015-10-18T12:34:23Z</time>
      </trkpt>
      <trkpt lat="49.42095" lon="0.23268">
        <ele>0.2</ele>
        <time>2015-10-18T12:34:24Z</time>
      </trkpt>
      <trkpt lat="49.42094" lon="0.23268">
        <ele>0.3</ele>
        <time>2015-10-18T12:34:25Z</time>
      </trkpt>
      <trkpt lat="49.42094" lon="0.23267">
        <ele>0.3</ele>
        <time>2015-10-18T12:34:26Z</time>
      </trkpt>
      <trkpt lat="49.42093" lon="0.23267">
        <ele>0.3</ele>
        <time>2015-10-18T12:34:27Z</time>
      </trkpt>
      <trkpt lat="49.42093" lon="0.23267">
        <ele>0.3</ele>
        <time>2015-10-18T12:34:28Z</time>
      </trkpt>
      <trkpt lat="49.42093" lon="0.23267">
        <ele>0.4</ele>
        <time>2015-10-18T12:34:29Z</time>
      </trkpt>
      <trkpt lat="49.42093" lon="0.23267">
        <ele>0.4</ele>
        <time>2015-10-18T12:34:30Z</time>
      </trkpt>
      <trkpt lat="49.42093" lon="0.23267">
        <ele>0.4</ele>
        <time>2015-10-18T12:34:31Z</time>
      </trkpt>
      <trkpt lat="49.42093" lon="0.23267">
        <ele>0.4</ele>
        <time>2015-10-18T12:34:32Z</time>
      </trkpt>
      <trkpt lat="49.42093" lon="0.23267">
        <ele>0.4</ele>
        <time>2015-10-18T12:34:33Z</time>
      </trkpt>
      <trkpt lat="49.42093" lon="0.23267">
        <ele>0.4</ele>
        <time>2015-10-18T12:34:34Z</time>
      </trkpt>
      <trkpt lat="49.42093" lon="0.23268">
        <ele>0.4</ele>
        <time>2015-10-18T12:34:35Z</time>
      </trkpt>
      <trkpt lat="49.42093" lon="0.23268">
        <ele>0.4</ele>
        <time>2015-10-18T12:34:36Z</time>
      </trkpt>
      <trkpt lat="49.42093" lon="0.23268">
        <ele>0.4</ele>
        <time>2015-10-18T12:34:37Z</time>
      </trkpt>
      <trkpt lat="49.42092" lon="0.23269">
        <ele>0.4</ele>
        <time>2015-10-18T12:34:38Z</time>
      </trkpt>
      <trkpt lat="49.42093" lon="0.23273">
        <ele>0.4</ele>
        <time>2015-10-18T12:34:42Z</time>
      </trkpt>
      <trkpt lat="49.42093" lon="0.23275">
        <ele>0.8</ele>
        <time>2015-10-18T12:34:43Z</time>
      </trkpt>
      <trkpt lat="49.42097" lon="0.23282">
        <ele>1.1</ele>
        <time>2015-10-18T12:34:49Z</time>
      </trkpt>
      <trkpt lat="49.42098" lon="0.23282">
        <ele>0.9</ele>
        <time>2015-10-18T12:34:50Z</time>
      </trkpt>
      <trkpt lat="49.42098" lon="0.23282">
        <ele>0.8</ele>
        <time>2015-10-18T12:34:51Z</time>
      </trkpt>
      <trkpt lat="49.42098" lon="0.23283">
        <ele>0.9</ele>
        <time>2015-10-18T12:34:52Z</time>
      </trkpt>
      <trkpt lat="49.42098" lon="0.23284">
        <ele>1</ele>
        <time>2015-10-18T12:34:53Z</time>
      </trkpt>
      <trkpt lat="49.42098" lon="0.23284">
        <ele>1</ele>
        <time>2015-10-18T12:34:54Z</time>
      </trkpt>
      <trkpt lat="49.42099" lon="0.23285">
        <ele>0.7</ele>
        <time>2015-10-18T12:34:55Z</time>
      </trkpt>
      <trkpt lat="49.42099" lon="0.23287">
        <ele>0.4</ele>
        <time>2015-10-18T12:34:56Z</time>
      </trkpt>
      <trkpt lat="49.421" lon="0.23288">
        <ele>0.2</ele>
        <time>2015-10-18T12:34:57Z</time>
      </trkpt>
      <trkpt lat="49.421" lon="0.2329">
        <ele>0.3</ele>
        <time>2015-10-18T12:34:59Z</time>
      </trkpt>
      <trkpt lat="49.421" lon="0.23291">
        <ele>0.3</ele>
        <time>2015-10-18T12:35:00Z</time>
      </trkpt>
      <trkpt lat="49.42101" lon="0.23292">
        <ele>0.8</ele>
        <time>2015-10-18T12:35:01Z</time>
      </trkpt>
      <trkpt lat="49.42104" lon="0.23297">
        <ele>1.3</ele>
        <time>2015-10-18T12:35:03Z</time>
      </trkpt>
      <trkpt lat="49.42108" lon="0.23302">
        <ele>0.8</ele>
        <time>2015-10-18T12:35:06Z</time>
      </trkpt>
      <trkpt lat="49.42118" lon="0.23319">
        <ele>-0.9</ele>
        <time>2015-10-18T12:35:18Z</time>
      </trkpt>
      <trkpt lat="49.42128" lon="0.23337">
        <ele>-2.7</ele>
        <time>2015-10-18T12:35:27Z</time>
      </trkpt>
      <trkpt lat="49.42129" lon="0.23338">
        <ele>-3.1</ele>
        <time>2015-10-18T12:35:28Z</time>
      </trkpt>
      <trkpt lat="49.4213" lon="0.23338">
        <ele>-3.4</ele>
        <time>2015-10-18T12:35:29Z</time>
      </trkpt>
      <trkpt lat="49.42131" lon="0.23339">
        <ele>-3.7</ele>
        <time>2015-10-18T12:35:30Z</time>
      </trkpt>
      <trkpt lat="49.42132" lon="0.23339">
        <ele>-4.1</ele>
        <time>2015-10-18T12:35:31Z</time>
      </trkpt>
      <trkpt lat="49.42133" lon="0.23339">
        <ele>-4.4</ele>
        <time>2015-10-18T12:35:32Z</time>
      </trkpt>
      <trkpt lat="49.42134" lon="0.2334">
        <ele>-4.6</ele>
        <time>2015-10-18T12:35:33Z</time>
      </trkpt>
      <trkpt lat="49.42135" lon="0.2334">
        <ele>-4.2</ele>
        <time>2015-10-18T12:35:34Z</time>
      </trkpt>
      <trkpt lat="49.42136" lon="0.23341">
        <ele>-3.8</ele>
        <time>2015-10-18T12:35:35Z</time>
      </trkpt>
      <trkpt lat="49.42137" lon="0.23341">
        <ele>-3.6</ele>
        <time>2015-10-18T12:35:36Z</time>
      </trkpt>
      <trkpt lat="49.42137" lon="0.23342">
        <ele>-3.4</ele>
        <time>2015-10-18T12:35:37Z</time>
      </trkpt>
      <trkpt lat="49.42137" lon="0.23342">
        <ele>-3.2</ele>
        <time>2015-10-18T12:35:38Z</time>
      </trkpt>
      <trkpt lat="49.42137" lon="0.23342">
        <ele>-3.1</ele>
        <time>2015-10-18T12:35:39Z</time>
      </trkpt>
      <trkpt lat="49.42137" lon="0.23342">
        <ele>-3</ele>
        <time>2015-10-18T12:35:40Z</time>
      </trkpt>
      <trkpt lat="49.42137" lon="0.23343">
        <ele>-3</ele>
        <time>2015-10-18T12:35:41Z</time>
      </trkpt>
      <trkpt lat="49.42136" lon="0.23343">
        <ele>-2.9</ele>
        <time>2015-10-18T12:35:42Z</time>
      </trkpt>
      <trkpt lat="49.42135" lon="0.23343">
        <ele>-3.1</ele>
        <time>2015-10-18T12:35:43Z</time>
      </trkpt>
      <trkpt lat="49.42134" lon="0.23343">
        <ele>-3.2</ele>
        <time>2015-10-18T12:35:44Z</time>
      </trkpt>
      <trkpt lat="49.42133" lon="0.23343">
        <ele>-3.3</ele>
        <time>2015-10-18T12:35:45Z</time>
      </trkpt>
      <trkpt lat="49.42132" lon="0.23343">
        <ele>-2.8</ele>
        <time>2015-10-18T12:35:46Z</time>
      </trkpt>
      <trkpt lat="49.42131" lon="0.23343">
        <ele>-2.4</ele>
        <time>2015-10-18T12:35:47Z</time>
      </trkpt>
      <trkpt lat="49.4213" lon="0.23342">
        <ele>-2.1</ele>
        <time>2015-10-18T12:35:48Z</time>
      </trkpt>
      <trkpt lat="49.42128" lon="0.23341">
        <ele>-2.5</ele>
        <time>2015-10-18T12:35:49Z</time>
      </trkpt>
      <trkpt lat="49.42127" lon="0.23339">
        <ele>-2.8</ele>
        <time>2015-10-18T12:35:50Z</time>
      </trkpt>
      <trkpt lat="49.42125" lon="0.23337">
        <ele>-3</ele>
        <time>2015-10-18T12:35:51Z</time>
      </trkpt>
      <trkpt lat="49.42124" lon="0.23336">
        <ele>-2.9</ele>
        <time>2015-10-18T12:35:52Z</time>
      </trkpt>
      <trkpt lat="49.42123" lon="0.23335">
        <ele>-2.9</ele>
        <time>2015-10-18T12:35:53Z</time>
      </trkpt>
      <trkpt lat="49.42122" lon="0.23334">
        <ele>-2.9</ele>
        <time>2015-10-18T12:35:54Z</time>
      </trkpt>
      <trkpt lat="49.42121" lon="0.23333">
        <ele>-3.3</ele>
        <time>2015-10-18T12:35:55Z</time>
      </trkpt>
      <trkpt lat="49.4212" lon="0.23331">
        <ele>-3.6</ele>
        <time>2015-10-18T12:35:56Z</time>
      </trkpt>
      <trkpt lat="49.42119" lon="0.23329">
        <ele>-3.8</ele>
        <time>2015-10-18T12:35:57Z</time>
      </trkpt>
      <trkpt lat="49.42115" lon="0.23321">
        <ele>-4.3</ele>
        <time>2015-10-18T12:36:01Z</time>
      </trkpt>
      <trkpt lat="49.42102" lon="0.23293">
        <ele>-4.3</ele>
        <time>2015-10-18T12:36:18Z</time>
      </trkpt>
      <trkpt lat="49.42101" lon="0.23292">
        <ele>-4.8</ele>
        <time>2015-10-18T12:36:19Z</time>
      </trkpt>
      <trkpt lat="49.42091" lon="0.23282">
        <ele>-6.3</ele>
        <time>2015-10-18T12:36:32Z</time>
      </trkpt>
      <trkpt lat="49.42085" lon="0.23279">
        <ele>-6.2</ele>
        <time>2015-10-18T12:36:38Z</time>
      </trkpt>
      <trkpt lat="49.42083" lon="0.23278">
        <ele>-5.5</ele>
        <time>2015-10-18T12:36:40Z</time>
      </trkpt>
      <trkpt lat="49.42081" lon="0.23279">
        <ele>-5</ele>
        <time>2015-10-18T12:36:41Z</time>
      </trkpt>
      <trkpt lat="49.4208" lon="0.2328">
        <ele>-4.7</ele>
        <time>2015-10-18T12:36:42Z</time>
      </trkpt>
      <trkpt lat="49.42079" lon="0.23282">
        <ele>-5</ele>
        <time>2015-10-18T12:36:43Z</time>
      </trkpt>
      <trkpt lat="49.42078" lon="0.23283">
        <ele>-5.3</ele>
        <time>2015-10-18T12:36:44Z</time>
      </trkpt>
      <trkpt lat="49.42077" lon="0.23285">
        <ele>-5.5</ele>
        <time>2015-10-18T12:36:45Z</time>
      </trkpt>
      <trkpt lat="49.42076" lon="0.23286">
        <ele>-6.1</ele>
        <time>2015-10-18T12:36:46Z</time>
      </trkpt>
      <trkpt lat="49.42076" lon="0.23287">
        <ele>-6.5</ele>
        <time>2015-10-18T12:36:47Z</time>
      </trkpt>
      <trkpt lat="49.42075" lon="0.23288">
        <ele>-6.8</ele>
        <time>2015-10-18T12:36:48Z</time>
      </trkpt>
      <trkpt lat="49.42075" lon="0.23289">
        <ele>-7.1</ele>
        <time>2015-10-18T12:36:49Z</time>
      </trkpt>
      <trkpt lat="49.42074" lon="0.23289">
        <ele>-7.2</ele>
        <time>2015-10-18T12:36:50Z</time>
      </trkpt>
      <trkpt lat="49.42074" lon="0.23289">
        <ele>-7.4</ele>
        <time>2015-10-18T12:36:51Z</time>
      </trkpt>
      <trkpt lat="49.42074" lon="0.23289">
        <ele>-7.3</ele>
        <time>2015-10-18T12:36:52Z</time>
      </trkpt>
      <trkpt lat="49.42074" lon="0.23288">
        <ele>-7.2</ele>
        <time>2015-10-18T12:36:53Z</time>
      </trkpt>
      <trkpt lat="49.42074" lon="0.23287">
        <ele>-7.1</ele>
        <time>2015-10-18T12:36:54Z</time>
      </trkpt>
      <trkpt lat="49.42073" lon="0.23286">
        <ele>-6.9</ele>
        <time>2015-10-18T12:36:55Z</time>
      </trkpt>
      <trkpt lat="49.42073" lon="0.23285">
        <ele>-6.7</ele>
        <time>2015-10-18T12:36:56Z</time>
      </trkpt>
      <trkpt lat="49.42073" lon="0.23284">
        <ele>-6.5</ele>
        <time>2015-10-18T12:36:57Z</time>
      </trkpt>
      <trkpt lat="49.42072" lon="0.23283">
        <ele>-6.6</ele>
        <time>2015-10-18T12:36:58Z</time>
      </trkpt>
      <trkpt lat="49.42071" lon="0.23282">
        <ele>-6.7</ele>
        <time>2015-10-18T12:36:59Z</time>
      </trkpt>
      <trkpt lat="49.42071" lon="0.23281">
        <ele>-6.8</ele>
        <time>2015-10-18T12:37:00Z</time>
      </trkpt>
      <trkpt lat="49.42071" lon="0.23281">
        <ele>-7</ele>
        <time>2015-10-18T12:37:01Z</time>
      </trkpt>
      <trkpt lat="49.42071" lon="0.23281">
        <ele>-7.2</ele>
        <time>2015-10-18T12:37:02Z</time>
      </trkpt>
      <trkpt lat="49.42071" lon="0.23281">
        <ele>-7.4</ele>
        <time>2015-10-18T12:37:03Z</time>
      </trkpt>
      <trkpt lat="49.42071" lon="0.2328">
        <ele>-7.5</ele>
        <time>2015-10-18T12:37:04Z</time>
      </trkpt>
      <trkpt lat="49.42071" lon="0.23277">
        <ele>-6.7</ele>
        <time>2015-10-18T12:37:09Z</time>
      </trkpt>
      <trkpt lat="49.42071" lon="0.23276">
        <ele>-6.4</ele>
        <time>2015-10-18T12:37:10Z</time>
      </trkpt>
      <trkpt lat="49.42071" lon="0.23276">
        <ele>-6.1</ele>
        <time>2015-10-18T12:37:11Z</time>
      </trkpt>
      <trkpt lat="49.4207" lon="0.23275">
        <ele>-5.9</ele>
        <time>2015-10-18T12:37:12Z</time>
      </trkpt>
      <trkpt lat="49.4207" lon="0.23274">
        <ele>-5.7</ele>
        <time>2015-10-18T12:37:13Z</time>
      </trkpt>
      <trkpt lat="49.4207" lon="0.23273">
        <ele>-5.6</ele>
        <time>2015-10-18T12:37:14Z</time>
      </trkpt>
      <trkpt lat="49.4207" lon="0.23272">
        <ele>-5.5</ele>
        <time>2015-10-18T12:37:15Z</time>
      </trkpt>
      <trkpt lat="49.4207" lon="0.23271">
        <ele>-5.3</ele>
        <time>2015-10-18T12:37:16Z</time>
      </trkpt>
      <trkpt lat="49.4207" lon="0.2327">
        <ele>-5.1</ele>
        <time>2015-10-18T12:37:17Z</time>
      </trkpt>
      <trkpt lat="49.4207" lon="0.2327">
        <ele>-4.9</ele>
        <time>2015-10-18T12:37:18Z</time>
      </trkpt>
      <trkpt lat="49.4207" lon="0.2327">
        <ele>-5</ele>
        <time>2015-10-18T12:37:19Z</time>
      </trkpt>
      <trkpt lat="49.4207" lon="0.23269">
        <ele>-5.1</ele>
        <time>2015-10-18T12:37:21Z</time>
      </trkpt>
      <trkpt lat="49.42068" lon="0.23267">
        <ele>-5.2</ele>
        <time>2015-10-18T12:37:23Z</time>
      </trkpt>
      <trkpt lat="49.42065" lon="0.23264">
        <ele>-7.7</ele>
        <time>2015-10-18T12:37:27Z</time>
      </trkpt>
      <trkpt lat="49.4206" lon="0.23262">
        <ele>-6.1</ele>
        <time>2015-10-18T12:37:32Z</time>
      </trkpt>
      <trkpt lat="49.4206" lon="0.23262">
        <ele>-5.9</ele>
        <time>2015-10-18T12:37:33Z</time>
      </trkpt>
      <trkpt lat="49.4206" lon="0.23262">
        <ele>-6</ele>
        <time>2015-10-18T12:37:34Z</time>
      </trkpt>
      <trkpt lat="49.42059" lon="0.23262">
        <ele>-6</ele>
        <time>2015-10-18T12:37:35Z</time>
      </trkpt>
      <trkpt lat="49.42058" lon="0.23262">
        <ele>-6</ele>
        <time>2015-10-18T12:37:36Z</time>
      </trkpt>
      <trkpt lat="49.42057" lon="0.23262">
        <ele>-6.1</ele>
        <time>2015-10-18T12:37:37Z</time>
      </trkpt>
      <trkpt lat="49.42056" lon="0.23262">
        <ele>-6.1</ele>
        <time>2015-10-18T12:37:38Z</time>
      </trkpt>
      <trkpt lat="49.42055" lon="0.23262">
        <ele>-6.1</ele>
        <time>2015-10-18T12:37:39Z</time>
      </trkpt>
      <trkpt lat="49.42055" lon="0.23262">
        <ele>-5.9</ele>
        <time>2015-10-18T12:37:40Z</time>
      </trkpt>
      <trkpt lat="49.42053" lon="0.23262">
        <ele>-5.6</ele>
        <time>2015-10-18T12:37:42Z</time>
      </trkpt>
      <trkpt lat="49.42053" lon="0.23263">
        <ele>-5.3</ele>
        <time>2015-10-18T12:37:43Z</time>
      </trkpt>
      <trkpt lat="49.42053" lon="0.23264">
        <ele>-5.1</ele>
        <time>2015-10-18T12:37:44Z</time>
      </trkpt>
      <trkpt lat="49.42053" lon="0.23266">
        <ele>-5</ele>
        <time>2015-10-18T12:37:45Z</time>
      </trkpt>
      <trkpt lat="49.42053" lon="0.23268">
        <ele>-5</ele>
        <time>2015-10-18T12:37:46Z</time>
      </trkpt>
      <trkpt lat="49.42053" lon="0.23269">
        <ele>-5.1</ele>
        <time>2015-10-18T12:37:47Z</time>
      </trkpt>
      <trkpt lat="49.42054" lon="0.2327">
        <ele>-5.1</ele>
        <time>2015-10-18T12:37:48Z</time>
      </trkpt>
      <trkpt lat="49.42054" lon="0.23272">
        <ele>-5</ele>
        <time>2015-10-18T12:37:49Z</time>
      </trkpt>
      <trkpt lat="49.42054" lon="0.23273">
        <ele>-4.8</ele>
        <time>2015-10-18T12:37:50Z</time>
      </trkpt>
      <trkpt lat="49.42054" lon="0.23275">
        <ele>-4.8</ele>
        <time>2015-10-18T12:37:51Z</time>
      </trkpt>
      <trkpt lat="49.42054" lon="0.23276">
        <ele>-4.9</ele>
        <time>2015-10-18T12:37:52Z</time>
      </trkpt>
      <trkpt lat="49.42054" lon="0.23277">
        <ele>-5</ele>
        <time>2015-10-18T12:37:53Z</time>
      </trkpt>
      <trkpt lat="49.42055" lon="0.23279">
        <ele>-5.3</ele>
        <time>2015-10-18T12:37:55Z</time>
      </trkpt>
      <trkpt lat="49.42057" lon="0.23282">
        <ele>-5.6</ele>
        <time>2015-10-18T12:37:58Z</time>
      </trkpt>
      <trkpt lat="49.42057" lon="0.23282">
        <ele>-5.5</ele>
        <time>2015-10-18T12:37:59Z</time>
      </trkpt>
      <trkpt lat="49.42058" lon="0.23282">
        <ele>-5.5</ele>
        <time>2015-10-18T12:38:00Z</time>
      </trkpt>
      <trkpt lat="49.42058" lon="0.23282">
        <ele>-5.6</ele>
        <time>2015-10-18T12:38:01Z</time>
      </trkpt>
      <trkpt lat="49.42058" lon="0.23282">
        <ele>-5.7</ele>
        <time>2015-10-18T12:38:02Z</time>
      </trkpt>
      <trkpt lat="49.42058" lon="0.23282">
        <ele>-5.8</ele>
        <time>2015-10-18T12:38:03Z</time>
      </trkpt>
      <trkpt lat="49.42058" lon="0.23282">
        <ele>-5.3</ele>
        <time>2015-10-18T12:38:04Z</time>
      </trkpt>
      <trkpt lat="49.42059" lon="0.23281">
        <ele>-4.9</ele>
        <time>2015-10-18T12:38:05Z</time>
      </trkpt>
      <trkpt lat="49.42059" lon="0.23281">
        <ele>-4.6</ele>
        <time>2015-10-18T12:38:06Z</time>
      </trkpt>
      <trkpt lat="49.42059" lon="0.23281">
        <ele>-4.5</ele>
        <time>2015-10-18T12:38:07Z</time>
      </trkpt>
      <trkpt lat="49.4206" lon="0.23281">
        <ele>-4.5</ele>
        <time>2015-10-18T12:38:08Z</time>
      </trkpt>
      <trkpt lat="49.4206" lon="0.2328">
        <ele>-4.5</ele>
        <time>2015-10-18T12:38:09Z</time>
      </trkpt>
      <trkpt lat="49.42061" lon="0.2328">
        <ele>-4.7</ele>
        <time>2015-10-18T12:38:10Z</time>
      </trkpt>
      <trkpt lat="49.42062" lon="0.2328">
        <ele>-4.8</ele>
        <time>2015-10-18T12:38:11Z</time>
      </trkpt>
      <trkpt lat="49.42065" lon="0.23281">
        <ele>-6.2</ele>
        <time>2015-10-18T12:38:14Z</time>
      </trkpt>
      <trkpt lat="49.42066" lon="0.23281">
        <ele>-6.6</ele>
        <time>2015-10-18T12:38:15Z</time>
      </trkpt>
      <trkpt lat="49.42067" lon="0.2328">
        <ele>-6.4</ele>
        <time>2015-10-18T12:38:17Z</time>
      </trkpt>
      <trkpt lat="49.42068" lon="0.2328">
        <ele>-6.3</ele>
        <time>2015-10-18T12:38:18Z</time>
      </trkpt>
      <trkpt lat="49.4207" lon="0.23278">
        <ele>-5.2</ele>
        <time>2015-10-18T12:38:21Z</time>
      </trkpt>
      <trkpt lat="49.4207" lon="0.23278">
        <ele>-5.5</ele>
        <time>2015-10-18T12:38:22Z</time>
      </trkpt>
      <trkpt lat="49.4207" lon="0.23278">
        <ele>-5.6</ele>
        <time>2015-10-18T12:38:23Z</time>
      </trkpt>
      <trkpt lat="49.4207" lon="0.23278">
        <ele>-5.7</ele>
        <time>2015-10-18T12:38:24Z</time>
      </trkpt>
      <trkpt lat="49.4207" lon="0.23278">
        <ele>-5.8</ele>
        <time>2015-10-18T12:38:25Z</time>
      </trkpt>
      <trkpt lat="49.42071" lon="0.23278">
        <ele>-5.9</ele>
        <time>2015-10-18T12:38:26Z</time>
      </trkpt>
      <trkpt lat="49.42071" lon="0.23278">
        <ele>-6</ele>
        <time>2015-10-18T12:38:27Z</time>
      </trkpt>
      <trkpt lat="49.42071" lon="0.23277">
        <ele>-6</ele>
        <time>2015-10-18T12:38:28Z</time>
      </trkpt>
      <trkpt lat="49.42071" lon="0.23277">
        <ele>-6</ele>
        <time>2015-10-18T12:38:29Z</time>
      </trkpt>
      <trkpt lat="49.42071" lon="0.23277">
        <ele>-6.1</ele>
        <time>2015-10-18T12:38:30Z</time>
      </trkpt>
      <trkpt lat="49.42071" lon="0.23277">
        <ele>-5.9</ele>
        <time>2015-10-18T12:38:31Z</time>
      </trkpt>
      <trkpt lat="49.42071" lon="0.23277">
        <ele>-5.7</ele>
        <time>2015-10-18T12:38:32Z</time>
      </trkpt>
      <trkpt lat="49.42072" lon="0.23277">
        <ele>-5.6</ele>
        <time>2015-10-18T12:38:33Z</time>
      </trkpt>
      <trkpt lat="49.42072" lon="0.23277">
        <ele>-5.5</ele>
        <time>2015-10-18T12:38:34Z</time>
      </trkpt>
      <trkpt lat="49.42072" lon="0.23277">
        <ele>-5.5</ele>
        <time>2015-10-18T12:38:35Z</time>
      </trkpt>
      <trkpt lat="49.42072" lon="0.23276">
        <ele>-5.4</ele>
        <time>2015-10-18T12:38:36Z</time>
      </trkpt>
      <trkpt lat="49.42072" lon="0.23276">
        <ele>-5.4</ele>
        <time>2015-10-18T12:38:37Z</time>
      </trkpt>
      <trkpt lat="49.42073" lon="0.23276">
        <ele>-5.4</ele>
        <time>2015-10-18T12:38:38Z</time>
      </trkpt>
      <trkpt lat="49.42073" lon="0.23276">
        <ele>-5.3</ele>
        <time>2015-10-18T12:38:39Z</time>
      </trkpt>
      <trkpt lat="49.42073" lon="0.23276">
        <ele>-5.1</ele>
        <time>2015-10-18T12:38:40Z</time>
      </trkpt>
      <trkpt lat="49.42073" lon="0.23276">
        <ele>-5</ele>
        <time>2015-10-18T12:38:41Z</time>
      </trkpt>
      <trkpt lat="49.42074" lon="0.23276">
        <ele>-4.8</ele>
        <time>2015-10-18T12:38:42Z</time>
      </trkpt>
      <trkpt lat="49.42074" lon="0.23275">
        <ele>-5.2</ele>
        <time>2015-10-18T12:38:43Z</time>
      </trkpt>
      <trkpt lat="49.42074" lon="0.23275">
        <ele>-5.4</ele>
        <time>2015-10-18T12:38:44Z</time>
      </trkpt>
      <trkpt lat="49.42074" lon="0.23275">
        <ele>-5.6</ele>
        <time>2015-10-18T12:38:45Z</time>
      </trkpt>
      <trkpt lat="49.42074" lon="0.23275">
        <ele>-5.3</ele>
        <time>2015-10-18T12:38:46Z</time>
      </trkpt>
      <trkpt lat="49.42074" lon="0.23275">
        <ele>-5.1</ele>
        <time>2015-10-18T12:38:47Z</time>
      </trkpt>
      <trkpt lat="49.42074" lon="0.23275">
        <ele>-4.9</ele>
        <time>2015-10-18T12:38:48Z</time>
      </trkpt>
      <trkpt lat="49.42074" lon="0.23274">
        <ele>-6.9</ele>
        <time>2015-10-18T12:38:49Z</time>
      </trkpt>
      <trkpt lat="49.42074" lon="0.23274">
        <ele>-8.3</ele>
        <time>2015-10-18T12:38:50Z</time>
      </trkpt>
      <trkpt lat="49.42074" lon="0.23273">
        <ele>-9.4</ele>
        <time>2015-10-18T12:38:51Z</time>
      </trkpt>
      <trkpt lat="49.42074" lon="0.23273">
        <ele>-8.4</ele>
        <time>2015-10-18T12:38:52Z</time>
      </trkpt>
      <trkpt lat="49.42073" lon="0.23272">
        <ele>-7.6</ele>
        <time>2015-10-18T12:38:53Z</time>
      </trkpt>
      <trkpt lat="49.42073" lon="0.23272">
        <ele>-7</ele>
        <time>2015-10-18T12:38:54Z</time>
      </trkpt>
      <trkpt lat="49.42073" lon="0.23271">
        <ele>-6.2</ele>
        <time>2015-10-18T12:38:55Z</time>
      </trkpt>
      <trkpt lat="49.42073" lon="0.23271">
        <ele>-5.6</ele>
        <time>2015-10-18T12:38:56Z</time>
      </trkpt>
      <trkpt lat="49.42073" lon="0.23271">
        <ele>-5.1</ele>
        <time>2015-10-18T12:38:57Z</time>
      </trkpt>
      <trkpt lat="49.42073" lon="0.23271">
        <ele>-5.1</ele>
        <time>2015-10-18T12:38:58Z</time>
      </trkpt>
      <trkpt lat="49.42073" lon="0.23271">
        <ele>-5.2</ele>
        <time>2015-10-18T12:38:59Z</time>
      </trkpt>
      <trkpt lat="49.42073" lon="0.23271">
        <ele>-5.2</ele>
        <time>2015-10-18T12:39:00Z</time>
      </trkpt>
      <trkpt lat="49.42073" lon="0.23272">
        <ele>-4.8</ele>
        <time>2015-10-18T12:39:01Z</time>
      </trkpt>
      <trkpt lat="49.42073" lon="0.23272">
        <ele>-4.5</ele>
        <time>2015-10-18T12:39:02Z</time>
      </trkpt>
      <trkpt lat="49.42073" lon="0.23272">
        <ele>-4.3</ele>
        <time>2015-10-18T12:39:03Z</time>
      </trkpt>
      <trkpt lat="49.42073" lon="0.23272">
        <ele>-4.3</ele>
        <time>2015-10-18T12:39:04Z</time>
      </trkpt>
      <trkpt lat="49.42073" lon="0.23272">
        <ele>-4.4</ele>
        <time>2015-10-18T12:39:05Z</time>
      </trkpt>
      <trkpt lat="49.42073" lon="0.23272">
        <ele>-4.4</ele>
        <time>2015-10-18T12:39:06Z</time>
      </trkpt>
      <trkpt lat="49.42073" lon="0.23272">
        <ele>-4.6</ele>
        <time>2015-10-18T12:39:07Z</time>
      </trkpt>
      <trkpt lat="49.42073" lon="0.23272">
        <ele>-4.8</ele>
        <time>2015-10-18T12:39:08Z</time>
      </trkpt>
      <trkpt lat="49.42073" lon="0.23272">
        <ele>-4.9</ele>
        <time>2015-10-18T12:39:09Z</time>
      </trkpt>
      <trkpt lat="49.42073" lon="0.23272">
        <ele>-4.6</ele>
        <time>2015-10-18T12:39:10Z</time>
      </trkpt>
      <trkpt lat="49.42073" lon="0.23272">
        <ele>-4.4</ele>
        <time>2015-10-18T12:39:11Z</time>
      </trkpt>
      <trkpt lat="49.42073" lon="0.23272">
        <ele>-4.2</ele>
        <time>2015-10-18T12:39:12Z</time>
      </trkpt>
      <trkpt lat="49.42073" lon="0.23271">
        <ele>-4.2</ele>
        <time>2015-10-18T12:39:13Z</time>
      </trkpt>
      <trkpt lat="49.42073" lon="0.23271">
        <ele>-4.3</ele>
        <time>2015-10-18T12:39:14Z</time>
      </trkpt>
      <trkpt lat="49.42073" lon="0.23271">
        <ele>-4.3</ele>
        <time>2015-10-18T12:39:15Z</time>
      </trkpt>
      <trkpt lat="49.42073" lon="0.23271">
        <ele>-3.5</ele>
        <time>2015-10-18T12:39:16Z</time>
      </trkpt>
      <trkpt lat="49.42072" lon="0.23271">
        <ele>-2.9</ele>
        <time>2015-10-18T12:39:17Z</time>
      </trkpt>
      <trkpt lat="49.42072" lon="0.23271">
        <ele>-2.5</ele>
        <time>2015-10-18T12:39:18Z</time>
      </trkpt>
      <trkpt lat="49.42072" lon="0.23271">
        <ele>-2.8</ele>
        <time>2015-10-18T12:39:19Z</time>
      </trkpt>
      <trkpt lat="49.42072" lon="0.23271">
        <ele>-3</ele>
        <time>2015-10-18T12:39:20Z</time>
      </trkpt>
      <trkpt lat="49.42072" lon="0.23271">
        <ele>-3.2</ele>
        <time>2015-10-18T12:39:21Z</time>
      </trkpt>
      <trkpt lat="49.42072" lon="0.23271">
        <ele>-3.5</ele>
        <time>2015-10-18T12:39:22Z</time>
      </trkpt>
      <trkpt lat="49.42072" lon="0.2327">
        <ele>-3.7</ele>
        <time>2015-10-18T12:39:23Z</time>
      </trkpt>
      <trkpt lat="49.42072" lon="0.2327">
        <ele>-3.9</ele>
        <time>2015-10-18T12:39:24Z</time>
      </trkpt>
      <trkpt lat="49.42072" lon="0.2327">
        <ele>-4.3</ele>
        <time>2015-10-18T12:39:25Z</time>
      </trkpt>
      <trkpt lat="49.42072" lon="0.2327">
        <ele>-4.5</ele>
        <time>2015-10-18T12:39:26Z</time>
      </trkpt>
      <trkpt lat="49.42072" lon="0.2327">
        <ele>-4.7</ele>
        <time>2015-10-18T12:39:27Z</time>
      </trkpt>
      <trkpt lat="49.42071" lon="0.2327">
        <ele>-4.4</ele>
        <time>2015-10-18T12:39:28Z</time>
      </trkpt>
      <trkpt lat="49.42071" lon="0.2327">
        <ele>-4.2</ele>
        <time>2015-10-18T12:39:29Z</time>
      </trkpt>
      <trkpt lat="49.42071" lon="0.2327">
        <ele>-4.1</ele>
        <time>2015-10-18T12:39:30Z</time>
      </trkpt>
      <trkpt lat="49.42071" lon="0.2327">
        <ele>-4.2</ele>
        <time>2015-10-18T12:39:31Z</time>
      </trkpt>
      <trkpt lat="49.4207" lon="0.2327">
        <ele>-4.3</ele>
        <time>2015-10-18T12:39:32Z</time>
      </trkpt>
      <trkpt lat="49.4207" lon="0.2327">
        <ele>-4.3</ele>
        <time>2015-10-18T12:39:33Z</time>
      </trkpt>
      <trkpt lat="49.4207" lon="0.2327">
        <ele>-5</ele>
        <time>2015-10-18T12:39:34Z</time>
      </trkpt>
      <trkpt lat="49.4207" lon="0.2327">
        <ele>-5.5</ele>
        <time>2015-10-18T12:39:35Z</time>
      </trkpt>
      <trkpt lat="49.4207" lon="0.2327">
        <ele>-5.8</ele>
        <time>2015-10-18T12:39:36Z</time>
      </trkpt>
      <trkpt lat="49.4207" lon="0.23271">
        <ele>-6.3</ele>
        <time>2015-10-18T12:39:37Z</time>
      </trkpt>
      <trkpt lat="49.4207" lon="0.23271">
        <ele>-6.7</ele>
        <time>2015-10-18T12:39:38Z</time>
      </trkpt>
      <trkpt lat="49.42069" lon="0.23271">
        <ele>-7</ele>
        <time>2015-10-18T12:39:39Z</time>
      </trkpt>
      <trkpt lat="49.42069" lon="0.23271">
        <ele>-6.5</ele>
        <time>2015-10-18T12:39:40Z</time>
      </trkpt>
      <trkpt lat="49.42069" lon="0.23271">
        <ele>-6.2</ele>
        <time>2015-10-18T12:39:41Z</time>
      </trkpt>
      <trkpt lat="49.42069" lon="0.23271">
        <ele>-6</ele>
        <time>2015-10-18T12:39:42Z</time>
      </trkpt>
      <trkpt lat="49.42069" lon="0.23271">
        <ele>-5.8</ele>
        <time>2015-10-18T12:39:43Z</time>
      </trkpt>
      <trkpt lat="49.42069" lon="0.23271">
        <ele>-5.7</ele>
        <time>2015-10-18T12:39:44Z</time>
      </trkpt>
      <trkpt lat="49.42069" lon="0.23271">
        <ele>-5.6</ele>
        <time>2015-10-18T12:39:45Z</time>
      </trkpt>
      <trkpt lat="49.42069" lon="0.23271">
        <ele>-5.5</ele>
        <time>2015-10-18T12:39:46Z</time>
      </trkpt>
      <trkpt lat="49.42069" lon="0.23271">
        <ele>-5.5</ele>
        <time>2015-10-18T12:39:47Z</time>
      </trkpt>
      <trkpt lat="49.42069" lon="0.23271">
        <ele>-5.4</ele>
        <time>2015-10-18T12:39:48Z</time>
      </trkpt>
      <trkpt lat="49.42069" lon="0.23271">
        <ele>-5.6</ele>
        <time>2015-10-18T12:39:49Z</time>
      </trkpt>
      <trkpt lat="49.42069" lon="0.23271">
        <ele>-5.7</ele>
        <time>2015-10-18T12:39:50Z</time>
      </trkpt>
      <trkpt lat="49.42069" lon="0.23271">
        <ele>-5.8</ele>
        <time>2015-10-18T12:39:51Z</time>
      </trkpt>
      <trkpt lat="49.42069" lon="0.23271">
        <ele>-5.9</ele>
        <time>2015-10-18T12:39:52Z</time>
      </trkpt>
      <trkpt lat="49.42069" lon="0.23271">
        <ele>-6</ele>
        <time>2015-10-18T12:39:53Z</time>
      </trkpt>
      <trkpt lat="49.42069" lon="0.23263">
        <ele>17</ele>
        <time>2015-10-18T12:46:19Z</time>
      </trkpt>
      <trkpt lat="49.42068" lon="0.23264">
        <ele>17.1</ele>
        <time>2015-10-18T12:46:20Z</time>
      </trkpt>
      <trkpt lat="49.42068" lon="0.23266">
        <ele>17.2</ele>
        <time>2015-10-18T12:46:21Z</time>
      </trkpt>
      <trkpt lat="49.42067" lon="0.23267">
        <ele>16.8</ele>
        <time>2015-10-18T12:46:22Z</time>
      </trkpt>
      <trkpt lat="49.42067" lon="0.23269">
        <ele>16.5</ele>
        <time>2015-10-18T12:46:23Z</time>
      </trkpt>
      <trkpt lat="49.42067" lon="0.23271">
        <ele>16.3</ele>
        <time>2015-10-18T12:46:24Z</time>
      </trkpt>
      <trkpt lat="49.42067" lon="0.23272">
        <ele>16.3</ele>
        <time>2015-10-18T12:46:25Z</time>
      </trkpt>
      <trkpt lat="49.42066" lon="0.23272">
        <ele>16.4</ele>
        <time>2015-10-18T12:46:26Z</time>
      </trkpt>
      <trkpt lat="49.42066" lon="0.23273">
        <ele>16.4</ele>
        <time>2015-10-18T12:46:27Z</time>
      </trkpt>
      <trkpt lat="49.42066" lon="0.23273">
        <ele>16.4</ele>
        <time>2015-10-18T12:46:28Z</time>
      </trkpt>
      <trkpt lat="49.42066" lon="0.23274">
        <ele>16.4</ele>
        <time>2015-10-18T12:46:29Z</time>
      </trkpt>
      <trkpt lat="49.42066" lon="0.23275">
        <ele>16.4</ele>
        <time>2015-10-18T12:46:30Z</time>
      </trkpt>
      <trkpt lat="49.42066" lon="0.23275">
        <ele>16.7</ele>
        <time>2015-10-18T12:46:31Z</time>
      </trkpt>
      <trkpt lat="49.42066" lon="0.23276">
        <ele>16.8</ele>
        <time>2015-10-18T12:46:32Z</time>
      </trkpt>
      <trkpt lat="49.42066" lon="0.23277">
        <ele>16.9</ele>
        <time>2015-10-18T12:46:33Z</time>
      </trkpt>
      <trkpt lat="49.42066" lon="0.23277">
        <ele>16.8</ele>
        <time>2015-10-18T12:46:34Z</time>
      </trkpt>
      <trkpt lat="49.42067" lon="0.23278">
        <ele>16.7</ele>
        <time>2015-10-18T12:46:35Z</time>
      </trkpt>
      <trkpt lat="49.42067" lon="0.23278">
        <ele>16.7</ele>
        <time>2015-10-18T12:46:36Z</time>
      </trkpt>
      <trkpt lat="49.42067" lon="0.23278">
        <ele>16.6</ele>
        <time>2015-10-18T12:46:37Z</time>
      </trkpt>
      <trkpt lat="49.42067" lon="0.23278">
        <ele>16.6</ele>
        <time>2015-10-18T12:46:38Z</time>
      </trkpt>
      <trkpt lat="49.42067" lon="0.23279">
        <ele>16.6</ele>
        <time>2015-10-18T12:46:39Z</time>
      </trkpt>
      <trkpt lat="49.42067" lon="0.23279">
        <ele>16.5</ele>
        <time>2015-10-18T12:46:40Z</time>
      </trkpt>
      <trkpt lat="49.42067" lon="0.23279">
        <ele>16.5</ele>
        <time>2015-10-18T12:46:41Z</time>
      </trkpt>
      <trkpt lat="49.42067" lon="0.23279">
        <ele>16.5</ele>
        <time>2015-10-18T12:46:42Z</time>
      </trkpt>
      <trkpt lat="49.42067" lon="0.23279">
        <ele>16.7</ele>
        <time>2015-10-18T12:46:43Z</time>
      </trkpt>
      <trkpt lat="49.42067" lon="0.2328">
        <ele>16.9</ele>
        <time>2015-10-18T12:46:44Z</time>
      </trkpt>
      <trkpt lat="49.42067" lon="0.2328">
        <ele>17</ele>
        <time>2015-10-18T12:46:45Z</time>
      </trkpt>
      <trkpt lat="49.42067" lon="0.23281">
        <ele>17.1</ele>
        <time>2015-10-18T12:46:46Z</time>
      </trkpt>
      <trkpt lat="49.42066" lon="0.23282">
        <ele>17.1</ele>
        <time>2015-10-18T12:46:47Z</time>
      </trkpt>
      <trkpt lat="49.42066" lon="0.23283">
        <ele>17.2</ele>
        <time>2015-10-18T12:46:48Z</time>
      </trkpt>
      <trkpt lat="49.42066" lon="0.23285">
        <ele>17</ele>
        <time>2015-10-18T12:46:49Z</time>
      </trkpt>
      <trkpt lat="49.42066" lon="0.23286">
        <ele>16.9</ele>
        <time>2015-10-18T12:46:50Z</time>
      </trkpt>
      <trkpt lat="49.42066" lon="0.23287">
        <ele>16.8</ele>
        <time>2015-10-18T12:46:51Z</time>
      </trkpt>
      <trkpt lat="49.42066" lon="0.23288">
        <ele>16.5</ele>
        <time>2015-10-18T12:46:52Z</time>
      </trkpt>
      <trkpt lat="49.42065" lon="0.23289">
        <ele>16.3</ele>
        <time>2015-10-18T12:46:53Z</time>
      </trkpt>
      <trkpt lat="49.42065" lon="0.2329">
        <ele>16.1</ele>
        <time>2015-10-18T12:46:54Z</time>
      </trkpt>
      <trkpt lat="49.42065" lon="0.23291">
        <ele>16.2</ele>
        <time>2015-10-18T12:46:55Z</time>
      </trkpt>
      <trkpt lat="49.42065" lon="0.23291">
        <ele>16.3</ele>
        <time>2015-10-18T12:46:56Z</time>
      </trkpt>
      <trkpt lat="49.42064" lon="0.23292">
        <ele>16.3</ele>
        <time>2015-10-18T12:46:57Z</time>
      </trkpt>
      <trkpt lat="49.42064" lon="0.23293">
        <ele>16.6</ele>
        <time>2015-10-18T12:46:58Z</time>
      </trkpt>
      <trkpt lat="49.42064" lon="0.23293">
        <ele>16.8</ele>
        <time>2015-10-18T12:46:59Z</time>
      </trkpt>
      <trkpt lat="49.42064" lon="0.23294">
        <ele>16.9</ele>
        <time>2015-10-18T12:47:00Z</time>
      </trkpt>
      <trkpt lat="49.42064" lon="0.23295">
        <ele>17</ele>
        <time>2015-10-18T12:47:01Z</time>
      </trkpt>
      <trkpt lat="49.42064" lon="0.23295">
        <ele>17.1</ele>
        <time>2015-10-18T12:47:02Z</time>
      </trkpt>
      <trkpt lat="49.42064" lon="0.23296">
        <ele>17.1</ele>
        <time>2015-10-18T12:47:03Z</time>
      </trkpt>
      <trkpt lat="49.42063" lon="0.23296">
        <ele>17.2</ele>
        <time>2015-10-18T12:47:04Z</time>
      </trkpt>
      <trkpt lat="49.42063" lon="0.23297">
        <ele>17.2</ele>
        <time>2015-10-18T12:47:05Z</time>
      </trkpt>
      <trkpt lat="49.42063" lon="0.23297">
        <ele>17.2</ele>
        <time>2015-10-18T12:47:06Z</time>
      </trkpt>
      <trkpt lat="49.42063" lon="0.23298">
        <ele>17.1</ele>
        <time>2015-10-18T12:47:07Z</time>
      </trkpt>
      <trkpt lat="49.42063" lon="0.23298">
        <ele>16.9</ele>
        <time>2015-10-18T12:47:08Z</time>
      </trkpt>
      <trkpt lat="49.42063" lon="0.23298">
        <ele>16.8</ele>
        <time>2015-10-18T12:47:09Z</time>
      </trkpt>
      <trkpt lat="49.42063" lon="0.23298">
        <ele>16.9</ele>
        <time>2015-10-18T12:47:10Z</time>
      </trkpt>
      <trkpt lat="49.42063" lon="0.23298">
        <ele>17</ele>
        <time>2015-10-18T12:47:11Z</time>
      </trkpt>
      <trkpt lat="49.42063" lon="0.23298">
        <ele>17.1</ele>
        <time>2015-10-18T12:47:12Z</time>
      </trkpt>
      <trkpt lat="49.42063" lon="0.23298">
        <ele>16.9</ele>
        <time>2015-10-18T12:47:13Z</time>
      </trkpt>
      <trkpt lat="49.42063" lon="0.23298">
        <ele>16.8</ele>
        <time>2015-10-18T12:47:14Z</time>
      </trkpt>
      <trkpt lat="49.42063" lon="0.23298">
        <ele>16.7</ele>
        <time>2015-10-18T12:47:15Z</time>
      </trkpt>
      <trkpt lat="49.42063" lon="0.23298">
        <ele>16.5</ele>
        <time>2015-10-18T12:47:16Z</time>
      </trkpt>
      <trkpt lat="49.42063" lon="0.23298">
        <ele>16.3</ele>
        <time>2015-10-18T12:47:17Z</time>
      </trkpt>
      <trkpt lat="49.42063" lon="0.23298">
        <ele>16.1</ele>
        <time>2015-10-18T12:47:18Z</time>
      </trkpt>
      <trkpt lat="49.42063" lon="0.23298">
        <ele>16.2</ele>
        <time>2015-10-18T12:47:19Z</time>
      </trkpt>
      <trkpt lat="49.42063" lon="0.23299">
        <ele>16.3</ele>
        <time>2015-10-18T12:47:20Z</time>
      </trkpt>
      <trkpt lat="49.42063" lon="0.23299">
        <ele>16.3</ele>
        <time>2015-10-18T12:47:21Z</time>
      </trkpt>
    </trkseg>
  </trk>
</gpx>